<?xml version='1.0' encoding='UTF-8'?>
<gpx version="1.1" creator="https://www.komoot.de" xmlns="http://www.topografix.com/GPX/1/1" xmlns:xsi="http://www.w3.org/2001/XMLSchema-instance" xsi:schemaLocation="http://www.topografix.com/GPX/1/1 http://www.topografix.com/GPX/1/1/gpx.xsd">
  <metadata>
    <name>Enschede to Nijmegen Ride</name>
    <author>
      <link href="https://www.komoot.de">
        <text>komoot</text>
        <type>text/html</type>
      </link>
    </author>
  </metadata>
  <trk>
    <name>Enschede to Nijmegen Ride</name>
    <trkseg>
      <trkpt lat="52.222427" lon="6.889158">
        <ele>90.196619</ele>
        <time>2026-05-09T06:31:43.218Z</time>
      </trkpt>
      <trkpt lat="52.222415" lon="6.889402">
        <ele>90.196619</ele>
        <time>2026-05-09T06:31:52.975Z</time>
      </trkpt>
      <trkpt lat="52.222437" lon="6.889548">
        <ele>90.196619</ele>
        <time>2026-05-09T06:32:00.978Z</time>
      </trkpt>
      <trkpt lat="52.222411" lon="6.889700">
        <ele>90.196619</ele>
        <time>2026-05-09T06:32:08.979Z</time>
      </trkpt>
      <trkpt lat="52.222417" lon="6.889848">
        <ele>90.196619</ele>
        <time>2026-05-09T06:32:22.972Z</time>
      </trkpt>
      <trkpt lat="52.222343" lon="6.889941">
        <ele>90.196619</ele>
        <time>2026-05-09T06:32:52.977Z</time>
      </trkpt>
      <trkpt lat="52.222328" lon="6.890091">
        <ele>90.196619</ele>
        <time>2026-05-09T06:33:03.977Z</time>
      </trkpt>
      <trkpt lat="52.222480" lon="6.890036">
        <ele>90.196619</ele>
        <time>2026-05-09T06:33:54.977Z</time>
      </trkpt>
      <trkpt lat="52.222573" lon="6.890034">
        <ele>90.196619</ele>
        <time>2026-05-09T06:34:21.976Z</time>
      </trkpt>
      <trkpt lat="52.222698" lon="6.890026">
        <ele>90.003629</ele>
        <time>2026-05-09T06:36:11.972Z</time>
      </trkpt>
      <trkpt lat="52.222597" lon="6.889969">
        <ele>89.775911</ele>
        <time>2026-05-09T06:36:21.983Z</time>
      </trkpt>
      <trkpt lat="52.222490" lon="6.889963">
        <ele>89.547772</ele>
        <time>2026-05-09T06:36:24.975Z</time>
      </trkpt>
      <trkpt lat="52.222392" lon="6.889981">
        <ele>89.337627</ele>
        <time>2026-05-09T06:36:29.971Z</time>
      </trkpt>
      <trkpt lat="52.222330" lon="6.890093">
        <ele>89.140576</ele>
        <time>2026-05-09T06:36:38.974Z</time>
      </trkpt>
      <trkpt lat="52.222299" lon="6.890240">
        <ele>88.937634</ele>
        <time>2026-05-09T06:36:49.975Z</time>
      </trkpt>
      <trkpt lat="52.222158" lon="6.890279">
        <ele>88.632896</ele>
        <time>2026-05-09T06:41:11.978Z</time>
      </trkpt>
      <trkpt lat="52.222073" lon="6.890333">
        <ele>88.438538</ele>
        <time>2026-05-09T06:41:28.982Z</time>
      </trkpt>
      <trkpt lat="52.221994" lon="6.890416">
        <ele>88.238345</ele>
        <time>2026-05-09T06:41:36.975Z</time>
      </trkpt>
      <trkpt lat="52.221916" lon="6.890535">
        <ele>88.010845</ele>
        <time>2026-05-09T06:41:41.975Z</time>
      </trkpt>
      <trkpt lat="52.221826" lon="6.890634">
        <ele>87.779586</ele>
        <time>2026-05-09T06:41:45.982Z</time>
      </trkpt>
      <trkpt lat="52.221732" lon="6.890714">
        <ele>87.553694</ele>
        <time>2026-05-09T06:41:49.974Z</time>
      </trkpt>
      <trkpt lat="52.221639" lon="6.890748">
        <ele>87.350612</ele>
        <time>2026-05-09T06:41:52.971Z</time>
      </trkpt>
      <trkpt lat="52.221529" lon="6.890775">
        <ele>87.113580</ele>
        <time>2026-05-09T06:41:55.978Z</time>
      </trkpt>
      <trkpt lat="52.221413" lon="6.890812">
        <ele>86.861723</ele>
        <time>2026-05-09T06:41:58.972Z</time>
      </trkpt>
      <trkpt lat="52.221300" lon="6.890844">
        <ele>86.617336</ele>
        <time>2026-05-09T06:42:01.985Z</time>
      </trkpt>
      <trkpt lat="52.221199" lon="6.890883">
        <ele>86.396178</ele>
        <time>2026-05-09T06:42:04.984Z</time>
      </trkpt>
      <trkpt lat="52.221107" lon="6.890884">
        <ele>86.325576</ele>
        <time>2026-05-09T06:42:08.979Z</time>
      </trkpt>
      <trkpt lat="52.220960" lon="6.890941">
        <ele>86.250203</ele>
        <time>2026-05-09T06:42:27.976Z</time>
      </trkpt>
      <trkpt lat="52.220860" lon="6.890942">
        <ele>86.200316</ele>
        <time>2026-05-09T06:42:30.977Z</time>
      </trkpt>
      <trkpt lat="52.220749" lon="6.890963">
        <ele>86.144572</ele>
        <time>2026-05-09T06:42:33.974Z</time>
      </trkpt>
      <trkpt lat="52.220631" lon="6.891002">
        <ele>86.084512</ele>
        <time>2026-05-09T06:42:36.968Z</time>
      </trkpt>
      <trkpt lat="52.220523" lon="6.891033">
        <ele>86.029809</ele>
        <time>2026-05-09T06:42:39.972Z</time>
      </trkpt>
      <trkpt lat="52.220420" lon="6.891072">
        <ele>85.977062</ele>
        <time>2026-05-09T06:42:42.970Z</time>
      </trkpt>
      <trkpt lat="52.220305" lon="6.891123">
        <ele>85.917613</ele>
        <time>2026-05-09T06:42:45.983Z</time>
      </trkpt>
      <trkpt lat="52.220177" lon="6.891180">
        <ele>85.851426</ele>
        <time>2026-05-09T06:42:48.974Z</time>
      </trkpt>
      <trkpt lat="52.220089" lon="6.891217">
        <ele>85.806093</ele>
        <time>2026-05-09T06:42:50.971Z</time>
      </trkpt>
      <trkpt lat="52.220003" lon="6.891257">
        <ele>85.761483</ele>
        <time>2026-05-09T06:42:52.975Z</time>
      </trkpt>
      <trkpt lat="52.219883" lon="6.891314">
        <ele>85.699137</ele>
        <time>2026-05-09T06:42:55.982Z</time>
      </trkpt>
      <trkpt lat="52.219788" lon="6.891428">
        <ele>85.640317</ele>
        <time>2026-05-09T06:42:58.974Z</time>
      </trkpt>
      <trkpt lat="52.219722" lon="6.891597">
        <ele>85.579066</ele>
        <time>2026-05-09T06:43:01.981Z</time>
      </trkpt>
      <trkpt lat="52.219697" lon="6.891795">
        <ele>85.517281</ele>
        <time>2026-05-09T06:43:04.976Z</time>
      </trkpt>
      <trkpt lat="52.219667" lon="6.891973">
        <ele>85.481487</ele>
        <time>2026-05-09T06:43:07.976Z</time>
      </trkpt>
      <trkpt lat="52.219621" lon="6.892133">
        <ele>85.619905</ele>
        <time>2026-05-09T06:43:10.976Z</time>
      </trkpt>
      <trkpt lat="52.219573" lon="6.892287">
        <ele>85.755225</ele>
        <time>2026-05-09T06:43:13.972Z</time>
      </trkpt>
      <trkpt lat="52.219520" lon="6.892418">
        <ele>85.878173</ele>
        <time>2026-05-09T06:43:16.975Z</time>
      </trkpt>
      <trkpt lat="52.219446" lon="6.892516">
        <ele>85.999991</ele>
        <time>2026-05-09T06:43:19.976Z</time>
      </trkpt>
      <trkpt lat="52.219349" lon="6.892590">
        <ele>86.136867</ele>
        <time>2026-05-09T06:43:22.974Z</time>
      </trkpt>
      <trkpt lat="52.219245" lon="6.892671">
        <ele>86.284175</ele>
        <time>2026-05-09T06:43:25.972Z</time>
      </trkpt>
      <trkpt lat="52.219175" lon="6.892803">
        <ele>86.420904</ele>
        <time>2026-05-09T06:43:28.969Z</time>
      </trkpt>
      <trkpt lat="52.219217" lon="6.892978">
        <ele>86.568101</ele>
        <time>2026-05-09T06:43:32.973Z</time>
      </trkpt>
      <trkpt lat="52.219271" lon="6.893120">
        <ele>86.698995</ele>
        <time>2026-05-09T06:43:35.977Z</time>
      </trkpt>
      <trkpt lat="52.219311" lon="6.893277">
        <ele>86.832162</ele>
        <time>2026-05-09T06:43:38.972Z</time>
      </trkpt>
      <trkpt lat="52.219343" lon="6.893437">
        <ele>86.963978</ele>
        <time>2026-05-09T06:43:41.986Z</time>
      </trkpt>
      <trkpt lat="52.219380" lon="6.893591">
        <ele>87.093530</ele>
        <time>2026-05-09T06:43:44.975Z</time>
      </trkpt>
      <trkpt lat="52.219404" lon="6.893740">
        <ele>87.214188</ele>
        <time>2026-05-09T06:43:47.971Z</time>
      </trkpt>
      <trkpt lat="52.219403" lon="6.893926">
        <ele>87.359864</ele>
        <time>2026-05-09T06:43:51.978Z</time>
      </trkpt>
      <trkpt lat="52.219321" lon="6.893860">
        <ele>87.476740</ele>
        <time>2026-05-09T06:44:03.976Z</time>
      </trkpt>
      <trkpt lat="52.219403" lon="6.894071">
        <ele>87.672433</ele>
        <time>2026-05-09T06:46:13.972Z</time>
      </trkpt>
      <trkpt lat="52.219452" lon="6.894242">
        <ele>87.768191</ele>
        <time>2026-05-09T06:46:17.970Z</time>
      </trkpt>
      <trkpt lat="52.219500" lon="6.894384">
        <ele>87.773412</ele>
        <time>2026-05-09T06:46:21.978Z</time>
      </trkpt>
      <trkpt lat="52.219544" lon="6.894527">
        <ele>87.778563</ele>
        <time>2026-05-09T06:46:26.974Z</time>
      </trkpt>
      <trkpt lat="52.219642" lon="6.894547">
        <ele>87.783752</ele>
        <time>2026-05-09T06:46:31.974Z</time>
      </trkpt>
      <trkpt lat="52.219755" lon="6.894484">
        <ele>87.790027</ele>
        <time>2026-05-09T06:46:35.970Z</time>
      </trkpt>
      <trkpt lat="52.219854" lon="6.894405">
        <ele>87.795817</ele>
        <time>2026-05-09T06:46:39.972Z</time>
      </trkpt>
      <trkpt lat="52.219938" lon="6.894343">
        <ele>87.800661</ele>
        <time>2026-05-09T06:46:43.972Z</time>
      </trkpt>
      <trkpt lat="52.220029" lon="6.894373">
        <ele>87.805539</ele>
        <time>2026-05-09T06:46:49.987Z</time>
      </trkpt>
      <trkpt lat="52.220099" lon="6.894474">
        <ele>87.810448</ele>
        <time>2026-05-09T06:46:53.970Z</time>
      </trkpt>
      <trkpt lat="52.220182" lon="6.894533">
        <ele>87.815204</ele>
        <time>2026-05-09T06:46:56.976Z</time>
      </trkpt>
      <trkpt lat="52.220275" lon="6.894619">
        <ele>87.820821</ele>
        <time>2026-05-09T06:47:00.978Z</time>
      </trkpt>
      <trkpt lat="52.220320" lon="6.894759">
        <ele>87.825910</ele>
        <time>2026-05-09T06:47:05.974Z</time>
      </trkpt>
      <trkpt lat="52.220332" lon="6.894924">
        <ele>87.831258</ele>
        <time>2026-05-09T06:47:10.970Z</time>
      </trkpt>
      <trkpt lat="52.220358" lon="6.895072">
        <ele>87.836214</ele>
        <time>2026-05-09T06:47:14.975Z</time>
      </trkpt>
      <trkpt lat="52.220377" lon="6.895241">
        <ele>87.841745</ele>
        <time>2026-05-09T06:47:19.972Z</time>
      </trkpt>
      <trkpt lat="52.220420" lon="6.895379">
        <ele>87.846729</ele>
        <time>2026-05-09T06:47:23.972Z</time>
      </trkpt>
      <trkpt lat="52.220518" lon="6.895447">
        <ele>87.852324</ele>
        <time>2026-05-09T06:47:28.971Z</time>
      </trkpt>
      <trkpt lat="52.220558" lon="6.895622">
        <ele>87.858337</ele>
        <time>2026-05-09T06:47:33.981Z</time>
      </trkpt>
      <trkpt lat="52.220550" lon="6.895808">
        <ele>87.835275</ele>
        <time>2026-05-09T06:47:37.981Z</time>
      </trkpt>
      <trkpt lat="52.220532" lon="6.896001">
        <ele>87.794402</ele>
        <time>2026-05-09T06:47:41.973Z</time>
      </trkpt>
      <trkpt lat="52.220551" lon="6.896145">
        <ele>87.763563</ele>
        <time>2026-05-09T06:47:44.978Z</time>
      </trkpt>
      <trkpt lat="52.220647" lon="6.896241">
        <ele>87.725088</ele>
        <time>2026-05-09T06:47:48.972Z</time>
      </trkpt>
      <trkpt lat="52.220741" lon="6.896277">
        <ele>87.692091</ele>
        <time>2026-05-09T06:47:52.977Z</time>
      </trkpt>
      <trkpt lat="52.220829" lon="6.896311">
        <ele>87.661187</ele>
        <time>2026-05-09T06:47:56.970Z</time>
      </trkpt>
      <trkpt lat="52.220930" lon="6.896373">
        <ele>87.624310</ele>
        <time>2026-05-09T06:48:00.981Z</time>
      </trkpt>
      <trkpt lat="52.221031" lon="6.896444">
        <ele>87.586729</ele>
        <time>2026-05-09T06:48:04.977Z</time>
      </trkpt>
      <trkpt lat="52.221131" lon="6.896522">
        <ele>87.548853</ele>
        <time>2026-05-09T06:48:08.975Z</time>
      </trkpt>
      <trkpt lat="52.221205" lon="6.896610">
        <ele>87.517564</ele>
        <time>2026-05-09T06:48:12.973Z</time>
      </trkpt>
      <trkpt lat="52.221182" lon="6.896782">
        <ele>87.480706</ele>
        <time>2026-05-09T06:48:16.967Z</time>
      </trkpt>
      <trkpt lat="52.221135" lon="6.896937">
        <ele>87.444498</ele>
        <time>2026-05-09T06:48:20.967Z</time>
      </trkpt>
      <trkpt lat="52.221199" lon="6.897067">
        <ele>87.409582</ele>
        <time>2026-05-09T06:48:24.973Z</time>
      </trkpt>
      <trkpt lat="52.221302" lon="6.897158">
        <ele>87.369556</ele>
        <time>2026-05-09T06:48:28.973Z</time>
      </trkpt>
      <trkpt lat="52.221381" lon="6.897236">
        <ele>87.338004</ele>
        <time>2026-05-09T06:48:31.970Z</time>
      </trkpt>
      <trkpt lat="52.221474" lon="6.897340">
        <ele>87.299478</ele>
        <time>2026-05-09T06:48:35.970Z</time>
      </trkpt>
      <trkpt lat="52.221484" lon="6.897488">
        <ele>87.268305</ele>
        <time>2026-05-09T06:48:39.967Z</time>
      </trkpt>
      <trkpt lat="52.221422" lon="6.897659">
        <ele>87.277242</ele>
        <time>2026-05-09T06:48:43.973Z</time>
      </trkpt>
      <trkpt lat="52.221355" lon="6.897788">
        <ele>87.335628</ele>
        <time>2026-05-09T06:48:46.976Z</time>
      </trkpt>
      <trkpt lat="52.221278" lon="6.897905">
        <ele>87.394911</ele>
        <time>2026-05-09T06:48:49.974Z</time>
      </trkpt>
      <trkpt lat="52.221196" lon="6.898011">
        <ele>87.453856</ele>
        <time>2026-05-09T06:48:52.977Z</time>
      </trkpt>
      <trkpt lat="52.221110" lon="6.898101">
        <ele>87.511425</ele>
        <time>2026-05-09T06:48:55.971Z</time>
      </trkpt>
      <trkpt lat="52.221024" lon="6.898174">
        <ele>87.566050</ele>
        <time>2026-05-09T06:48:58.974Z</time>
      </trkpt>
      <trkpt lat="52.220925" lon="6.898254">
        <ele>87.628303</ele>
        <time>2026-05-09T06:49:01.983Z</time>
      </trkpt>
      <trkpt lat="52.220831" lon="6.898332">
        <ele>87.687727</ele>
        <time>2026-05-09T06:49:04.976Z</time>
      </trkpt>
      <trkpt lat="52.220730" lon="6.898398">
        <ele>87.749036</ele>
        <time>2026-05-09T06:49:07.975Z</time>
      </trkpt>
      <trkpt lat="52.220639" lon="6.898457">
        <ele>87.804215</ele>
        <time>2026-05-09T06:49:10.973Z</time>
      </trkpt>
      <trkpt lat="52.220551" lon="6.898520">
        <ele>87.858366</ele>
        <time>2026-05-09T06:49:13.970Z</time>
      </trkpt>
      <trkpt lat="52.220443" lon="6.898596">
        <ele>87.924644</ele>
        <time>2026-05-09T06:49:17.981Z</time>
      </trkpt>
      <trkpt lat="52.220355" lon="6.898629">
        <ele>87.975527</ele>
        <time>2026-05-09T06:49:20.975Z</time>
      </trkpt>
      <trkpt lat="52.220263" lon="6.898661">
        <ele>88.028536</ele>
        <time>2026-05-09T06:49:23.974Z</time>
      </trkpt>
      <trkpt lat="52.220169" lon="6.898695">
        <ele>88.082794</ele>
        <time>2026-05-09T06:49:26.981Z</time>
      </trkpt>
      <trkpt lat="52.220078" lon="6.898724">
        <ele>88.135044</ele>
        <time>2026-05-09T06:49:29.971Z</time>
      </trkpt>
      <trkpt lat="52.219987" lon="6.898745">
        <ele>88.186836</ele>
        <time>2026-05-09T06:49:32.973Z</time>
      </trkpt>
      <trkpt lat="52.219897" lon="6.898764">
        <ele>88.237977</ele>
        <time>2026-05-09T06:49:35.972Z</time>
      </trkpt>
      <trkpt lat="52.219802" lon="6.898762">
        <ele>88.328658</ele>
        <time>2026-05-09T06:49:38.969Z</time>
      </trkpt>
      <trkpt lat="52.219705" lon="6.898767">
        <ele>88.446568</ele>
        <time>2026-05-09T06:49:41.976Z</time>
      </trkpt>
      <trkpt lat="52.219603" lon="6.898738">
        <ele>88.572359</ele>
        <time>2026-05-09T06:49:45.972Z</time>
      </trkpt>
      <trkpt lat="52.219554" lon="6.898496">
        <ele>88.762070</ele>
        <time>2026-05-09T06:50:06.971Z</time>
      </trkpt>
      <trkpt lat="52.219558" lon="6.898321">
        <ele>88.892418</ele>
        <time>2026-05-09T06:50:10.974Z</time>
      </trkpt>
      <trkpt lat="52.219525" lon="6.898147">
        <ele>89.027995</ele>
        <time>2026-05-09T06:50:14.977Z</time>
      </trkpt>
      <trkpt lat="52.219476" lon="6.897974">
        <ele>89.169860</ele>
        <time>2026-05-09T06:50:18.973Z</time>
      </trkpt>
      <trkpt lat="52.219417" lon="6.897839">
        <ele>89.293293</ele>
        <time>2026-05-09T06:50:21.971Z</time>
      </trkpt>
      <trkpt lat="52.219364" lon="6.897707">
        <ele>89.410766</ele>
        <time>2026-05-09T06:50:24.970Z</time>
      </trkpt>
      <trkpt lat="52.219330" lon="6.897563">
        <ele>89.525634</ele>
        <time>2026-05-09T06:50:27.979Z</time>
      </trkpt>
      <trkpt lat="52.219302" lon="6.897411">
        <ele>89.643777</ele>
        <time>2026-05-09T06:50:30.974Z</time>
      </trkpt>
      <trkpt lat="52.219278" lon="6.897264">
        <ele>89.757012</ele>
        <time>2026-05-09T06:50:33.969Z</time>
      </trkpt>
      <trkpt lat="52.219259" lon="6.897078">
        <ele>89.897370</ele>
        <time>2026-05-09T06:50:37.985Z</time>
      </trkpt>
      <trkpt lat="52.219238" lon="6.896930">
        <ele>90.010447</ele>
        <time>2026-05-09T06:50:40.976Z</time>
      </trkpt>
      <trkpt lat="52.219207" lon="6.896750">
        <ele>90.149621</ele>
        <time>2026-05-09T06:50:44.976Z</time>
      </trkpt>
      <trkpt lat="52.219176" lon="6.896604">
        <ele>90.264635</ele>
        <time>2026-05-09T06:50:48.975Z</time>
      </trkpt>
      <trkpt lat="52.219145" lon="6.896463">
        <ele>90.376140</ele>
        <time>2026-05-09T06:50:52.974Z</time>
      </trkpt>
      <trkpt lat="52.219125" lon="6.896287">
        <ele>90.339627</ele>
        <time>2026-05-09T06:50:57.971Z</time>
      </trkpt>
      <trkpt lat="52.219111" lon="6.896117">
        <ele>90.132385</ele>
        <time>2026-05-09T06:51:01.985Z</time>
      </trkpt>
      <trkpt lat="52.219070" lon="6.895935">
        <ele>89.898097</ele>
        <time>2026-05-09T06:51:05.974Z</time>
      </trkpt>
      <trkpt lat="52.219018" lon="6.895793">
        <ele>89.698219</ele>
        <time>2026-05-09T06:51:08.975Z</time>
      </trkpt>
      <trkpt lat="52.218960" lon="6.895664">
        <ele>89.504892</ele>
        <time>2026-05-09T06:51:11.985Z</time>
      </trkpt>
      <trkpt lat="52.218912" lon="6.895540">
        <ele>89.327673</ele>
        <time>2026-05-09T06:51:14.972Z</time>
      </trkpt>
      <trkpt lat="52.218846" lon="6.895398">
        <ele>89.112322</ele>
        <time>2026-05-09T06:51:18.969Z</time>
      </trkpt>
      <trkpt lat="52.218769" lon="6.895250">
        <ele>88.877728</ele>
        <time>2026-05-09T06:51:22.972Z</time>
      </trkpt>
      <trkpt lat="52.218693" lon="6.895139">
        <ele>88.676605</ele>
        <time>2026-05-09T06:51:25.975Z</time>
      </trkpt>
      <trkpt lat="52.218615" lon="6.895031">
        <ele>88.474889</ele>
        <time>2026-05-09T06:51:28.973Z</time>
      </trkpt>
      <trkpt lat="52.218538" lon="6.894919">
        <ele>88.271491</ele>
        <time>2026-05-09T06:51:31.977Z</time>
      </trkpt>
      <trkpt lat="52.218470" lon="6.894796">
        <ele>88.071318</ele>
        <time>2026-05-09T06:51:34.969Z</time>
      </trkpt>
      <trkpt lat="52.218406" lon="6.894691">
        <ele>87.892364</ele>
        <time>2026-05-09T06:51:37.970Z</time>
      </trkpt>
      <trkpt lat="52.218334" lon="6.894589">
        <ele>87.704348</ele>
        <time>2026-05-09T06:51:40.970Z</time>
      </trkpt>
      <trkpt lat="52.218269" lon="6.894481">
        <ele>87.521430</ele>
        <time>2026-05-09T06:51:43.972Z</time>
      </trkpt>
      <trkpt lat="52.218202" lon="6.894372">
        <ele>87.334874</ele>
        <time>2026-05-09T06:51:46.972Z</time>
      </trkpt>
      <trkpt lat="52.218117" lon="6.894256">
        <ele>87.116372</ele>
        <time>2026-05-09T06:51:50.977Z</time>
      </trkpt>
      <trkpt lat="52.218074" lon="6.894121">
        <ele>86.932534</ele>
        <time>2026-05-09T06:51:54.973Z</time>
      </trkpt>
      <trkpt lat="52.218033" lon="6.893979">
        <ele>86.965089</ele>
        <time>2026-05-09T06:51:58.975Z</time>
      </trkpt>
      <trkpt lat="52.217866" lon="6.893758">
        <ele>87.150288</ele>
        <time>2026-05-09T06:52:46.982Z</time>
      </trkpt>
      <trkpt lat="52.217773" lon="6.893727">
        <ele>87.232053</ele>
        <time>2026-05-09T06:52:50.975Z</time>
      </trkpt>
      <trkpt lat="52.217697" lon="6.893814">
        <ele>87.312017</ele>
        <time>2026-05-09T06:52:54.975Z</time>
      </trkpt>
      <trkpt lat="52.217607" lon="6.893844">
        <ele>87.391145</ele>
        <time>2026-05-09T06:53:02.972Z</time>
      </trkpt>
      <trkpt lat="52.217581" lon="6.894006">
        <ele>87.479528</ele>
        <time>2026-05-09T06:53:08.974Z</time>
      </trkpt>
      <trkpt lat="52.217484" lon="6.893998">
        <ele>87.563192</ele>
        <time>2026-05-09T06:53:14.972Z</time>
      </trkpt>
      <trkpt lat="52.217391" lon="6.894001">
        <ele>87.643320</ele>
        <time>2026-05-09T06:53:18.975Z</time>
      </trkpt>
      <trkpt lat="52.217296" lon="6.893952">
        <ele>87.729144</ele>
        <time>2026-05-09T06:53:21.972Z</time>
      </trkpt>
      <trkpt lat="52.217194" lon="6.893921">
        <ele>87.818519</ele>
        <time>2026-05-09T06:53:24.977Z</time>
      </trkpt>
      <trkpt lat="52.217095" lon="6.893924">
        <ele>87.903815</ele>
        <time>2026-05-09T06:53:27.971Z</time>
      </trkpt>
      <trkpt lat="52.216998" lon="6.893941">
        <ele>87.987853</ele>
        <time>2026-05-09T06:53:30.978Z</time>
      </trkpt>
      <trkpt lat="52.216900" lon="6.893988">
        <ele>88.075841</ele>
        <time>2026-05-09T06:53:33.977Z</time>
      </trkpt>
      <trkpt lat="52.216789" lon="6.894035">
        <ele>88.174624</ele>
        <time>2026-05-09T06:53:36.972Z</time>
      </trkpt>
      <trkpt lat="52.216675" lon="6.894074">
        <ele>88.274960</ele>
        <time>2026-05-09T06:53:39.974Z</time>
      </trkpt>
      <trkpt lat="52.216563" lon="6.894125">
        <ele>88.375123</ele>
        <time>2026-05-09T06:53:42.975Z</time>
      </trkpt>
      <trkpt lat="52.216452" lon="6.894188">
        <ele>88.389650</ele>
        <time>2026-05-09T06:53:45.968Z</time>
      </trkpt>
      <trkpt lat="52.216344" lon="6.894242">
        <ele>88.200345</ele>
        <time>2026-05-09T06:53:48.973Z</time>
      </trkpt>
      <trkpt lat="52.216245" lon="6.894266">
        <ele>88.032605</ele>
        <time>2026-05-09T06:53:51.973Z</time>
      </trkpt>
      <trkpt lat="52.216156" lon="6.894157">
        <ele>87.846123</ele>
        <time>2026-05-09T06:53:54.975Z</time>
      </trkpt>
      <trkpt lat="52.216080" lon="6.894006">
        <ele>87.645463</ele>
        <time>2026-05-09T06:53:57.972Z</time>
      </trkpt>
      <trkpt lat="52.216002" lon="6.893866">
        <ele>87.451157</ele>
        <time>2026-05-09T06:54:00.972Z</time>
      </trkpt>
      <trkpt lat="52.215908" lon="6.893733">
        <ele>87.242663</ele>
        <time>2026-05-09T06:54:03.967Z</time>
      </trkpt>
      <trkpt lat="52.215789" lon="6.893643">
        <ele>87.022854</ele>
        <time>2026-05-09T06:54:06.974Z</time>
      </trkpt>
      <trkpt lat="52.215706" lon="6.893587">
        <ele>86.872333</ele>
        <time>2026-05-09T06:54:08.971Z</time>
      </trkpt>
      <trkpt lat="52.215585" lon="6.893502">
        <ele>86.651557</ele>
        <time>2026-05-09T06:54:11.969Z</time>
      </trkpt>
      <trkpt lat="52.215501" lon="6.893447">
        <ele>86.499871</ele>
        <time>2026-05-09T06:54:13.975Z</time>
      </trkpt>
      <trkpt lat="52.215411" lon="6.893390">
        <ele>86.338078</ele>
        <time>2026-05-09T06:54:15.972Z</time>
      </trkpt>
      <trkpt lat="52.215322" lon="6.893328">
        <ele>86.175900</ele>
        <time>2026-05-09T06:54:17.980Z</time>
      </trkpt>
      <trkpt lat="52.215232" lon="6.893271">
        <ele>86.014106</ele>
        <time>2026-05-09T06:54:19.971Z</time>
      </trkpt>
      <trkpt lat="52.215147" lon="6.893206">
        <ele>85.856789</ele>
        <time>2026-05-09T06:54:21.981Z</time>
      </trkpt>
      <trkpt lat="52.215061" lon="6.893152">
        <ele>85.702359</ele>
        <time>2026-05-09T06:54:23.972Z</time>
      </trkpt>
      <trkpt lat="52.214977" lon="6.893097">
        <ele>85.550673</ele>
        <time>2026-05-09T06:54:25.975Z</time>
      </trkpt>
      <trkpt lat="52.214893" lon="6.893038">
        <ele>85.443124</ele>
        <time>2026-05-09T06:54:27.976Z</time>
      </trkpt>
      <trkpt lat="52.214809" lon="6.892984">
        <ele>85.489036</ele>
        <time>2026-05-09T06:54:29.973Z</time>
      </trkpt>
      <trkpt lat="52.214696" lon="6.892897">
        <ele>85.552573</ele>
        <time>2026-05-09T06:54:32.974Z</time>
      </trkpt>
      <trkpt lat="52.214639" lon="6.892761">
        <ele>85.603915</ele>
        <time>2026-05-09T06:54:35.974Z</time>
      </trkpt>
      <trkpt lat="52.214645" lon="6.892555">
        <ele>85.668173</ele>
        <time>2026-05-09T06:54:38.971Z</time>
      </trkpt>
      <trkpt lat="52.214566" lon="6.892401">
        <ele>85.730755</ele>
        <time>2026-05-09T06:54:41.975Z</time>
      </trkpt>
      <trkpt lat="52.214437" lon="6.892345">
        <ele>85.798638</ele>
        <time>2026-05-09T06:54:44.972Z</time>
      </trkpt>
      <trkpt lat="52.214306" lon="6.892308">
        <ele>85.866247</ele>
        <time>2026-05-09T06:54:47.972Z</time>
      </trkpt>
      <trkpt lat="52.214189" lon="6.892269">
        <ele>85.926974</ele>
        <time>2026-05-09T06:54:50.972Z</time>
      </trkpt>
      <trkpt lat="52.214103" lon="6.892189">
        <ele>85.977313</ele>
        <time>2026-05-09T06:54:53.973Z</time>
      </trkpt>
      <trkpt lat="52.214077" lon="6.892048">
        <ele>86.023194</ele>
        <time>2026-05-09T06:54:56.973Z</time>
      </trkpt>
      <trkpt lat="52.214096" lon="6.891868">
        <ele>86.080106</ele>
        <time>2026-05-09T06:55:00.971Z</time>
      </trkpt>
      <trkpt lat="52.214126" lon="6.891695">
        <ele>86.136128</ele>
        <time>2026-05-09T06:55:03.971Z</time>
      </trkpt>
      <trkpt lat="52.214172" lon="6.891506">
        <ele>86.199494</ele>
        <time>2026-05-09T06:55:06.979Z</time>
      </trkpt>
      <trkpt lat="52.214205" lon="6.891300">
        <ele>86.265839</ele>
        <time>2026-05-09T06:55:09.975Z</time>
      </trkpt>
      <trkpt lat="52.214239" lon="6.891090">
        <ele>86.333518</ele>
        <time>2026-05-09T06:55:12.973Z</time>
      </trkpt>
      <trkpt lat="52.214281" lon="6.890878">
        <ele>86.339670</ele>
        <time>2026-05-09T06:55:15.976Z</time>
      </trkpt>
      <trkpt lat="52.214313" lon="6.890665">
        <ele>86.330490</ele>
        <time>2026-05-09T06:55:18.972Z</time>
      </trkpt>
      <trkpt lat="52.214329" lon="6.890457">
        <ele>86.321715</ele>
        <time>2026-05-09T06:55:21.974Z</time>
      </trkpt>
      <trkpt lat="52.214337" lon="6.890240">
        <ele>86.312615</ele>
        <time>2026-05-09T06:55:24.974Z</time>
      </trkpt>
      <trkpt lat="52.214347" lon="6.890085">
        <ele>86.306091</ele>
        <time>2026-05-09T06:55:26.976Z</time>
      </trkpt>
      <trkpt lat="52.214353" lon="6.889922">
        <ele>86.299256</ele>
        <time>2026-05-09T06:55:28.971Z</time>
      </trkpt>
      <trkpt lat="52.214364" lon="6.889769">
        <ele>86.292807</ele>
        <time>2026-05-09T06:55:30.976Z</time>
      </trkpt>
      <trkpt lat="52.214373" lon="6.889613">
        <ele>86.286248</ele>
        <time>2026-05-09T06:55:32.973Z</time>
      </trkpt>
      <trkpt lat="52.214380" lon="6.889462">
        <ele>86.279910</ele>
        <time>2026-05-09T06:55:34.973Z</time>
      </trkpt>
      <trkpt lat="52.214380" lon="6.889308">
        <ele>86.273463</ele>
        <time>2026-05-09T06:55:36.970Z</time>
      </trkpt>
      <trkpt lat="52.214387" lon="6.889103">
        <ele>86.264869</ele>
        <time>2026-05-09T06:55:39.972Z</time>
      </trkpt>
      <trkpt lat="52.214398" lon="6.888890">
        <ele>86.255922</ele>
        <time>2026-05-09T06:55:42.973Z</time>
      </trkpt>
      <trkpt lat="52.214405" lon="6.888675">
        <ele>86.246909</ele>
        <time>2026-05-09T06:55:45.973Z</time>
      </trkpt>
      <trkpt lat="52.214415" lon="6.888529">
        <ele>86.240760</ele>
        <time>2026-05-09T06:55:47.975Z</time>
      </trkpt>
      <trkpt lat="52.214416" lon="6.888318">
        <ele>86.231927</ele>
        <time>2026-05-09T06:55:50.973Z</time>
      </trkpt>
      <trkpt lat="52.214422" lon="6.888158">
        <ele>86.225218</ele>
        <time>2026-05-09T06:55:53.984Z</time>
      </trkpt>
      <trkpt lat="52.214429" lon="6.888004">
        <ele>86.110882</ele>
        <time>2026-05-09T06:55:57.985Z</time>
      </trkpt>
      <trkpt lat="52.214435" lon="6.887819">
        <ele>85.951878</ele>
        <time>2026-05-09T06:56:01.974Z</time>
      </trkpt>
      <trkpt lat="52.214450" lon="6.887647">
        <ele>85.802766</ele>
        <time>2026-05-09T06:56:04.976Z</time>
      </trkpt>
      <trkpt lat="52.214391" lon="6.887514">
        <ele>85.661838</ele>
        <time>2026-05-09T06:56:07.975Z</time>
      </trkpt>
      <trkpt lat="52.214281" lon="6.887495">
        <ele>85.506890</ele>
        <time>2026-05-09T06:56:11.978Z</time>
      </trkpt>
      <trkpt lat="52.214191" lon="6.887519">
        <ele>85.379147</ele>
        <time>2026-05-09T06:56:14.978Z</time>
      </trkpt>
      <trkpt lat="52.214134" lon="6.887394">
        <ele>85.245411</ele>
        <time>2026-05-09T06:56:20.969Z</time>
      </trkpt>
      <trkpt lat="52.214143" lon="6.887233">
        <ele>85.106653</ele>
        <time>2026-05-09T06:56:23.979Z</time>
      </trkpt>
      <trkpt lat="52.214102" lon="6.887064">
        <ele>84.950647</ele>
        <time>2026-05-09T06:56:26.973Z</time>
      </trkpt>
      <trkpt lat="52.214038" lon="6.886886">
        <ele>84.773510</ele>
        <time>2026-05-09T06:56:29.980Z</time>
      </trkpt>
      <trkpt lat="52.213975" lon="6.886703">
        <ele>84.593350</ele>
        <time>2026-05-09T06:56:32.973Z</time>
      </trkpt>
      <trkpt lat="52.213928" lon="6.886574">
        <ele>84.464535</ele>
        <time>2026-05-09T06:56:34.973Z</time>
      </trkpt>
      <trkpt lat="52.213883" lon="6.886441">
        <ele>84.334135</ele>
        <time>2026-05-09T06:56:36.973Z</time>
      </trkpt>
      <trkpt lat="52.213839" lon="6.886311">
        <ele>84.206666</ele>
        <time>2026-05-09T06:56:38.974Z</time>
      </trkpt>
      <trkpt lat="52.213787" lon="6.886182">
        <ele>84.074134</ele>
        <time>2026-05-09T06:56:40.971Z</time>
      </trkpt>
      <trkpt lat="52.213751" lon="6.886001">
        <ele>83.910804</ele>
        <time>2026-05-09T06:56:43.972Z</time>
      </trkpt>
      <trkpt lat="52.213778" lon="6.885852">
        <ele>83.777443</ele>
        <time>2026-05-09T06:56:46.975Z</time>
      </trkpt>
      <trkpt lat="52.213763" lon="6.885675">
        <ele>83.662960</ele>
        <time>2026-05-09T06:56:49.974Z</time>
      </trkpt>
      <trkpt lat="52.213705" lon="6.885487">
        <ele>83.569365</ele>
        <time>2026-05-09T06:56:52.971Z</time>
      </trkpt>
      <trkpt lat="52.213659" lon="6.885352">
        <ele>83.500678</ele>
        <time>2026-05-09T06:56:54.973Z</time>
      </trkpt>
      <trkpt lat="52.213613" lon="6.885216">
        <ele>83.431601</ele>
        <time>2026-05-09T06:56:56.972Z</time>
      </trkpt>
      <trkpt lat="52.213567" lon="6.885070">
        <ele>83.358601</ele>
        <time>2026-05-09T06:56:58.972Z</time>
      </trkpt>
      <trkpt lat="52.213517" lon="6.884932">
        <ele>83.287311</ele>
        <time>2026-05-09T06:57:00.973Z</time>
      </trkpt>
      <trkpt lat="52.213463" lon="6.884794">
        <ele>83.214502</ele>
        <time>2026-05-09T06:57:02.971Z</time>
      </trkpt>
      <trkpt lat="52.213407" lon="6.884654">
        <ele>83.140158</ele>
        <time>2026-05-09T06:57:04.973Z</time>
      </trkpt>
      <trkpt lat="52.213355" lon="6.884512">
        <ele>83.066598</ele>
        <time>2026-05-09T06:57:06.974Z</time>
      </trkpt>
      <trkpt lat="52.213321" lon="6.884366">
        <ele>82.997146</ele>
        <time>2026-05-09T06:57:08.969Z</time>
      </trkpt>
      <trkpt lat="52.213277" lon="6.884218">
        <ele>82.923998</ele>
        <time>2026-05-09T06:57:10.977Z</time>
      </trkpt>
      <trkpt lat="52.213231" lon="6.884074">
        <ele>82.851786</ele>
        <time>2026-05-09T06:57:12.969Z</time>
      </trkpt>
      <trkpt lat="52.213185" lon="6.883930">
        <ele>82.779575</ele>
        <time>2026-05-09T06:57:14.973Z</time>
      </trkpt>
      <trkpt lat="52.213137" lon="6.883781">
        <ele>82.704720</ele>
        <time>2026-05-09T06:57:16.968Z</time>
      </trkpt>
      <trkpt lat="52.213095" lon="6.883634">
        <ele>82.632597</ele>
        <time>2026-05-09T06:57:18.974Z</time>
      </trkpt>
      <trkpt lat="52.213048" lon="6.883496">
        <ele>82.562390</ele>
        <time>2026-05-09T06:57:20.969Z</time>
      </trkpt>
      <trkpt lat="52.213000" lon="6.883349">
        <ele>82.488322</ele>
        <time>2026-05-09T06:57:22.969Z</time>
      </trkpt>
      <trkpt lat="52.212951" lon="6.883201">
        <ele>82.413518</ele>
        <time>2026-05-09T06:57:24.973Z</time>
      </trkpt>
      <trkpt lat="52.212903" lon="6.883059">
        <ele>82.328453</ele>
        <time>2026-05-09T06:57:26.973Z</time>
      </trkpt>
      <trkpt lat="52.212854" lon="6.882915">
        <ele>82.238867</ele>
        <time>2026-05-09T06:57:28.973Z</time>
      </trkpt>
      <trkpt lat="52.212804" lon="6.882768">
        <ele>82.147424</ele>
        <time>2026-05-09T06:57:30.971Z</time>
      </trkpt>
      <trkpt lat="52.212754" lon="6.882618">
        <ele>82.054551</ele>
        <time>2026-05-09T06:57:32.969Z</time>
      </trkpt>
      <trkpt lat="52.212702" lon="6.882464">
        <ele>81.958917</ele>
        <time>2026-05-09T06:57:34.971Z</time>
      </trkpt>
      <trkpt lat="52.212650" lon="6.882318">
        <ele>81.867070</ele>
        <time>2026-05-09T06:57:36.979Z</time>
      </trkpt>
      <trkpt lat="52.212605" lon="6.882173">
        <ele>81.778668</ele>
        <time>2026-05-09T06:57:38.971Z</time>
      </trkpt>
      <trkpt lat="52.212558" lon="6.882019">
        <ele>81.685095</ele>
        <time>2026-05-09T06:57:40.978Z</time>
      </trkpt>
      <trkpt lat="52.212514" lon="6.881860">
        <ele>81.590207</ele>
        <time>2026-05-09T06:57:42.970Z</time>
      </trkpt>
      <trkpt lat="52.212456" lon="6.881710">
        <ele>81.493738</ele>
        <time>2026-05-09T06:57:44.972Z</time>
      </trkpt>
      <trkpt lat="52.212396" lon="6.881562">
        <ele>81.397219</ele>
        <time>2026-05-09T06:57:46.970Z</time>
      </trkpt>
      <trkpt lat="52.212340" lon="6.881403">
        <ele>81.297472</ele>
        <time>2026-05-09T06:57:48.977Z</time>
      </trkpt>
      <trkpt lat="52.212289" lon="6.881240">
        <ele>81.197929</ele>
        <time>2026-05-09T06:57:50.971Z</time>
      </trkpt>
      <trkpt lat="52.212236" lon="6.881093">
        <ele>81.105164</ele>
        <time>2026-05-09T06:57:52.969Z</time>
      </trkpt>
      <trkpt lat="52.212183" lon="6.880945">
        <ele>81.011929</ele>
        <time>2026-05-09T06:57:54.969Z</time>
      </trkpt>
      <trkpt lat="52.212125" lon="6.880792">
        <ele>80.914076</ele>
        <time>2026-05-09T06:57:56.968Z</time>
      </trkpt>
      <trkpt lat="52.212068" lon="6.880641">
        <ele>80.817614</ele>
        <time>2026-05-09T06:57:58.976Z</time>
      </trkpt>
      <trkpt lat="52.212003" lon="6.880489">
        <ele>80.797935</ele>
        <time>2026-05-09T06:58:00.970Z</time>
      </trkpt>
      <trkpt lat="52.211935" lon="6.880356">
        <ele>80.792495</ele>
        <time>2026-05-09T06:58:02.969Z</time>
      </trkpt>
      <trkpt lat="52.211870" lon="6.880228">
        <ele>80.787273</ele>
        <time>2026-05-09T06:58:04.974Z</time>
      </trkpt>
      <trkpt lat="52.211798" lon="6.880105">
        <ele>80.781931</ele>
        <time>2026-05-09T06:58:06.972Z</time>
      </trkpt>
      <trkpt lat="52.211724" lon="6.879977">
        <ele>80.776404</ele>
        <time>2026-05-09T06:58:08.976Z</time>
      </trkpt>
      <trkpt lat="52.211651" lon="6.879854">
        <ele>80.771026</ele>
        <time>2026-05-09T06:58:10.974Z</time>
      </trkpt>
      <trkpt lat="52.211578" lon="6.879737">
        <ele>80.765781</ele>
        <time>2026-05-09T06:58:12.974Z</time>
      </trkpt>
      <trkpt lat="52.211507" lon="6.879628">
        <ele>80.760785</ele>
        <time>2026-05-09T06:58:14.972Z</time>
      </trkpt>
      <trkpt lat="52.211441" lon="6.879525">
        <ele>80.756104</ele>
        <time>2026-05-09T06:58:16.976Z</time>
      </trkpt>
      <trkpt lat="52.211253" lon="6.879258">
        <ele>80.743330</ele>
        <time>2026-05-09T06:58:43.972Z</time>
      </trkpt>
      <trkpt lat="52.211155" lon="6.879126">
        <ele>80.736817</ele>
        <time>2026-05-09T06:58:46.977Z</time>
      </trkpt>
      <trkpt lat="52.211083" lon="6.879031">
        <ele>80.732071</ele>
        <time>2026-05-09T06:58:48.973Z</time>
      </trkpt>
      <trkpt lat="52.211013" lon="6.878933">
        <ele>80.727344</ele>
        <time>2026-05-09T06:58:50.975Z</time>
      </trkpt>
      <trkpt lat="52.210940" lon="6.878821">
        <ele>80.722208</ele>
        <time>2026-05-09T06:58:52.970Z</time>
      </trkpt>
      <trkpt lat="52.210867" lon="6.878704">
        <ele>80.716964</ele>
        <time>2026-05-09T06:58:54.971Z</time>
      </trkpt>
      <trkpt lat="52.210799" lon="6.878589">
        <ele>80.711944</ele>
        <time>2026-05-09T06:58:56.969Z</time>
      </trkpt>
      <trkpt lat="52.210730" lon="6.878460">
        <ele>80.723312</ele>
        <time>2026-05-09T06:58:58.975Z</time>
      </trkpt>
      <trkpt lat="52.210662" lon="6.878332">
        <ele>80.739470</ele>
        <time>2026-05-09T06:59:00.974Z</time>
      </trkpt>
      <trkpt lat="52.210598" lon="6.878204">
        <ele>80.755226</ele>
        <time>2026-05-09T06:59:02.973Z</time>
      </trkpt>
      <trkpt lat="52.210534" lon="6.878078">
        <ele>80.770836</ele>
        <time>2026-05-09T06:59:04.979Z</time>
      </trkpt>
      <trkpt lat="52.210468" lon="6.877947">
        <ele>80.787011</ele>
        <time>2026-05-09T06:59:06.978Z</time>
      </trkpt>
      <trkpt lat="52.210407" lon="6.877816">
        <ele>80.802704</ele>
        <time>2026-05-09T06:59:08.983Z</time>
      </trkpt>
      <trkpt lat="52.210342" lon="6.877685">
        <ele>80.818781</ele>
        <time>2026-05-09T06:59:10.975Z</time>
      </trkpt>
      <trkpt lat="52.210282" lon="6.877550">
        <ele>80.834687</ele>
        <time>2026-05-09T06:59:12.975Z</time>
      </trkpt>
      <trkpt lat="52.210224" lon="6.877425">
        <ele>80.849641</ele>
        <time>2026-05-09T06:59:14.976Z</time>
      </trkpt>
      <trkpt lat="52.210168" lon="6.877284">
        <ele>80.865667</ele>
        <time>2026-05-09T06:59:16.977Z</time>
      </trkpt>
      <trkpt lat="52.210115" lon="6.877139">
        <ele>80.881771</ele>
        <time>2026-05-09T06:59:18.981Z</time>
      </trkpt>
      <trkpt lat="52.210063" lon="6.876994">
        <ele>80.897795</ele>
        <time>2026-05-09T06:59:20.982Z</time>
      </trkpt>
      <trkpt lat="52.210006" lon="6.876853">
        <ele>80.913906</ele>
        <time>2026-05-09T06:59:22.979Z</time>
      </trkpt>
      <trkpt lat="52.209928" lon="6.876731">
        <ele>80.930723</ele>
        <time>2026-05-09T06:59:24.975Z</time>
      </trkpt>
      <trkpt lat="52.209854" lon="6.876592">
        <ele>80.948285</ele>
        <time>2026-05-09T06:59:26.977Z</time>
      </trkpt>
      <trkpt lat="52.209794" lon="6.876459">
        <ele>80.964037</ele>
        <time>2026-05-09T06:59:28.978Z</time>
      </trkpt>
      <trkpt lat="52.209736" lon="6.876319">
        <ele>80.980155</ele>
        <time>2026-05-09T06:59:30.978Z</time>
      </trkpt>
      <trkpt lat="52.209676" lon="6.876176">
        <ele>80.979775</ele>
        <time>2026-05-09T06:59:32.976Z</time>
      </trkpt>
      <trkpt lat="52.209615" lon="6.876030">
        <ele>80.949215</ele>
        <time>2026-05-09T06:59:34.971Z</time>
      </trkpt>
      <trkpt lat="52.209557" lon="6.875888">
        <ele>80.919701</ele>
        <time>2026-05-09T06:59:36.972Z</time>
      </trkpt>
      <trkpt lat="52.209498" lon="6.875745">
        <ele>80.889887</ele>
        <time>2026-05-09T06:59:38.970Z</time>
      </trkpt>
      <trkpt lat="52.209446" lon="6.875602">
        <ele>80.861129</ele>
        <time>2026-05-09T06:59:40.974Z</time>
      </trkpt>
      <trkpt lat="52.209394" lon="6.875470">
        <ele>80.833990</ele>
        <time>2026-05-09T06:59:42.982Z</time>
      </trkpt>
      <trkpt lat="52.209341" lon="6.875339">
        <ele>80.806842</ele>
        <time>2026-05-09T06:59:44.972Z</time>
      </trkpt>
      <trkpt lat="52.209286" lon="6.875194">
        <ele>80.777349</ele>
        <time>2026-05-09T06:59:46.977Z</time>
      </trkpt>
      <trkpt lat="52.209228" lon="6.875042">
        <ele>80.746381</ele>
        <time>2026-05-09T06:59:48.994Z</time>
      </trkpt>
      <trkpt lat="52.209165" lon="6.874889">
        <ele>80.714502</ele>
        <time>2026-05-09T06:59:50.976Z</time>
      </trkpt>
      <trkpt lat="52.209106" lon="6.874743">
        <ele>80.684255</ele>
        <time>2026-05-09T06:59:52.972Z</time>
      </trkpt>
      <trkpt lat="52.209050" lon="6.874608">
        <ele>80.656061</ele>
        <time>2026-05-09T06:59:54.980Z</time>
      </trkpt>
      <trkpt lat="52.209000" lon="6.874470">
        <ele>80.628335</ele>
        <time>2026-05-09T06:59:56.971Z</time>
      </trkpt>
      <trkpt lat="52.208954" lon="6.874324">
        <ele>80.599943</ele>
        <time>2026-05-09T06:59:58.975Z</time>
      </trkpt>
      <trkpt lat="52.208902" lon="6.874185">
        <ele>80.571777</ele>
        <time>2026-05-09T07:00:00.975Z</time>
      </trkpt>
      <trkpt lat="52.208850" lon="6.874052">
        <ele>80.544492</ele>
        <time>2026-05-09T07:00:02.976Z</time>
      </trkpt>
      <trkpt lat="52.208793" lon="6.873920">
        <ele>80.516565</ele>
        <time>2026-05-09T07:00:04.974Z</time>
      </trkpt>
      <trkpt lat="52.208738" lon="6.873785">
        <ele>80.488527</ele>
        <time>2026-05-09T07:00:06.969Z</time>
      </trkpt>
      <trkpt lat="52.208682" lon="6.873643">
        <ele>80.450268</ele>
        <time>2026-05-09T07:00:08.973Z</time>
      </trkpt>
      <trkpt lat="52.208628" lon="6.873487">
        <ele>80.407452</ele>
        <time>2026-05-09T07:00:10.975Z</time>
      </trkpt>
      <trkpt lat="52.208581" lon="6.873327">
        <ele>80.365051</ele>
        <time>2026-05-09T07:00:12.974Z</time>
      </trkpt>
      <trkpt lat="52.208538" lon="6.873167">
        <ele>80.323301</ele>
        <time>2026-05-09T07:00:14.973Z</time>
      </trkpt>
      <trkpt lat="52.208444" lon="6.872814">
        <ele>80.231324</ele>
        <time>2026-05-09T07:00:56.974Z</time>
      </trkpt>
      <trkpt lat="52.208398" lon="6.872623">
        <ele>80.182282</ele>
        <time>2026-05-09T07:00:59.979Z</time>
      </trkpt>
      <trkpt lat="52.208345" lon="6.872415">
        <ele>80.128451</ele>
        <time>2026-05-09T07:01:02.983Z</time>
      </trkpt>
      <trkpt lat="52.208301" lon="6.872285">
        <ele>80.092961</ele>
        <time>2026-05-09T07:01:04.978Z</time>
      </trkpt>
      <trkpt lat="52.208262" lon="6.872152">
        <ele>80.057726</ele>
        <time>2026-05-09T07:01:06.973Z</time>
      </trkpt>
      <trkpt lat="52.208218" lon="6.872013">
        <ele>80.020339</ele>
        <time>2026-05-09T07:01:08.970Z</time>
      </trkpt>
      <trkpt lat="52.208168" lon="6.871877">
        <ele>79.982439</ele>
        <time>2026-05-09T07:01:10.982Z</time>
      </trkpt>
      <trkpt lat="52.208114" lon="6.871747">
        <ele>79.944908</ele>
        <time>2026-05-09T07:01:12.971Z</time>
      </trkpt>
      <trkpt lat="52.208056" lon="6.871623">
        <ele>79.907630</ele>
        <time>2026-05-09T07:01:14.972Z</time>
      </trkpt>
      <trkpt lat="52.207973" lon="6.871453">
        <ele>79.855687</ele>
        <time>2026-05-09T07:01:17.976Z</time>
      </trkpt>
      <trkpt lat="52.207911" lon="6.871342">
        <ele>79.819795</ele>
        <time>2026-05-09T07:01:19.985Z</time>
      </trkpt>
      <trkpt lat="52.207843" lon="6.871219">
        <ele>79.782221</ele>
        <time>2026-05-09T07:01:21.986Z</time>
      </trkpt>
      <trkpt lat="52.207774" lon="6.871101">
        <ele>79.798554</ele>
        <time>2026-05-09T07:01:23.985Z</time>
      </trkpt>
      <trkpt lat="52.207702" lon="6.870977">
        <ele>79.815660</ele>
        <time>2026-05-09T07:01:25.974Z</time>
      </trkpt>
      <trkpt lat="52.207630" lon="6.870851">
        <ele>79.832912</ele>
        <time>2026-05-09T07:01:27.988Z</time>
      </trkpt>
      <trkpt lat="52.207563" lon="6.870731">
        <ele>79.849169</ele>
        <time>2026-05-09T07:01:29.988Z</time>
      </trkpt>
      <trkpt lat="52.207504" lon="6.870599">
        <ele>79.865530</ele>
        <time>2026-05-09T07:01:31.975Z</time>
      </trkpt>
      <trkpt lat="52.207442" lon="6.870450">
        <ele>79.883566</ele>
        <time>2026-05-09T07:01:33.986Z</time>
      </trkpt>
      <trkpt lat="52.207388" lon="6.870304">
        <ele>79.900643</ele>
        <time>2026-05-09T07:01:35.987Z</time>
      </trkpt>
      <trkpt lat="52.207342" lon="6.870156">
        <ele>79.917261</ele>
        <time>2026-05-09T07:01:37.978Z</time>
      </trkpt>
      <trkpt lat="52.207301" lon="6.869998">
        <ele>79.934444</ele>
        <time>2026-05-09T07:01:39.975Z</time>
      </trkpt>
      <trkpt lat="52.207268" lon="6.869839">
        <ele>79.951255</ele>
        <time>2026-05-09T07:01:41.978Z</time>
      </trkpt>
      <trkpt lat="52.207237" lon="6.869695">
        <ele>79.966539</ele>
        <time>2026-05-09T07:01:43.977Z</time>
      </trkpt>
      <trkpt lat="52.207205" lon="6.869547">
        <ele>79.982255</ele>
        <time>2026-05-09T07:01:45.971Z</time>
      </trkpt>
      <trkpt lat="52.207175" lon="6.869382">
        <ele>79.999491</ele>
        <time>2026-05-09T07:01:47.975Z</time>
      </trkpt>
      <trkpt lat="52.207145" lon="6.869218">
        <ele>80.016630</ele>
        <time>2026-05-09T07:01:49.983Z</time>
      </trkpt>
      <trkpt lat="52.207112" lon="6.869051">
        <ele>80.034201</ele>
        <time>2026-05-09T07:01:51.974Z</time>
      </trkpt>
      <trkpt lat="52.207081" lon="6.868893">
        <ele>80.050815</ele>
        <time>2026-05-09T07:01:53.973Z</time>
      </trkpt>
      <trkpt lat="52.207048" lon="6.868731">
        <ele>80.067911</ele>
        <time>2026-05-09T07:01:55.973Z</time>
      </trkpt>
      <trkpt lat="52.207016" lon="6.868572">
        <ele>80.044235</ele>
        <time>2026-05-09T07:01:57.983Z</time>
      </trkpt>
      <trkpt lat="52.206981" lon="6.868409">
        <ele>79.984847</ele>
        <time>2026-05-09T07:01:59.973Z</time>
      </trkpt>
      <trkpt lat="52.206950" lon="6.868251">
        <ele>79.927803</ele>
        <time>2026-05-09T07:02:01.973Z</time>
      </trkpt>
      <trkpt lat="52.206918" lon="6.868087">
        <ele>79.868622</ele>
        <time>2026-05-09T07:02:03.973Z</time>
      </trkpt>
      <trkpt lat="52.206887" lon="6.867921">
        <ele>79.808952</ele>
        <time>2026-05-09T07:02:05.974Z</time>
      </trkpt>
      <trkpt lat="52.206856" lon="6.867760">
        <ele>79.750925</ele>
        <time>2026-05-09T07:02:07.977Z</time>
      </trkpt>
      <trkpt lat="52.206831" lon="6.867586">
        <ele>79.689473</ele>
        <time>2026-05-09T07:02:09.978Z</time>
      </trkpt>
      <trkpt lat="52.206806" lon="6.867414">
        <ele>79.628690</ele>
        <time>2026-05-09T07:02:11.974Z</time>
      </trkpt>
      <trkpt lat="52.206779" lon="6.867243">
        <ele>79.567972</ele>
        <time>2026-05-09T07:02:13.975Z</time>
      </trkpt>
      <trkpt lat="52.206743" lon="6.867068">
        <ele>79.504498</ele>
        <time>2026-05-09T07:02:15.974Z</time>
      </trkpt>
      <trkpt lat="52.206711" lon="6.866892">
        <ele>79.441373</ele>
        <time>2026-05-09T07:02:17.969Z</time>
      </trkpt>
      <trkpt lat="52.206692" lon="6.866710">
        <ele>79.377891</ele>
        <time>2026-05-09T07:02:19.973Z</time>
      </trkpt>
      <trkpt lat="52.206682" lon="6.866528">
        <ele>79.315060</ele>
        <time>2026-05-09T07:02:21.973Z</time>
      </trkpt>
      <trkpt lat="52.206649" lon="6.866363">
        <ele>79.255380</ele>
        <time>2026-05-09T07:02:23.977Z</time>
      </trkpt>
      <trkpt lat="52.206615" lon="6.866201">
        <ele>79.196500</ele>
        <time>2026-05-09T07:02:25.981Z</time>
      </trkpt>
      <trkpt lat="52.206581" lon="6.866029">
        <ele>79.134357</ele>
        <time>2026-05-09T07:02:27.971Z</time>
      </trkpt>
      <trkpt lat="52.206521" lon="6.865877">
        <ele>79.072187</ele>
        <time>2026-05-09T07:02:29.981Z</time>
      </trkpt>
      <trkpt lat="52.206482" lon="6.865696">
        <ele>79.060415</ele>
        <time>2026-05-09T07:02:31.972Z</time>
      </trkpt>
      <trkpt lat="52.206444" lon="6.865510">
        <ele>79.053776</ele>
        <time>2026-05-09T07:02:33.971Z</time>
      </trkpt>
      <trkpt lat="52.206409" lon="6.865325">
        <ele>79.047220</ele>
        <time>2026-05-09T07:02:35.973Z</time>
      </trkpt>
      <trkpt lat="52.206389" lon="6.865133">
        <ele>79.040625</ele>
        <time>2026-05-09T07:02:37.972Z</time>
      </trkpt>
      <trkpt lat="52.206368" lon="6.864941">
        <ele>79.034021</ele>
        <time>2026-05-09T07:02:39.971Z</time>
      </trkpt>
      <trkpt lat="52.206342" lon="6.864751">
        <ele>79.027428</ele>
        <time>2026-05-09T07:02:41.976Z</time>
      </trkpt>
      <trkpt lat="52.206310" lon="6.864563">
        <ele>79.020821</ele>
        <time>2026-05-09T07:02:43.976Z</time>
      </trkpt>
      <trkpt lat="52.206275" lon="6.864376">
        <ele>79.014200</ele>
        <time>2026-05-09T07:02:45.976Z</time>
      </trkpt>
      <trkpt lat="52.206239" lon="6.864190">
        <ele>79.007595</ele>
        <time>2026-05-09T07:02:47.975Z</time>
      </trkpt>
      <trkpt lat="52.206201" lon="6.864010">
        <ele>79.001149</ele>
        <time>2026-05-09T07:02:49.975Z</time>
      </trkpt>
      <trkpt lat="52.206166" lon="6.863826">
        <ele>78.994625</ele>
        <time>2026-05-09T07:02:51.973Z</time>
      </trkpt>
      <trkpt lat="52.206127" lon="6.863638">
        <ele>78.987904</ele>
        <time>2026-05-09T07:02:53.975Z</time>
      </trkpt>
      <trkpt lat="52.206086" lon="6.863449">
        <ele>78.981115</ele>
        <time>2026-05-09T07:02:55.975Z</time>
      </trkpt>
      <trkpt lat="52.206040" lon="6.863263">
        <ele>78.974323</ele>
        <time>2026-05-09T07:02:57.976Z</time>
      </trkpt>
      <trkpt lat="52.205991" lon="6.863083">
        <ele>78.967654</ele>
        <time>2026-05-09T07:02:59.970Z</time>
      </trkpt>
      <trkpt lat="52.205942" lon="6.862902">
        <ele>78.930009</ele>
        <time>2026-05-09T07:03:01.972Z</time>
      </trkpt>
      <trkpt lat="52.205905" lon="6.862715">
        <ele>78.889018</ele>
        <time>2026-05-09T07:03:03.974Z</time>
      </trkpt>
      <trkpt lat="52.205871" lon="6.862530">
        <ele>78.848729</ele>
        <time>2026-05-09T07:03:05.976Z</time>
      </trkpt>
      <trkpt lat="52.205828" lon="6.862366">
        <ele>78.811519</ele>
        <time>2026-05-09T07:03:07.974Z</time>
      </trkpt>
      <trkpt lat="52.205792" lon="6.862198">
        <ele>78.774393</ele>
        <time>2026-05-09T07:03:09.975Z</time>
      </trkpt>
      <trkpt lat="52.205759" lon="6.862020">
        <ele>78.735601</ele>
        <time>2026-05-09T07:03:11.975Z</time>
      </trkpt>
      <trkpt lat="52.205724" lon="6.861836">
        <ele>78.695412</ele>
        <time>2026-05-09T07:03:13.976Z</time>
      </trkpt>
      <trkpt lat="52.205690" lon="6.861656">
        <ele>78.656120</ele>
        <time>2026-05-09T07:03:15.977Z</time>
      </trkpt>
      <trkpt lat="52.205662" lon="6.861472">
        <ele>78.616572</ele>
        <time>2026-05-09T07:03:17.972Z</time>
      </trkpt>
      <trkpt lat="52.205638" lon="6.861286">
        <ele>78.576921</ele>
        <time>2026-05-09T07:03:19.971Z</time>
      </trkpt>
      <trkpt lat="52.205638" lon="6.861105">
        <ele>78.539165</ele>
        <time>2026-05-09T07:03:21.976Z</time>
      </trkpt>
      <trkpt lat="52.205644" lon="6.860915">
        <ele>78.499478</ele>
        <time>2026-05-09T07:03:23.981Z</time>
      </trkpt>
      <trkpt lat="52.205638" lon="6.860723">
        <ele>78.459374</ele>
        <time>2026-05-09T07:03:25.971Z</time>
      </trkpt>
      <trkpt lat="52.205633" lon="6.860539">
        <ele>78.420954</ele>
        <time>2026-05-09T07:03:27.981Z</time>
      </trkpt>
      <trkpt lat="52.205629" lon="6.860353">
        <ele>78.382130</ele>
        <time>2026-05-09T07:03:29.978Z</time>
      </trkpt>
      <trkpt lat="52.205620" lon="6.860174">
        <ele>78.352856</ele>
        <time>2026-05-09T07:03:31.977Z</time>
      </trkpt>
      <trkpt lat="52.205612" lon="6.860006">
        <ele>78.346374</ele>
        <time>2026-05-09T07:03:33.976Z</time>
      </trkpt>
      <trkpt lat="52.205654" lon="6.859859">
        <ele>78.340135</ele>
        <time>2026-05-09T07:03:35.978Z</time>
      </trkpt>
      <trkpt lat="52.205682" lon="6.859702">
        <ele>78.333846</ele>
        <time>2026-05-09T07:03:37.976Z</time>
      </trkpt>
      <trkpt lat="52.205664" lon="6.859540">
        <ele>78.327513</ele>
        <time>2026-05-09T07:03:39.978Z</time>
      </trkpt>
      <trkpt lat="52.205600" lon="6.859402">
        <ele>78.320855</ele>
        <time>2026-05-09T07:03:41.976Z</time>
      </trkpt>
      <trkpt lat="52.205584" lon="6.859222">
        <ele>78.313859</ele>
        <time>2026-05-09T07:03:43.972Z</time>
      </trkpt>
      <trkpt lat="52.205579" lon="6.859039">
        <ele>78.306813</ele>
        <time>2026-05-09T07:03:45.976Z</time>
      </trkpt>
      <trkpt lat="52.205573" lon="6.858859">
        <ele>78.299878</ele>
        <time>2026-05-09T07:03:47.974Z</time>
      </trkpt>
      <trkpt lat="52.205567" lon="6.858666">
        <ele>78.292445</ele>
        <time>2026-05-09T07:03:49.981Z</time>
      </trkpt>
      <trkpt lat="52.205560" lon="6.858473">
        <ele>78.285008</ele>
        <time>2026-05-09T07:03:51.982Z</time>
      </trkpt>
      <trkpt lat="52.205549" lon="6.858294">
        <ele>78.278088</ele>
        <time>2026-05-09T07:03:53.971Z</time>
      </trkpt>
      <trkpt lat="52.205543" lon="6.858117">
        <ele>78.271269</ele>
        <time>2026-05-09T07:03:55.976Z</time>
      </trkpt>
      <trkpt lat="52.205546" lon="6.857948">
        <ele>78.264765</ele>
        <time>2026-05-09T07:03:57.974Z</time>
      </trkpt>
      <trkpt lat="52.205540" lon="6.857776">
        <ele>78.258138</ele>
        <time>2026-05-09T07:03:59.975Z</time>
      </trkpt>
      <trkpt lat="52.205532" lon="6.857593">
        <ele>78.251081</ele>
        <time>2026-05-09T07:04:01.975Z</time>
      </trkpt>
      <trkpt lat="52.205524" lon="6.857413">
        <ele>78.244139</ele>
        <time>2026-05-09T07:04:03.980Z</time>
      </trkpt>
      <trkpt lat="52.205519" lon="6.857223">
        <ele>78.267276</ele>
        <time>2026-05-09T07:04:05.980Z</time>
      </trkpt>
      <trkpt lat="52.205515" lon="6.857033">
        <ele>78.304625</ele>
        <time>2026-05-09T07:04:07.974Z</time>
      </trkpt>
      <trkpt lat="52.205508" lon="6.856844">
        <ele>78.341824</ele>
        <time>2026-05-09T07:04:09.974Z</time>
      </trkpt>
      <trkpt lat="52.205505" lon="6.856663">
        <ele>78.377396</ele>
        <time>2026-05-09T07:04:11.972Z</time>
      </trkpt>
      <trkpt lat="52.205495" lon="6.856486">
        <ele>78.412316</ele>
        <time>2026-05-09T07:04:13.980Z</time>
      </trkpt>
      <trkpt lat="52.205491" lon="6.856306">
        <ele>78.447702</ele>
        <time>2026-05-09T07:04:15.970Z</time>
      </trkpt>
      <trkpt lat="52.205485" lon="6.856130">
        <ele>78.482332</ele>
        <time>2026-05-09T07:04:17.974Z</time>
      </trkpt>
      <trkpt lat="52.205480" lon="6.855952">
        <ele>78.517339</ele>
        <time>2026-05-09T07:04:19.978Z</time>
      </trkpt>
      <trkpt lat="52.205476" lon="6.855776">
        <ele>78.551939</ele>
        <time>2026-05-09T07:04:21.974Z</time>
      </trkpt>
      <trkpt lat="52.205471" lon="6.855596">
        <ele>78.587338</ele>
        <time>2026-05-09T07:04:23.981Z</time>
      </trkpt>
      <trkpt lat="52.205466" lon="6.855431">
        <ele>78.619793</ele>
        <time>2026-05-09T07:04:25.972Z</time>
      </trkpt>
      <trkpt lat="52.205469" lon="6.855262">
        <ele>78.653009</ele>
        <time>2026-05-09T07:04:27.972Z</time>
      </trkpt>
      <trkpt lat="52.205470" lon="6.855089">
        <ele>78.686998</ele>
        <time>2026-05-09T07:04:29.977Z</time>
      </trkpt>
      <trkpt lat="52.205471" lon="6.854930">
        <ele>78.718236</ele>
        <time>2026-05-09T07:04:31.974Z</time>
      </trkpt>
      <trkpt lat="52.205467" lon="6.854772">
        <ele>78.749303</ele>
        <time>2026-05-09T07:04:33.972Z</time>
      </trkpt>
      <trkpt lat="52.205475" lon="6.854626">
        <ele>78.778100</ele>
        <time>2026-05-09T07:04:35.977Z</time>
      </trkpt>
      <trkpt lat="52.205488" lon="6.854422">
        <ele>78.818394</ele>
        <time>2026-05-09T07:04:38.974Z</time>
      </trkpt>
      <trkpt lat="52.205483" lon="6.854264">
        <ele>78.777960</ele>
        <time>2026-05-09T07:04:43.977Z</time>
      </trkpt>
      <trkpt lat="52.205460" lon="6.853939">
        <ele>78.694272</ele>
        <time>2026-05-09T07:05:09.979Z</time>
      </trkpt>
      <trkpt lat="52.205440" lon="6.853718">
        <ele>78.637126</ele>
        <time>2026-05-09T07:05:12.973Z</time>
      </trkpt>
      <trkpt lat="52.205420" lon="6.853573">
        <ele>78.599107</ele>
        <time>2026-05-09T07:05:14.980Z</time>
      </trkpt>
      <trkpt lat="52.205412" lon="6.853418">
        <ele>78.559317</ele>
        <time>2026-05-09T07:05:16.980Z</time>
      </trkpt>
      <trkpt lat="52.205405" lon="6.853253">
        <ele>78.517008</ele>
        <time>2026-05-09T07:05:18.979Z</time>
      </trkpt>
      <trkpt lat="52.205400" lon="6.853088">
        <ele>78.474749</ele>
        <time>2026-05-09T07:05:20.973Z</time>
      </trkpt>
      <trkpt lat="52.205392" lon="6.852928">
        <ele>78.433684</ele>
        <time>2026-05-09T07:05:22.971Z</time>
      </trkpt>
      <trkpt lat="52.205385" lon="6.852763">
        <ele>78.391376</ele>
        <time>2026-05-09T07:05:24.972Z</time>
      </trkpt>
      <trkpt lat="52.205382" lon="6.852591">
        <ele>78.347360</ele>
        <time>2026-05-09T07:05:26.977Z</time>
      </trkpt>
      <trkpt lat="52.205375" lon="6.852426">
        <ele>78.305051</ele>
        <time>2026-05-09T07:05:28.977Z</time>
      </trkpt>
      <trkpt lat="52.205358" lon="6.852247">
        <ele>78.258716</ele>
        <time>2026-05-09T07:05:30.978Z</time>
      </trkpt>
      <trkpt lat="52.205331" lon="6.852068">
        <ele>78.211560</ele>
        <time>2026-05-09T07:05:32.977Z</time>
      </trkpt>
      <trkpt lat="52.205314" lon="6.851889">
        <ele>78.165225</ele>
        <time>2026-05-09T07:05:34.971Z</time>
      </trkpt>
      <trkpt lat="52.205304" lon="6.851708">
        <ele>78.118736</ele>
        <time>2026-05-09T07:05:36.973Z</time>
      </trkpt>
      <trkpt lat="52.205295" lon="6.851520">
        <ele>78.070499</ele>
        <time>2026-05-09T07:05:38.975Z</time>
      </trkpt>
      <trkpt lat="52.205294" lon="6.851331">
        <ele>78.077101</ele>
        <time>2026-05-09T07:05:40.975Z</time>
      </trkpt>
      <trkpt lat="52.205289" lon="6.851157">
        <ele>78.086375</ele>
        <time>2026-05-09T07:05:42.972Z</time>
      </trkpt>
      <trkpt lat="52.205281" lon="6.850979">
        <ele>78.095876</ele>
        <time>2026-05-09T07:05:44.974Z</time>
      </trkpt>
      <trkpt lat="52.205285" lon="6.850789">
        <ele>78.105997</ele>
        <time>2026-05-09T07:05:46.978Z</time>
      </trkpt>
      <trkpt lat="52.205318" lon="6.850610">
        <ele>78.115949</ele>
        <time>2026-05-09T07:05:48.976Z</time>
      </trkpt>
      <trkpt lat="52.205331" lon="6.850439">
        <ele>78.125122</ele>
        <time>2026-05-09T07:05:50.975Z</time>
      </trkpt>
      <trkpt lat="52.205324" lon="6.850265">
        <ele>78.134405</ele>
        <time>2026-05-09T07:05:52.973Z</time>
      </trkpt>
      <trkpt lat="52.205320" lon="6.850082">
        <ele>78.144154</ele>
        <time>2026-05-09T07:05:54.981Z</time>
      </trkpt>
      <trkpt lat="52.205329" lon="6.849908">
        <ele>78.153450</ele>
        <time>2026-05-09T07:05:56.973Z</time>
      </trkpt>
      <trkpt lat="52.205365" lon="6.849752">
        <ele>78.162324</ele>
        <time>2026-05-09T07:05:58.980Z</time>
      </trkpt>
      <trkpt lat="52.205367" lon="6.849587">
        <ele>78.171110</ele>
        <time>2026-05-09T07:06:00.973Z</time>
      </trkpt>
      <trkpt lat="52.205314" lon="6.849433">
        <ele>78.180513</ele>
        <time>2026-05-09T07:06:02.975Z</time>
      </trkpt>
      <trkpt lat="52.205274" lon="6.849258">
        <ele>78.190456</ele>
        <time>2026-05-09T07:06:04.978Z</time>
      </trkpt>
      <trkpt lat="52.205248" lon="6.849077">
        <ele>78.200353</ele>
        <time>2026-05-09T07:06:06.979Z</time>
      </trkpt>
      <trkpt lat="52.205216" lon="6.848887">
        <ele>78.210843</ele>
        <time>2026-05-09T07:06:08.981Z</time>
      </trkpt>
      <trkpt lat="52.205209" lon="6.848704">
        <ele>78.220605</ele>
        <time>2026-05-09T07:06:10.978Z</time>
      </trkpt>
      <trkpt lat="52.205202" lon="6.848517">
        <ele>78.222529</ele>
        <time>2026-05-09T07:06:12.980Z</time>
      </trkpt>
      <trkpt lat="52.205195" lon="6.848340">
        <ele>78.220618</ele>
        <time>2026-05-09T07:06:14.975Z</time>
      </trkpt>
      <trkpt lat="52.205195" lon="6.848158">
        <ele>78.218657</ele>
        <time>2026-05-09T07:06:16.978Z</time>
      </trkpt>
      <trkpt lat="52.205195" lon="6.847972">
        <ele>78.216654</ele>
        <time>2026-05-09T07:06:18.977Z</time>
      </trkpt>
      <trkpt lat="52.205189" lon="6.847792">
        <ele>78.214712</ele>
        <time>2026-05-09T07:06:20.978Z</time>
      </trkpt>
      <trkpt lat="52.205181" lon="6.847607">
        <ele>78.212714</ele>
        <time>2026-05-09T07:06:22.977Z</time>
      </trkpt>
      <trkpt lat="52.205173" lon="6.847428">
        <ele>78.210780</ele>
        <time>2026-05-09T07:06:24.975Z</time>
      </trkpt>
      <trkpt lat="52.205167" lon="6.847249">
        <ele>78.208849</ele>
        <time>2026-05-09T07:06:26.982Z</time>
      </trkpt>
      <trkpt lat="52.205163" lon="6.847069">
        <ele>78.206908</ele>
        <time>2026-05-09T07:06:28.973Z</time>
      </trkpt>
      <trkpt lat="52.205156" lon="6.846903">
        <ele>78.205116</ele>
        <time>2026-05-09T07:06:30.973Z</time>
      </trkpt>
      <trkpt lat="52.205154" lon="6.846732">
        <ele>78.203273</ele>
        <time>2026-05-09T07:06:32.975Z</time>
      </trkpt>
      <trkpt lat="52.205156" lon="6.846557">
        <ele>78.201388</ele>
        <time>2026-05-09T07:06:34.982Z</time>
      </trkpt>
      <trkpt lat="52.205152" lon="6.846372">
        <ele>78.199393</ele>
        <time>2026-05-09T07:06:36.973Z</time>
      </trkpt>
      <trkpt lat="52.205144" lon="6.846192">
        <ele>78.197449</ele>
        <time>2026-05-09T07:06:38.973Z</time>
      </trkpt>
      <trkpt lat="52.205139" lon="6.846026">
        <ele>78.195658</ele>
        <time>2026-05-09T07:06:40.982Z</time>
      </trkpt>
      <trkpt lat="52.205135" lon="6.845855">
        <ele>78.193815</ele>
        <time>2026-05-09T07:06:42.974Z</time>
      </trkpt>
      <trkpt lat="52.205130" lon="6.845674">
        <ele>78.213014</ele>
        <time>2026-05-09T07:06:44.973Z</time>
      </trkpt>
      <trkpt lat="52.205122" lon="6.845486">
        <ele>78.317815</ele>
        <time>2026-05-09T07:06:46.973Z</time>
      </trkpt>
      <trkpt lat="52.205118" lon="6.845309">
        <ele>78.416313</ele>
        <time>2026-05-09T07:06:48.972Z</time>
      </trkpt>
      <trkpt lat="52.205118" lon="6.845031">
        <ele>78.570912</ele>
        <time>2026-05-09T07:07:39.975Z</time>
      </trkpt>
      <trkpt lat="52.205122" lon="6.844872">
        <ele>78.659408</ele>
        <time>2026-05-09T07:07:42.969Z</time>
      </trkpt>
      <trkpt lat="52.205129" lon="6.844684">
        <ele>78.764149</ele>
        <time>2026-05-09T07:07:45.976Z</time>
      </trkpt>
      <trkpt lat="52.205132" lon="6.844478">
        <ele>78.878740</ele>
        <time>2026-05-09T07:07:48.974Z</time>
      </trkpt>
      <trkpt lat="52.205140" lon="6.844262">
        <ele>78.999079</ele>
        <time>2026-05-09T07:07:51.976Z</time>
      </trkpt>
      <trkpt lat="52.205147" lon="6.844114">
        <ele>79.081628</ele>
        <time>2026-05-09T07:07:53.978Z</time>
      </trkpt>
      <trkpt lat="52.205159" lon="6.843894">
        <ele>79.204456</ele>
        <time>2026-05-09T07:07:56.979Z</time>
      </trkpt>
      <trkpt lat="52.205165" lon="6.843743">
        <ele>79.288605</ele>
        <time>2026-05-09T07:07:58.979Z</time>
      </trkpt>
      <trkpt lat="52.205174" lon="6.843588">
        <ele>79.375188</ele>
        <time>2026-05-09T07:08:00.978Z</time>
      </trkpt>
      <trkpt lat="52.205181" lon="6.843435">
        <ele>79.460509</ele>
        <time>2026-05-09T07:08:02.977Z</time>
      </trkpt>
      <trkpt lat="52.205190" lon="6.843283">
        <ele>79.545431</ele>
        <time>2026-05-09T07:08:04.976Z</time>
      </trkpt>
      <trkpt lat="52.205203" lon="6.843072">
        <ele>79.663362</ele>
        <time>2026-05-09T07:08:07.979Z</time>
      </trkpt>
      <trkpt lat="52.205209" lon="6.842921">
        <ele>79.747511</ele>
        <time>2026-05-09T07:08:09.973Z</time>
      </trkpt>
      <trkpt lat="52.205221" lon="6.842761">
        <ele>79.837422</ele>
        <time>2026-05-09T07:08:11.984Z</time>
      </trkpt>
      <trkpt lat="52.205230" lon="6.842594">
        <ele>79.932626</ele>
        <time>2026-05-09T07:08:13.970Z</time>
      </trkpt>
      <trkpt lat="52.205240" lon="6.842425">
        <ele>80.029046</ele>
        <time>2026-05-09T07:08:15.977Z</time>
      </trkpt>
      <trkpt lat="52.205250" lon="6.842266">
        <ele>80.119815</ele>
        <time>2026-05-09T07:08:17.977Z</time>
      </trkpt>
      <trkpt lat="52.205258" lon="6.842102">
        <ele>80.213244</ele>
        <time>2026-05-09T07:08:19.984Z</time>
      </trkpt>
      <trkpt lat="52.205268" lon="6.841935">
        <ele>80.308534</ele>
        <time>2026-05-09T07:08:21.975Z</time>
      </trkpt>
      <trkpt lat="52.205277" lon="6.841767">
        <ele>80.404304</ele>
        <time>2026-05-09T07:08:23.976Z</time>
      </trkpt>
      <trkpt lat="52.205283" lon="6.841608">
        <ele>80.494770</ele>
        <time>2026-05-09T07:08:25.977Z</time>
      </trkpt>
      <trkpt lat="52.205293" lon="6.841451">
        <ele>80.584409</ele>
        <time>2026-05-09T07:08:27.975Z</time>
      </trkpt>
      <trkpt lat="52.205303" lon="6.841289">
        <ele>80.676873</ele>
        <time>2026-05-09T07:08:29.976Z</time>
      </trkpt>
      <trkpt lat="52.205314" lon="6.841122">
        <ele>80.772257</ele>
        <time>2026-05-09T07:08:31.975Z</time>
      </trkpt>
      <trkpt lat="52.205325" lon="6.840955">
        <ele>80.867641</ele>
        <time>2026-05-09T07:08:33.973Z</time>
      </trkpt>
      <trkpt lat="52.205333" lon="6.840800">
        <ele>80.955976</ele>
        <time>2026-05-09T07:08:35.973Z</time>
      </trkpt>
      <trkpt lat="52.205343" lon="6.840643">
        <ele>81.045615</ele>
        <time>2026-05-09T07:08:37.974Z</time>
      </trkpt>
      <trkpt lat="52.205351" lon="6.840482">
        <ele>81.137346</ele>
        <time>2026-05-09T07:08:39.982Z</time>
      </trkpt>
      <trkpt lat="52.205361" lon="6.840314">
        <ele>81.233201</ele>
        <time>2026-05-09T07:08:41.972Z</time>
      </trkpt>
      <trkpt lat="52.205370" lon="6.840145">
        <ele>81.329536</ele>
        <time>2026-05-09T07:08:43.975Z</time>
      </trkpt>
      <trkpt lat="52.205380" lon="6.839984">
        <ele>81.421435</ele>
        <time>2026-05-09T07:08:45.980Z</time>
      </trkpt>
      <trkpt lat="52.205390" lon="6.839811">
        <ele>81.493001</ele>
        <time>2026-05-09T07:08:47.968Z</time>
      </trkpt>
      <trkpt lat="52.205401" lon="6.839638">
        <ele>81.499282</ele>
        <time>2026-05-09T07:08:49.973Z</time>
      </trkpt>
      <trkpt lat="52.205412" lon="6.839470">
        <ele>81.505384</ele>
        <time>2026-05-09T07:08:51.979Z</time>
      </trkpt>
      <trkpt lat="52.205423" lon="6.839296">
        <ele>81.511701</ele>
        <time>2026-05-09T07:08:53.978Z</time>
      </trkpt>
      <trkpt lat="52.205433" lon="6.839118">
        <ele>81.518156</ele>
        <time>2026-05-09T07:08:55.981Z</time>
      </trkpt>
      <trkpt lat="52.205442" lon="6.838948">
        <ele>81.524318</ele>
        <time>2026-05-09T07:08:57.974Z</time>
      </trkpt>
      <trkpt lat="52.205446" lon="6.838771">
        <ele>81.530715</ele>
        <time>2026-05-09T07:08:59.974Z</time>
      </trkpt>
      <trkpt lat="52.205443" lon="6.838600">
        <ele>81.536893</ele>
        <time>2026-05-09T07:09:01.971Z</time>
      </trkpt>
      <trkpt lat="52.205435" lon="6.838427">
        <ele>81.543158</ele>
        <time>2026-05-09T07:09:03.978Z</time>
      </trkpt>
      <trkpt lat="52.205428" lon="6.838248">
        <ele>81.549636</ele>
        <time>2026-05-09T07:09:05.969Z</time>
      </trkpt>
      <trkpt lat="52.205439" lon="6.838067">
        <ele>81.556205</ele>
        <time>2026-05-09T07:09:07.977Z</time>
      </trkpt>
      <trkpt lat="52.205426" lon="6.837883">
        <ele>81.562894</ele>
        <time>2026-05-09T07:09:09.971Z</time>
      </trkpt>
      <trkpt lat="52.205389" lon="6.837703">
        <ele>81.569750</ele>
        <time>2026-05-09T07:09:11.974Z</time>
      </trkpt>
      <trkpt lat="52.205327" lon="6.837541">
        <ele>81.576648</ele>
        <time>2026-05-09T07:09:13.984Z</time>
      </trkpt>
      <trkpt lat="52.205269" lon="6.837372">
        <ele>81.583643</ele>
        <time>2026-05-09T07:09:15.974Z</time>
      </trkpt>
      <trkpt lat="52.205218" lon="6.837197">
        <ele>81.590641</ele>
        <time>2026-05-09T07:09:17.971Z</time>
      </trkpt>
      <trkpt lat="52.205160" lon="6.837023">
        <ele>81.584135</ele>
        <time>2026-05-09T07:09:19.975Z</time>
      </trkpt>
      <trkpt lat="52.205102" lon="6.836853">
        <ele>81.441556</ele>
        <time>2026-05-09T07:09:21.977Z</time>
      </trkpt>
      <trkpt lat="52.205031" lon="6.836693">
        <ele>81.296799</ele>
        <time>2026-05-09T07:09:23.971Z</time>
      </trkpt>
      <trkpt lat="52.204962" lon="6.836540">
        <ele>81.157596</ele>
        <time>2026-05-09T07:09:25.976Z</time>
      </trkpt>
      <trkpt lat="52.204887" lon="6.836396">
        <ele>81.019113</ele>
        <time>2026-05-09T07:09:27.982Z</time>
      </trkpt>
      <trkpt lat="52.204809" lon="6.836247">
        <ele>80.875514</ele>
        <time>2026-05-09T07:09:29.975Z</time>
      </trkpt>
      <trkpt lat="52.204728" lon="6.836098">
        <ele>80.729560</ele>
        <time>2026-05-09T07:09:31.974Z</time>
      </trkpt>
      <trkpt lat="52.204648" lon="6.835944">
        <ele>80.581620</ele>
        <time>2026-05-09T07:09:33.974Z</time>
      </trkpt>
      <trkpt lat="52.204568" lon="6.835791">
        <ele>80.434239</ele>
        <time>2026-05-09T07:09:35.973Z</time>
      </trkpt>
      <trkpt lat="52.204491" lon="6.835649">
        <ele>80.295296</ele>
        <time>2026-05-09T07:09:37.973Z</time>
      </trkpt>
      <trkpt lat="52.204410" lon="6.835509">
        <ele>80.154207</ele>
        <time>2026-05-09T07:09:39.975Z</time>
      </trkpt>
      <trkpt lat="52.204331" lon="6.835362">
        <ele>80.010933</ele>
        <time>2026-05-09T07:09:41.979Z</time>
      </trkpt>
      <trkpt lat="52.204250" lon="6.835208">
        <ele>79.862216</ele>
        <time>2026-05-09T07:09:43.979Z</time>
      </trkpt>
      <trkpt lat="52.204169" lon="6.835058">
        <ele>79.715712</ele>
        <time>2026-05-09T07:09:45.972Z</time>
      </trkpt>
      <trkpt lat="52.204089" lon="6.834909">
        <ele>79.570547</ele>
        <time>2026-05-09T07:09:47.971Z</time>
      </trkpt>
      <trkpt lat="52.204009" lon="6.834760">
        <ele>79.416763</ele>
        <time>2026-05-09T07:09:49.978Z</time>
      </trkpt>
      <trkpt lat="52.203928" lon="6.834609">
        <ele>79.209524</ele>
        <time>2026-05-09T07:09:51.972Z</time>
      </trkpt>
      <trkpt lat="52.203843" lon="6.834455">
        <ele>78.995492</ele>
        <time>2026-05-09T07:09:53.975Z</time>
      </trkpt>
      <trkpt lat="52.203751" lon="6.834305">
        <ele>78.776333</ele>
        <time>2026-05-09T07:09:55.973Z</time>
      </trkpt>
      <trkpt lat="52.203655" lon="6.834149">
        <ele>78.548025</ele>
        <time>2026-05-09T07:09:57.976Z</time>
      </trkpt>
      <trkpt lat="52.203562" lon="6.833987">
        <ele>78.318788</ele>
        <time>2026-05-09T07:09:59.985Z</time>
      </trkpt>
      <trkpt lat="52.203468" lon="6.833826">
        <ele>78.089145</ele>
        <time>2026-05-09T07:10:01.984Z</time>
      </trkpt>
      <trkpt lat="52.203370" lon="6.833676">
        <ele>77.862719</ele>
        <time>2026-05-09T07:10:03.973Z</time>
      </trkpt>
      <trkpt lat="52.203276" lon="6.833532">
        <ele>77.645449</ele>
        <time>2026-05-09T07:10:05.983Z</time>
      </trkpt>
      <trkpt lat="52.203186" lon="6.833406">
        <ele>77.445617</ele>
        <time>2026-05-09T07:10:07.972Z</time>
      </trkpt>
      <trkpt lat="52.203104" lon="6.833275">
        <ele>77.252235</ele>
        <time>2026-05-09T07:10:09.975Z</time>
      </trkpt>
      <trkpt lat="52.203019" lon="6.833146">
        <ele>77.056622</ele>
        <time>2026-05-09T07:10:11.973Z</time>
      </trkpt>
      <trkpt lat="52.202935" lon="6.833016">
        <ele>76.861530</ele>
        <time>2026-05-09T07:10:13.979Z</time>
      </trkpt>
      <trkpt lat="52.202855" lon="6.832892">
        <ele>76.675592</ele>
        <time>2026-05-09T07:10:15.974Z</time>
      </trkpt>
      <trkpt lat="52.202768" lon="6.832773">
        <ele>76.484290</ele>
        <time>2026-05-09T07:10:17.979Z</time>
      </trkpt>
      <trkpt lat="52.202668" lon="6.832682">
        <ele>76.386750</ele>
        <time>2026-05-09T07:10:19.981Z</time>
      </trkpt>
      <trkpt lat="52.202560" lon="6.832616">
        <ele>76.341698</ele>
        <time>2026-05-09T07:10:21.984Z</time>
      </trkpt>
      <trkpt lat="52.202454" lon="6.832551">
        <ele>76.297461</ele>
        <time>2026-05-09T07:10:23.972Z</time>
      </trkpt>
      <trkpt lat="52.202344" lon="6.832494">
        <ele>76.252375</ele>
        <time>2026-05-09T07:10:25.975Z</time>
      </trkpt>
      <trkpt lat="52.202231" lon="6.832432">
        <ele>76.205803</ele>
        <time>2026-05-09T07:10:27.977Z</time>
      </trkpt>
      <trkpt lat="52.202111" lon="6.832368">
        <ele>76.156484</ele>
        <time>2026-05-09T07:10:29.976Z</time>
      </trkpt>
      <trkpt lat="52.201992" lon="6.832303">
        <ele>76.107461</ele>
        <time>2026-05-09T07:10:31.976Z</time>
      </trkpt>
      <trkpt lat="52.201876" lon="6.832240">
        <ele>76.059701</ele>
        <time>2026-05-09T07:10:33.983Z</time>
      </trkpt>
      <trkpt lat="52.201756" lon="6.832172">
        <ele>76.010077</ele>
        <time>2026-05-09T07:10:35.975Z</time>
      </trkpt>
      <trkpt lat="52.201638" lon="6.832109">
        <ele>75.961575</ele>
        <time>2026-05-09T07:10:37.970Z</time>
      </trkpt>
      <trkpt lat="52.201524" lon="6.832050">
        <ele>75.914855</ele>
        <time>2026-05-09T07:10:39.971Z</time>
      </trkpt>
      <trkpt lat="52.201407" lon="6.831988">
        <ele>75.866799</ele>
        <time>2026-05-09T07:10:41.973Z</time>
      </trkpt>
      <trkpt lat="52.201290" lon="6.831922">
        <ele>75.818438</ele>
        <time>2026-05-09T07:10:43.975Z</time>
      </trkpt>
      <trkpt lat="52.201179" lon="6.831856">
        <ele>75.772287</ele>
        <time>2026-05-09T07:10:45.976Z</time>
      </trkpt>
      <trkpt lat="52.201074" lon="6.831787">
        <ele>75.728067</ele>
        <time>2026-05-09T07:10:47.973Z</time>
      </trkpt>
      <trkpt lat="52.200966" lon="6.831727">
        <ele>75.696499</ele>
        <time>2026-05-09T07:10:49.975Z</time>
      </trkpt>
      <trkpt lat="52.200855" lon="6.831665">
        <ele>75.670929</ele>
        <time>2026-05-09T07:10:51.970Z</time>
      </trkpt>
      <trkpt lat="52.200751" lon="6.831603">
        <ele>75.646798</ele>
        <time>2026-05-09T07:10:53.972Z</time>
      </trkpt>
      <trkpt lat="52.200647" lon="6.831551">
        <ele>75.623092</ele>
        <time>2026-05-09T07:10:55.974Z</time>
      </trkpt>
      <trkpt lat="52.200542" lon="6.831495">
        <ele>75.599017</ele>
        <time>2026-05-09T07:10:57.971Z</time>
      </trkpt>
      <trkpt lat="52.200435" lon="6.831433">
        <ele>75.574271</ele>
        <time>2026-05-09T07:10:59.974Z</time>
      </trkpt>
      <trkpt lat="52.200327" lon="6.831368">
        <ele>75.549183</ele>
        <time>2026-05-09T07:11:01.978Z</time>
      </trkpt>
      <trkpt lat="52.200221" lon="6.831308">
        <ele>75.524731</ele>
        <time>2026-05-09T07:11:03.973Z</time>
      </trkpt>
      <trkpt lat="52.200114" lon="6.831246">
        <ele>75.499984</ele>
        <time>2026-05-09T07:11:05.973Z</time>
      </trkpt>
      <trkpt lat="52.200003" lon="6.831183">
        <ele>75.474371</ele>
        <time>2026-05-09T07:11:07.972Z</time>
      </trkpt>
      <trkpt lat="52.199890" lon="6.831123">
        <ele>75.448473</ele>
        <time>2026-05-09T07:11:09.971Z</time>
      </trkpt>
      <trkpt lat="52.199780" lon="6.831062">
        <ele>75.423153</ele>
        <time>2026-05-09T07:11:11.973Z</time>
      </trkpt>
      <trkpt lat="52.199667" lon="6.831001">
        <ele>75.397213</ele>
        <time>2026-05-09T07:11:13.977Z</time>
      </trkpt>
      <trkpt lat="52.199553" lon="6.830941">
        <ele>75.371107</ele>
        <time>2026-05-09T07:11:15.976Z</time>
      </trkpt>
      <trkpt lat="52.199440" lon="6.830878">
        <ele>75.345082</ele>
        <time>2026-05-09T07:11:17.977Z</time>
      </trkpt>
      <trkpt lat="52.199329" lon="6.830814">
        <ele>75.320213</ele>
        <time>2026-05-09T07:11:19.972Z</time>
      </trkpt>
      <trkpt lat="52.199219" lon="6.830753">
        <ele>75.308327</ele>
        <time>2026-05-09T07:11:21.972Z</time>
      </trkpt>
      <trkpt lat="52.199116" lon="6.830696">
        <ele>75.297201</ele>
        <time>2026-05-09T07:11:23.973Z</time>
      </trkpt>
      <trkpt lat="52.199009" lon="6.830643">
        <ele>75.285761</ele>
        <time>2026-05-09T07:11:25.976Z</time>
      </trkpt>
      <trkpt lat="52.198901" lon="6.830577">
        <ele>75.273963</ele>
        <time>2026-05-09T07:11:27.976Z</time>
      </trkpt>
      <trkpt lat="52.198795" lon="6.830513">
        <ele>75.262400</ele>
        <time>2026-05-09T07:11:29.976Z</time>
      </trkpt>
      <trkpt lat="52.198696" lon="6.830460">
        <ele>75.251741</ele>
        <time>2026-05-09T07:11:31.975Z</time>
      </trkpt>
      <trkpt lat="52.198593" lon="6.830415">
        <ele>75.240833</ele>
        <time>2026-05-09T07:11:34.984Z</time>
      </trkpt>
      <trkpt lat="52.198502" lon="6.830470">
        <ele>75.230905</ele>
        <time>2026-05-09T07:11:37.974Z</time>
      </trkpt>
      <trkpt lat="52.198387" lon="6.830546">
        <ele>75.218212</ele>
        <time>2026-05-09T07:11:40.975Z</time>
      </trkpt>
      <trkpt lat="52.198303" lon="6.830620">
        <ele>75.208446</ele>
        <time>2026-05-09T07:11:42.979Z</time>
      </trkpt>
      <trkpt lat="52.198218" lon="6.830692">
        <ele>75.198648</ele>
        <time>2026-05-09T07:11:44.973Z</time>
      </trkpt>
      <trkpt lat="52.198138" lon="6.830762">
        <ele>75.189362</ele>
        <time>2026-05-09T07:11:46.973Z</time>
      </trkpt>
      <trkpt lat="52.198054" lon="6.830828">
        <ele>75.179824</ele>
        <time>2026-05-09T07:11:48.981Z</time>
      </trkpt>
      <trkpt lat="52.197970" lon="6.830890">
        <ele>75.170392</ele>
        <time>2026-05-09T07:11:50.973Z</time>
      </trkpt>
      <trkpt lat="52.197883" lon="6.830956">
        <ele>75.160576</ele>
        <time>2026-05-09T07:11:52.974Z</time>
      </trkpt>
      <trkpt lat="52.197766" lon="6.831052">
        <ele>75.147179</ele>
        <time>2026-05-09T07:11:55.975Z</time>
      </trkpt>
      <trkpt lat="52.197668" lon="6.831128">
        <ele>75.137061</ele>
        <time>2026-05-09T07:11:59.973Z</time>
      </trkpt>
      <trkpt lat="52.197573" lon="6.831199">
        <ele>75.139048</ele>
        <time>2026-05-09T07:12:03.970Z</time>
      </trkpt>
      <trkpt lat="52.197485" lon="6.831268">
        <ele>75.140906</ele>
        <time>2026-05-09T07:12:07.978Z</time>
      </trkpt>
      <trkpt lat="52.197319" lon="6.831419">
        <ele>75.144521</ele>
        <time>2026-05-09T07:14:15.982Z</time>
      </trkpt>
      <trkpt lat="52.197219" lon="6.831507">
        <ele>75.146682</ele>
        <time>2026-05-09T07:14:18.973Z</time>
      </trkpt>
      <trkpt lat="52.197116" lon="6.831595">
        <ele>75.148894</ele>
        <time>2026-05-09T07:14:21.976Z</time>
      </trkpt>
      <trkpt lat="52.196883" lon="6.831715">
        <ele>75.153541</ele>
        <time>2026-05-09T07:14:51.978Z</time>
      </trkpt>
      <trkpt lat="52.196774" lon="6.831760">
        <ele>75.155680</ele>
        <time>2026-05-09T07:14:54.977Z</time>
      </trkpt>
      <trkpt lat="52.196661" lon="6.831804">
        <ele>75.157890</ele>
        <time>2026-05-09T07:14:57.971Z</time>
      </trkpt>
      <trkpt lat="52.196554" lon="6.831843">
        <ele>75.159975</ele>
        <time>2026-05-09T07:15:00.977Z</time>
      </trkpt>
      <trkpt lat="52.196441" lon="6.831886">
        <ele>75.162182</ele>
        <time>2026-05-09T07:15:03.978Z</time>
      </trkpt>
      <trkpt lat="52.196334" lon="6.831925">
        <ele>75.164268</ele>
        <time>2026-05-09T07:15:06.974Z</time>
      </trkpt>
      <trkpt lat="52.196228" lon="6.831964">
        <ele>75.166335</ele>
        <time>2026-05-09T07:15:09.972Z</time>
      </trkpt>
      <trkpt lat="52.196124" lon="6.831997">
        <ele>75.168350</ele>
        <time>2026-05-09T07:15:12.975Z</time>
      </trkpt>
      <trkpt lat="52.196026" lon="6.831934">
        <ele>75.170354</ele>
        <time>2026-05-09T07:15:16.975Z</time>
      </trkpt>
      <trkpt lat="52.196050" lon="6.831787">
        <ele>75.176616</ele>
        <time>2026-05-09T07:15:19.970Z</time>
      </trkpt>
      <trkpt lat="52.196079" lon="6.831612">
        <ele>75.188145</ele>
        <time>2026-05-09T07:15:23.974Z</time>
      </trkpt>
      <trkpt lat="52.196100" lon="6.831460">
        <ele>75.198054</ele>
        <time>2026-05-09T07:15:26.969Z</time>
      </trkpt>
      <trkpt lat="52.196122" lon="6.831301">
        <ele>75.208420</ele>
        <time>2026-05-09T07:15:29.974Z</time>
      </trkpt>
      <trkpt lat="52.196145" lon="6.831141">
        <ele>75.218871</ele>
        <time>2026-05-09T07:15:32.972Z</time>
      </trkpt>
      <trkpt lat="52.196162" lon="6.830996">
        <ele>75.228260</ele>
        <time>2026-05-09T07:15:35.981Z</time>
      </trkpt>
      <trkpt lat="52.196187" lon="6.830832">
        <ele>75.239007</ele>
        <time>2026-05-09T07:15:39.980Z</time>
      </trkpt>
      <trkpt lat="52.196216" lon="6.830660">
        <ele>75.250352</ele>
        <time>2026-05-09T07:15:44.980Z</time>
      </trkpt>
      <trkpt lat="52.196218" lon="6.830511">
        <ele>75.259829</ele>
        <time>2026-05-09T07:15:49.977Z</time>
      </trkpt>
      <trkpt lat="52.196238" lon="6.830359">
        <ele>75.269716</ele>
        <time>2026-05-09T07:15:54.977Z</time>
      </trkpt>
      <trkpt lat="52.196284" lon="6.830229">
        <ele>75.279262</ele>
        <time>2026-05-09T07:15:59.975Z</time>
      </trkpt>
      <trkpt lat="52.196297" lon="6.830071">
        <ele>75.289400</ele>
        <time>2026-05-09T07:16:03.971Z</time>
      </trkpt>
      <trkpt lat="52.196320" lon="6.829892">
        <ele>75.301031</ele>
        <time>2026-05-09T07:16:07.980Z</time>
      </trkpt>
      <trkpt lat="52.196350" lon="6.829714">
        <ele>75.312771</ele>
        <time>2026-05-09T07:16:11.973Z</time>
      </trkpt>
      <trkpt lat="52.196371" lon="6.829554">
        <ele>75.323177</ele>
        <time>2026-05-09T07:16:15.972Z</time>
      </trkpt>
      <trkpt lat="52.196400" lon="6.829403">
        <ele>75.333240</ele>
        <time>2026-05-09T07:16:19.975Z</time>
      </trkpt>
      <trkpt lat="52.196425" lon="6.829250">
        <ele>75.343310</ele>
        <time>2026-05-09T07:16:23.974Z</time>
      </trkpt>
      <trkpt lat="52.196377" lon="6.829120">
        <ele>75.352961</ele>
        <time>2026-05-09T07:16:27.974Z</time>
      </trkpt>
      <trkpt lat="52.196278" lon="6.829062">
        <ele>75.350253</ele>
        <time>2026-05-09T07:16:30.979Z</time>
      </trkpt>
      <trkpt lat="52.196163" lon="6.828983">
        <ele>75.334497</ele>
        <time>2026-05-09T07:16:33.979Z</time>
      </trkpt>
      <trkpt lat="52.196045" lon="6.828898">
        <ele>75.318209</ele>
        <time>2026-05-09T07:16:36.976Z</time>
      </trkpt>
      <trkpt lat="52.195929" lon="6.828803">
        <ele>75.301819</ele>
        <time>2026-05-09T07:16:39.979Z</time>
      </trkpt>
      <trkpt lat="52.195846" lon="6.828728">
        <ele>75.289839</ele>
        <time>2026-05-09T07:16:41.979Z</time>
      </trkpt>
      <trkpt lat="52.195761" lon="6.828639">
        <ele>75.277085</ele>
        <time>2026-05-09T07:16:43.980Z</time>
      </trkpt>
      <trkpt lat="52.195678" lon="6.828555">
        <ele>75.264752</ele>
        <time>2026-05-09T07:16:45.982Z</time>
      </trkpt>
      <trkpt lat="52.195597" lon="6.828464">
        <ele>75.252333</ele>
        <time>2026-05-09T07:16:47.978Z</time>
      </trkpt>
      <trkpt lat="52.195523" lon="6.828378">
        <ele>75.240860</ele>
        <time>2026-05-09T07:16:49.979Z</time>
      </trkpt>
      <trkpt lat="52.195411" lon="6.828262">
        <ele>75.224109</ele>
        <time>2026-05-09T07:16:52.985Z</time>
      </trkpt>
      <trkpt lat="52.195331" lon="6.828179">
        <ele>75.212137</ele>
        <time>2026-05-09T07:16:54.979Z</time>
      </trkpt>
      <trkpt lat="52.195251" lon="6.828091">
        <ele>75.199954</ele>
        <time>2026-05-09T07:16:56.977Z</time>
      </trkpt>
      <trkpt lat="52.195165" lon="6.828009">
        <ele>75.187376</ele>
        <time>2026-05-09T07:16:58.973Z</time>
      </trkpt>
      <trkpt lat="52.195081" lon="6.827921">
        <ele>75.174770</ele>
        <time>2026-05-09T07:17:00.971Z</time>
      </trkpt>
      <trkpt lat="52.194997" lon="6.827830">
        <ele>75.162038</ele>
        <time>2026-05-09T07:17:02.983Z</time>
      </trkpt>
      <trkpt lat="52.194906" lon="6.827736">
        <ele>75.148437</ele>
        <time>2026-05-09T07:17:04.977Z</time>
      </trkpt>
      <trkpt lat="52.194818" lon="6.827650">
        <ele>75.135484</ele>
        <time>2026-05-09T07:17:06.986Z</time>
      </trkpt>
      <trkpt lat="52.194732" lon="6.827560">
        <ele>75.105087</ele>
        <time>2026-05-09T07:17:08.976Z</time>
      </trkpt>
      <trkpt lat="52.194639" lon="6.827462">
        <ele>75.060651</ele>
        <time>2026-05-09T07:17:10.982Z</time>
      </trkpt>
      <trkpt lat="52.194550" lon="6.827366">
        <ele>75.017829</ele>
        <time>2026-05-09T07:17:12.975Z</time>
      </trkpt>
      <trkpt lat="52.194464" lon="6.827264">
        <ele>74.975154</ele>
        <time>2026-05-09T07:17:14.978Z</time>
      </trkpt>
      <trkpt lat="52.194375" lon="6.827159">
        <ele>74.931072</ele>
        <time>2026-05-09T07:17:16.989Z</time>
      </trkpt>
      <trkpt lat="52.194282" lon="6.827053">
        <ele>74.885538</ele>
        <time>2026-05-09T07:17:18.976Z</time>
      </trkpt>
      <trkpt lat="52.194188" lon="6.826951">
        <ele>74.840227</ele>
        <time>2026-05-09T07:17:20.978Z</time>
      </trkpt>
      <trkpt lat="52.194092" lon="6.826848">
        <ele>74.794110</ele>
        <time>2026-05-09T07:17:22.978Z</time>
      </trkpt>
      <trkpt lat="52.194004" lon="6.826745">
        <ele>74.750641</ele>
        <time>2026-05-09T07:17:24.974Z</time>
      </trkpt>
      <trkpt lat="52.193914" lon="6.826640">
        <ele>74.706232</ele>
        <time>2026-05-09T07:17:26.981Z</time>
      </trkpt>
      <trkpt lat="52.193822" lon="6.826532">
        <ele>74.660741</ele>
        <time>2026-05-09T07:17:28.979Z</time>
      </trkpt>
      <trkpt lat="52.193727" lon="6.826422">
        <ele>74.613984</ele>
        <time>2026-05-09T07:17:30.975Z</time>
      </trkpt>
      <trkpt lat="52.193636" lon="6.826313">
        <ele>74.568673</ele>
        <time>2026-05-09T07:17:32.979Z</time>
      </trkpt>
      <trkpt lat="52.193541" lon="6.826210">
        <ele>74.522891</ele>
        <time>2026-05-09T07:17:34.974Z</time>
      </trkpt>
      <trkpt lat="52.193445" lon="6.826102">
        <ele>74.476087</ele>
        <time>2026-05-09T07:17:36.975Z</time>
      </trkpt>
      <trkpt lat="52.193348" lon="6.825993">
        <ele>74.428813</ele>
        <time>2026-05-09T07:17:38.979Z</time>
      </trkpt>
      <trkpt lat="52.193250" lon="6.825883">
        <ele>74.435051</ele>
        <time>2026-05-09T07:17:40.978Z</time>
      </trkpt>
      <trkpt lat="52.193155" lon="6.825771">
        <ele>74.479853</ele>
        <time>2026-05-09T07:17:42.973Z</time>
      </trkpt>
      <trkpt lat="52.193069" lon="6.825666">
        <ele>74.520913</ele>
        <time>2026-05-09T07:17:44.971Z</time>
      </trkpt>
      <trkpt lat="52.192983" lon="6.825552">
        <ele>74.563270</ele>
        <time>2026-05-09T07:17:46.980Z</time>
      </trkpt>
      <trkpt lat="52.192901" lon="6.825431">
        <ele>74.605534</ele>
        <time>2026-05-09T07:17:48.980Z</time>
      </trkpt>
      <trkpt lat="52.192818" lon="6.825303">
        <ele>74.649192</ele>
        <time>2026-05-09T07:17:50.976Z</time>
      </trkpt>
      <trkpt lat="52.192740" lon="6.825173">
        <ele>74.691816</ele>
        <time>2026-05-09T07:17:52.984Z</time>
      </trkpt>
      <trkpt lat="52.192663" lon="6.825041">
        <ele>74.734511</ele>
        <time>2026-05-09T07:17:54.980Z</time>
      </trkpt>
      <trkpt lat="52.192593" lon="6.824911">
        <ele>74.775055</ele>
        <time>2026-05-09T07:17:56.981Z</time>
      </trkpt>
      <trkpt lat="52.192524" lon="6.824770">
        <ele>74.817330</ele>
        <time>2026-05-09T07:17:58.983Z</time>
      </trkpt>
      <trkpt lat="52.192456" lon="6.824623">
        <ele>74.860481</ele>
        <time>2026-05-09T07:18:00.983Z</time>
      </trkpt>
      <trkpt lat="52.192386" lon="6.824479">
        <ele>74.903544</ele>
        <time>2026-05-09T07:18:02.983Z</time>
      </trkpt>
      <trkpt lat="52.192314" lon="6.824332">
        <ele>74.947633</ele>
        <time>2026-05-09T07:18:04.984Z</time>
      </trkpt>
      <trkpt lat="52.192249" lon="6.824189">
        <ele>74.989347</ele>
        <time>2026-05-09T07:18:06.976Z</time>
      </trkpt>
      <trkpt lat="52.192181" lon="6.824050">
        <ele>75.031017</ele>
        <time>2026-05-09T07:18:08.976Z</time>
      </trkpt>
      <trkpt lat="52.192116" lon="6.823910">
        <ele>75.072168</ele>
        <time>2026-05-09T07:18:10.970Z</time>
      </trkpt>
      <trkpt lat="52.192045" lon="6.823765">
        <ele>75.093407</ele>
        <time>2026-05-09T07:18:12.975Z</time>
      </trkpt>
      <trkpt lat="52.191975" lon="6.823616">
        <ele>75.087019</ele>
        <time>2026-05-09T07:18:14.973Z</time>
      </trkpt>
      <trkpt lat="52.191907" lon="6.823465">
        <ele>75.080643</ele>
        <time>2026-05-09T07:18:16.980Z</time>
      </trkpt>
      <trkpt lat="52.191837" lon="6.823319">
        <ele>75.074335</ele>
        <time>2026-05-09T07:18:18.985Z</time>
      </trkpt>
      <trkpt lat="52.191767" lon="6.823171">
        <ele>75.067974</ele>
        <time>2026-05-09T07:18:20.976Z</time>
      </trkpt>
      <trkpt lat="52.191697" lon="6.823027">
        <ele>75.061720</ele>
        <time>2026-05-09T07:18:22.980Z</time>
      </trkpt>
      <trkpt lat="52.191628" lon="6.822881">
        <ele>75.055447</ele>
        <time>2026-05-09T07:18:24.973Z</time>
      </trkpt>
      <trkpt lat="52.191559" lon="6.822738">
        <ele>75.049254</ele>
        <time>2026-05-09T07:18:26.971Z</time>
      </trkpt>
      <trkpt lat="52.191491" lon="6.822591">
        <ele>75.042987</ele>
        <time>2026-05-09T07:18:28.972Z</time>
      </trkpt>
      <trkpt lat="52.191420" lon="6.822444">
        <ele>75.036619</ele>
        <time>2026-05-09T07:18:30.974Z</time>
      </trkpt>
      <trkpt lat="52.191348" lon="6.822307">
        <ele>75.030478</ele>
        <time>2026-05-09T07:18:32.979Z</time>
      </trkpt>
      <trkpt lat="52.191282" lon="6.822167">
        <ele>75.024468</ele>
        <time>2026-05-09T07:18:34.972Z</time>
      </trkpt>
      <trkpt lat="52.191217" lon="6.822028">
        <ele>75.018519</ele>
        <time>2026-05-09T07:18:36.972Z</time>
      </trkpt>
      <trkpt lat="52.191155" lon="6.821880">
        <ele>75.012418</ele>
        <time>2026-05-09T07:18:38.973Z</time>
      </trkpt>
      <trkpt lat="52.191083" lon="6.821739">
        <ele>75.006174</ele>
        <time>2026-05-09T07:18:40.974Z</time>
      </trkpt>
      <trkpt lat="52.191012" lon="6.821596">
        <ele>74.999911</ele>
        <time>2026-05-09T07:18:42.977Z</time>
      </trkpt>
      <trkpt lat="52.190942" lon="6.821449">
        <ele>74.988149</ele>
        <time>2026-05-09T07:18:44.979Z</time>
      </trkpt>
      <trkpt lat="52.190874" lon="6.821297">
        <ele>74.969356</ele>
        <time>2026-05-09T07:18:46.969Z</time>
      </trkpt>
      <trkpt lat="52.190805" lon="6.821148">
        <ele>74.950707</ele>
        <time>2026-05-09T07:18:48.979Z</time>
      </trkpt>
      <trkpt lat="52.190734" lon="6.820992">
        <ele>74.931302</ele>
        <time>2026-05-09T07:18:50.977Z</time>
      </trkpt>
      <trkpt lat="52.190665" lon="6.820843">
        <ele>74.912653</ele>
        <time>2026-05-09T07:18:52.975Z</time>
      </trkpt>
      <trkpt lat="52.190594" lon="6.820693">
        <ele>74.893726</ele>
        <time>2026-05-09T07:18:54.979Z</time>
      </trkpt>
      <trkpt lat="52.190521" lon="6.820538">
        <ele>74.874205</ele>
        <time>2026-05-09T07:18:56.975Z</time>
      </trkpt>
      <trkpt lat="52.190454" lon="6.820391">
        <ele>74.855911</ele>
        <time>2026-05-09T07:18:58.974Z</time>
      </trkpt>
      <trkpt lat="52.190388" lon="6.820250">
        <ele>74.838193</ele>
        <time>2026-05-09T07:19:00.977Z</time>
      </trkpt>
      <trkpt lat="52.190317" lon="6.820104">
        <ele>74.819581</ele>
        <time>2026-05-09T07:19:02.977Z</time>
      </trkpt>
      <trkpt lat="52.190247" lon="6.819955">
        <ele>74.800833</ele>
        <time>2026-05-09T07:19:04.983Z</time>
      </trkpt>
      <trkpt lat="52.190180" lon="6.819814">
        <ele>74.783016</ele>
        <time>2026-05-09T07:19:06.975Z</time>
      </trkpt>
      <trkpt lat="52.190110" lon="6.819668">
        <ele>74.764504</ele>
        <time>2026-05-09T07:19:08.974Z</time>
      </trkpt>
      <trkpt lat="52.190040" lon="6.819518">
        <ele>74.745677</ele>
        <time>2026-05-09T07:19:10.978Z</time>
      </trkpt>
      <trkpt lat="52.189974" lon="6.819374">
        <ele>74.727720</ele>
        <time>2026-05-09T07:19:12.971Z</time>
      </trkpt>
      <trkpt lat="52.189902" lon="6.819223">
        <ele>74.708614</ele>
        <time>2026-05-09T07:19:14.980Z</time>
      </trkpt>
      <trkpt lat="52.189829" lon="6.819072">
        <ele>74.696827</ele>
        <time>2026-05-09T07:19:16.982Z</time>
      </trkpt>
      <trkpt lat="52.189754" lon="6.818917">
        <ele>74.687593</ele>
        <time>2026-05-09T07:19:18.978Z</time>
      </trkpt>
      <trkpt lat="52.189688" lon="6.818764">
        <ele>74.678845</ele>
        <time>2026-05-09T07:19:20.973Z</time>
      </trkpt>
      <trkpt lat="52.189619" lon="6.818610">
        <ele>74.669925</ele>
        <time>2026-05-09T07:19:22.980Z</time>
      </trkpt>
      <trkpt lat="52.189548" lon="6.818462">
        <ele>74.661137</ele>
        <time>2026-05-09T07:19:24.974Z</time>
      </trkpt>
      <trkpt lat="52.189473" lon="6.818313">
        <ele>74.652122</ele>
        <time>2026-05-09T07:19:26.974Z</time>
      </trkpt>
      <trkpt lat="52.189400" lon="6.818161">
        <ele>74.643093</ele>
        <time>2026-05-09T07:19:28.978Z</time>
      </trkpt>
      <trkpt lat="52.189328" lon="6.818005">
        <ele>74.633962</ele>
        <time>2026-05-09T07:19:30.974Z</time>
      </trkpt>
      <trkpt lat="52.189257" lon="6.817850">
        <ele>74.624914</ele>
        <time>2026-05-09T07:19:32.983Z</time>
      </trkpt>
      <trkpt lat="52.189190" lon="6.817686">
        <ele>74.615698</ele>
        <time>2026-05-09T07:19:34.972Z</time>
      </trkpt>
      <trkpt lat="52.189114" lon="6.817521">
        <ele>74.606047</ele>
        <time>2026-05-09T07:19:36.977Z</time>
      </trkpt>
      <trkpt lat="52.189038" lon="6.817356">
        <ele>74.596396</ele>
        <time>2026-05-09T07:19:38.981Z</time>
      </trkpt>
      <trkpt lat="52.188957" lon="6.817195">
        <ele>74.586656</ele>
        <time>2026-05-09T07:19:40.976Z</time>
      </trkpt>
      <trkpt lat="52.188883" lon="6.817042">
        <ele>74.577543</ele>
        <time>2026-05-09T07:19:42.976Z</time>
      </trkpt>
      <trkpt lat="52.188807" lon="6.816882">
        <ele>74.568078</ele>
        <time>2026-05-09T07:19:44.976Z</time>
      </trkpt>
      <trkpt lat="52.188727" lon="6.816725">
        <ele>74.551778</ele>
        <time>2026-05-09T07:19:46.978Z</time>
      </trkpt>
      <trkpt lat="52.188656" lon="6.816572">
        <ele>74.534863</ele>
        <time>2026-05-09T07:19:48.972Z</time>
      </trkpt>
      <trkpt lat="52.188584" lon="6.816413">
        <ele>74.517439</ele>
        <time>2026-05-09T07:19:50.974Z</time>
      </trkpt>
      <trkpt lat="52.188511" lon="6.816252">
        <ele>74.499787</ele>
        <time>2026-05-09T07:19:52.977Z</time>
      </trkpt>
      <trkpt lat="52.188440" lon="6.816100">
        <ele>74.482943</ele>
        <time>2026-05-09T07:19:54.973Z</time>
      </trkpt>
      <trkpt lat="52.188365" lon="6.815940">
        <ele>74.465189</ele>
        <time>2026-05-09T07:19:56.974Z</time>
      </trkpt>
      <trkpt lat="52.188288" lon="6.815781">
        <ele>74.447328</ele>
        <time>2026-05-09T07:19:58.967Z</time>
      </trkpt>
      <trkpt lat="52.188211" lon="6.815621">
        <ele>74.429397</ele>
        <time>2026-05-09T07:20:00.969Z</time>
      </trkpt>
      <trkpt lat="52.188136" lon="6.815470">
        <ele>74.412267</ele>
        <time>2026-05-09T07:20:02.973Z</time>
      </trkpt>
      <trkpt lat="52.188059" lon="6.815314">
        <ele>74.394612</ele>
        <time>2026-05-09T07:20:04.974Z</time>
      </trkpt>
      <trkpt lat="52.187983" lon="6.815157">
        <ele>74.376979</ele>
        <time>2026-05-09T07:20:06.980Z</time>
      </trkpt>
      <trkpt lat="52.187911" lon="6.815003">
        <ele>74.359907</ele>
        <time>2026-05-09T07:20:08.969Z</time>
      </trkpt>
      <trkpt lat="52.187844" lon="6.814857">
        <ele>74.343831</ele>
        <time>2026-05-09T07:20:10.973Z</time>
      </trkpt>
      <trkpt lat="52.187778" lon="6.814723">
        <ele>74.328679</ele>
        <time>2026-05-09T07:20:12.974Z</time>
      </trkpt>
      <trkpt lat="52.187716" lon="6.814590">
        <ele>74.313951</ele>
        <time>2026-05-09T07:20:14.973Z</time>
      </trkpt>
      <trkpt lat="52.187645" lon="6.814449">
        <ele>74.292146</ele>
        <time>2026-05-09T07:20:16.973Z</time>
      </trkpt>
      <trkpt lat="52.187573" lon="6.814310">
        <ele>74.266626</ele>
        <time>2026-05-09T07:20:18.973Z</time>
      </trkpt>
      <trkpt lat="52.187505" lon="6.814163">
        <ele>74.240800</ele>
        <time>2026-05-09T07:20:20.972Z</time>
      </trkpt>
      <trkpt lat="52.187434" lon="6.814009">
        <ele>74.213778</ele>
        <time>2026-05-09T07:20:22.973Z</time>
      </trkpt>
      <trkpt lat="52.187360" lon="6.813848">
        <ele>74.185558</ele>
        <time>2026-05-09T07:20:24.972Z</time>
      </trkpt>
      <trkpt lat="52.187289" lon="6.813690">
        <ele>74.158085</ele>
        <time>2026-05-09T07:20:26.973Z</time>
      </trkpt>
      <trkpt lat="52.187219" lon="6.813540">
        <ele>74.131648</ele>
        <time>2026-05-09T07:20:28.968Z</time>
      </trkpt>
      <trkpt lat="52.187147" lon="6.813389">
        <ele>74.104820</ele>
        <time>2026-05-09T07:20:30.973Z</time>
      </trkpt>
      <trkpt lat="52.187077" lon="6.813236">
        <ele>74.078047</ele>
        <time>2026-05-09T07:20:32.974Z</time>
      </trkpt>
      <trkpt lat="52.187007" lon="6.813087">
        <ele>74.051721</ele>
        <time>2026-05-09T07:20:34.970Z</time>
      </trkpt>
      <trkpt lat="52.186937" lon="6.812937">
        <ele>74.025283</ele>
        <time>2026-05-09T07:20:36.978Z</time>
      </trkpt>
      <trkpt lat="52.186864" lon="6.812781">
        <ele>73.997761</ele>
        <time>2026-05-09T07:20:38.973Z</time>
      </trkpt>
      <trkpt lat="52.186793" lon="6.812629">
        <ele>73.970961</ele>
        <time>2026-05-09T07:20:40.970Z</time>
      </trkpt>
      <trkpt lat="52.186720" lon="6.812475">
        <ele>73.943661</ele>
        <time>2026-05-09T07:20:42.970Z</time>
      </trkpt>
      <trkpt lat="52.186644" lon="6.812317">
        <ele>73.915496</ele>
        <time>2026-05-09T07:20:44.970Z</time>
      </trkpt>
      <trkpt lat="52.186571" lon="6.812162">
        <ele>73.901993</ele>
        <time>2026-05-09T07:20:46.975Z</time>
      </trkpt>
      <trkpt lat="52.186499" lon="6.812008">
        <ele>73.921926</ele>
        <time>2026-05-09T07:20:48.978Z</time>
      </trkpt>
      <trkpt lat="52.186428" lon="6.811853">
        <ele>73.941840</ele>
        <time>2026-05-09T07:20:50.975Z</time>
      </trkpt>
      <trkpt lat="52.186354" lon="6.811697">
        <ele>73.962141</ele>
        <time>2026-05-09T07:20:52.975Z</time>
      </trkpt>
      <trkpt lat="52.186280" lon="6.811544">
        <ele>73.982199</ele>
        <time>2026-05-09T07:20:54.972Z</time>
      </trkpt>
      <trkpt lat="52.186206" lon="6.811389">
        <ele>74.002418</ele>
        <time>2026-05-09T07:20:56.972Z</time>
      </trkpt>
      <trkpt lat="52.186137" lon="6.811244">
        <ele>74.021310</ele>
        <time>2026-05-09T07:20:58.982Z</time>
      </trkpt>
      <trkpt lat="52.186067" lon="6.811097">
        <ele>74.040467</ele>
        <time>2026-05-09T07:21:00.981Z</time>
      </trkpt>
      <trkpt lat="52.185996" lon="6.810951">
        <ele>74.059648</ele>
        <time>2026-05-09T07:21:02.974Z</time>
      </trkpt>
      <trkpt lat="52.185927" lon="6.810803">
        <ele>74.078784</ele>
        <time>2026-05-09T07:21:04.982Z</time>
      </trkpt>
      <trkpt lat="52.185853" lon="6.810653">
        <ele>74.098600</ele>
        <time>2026-05-09T07:21:06.972Z</time>
      </trkpt>
      <trkpt lat="52.185781" lon="6.810497">
        <ele>74.118698</ele>
        <time>2026-05-09T07:21:08.975Z</time>
      </trkpt>
      <trkpt lat="52.185707" lon="6.810342">
        <ele>74.138917</ele>
        <time>2026-05-09T07:21:10.973Z</time>
      </trkpt>
      <trkpt lat="52.185634" lon="6.810184">
        <ele>74.159280</ele>
        <time>2026-05-09T07:21:12.972Z</time>
      </trkpt>
      <trkpt lat="52.185563" lon="6.810030">
        <ele>74.179112</ele>
        <time>2026-05-09T07:21:14.979Z</time>
      </trkpt>
      <trkpt lat="52.185496" lon="6.809887">
        <ele>74.197636</ele>
        <time>2026-05-09T07:21:16.974Z</time>
      </trkpt>
      <trkpt lat="52.185420" lon="6.809739">
        <ele>74.199449</ele>
        <time>2026-05-09T07:21:18.972Z</time>
      </trkpt>
      <trkpt lat="52.185349" lon="6.809586">
        <ele>74.200864</ele>
        <time>2026-05-09T07:21:20.979Z</time>
      </trkpt>
      <trkpt lat="52.185276" lon="6.809438">
        <ele>74.202266</ele>
        <time>2026-05-09T07:21:22.973Z</time>
      </trkpt>
      <trkpt lat="52.185206" lon="6.809289">
        <ele>74.203651</ele>
        <time>2026-05-09T07:21:24.973Z</time>
      </trkpt>
      <trkpt lat="52.185137" lon="6.809140">
        <ele>74.205028</ele>
        <time>2026-05-09T07:21:26.972Z</time>
      </trkpt>
      <trkpt lat="52.185066" lon="6.808990">
        <ele>74.206426</ele>
        <time>2026-05-09T07:21:28.979Z</time>
      </trkpt>
      <trkpt lat="52.184994" lon="6.808835">
        <ele>74.207861</ele>
        <time>2026-05-09T07:21:30.977Z</time>
      </trkpt>
      <trkpt lat="52.184921" lon="6.808680">
        <ele>74.209303</ele>
        <time>2026-05-09T07:21:32.980Z</time>
      </trkpt>
      <trkpt lat="52.184847" lon="6.808531">
        <ele>74.210717</ele>
        <time>2026-05-09T07:21:34.979Z</time>
      </trkpt>
      <trkpt lat="52.184774" lon="6.808387">
        <ele>74.212096</ele>
        <time>2026-05-09T07:21:36.979Z</time>
      </trkpt>
      <trkpt lat="52.184704" lon="6.808238">
        <ele>74.213480</ele>
        <time>2026-05-09T07:21:38.978Z</time>
      </trkpt>
      <trkpt lat="52.184633" lon="6.808088">
        <ele>74.214878</ele>
        <time>2026-05-09T07:21:40.977Z</time>
      </trkpt>
      <trkpt lat="52.184567" lon="6.807943">
        <ele>74.216211</ele>
        <time>2026-05-09T07:21:42.976Z</time>
      </trkpt>
      <trkpt lat="52.184502" lon="6.807802">
        <ele>74.217512</ele>
        <time>2026-05-09T07:21:44.974Z</time>
      </trkpt>
      <trkpt lat="52.184432" lon="6.807655">
        <ele>74.218885</ele>
        <time>2026-05-09T07:21:46.976Z</time>
      </trkpt>
      <trkpt lat="52.184365" lon="6.807511">
        <ele>74.206041</ele>
        <time>2026-05-09T07:21:48.973Z</time>
      </trkpt>
      <trkpt lat="52.184299" lon="6.807367">
        <ele>74.171346</ele>
        <time>2026-05-09T07:21:50.977Z</time>
      </trkpt>
      <trkpt lat="52.184231" lon="6.807216">
        <ele>74.135191</ele>
        <time>2026-05-09T07:21:52.977Z</time>
      </trkpt>
      <trkpt lat="52.184162" lon="6.807071">
        <ele>74.099771</ele>
        <time>2026-05-09T07:21:54.978Z</time>
      </trkpt>
      <trkpt lat="52.184090" lon="6.806920">
        <ele>74.062856</ele>
        <time>2026-05-09T07:21:56.982Z</time>
      </trkpt>
      <trkpt lat="52.184017" lon="6.806773">
        <ele>74.026351</ele>
        <time>2026-05-09T07:21:58.972Z</time>
      </trkpt>
      <trkpt lat="52.183951" lon="6.806629">
        <ele>73.991656</ele>
        <time>2026-05-09T07:22:00.982Z</time>
      </trkpt>
      <trkpt lat="52.183885" lon="6.806485">
        <ele>73.956960</ele>
        <time>2026-05-09T07:22:02.975Z</time>
      </trkpt>
      <trkpt lat="52.183814" lon="6.806335">
        <ele>73.920391</ele>
        <time>2026-05-09T07:22:04.977Z</time>
      </trkpt>
      <trkpt lat="52.183739" lon="6.806188">
        <ele>73.883486</ele>
        <time>2026-05-09T07:22:06.980Z</time>
      </trkpt>
      <trkpt lat="52.183665" lon="6.806036">
        <ele>73.846031</ele>
        <time>2026-05-09T07:22:08.976Z</time>
      </trkpt>
      <trkpt lat="52.183590" lon="6.805884">
        <ele>73.808379</ele>
        <time>2026-05-09T07:22:10.974Z</time>
      </trkpt>
      <trkpt lat="52.183521" lon="6.805720">
        <ele>73.769995</ele>
        <time>2026-05-09T07:22:12.979Z</time>
      </trkpt>
      <trkpt lat="52.183450" lon="6.805556">
        <ele>73.731252</ele>
        <time>2026-05-09T07:22:14.974Z</time>
      </trkpt>
      <trkpt lat="52.183389" lon="6.805398">
        <ele>73.695220</ele>
        <time>2026-05-09T07:22:16.973Z</time>
      </trkpt>
      <trkpt lat="52.183331" lon="6.805240">
        <ele>73.659682</ele>
        <time>2026-05-09T07:22:18.975Z</time>
      </trkpt>
      <trkpt lat="52.183275" lon="6.805080">
        <ele>73.636644</ele>
        <time>2026-05-09T07:22:20.974Z</time>
      </trkpt>
      <trkpt lat="52.183221" lon="6.804908">
        <ele>73.615199</ele>
        <time>2026-05-09T07:22:22.972Z</time>
      </trkpt>
      <trkpt lat="52.183172" lon="6.804734">
        <ele>73.593950</ele>
        <time>2026-05-09T07:22:24.975Z</time>
      </trkpt>
      <trkpt lat="52.183132" lon="6.804559">
        <ele>73.573223</ele>
        <time>2026-05-09T07:22:26.971Z</time>
      </trkpt>
      <trkpt lat="52.183095" lon="6.804381">
        <ele>73.552364</ele>
        <time>2026-05-09T07:22:28.974Z</time>
      </trkpt>
      <trkpt lat="52.183062" lon="6.804200">
        <ele>73.531407</ele>
        <time>2026-05-09T07:22:30.981Z</time>
      </trkpt>
      <trkpt lat="52.183028" lon="6.804015">
        <ele>73.509974</ele>
        <time>2026-05-09T07:22:32.971Z</time>
      </trkpt>
      <trkpt lat="52.182999" lon="6.803820">
        <ele>73.487705</ele>
        <time>2026-05-09T07:22:34.977Z</time>
      </trkpt>
      <trkpt lat="52.182973" lon="6.803634">
        <ele>73.466533</ele>
        <time>2026-05-09T07:22:36.980Z</time>
      </trkpt>
      <trkpt lat="52.182945" lon="6.803453">
        <ele>73.445817</ele>
        <time>2026-05-09T07:22:38.973Z</time>
      </trkpt>
      <trkpt lat="52.182918" lon="6.803276">
        <ele>73.425574</ele>
        <time>2026-05-09T07:22:40.979Z</time>
      </trkpt>
      <trkpt lat="52.182886" lon="6.803095">
        <ele>73.404669</ele>
        <time>2026-05-09T07:22:42.970Z</time>
      </trkpt>
      <trkpt lat="52.182856" lon="6.802916">
        <ele>73.384075</ele>
        <time>2026-05-09T07:22:44.978Z</time>
      </trkpt>
      <trkpt lat="52.182822" lon="6.802740">
        <ele>73.363596</ele>
        <time>2026-05-09T07:22:46.972Z</time>
      </trkpt>
      <trkpt lat="52.182778" lon="6.802559">
        <ele>73.341987</ele>
        <time>2026-05-09T07:22:48.981Z</time>
      </trkpt>
      <trkpt lat="52.182733" lon="6.802369">
        <ele>73.347919</ele>
        <time>2026-05-09T07:22:50.972Z</time>
      </trkpt>
      <trkpt lat="52.182680" lon="6.802187">
        <ele>73.399381</ele>
        <time>2026-05-09T07:22:52.977Z</time>
      </trkpt>
      <trkpt lat="52.182624" lon="6.802016">
        <ele>73.448896</ele>
        <time>2026-05-09T07:22:54.977Z</time>
      </trkpt>
      <trkpt lat="52.182563" lon="6.801849">
        <ele>73.498546</ele>
        <time>2026-05-09T07:22:56.971Z</time>
      </trkpt>
      <trkpt lat="52.182496" lon="6.801682">
        <ele>73.549520</ele>
        <time>2026-05-09T07:22:58.975Z</time>
      </trkpt>
      <trkpt lat="52.182430" lon="6.801526">
        <ele>73.597930</ele>
        <time>2026-05-09T07:23:00.976Z</time>
      </trkpt>
      <trkpt lat="52.182364" lon="6.801383">
        <ele>73.643645</ele>
        <time>2026-05-09T07:23:02.971Z</time>
      </trkpt>
      <trkpt lat="52.182300" lon="6.801237">
        <ele>73.689486</ele>
        <time>2026-05-09T07:23:04.976Z</time>
      </trkpt>
      <trkpt lat="52.182235" lon="6.801079">
        <ele>73.738084</ele>
        <time>2026-05-09T07:23:06.976Z</time>
      </trkpt>
      <trkpt lat="52.182163" lon="6.800922">
        <ele>73.788160</ele>
        <time>2026-05-09T07:23:08.971Z</time>
      </trkpt>
      <trkpt lat="52.182091" lon="6.800770">
        <ele>73.837219</ele>
        <time>2026-05-09T07:23:10.974Z</time>
      </trkpt>
      <trkpt lat="52.182017" lon="6.800617">
        <ele>73.886992</ele>
        <time>2026-05-09T07:23:12.973Z</time>
      </trkpt>
      <trkpt lat="52.181950" lon="6.800467">
        <ele>73.934393</ele>
        <time>2026-05-09T07:23:14.979Z</time>
      </trkpt>
      <trkpt lat="52.181881" lon="6.800314">
        <ele>73.982904</ele>
        <time>2026-05-09T07:23:16.982Z</time>
      </trkpt>
      <trkpt lat="52.181810" lon="6.800157">
        <ele>74.032732</ele>
        <time>2026-05-09T07:23:18.978Z</time>
      </trkpt>
      <trkpt lat="52.181737" lon="6.800009">
        <ele>74.075019</ele>
        <time>2026-05-09T07:23:20.979Z</time>
      </trkpt>
      <trkpt lat="52.181669" lon="6.799856">
        <ele>74.047586</ele>
        <time>2026-05-09T07:23:22.981Z</time>
      </trkpt>
      <trkpt lat="52.181599" lon="6.799703">
        <ele>74.019872</ele>
        <time>2026-05-09T07:23:24.980Z</time>
      </trkpt>
      <trkpt lat="52.181536" lon="6.799538">
        <ele>73.991653</ele>
        <time>2026-05-09T07:23:26.980Z</time>
      </trkpt>
      <trkpt lat="52.181476" lon="6.799366">
        <ele>73.962925</ele>
        <time>2026-05-09T07:23:28.979Z</time>
      </trkpt>
      <trkpt lat="52.181405" lon="6.799210">
        <ele>73.934720</ele>
        <time>2026-05-09T07:23:30.980Z</time>
      </trkpt>
      <trkpt lat="52.181336" lon="6.799062">
        <ele>73.907729</ele>
        <time>2026-05-09T07:23:32.981Z</time>
      </trkpt>
      <trkpt lat="52.181271" lon="6.798909">
        <ele>73.880706</ele>
        <time>2026-05-09T07:23:34.982Z</time>
      </trkpt>
      <trkpt lat="52.181195" lon="6.798763">
        <ele>73.852902</ele>
        <time>2026-05-09T07:23:36.976Z</time>
      </trkpt>
      <trkpt lat="52.181121" lon="6.798615">
        <ele>73.825178</ele>
        <time>2026-05-09T07:23:38.979Z</time>
      </trkpt>
      <trkpt lat="52.181041" lon="6.798477">
        <ele>73.797607</ele>
        <time>2026-05-09T07:23:40.979Z</time>
      </trkpt>
      <trkpt lat="52.180959" lon="6.798340">
        <ele>73.769812</ele>
        <time>2026-05-09T07:23:42.979Z</time>
      </trkpt>
      <trkpt lat="52.180888" lon="6.798186">
        <ele>73.741840</ele>
        <time>2026-05-09T07:23:44.974Z</time>
      </trkpt>
      <trkpt lat="52.180819" lon="6.798043">
        <ele>73.715422</ele>
        <time>2026-05-09T07:23:46.976Z</time>
      </trkpt>
      <trkpt lat="52.180752" lon="6.797892">
        <ele>73.688363</ele>
        <time>2026-05-09T07:23:48.978Z</time>
      </trkpt>
      <trkpt lat="52.180683" lon="6.797739">
        <ele>73.660789</ele>
        <time>2026-05-09T07:23:50.979Z</time>
      </trkpt>
      <trkpt lat="52.180636" lon="6.797572">
        <ele>73.699651</ele>
        <time>2026-05-09T07:23:52.978Z</time>
      </trkpt>
      <trkpt lat="52.180584" lon="6.797396">
        <ele>73.778710</ele>
        <time>2026-05-09T07:23:54.974Z</time>
      </trkpt>
      <trkpt lat="52.180517" lon="6.797242">
        <ele>73.855123</ele>
        <time>2026-05-09T07:23:56.978Z</time>
      </trkpt>
      <trkpt lat="52.180446" lon="6.797102">
        <ele>73.928644</ele>
        <time>2026-05-09T07:23:58.977Z</time>
      </trkpt>
      <trkpt lat="52.180375" lon="6.796951">
        <ele>74.005647</ele>
        <time>2026-05-09T07:24:00.975Z</time>
      </trkpt>
      <trkpt lat="52.180299" lon="6.796801">
        <ele>74.084389</ele>
        <time>2026-05-09T07:24:02.977Z</time>
      </trkpt>
      <trkpt lat="52.180225" lon="6.796647">
        <ele>74.163565</ele>
        <time>2026-05-09T07:24:04.982Z</time>
      </trkpt>
      <trkpt lat="52.180152" lon="6.796496">
        <ele>74.241379</ele>
        <time>2026-05-09T07:24:06.982Z</time>
      </trkpt>
      <trkpt lat="52.180080" lon="6.796341">
        <ele>74.320070</ele>
        <time>2026-05-09T07:24:08.975Z</time>
      </trkpt>
      <trkpt lat="52.180008" lon="6.796190">
        <ele>74.397477</ele>
        <time>2026-05-09T07:24:10.969Z</time>
      </trkpt>
      <trkpt lat="52.179938" lon="6.796040">
        <ele>74.473758</ele>
        <time>2026-05-09T07:24:12.975Z</time>
      </trkpt>
      <trkpt lat="52.179872" lon="6.795886">
        <ele>74.549792</ele>
        <time>2026-05-09T07:24:14.975Z</time>
      </trkpt>
      <trkpt lat="52.179800" lon="6.795734">
        <ele>74.627519</ele>
        <time>2026-05-09T07:24:16.970Z</time>
      </trkpt>
      <trkpt lat="52.179727" lon="6.795577">
        <ele>74.707254</ele>
        <time>2026-05-09T07:24:18.977Z</time>
      </trkpt>
      <trkpt lat="52.179638" lon="6.795450">
        <ele>74.785301</ele>
        <time>2026-05-09T07:24:20.974Z</time>
      </trkpt>
      <trkpt lat="52.179560" lon="6.795324">
        <ele>74.812906</ele>
        <time>2026-05-09T07:24:22.976Z</time>
      </trkpt>
      <trkpt lat="52.179492" lon="6.795176">
        <ele>74.713871</ele>
        <time>2026-05-09T07:24:24.977Z</time>
      </trkpt>
      <trkpt lat="52.179420" lon="6.795019">
        <ele>74.608885</ele>
        <time>2026-05-09T07:24:26.974Z</time>
      </trkpt>
      <trkpt lat="52.179349" lon="6.794869">
        <ele>74.507411</ele>
        <time>2026-05-09T07:24:28.983Z</time>
      </trkpt>
      <trkpt lat="52.179282" lon="6.794718">
        <ele>74.407601</ele>
        <time>2026-05-09T07:24:30.974Z</time>
      </trkpt>
      <trkpt lat="52.179212" lon="6.794567">
        <ele>74.306232</ele>
        <time>2026-05-09T07:24:32.975Z</time>
      </trkpt>
      <trkpt lat="52.179138" lon="6.794416">
        <ele>74.202718</ele>
        <time>2026-05-09T07:24:34.973Z</time>
      </trkpt>
      <trkpt lat="52.179070" lon="6.794270">
        <ele>74.104538</ele>
        <time>2026-05-09T07:24:36.971Z</time>
      </trkpt>
      <trkpt lat="52.179005" lon="6.794129">
        <ele>74.010074</ele>
        <time>2026-05-09T07:24:38.972Z</time>
      </trkpt>
      <trkpt lat="52.178940" lon="6.793987">
        <ele>73.915180</ele>
        <time>2026-05-09T07:24:40.979Z</time>
      </trkpt>
      <trkpt lat="52.178874" lon="6.793841">
        <ele>73.818046</ele>
        <time>2026-05-09T07:24:42.974Z</time>
      </trkpt>
      <trkpt lat="52.178803" lon="6.793687">
        <ele>73.714868</ele>
        <time>2026-05-09T07:24:44.973Z</time>
      </trkpt>
      <trkpt lat="52.178736" lon="6.793535">
        <ele>73.614622</ele>
        <time>2026-05-09T07:24:46.972Z</time>
      </trkpt>
      <trkpt lat="52.178666" lon="6.793386">
        <ele>73.514105</ele>
        <time>2026-05-09T07:24:48.972Z</time>
      </trkpt>
      <trkpt lat="52.178597" lon="6.793239">
        <ele>73.414969</ele>
        <time>2026-05-09T07:24:50.976Z</time>
      </trkpt>
      <trkpt lat="52.178527" lon="6.793088">
        <ele>73.313599</ele>
        <time>2026-05-09T07:24:52.972Z</time>
      </trkpt>
      <trkpt lat="52.178453" lon="6.792938">
        <ele>73.251392</ele>
        <time>2026-05-09T07:24:54.975Z</time>
      </trkpt>
      <trkpt lat="52.178386" lon="6.792790">
        <ele>73.223328</ele>
        <time>2026-05-09T07:24:56.971Z</time>
      </trkpt>
      <trkpt lat="52.178319" lon="6.792644">
        <ele>73.195508</ele>
        <time>2026-05-09T07:24:58.974Z</time>
      </trkpt>
      <trkpt lat="52.178249" lon="6.792497">
        <ele>73.167115</ele>
        <time>2026-05-09T07:25:00.977Z</time>
      </trkpt>
      <trkpt lat="52.178180" lon="6.792345">
        <ele>73.138264</ele>
        <time>2026-05-09T07:25:02.975Z</time>
      </trkpt>
      <trkpt lat="52.178115" lon="6.792197">
        <ele>73.110492</ele>
        <time>2026-05-09T07:25:04.975Z</time>
      </trkpt>
      <trkpt lat="52.178049" lon="6.792051">
        <ele>73.082821</ele>
        <time>2026-05-09T07:25:06.976Z</time>
      </trkpt>
      <trkpt lat="52.177981" lon="6.791902">
        <ele>73.054486</ele>
        <time>2026-05-09T07:25:08.976Z</time>
      </trkpt>
      <trkpt lat="52.177915" lon="6.791761">
        <ele>73.027425</ele>
        <time>2026-05-09T07:25:10.972Z</time>
      </trkpt>
      <trkpt lat="52.177847" lon="6.791612">
        <ele>72.999090</ele>
        <time>2026-05-09T07:25:12.968Z</time>
      </trkpt>
      <trkpt lat="52.177777" lon="6.791466">
        <ele>72.970817</ele>
        <time>2026-05-09T07:25:14.975Z</time>
      </trkpt>
      <trkpt lat="52.177711" lon="6.791325">
        <ele>72.943755</ele>
        <time>2026-05-09T07:25:16.982Z</time>
      </trkpt>
      <trkpt lat="52.177645" lon="6.791177">
        <ele>72.915838</ele>
        <time>2026-05-09T07:25:18.973Z</time>
      </trkpt>
      <trkpt lat="52.177577" lon="6.791029">
        <ele>72.887625</ele>
        <time>2026-05-09T07:25:20.972Z</time>
      </trkpt>
      <trkpt lat="52.177502" lon="6.790878">
        <ele>72.857980</ele>
        <time>2026-05-09T07:25:22.971Z</time>
      </trkpt>
      <trkpt lat="52.177432" lon="6.790730">
        <ele>72.829466</ele>
        <time>2026-05-09T07:25:24.971Z</time>
      </trkpt>
      <trkpt lat="52.177368" lon="6.790589">
        <ele>72.867517</ele>
        <time>2026-05-09T07:25:26.973Z</time>
      </trkpt>
      <trkpt lat="52.177305" lon="6.790444">
        <ele>72.940774</ele>
        <time>2026-05-09T07:25:28.977Z</time>
      </trkpt>
      <trkpt lat="52.177238" lon="6.790300">
        <ele>73.015290</ele>
        <time>2026-05-09T07:25:30.977Z</time>
      </trkpt>
      <trkpt lat="52.177169" lon="6.790158">
        <ele>73.089979</ele>
        <time>2026-05-09T07:25:32.973Z</time>
      </trkpt>
      <trkpt lat="52.177099" lon="6.790009">
        <ele>73.167357</ele>
        <time>2026-05-09T07:25:34.970Z</time>
      </trkpt>
      <trkpt lat="52.177031" lon="6.789864">
        <ele>73.242608</ele>
        <time>2026-05-09T07:25:36.971Z</time>
      </trkpt>
      <trkpt lat="52.176964" lon="6.789713">
        <ele>73.319443</ele>
        <time>2026-05-09T07:25:38.977Z</time>
      </trkpt>
      <trkpt lat="52.176894" lon="6.789563">
        <ele>73.397149</ele>
        <time>2026-05-09T07:25:40.979Z</time>
      </trkpt>
      <trkpt lat="52.176826" lon="6.789414">
        <ele>73.473717</ele>
        <time>2026-05-09T07:25:42.977Z</time>
      </trkpt>
      <trkpt lat="52.176758" lon="6.789265">
        <ele>73.550285</ele>
        <time>2026-05-09T07:25:44.976Z</time>
      </trkpt>
      <trkpt lat="52.176688" lon="6.789116">
        <ele>73.627663</ele>
        <time>2026-05-09T07:25:46.974Z</time>
      </trkpt>
      <trkpt lat="52.176619" lon="6.788972">
        <ele>73.703000</ele>
        <time>2026-05-09T07:25:48.971Z</time>
      </trkpt>
      <trkpt lat="52.176556" lon="6.788830">
        <ele>73.775253</ele>
        <time>2026-05-09T07:25:50.976Z</time>
      </trkpt>
      <trkpt lat="52.176491" lon="6.788695">
        <ele>73.846011</ele>
        <time>2026-05-09T07:25:52.977Z</time>
      </trkpt>
      <trkpt lat="52.176428" lon="6.788555">
        <ele>73.917598</ele>
        <time>2026-05-09T07:25:54.985Z</time>
      </trkpt>
      <trkpt lat="52.176365" lon="6.788411">
        <ele>73.990521</ele>
        <time>2026-05-09T07:25:56.975Z</time>
      </trkpt>
      <trkpt lat="52.176295" lon="6.788268">
        <ele>74.029148</ele>
        <time>2026-05-09T07:25:58.973Z</time>
      </trkpt>
      <trkpt lat="52.176225" lon="6.788122">
        <ele>74.028713</ele>
        <time>2026-05-09T07:26:00.974Z</time>
      </trkpt>
      <trkpt lat="52.176154" lon="6.787975">
        <ele>74.028273</ele>
        <time>2026-05-09T07:26:02.975Z</time>
      </trkpt>
      <trkpt lat="52.176091" lon="6.787835">
        <ele>74.027865</ele>
        <time>2026-05-09T07:26:04.972Z</time>
      </trkpt>
      <trkpt lat="52.176028" lon="6.787686">
        <ele>74.027440</ele>
        <time>2026-05-09T07:26:06.974Z</time>
      </trkpt>
      <trkpt lat="52.175963" lon="6.787534">
        <ele>74.027005</ele>
        <time>2026-05-09T07:26:08.974Z</time>
      </trkpt>
      <trkpt lat="52.175894" lon="6.787381">
        <ele>74.026559</ele>
        <time>2026-05-09T07:26:10.974Z</time>
      </trkpt>
      <trkpt lat="52.175826" lon="6.787239">
        <ele>74.026136</ele>
        <time>2026-05-09T07:26:12.971Z</time>
      </trkpt>
      <trkpt lat="52.175761" lon="6.787085">
        <ele>74.025697</ele>
        <time>2026-05-09T07:26:14.972Z</time>
      </trkpt>
      <trkpt lat="52.175695" lon="6.786940">
        <ele>74.025272</ele>
        <time>2026-05-09T07:26:16.971Z</time>
      </trkpt>
      <trkpt lat="52.175628" lon="6.786791">
        <ele>74.024838</ele>
        <time>2026-05-09T07:26:18.979Z</time>
      </trkpt>
      <trkpt lat="52.175559" lon="6.786640">
        <ele>74.024396</ele>
        <time>2026-05-09T07:26:20.980Z</time>
      </trkpt>
      <trkpt lat="52.175488" lon="6.786484">
        <ele>74.023940</ele>
        <time>2026-05-09T07:26:22.972Z</time>
      </trkpt>
      <trkpt lat="52.175420" lon="6.786327">
        <ele>74.023488</ele>
        <time>2026-05-09T07:26:24.973Z</time>
      </trkpt>
      <trkpt lat="52.175351" lon="6.786184">
        <ele>74.023061</ele>
        <time>2026-05-09T07:26:26.977Z</time>
      </trkpt>
      <trkpt lat="52.175280" lon="6.786039">
        <ele>74.022625</ele>
        <time>2026-05-09T07:26:28.978Z</time>
      </trkpt>
      <trkpt lat="52.175208" lon="6.785900">
        <ele>74.041789</ele>
        <time>2026-05-09T07:26:30.972Z</time>
      </trkpt>
      <trkpt lat="52.175136" lon="6.785749">
        <ele>74.073991</ele>
        <time>2026-05-09T07:26:32.976Z</time>
      </trkpt>
      <trkpt lat="52.175063" lon="6.785605">
        <ele>74.105445</ele>
        <time>2026-05-09T07:26:34.971Z</time>
      </trkpt>
      <trkpt lat="52.174989" lon="6.785453">
        <ele>74.138119</ele>
        <time>2026-05-09T07:26:36.976Z</time>
      </trkpt>
      <trkpt lat="52.174919" lon="6.785310">
        <ele>74.168923</ele>
        <time>2026-05-09T07:26:38.975Z</time>
      </trkpt>
      <trkpt lat="52.174846" lon="6.785174">
        <ele>74.199351</ele>
        <time>2026-05-09T07:26:40.984Z</time>
      </trkpt>
      <trkpt lat="52.174771" lon="6.785031">
        <ele>74.231030</ele>
        <time>2026-05-09T07:26:42.975Z</time>
      </trkpt>
      <trkpt lat="52.174699" lon="6.784887">
        <ele>74.262310</ele>
        <time>2026-05-09T07:26:44.977Z</time>
      </trkpt>
      <trkpt lat="52.174628" lon="6.784739">
        <ele>74.293945</ele>
        <time>2026-05-09T07:26:46.971Z</time>
      </trkpt>
      <trkpt lat="52.174558" lon="6.784589">
        <ele>74.325678</ele>
        <time>2026-05-09T07:26:48.973Z</time>
      </trkpt>
      <trkpt lat="52.174487" lon="6.784441">
        <ele>74.357314</ele>
        <time>2026-05-09T07:26:50.974Z</time>
      </trkpt>
      <trkpt lat="52.174419" lon="6.784304">
        <ele>74.386987</ele>
        <time>2026-05-09T07:26:52.968Z</time>
      </trkpt>
      <trkpt lat="52.174346" lon="6.784169">
        <ele>74.417288</ele>
        <time>2026-05-09T07:26:54.976Z</time>
      </trkpt>
      <trkpt lat="52.174266" lon="6.784035">
        <ele>74.448773</ele>
        <time>2026-05-09T07:26:56.973Z</time>
      </trkpt>
      <trkpt lat="52.174191" lon="6.783899">
        <ele>74.479566</ele>
        <time>2026-05-09T07:26:58.977Z</time>
      </trkpt>
      <trkpt lat="52.174122" lon="6.783753">
        <ele>74.510599</ele>
        <time>2026-05-09T07:27:00.981Z</time>
      </trkpt>
      <trkpt lat="52.174052" lon="6.783605">
        <ele>74.540080</ele>
        <time>2026-05-09T07:27:02.980Z</time>
      </trkpt>
      <trkpt lat="52.173984" lon="6.783455">
        <ele>74.569069</ele>
        <time>2026-05-09T07:27:04.972Z</time>
      </trkpt>
      <trkpt lat="52.173914" lon="6.783300">
        <ele>74.598984</ele>
        <time>2026-05-09T07:27:06.972Z</time>
      </trkpt>
      <trkpt lat="52.173852" lon="6.783147">
        <ele>74.627484</ele>
        <time>2026-05-09T07:27:08.980Z</time>
      </trkpt>
      <trkpt lat="52.173791" lon="6.782989">
        <ele>74.656500</ele>
        <time>2026-05-09T07:27:10.973Z</time>
      </trkpt>
      <trkpt lat="52.173724" lon="6.782833">
        <ele>74.686098</ele>
        <time>2026-05-09T07:27:12.972Z</time>
      </trkpt>
      <trkpt lat="52.173653" lon="6.782678">
        <ele>74.716165</ele>
        <time>2026-05-09T07:27:14.974Z</time>
      </trkpt>
      <trkpt lat="52.173587" lon="6.782530">
        <ele>74.744604</ele>
        <time>2026-05-09T07:27:16.971Z</time>
      </trkpt>
      <trkpt lat="52.173520" lon="6.782379">
        <ele>74.773569</ele>
        <time>2026-05-09T07:27:18.976Z</time>
      </trkpt>
      <trkpt lat="52.173451" lon="6.782229">
        <ele>74.802710</ele>
        <time>2026-05-09T07:27:20.975Z</time>
      </trkpt>
      <trkpt lat="52.173378" lon="6.782081">
        <ele>74.832227</ele>
        <time>2026-05-09T07:27:22.973Z</time>
      </trkpt>
      <trkpt lat="52.173306" lon="6.781919">
        <ele>74.863320</ele>
        <time>2026-05-09T07:27:24.973Z</time>
      </trkpt>
      <trkpt lat="52.173242" lon="6.781753">
        <ele>74.893793</ele>
        <time>2026-05-09T07:27:26.974Z</time>
      </trkpt>
      <trkpt lat="52.173190" lon="6.781598">
        <ele>74.921251</ele>
        <time>2026-05-09T07:27:28.976Z</time>
      </trkpt>
      <trkpt lat="52.173119" lon="6.781445">
        <ele>74.951069</ele>
        <time>2026-05-09T07:27:30.978Z</time>
      </trkpt>
      <trkpt lat="52.173045" lon="6.781297">
        <ele>74.958730</ele>
        <time>2026-05-09T07:27:32.978Z</time>
      </trkpt>
      <trkpt lat="52.172978" lon="6.781148">
        <ele>74.914751</ele>
        <time>2026-05-09T07:27:34.973Z</time>
      </trkpt>
      <trkpt lat="52.172914" lon="6.781011">
        <ele>74.873757</ele>
        <time>2026-05-09T07:27:36.977Z</time>
      </trkpt>
      <trkpt lat="52.172848" lon="6.780868">
        <ele>74.831155</ele>
        <time>2026-05-09T07:27:38.977Z</time>
      </trkpt>
      <trkpt lat="52.172782" lon="6.780724">
        <ele>74.788363</ele>
        <time>2026-05-09T07:27:40.976Z</time>
      </trkpt>
      <trkpt lat="52.172715" lon="6.780568">
        <ele>74.743029</ele>
        <time>2026-05-09T07:27:42.974Z</time>
      </trkpt>
      <trkpt lat="52.172644" lon="6.780416">
        <ele>74.697548</ele>
        <time>2026-05-09T07:27:44.971Z</time>
      </trkpt>
      <trkpt lat="52.172572" lon="6.780265">
        <ele>74.652019</ele>
        <time>2026-05-09T07:27:46.976Z</time>
      </trkpt>
      <trkpt lat="52.172503" lon="6.780111">
        <ele>74.606620</ele>
        <time>2026-05-09T07:27:48.971Z</time>
      </trkpt>
      <trkpt lat="52.172432" lon="6.779961">
        <ele>74.561516</ele>
        <time>2026-05-09T07:27:50.975Z</time>
      </trkpt>
      <trkpt lat="52.172363" lon="6.779808">
        <ele>74.516310</ele>
        <time>2026-05-09T07:27:52.974Z</time>
      </trkpt>
      <trkpt lat="52.172293" lon="6.779663">
        <ele>74.472383</ele>
        <time>2026-05-09T07:27:54.974Z</time>
      </trkpt>
      <trkpt lat="52.172225" lon="6.779517">
        <ele>74.428744</ele>
        <time>2026-05-09T07:27:56.973Z</time>
      </trkpt>
      <trkpt lat="52.172158" lon="6.779364">
        <ele>74.383992</ele>
        <time>2026-05-09T07:27:58.971Z</time>
      </trkpt>
      <trkpt lat="52.172099" lon="6.779199">
        <ele>74.338527</ele>
        <time>2026-05-09T07:28:00.974Z</time>
      </trkpt>
      <trkpt lat="52.172032" lon="6.779046">
        <ele>74.293776</ele>
        <time>2026-05-09T07:28:02.973Z</time>
      </trkpt>
      <trkpt lat="52.171961" lon="6.778894">
        <ele>74.311971</ele>
        <time>2026-05-09T07:28:04.974Z</time>
      </trkpt>
      <trkpt lat="52.171889" lon="6.778748">
        <ele>74.378137</ele>
        <time>2026-05-09T07:28:06.976Z</time>
      </trkpt>
      <trkpt lat="52.171810" lon="6.778619">
        <ele>74.442521</ele>
        <time>2026-05-09T07:28:08.973Z</time>
      </trkpt>
      <trkpt lat="52.171737" lon="6.778483">
        <ele>74.506351</ele>
        <time>2026-05-09T07:28:10.973Z</time>
      </trkpt>
      <trkpt lat="52.171671" lon="6.778341">
        <ele>74.569277</ele>
        <time>2026-05-09T07:28:12.980Z</time>
      </trkpt>
      <trkpt lat="52.171609" lon="6.778204">
        <ele>74.629410</ele>
        <time>2026-05-09T07:28:14.974Z</time>
      </trkpt>
      <trkpt lat="52.171542" lon="6.778063">
        <ele>74.692406</ele>
        <time>2026-05-09T07:28:16.980Z</time>
      </trkpt>
      <trkpt lat="52.171472" lon="6.777917">
        <ele>74.757856</ele>
        <time>2026-05-09T07:28:18.978Z</time>
      </trkpt>
      <trkpt lat="52.171405" lon="6.777768">
        <ele>74.823109</ele>
        <time>2026-05-09T07:28:20.985Z</time>
      </trkpt>
      <trkpt lat="52.171332" lon="6.777617">
        <ele>74.891016</ele>
        <time>2026-05-09T07:28:22.977Z</time>
      </trkpt>
      <trkpt lat="52.171260" lon="6.777466">
        <ele>74.958567</ele>
        <time>2026-05-09T07:28:24.976Z</time>
      </trkpt>
      <trkpt lat="52.171191" lon="6.777318">
        <ele>75.024226</ele>
        <time>2026-05-09T07:28:26.975Z</time>
      </trkpt>
      <trkpt lat="52.171124" lon="6.777168">
        <ele>75.089764</ele>
        <time>2026-05-09T07:28:28.976Z</time>
      </trkpt>
      <trkpt lat="52.171054" lon="6.777020">
        <ele>75.155773</ele>
        <time>2026-05-09T07:28:30.976Z</time>
      </trkpt>
      <trkpt lat="52.170988" lon="6.776872">
        <ele>75.220402</ele>
        <time>2026-05-09T07:28:32.984Z</time>
      </trkpt>
      <trkpt lat="52.170916" lon="6.776722">
        <ele>75.287675</ele>
        <time>2026-05-09T07:28:34.982Z</time>
      </trkpt>
      <trkpt lat="52.170848" lon="6.776578">
        <ele>75.330140</ele>
        <time>2026-05-09T07:28:36.975Z</time>
      </trkpt>
      <trkpt lat="52.170783" lon="6.776435">
        <ele>75.360609</ele>
        <time>2026-05-09T07:28:38.973Z</time>
      </trkpt>
      <trkpt lat="52.170714" lon="6.776291">
        <ele>75.391890</ele>
        <time>2026-05-09T07:28:40.976Z</time>
      </trkpt>
      <trkpt lat="52.170644" lon="6.776144">
        <ele>75.423748</ele>
        <time>2026-05-09T07:28:42.982Z</time>
      </trkpt>
      <trkpt lat="52.170577" lon="6.776000">
        <ele>75.454688</ele>
        <time>2026-05-09T07:28:44.975Z</time>
      </trkpt>
      <trkpt lat="52.170509" lon="6.775853">
        <ele>75.486207</ele>
        <time>2026-05-09T07:28:46.976Z</time>
      </trkpt>
      <trkpt lat="52.170441" lon="6.775706">
        <ele>75.517726</ele>
        <time>2026-05-09T07:28:48.987Z</time>
      </trkpt>
      <trkpt lat="52.170371" lon="6.775561">
        <ele>75.549314</ele>
        <time>2026-05-09T07:28:50.979Z</time>
      </trkpt>
      <trkpt lat="52.170303" lon="6.775415">
        <ele>75.580696</ele>
        <time>2026-05-09T07:28:52.975Z</time>
      </trkpt>
      <trkpt lat="52.170236" lon="6.775260">
        <ele>75.613157</ele>
        <time>2026-05-09T07:28:54.975Z</time>
      </trkpt>
      <trkpt lat="52.170165" lon="6.775107">
        <ele>75.646000</ele>
        <time>2026-05-09T07:28:56.973Z</time>
      </trkpt>
      <trkpt lat="52.170098" lon="6.774962">
        <ele>75.677077</ele>
        <time>2026-05-09T07:28:58.978Z</time>
      </trkpt>
      <trkpt lat="52.170029" lon="6.774820">
        <ele>75.708090</ele>
        <time>2026-05-09T07:29:00.975Z</time>
      </trkpt>
      <trkpt lat="52.169959" lon="6.774673">
        <ele>75.739948</ele>
        <time>2026-05-09T07:29:02.980Z</time>
      </trkpt>
      <trkpt lat="52.169887" lon="6.774524">
        <ele>75.772420</ele>
        <time>2026-05-09T07:29:04.978Z</time>
      </trkpt>
      <trkpt lat="52.169815" lon="6.774371">
        <ele>75.805432</ele>
        <time>2026-05-09T07:29:06.974Z</time>
      </trkpt>
      <trkpt lat="52.169746" lon="6.774211">
        <ele>75.746391</ele>
        <time>2026-05-09T07:29:08.989Z</time>
      </trkpt>
      <trkpt lat="52.169675" lon="6.774056">
        <ele>75.666809</ele>
        <time>2026-05-09T07:29:10.978Z</time>
      </trkpt>
      <trkpt lat="52.169605" lon="6.773905">
        <ele>75.588945</ele>
        <time>2026-05-09T07:29:12.981Z</time>
      </trkpt>
      <trkpt lat="52.169529" lon="6.773748">
        <ele>75.506667</ele>
        <time>2026-05-09T07:29:14.978Z</time>
      </trkpt>
      <trkpt lat="52.169459" lon="6.773593">
        <ele>75.427483</ele>
        <time>2026-05-09T07:29:16.976Z</time>
      </trkpt>
      <trkpt lat="52.169387" lon="6.773442">
        <ele>75.348803</ele>
        <time>2026-05-09T07:29:18.978Z</time>
      </trkpt>
      <trkpt lat="52.169319" lon="6.773284">
        <ele>75.269400</ele>
        <time>2026-05-09T07:29:20.978Z</time>
      </trkpt>
      <trkpt lat="52.169245" lon="6.773120">
        <ele>75.185645</ele>
        <time>2026-05-09T07:29:22.984Z</time>
      </trkpt>
      <trkpt lat="52.169173" lon="6.772963">
        <ele>75.105001</ele>
        <time>2026-05-09T07:29:24.975Z</time>
      </trkpt>
      <trkpt lat="52.169098" lon="6.772802">
        <ele>75.021832</ele>
        <time>2026-05-09T07:29:26.972Z</time>
      </trkpt>
      <trkpt lat="52.169024" lon="6.772640">
        <ele>74.938737</ele>
        <time>2026-05-09T07:29:28.983Z</time>
      </trkpt>
      <trkpt lat="52.168952" lon="6.772483">
        <ele>74.858093</ele>
        <time>2026-05-09T07:29:30.978Z</time>
      </trkpt>
      <trkpt lat="52.168872" lon="6.772321">
        <ele>74.772534</ele>
        <time>2026-05-09T07:29:32.977Z</time>
      </trkpt>
      <trkpt lat="52.168797" lon="6.772167">
        <ele>74.691639</ele>
        <time>2026-05-09T07:29:34.976Z</time>
      </trkpt>
      <trkpt lat="52.168730" lon="6.772022">
        <ele>74.616956</ele>
        <time>2026-05-09T07:29:36.976Z</time>
      </trkpt>
      <trkpt lat="52.168664" lon="6.771877">
        <ele>74.589324</ele>
        <time>2026-05-09T07:29:38.980Z</time>
      </trkpt>
      <trkpt lat="52.168590" lon="6.771726">
        <ele>74.569002</ele>
        <time>2026-05-09T07:29:40.982Z</time>
      </trkpt>
      <trkpt lat="52.168519" lon="6.771568">
        <ele>74.548408</ele>
        <time>2026-05-09T07:29:42.981Z</time>
      </trkpt>
      <trkpt lat="52.168450" lon="6.771421">
        <ele>74.528945</ele>
        <time>2026-05-09T07:29:44.976Z</time>
      </trkpt>
      <trkpt lat="52.168383" lon="6.771270">
        <ele>74.509350</ele>
        <time>2026-05-09T07:29:46.976Z</time>
      </trkpt>
      <trkpt lat="52.168311" lon="6.771116">
        <ele>74.488990</ele>
        <time>2026-05-09T07:29:48.975Z</time>
      </trkpt>
      <trkpt lat="52.168244" lon="6.770964">
        <ele>74.469309</ele>
        <time>2026-05-09T07:29:50.976Z</time>
      </trkpt>
      <trkpt lat="52.168174" lon="6.770817">
        <ele>74.449742</ele>
        <time>2026-05-09T07:29:52.979Z</time>
      </trkpt>
      <trkpt lat="52.168108" lon="6.770672">
        <ele>74.430756</ele>
        <time>2026-05-09T07:29:54.978Z</time>
      </trkpt>
      <trkpt lat="52.168040" lon="6.770520">
        <ele>74.410975</ele>
        <time>2026-05-09T07:29:56.980Z</time>
      </trkpt>
      <trkpt lat="52.167978" lon="6.770365">
        <ele>74.391518</ele>
        <time>2026-05-09T07:29:58.979Z</time>
      </trkpt>
      <trkpt lat="52.167913" lon="6.770215">
        <ele>74.372207</ele>
        <time>2026-05-09T07:30:00.971Z</time>
      </trkpt>
      <trkpt lat="52.167845" lon="6.770070">
        <ele>74.353015</ele>
        <time>2026-05-09T07:30:02.978Z</time>
      </trkpt>
      <trkpt lat="52.167776" lon="6.769920">
        <ele>74.333301</ele>
        <time>2026-05-09T07:30:04.977Z</time>
      </trkpt>
      <trkpt lat="52.167709" lon="6.769772">
        <ele>74.313960</ele>
        <time>2026-05-09T07:30:06.980Z</time>
      </trkpt>
      <trkpt lat="52.167651" lon="6.769617">
        <ele>74.299525</ele>
        <time>2026-05-09T07:30:08.972Z</time>
      </trkpt>
      <trkpt lat="52.167594" lon="6.769452">
        <ele>74.322997</ele>
        <time>2026-05-09T07:30:10.972Z</time>
      </trkpt>
      <trkpt lat="52.167542" lon="6.769289">
        <ele>74.345770</ele>
        <time>2026-05-09T07:30:12.977Z</time>
      </trkpt>
      <trkpt lat="52.167483" lon="6.769127">
        <ele>74.369122</ele>
        <time>2026-05-09T07:30:14.987Z</time>
      </trkpt>
      <trkpt lat="52.167419" lon="6.768974">
        <ele>74.392076</ele>
        <time>2026-05-09T07:30:16.980Z</time>
      </trkpt>
      <trkpt lat="52.167353" lon="6.768831">
        <ele>74.414258</ele>
        <time>2026-05-09T07:30:18.978Z</time>
      </trkpt>
      <trkpt lat="52.167282" lon="6.768690">
        <ele>74.436870</ele>
        <time>2026-05-09T07:30:20.975Z</time>
      </trkpt>
      <trkpt lat="52.167214" lon="6.768541">
        <ele>74.459889</ele>
        <time>2026-05-09T07:30:22.977Z</time>
      </trkpt>
      <trkpt lat="52.167147" lon="6.768397">
        <ele>74.482292</ele>
        <time>2026-05-09T07:30:24.978Z</time>
      </trkpt>
      <trkpt lat="52.167081" lon="6.768256">
        <ele>74.504277</ele>
        <time>2026-05-09T07:30:26.973Z</time>
      </trkpt>
      <trkpt lat="52.167013" lon="6.768114">
        <ele>74.526606</ele>
        <time>2026-05-09T07:30:28.987Z</time>
      </trkpt>
      <trkpt lat="52.166945" lon="6.767972">
        <ele>74.548936</ele>
        <time>2026-05-09T07:30:30.978Z</time>
      </trkpt>
      <trkpt lat="52.166882" lon="6.767840">
        <ele>74.569667</ele>
        <time>2026-05-09T07:30:32.978Z</time>
      </trkpt>
      <trkpt lat="52.166821" lon="6.767712">
        <ele>74.589758</ele>
        <time>2026-05-09T07:30:34.980Z</time>
      </trkpt>
      <trkpt lat="52.166759" lon="6.767582">
        <ele>74.610169</ele>
        <time>2026-05-09T07:30:36.975Z</time>
      </trkpt>
      <trkpt lat="52.166696" lon="6.767444">
        <ele>74.631492</ele>
        <time>2026-05-09T07:30:38.972Z</time>
      </trkpt>
      <trkpt lat="52.166622" lon="6.767318">
        <ele>74.653114</ele>
        <time>2026-05-09T07:30:40.977Z</time>
      </trkpt>
      <trkpt lat="52.166546" lon="6.767195">
        <ele>74.722906</ele>
        <time>2026-05-09T07:30:42.974Z</time>
      </trkpt>
      <trkpt lat="52.166481" lon="6.767051">
        <ele>74.819800</ele>
        <time>2026-05-09T07:30:44.976Z</time>
      </trkpt>
      <trkpt lat="52.166416" lon="6.766906">
        <ele>74.917131</ele>
        <time>2026-05-09T07:30:46.979Z</time>
      </trkpt>
      <trkpt lat="52.166350" lon="6.766761">
        <ele>75.014986</ele>
        <time>2026-05-09T07:30:48.980Z</time>
      </trkpt>
      <trkpt lat="52.166286" lon="6.766616">
        <ele>75.111798</ele>
        <time>2026-05-09T07:30:50.982Z</time>
      </trkpt>
      <trkpt lat="52.166228" lon="6.766477">
        <ele>75.202907</ele>
        <time>2026-05-09T07:30:52.971Z</time>
      </trkpt>
      <trkpt lat="52.166169" lon="6.766345">
        <ele>75.291422</ele>
        <time>2026-05-09T07:30:54.972Z</time>
      </trkpt>
      <trkpt lat="52.166105" lon="6.766213">
        <ele>75.382609</ele>
        <time>2026-05-09T07:30:56.980Z</time>
      </trkpt>
      <trkpt lat="52.166039" lon="6.766082">
        <ele>75.474483</ele>
        <time>2026-05-09T07:30:58.980Z</time>
      </trkpt>
      <trkpt lat="52.165976" lon="6.765950">
        <ele>75.565125</ele>
        <time>2026-05-09T07:31:00.979Z</time>
      </trkpt>
      <trkpt lat="52.165915" lon="6.765816">
        <ele>75.655560</ele>
        <time>2026-05-09T07:31:02.971Z</time>
      </trkpt>
      <trkpt lat="52.165853" lon="6.765681">
        <ele>75.746959</ele>
        <time>2026-05-09T07:31:04.980Z</time>
      </trkpt>
      <trkpt lat="52.165788" lon="6.765535">
        <ele>75.844729</ele>
        <time>2026-05-09T07:31:06.971Z</time>
      </trkpt>
      <trkpt lat="52.165732" lon="6.765394">
        <ele>75.935764</ele>
        <time>2026-05-09T07:31:08.972Z</time>
      </trkpt>
      <trkpt lat="52.165676" lon="6.765251">
        <ele>76.027710</ele>
        <time>2026-05-09T07:31:10.976Z</time>
      </trkpt>
      <trkpt lat="52.165630" lon="6.765106">
        <ele>76.116182</ele>
        <time>2026-05-09T07:31:12.979Z</time>
      </trkpt>
      <trkpt lat="52.165579" lon="6.764981">
        <ele>76.197543</ele>
        <time>2026-05-09T07:31:14.980Z</time>
      </trkpt>
      <trkpt lat="52.165488" lon="6.764984">
        <ele>76.245638</ele>
        <time>2026-05-09T07:31:17.970Z</time>
      </trkpt>
      <trkpt lat="52.165403" lon="6.764901">
        <ele>76.233191</ele>
        <time>2026-05-09T07:31:20.979Z</time>
      </trkpt>
      <trkpt lat="52.165320" lon="6.764747">
        <ele>76.217395</ele>
        <time>2026-05-09T07:31:23.975Z</time>
      </trkpt>
      <trkpt lat="52.165231" lon="6.764584">
        <ele>76.200579</ele>
        <time>2026-05-09T07:31:26.979Z</time>
      </trkpt>
      <trkpt lat="52.165146" lon="6.764431">
        <ele>76.184672</ele>
        <time>2026-05-09T07:31:29.976Z</time>
      </trkpt>
      <trkpt lat="52.165063" lon="6.764276">
        <ele>76.168818</ele>
        <time>2026-05-09T07:31:32.978Z</time>
      </trkpt>
      <trkpt lat="52.164995" lon="6.764169">
        <ele>76.156945</ele>
        <time>2026-05-09T07:31:34.980Z</time>
      </trkpt>
      <trkpt lat="52.164927" lon="6.764053">
        <ele>76.144581</ele>
        <time>2026-05-09T07:31:36.980Z</time>
      </trkpt>
      <trkpt lat="52.164857" lon="6.763931">
        <ele>76.131708</ele>
        <time>2026-05-09T07:31:38.978Z</time>
      </trkpt>
      <trkpt lat="52.164787" lon="6.763805">
        <ele>76.118608</ele>
        <time>2026-05-09T07:31:40.979Z</time>
      </trkpt>
      <trkpt lat="52.164713" lon="6.763683">
        <ele>76.105387</ele>
        <time>2026-05-09T07:31:42.976Z</time>
      </trkpt>
      <trkpt lat="52.164641" lon="6.763553">
        <ele>76.091890</ele>
        <time>2026-05-09T07:31:44.982Z</time>
      </trkpt>
      <trkpt lat="52.164569" lon="6.763433">
        <ele>76.078955</ele>
        <time>2026-05-09T07:31:46.980Z</time>
      </trkpt>
      <trkpt lat="52.164502" lon="6.763317">
        <ele>76.066678</ele>
        <time>2026-05-09T07:31:48.973Z</time>
      </trkpt>
      <trkpt lat="52.164434" lon="6.763203">
        <ele>76.054424</ele>
        <time>2026-05-09T07:31:50.968Z</time>
      </trkpt>
      <trkpt lat="52.164363" lon="6.763083">
        <ele>76.041577</ele>
        <time>2026-05-09T07:31:52.973Z</time>
      </trkpt>
      <trkpt lat="52.164297" lon="6.762959">
        <ele>76.028926</ele>
        <time>2026-05-09T07:31:54.979Z</time>
      </trkpt>
      <trkpt lat="52.164233" lon="6.762836">
        <ele>76.043381</ele>
        <time>2026-05-09T07:31:56.979Z</time>
      </trkpt>
      <trkpt lat="52.164175" lon="6.762705">
        <ele>76.077349</ele>
        <time>2026-05-09T07:31:58.979Z</time>
      </trkpt>
      <trkpt lat="52.164124" lon="6.762572">
        <ele>76.110327</ele>
        <time>2026-05-09T07:32:00.973Z</time>
      </trkpt>
      <trkpt lat="52.164053" lon="6.762449">
        <ele>76.145838</ele>
        <time>2026-05-09T07:32:02.978Z</time>
      </trkpt>
      <trkpt lat="52.163987" lon="6.762328">
        <ele>76.179882</ele>
        <time>2026-05-09T07:32:04.977Z</time>
      </trkpt>
      <trkpt lat="52.163911" lon="6.762199">
        <ele>76.217488</ele>
        <time>2026-05-09T07:32:06.977Z</time>
      </trkpt>
      <trkpt lat="52.163834" lon="6.762079">
        <ele>76.254000</ele>
        <time>2026-05-09T07:32:08.978Z</time>
      </trkpt>
      <trkpt lat="52.163764" lon="6.761962">
        <ele>76.288363</ele>
        <time>2026-05-09T07:32:10.977Z</time>
      </trkpt>
      <trkpt lat="52.163693" lon="6.761845">
        <ele>76.322967</ele>
        <time>2026-05-09T07:32:12.977Z</time>
      </trkpt>
      <trkpt lat="52.163624" lon="6.761732">
        <ele>76.356490</ele>
        <time>2026-05-09T07:32:14.976Z</time>
      </trkpt>
      <trkpt lat="52.163558" lon="6.761612">
        <ele>76.390377</ele>
        <time>2026-05-09T07:32:16.983Z</time>
      </trkpt>
      <trkpt lat="52.163493" lon="6.761495">
        <ele>76.423566</ele>
        <time>2026-05-09T07:32:18.982Z</time>
      </trkpt>
      <trkpt lat="52.163425" lon="6.761368">
        <ele>76.459010</ele>
        <time>2026-05-09T07:32:20.977Z</time>
      </trkpt>
      <trkpt lat="52.163359" lon="6.761242">
        <ele>76.493847</ele>
        <time>2026-05-09T07:32:22.973Z</time>
      </trkpt>
      <trkpt lat="52.163290" lon="6.761118">
        <ele>76.529047</ele>
        <time>2026-05-09T07:32:24.975Z</time>
      </trkpt>
      <trkpt lat="52.163204" lon="6.761006">
        <ele>76.566776</ele>
        <time>2026-05-09T07:32:26.976Z</time>
      </trkpt>
      <trkpt lat="52.163115" lon="6.760886">
        <ele>76.606364</ele>
        <time>2026-05-09T07:32:28.973Z</time>
      </trkpt>
      <trkpt lat="52.163025" lon="6.760757">
        <ele>76.635588</ele>
        <time>2026-05-09T07:32:30.973Z</time>
      </trkpt>
      <trkpt lat="52.162949" lon="6.760623">
        <ele>76.611026</ele>
        <time>2026-05-09T07:32:32.974Z</time>
      </trkpt>
      <trkpt lat="52.162869" lon="6.760485">
        <ele>76.585471</ele>
        <time>2026-05-09T07:32:34.972Z</time>
      </trkpt>
      <trkpt lat="52.162792" lon="6.760349">
        <ele>76.560562</ele>
        <time>2026-05-09T07:32:36.980Z</time>
      </trkpt>
      <trkpt lat="52.162713" lon="6.760215">
        <ele>76.535549</ele>
        <time>2026-05-09T07:32:38.982Z</time>
      </trkpt>
      <trkpt lat="52.162626" lon="6.760075">
        <ele>76.508727</ele>
        <time>2026-05-09T07:32:40.988Z</time>
      </trkpt>
      <trkpt lat="52.162548" lon="6.759938">
        <ele>76.483571</ele>
        <time>2026-05-09T07:32:42.980Z</time>
      </trkpt>
      <trkpt lat="52.162471" lon="6.759803">
        <ele>76.458761</ele>
        <time>2026-05-09T07:32:44.979Z</time>
      </trkpt>
      <trkpt lat="52.162397" lon="6.759667">
        <ele>76.434293</ele>
        <time>2026-05-09T07:32:46.978Z</time>
      </trkpt>
      <trkpt lat="52.162324" lon="6.759539">
        <ele>76.410771</ele>
        <time>2026-05-09T07:32:48.979Z</time>
      </trkpt>
      <trkpt lat="52.162250" lon="6.759407">
        <ele>76.386704</ele>
        <time>2026-05-09T07:32:50.974Z</time>
      </trkpt>
      <trkpt lat="52.162177" lon="6.759259">
        <ele>76.361144</ele>
        <time>2026-05-09T07:32:52.991Z</time>
      </trkpt>
      <trkpt lat="52.162105" lon="6.759120">
        <ele>76.336659</ele>
        <time>2026-05-09T07:32:54.977Z</time>
      </trkpt>
      <trkpt lat="52.162036" lon="6.758995">
        <ele>76.314026</ele>
        <time>2026-05-09T07:32:56.979Z</time>
      </trkpt>
      <trkpt lat="52.161974" lon="6.758881">
        <ele>76.293521</ele>
        <time>2026-05-09T07:32:58.976Z</time>
      </trkpt>
      <trkpt lat="52.161911" lon="6.758774">
        <ele>76.273560</ele>
        <time>2026-05-09T07:33:00.979Z</time>
      </trkpt>
      <trkpt lat="52.161844" lon="6.758666">
        <ele>76.252887</ele>
        <time>2026-05-09T07:33:02.989Z</time>
      </trkpt>
      <trkpt lat="52.161769" lon="6.758551">
        <ele>76.179860</ele>
        <time>2026-05-09T07:33:04.977Z</time>
      </trkpt>
      <trkpt lat="52.161699" lon="6.758427">
        <ele>76.082351</ele>
        <time>2026-05-09T07:33:06.968Z</time>
      </trkpt>
      <trkpt lat="52.161627" lon="6.758294">
        <ele>75.979711</ele>
        <time>2026-05-09T07:33:08.976Z</time>
      </trkpt>
      <trkpt lat="52.161551" lon="6.758165">
        <ele>75.876217</ele>
        <time>2026-05-09T07:33:10.977Z</time>
      </trkpt>
      <trkpt lat="52.161470" lon="6.758029">
        <ele>75.766533</ele>
        <time>2026-05-09T07:33:12.975Z</time>
      </trkpt>
      <trkpt lat="52.161396" lon="6.757899">
        <ele>75.663913</ele>
        <time>2026-05-09T07:33:14.981Z</time>
      </trkpt>
      <trkpt lat="52.161325" lon="6.757759">
        <ele>75.558805</ele>
        <time>2026-05-09T07:33:16.974Z</time>
      </trkpt>
      <trkpt lat="52.161251" lon="6.757618">
        <ele>75.451432</ele>
        <time>2026-05-09T07:33:18.976Z</time>
      </trkpt>
      <trkpt lat="52.161172" lon="6.757481">
        <ele>75.342632</ele>
        <time>2026-05-09T07:33:20.980Z</time>
      </trkpt>
      <trkpt lat="52.161096" lon="6.757344">
        <ele>75.235751</ele>
        <time>2026-05-09T07:33:22.981Z</time>
      </trkpt>
      <trkpt lat="52.161015" lon="6.757206">
        <ele>75.125233</ele>
        <time>2026-05-09T07:33:24.979Z</time>
      </trkpt>
      <trkpt lat="52.160926" lon="6.757082">
        <ele>75.014797</ele>
        <time>2026-05-09T07:33:26.973Z</time>
      </trkpt>
      <trkpt lat="52.160836" lon="6.756957">
        <ele>74.903268</ele>
        <time>2026-05-09T07:33:28.978Z</time>
      </trkpt>
      <trkpt lat="52.160756" lon="6.756813">
        <ele>74.790851</ele>
        <time>2026-05-09T07:33:30.977Z</time>
      </trkpt>
      <trkpt lat="52.160679" lon="6.756679">
        <ele>74.684608</ele>
        <time>2026-05-09T07:33:32.978Z</time>
      </trkpt>
      <trkpt lat="52.160600" lon="6.756548">
        <ele>74.578311</ele>
        <time>2026-05-09T07:33:34.980Z</time>
      </trkpt>
      <trkpt lat="52.160527" lon="6.756420">
        <ele>74.499572</ele>
        <time>2026-05-09T07:33:36.980Z</time>
      </trkpt>
      <trkpt lat="52.160451" lon="6.756290">
        <ele>74.428068</ele>
        <time>2026-05-09T07:33:38.985Z</time>
      </trkpt>
      <trkpt lat="52.160374" lon="6.756156">
        <ele>74.354960</ele>
        <time>2026-05-09T07:33:40.974Z</time>
      </trkpt>
      <trkpt lat="52.160294" lon="6.756018">
        <ele>74.279358</ele>
        <time>2026-05-09T07:33:42.978Z</time>
      </trkpt>
      <trkpt lat="52.160214" lon="6.755873">
        <ele>74.201706</ele>
        <time>2026-05-09T07:33:44.977Z</time>
      </trkpt>
      <trkpt lat="52.160133" lon="6.755731">
        <ele>74.124497</ele>
        <time>2026-05-09T07:33:46.973Z</time>
      </trkpt>
      <trkpt lat="52.160050" lon="6.755597">
        <ele>74.048674</ele>
        <time>2026-05-09T07:33:48.976Z</time>
      </trkpt>
      <trkpt lat="52.159972" lon="6.755450">
        <ele>73.971283</ele>
        <time>2026-05-09T07:33:50.977Z</time>
      </trkpt>
      <trkpt lat="52.159895" lon="6.755296">
        <ele>73.892175</ele>
        <time>2026-05-09T07:33:52.977Z</time>
      </trkpt>
      <trkpt lat="52.159815" lon="6.755154">
        <ele>73.815407</ele>
        <time>2026-05-09T07:33:54.975Z</time>
      </trkpt>
      <trkpt lat="52.159736" lon="6.755014">
        <ele>73.739664</ele>
        <time>2026-05-09T07:33:56.975Z</time>
      </trkpt>
      <trkpt lat="52.159651" lon="6.754874">
        <ele>73.661233</ele>
        <time>2026-05-09T07:33:58.983Z</time>
      </trkpt>
      <trkpt lat="52.159569" lon="6.754734">
        <ele>73.584158</ele>
        <time>2026-05-09T07:34:00.973Z</time>
      </trkpt>
      <trkpt lat="52.159487" lon="6.754595">
        <ele>73.507371</ele>
        <time>2026-05-09T07:34:02.975Z</time>
      </trkpt>
      <trkpt lat="52.159406" lon="6.754449">
        <ele>73.428988</ele>
        <time>2026-05-09T07:34:04.983Z</time>
      </trkpt>
      <trkpt lat="52.159320" lon="6.754306">
        <ele>73.386372</ele>
        <time>2026-05-09T07:34:06.978Z</time>
      </trkpt>
      <trkpt lat="52.159239" lon="6.754159">
        <ele>73.398212</ele>
        <time>2026-05-09T07:34:08.978Z</time>
      </trkpt>
      <trkpt lat="52.159161" lon="6.754011">
        <ele>73.409904</ele>
        <time>2026-05-09T07:34:10.976Z</time>
      </trkpt>
      <trkpt lat="52.159081" lon="6.753864">
        <ele>73.421679</ele>
        <time>2026-05-09T07:34:12.983Z</time>
      </trkpt>
      <trkpt lat="52.159004" lon="6.753712">
        <ele>73.433491</ele>
        <time>2026-05-09T07:34:14.972Z</time>
      </trkpt>
      <trkpt lat="52.158935" lon="6.753567">
        <ele>73.444488</ele>
        <time>2026-05-09T07:34:16.976Z</time>
      </trkpt>
      <trkpt lat="52.158867" lon="6.753420">
        <ele>73.455520</ele>
        <time>2026-05-09T07:34:18.972Z</time>
      </trkpt>
      <trkpt lat="52.158789" lon="6.753292">
        <ele>73.466331</ele>
        <time>2026-05-09T07:34:20.980Z</time>
      </trkpt>
      <trkpt lat="52.158705" lon="6.753166">
        <ele>73.477481</ele>
        <time>2026-05-09T07:34:22.975Z</time>
      </trkpt>
      <trkpt lat="52.158617" lon="6.753054">
        <ele>73.488387</ele>
        <time>2026-05-09T07:34:24.981Z</time>
      </trkpt>
      <trkpt lat="52.158530" lon="6.752950">
        <ele>73.498925</ele>
        <time>2026-05-09T07:34:26.974Z</time>
      </trkpt>
      <trkpt lat="52.158445" lon="6.752852">
        <ele>73.509094</ele>
        <time>2026-05-09T07:34:28.979Z</time>
      </trkpt>
      <trkpt lat="52.158374" lon="6.752743">
        <ele>73.518621</ele>
        <time>2026-05-09T07:34:30.975Z</time>
      </trkpt>
      <trkpt lat="52.158366" lon="6.752555">
        <ele>73.529914</ele>
        <time>2026-05-09T07:34:33.974Z</time>
      </trkpt>
      <trkpt lat="52.158443" lon="6.752385">
        <ele>73.542577</ele>
        <time>2026-05-09T07:34:36.978Z</time>
      </trkpt>
      <trkpt lat="52.158534" lon="6.752324">
        <ele>73.552187</ele>
        <time>2026-05-09T07:34:38.981Z</time>
      </trkpt>
      <trkpt lat="52.158630" lon="6.752278">
        <ele>73.574908</ele>
        <time>2026-05-09T07:34:40.981Z</time>
      </trkpt>
      <trkpt lat="52.158726" lon="6.752212">
        <ele>73.612783</ele>
        <time>2026-05-09T07:34:42.973Z</time>
      </trkpt>
      <trkpt lat="52.158824" lon="6.752146">
        <ele>73.651329</ele>
        <time>2026-05-09T07:34:44.971Z</time>
      </trkpt>
      <trkpt lat="52.158914" lon="6.752083">
        <ele>73.686934</ele>
        <time>2026-05-09T07:34:46.988Z</time>
      </trkpt>
      <trkpt lat="52.159007" lon="6.752014">
        <ele>73.724079</ele>
        <time>2026-05-09T07:34:48.982Z</time>
      </trkpt>
      <trkpt lat="52.159107" lon="6.751937">
        <ele>73.764282</ele>
        <time>2026-05-09T07:34:50.980Z</time>
      </trkpt>
      <trkpt lat="52.159206" lon="6.751844">
        <ele>73.805819</ele>
        <time>2026-05-09T07:34:52.983Z</time>
      </trkpt>
      <trkpt lat="52.159300" lon="6.751767">
        <ele>73.844061</ele>
        <time>2026-05-09T07:34:54.981Z</time>
      </trkpt>
      <trkpt lat="52.159395" lon="6.751686">
        <ele>73.883034</ele>
        <time>2026-05-09T07:34:56.976Z</time>
      </trkpt>
      <trkpt lat="52.159489" lon="6.751615">
        <ele>73.920695</ele>
        <time>2026-05-09T07:34:58.987Z</time>
      </trkpt>
      <trkpt lat="52.159589" lon="6.751539">
        <ele>73.960804</ele>
        <time>2026-05-09T07:35:00.977Z</time>
      </trkpt>
      <trkpt lat="52.159676" lon="6.751477">
        <ele>73.995320</ele>
        <time>2026-05-09T07:35:02.975Z</time>
      </trkpt>
      <trkpt lat="52.159757" lon="6.751405">
        <ele>74.028858</ele>
        <time>2026-05-09T07:35:04.984Z</time>
      </trkpt>
      <trkpt lat="52.159841" lon="6.751346">
        <ele>74.062108</ele>
        <time>2026-05-09T07:35:06.977Z</time>
      </trkpt>
      <trkpt lat="52.159947" lon="6.751239">
        <ele>74.107430</ele>
        <time>2026-05-09T07:35:09.980Z</time>
      </trkpt>
      <trkpt lat="52.159946" lon="6.751039">
        <ele>74.152032</ele>
        <time>2026-05-09T07:35:12.986Z</time>
      </trkpt>
      <trkpt lat="52.159887" lon="6.750911">
        <ele>74.187737</ele>
        <time>2026-05-09T07:35:14.986Z</time>
      </trkpt>
      <trkpt lat="52.159822" lon="6.750798">
        <ele>74.180934</ele>
        <time>2026-05-09T07:35:16.986Z</time>
      </trkpt>
      <trkpt lat="52.159750" lon="6.750696">
        <ele>74.088031</ele>
        <time>2026-05-09T07:35:18.986Z</time>
      </trkpt>
      <trkpt lat="52.159676" lon="6.750605">
        <ele>73.997753</ele>
        <time>2026-05-09T07:35:20.973Z</time>
      </trkpt>
      <trkpt lat="52.159622" lon="6.750486">
        <ele>73.909318</ele>
        <time>2026-05-09T07:35:22.975Z</time>
      </trkpt>
      <trkpt lat="52.159619" lon="6.750337">
        <ele>73.820248</ele>
        <time>2026-05-09T07:35:24.978Z</time>
      </trkpt>
      <trkpt lat="52.159642" lon="6.750186">
        <ele>73.727292</ele>
        <time>2026-05-09T07:35:26.979Z</time>
      </trkpt>
      <trkpt lat="52.159665" lon="6.750024">
        <ele>73.627944</ele>
        <time>2026-05-09T07:35:28.973Z</time>
      </trkpt>
      <trkpt lat="52.159688" lon="6.749866">
        <ele>73.530924</ele>
        <time>2026-05-09T07:35:30.983Z</time>
      </trkpt>
      <trkpt lat="52.159707" lon="6.749716">
        <ele>73.439414</ele>
        <time>2026-05-09T07:35:32.983Z</time>
      </trkpt>
      <trkpt lat="52.159727" lon="6.749573">
        <ele>73.351785</ele>
        <time>2026-05-09T07:35:34.972Z</time>
      </trkpt>
      <trkpt lat="52.159745" lon="6.749423">
        <ele>73.260467</ele>
        <time>2026-05-09T07:35:36.981Z</time>
      </trkpt>
      <trkpt lat="52.159768" lon="6.749276">
        <ele>73.169829</ele>
        <time>2026-05-09T07:35:38.971Z</time>
      </trkpt>
      <trkpt lat="52.159789" lon="6.749133">
        <ele>73.081978</ele>
        <time>2026-05-09T07:35:40.979Z</time>
      </trkpt>
      <trkpt lat="52.159829" lon="6.748938">
        <ele>72.959132</ele>
        <time>2026-05-09T07:35:43.976Z</time>
      </trkpt>
      <trkpt lat="52.159819" lon="6.748777">
        <ele>72.862449</ele>
        <time>2026-05-09T07:35:46.977Z</time>
      </trkpt>
      <trkpt lat="52.159732" lon="6.748708">
        <ele>72.768222</ele>
        <time>2026-05-09T07:35:49.971Z</time>
      </trkpt>
      <trkpt lat="52.159533" lon="6.748591">
        <ele>72.562191</ele>
        <time>2026-05-09T07:36:19.977Z</time>
      </trkpt>
      <trkpt lat="52.159320" lon="6.748481">
        <ele>72.402254</ele>
        <time>2026-05-09T07:36:51.970Z</time>
      </trkpt>
      <trkpt lat="52.159222" lon="6.748439">
        <ele>72.353173</ele>
        <time>2026-05-09T07:36:56.980Z</time>
      </trkpt>
      <trkpt lat="52.159127" lon="6.748389">
        <ele>72.304819</ele>
        <time>2026-05-09T07:37:02.972Z</time>
      </trkpt>
      <trkpt lat="52.159162" lon="6.748238">
        <ele>72.256854</ele>
        <time>2026-05-09T07:37:14.971Z</time>
      </trkpt>
      <trkpt lat="52.159068" lon="6.748313">
        <ele>72.206162</ele>
        <time>2026-05-09T07:38:40.974Z</time>
      </trkpt>
      <trkpt lat="52.158962" lon="6.748257">
        <ele>72.152190</ele>
        <time>2026-05-09T07:38:44.968Z</time>
      </trkpt>
      <trkpt lat="52.158875" lon="6.748210">
        <ele>72.107796</ele>
        <time>2026-05-09T07:38:47.976Z</time>
      </trkpt>
      <trkpt lat="52.158763" lon="6.748156">
        <ele>72.051224</ele>
        <time>2026-05-09T07:38:51.986Z</time>
      </trkpt>
      <trkpt lat="52.158646" lon="6.748098">
        <ele>71.991991</ele>
        <time>2026-05-09T07:38:55.972Z</time>
      </trkpt>
      <trkpt lat="52.158547" lon="6.748060">
        <ele>71.942727</ele>
        <time>2026-05-09T07:38:58.974Z</time>
      </trkpt>
      <trkpt lat="52.158460" lon="6.748002">
        <ele>71.897199</ele>
        <time>2026-05-09T07:39:01.979Z</time>
      </trkpt>
      <trkpt lat="52.158418" lon="6.747867">
        <ele>71.852220</ele>
        <time>2026-05-09T07:39:04.976Z</time>
      </trkpt>
      <trkpt lat="52.158441" lon="6.747696">
        <ele>71.800201</ele>
        <time>2026-05-09T07:39:07.980Z</time>
      </trkpt>
      <trkpt lat="52.158491" lon="6.747543">
        <ele>71.748689</ele>
        <time>2026-05-09T07:39:10.971Z</time>
      </trkpt>
      <trkpt lat="52.158561" lon="6.747412">
        <ele>71.697067</ele>
        <time>2026-05-09T07:39:13.976Z</time>
      </trkpt>
      <trkpt lat="52.158640" lon="6.747307">
        <ele>71.647694</ele>
        <time>2026-05-09T07:39:16.977Z</time>
      </trkpt>
      <trkpt lat="52.158727" lon="6.747213">
        <ele>71.597137</ele>
        <time>2026-05-09T07:39:19.973Z</time>
      </trkpt>
      <trkpt lat="52.158815" lon="6.747120">
        <ele>71.628273</ele>
        <time>2026-05-09T07:39:22.977Z</time>
      </trkpt>
      <trkpt lat="52.158902" lon="6.747020">
        <ele>71.677851</ele>
        <time>2026-05-09T07:39:25.968Z</time>
      </trkpt>
      <trkpt lat="52.158970" lon="6.746914">
        <ele>71.721670</ele>
        <time>2026-05-09T07:39:28.980Z</time>
      </trkpt>
      <trkpt lat="52.159068" lon="6.746848">
        <ele>71.771053</ele>
        <time>2026-05-09T07:39:32.973Z</time>
      </trkpt>
      <trkpt lat="52.159155" lon="6.746730">
        <ele>71.823762</ele>
        <time>2026-05-09T07:39:36.972Z</time>
      </trkpt>
      <trkpt lat="52.159241" lon="6.746624">
        <ele>71.873975</ele>
        <time>2026-05-09T07:39:40.977Z</time>
      </trkpt>
      <trkpt lat="52.159318" lon="6.746527">
        <ele>71.919296</ele>
        <time>2026-05-09T07:39:44.983Z</time>
      </trkpt>
      <trkpt lat="52.159405" lon="6.746417">
        <ele>71.970573</ele>
        <time>2026-05-09T07:39:48.976Z</time>
      </trkpt>
      <trkpt lat="52.159480" lon="6.746331">
        <ele>72.013279</ele>
        <time>2026-05-09T07:39:52.973Z</time>
      </trkpt>
      <trkpt lat="52.159548" lon="6.746235">
        <ele>72.055174</ele>
        <time>2026-05-09T07:39:56.969Z</time>
      </trkpt>
      <trkpt lat="52.159542" lon="6.746077">
        <ele>72.100401</ele>
        <time>2026-05-09T07:40:00.973Z</time>
      </trkpt>
      <trkpt lat="52.159493" lon="6.745940">
        <ele>72.145709</ele>
        <time>2026-05-09T07:40:04.972Z</time>
      </trkpt>
      <trkpt lat="52.159436" lon="6.745803">
        <ele>72.193004</ele>
        <time>2026-05-09T07:40:07.985Z</time>
      </trkpt>
      <trkpt lat="52.159366" lon="6.745662">
        <ele>72.244827</ele>
        <time>2026-05-09T07:40:10.969Z</time>
      </trkpt>
      <trkpt lat="52.159299" lon="6.745531">
        <ele>72.293555</ele>
        <time>2026-05-09T07:40:13.974Z</time>
      </trkpt>
      <trkpt lat="52.159232" lon="6.745389">
        <ele>72.344737</ele>
        <time>2026-05-09T07:40:16.978Z</time>
      </trkpt>
      <trkpt lat="52.159169" lon="6.745253">
        <ele>72.393426</ele>
        <time>2026-05-09T07:40:19.974Z</time>
      </trkpt>
      <trkpt lat="52.159106" lon="6.745117">
        <ele>72.437434</ele>
        <time>2026-05-09T07:40:22.981Z</time>
      </trkpt>
      <trkpt lat="52.159041" lon="6.744980">
        <ele>72.472738</ele>
        <time>2026-05-09T07:40:25.988Z</time>
      </trkpt>
      <trkpt lat="52.158974" lon="6.744852">
        <ele>72.507037</ele>
        <time>2026-05-09T07:40:28.973Z</time>
      </trkpt>
      <trkpt lat="52.158916" lon="6.744726">
        <ele>72.539149</ele>
        <time>2026-05-09T07:40:31.968Z</time>
      </trkpt>
      <trkpt lat="52.158848" lon="6.744574">
        <ele>72.577497</ele>
        <time>2026-05-09T07:40:34.972Z</time>
      </trkpt>
      <trkpt lat="52.158782" lon="6.744421">
        <ele>72.615624</ele>
        <time>2026-05-09T07:40:37.970Z</time>
      </trkpt>
      <trkpt lat="52.158717" lon="6.744287">
        <ele>72.650447</ele>
        <time>2026-05-09T07:40:40.972Z</time>
      </trkpt>
      <trkpt lat="52.158688" lon="6.744137">
        <ele>72.682506</ele>
        <time>2026-05-09T07:40:43.972Z</time>
      </trkpt>
      <trkpt lat="52.158773" lon="6.743999">
        <ele>72.722370</ele>
        <time>2026-05-09T07:40:46.974Z</time>
      </trkpt>
      <trkpt lat="52.158877" lon="6.743877">
        <ele>72.764945</ele>
        <time>2026-05-09T07:40:49.995Z</time>
      </trkpt>
      <trkpt lat="52.158981" lon="6.743737">
        <ele>72.809763</ele>
        <time>2026-05-09T07:40:52.974Z</time>
      </trkpt>
      <trkpt lat="52.159055" lon="6.743642">
        <ele>72.841063</ele>
        <time>2026-05-09T07:40:54.974Z</time>
      </trkpt>
      <trkpt lat="52.159159" lon="6.743510">
        <ele>72.884860</ele>
        <time>2026-05-09T07:40:57.973Z</time>
      </trkpt>
      <trkpt lat="52.159260" lon="6.743385">
        <ele>72.926998</ele>
        <time>2026-05-09T07:41:00.977Z</time>
      </trkpt>
      <trkpt lat="52.159351" lon="6.743263">
        <ele>72.966149</ele>
        <time>2026-05-09T07:41:03.972Z</time>
      </trkpt>
      <trkpt lat="52.159438" lon="6.743150">
        <ele>73.003112</ele>
        <time>2026-05-09T07:41:06.967Z</time>
      </trkpt>
      <trkpt lat="52.159535" lon="6.743013">
        <ele>72.992768</ele>
        <time>2026-05-09T07:41:09.974Z</time>
      </trkpt>
      <trkpt lat="52.159607" lon="6.742923">
        <ele>72.951358</ele>
        <time>2026-05-09T07:41:11.976Z</time>
      </trkpt>
      <trkpt lat="52.159704" lon="6.742789">
        <ele>72.893328</ele>
        <time>2026-05-09T07:41:14.990Z</time>
      </trkpt>
      <trkpt lat="52.159797" lon="6.742669">
        <ele>72.839194</ele>
        <time>2026-05-09T07:41:17.979Z</time>
      </trkpt>
      <trkpt lat="52.159885" lon="6.742547">
        <ele>72.786470</ele>
        <time>2026-05-09T07:41:20.973Z</time>
      </trkpt>
      <trkpt lat="52.159970" lon="6.742455">
        <ele>72.739903</ele>
        <time>2026-05-09T07:41:23.979Z</time>
      </trkpt>
      <trkpt lat="52.160108" lon="6.742276">
        <ele>72.659413</ele>
        <time>2026-05-09T07:42:04.979Z</time>
      </trkpt>
      <trkpt lat="52.160183" lon="6.742166">
        <ele>72.613368</ele>
        <time>2026-05-09T07:42:10.979Z</time>
      </trkpt>
      <trkpt lat="52.160086" lon="6.742221">
        <ele>72.566495</ele>
        <time>2026-05-09T07:42:25.979Z</time>
      </trkpt>
      <trkpt lat="52.160004" lon="6.742330">
        <ele>72.518205</ele>
        <time>2026-05-09T07:42:30.979Z</time>
      </trkpt>
      <trkpt lat="52.159922" lon="6.742449">
        <ele>72.468098</ele>
        <time>2026-05-09T07:42:35.968Z</time>
      </trkpt>
      <trkpt lat="52.159839" lon="6.742365">
        <ele>72.423509</ele>
        <time>2026-05-09T07:42:39.974Z</time>
      </trkpt>
      <trkpt lat="52.159782" lon="6.742221">
        <ele>72.375527</ele>
        <time>2026-05-09T07:42:43.980Z</time>
      </trkpt>
      <trkpt lat="52.159726" lon="6.742072">
        <ele>72.326603</ele>
        <time>2026-05-09T07:42:46.975Z</time>
      </trkpt>
      <trkpt lat="52.159664" lon="6.741920">
        <ele>72.275496</ele>
        <time>2026-05-09T07:42:49.979Z</time>
      </trkpt>
      <trkpt lat="52.159602" lon="6.741771">
        <ele>72.225087</ele>
        <time>2026-05-09T07:42:52.975Z</time>
      </trkpt>
      <trkpt lat="52.159544" lon="6.741632">
        <ele>72.198884</ele>
        <time>2026-05-09T07:42:55.985Z</time>
      </trkpt>
      <trkpt lat="52.159486" lon="6.741478">
        <ele>72.191355</ele>
        <time>2026-05-09T07:42:58.976Z</time>
      </trkpt>
      <trkpt lat="52.159427" lon="6.741332">
        <ele>72.184070</ele>
        <time>2026-05-09T07:43:01.979Z</time>
      </trkpt>
      <trkpt lat="52.159370" lon="6.741192">
        <ele>72.177069</ele>
        <time>2026-05-09T07:43:04.970Z</time>
      </trkpt>
      <trkpt lat="52.159318" lon="6.741065">
        <ele>72.170707</ele>
        <time>2026-05-09T07:43:07.978Z</time>
      </trkpt>
      <trkpt lat="52.159252" lon="6.740914">
        <ele>72.162982</ele>
        <time>2026-05-09T07:43:11.970Z</time>
      </trkpt>
      <trkpt lat="52.159190" lon="6.740767">
        <ele>72.155549</ele>
        <time>2026-05-09T07:43:15.967Z</time>
      </trkpt>
      <trkpt lat="52.159129" lon="6.740636">
        <ele>72.148696</ele>
        <time>2026-05-09T07:43:19.976Z</time>
      </trkpt>
      <trkpt lat="52.159080" lon="6.740505">
        <ele>72.142303</ele>
        <time>2026-05-09T07:43:23.971Z</time>
      </trkpt>
      <trkpt lat="52.159000" lon="6.740392">
        <ele>72.135114</ele>
        <time>2026-05-09T07:43:27.989Z</time>
      </trkpt>
      <trkpt lat="52.158947" lon="6.740247">
        <ele>72.128081</ele>
        <time>2026-05-09T07:43:30.974Z</time>
      </trkpt>
      <trkpt lat="52.158895" lon="6.740115">
        <ele>72.121544</ele>
        <time>2026-05-09T07:43:33.973Z</time>
      </trkpt>
      <trkpt lat="52.158829" lon="6.739952">
        <ele>72.113407</ele>
        <time>2026-05-09T07:43:37.968Z</time>
      </trkpt>
      <trkpt lat="52.158782" lon="6.739794">
        <ele>72.106090</ele>
        <time>2026-05-09T07:43:40.975Z</time>
      </trkpt>
      <trkpt lat="52.158725" lon="6.739641">
        <ele>72.098632</ele>
        <time>2026-05-09T07:43:43.972Z</time>
      </trkpt>
      <trkpt lat="52.158666" lon="6.739496">
        <ele>72.091382</ele>
        <time>2026-05-09T07:43:46.974Z</time>
      </trkpt>
      <trkpt lat="52.158613" lon="6.739366">
        <ele>72.084878</ele>
        <time>2026-05-09T07:43:49.995Z</time>
      </trkpt>
      <trkpt lat="52.158562" lon="6.739239">
        <ele>72.092902</ele>
        <time>2026-05-09T07:43:52.969Z</time>
      </trkpt>
      <trkpt lat="52.158499" lon="6.739086">
        <ele>72.145916</ele>
        <time>2026-05-09T07:43:56.983Z</time>
      </trkpt>
      <trkpt lat="52.158446" lon="6.738948">
        <ele>72.192757</ele>
        <time>2026-05-09T07:43:59.978Z</time>
      </trkpt>
      <trkpt lat="52.158399" lon="6.738817">
        <ele>72.236418</ele>
        <time>2026-05-09T07:44:02.978Z</time>
      </trkpt>
      <trkpt lat="52.158318" lon="6.738707">
        <ele>72.285860</ele>
        <time>2026-05-09T07:44:06.982Z</time>
      </trkpt>
      <trkpt lat="52.158209" lon="6.738698">
        <ele>72.337043</ele>
        <time>2026-05-09T07:44:10.976Z</time>
      </trkpt>
      <trkpt lat="52.158113" lon="6.738785">
        <ele>72.388554</ele>
        <time>2026-05-09T07:44:13.975Z</time>
      </trkpt>
      <trkpt lat="52.158019" lon="6.738882">
        <ele>72.440727</ele>
        <time>2026-05-09T07:44:16.975Z</time>
      </trkpt>
      <trkpt lat="52.157924" lon="6.738972">
        <ele>72.492257</ele>
        <time>2026-05-09T07:44:19.980Z</time>
      </trkpt>
      <trkpt lat="52.157833" lon="6.739065">
        <ele>72.542627</ele>
        <time>2026-05-09T07:44:22.980Z</time>
      </trkpt>
      <trkpt lat="52.157745" lon="6.739162">
        <ele>72.592447</ele>
        <time>2026-05-09T07:44:25.977Z</time>
      </trkpt>
      <trkpt lat="52.157655" lon="6.739251">
        <ele>72.641813</ele>
        <time>2026-05-09T07:44:28.975Z</time>
      </trkpt>
      <trkpt lat="52.157564" lon="6.739342">
        <ele>72.691880</ele>
        <time>2026-05-09T07:44:31.978Z</time>
      </trkpt>
      <trkpt lat="52.157479" lon="6.739427">
        <ele>72.738646</ele>
        <time>2026-05-09T07:44:34.978Z</time>
      </trkpt>
      <trkpt lat="52.157395" lon="6.739537">
        <ele>72.789177</ele>
        <time>2026-05-09T07:44:39.972Z</time>
      </trkpt>
      <trkpt lat="52.157358" lon="6.739678">
        <ele>72.833299</ele>
        <time>2026-05-09T07:44:43.978Z</time>
      </trkpt>
      <trkpt lat="52.157359" lon="6.739839">
        <ele>72.879623</ele>
        <time>2026-05-09T07:44:47.978Z</time>
      </trkpt>
      <trkpt lat="52.157437" lon="6.739724">
        <ele>72.918523</ele>
        <time>2026-05-09T07:45:38.979Z</time>
      </trkpt>
      <trkpt lat="52.157434" lon="6.739557">
        <ele>72.867872</ele>
        <time>2026-05-09T07:45:42.973Z</time>
      </trkpt>
      <trkpt lat="52.157364" lon="6.739457">
        <ele>72.821874</ele>
        <time>2026-05-09T07:45:45.977Z</time>
      </trkpt>
      <trkpt lat="52.157290" lon="6.739359">
        <ele>72.774757</ele>
        <time>2026-05-09T07:45:48.977Z</time>
      </trkpt>
      <trkpt lat="52.157212" lon="6.739252">
        <ele>72.724377</ele>
        <time>2026-05-09T07:45:51.978Z</time>
      </trkpt>
      <trkpt lat="52.157124" lon="6.739147">
        <ele>72.670484</ele>
        <time>2026-05-09T07:45:54.973Z</time>
      </trkpt>
      <trkpt lat="52.157034" lon="6.739047">
        <ele>72.616658</ele>
        <time>2026-05-09T07:45:57.970Z</time>
      </trkpt>
      <trkpt lat="52.156948" lon="6.738967">
        <ele>72.567725</ele>
        <time>2026-05-09T07:46:00.976Z</time>
      </trkpt>
      <trkpt lat="52.156756" lon="6.738765">
        <ele>72.454795</ele>
        <time>2026-05-09T07:47:03.977Z</time>
      </trkpt>
      <trkpt lat="52.156752" lon="6.738584">
        <ele>72.399884</ele>
        <time>2026-05-09T07:47:07.978Z</time>
      </trkpt>
      <trkpt lat="52.156686" lon="6.738457">
        <ele>72.349423</ele>
        <time>2026-05-09T07:47:11.975Z</time>
      </trkpt>
      <trkpt lat="52.156599" lon="6.738373">
        <ele>72.299453</ele>
        <time>2026-05-09T07:47:14.974Z</time>
      </trkpt>
      <trkpt lat="52.156505" lon="6.738290">
        <ele>72.246623</ele>
        <time>2026-05-09T07:47:17.974Z</time>
      </trkpt>
      <trkpt lat="52.156411" lon="6.738183">
        <ele>72.189964</ele>
        <time>2026-05-09T07:47:20.975Z</time>
      </trkpt>
      <trkpt lat="52.156316" lon="6.738081">
        <ele>72.133748</ele>
        <time>2026-05-09T07:47:23.980Z</time>
      </trkpt>
      <trkpt lat="52.156217" lon="6.737989">
        <ele>72.077432</ele>
        <time>2026-05-09T07:47:26.975Z</time>
      </trkpt>
      <trkpt lat="52.156117" lon="6.737879">
        <ele>71.998602</ele>
        <time>2026-05-09T07:47:29.978Z</time>
      </trkpt>
      <trkpt lat="52.156034" lon="6.737767">
        <ele>71.885922</ele>
        <time>2026-05-09T07:47:32.979Z</time>
      </trkpt>
      <trkpt lat="52.155964" lon="6.737616">
        <ele>71.764498</ele>
        <time>2026-05-09T07:47:35.974Z</time>
      </trkpt>
      <trkpt lat="52.155914" lon="6.737432">
        <ele>71.635386</ele>
        <time>2026-05-09T07:47:38.979Z</time>
      </trkpt>
      <trkpt lat="52.155878" lon="6.737242">
        <ele>71.507806</ele>
        <time>2026-05-09T07:47:41.977Z</time>
      </trkpt>
      <trkpt lat="52.155869" lon="6.737052">
        <ele>71.385543</ele>
        <time>2026-05-09T07:47:44.978Z</time>
      </trkpt>
      <trkpt lat="52.155872" lon="6.736862">
        <ele>71.263603</ele>
        <time>2026-05-09T07:47:47.977Z</time>
      </trkpt>
      <trkpt lat="52.155877" lon="6.736686">
        <ele>71.150565</ele>
        <time>2026-05-09T07:47:50.976Z</time>
      </trkpt>
      <trkpt lat="52.155881" lon="6.736516">
        <ele>71.041416</ele>
        <time>2026-05-09T07:47:54.985Z</time>
      </trkpt>
      <trkpt lat="52.155783" lon="6.736420">
        <ele>70.921850</ele>
        <time>2026-05-09T07:47:58.984Z</time>
      </trkpt>
      <trkpt lat="52.155667" lon="6.736393">
        <ele>70.799313</ele>
        <time>2026-05-09T07:48:01.982Z</time>
      </trkpt>
      <trkpt lat="52.155547" lon="6.736359">
        <ele>70.671943</ele>
        <time>2026-05-09T07:48:04.977Z</time>
      </trkpt>
      <trkpt lat="52.155435" lon="6.736329">
        <ele>70.553249</ele>
        <time>2026-05-09T07:48:07.983Z</time>
      </trkpt>
      <trkpt lat="52.155332" lon="6.736302">
        <ele>70.444154</ele>
        <time>2026-05-09T07:48:10.969Z</time>
      </trkpt>
      <trkpt lat="52.155218" lon="6.736269">
        <ele>70.323074</ele>
        <time>2026-05-09T07:48:13.974Z</time>
      </trkpt>
      <trkpt lat="52.155127" lon="6.736240">
        <ele>70.226110</ele>
        <time>2026-05-09T07:48:15.973Z</time>
      </trkpt>
      <trkpt lat="52.155033" lon="6.736224">
        <ele>70.142342</ele>
        <time>2026-05-09T07:48:17.974Z</time>
      </trkpt>
      <trkpt lat="52.154936" lon="6.736229">
        <ele>70.097828</ele>
        <time>2026-05-09T07:48:19.975Z</time>
      </trkpt>
      <trkpt lat="52.154837" lon="6.736232">
        <ele>70.052410</ele>
        <time>2026-05-09T07:48:21.976Z</time>
      </trkpt>
      <trkpt lat="52.154743" lon="6.736232">
        <ele>70.009294</ele>
        <time>2026-05-09T07:48:23.970Z</time>
      </trkpt>
      <trkpt lat="52.154645" lon="6.736239">
        <ele>69.964300</ele>
        <time>2026-05-09T07:48:25.980Z</time>
      </trkpt>
      <trkpt lat="52.154545" lon="6.736245">
        <ele>69.918401</ele>
        <time>2026-05-09T07:48:27.979Z</time>
      </trkpt>
      <trkpt lat="52.154448" lon="6.736246">
        <ele>69.873908</ele>
        <time>2026-05-09T07:48:29.974Z</time>
      </trkpt>
      <trkpt lat="52.154346" lon="6.736245">
        <ele>69.827122</ele>
        <time>2026-05-09T07:48:31.976Z</time>
      </trkpt>
      <trkpt lat="52.154244" lon="6.736256">
        <ele>69.780234</ele>
        <time>2026-05-09T07:48:33.972Z</time>
      </trkpt>
      <trkpt lat="52.154146" lon="6.736261">
        <ele>69.735261</ele>
        <time>2026-05-09T07:48:35.982Z</time>
      </trkpt>
      <trkpt lat="52.154055" lon="6.736259">
        <ele>69.693517</ele>
        <time>2026-05-09T07:48:37.976Z</time>
      </trkpt>
      <trkpt lat="52.153960" lon="6.736262">
        <ele>69.649934</ele>
        <time>2026-05-09T07:48:39.986Z</time>
      </trkpt>
      <trkpt lat="52.153859" lon="6.736269">
        <ele>69.603565</ele>
        <time>2026-05-09T07:48:41.975Z</time>
      </trkpt>
      <trkpt lat="52.153762" lon="6.736279">
        <ele>69.558984</ele>
        <time>2026-05-09T07:48:43.975Z</time>
      </trkpt>
      <trkpt lat="52.153669" lon="6.736280">
        <ele>69.516326</ele>
        <time>2026-05-09T07:48:45.981Z</time>
      </trkpt>
      <trkpt lat="52.153570" lon="6.736280">
        <ele>69.470916</ele>
        <time>2026-05-09T07:48:47.987Z</time>
      </trkpt>
      <trkpt lat="52.153472" lon="6.736285">
        <ele>69.425943</ele>
        <time>2026-05-09T07:48:49.972Z</time>
      </trkpt>
      <trkpt lat="52.153380" lon="6.736290">
        <ele>69.383721</ele>
        <time>2026-05-09T07:48:51.975Z</time>
      </trkpt>
      <trkpt lat="52.153248" lon="6.736291">
        <ele>69.338103</ele>
        <time>2026-05-09T07:48:54.976Z</time>
      </trkpt>
      <trkpt lat="52.153157" lon="6.736295">
        <ele>69.401396</ele>
        <time>2026-05-09T07:48:56.981Z</time>
      </trkpt>
      <trkpt lat="52.153064" lon="6.736300">
        <ele>69.466093</ele>
        <time>2026-05-09T07:48:58.980Z</time>
      </trkpt>
      <trkpt lat="52.152970" lon="6.736310">
        <ele>69.531588</ele>
        <time>2026-05-09T07:49:00.975Z</time>
      </trkpt>
      <trkpt lat="52.152877" lon="6.736319">
        <ele>69.596363</ele>
        <time>2026-05-09T07:49:02.979Z</time>
      </trkpt>
      <trkpt lat="52.152748" lon="6.736325">
        <ele>69.686090</ele>
        <time>2026-05-09T07:49:05.981Z</time>
      </trkpt>
      <trkpt lat="52.152645" lon="6.736323">
        <ele>69.757709</ele>
        <time>2026-05-09T07:49:08.973Z</time>
      </trkpt>
      <trkpt lat="52.152551" lon="6.736331">
        <ele>69.823154</ele>
        <time>2026-05-09T07:49:12.980Z</time>
      </trkpt>
      <trkpt lat="52.152434" lon="6.736389">
        <ele>69.908181</ele>
        <time>2026-05-09T07:49:17.975Z</time>
      </trkpt>
      <trkpt lat="52.152323" lon="6.736430">
        <ele>69.987314</ele>
        <time>2026-05-09T07:49:20.983Z</time>
      </trkpt>
      <trkpt lat="52.152201" lon="6.736456">
        <ele>70.072860</ele>
        <time>2026-05-09T07:49:23.973Z</time>
      </trkpt>
      <trkpt lat="52.152076" lon="6.736487">
        <ele>70.160770</ele>
        <time>2026-05-09T07:49:26.980Z</time>
      </trkpt>
      <trkpt lat="52.151952" lon="6.736519">
        <ele>70.248059</ele>
        <time>2026-05-09T07:49:29.972Z</time>
      </trkpt>
      <trkpt lat="52.151827" lon="6.736554">
        <ele>70.336242</ele>
        <time>2026-05-09T07:49:32.975Z</time>
      </trkpt>
      <trkpt lat="52.151705" lon="6.736586">
        <ele>70.422158</ele>
        <time>2026-05-09T07:49:35.971Z</time>
      </trkpt>
      <trkpt lat="52.151579" lon="6.736618">
        <ele>70.510820</ele>
        <time>2026-05-09T07:49:38.970Z</time>
      </trkpt>
      <trkpt lat="52.151447" lon="6.736653">
        <ele>70.570561</ele>
        <time>2026-05-09T07:49:41.973Z</time>
      </trkpt>
      <trkpt lat="52.151357" lon="6.736674">
        <ele>70.546714</ele>
        <time>2026-05-09T07:49:43.987Z</time>
      </trkpt>
      <trkpt lat="52.151265" lon="6.736695">
        <ele>70.522348</ele>
        <time>2026-05-09T07:49:45.969Z</time>
      </trkpt>
      <trkpt lat="52.151133" lon="6.736706">
        <ele>70.487681</ele>
        <time>2026-05-09T07:49:48.969Z</time>
      </trkpt>
      <trkpt lat="52.151000" lon="6.736684">
        <ele>70.452617</ele>
        <time>2026-05-09T07:49:51.992Z</time>
      </trkpt>
      <trkpt lat="52.150909" lon="6.736666">
        <ele>70.428574</ele>
        <time>2026-05-09T07:49:53.971Z</time>
      </trkpt>
      <trkpt lat="52.150817" lon="6.736656">
        <ele>70.404390</ele>
        <time>2026-05-09T07:49:55.976Z</time>
      </trkpt>
      <trkpt lat="52.150691" lon="6.736609">
        <ele>70.370487</ele>
        <time>2026-05-09T07:49:58.975Z</time>
      </trkpt>
      <trkpt lat="52.150562" lon="6.736557">
        <ele>70.335632</ele>
        <time>2026-05-09T07:50:01.974Z</time>
      </trkpt>
      <trkpt lat="52.150438" lon="6.736522">
        <ele>70.302624</ele>
        <time>2026-05-09T07:50:04.981Z</time>
      </trkpt>
      <trkpt lat="52.150325" lon="6.736493">
        <ele>70.272620</ele>
        <time>2026-05-09T07:50:07.974Z</time>
      </trkpt>
      <trkpt lat="52.150221" lon="6.736461">
        <ele>70.244860</ele>
        <time>2026-05-09T07:50:14.980Z</time>
      </trkpt>
      <trkpt lat="52.150108" lon="6.736443">
        <ele>70.215080</ele>
        <time>2026-05-09T07:50:18.973Z</time>
      </trkpt>
      <trkpt lat="52.150028" lon="6.736332">
        <ele>70.187523</ele>
        <time>2026-05-09T07:50:21.981Z</time>
      </trkpt>
      <trkpt lat="52.150051" lon="6.736147">
        <ele>70.157144</ele>
        <time>2026-05-09T07:50:24.979Z</time>
      </trkpt>
      <trkpt lat="52.150074" lon="6.735947">
        <ele>70.124396</ele>
        <time>2026-05-09T07:50:27.974Z</time>
      </trkpt>
      <trkpt lat="52.150037" lon="6.735757">
        <ele>70.096030</ele>
        <time>2026-05-09T07:50:30.979Z</time>
      </trkpt>
      <trkpt lat="52.149946" lon="6.735602">
        <ele>70.069734</ele>
        <time>2026-05-09T07:50:33.978Z</time>
      </trkpt>
      <trkpt lat="52.149889" lon="6.735482">
        <ele>70.051131</ele>
        <time>2026-05-09T07:50:35.976Z</time>
      </trkpt>
      <trkpt lat="52.149837" lon="6.735352">
        <ele>70.032109</ele>
        <time>2026-05-09T07:50:37.976Z</time>
      </trkpt>
      <trkpt lat="52.149784" lon="6.735227">
        <ele>70.013484</ele>
        <time>2026-05-09T07:50:39.976Z</time>
      </trkpt>
      <trkpt lat="52.149712" lon="6.735123">
        <ele>69.994264</ele>
        <time>2026-05-09T07:50:41.977Z</time>
      </trkpt>
      <trkpt lat="52.149635" lon="6.735031">
        <ele>69.975190</ele>
        <time>2026-05-09T07:50:43.977Z</time>
      </trkpt>
      <trkpt lat="52.149556" lon="6.734951">
        <ele>69.956609</ele>
        <time>2026-05-09T07:50:45.976Z</time>
      </trkpt>
      <trkpt lat="52.149472" lon="6.734877">
        <ele>69.937533</ele>
        <time>2026-05-09T07:50:47.977Z</time>
      </trkpt>
      <trkpt lat="52.149383" lon="6.734802">
        <ele>69.917517</ele>
        <time>2026-05-09T07:50:49.977Z</time>
      </trkpt>
      <trkpt lat="52.149300" lon="6.734721">
        <ele>69.898190</ele>
        <time>2026-05-09T07:50:51.974Z</time>
      </trkpt>
      <trkpt lat="52.149226" lon="6.734631">
        <ele>69.879744</ele>
        <time>2026-05-09T07:50:53.976Z</time>
      </trkpt>
      <trkpt lat="52.149112" lon="6.734529">
        <ele>69.853763</ele>
        <time>2026-05-09T07:50:56.974Z</time>
      </trkpt>
      <trkpt lat="52.149033" lon="6.734413">
        <ele>69.832520</ele>
        <time>2026-05-09T07:50:59.974Z</time>
      </trkpt>
      <trkpt lat="52.149020" lon="6.734245">
        <ele>69.811762</ele>
        <time>2026-05-09T07:51:02.973Z</time>
      </trkpt>
      <trkpt lat="52.149037" lon="6.734036">
        <ele>69.785918</ele>
        <time>2026-05-09T07:51:05.974Z</time>
      </trkpt>
      <trkpt lat="52.149043" lon="6.733878">
        <ele>69.766513</ele>
        <time>2026-05-09T07:51:07.981Z</time>
      </trkpt>
      <trkpt lat="52.149054" lon="6.733724">
        <ele>69.752387</ele>
        <time>2026-05-09T07:51:09.980Z</time>
      </trkpt>
      <trkpt lat="52.149054" lon="6.733571">
        <ele>69.818988</ele>
        <time>2026-05-09T07:51:11.974Z</time>
      </trkpt>
      <trkpt lat="52.149051" lon="6.733418">
        <ele>69.885623</ele>
        <time>2026-05-09T07:51:13.980Z</time>
      </trkpt>
      <trkpt lat="52.149047" lon="6.733254">
        <ele>69.957068</ele>
        <time>2026-05-09T07:51:16.973Z</time>
      </trkpt>
      <trkpt lat="52.149038" lon="6.733107">
        <ele>70.021375</ele>
        <time>2026-05-09T07:51:20.975Z</time>
      </trkpt>
      <trkpt lat="52.149101" lon="6.732995">
        <ele>70.087514</ele>
        <time>2026-05-09T07:51:28.978Z</time>
      </trkpt>
      <trkpt lat="52.149205" lon="6.732996">
        <ele>70.161293</ele>
        <time>2026-05-09T07:51:34.971Z</time>
      </trkpt>
      <trkpt lat="52.149303" lon="6.732994">
        <ele>70.230821</ele>
        <time>2026-05-09T07:51:40.976Z</time>
      </trkpt>
      <trkpt lat="52.149207" lon="6.732992">
        <ele>70.298929</ele>
        <time>2026-05-09T07:51:59.969Z</time>
      </trkpt>
      <trkpt lat="52.149099" lon="6.732976">
        <ele>70.375861</ele>
        <time>2026-05-09T07:52:04.973Z</time>
      </trkpt>
      <trkpt lat="52.149034" lon="6.732820">
        <ele>70.457944</ele>
        <time>2026-05-09T07:52:08.972Z</time>
      </trkpt>
      <trkpt lat="52.148965" lon="6.732701">
        <ele>70.529213</ele>
        <time>2026-05-09T07:52:11.969Z</time>
      </trkpt>
      <trkpt lat="52.148897" lon="6.732571">
        <ele>70.603573</ele>
        <time>2026-05-09T07:52:14.974Z</time>
      </trkpt>
      <trkpt lat="52.148819" lon="6.732436">
        <ele>70.684290</ele>
        <time>2026-05-09T07:52:17.973Z</time>
      </trkpt>
      <trkpt lat="52.148743" lon="6.732301">
        <ele>70.764041</ele>
        <time>2026-05-09T07:52:20.971Z</time>
      </trkpt>
      <trkpt lat="52.148669" lon="6.732181">
        <ele>70.838098</ele>
        <time>2026-05-09T07:52:23.977Z</time>
      </trkpt>
      <trkpt lat="52.148592" lon="6.732081">
        <ele>70.907946</ele>
        <time>2026-05-09T07:52:26.974Z</time>
      </trkpt>
      <trkpt lat="52.148501" lon="6.732077">
        <ele>70.972526</ele>
        <time>2026-05-09T07:52:29.971Z</time>
      </trkpt>
      <trkpt lat="52.148404" lon="6.731948">
        <ele>70.959697</ele>
        <time>2026-05-09T07:52:33.977Z</time>
      </trkpt>
      <trkpt lat="52.148340" lon="6.731779">
        <ele>70.807315</ele>
        <time>2026-05-09T07:52:36.974Z</time>
      </trkpt>
      <trkpt lat="52.148270" lon="6.731595">
        <ele>70.641198</ele>
        <time>2026-05-09T07:52:39.976Z</time>
      </trkpt>
      <trkpt lat="52.148202" lon="6.731417">
        <ele>70.480311</ele>
        <time>2026-05-09T07:52:42.974Z</time>
      </trkpt>
      <trkpt lat="52.148155" lon="6.731286">
        <ele>70.363872</ele>
        <time>2026-05-09T07:52:44.974Z</time>
      </trkpt>
      <trkpt lat="52.148091" lon="6.731116">
        <ele>70.210836</ele>
        <time>2026-05-09T07:52:47.973Z</time>
      </trkpt>
      <trkpt lat="52.148043" lon="6.730991">
        <ele>70.097690</ele>
        <time>2026-05-09T07:52:49.974Z</time>
      </trkpt>
      <trkpt lat="52.147995" lon="6.730863">
        <ele>69.982585</ele>
        <time>2026-05-09T07:52:51.974Z</time>
      </trkpt>
      <trkpt lat="52.147927" lon="6.730687">
        <ele>69.822998</ele>
        <time>2026-05-09T07:52:54.969Z</time>
      </trkpt>
      <trkpt lat="52.147870" lon="6.730509">
        <ele>69.668936</ele>
        <time>2026-05-09T07:52:57.973Z</time>
      </trkpt>
      <trkpt lat="52.147807" lon="6.730352">
        <ele>69.524996</ele>
        <time>2026-05-09T07:53:00.971Z</time>
      </trkpt>
      <trkpt lat="52.147745" lon="6.730182">
        <ele>69.373252</ele>
        <time>2026-05-09T07:53:03.968Z</time>
      </trkpt>
      <trkpt lat="52.147675" lon="6.730000">
        <ele>69.208435</ele>
        <time>2026-05-09T07:53:06.973Z</time>
      </trkpt>
      <trkpt lat="52.147628" lon="6.729868">
        <ele>69.091333</ele>
        <time>2026-05-09T07:53:08.976Z</time>
      </trkpt>
      <trkpt lat="52.147575" lon="6.729737">
        <ele>68.970932</ele>
        <time>2026-05-09T07:53:10.972Z</time>
      </trkpt>
      <trkpt lat="52.147530" lon="6.729609">
        <ele>68.857737</ele>
        <time>2026-05-09T07:53:12.975Z</time>
      </trkpt>
      <trkpt lat="52.147480" lon="6.729476">
        <ele>68.789993</ele>
        <time>2026-05-09T07:53:14.974Z</time>
      </trkpt>
      <trkpt lat="52.147428" lon="6.729346">
        <ele>68.836449</ele>
        <time>2026-05-09T07:53:16.980Z</time>
      </trkpt>
      <trkpt lat="52.147379" lon="6.729222">
        <ele>68.880602</ele>
        <time>2026-05-09T07:53:18.977Z</time>
      </trkpt>
      <trkpt lat="52.147332" lon="6.729088">
        <ele>68.926807</ele>
        <time>2026-05-09T07:53:20.981Z</time>
      </trkpt>
      <trkpt lat="52.147280" lon="6.728955">
        <ele>68.974018</ele>
        <time>2026-05-09T07:53:22.980Z</time>
      </trkpt>
      <trkpt lat="52.147226" lon="6.728823">
        <ele>69.021511</ele>
        <time>2026-05-09T07:53:24.986Z</time>
      </trkpt>
      <trkpt lat="52.147172" lon="6.728695">
        <ele>69.068012</ele>
        <time>2026-05-09T07:53:26.977Z</time>
      </trkpt>
      <trkpt lat="52.147098" lon="6.728515">
        <ele>69.132873</ele>
        <time>2026-05-09T07:53:29.980Z</time>
      </trkpt>
      <trkpt lat="52.147047" lon="6.728385">
        <ele>69.179065</ele>
        <time>2026-05-09T07:53:31.977Z</time>
      </trkpt>
      <trkpt lat="52.146996" lon="6.728262">
        <ele>69.223505</ele>
        <time>2026-05-09T07:53:33.975Z</time>
      </trkpt>
      <trkpt lat="52.146930" lon="6.728095">
        <ele>69.282971</ele>
        <time>2026-05-09T07:53:36.974Z</time>
      </trkpt>
      <trkpt lat="52.146864" lon="6.727943">
        <ele>69.338715</ele>
        <time>2026-05-09T07:53:39.971Z</time>
      </trkpt>
      <trkpt lat="52.146790" lon="6.727788">
        <ele>69.397506</ele>
        <time>2026-05-09T07:53:42.977Z</time>
      </trkpt>
      <trkpt lat="52.146714" lon="6.727629">
        <ele>69.457842</ele>
        <time>2026-05-09T07:53:45.976Z</time>
      </trkpt>
      <trkpt lat="52.146668" lon="6.727496">
        <ele>69.503547</ele>
        <time>2026-05-09T07:53:48.983Z</time>
      </trkpt>
      <trkpt lat="52.146609" lon="6.727358">
        <ele>69.553899</ele>
        <time>2026-05-09T07:53:52.978Z</time>
      </trkpt>
      <trkpt lat="52.146522" lon="6.727439">
        <ele>69.602781</ele>
        <time>2026-05-09T07:53:57.975Z</time>
      </trkpt>
      <trkpt lat="52.146402" lon="6.727430">
        <ele>69.638814</ele>
        <time>2026-05-09T07:54:01.982Z</time>
      </trkpt>
      <trkpt lat="52.146288" lon="6.727428">
        <ele>69.546523</ele>
        <time>2026-05-09T07:54:04.976Z</time>
      </trkpt>
      <trkpt lat="52.146196" lon="6.727410">
        <ele>69.471513</ele>
        <time>2026-05-09T07:54:07.973Z</time>
      </trkpt>
      <trkpt lat="52.146066" lon="6.727428">
        <ele>69.365896</ele>
        <time>2026-05-09T07:54:10.981Z</time>
      </trkpt>
      <trkpt lat="52.145956" lon="6.727445">
        <ele>69.276449</ele>
        <time>2026-05-09T07:54:13.975Z</time>
      </trkpt>
      <trkpt lat="52.145840" lon="6.727445">
        <ele>69.182544</ele>
        <time>2026-05-09T07:54:16.974Z</time>
      </trkpt>
      <trkpt lat="52.145704" lon="6.727445">
        <ele>69.072450</ele>
        <time>2026-05-09T07:54:19.972Z</time>
      </trkpt>
      <trkpt lat="52.145606" lon="6.727463">
        <ele>68.992614</ele>
        <time>2026-05-09T07:54:21.972Z</time>
      </trkpt>
      <trkpt lat="52.145470" lon="6.727484">
        <ele>68.882026</ele>
        <time>2026-05-09T07:54:24.972Z</time>
      </trkpt>
      <trkpt lat="52.145375" lon="6.727488">
        <ele>68.805096</ele>
        <time>2026-05-09T07:54:26.979Z</time>
      </trkpt>
      <trkpt lat="52.145272" lon="6.727481">
        <ele>68.721643</ele>
        <time>2026-05-09T07:54:28.979Z</time>
      </trkpt>
      <trkpt lat="52.145177" lon="6.727464">
        <ele>68.644276</ele>
        <time>2026-05-09T07:54:30.977Z</time>
      </trkpt>
      <trkpt lat="52.145085" lon="6.727438">
        <ele>68.568689</ele>
        <time>2026-05-09T07:54:32.974Z</time>
      </trkpt>
      <trkpt lat="52.144991" lon="6.727423">
        <ele>68.492230</ele>
        <time>2026-05-09T07:54:34.971Z</time>
      </trkpt>
      <trkpt lat="52.144894" lon="6.727420">
        <ele>68.413692</ele>
        <time>2026-05-09T07:54:36.976Z</time>
      </trkpt>
      <trkpt lat="52.144793" lon="6.727433">
        <ele>68.331676</ele>
        <time>2026-05-09T07:54:38.968Z</time>
      </trkpt>
      <trkpt lat="52.144695" lon="6.727469">
        <ele>68.250352</ele>
        <time>2026-05-09T07:54:40.971Z</time>
      </trkpt>
      <trkpt lat="52.144595" lon="6.727507">
        <ele>68.212386</ele>
        <time>2026-05-09T07:54:42.972Z</time>
      </trkpt>
      <trkpt lat="52.144494" lon="6.727546">
        <ele>68.256416</ele>
        <time>2026-05-09T07:54:44.976Z</time>
      </trkpt>
      <trkpt lat="52.144393" lon="6.727581">
        <ele>68.300217</ele>
        <time>2026-05-09T07:54:46.972Z</time>
      </trkpt>
      <trkpt lat="52.144298" lon="6.727607">
        <ele>68.341080</ele>
        <time>2026-05-09T07:54:48.976Z</time>
      </trkpt>
      <trkpt lat="52.144198" lon="6.727627">
        <ele>68.383818</ele>
        <time>2026-05-09T07:54:50.976Z</time>
      </trkpt>
      <trkpt lat="52.144099" lon="6.727647">
        <ele>68.426134</ele>
        <time>2026-05-09T07:54:52.974Z</time>
      </trkpt>
      <trkpt lat="52.143997" lon="6.727661">
        <ele>68.469555</ele>
        <time>2026-05-09T07:54:54.973Z</time>
      </trkpt>
      <trkpt lat="52.143900" lon="6.727661">
        <ele>68.510702</ele>
        <time>2026-05-09T07:54:56.968Z</time>
      </trkpt>
      <trkpt lat="52.143808" lon="6.727668">
        <ele>68.549770</ele>
        <time>2026-05-09T07:54:58.973Z</time>
      </trkpt>
      <trkpt lat="52.143714" lon="6.727690">
        <ele>68.590053</ele>
        <time>2026-05-09T07:55:00.976Z</time>
      </trkpt>
      <trkpt lat="52.143622" lon="6.727706">
        <ele>68.629301</ele>
        <time>2026-05-09T07:55:02.973Z</time>
      </trkpt>
      <trkpt lat="52.143494" lon="6.727757">
        <ele>68.685197</ele>
        <time>2026-05-09T07:55:05.977Z</time>
      </trkpt>
      <trkpt lat="52.143401" lon="6.727755">
        <ele>68.724650</ele>
        <time>2026-05-09T07:55:07.975Z</time>
      </trkpt>
      <trkpt lat="52.143306" lon="6.727740">
        <ele>68.765137</ele>
        <time>2026-05-09T07:55:09.980Z</time>
      </trkpt>
      <trkpt lat="52.143212" lon="6.727706">
        <ele>68.805982</ele>
        <time>2026-05-09T07:55:11.980Z</time>
      </trkpt>
      <trkpt lat="52.143118" lon="6.727705">
        <ele>68.845857</ele>
        <time>2026-05-09T07:55:13.973Z</time>
      </trkpt>
      <trkpt lat="52.143022" lon="6.727719">
        <ele>68.886742</ele>
        <time>2026-05-09T07:55:15.973Z</time>
      </trkpt>
      <trkpt lat="52.142927" lon="6.727712">
        <ele>68.927081</ele>
        <time>2026-05-09T07:55:17.975Z</time>
      </trkpt>
      <trkpt lat="52.142828" lon="6.727703">
        <ele>68.967171</ele>
        <time>2026-05-09T07:55:19.975Z</time>
      </trkpt>
      <trkpt lat="52.142724" lon="6.727696">
        <ele>69.001980</ele>
        <time>2026-05-09T07:55:21.974Z</time>
      </trkpt>
      <trkpt lat="52.142621" lon="6.727689">
        <ele>69.036454</ele>
        <time>2026-05-09T07:55:23.973Z</time>
      </trkpt>
      <trkpt lat="52.142522" lon="6.727690">
        <ele>69.069562</ele>
        <time>2026-05-09T07:55:25.972Z</time>
      </trkpt>
      <trkpt lat="52.142424" lon="6.727688">
        <ele>69.102337</ele>
        <time>2026-05-09T07:55:27.979Z</time>
      </trkpt>
      <trkpt lat="52.142321" lon="6.727686">
        <ele>69.136784</ele>
        <time>2026-05-09T07:55:29.975Z</time>
      </trkpt>
      <trkpt lat="52.142216" lon="6.727678">
        <ele>69.171936</ele>
        <time>2026-05-09T07:55:31.971Z</time>
      </trkpt>
      <trkpt lat="52.142114" lon="6.727673">
        <ele>69.206061</ele>
        <time>2026-05-09T07:55:33.977Z</time>
      </trkpt>
      <trkpt lat="52.142016" lon="6.727666">
        <ele>69.238866</ele>
        <time>2026-05-09T07:55:35.973Z</time>
      </trkpt>
      <trkpt lat="52.141911" lon="6.727663">
        <ele>69.273984</ele>
        <time>2026-05-09T07:55:37.977Z</time>
      </trkpt>
      <trkpt lat="52.141811" lon="6.727660">
        <ele>69.307431</ele>
        <time>2026-05-09T07:55:39.977Z</time>
      </trkpt>
      <trkpt lat="52.141717" lon="6.727664">
        <ele>69.338877</ele>
        <time>2026-05-09T07:55:41.977Z</time>
      </trkpt>
      <trkpt lat="52.141585" lon="6.727649">
        <ele>69.383127</ele>
        <time>2026-05-09T07:55:44.975Z</time>
      </trkpt>
      <trkpt lat="52.141460" lon="6.727588">
        <ele>69.426763</ele>
        <time>2026-05-09T07:55:47.983Z</time>
      </trkpt>
      <trkpt lat="52.141373" lon="6.727530">
        <ele>69.458198</ele>
        <time>2026-05-09T07:55:49.971Z</time>
      </trkpt>
      <trkpt lat="52.141272" lon="6.727546">
        <ele>69.492133</ele>
        <time>2026-05-09T07:55:51.985Z</time>
      </trkpt>
      <trkpt lat="52.141182" lon="6.727642">
        <ele>69.528106</ele>
        <time>2026-05-09T07:55:53.974Z</time>
      </trkpt>
      <trkpt lat="52.141097" lon="6.727743">
        <ele>69.563779</ele>
        <time>2026-05-09T07:55:55.985Z</time>
      </trkpt>
      <trkpt lat="52.141002" lon="6.727793">
        <ele>69.605531</ele>
        <time>2026-05-09T07:55:57.976Z</time>
      </trkpt>
      <trkpt lat="52.140904" lon="6.727820">
        <ele>69.647098</ele>
        <time>2026-05-09T07:55:59.978Z</time>
      </trkpt>
      <trkpt lat="52.140799" lon="6.727848">
        <ele>69.691594</ele>
        <time>2026-05-09T07:56:01.974Z</time>
      </trkpt>
      <trkpt lat="52.140698" lon="6.727872">
        <ele>69.734281</ele>
        <time>2026-05-09T07:56:03.974Z</time>
      </trkpt>
      <trkpt lat="52.140595" lon="6.727901">
        <ele>69.777995</ele>
        <time>2026-05-09T07:56:05.978Z</time>
      </trkpt>
      <trkpt lat="52.140493" lon="6.727935">
        <ele>69.821537</ele>
        <time>2026-05-09T07:56:07.974Z</time>
      </trkpt>
      <trkpt lat="52.140390" lon="6.727950">
        <ele>69.864785</ele>
        <time>2026-05-09T07:56:09.973Z</time>
      </trkpt>
      <trkpt lat="52.140284" lon="6.727961">
        <ele>69.909205</ele>
        <time>2026-05-09T07:56:11.976Z</time>
      </trkpt>
      <trkpt lat="52.140185" lon="6.727985">
        <ele>69.951064</ele>
        <time>2026-05-09T07:56:13.979Z</time>
      </trkpt>
      <trkpt lat="52.140088" lon="6.728008">
        <ele>69.992058</ele>
        <time>2026-05-09T07:56:15.973Z</time>
      </trkpt>
      <trkpt lat="52.139995" lon="6.728030">
        <ele>70.031360</ele>
        <time>2026-05-09T07:56:17.979Z</time>
      </trkpt>
      <trkpt lat="52.139904" lon="6.728047">
        <ele>70.069667</ele>
        <time>2026-05-09T07:56:19.979Z</time>
      </trkpt>
      <trkpt lat="52.139813" lon="6.728065">
        <ele>70.108004</ele>
        <time>2026-05-09T07:56:21.972Z</time>
      </trkpt>
      <trkpt lat="52.139720" lon="6.728083">
        <ele>70.147171</ele>
        <time>2026-05-09T07:56:23.977Z</time>
      </trkpt>
      <trkpt lat="52.139621" lon="6.728109">
        <ele>70.189109</ele>
        <time>2026-05-09T07:56:25.974Z</time>
      </trkpt>
      <trkpt lat="52.139524" lon="6.728130">
        <ele>70.230032</ele>
        <time>2026-05-09T07:56:27.977Z</time>
      </trkpt>
      <trkpt lat="52.139426" lon="6.728159">
        <ele>70.271688</ele>
        <time>2026-05-09T07:56:29.978Z</time>
      </trkpt>
      <trkpt lat="52.139329" lon="6.728183">
        <ele>70.312720</ele>
        <time>2026-05-09T07:56:31.986Z</time>
      </trkpt>
      <trkpt lat="52.139108" lon="6.728277">
        <ele>70.390865</ele>
        <time>2026-05-09T07:57:19.973Z</time>
      </trkpt>
      <trkpt lat="52.139016" lon="6.728390">
        <ele>70.430206</ele>
        <time>2026-05-09T07:57:22.974Z</time>
      </trkpt>
      <trkpt lat="52.138914" lon="6.728508">
        <ele>70.472923</ele>
        <time>2026-05-09T07:57:25.978Z</time>
      </trkpt>
      <trkpt lat="52.138815" lon="6.728629">
        <ele>70.515183</ele>
        <time>2026-05-09T07:57:28.974Z</time>
      </trkpt>
      <trkpt lat="52.138712" lon="6.728738">
        <ele>70.557122</ele>
        <time>2026-05-09T07:57:31.979Z</time>
      </trkpt>
      <trkpt lat="52.138605" lon="6.728863">
        <ele>70.602081</ele>
        <time>2026-05-09T07:57:34.973Z</time>
      </trkpt>
      <trkpt lat="52.138493" lon="6.728995">
        <ele>70.649282</ele>
        <time>2026-05-09T07:57:37.976Z</time>
      </trkpt>
      <trkpt lat="52.138416" lon="6.729085">
        <ele>70.681642</ele>
        <time>2026-05-09T07:57:39.975Z</time>
      </trkpt>
      <trkpt lat="52.138306" lon="6.729214">
        <ele>70.727922</ele>
        <time>2026-05-09T07:57:42.975Z</time>
      </trkpt>
      <trkpt lat="52.138228" lon="6.729306">
        <ele>70.760803</ele>
        <time>2026-05-09T07:57:44.976Z</time>
      </trkpt>
      <trkpt lat="52.138156" lon="6.729396">
        <ele>70.791791</ele>
        <time>2026-05-09T07:57:46.978Z</time>
      </trkpt>
      <trkpt lat="52.138077" lon="6.729490">
        <ele>70.825195</ele>
        <time>2026-05-09T07:57:48.977Z</time>
      </trkpt>
      <trkpt lat="52.137994" lon="6.729585">
        <ele>70.859832</ele>
        <time>2026-05-09T07:57:50.977Z</time>
      </trkpt>
      <trkpt lat="52.137906" lon="6.729680">
        <ele>70.895879</ele>
        <time>2026-05-09T07:57:52.970Z</time>
      </trkpt>
      <trkpt lat="52.137824" lon="6.729778">
        <ele>70.930345</ele>
        <time>2026-05-09T07:57:54.978Z</time>
      </trkpt>
      <trkpt lat="52.137741" lon="6.729868">
        <ele>70.961321</ele>
        <time>2026-05-09T07:57:56.973Z</time>
      </trkpt>
      <trkpt lat="52.137658" lon="6.729961">
        <ele>70.992618</ele>
        <time>2026-05-09T07:57:58.976Z</time>
      </trkpt>
      <trkpt lat="52.137579" lon="6.730052">
        <ele>71.022677</ele>
        <time>2026-05-09T07:58:00.975Z</time>
      </trkpt>
      <trkpt lat="52.137506" lon="6.730144">
        <ele>71.051350</ele>
        <time>2026-05-09T07:58:02.973Z</time>
      </trkpt>
      <trkpt lat="52.137390" lon="6.730257">
        <ele>71.093341</ele>
        <time>2026-05-09T07:58:05.974Z</time>
      </trkpt>
      <trkpt lat="52.137311" lon="6.730338">
        <ele>71.122341</ele>
        <time>2026-05-09T07:58:07.973Z</time>
      </trkpt>
      <trkpt lat="52.137236" lon="6.730425">
        <ele>71.150945</ele>
        <time>2026-05-09T07:58:09.979Z</time>
      </trkpt>
      <trkpt lat="52.137135" lon="6.730530">
        <ele>71.188168</ele>
        <time>2026-05-09T07:58:12.973Z</time>
      </trkpt>
      <trkpt lat="52.137045" lon="6.730610">
        <ele>71.220021</ele>
        <time>2026-05-09T07:58:15.981Z</time>
      </trkpt>
      <trkpt lat="52.136950" lon="6.730684">
        <ele>71.252736</ele>
        <time>2026-05-09T07:58:19.973Z</time>
      </trkpt>
      <trkpt lat="52.136859" lon="6.730762">
        <ele>71.284683</ele>
        <time>2026-05-09T07:58:28.972Z</time>
      </trkpt>
      <trkpt lat="52.136766" lon="6.730728">
        <ele>71.314295</ele>
        <time>2026-05-09T07:58:36.974Z</time>
      </trkpt>
      <trkpt lat="52.136788" lon="6.730873">
        <ele>71.342778</ele>
        <time>2026-05-09T08:00:10.980Z</time>
      </trkpt>
      <trkpt lat="52.136723" lon="6.730985">
        <ele>71.372172</ele>
        <time>2026-05-09T08:00:16.978Z</time>
      </trkpt>
      <trkpt lat="52.136659" lon="6.731108">
        <ele>71.402921</ele>
        <time>2026-05-09T08:00:21.980Z</time>
      </trkpt>
      <trkpt lat="52.136554" lon="6.731096">
        <ele>71.435624</ele>
        <time>2026-05-09T08:00:27.976Z</time>
      </trkpt>
      <trkpt lat="52.136380" lon="6.731002">
        <ele>71.496968</ele>
        <time>2026-05-09T08:01:36.974Z</time>
      </trkpt>
      <trkpt lat="52.136283" lon="6.730907">
        <ele>71.557710</ele>
        <time>2026-05-09T08:02:20.973Z</time>
      </trkpt>
      <trkpt lat="52.136325" lon="6.730769">
        <ele>71.608452</ele>
        <time>2026-05-09T08:02:37.974Z</time>
      </trkpt>
      <trkpt lat="52.136414" lon="6.730813">
        <ele>71.658370</ele>
        <time>2026-05-09T08:02:51.972Z</time>
      </trkpt>
      <trkpt lat="52.136343" lon="6.730716">
        <ele>71.708100</ele>
        <time>2026-05-09T08:06:29.971Z</time>
      </trkpt>
      <trkpt lat="52.136268" lon="6.730613">
        <ele>71.760746</ele>
        <time>2026-05-09T08:06:41.971Z</time>
      </trkpt>
      <trkpt lat="52.136170" lon="6.730605">
        <ele>71.813409</ele>
        <time>2026-05-09T08:06:49.981Z</time>
      </trkpt>
      <trkpt lat="52.136095" lon="6.730727">
        <ele>71.870290</ele>
        <time>2026-05-09T08:06:55.979Z</time>
      </trkpt>
      <trkpt lat="52.136068" lon="6.730884">
        <ele>71.924001</ele>
        <time>2026-05-09T08:07:01.976Z</time>
      </trkpt>
      <trkpt lat="52.135973" lon="6.730874">
        <ele>71.975094</ele>
        <time>2026-05-09T08:07:09.975Z</time>
      </trkpt>
      <trkpt lat="52.135884" lon="6.730784">
        <ele>72.031314</ele>
        <time>2026-05-09T08:07:13.969Z</time>
      </trkpt>
      <trkpt lat="52.135787" lon="6.730722">
        <ele>72.087238</ele>
        <time>2026-05-09T08:07:16.981Z</time>
      </trkpt>
      <trkpt lat="52.135671" lon="6.730685">
        <ele>72.150677</ele>
        <time>2026-05-09T08:07:19.971Z</time>
      </trkpt>
      <trkpt lat="52.135550" lon="6.730655">
        <ele>72.216366</ele>
        <time>2026-05-09T08:07:22.980Z</time>
      </trkpt>
      <trkpt lat="52.135437" lon="6.730646">
        <ele>72.277086</ele>
        <time>2026-05-09T08:07:25.974Z</time>
      </trkpt>
      <trkpt lat="52.135330" lon="6.730651">
        <ele>72.334537</ele>
        <time>2026-05-09T08:07:28.981Z</time>
      </trkpt>
      <trkpt lat="52.135215" lon="6.730653">
        <ele>72.396262</ele>
        <time>2026-05-09T08:07:31.978Z</time>
      </trkpt>
      <trkpt lat="52.135099" lon="6.730691">
        <ele>72.476464</ele>
        <time>2026-05-09T08:07:34.978Z</time>
      </trkpt>
      <trkpt lat="52.134983" lon="6.730742">
        <ele>72.677557</ele>
        <time>2026-05-09T08:07:37.978Z</time>
      </trkpt>
      <trkpt lat="52.134886" lon="6.730802">
        <ele>72.851213</ele>
        <time>2026-05-09T08:07:40.978Z</time>
      </trkpt>
      <trkpt lat="52.134765" lon="6.730839">
        <ele>73.057265</ele>
        <time>2026-05-09T08:07:44.985Z</time>
      </trkpt>
      <trkpt lat="52.134638" lon="6.730854">
        <ele>73.270382</ele>
        <time>2026-05-09T08:07:47.976Z</time>
      </trkpt>
      <trkpt lat="52.134548" lon="6.730849">
        <ele>73.421102</ele>
        <time>2026-05-09T08:07:49.977Z</time>
      </trkpt>
      <trkpt lat="52.134419" lon="6.730827">
        <ele>73.638187</ele>
        <time>2026-05-09T08:07:52.985Z</time>
      </trkpt>
      <trkpt lat="52.134317" lon="6.730749">
        <ele>73.826775</ele>
        <time>2026-05-09T08:07:55.984Z</time>
      </trkpt>
      <trkpt lat="52.134211" lon="6.730655">
        <ele>74.028766</ele>
        <time>2026-05-09T08:07:58.977Z</time>
      </trkpt>
      <trkpt lat="52.134100" lon="6.730535">
        <ele>74.251728</ele>
        <time>2026-05-09T08:08:01.973Z</time>
      </trkpt>
      <trkpt lat="52.134018" lon="6.730463">
        <ele>74.407634</ele>
        <time>2026-05-09T08:08:03.974Z</time>
      </trkpt>
      <trkpt lat="52.133939" lon="6.730385">
        <ele>74.562242</ele>
        <time>2026-05-09T08:08:05.976Z</time>
      </trkpt>
      <trkpt lat="52.133862" lon="6.730307">
        <ele>74.713998</ele>
        <time>2026-05-09T08:08:07.982Z</time>
      </trkpt>
      <trkpt lat="52.133784" lon="6.730226">
        <ele>74.868812</ele>
        <time>2026-05-09T08:08:09.967Z</time>
      </trkpt>
      <trkpt lat="52.133701" lon="6.730138">
        <ele>75.034556</ele>
        <time>2026-05-09T08:08:11.975Z</time>
      </trkpt>
      <trkpt lat="52.133582" lon="6.730026">
        <ele>75.264573</ele>
        <time>2026-05-09T08:08:14.980Z</time>
      </trkpt>
      <trkpt lat="52.133504" lon="6.729941">
        <ele>75.421635</ele>
        <time>2026-05-09T08:08:16.975Z</time>
      </trkpt>
      <trkpt lat="52.133392" lon="6.729820">
        <ele>75.394997</ele>
        <time>2026-05-09T08:08:19.975Z</time>
      </trkpt>
      <trkpt lat="52.133306" lon="6.729732">
        <ele>75.332969</ele>
        <time>2026-05-09T08:08:21.974Z</time>
      </trkpt>
      <trkpt lat="52.133219" lon="6.729658">
        <ele>75.273026</ele>
        <time>2026-05-09T08:08:23.979Z</time>
      </trkpt>
      <trkpt lat="52.133139" lon="6.729576">
        <ele>75.215298</ele>
        <time>2026-05-09T08:08:25.978Z</time>
      </trkpt>
      <trkpt lat="52.133057" lon="6.729494">
        <ele>75.156533</ele>
        <time>2026-05-09T08:08:27.975Z</time>
      </trkpt>
      <trkpt lat="52.132981" lon="6.729416">
        <ele>75.101671</ele>
        <time>2026-05-09T08:08:29.972Z</time>
      </trkpt>
      <trkpt lat="52.132885" lon="6.729289">
        <ele>75.026140</ele>
        <time>2026-05-09T08:08:32.974Z</time>
      </trkpt>
      <trkpt lat="52.132827" lon="6.729156">
        <ele>74.964975</ele>
        <time>2026-05-09T08:08:35.979Z</time>
      </trkpt>
      <trkpt lat="52.132726" lon="6.729098">
        <ele>74.899567</ele>
        <time>2026-05-09T08:08:38.978Z</time>
      </trkpt>
      <trkpt lat="52.132622" lon="6.729044">
        <ele>74.832899</ele>
        <time>2026-05-09T08:08:41.974Z</time>
      </trkpt>
      <trkpt lat="52.132537" lon="6.728900">
        <ele>74.758001</ele>
        <time>2026-05-09T08:08:44.979Z</time>
      </trkpt>
      <trkpt lat="52.132427" lon="6.728771">
        <ele>74.675219</ele>
        <time>2026-05-09T08:08:47.980Z</time>
      </trkpt>
      <trkpt lat="52.132348" lon="6.728689">
        <ele>74.618007</ele>
        <time>2026-05-09T08:08:49.977Z</time>
      </trkpt>
      <trkpt lat="52.132266" lon="6.728606">
        <ele>74.559044</ele>
        <time>2026-05-09T08:08:51.984Z</time>
      </trkpt>
      <trkpt lat="52.132190" lon="6.728524">
        <ele>74.503369</ele>
        <time>2026-05-09T08:08:53.977Z</time>
      </trkpt>
      <trkpt lat="52.132105" lon="6.728443">
        <ele>74.443224</ele>
        <time>2026-05-09T08:08:55.976Z</time>
      </trkpt>
      <trkpt lat="52.132023" lon="6.728368">
        <ele>74.385787</ele>
        <time>2026-05-09T08:08:57.977Z</time>
      </trkpt>
      <trkpt lat="52.131945" lon="6.728291">
        <ele>74.274018</ele>
        <time>2026-05-09T08:08:59.975Z</time>
      </trkpt>
      <trkpt lat="52.131862" lon="6.728215">
        <ele>74.118889</ele>
        <time>2026-05-09T08:09:01.967Z</time>
      </trkpt>
      <trkpt lat="52.131783" lon="6.728130">
        <ele>73.964636</ele>
        <time>2026-05-09T08:09:03.974Z</time>
      </trkpt>
      <trkpt lat="52.131705" lon="6.728057">
        <ele>73.818072</ele>
        <time>2026-05-09T08:09:05.977Z</time>
      </trkpt>
      <trkpt lat="52.131586" lon="6.727947">
        <ele>73.595148</ele>
        <time>2026-05-09T08:09:08.976Z</time>
      </trkpt>
      <trkpt lat="52.131509" lon="6.727859">
        <ele>73.441900</ele>
        <time>2026-05-09T08:09:10.974Z</time>
      </trkpt>
      <trkpt lat="52.131423" lon="6.727775">
        <ele>73.278525</ele>
        <time>2026-05-09T08:09:12.982Z</time>
      </trkpt>
      <trkpt lat="52.131345" lon="6.727687">
        <ele>73.123939</ele>
        <time>2026-05-09T08:09:14.979Z</time>
      </trkpt>
      <trkpt lat="52.131253" lon="6.727604">
        <ele>72.952593</ele>
        <time>2026-05-09T08:09:16.990Z</time>
      </trkpt>
      <trkpt lat="52.131167" lon="6.727524">
        <ele>72.791239</ele>
        <time>2026-05-09T08:09:18.981Z</time>
      </trkpt>
      <trkpt lat="52.131089" lon="6.727439">
        <ele>72.638342</ele>
        <time>2026-05-09T08:09:20.982Z</time>
      </trkpt>
      <trkpt lat="52.131008" lon="6.727356">
        <ele>72.482432</ele>
        <time>2026-05-09T08:09:22.969Z</time>
      </trkpt>
      <trkpt lat="52.130927" lon="6.727277">
        <ele>72.328615</ele>
        <time>2026-05-09T08:09:24.973Z</time>
      </trkpt>
      <trkpt lat="52.130847" lon="6.727195">
        <ele>72.174617</ele>
        <time>2026-05-09T08:09:26.973Z</time>
      </trkpt>
      <trkpt lat="52.130736" lon="6.727079">
        <ele>71.959751</ele>
        <time>2026-05-09T08:09:29.980Z</time>
      </trkpt>
      <trkpt lat="52.130619" lon="6.726967">
        <ele>71.738648</ele>
        <time>2026-05-09T08:09:32.975Z</time>
      </trkpt>
      <trkpt lat="52.130535" lon="6.726877">
        <ele>71.574839</ele>
        <time>2026-05-09T08:09:34.974Z</time>
      </trkpt>
      <trkpt lat="52.130458" lon="6.726800">
        <ele>71.435037</ele>
        <time>2026-05-09T08:09:36.979Z</time>
      </trkpt>
      <trkpt lat="52.130378" lon="6.726720">
        <ele>71.485745</ele>
        <time>2026-05-09T08:09:38.971Z</time>
      </trkpt>
      <trkpt lat="52.130295" lon="6.726640">
        <ele>71.537842</ele>
        <time>2026-05-09T08:09:40.979Z</time>
      </trkpt>
      <trkpt lat="52.130214" lon="6.726566">
        <ele>71.588008</ele>
        <time>2026-05-09T08:09:42.977Z</time>
      </trkpt>
      <trkpt lat="52.130132" lon="6.726487">
        <ele>71.639471</ele>
        <time>2026-05-09T08:09:44.979Z</time>
      </trkpt>
      <trkpt lat="52.130053" lon="6.726408">
        <ele>71.689545</ele>
        <time>2026-05-09T08:09:46.977Z</time>
      </trkpt>
      <trkpt lat="52.129974" lon="6.726329">
        <ele>71.739620</ele>
        <time>2026-05-09T08:09:48.977Z</time>
      </trkpt>
      <trkpt lat="52.129896" lon="6.726246">
        <ele>71.789948</ele>
        <time>2026-05-09T08:09:50.979Z</time>
      </trkpt>
      <trkpt lat="52.129817" lon="6.726165">
        <ele>71.840373</ele>
        <time>2026-05-09T08:09:52.977Z</time>
      </trkpt>
      <trkpt lat="52.129736" lon="6.726077">
        <ele>71.892967</ele>
        <time>2026-05-09T08:09:54.973Z</time>
      </trkpt>
      <trkpt lat="52.129654" lon="6.725995">
        <ele>71.944943</ele>
        <time>2026-05-09T08:09:56.977Z</time>
      </trkpt>
      <trkpt lat="52.129573" lon="6.725917">
        <ele>71.995772</ele>
        <time>2026-05-09T08:09:58.978Z</time>
      </trkpt>
      <trkpt lat="52.129497" lon="6.725838">
        <ele>72.044473</ele>
        <time>2026-05-09T08:10:00.975Z</time>
      </trkpt>
      <trkpt lat="52.129416" lon="6.725758">
        <ele>72.095642</ele>
        <time>2026-05-09T08:10:02.976Z</time>
      </trkpt>
      <trkpt lat="52.129333" lon="6.725671">
        <ele>72.148959</ele>
        <time>2026-05-09T08:10:04.979Z</time>
      </trkpt>
      <trkpt lat="52.129256" lon="6.725595">
        <ele>72.197593</ele>
        <time>2026-05-09T08:10:06.976Z</time>
      </trkpt>
      <trkpt lat="52.129177" lon="6.725513">
        <ele>72.248195</ele>
        <time>2026-05-09T08:10:08.976Z</time>
      </trkpt>
      <trkpt lat="52.129096" lon="6.725433">
        <ele>72.299365</ele>
        <time>2026-05-09T08:10:10.975Z</time>
      </trkpt>
      <trkpt lat="52.129017" lon="6.725350">
        <ele>72.350146</ele>
        <time>2026-05-09T08:10:12.981Z</time>
      </trkpt>
      <trkpt lat="52.128936" lon="6.725268">
        <ele>72.401663</ele>
        <time>2026-05-09T08:10:14.982Z</time>
      </trkpt>
      <trkpt lat="52.128854" lon="6.725188">
        <ele>72.436516</ele>
        <time>2026-05-09T08:10:16.975Z</time>
      </trkpt>
      <trkpt lat="52.128774" lon="6.725105">
        <ele>72.470022</ele>
        <time>2026-05-09T08:10:18.976Z</time>
      </trkpt>
      <trkpt lat="52.128658" lon="6.724985">
        <ele>72.518564</ele>
        <time>2026-05-09T08:10:21.990Z</time>
      </trkpt>
      <trkpt lat="52.128576" lon="6.724907">
        <ele>72.552108</ele>
        <time>2026-05-09T08:10:23.975Z</time>
      </trkpt>
      <trkpt lat="52.128498" lon="6.724834">
        <ele>72.583886</ele>
        <time>2026-05-09T08:10:25.976Z</time>
      </trkpt>
      <trkpt lat="52.128387" lon="6.724725">
        <ele>72.629672</ele>
        <time>2026-05-09T08:10:28.975Z</time>
      </trkpt>
      <trkpt lat="52.128285" lon="6.724624">
        <ele>72.671839</ele>
        <time>2026-05-09T08:10:31.979Z</time>
      </trkpt>
      <trkpt lat="52.128189" lon="6.724533">
        <ele>72.711076</ele>
        <time>2026-05-09T08:10:34.979Z</time>
      </trkpt>
      <trkpt lat="52.128082" lon="6.724441">
        <ele>72.753816</ele>
        <time>2026-05-09T08:10:37.979Z</time>
      </trkpt>
      <trkpt lat="52.127964" lon="6.724336">
        <ele>72.801315</ele>
        <time>2026-05-09T08:10:40.977Z</time>
      </trkpt>
      <trkpt lat="52.127879" lon="6.724263">
        <ele>72.835259</ele>
        <time>2026-05-09T08:10:42.978Z</time>
      </trkpt>
      <trkpt lat="52.127797" lon="6.724191">
        <ele>72.868167</ele>
        <time>2026-05-09T08:10:44.979Z</time>
      </trkpt>
      <trkpt lat="52.127712" lon="6.724121">
        <ele>72.901813</ele>
        <time>2026-05-09T08:10:46.976Z</time>
      </trkpt>
      <trkpt lat="52.127628" lon="6.724048">
        <ele>72.935445</ele>
        <time>2026-05-09T08:10:48.978Z</time>
      </trkpt>
      <trkpt lat="52.127547" lon="6.723976">
        <ele>72.968042</ele>
        <time>2026-05-09T08:10:50.977Z</time>
      </trkpt>
      <trkpt lat="52.127462" lon="6.723909">
        <ele>73.001400</ele>
        <time>2026-05-09T08:10:52.976Z</time>
      </trkpt>
      <trkpt lat="52.127376" lon="6.723843">
        <ele>73.034983</ele>
        <time>2026-05-09T08:10:54.977Z</time>
      </trkpt>
      <trkpt lat="52.127296" lon="6.723773">
        <ele>73.081079</ele>
        <time>2026-05-09T08:10:56.970Z</time>
      </trkpt>
      <trkpt lat="52.127216" lon="6.723701">
        <ele>73.130205</ele>
        <time>2026-05-09T08:10:58.985Z</time>
      </trkpt>
      <trkpt lat="52.127136" lon="6.723628">
        <ele>73.179492</ele>
        <time>2026-05-09T08:11:00.970Z</time>
      </trkpt>
      <trkpt lat="52.127058" lon="6.723547">
        <ele>73.229212</ele>
        <time>2026-05-09T08:11:02.977Z</time>
      </trkpt>
      <trkpt lat="52.126981" lon="6.723466">
        <ele>73.278479</ele>
        <time>2026-05-09T08:11:04.975Z</time>
      </trkpt>
      <trkpt lat="52.126902" lon="6.723386">
        <ele>73.328478</ele>
        <time>2026-05-09T08:11:06.970Z</time>
      </trkpt>
      <trkpt lat="52.126820" lon="6.723307">
        <ele>73.379685</ele>
        <time>2026-05-09T08:11:08.977Z</time>
      </trkpt>
      <trkpt lat="52.126738" lon="6.723227">
        <ele>73.431060</ele>
        <time>2026-05-09T08:11:10.977Z</time>
      </trkpt>
      <trkpt lat="52.126660" lon="6.723154">
        <ele>73.479412</ele>
        <time>2026-05-09T08:11:12.974Z</time>
      </trkpt>
      <trkpt lat="52.126558" lon="6.723055">
        <ele>73.543231</ele>
        <time>2026-05-09T08:11:15.976Z</time>
      </trkpt>
      <trkpt lat="52.126469" lon="6.722971">
        <ele>73.598519</ele>
        <time>2026-05-09T08:11:18.981Z</time>
      </trkpt>
      <trkpt lat="52.126477" lon="6.722767">
        <ele>73.665972</ele>
        <time>2026-05-09T08:11:22.976Z</time>
      </trkpt>
      <trkpt lat="52.126516" lon="6.722552">
        <ele>73.739949</ele>
        <time>2026-05-09T08:11:25.976Z</time>
      </trkpt>
      <trkpt lat="52.126538" lon="6.722401">
        <ele>73.791160</ele>
        <time>2026-05-09T08:11:27.975Z</time>
      </trkpt>
      <trkpt lat="52.126564" lon="6.722246">
        <ele>73.844181</ele>
        <time>2026-05-09T08:11:29.974Z</time>
      </trkpt>
      <trkpt lat="52.126588" lon="6.722099">
        <ele>73.894374</ele>
        <time>2026-05-09T08:11:31.975Z</time>
      </trkpt>
      <trkpt lat="52.126614" lon="6.721942">
        <ele>73.948033</ele>
        <time>2026-05-09T08:11:33.979Z</time>
      </trkpt>
      <trkpt lat="52.126637" lon="6.721789">
        <ele>74.000011</ele>
        <time>2026-05-09T08:11:35.983Z</time>
      </trkpt>
      <trkpt lat="52.126661" lon="6.721637">
        <ele>74.115424</ele>
        <time>2026-05-09T08:11:37.978Z</time>
      </trkpt>
      <trkpt lat="52.126687" lon="6.721484">
        <ele>74.242125</ele>
        <time>2026-05-09T08:11:39.987Z</time>
      </trkpt>
      <trkpt lat="52.126711" lon="6.721327">
        <ele>74.371252</ele>
        <time>2026-05-09T08:11:41.988Z</time>
      </trkpt>
      <trkpt lat="52.126738" lon="6.721167">
        <ele>74.503683</ele>
        <time>2026-05-09T08:11:43.980Z</time>
      </trkpt>
      <trkpt lat="52.126762" lon="6.721019">
        <ele>74.625853</ele>
        <time>2026-05-09T08:11:45.986Z</time>
      </trkpt>
      <trkpt lat="52.126793" lon="6.720869">
        <ele>74.752168</ele>
        <time>2026-05-09T08:11:47.985Z</time>
      </trkpt>
      <trkpt lat="52.126814" lon="6.720713">
        <ele>74.879629</ele>
        <time>2026-05-09T08:11:49.977Z</time>
      </trkpt>
      <trkpt lat="52.126837" lon="6.720558">
        <ele>75.006896</ele>
        <time>2026-05-09T08:11:51.972Z</time>
      </trkpt>
      <trkpt lat="52.126862" lon="6.720407">
        <ele>75.131714</ele>
        <time>2026-05-09T08:11:53.976Z</time>
      </trkpt>
      <trkpt lat="52.126884" lon="6.720240">
        <ele>75.268029</ele>
        <time>2026-05-09T08:11:55.983Z</time>
      </trkpt>
      <trkpt lat="52.126908" lon="6.720079">
        <ele>75.400256</ele>
        <time>2026-05-09T08:11:57.986Z</time>
      </trkpt>
      <trkpt lat="52.126935" lon="6.719926">
        <ele>75.527309</ele>
        <time>2026-05-09T08:11:59.971Z</time>
      </trkpt>
      <trkpt lat="52.126958" lon="6.719713">
        <ele>75.699912</ele>
        <time>2026-05-09T08:12:02.976Z</time>
      </trkpt>
      <trkpt lat="52.126992" lon="6.719518">
        <ele>75.861695</ele>
        <time>2026-05-09T08:12:05.976Z</time>
      </trkpt>
      <trkpt lat="52.127014" lon="6.719371">
        <ele>75.982450</ele>
        <time>2026-05-09T08:12:07.978Z</time>
      </trkpt>
      <trkpt lat="52.127035" lon="6.719216">
        <ele>76.109130</ele>
        <time>2026-05-09T08:12:09.973Z</time>
      </trkpt>
      <trkpt lat="52.127060" lon="6.719071">
        <ele>76.229331</ele>
        <time>2026-05-09T08:12:11.978Z</time>
      </trkpt>
      <trkpt lat="52.127089" lon="6.718867">
        <ele>76.319737</ele>
        <time>2026-05-09T08:12:14.976Z</time>
      </trkpt>
      <trkpt lat="52.127111" lon="6.718718">
        <ele>76.258975</ele>
        <time>2026-05-09T08:12:16.977Z</time>
      </trkpt>
      <trkpt lat="52.127136" lon="6.718574">
        <ele>76.199642</ele>
        <time>2026-05-09T08:12:18.974Z</time>
      </trkpt>
      <trkpt lat="52.127160" lon="6.718426">
        <ele>76.138949</ele>
        <time>2026-05-09T08:12:20.976Z</time>
      </trkpt>
      <trkpt lat="52.127195" lon="6.718215">
        <ele>76.052291</ele>
        <time>2026-05-09T08:12:23.973Z</time>
      </trkpt>
      <trkpt lat="52.127221" lon="6.718053">
        <ele>75.985901</ele>
        <time>2026-05-09T08:12:25.979Z</time>
      </trkpt>
      <trkpt lat="52.127243" lon="6.717899">
        <ele>75.923211</ele>
        <time>2026-05-09T08:12:27.974Z</time>
      </trkpt>
      <trkpt lat="52.127262" lon="6.717739">
        <ele>75.858597</ele>
        <time>2026-05-09T08:12:29.975Z</time>
      </trkpt>
      <trkpt lat="52.127304" lon="6.717535">
        <ele>75.773287</ele>
        <time>2026-05-09T08:12:32.979Z</time>
      </trkpt>
      <trkpt lat="52.127327" lon="6.717384">
        <ele>75.711602</ele>
        <time>2026-05-09T08:12:34.973Z</time>
      </trkpt>
      <trkpt lat="52.127346" lon="6.717233">
        <ele>75.650488</ele>
        <time>2026-05-09T08:12:36.973Z</time>
      </trkpt>
      <trkpt lat="52.127364" lon="6.717083">
        <ele>75.589890</ele>
        <time>2026-05-09T08:12:38.982Z</time>
      </trkpt>
      <trkpt lat="52.127393" lon="6.716917">
        <ele>75.521460</ele>
        <time>2026-05-09T08:12:40.973Z</time>
      </trkpt>
      <trkpt lat="52.127408" lon="6.716756">
        <ele>75.456895</ele>
        <time>2026-05-09T08:12:42.980Z</time>
      </trkpt>
      <trkpt lat="52.127428" lon="6.716594">
        <ele>75.391379</ele>
        <time>2026-05-09T08:12:44.978Z</time>
      </trkpt>
      <trkpt lat="52.127451" lon="6.716448">
        <ele>75.331617</ele>
        <time>2026-05-09T08:12:46.975Z</time>
      </trkpt>
      <trkpt lat="52.127477" lon="6.716295">
        <ele>75.268673</ele>
        <time>2026-05-09T08:12:48.980Z</time>
      </trkpt>
      <trkpt lat="52.127497" lon="6.716131">
        <ele>75.202379</ele>
        <time>2026-05-09T08:12:50.977Z</time>
      </trkpt>
      <trkpt lat="52.127521" lon="6.715972">
        <ele>75.158973</ele>
        <time>2026-05-09T08:12:52.975Z</time>
      </trkpt>
      <trkpt lat="52.127545" lon="6.715822">
        <ele>75.126190</ele>
        <time>2026-05-09T08:12:54.975Z</time>
      </trkpt>
      <trkpt lat="52.127568" lon="6.715662">
        <ele>75.091437</ele>
        <time>2026-05-09T08:12:56.977Z</time>
      </trkpt>
      <trkpt lat="52.127593" lon="6.715511">
        <ele>75.058362</ele>
        <time>2026-05-09T08:12:58.977Z</time>
      </trkpt>
      <trkpt lat="52.127615" lon="6.715353">
        <ele>75.024098</ele>
        <time>2026-05-09T08:13:00.977Z</time>
      </trkpt>
      <trkpt lat="52.127642" lon="6.715195">
        <ele>74.989413</ele>
        <time>2026-05-09T08:13:02.981Z</time>
      </trkpt>
      <trkpt lat="52.127668" lon="6.715030">
        <ele>74.953386</ele>
        <time>2026-05-09T08:13:04.974Z</time>
      </trkpt>
      <trkpt lat="52.127690" lon="6.714866">
        <ele>74.917884</ele>
        <time>2026-05-09T08:13:06.976Z</time>
      </trkpt>
      <trkpt lat="52.127714" lon="6.714713">
        <ele>74.884487</ele>
        <time>2026-05-09T08:13:08.977Z</time>
      </trkpt>
      <trkpt lat="52.127741" lon="6.714557">
        <ele>74.850209</ele>
        <time>2026-05-09T08:13:10.975Z</time>
      </trkpt>
      <trkpt lat="52.127769" lon="6.714402">
        <ele>74.816039</ele>
        <time>2026-05-09T08:13:12.983Z</time>
      </trkpt>
      <trkpt lat="52.127808" lon="6.714237">
        <ele>74.778647</ele>
        <time>2026-05-09T08:13:14.981Z</time>
      </trkpt>
      <trkpt lat="52.127843" lon="6.714084">
        <ele>74.744117</ele>
        <time>2026-05-09T08:13:16.981Z</time>
      </trkpt>
      <trkpt lat="52.127885" lon="6.713928">
        <ele>74.708092</ele>
        <time>2026-05-09T08:13:18.981Z</time>
      </trkpt>
      <trkpt lat="52.127922" lon="6.713763">
        <ele>74.670941</ele>
        <time>2026-05-09T08:13:20.972Z</time>
      </trkpt>
      <trkpt lat="52.127960" lon="6.713599">
        <ele>74.633870</ele>
        <time>2026-05-09T08:13:22.975Z</time>
      </trkpt>
      <trkpt lat="52.128001" lon="6.713444">
        <ele>74.598176</ele>
        <time>2026-05-09T08:13:24.980Z</time>
      </trkpt>
      <trkpt lat="52.128036" lon="6.713292">
        <ele>74.563668</ele>
        <time>2026-05-09T08:13:26.979Z</time>
      </trkpt>
      <trkpt lat="52.128071" lon="6.713145">
        <ele>74.471984</ele>
        <time>2026-05-09T08:13:28.972Z</time>
      </trkpt>
      <trkpt lat="52.128101" lon="6.713002">
        <ele>74.384109</ele>
        <time>2026-05-09T08:13:30.972Z</time>
      </trkpt>
      <trkpt lat="52.128143" lon="6.712845">
        <ele>74.284523</ele>
        <time>2026-05-09T08:13:32.973Z</time>
      </trkpt>
      <trkpt lat="52.128179" lon="6.712702">
        <ele>74.194649</ele>
        <time>2026-05-09T08:13:34.978Z</time>
      </trkpt>
      <trkpt lat="52.128212" lon="6.712564">
        <ele>74.108530</ele>
        <time>2026-05-09T08:13:36.975Z</time>
      </trkpt>
      <trkpt lat="52.128262" lon="6.712377">
        <ele>73.989925</ele>
        <time>2026-05-09T08:13:39.987Z</time>
      </trkpt>
      <trkpt lat="52.128290" lon="6.712234">
        <ele>73.902644</ele>
        <time>2026-05-09T08:13:44.976Z</time>
      </trkpt>
      <trkpt lat="52.128350" lon="6.712005">
        <ele>73.757862</ele>
        <time>2026-05-09T08:15:11.980Z</time>
      </trkpt>
      <trkpt lat="52.128383" lon="6.711843">
        <ele>73.658609</ele>
        <time>2026-05-09T08:15:14.979Z</time>
      </trkpt>
      <trkpt lat="52.128420" lon="6.711676">
        <ele>73.555370</ele>
        <time>2026-05-09T08:15:17.978Z</time>
      </trkpt>
      <trkpt lat="52.128454" lon="6.711518">
        <ele>73.458013</ele>
        <time>2026-05-09T08:15:20.972Z</time>
      </trkpt>
      <trkpt lat="52.128501" lon="6.711340">
        <ele>73.345340</ele>
        <time>2026-05-09T08:15:23.973Z</time>
      </trkpt>
      <trkpt lat="52.128548" lon="6.711209">
        <ele>73.257110</ele>
        <time>2026-05-09T08:15:25.980Z</time>
      </trkpt>
      <trkpt lat="52.128588" lon="6.711065">
        <ele>73.165202</ele>
        <time>2026-05-09T08:15:27.975Z</time>
      </trkpt>
      <trkpt lat="52.128627" lon="6.710931">
        <ele>73.078969</ele>
        <time>2026-05-09T08:15:29.983Z</time>
      </trkpt>
      <trkpt lat="52.128662" lon="6.710796">
        <ele>72.993755</ele>
        <time>2026-05-09T08:15:31.975Z</time>
      </trkpt>
      <trkpt lat="52.128699" lon="6.710652">
        <ele>72.902982</ele>
        <time>2026-05-09T08:15:33.974Z</time>
      </trkpt>
      <trkpt lat="52.128732" lon="6.710498">
        <ele>72.897101</ele>
        <time>2026-05-09T08:15:35.977Z</time>
      </trkpt>
      <trkpt lat="52.128765" lon="6.710345">
        <ele>72.963812</ele>
        <time>2026-05-09T08:15:37.976Z</time>
      </trkpt>
      <trkpt lat="52.128801" lon="6.710197">
        <ele>73.029300</ele>
        <time>2026-05-09T08:15:39.975Z</time>
      </trkpt>
      <trkpt lat="52.128835" lon="6.710043">
        <ele>73.096623</ele>
        <time>2026-05-09T08:15:41.971Z</time>
      </trkpt>
      <trkpt lat="52.128883" lon="6.709847">
        <ele>73.183431</ele>
        <time>2026-05-09T08:15:44.974Z</time>
      </trkpt>
      <trkpt lat="52.128915" lon="6.709698">
        <ele>73.248367</ele>
        <time>2026-05-09T08:15:46.983Z</time>
      </trkpt>
      <trkpt lat="52.128953" lon="6.709549">
        <ele>73.314740</ele>
        <time>2026-05-09T08:15:48.984Z</time>
      </trkpt>
      <trkpt lat="52.128991" lon="6.709399">
        <ele>73.381493</ele>
        <time>2026-05-09T08:15:50.984Z</time>
      </trkpt>
      <trkpt lat="52.129034" lon="6.709237">
        <ele>73.454097</ele>
        <time>2026-05-09T08:15:52.975Z</time>
      </trkpt>
      <trkpt lat="52.129075" lon="6.709087">
        <ele>73.521643</ele>
        <time>2026-05-09T08:15:54.977Z</time>
      </trkpt>
      <trkpt lat="52.129113" lon="6.708939">
        <ele>73.587636</ele>
        <time>2026-05-09T08:15:56.975Z</time>
      </trkpt>
      <trkpt lat="52.129147" lon="6.708787">
        <ele>73.654185</ele>
        <time>2026-05-09T08:15:58.982Z</time>
      </trkpt>
      <trkpt lat="52.129182" lon="6.708633">
        <ele>73.721737</ele>
        <time>2026-05-09T08:16:00.974Z</time>
      </trkpt>
      <trkpt lat="52.129220" lon="6.708483">
        <ele>73.788490</ele>
        <time>2026-05-09T08:16:02.971Z</time>
      </trkpt>
      <trkpt lat="52.129256" lon="6.708340">
        <ele>73.852070</ele>
        <time>2026-05-09T08:16:04.981Z</time>
      </trkpt>
      <trkpt lat="52.129291" lon="6.708188">
        <ele>73.918851</ele>
        <time>2026-05-09T08:16:06.979Z</time>
      </trkpt>
      <trkpt lat="52.129327" lon="6.708028">
        <ele>73.988951</ele>
        <time>2026-05-09T08:16:08.972Z</time>
      </trkpt>
      <trkpt lat="52.129366" lon="6.707870">
        <ele>74.059004</ele>
        <time>2026-05-09T08:16:10.972Z</time>
      </trkpt>
      <trkpt lat="52.129402" lon="6.707716">
        <ele>74.005399</ele>
        <time>2026-05-09T08:16:12.971Z</time>
      </trkpt>
      <trkpt lat="52.129441" lon="6.707563">
        <ele>73.938532</ele>
        <time>2026-05-09T08:16:14.974Z</time>
      </trkpt>
      <trkpt lat="52.129482" lon="6.707412">
        <ele>73.871889</ele>
        <time>2026-05-09T08:16:16.979Z</time>
      </trkpt>
      <trkpt lat="52.129516" lon="6.707260">
        <ele>73.806592</ele>
        <time>2026-05-09T08:16:18.973Z</time>
      </trkpt>
      <trkpt lat="52.129555" lon="6.707108">
        <ele>73.740098</ele>
        <time>2026-05-09T08:16:20.975Z</time>
      </trkpt>
      <trkpt lat="52.129596" lon="6.706955">
        <ele>73.672717</ele>
        <time>2026-05-09T08:16:22.972Z</time>
      </trkpt>
      <trkpt lat="52.129642" lon="6.706791">
        <ele>73.599940</ele>
        <time>2026-05-09T08:16:24.977Z</time>
      </trkpt>
      <trkpt lat="52.129673" lon="6.706638">
        <ele>73.534909</ele>
        <time>2026-05-09T08:16:26.973Z</time>
      </trkpt>
      <trkpt lat="52.129706" lon="6.706492">
        <ele>73.472113</ele>
        <time>2026-05-09T08:16:28.978Z</time>
      </trkpt>
      <trkpt lat="52.129743" lon="6.706346">
        <ele>73.408360</ele>
        <time>2026-05-09T08:16:30.983Z</time>
      </trkpt>
      <trkpt lat="52.129777" lon="6.706191">
        <ele>73.341924</ele>
        <time>2026-05-09T08:16:32.977Z</time>
      </trkpt>
      <trkpt lat="52.129814" lon="6.706033">
        <ele>73.273670</ele>
        <time>2026-05-09T08:16:34.976Z</time>
      </trkpt>
      <trkpt lat="52.129852" lon="6.705881">
        <ele>73.207427</ele>
        <time>2026-05-09T08:16:36.976Z</time>
      </trkpt>
      <trkpt lat="52.129894" lon="6.705728">
        <ele>73.139780</ele>
        <time>2026-05-09T08:16:38.977Z</time>
      </trkpt>
      <trkpt lat="52.129936" lon="6.705570">
        <ele>73.070285</ele>
        <time>2026-05-09T08:16:40.974Z</time>
      </trkpt>
      <trkpt lat="52.129971" lon="6.705424">
        <ele>73.007023</ele>
        <time>2026-05-09T08:16:42.974Z</time>
      </trkpt>
      <trkpt lat="52.130010" lon="6.705274">
        <ele>72.941274</ele>
        <time>2026-05-09T08:16:44.982Z</time>
      </trkpt>
      <trkpt lat="52.130045" lon="6.705114">
        <ele>72.868093</ele>
        <time>2026-05-09T08:16:46.973Z</time>
      </trkpt>
      <trkpt lat="52.130075" lon="6.704964">
        <ele>72.775550</ele>
        <time>2026-05-09T08:16:48.971Z</time>
      </trkpt>
      <trkpt lat="52.130130" lon="6.704761">
        <ele>72.645386</ele>
        <time>2026-05-09T08:16:51.972Z</time>
      </trkpt>
      <trkpt lat="52.130153" lon="6.704606">
        <ele>72.551843</ele>
        <time>2026-05-09T08:16:53.978Z</time>
      </trkpt>
      <trkpt lat="52.130169" lon="6.704445">
        <ele>72.456170</ele>
        <time>2026-05-09T08:16:55.975Z</time>
      </trkpt>
      <trkpt lat="52.130185" lon="6.704286">
        <ele>72.361655</ele>
        <time>2026-05-09T08:16:57.987Z</time>
      </trkpt>
      <trkpt lat="52.130206" lon="6.704128">
        <ele>72.266823</ele>
        <time>2026-05-09T08:16:59.980Z</time>
      </trkpt>
      <trkpt lat="52.130234" lon="6.703922">
        <ele>72.143056</ele>
        <time>2026-05-09T08:17:02.981Z</time>
      </trkpt>
      <trkpt lat="52.130256" lon="6.703777">
        <ele>72.055438</ele>
        <time>2026-05-09T08:17:04.975Z</time>
      </trkpt>
      <trkpt lat="52.130277" lon="6.703622">
        <ele>71.962326</ele>
        <time>2026-05-09T08:17:06.974Z</time>
      </trkpt>
      <trkpt lat="52.130289" lon="6.703464">
        <ele>71.868936</ele>
        <time>2026-05-09T08:17:08.975Z</time>
      </trkpt>
      <trkpt lat="52.130312" lon="6.703295">
        <ele>71.767393</ele>
        <time>2026-05-09T08:17:10.973Z</time>
      </trkpt>
      <trkpt lat="52.130332" lon="6.703127">
        <ele>71.667007</ele>
        <time>2026-05-09T08:17:12.979Z</time>
      </trkpt>
      <trkpt lat="52.130353" lon="6.702977">
        <ele>71.576757</ele>
        <time>2026-05-09T08:17:14.974Z</time>
      </trkpt>
      <trkpt lat="52.130363" lon="6.702826">
        <ele>71.487666</ele>
        <time>2026-05-09T08:17:16.977Z</time>
      </trkpt>
      <trkpt lat="52.130383" lon="6.702672">
        <ele>71.395329</ele>
        <time>2026-05-09T08:17:18.976Z</time>
      </trkpt>
      <trkpt lat="52.130403" lon="6.702507">
        <ele>71.296671</ele>
        <time>2026-05-09T08:17:20.979Z</time>
      </trkpt>
      <trkpt lat="52.130422" lon="6.702347">
        <ele>71.201074</ele>
        <time>2026-05-09T08:17:22.984Z</time>
      </trkpt>
      <trkpt lat="52.130444" lon="6.702193">
        <ele>71.151712</ele>
        <time>2026-05-09T08:17:24.984Z</time>
      </trkpt>
      <trkpt lat="52.130463" lon="6.702034">
        <ele>71.130540</ele>
        <time>2026-05-09T08:17:26.976Z</time>
      </trkpt>
      <trkpt lat="52.130480" lon="6.701882">
        <ele>71.110345</ele>
        <time>2026-05-09T08:17:28.970Z</time>
      </trkpt>
      <trkpt lat="52.130497" lon="6.701730">
        <ele>71.090150</ele>
        <time>2026-05-09T08:17:30.976Z</time>
      </trkpt>
      <trkpt lat="52.130521" lon="6.701580">
        <ele>71.069889</ele>
        <time>2026-05-09T08:17:32.974Z</time>
      </trkpt>
      <trkpt lat="52.130538" lon="6.701420">
        <ele>71.048665</ele>
        <time>2026-05-09T08:17:34.975Z</time>
      </trkpt>
      <trkpt lat="52.130556" lon="6.701267">
        <ele>71.028303</ele>
        <time>2026-05-09T08:17:36.976Z</time>
      </trkpt>
      <trkpt lat="52.130572" lon="6.701096">
        <ele>71.005694</ele>
        <time>2026-05-09T08:17:38.971Z</time>
      </trkpt>
      <trkpt lat="52.130596" lon="6.700947">
        <ele>70.985559</ele>
        <time>2026-05-09T08:17:40.973Z</time>
      </trkpt>
      <trkpt lat="52.130617" lon="6.700793">
        <ele>70.964939</ele>
        <time>2026-05-09T08:17:42.969Z</time>
      </trkpt>
      <trkpt lat="52.130634" lon="6.700632">
        <ele>70.943586</ele>
        <time>2026-05-09T08:17:44.981Z</time>
      </trkpt>
      <trkpt lat="52.130654" lon="6.700477">
        <ele>70.922884</ele>
        <time>2026-05-09T08:17:46.979Z</time>
      </trkpt>
      <trkpt lat="52.130670" lon="6.700323">
        <ele>70.902469</ele>
        <time>2026-05-09T08:17:48.976Z</time>
      </trkpt>
      <trkpt lat="52.130692" lon="6.700167">
        <ele>70.881547</ele>
        <time>2026-05-09T08:17:50.984Z</time>
      </trkpt>
      <trkpt lat="52.130713" lon="6.700013">
        <ele>70.860928</ele>
        <time>2026-05-09T08:17:52.974Z</time>
      </trkpt>
      <trkpt lat="52.130733" lon="6.699863">
        <ele>70.840865</ele>
        <time>2026-05-09T08:17:54.973Z</time>
      </trkpt>
      <trkpt lat="52.130750" lon="6.699701">
        <ele>70.819383</ele>
        <time>2026-05-09T08:17:56.979Z</time>
      </trkpt>
      <trkpt lat="52.130770" lon="6.699540">
        <ele>70.797912</ele>
        <time>2026-05-09T08:17:58.973Z</time>
      </trkpt>
      <trkpt lat="52.130788" lon="6.699384">
        <ele>70.777862</ele>
        <time>2026-05-09T08:18:00.980Z</time>
      </trkpt>
      <trkpt lat="52.130808" lon="6.699232">
        <ele>70.761078</ele>
        <time>2026-05-09T08:18:02.978Z</time>
      </trkpt>
      <trkpt lat="52.130824" lon="6.699078">
        <ele>70.744213</ele>
        <time>2026-05-09T08:18:04.975Z</time>
      </trkpt>
      <trkpt lat="52.130843" lon="6.698920">
        <ele>70.726829</ele>
        <time>2026-05-09T08:18:06.978Z</time>
      </trkpt>
      <trkpt lat="52.130862" lon="6.698767">
        <ele>70.709974</ele>
        <time>2026-05-09T08:18:08.978Z</time>
      </trkpt>
      <trkpt lat="52.130883" lon="6.698613">
        <ele>70.692941</ele>
        <time>2026-05-09T08:18:10.978Z</time>
      </trkpt>
      <trkpt lat="52.130906" lon="6.698447">
        <ele>70.674566</ele>
        <time>2026-05-09T08:18:12.972Z</time>
      </trkpt>
      <trkpt lat="52.130924" lon="6.698290">
        <ele>70.657321</ele>
        <time>2026-05-09T08:18:14.976Z</time>
      </trkpt>
      <trkpt lat="52.130942" lon="6.698128">
        <ele>70.639545</ele>
        <time>2026-05-09T08:18:16.979Z</time>
      </trkpt>
      <trkpt lat="52.130959" lon="6.697965">
        <ele>70.621693</ele>
        <time>2026-05-09T08:18:18.975Z</time>
      </trkpt>
      <trkpt lat="52.130978" lon="6.697806">
        <ele>70.604203</ele>
        <time>2026-05-09T08:18:20.976Z</time>
      </trkpt>
      <trkpt lat="52.130998" lon="6.697649">
        <ele>70.586890</ele>
        <time>2026-05-09T08:18:22.976Z</time>
      </trkpt>
      <trkpt lat="52.131017" lon="6.697489">
        <ele>70.569293</ele>
        <time>2026-05-09T08:18:24.970Z</time>
      </trkpt>
      <trkpt lat="52.131037" lon="6.697337">
        <ele>70.552509</ele>
        <time>2026-05-09T08:18:26.968Z</time>
      </trkpt>
      <trkpt lat="52.131051" lon="6.697175">
        <ele>70.534844</ele>
        <time>2026-05-09T08:18:28.975Z</time>
      </trkpt>
      <trkpt lat="52.131072" lon="6.697017">
        <ele>70.517389</ele>
        <time>2026-05-09T08:18:30.977Z</time>
      </trkpt>
      <trkpt lat="52.131092" lon="6.696862">
        <ele>70.500287</ele>
        <time>2026-05-09T08:18:32.974Z</time>
      </trkpt>
      <trkpt lat="52.131113" lon="6.696703">
        <ele>70.482727</ele>
        <time>2026-05-09T08:18:34.975Z</time>
      </trkpt>
      <trkpt lat="52.131135" lon="6.696547">
        <ele>70.465444</ele>
        <time>2026-05-09T08:18:36.982Z</time>
      </trkpt>
      <trkpt lat="52.131155" lon="6.696393">
        <ele>70.428480</ele>
        <time>2026-05-09T08:18:38.974Z</time>
      </trkpt>
      <trkpt lat="52.131173" lon="6.696240">
        <ele>70.391123</ele>
        <time>2026-05-09T08:18:40.974Z</time>
      </trkpt>
      <trkpt lat="52.131193" lon="6.696092">
        <ele>70.354784</ele>
        <time>2026-05-09T08:18:42.978Z</time>
      </trkpt>
      <trkpt lat="52.131214" lon="6.695941">
        <ele>70.317657</ele>
        <time>2026-05-09T08:18:44.977Z</time>
      </trkpt>
      <trkpt lat="52.131229" lon="6.695784">
        <ele>70.279556</ele>
        <time>2026-05-09T08:18:46.980Z</time>
      </trkpt>
      <trkpt lat="52.131249" lon="6.695624">
        <ele>70.240402</ele>
        <time>2026-05-09T08:18:48.981Z</time>
      </trkpt>
      <trkpt lat="52.131270" lon="6.695477">
        <ele>70.204210</ele>
        <time>2026-05-09T08:18:50.977Z</time>
      </trkpt>
      <trkpt lat="52.131286" lon="6.695317">
        <ele>70.165337</ele>
        <time>2026-05-09T08:18:52.972Z</time>
      </trkpt>
      <trkpt lat="52.131306" lon="6.695155">
        <ele>70.125712</ele>
        <time>2026-05-09T08:18:54.975Z</time>
      </trkpt>
      <trkpt lat="52.131327" lon="6.694997">
        <ele>70.086947</ele>
        <time>2026-05-09T08:18:56.975Z</time>
      </trkpt>
      <trkpt lat="52.131347" lon="6.694845">
        <ele>70.049670</ele>
        <time>2026-05-09T08:18:58.987Z</time>
      </trkpt>
      <trkpt lat="52.131367" lon="6.694700">
        <ele>70.014033</ele>
        <time>2026-05-09T08:19:00.979Z</time>
      </trkpt>
      <trkpt lat="52.131384" lon="6.694548">
        <ele>69.976984</ele>
        <time>2026-05-09T08:19:02.979Z</time>
      </trkpt>
      <trkpt lat="52.131404" lon="6.694390">
        <ele>69.938299</ele>
        <time>2026-05-09T08:19:04.980Z</time>
      </trkpt>
      <trkpt lat="52.131420" lon="6.694236">
        <ele>69.900846</ele>
        <time>2026-05-09T08:19:06.984Z</time>
      </trkpt>
      <trkpt lat="52.131442" lon="6.694086">
        <ele>69.863864</ele>
        <time>2026-05-09T08:19:08.976Z</time>
      </trkpt>
      <trkpt lat="52.131475" lon="6.693869">
        <ele>69.810256</ele>
        <time>2026-05-09T08:19:11.980Z</time>
      </trkpt>
      <trkpt lat="52.131490" lon="6.693716">
        <ele>69.773103</ele>
        <time>2026-05-09T08:19:13.979Z</time>
      </trkpt>
      <trkpt lat="52.131507" lon="6.693548">
        <ele>69.807221</ele>
        <time>2026-05-09T08:19:15.977Z</time>
      </trkpt>
      <trkpt lat="52.131528" lon="6.693385">
        <ele>69.867353</ele>
        <time>2026-05-09T08:19:17.976Z</time>
      </trkpt>
      <trkpt lat="52.131541" lon="6.693228">
        <ele>69.924550</ele>
        <time>2026-05-09T08:19:19.978Z</time>
      </trkpt>
      <trkpt lat="52.131565" lon="6.693079">
        <ele>69.980167</ele>
        <time>2026-05-09T08:19:21.982Z</time>
      </trkpt>
      <trkpt lat="52.131582" lon="6.692932">
        <ele>70.034174</ele>
        <time>2026-05-09T08:19:23.976Z</time>
      </trkpt>
      <trkpt lat="52.131595" lon="6.692776">
        <ele>70.091013</ele>
        <time>2026-05-09T08:19:25.976Z</time>
      </trkpt>
      <trkpt lat="52.131617" lon="6.692610">
        <ele>70.152327</ele>
        <time>2026-05-09T08:19:27.975Z</time>
      </trkpt>
      <trkpt lat="52.131637" lon="6.692449">
        <ele>70.211633</ele>
        <time>2026-05-09T08:19:29.973Z</time>
      </trkpt>
      <trkpt lat="52.131658" lon="6.692297">
        <ele>70.267884</ele>
        <time>2026-05-09T08:19:31.982Z</time>
      </trkpt>
      <trkpt lat="52.131678" lon="6.692139">
        <ele>70.326129</ele>
        <time>2026-05-09T08:19:33.973Z</time>
      </trkpt>
      <trkpt lat="52.131699" lon="6.691980">
        <ele>70.384848</ele>
        <time>2026-05-09T08:19:35.976Z</time>
      </trkpt>
      <trkpt lat="52.131716" lon="6.691827">
        <ele>70.440985</ele>
        <time>2026-05-09T08:19:37.981Z</time>
      </trkpt>
      <trkpt lat="52.131738" lon="6.691674">
        <ele>70.497720</ele>
        <time>2026-05-09T08:19:39.980Z</time>
      </trkpt>
      <trkpt lat="52.131757" lon="6.691511">
        <ele>70.557621</ele>
        <time>2026-05-09T08:19:41.973Z</time>
      </trkpt>
      <trkpt lat="52.131778" lon="6.691351">
        <ele>70.616693</ele>
        <time>2026-05-09T08:19:43.975Z</time>
      </trkpt>
      <trkpt lat="52.131800" lon="6.691200">
        <ele>70.672725</ele>
        <time>2026-05-09T08:19:45.968Z</time>
      </trkpt>
      <trkpt lat="52.131820" lon="6.691040">
        <ele>70.731677</ele>
        <time>2026-05-09T08:19:47.980Z</time>
      </trkpt>
      <trkpt lat="52.131848" lon="6.690878">
        <ele>70.792439</ele>
        <time>2026-05-09T08:19:49.974Z</time>
      </trkpt>
      <trkpt lat="52.131872" lon="6.690720">
        <ele>70.783033</ele>
        <time>2026-05-09T08:19:51.978Z</time>
      </trkpt>
      <trkpt lat="52.131902" lon="6.690562">
        <ele>70.711980</ele>
        <time>2026-05-09T08:19:53.977Z</time>
      </trkpt>
      <trkpt lat="52.131934" lon="6.690393">
        <ele>70.635997</ele>
        <time>2026-05-09T08:19:55.972Z</time>
      </trkpt>
      <trkpt lat="52.131968" lon="6.690223">
        <ele>70.559183</ele>
        <time>2026-05-09T08:19:57.972Z</time>
      </trkpt>
      <trkpt lat="52.132002" lon="6.690061">
        <ele>70.485628</ele>
        <time>2026-05-09T08:19:59.977Z</time>
      </trkpt>
      <trkpt lat="52.132027" lon="6.689911">
        <ele>70.418851</ele>
        <time>2026-05-09T08:20:01.975Z</time>
      </trkpt>
      <trkpt lat="52.132055" lon="6.689762">
        <ele>70.351905</ele>
        <time>2026-05-09T08:20:03.975Z</time>
      </trkpt>
      <trkpt lat="52.132082" lon="6.689599">
        <ele>70.279372</ele>
        <time>2026-05-09T08:20:05.975Z</time>
      </trkpt>
      <trkpt lat="52.132110" lon="6.689436">
        <ele>70.206653</ele>
        <time>2026-05-09T08:20:07.976Z</time>
      </trkpt>
      <trkpt lat="52.132144" lon="6.689274">
        <ele>70.133099</ele>
        <time>2026-05-09T08:20:09.976Z</time>
      </trkpt>
      <trkpt lat="52.132171" lon="6.689132">
        <ele>70.069233</ele>
        <time>2026-05-09T08:20:11.977Z</time>
      </trkpt>
      <trkpt lat="52.132202" lon="6.688971">
        <ele>69.996741</ele>
        <time>2026-05-09T08:20:13.979Z</time>
      </trkpt>
      <trkpt lat="52.132235" lon="6.688813">
        <ele>69.925039</ele>
        <time>2026-05-09T08:20:15.970Z</time>
      </trkpt>
      <trkpt lat="52.132260" lon="6.688661">
        <ele>69.857433</ele>
        <time>2026-05-09T08:20:17.974Z</time>
      </trkpt>
      <trkpt lat="52.132288" lon="6.688495">
        <ele>69.783473</ele>
        <time>2026-05-09T08:20:19.975Z</time>
      </trkpt>
      <trkpt lat="52.132323" lon="6.688334">
        <ele>69.710094</ele>
        <time>2026-05-09T08:20:21.973Z</time>
      </trkpt>
      <trkpt lat="52.132358" lon="6.688171">
        <ele>69.635906</ele>
        <time>2026-05-09T08:20:23.971Z</time>
      </trkpt>
      <trkpt lat="52.132392" lon="6.688011">
        <ele>69.563164</ele>
        <time>2026-05-09T08:20:25.973Z</time>
      </trkpt>
      <trkpt lat="52.132423" lon="6.687854">
        <ele>69.549097</ele>
        <time>2026-05-09T08:20:27.970Z</time>
      </trkpt>
      <trkpt lat="52.132455" lon="6.687690">
        <ele>69.536087</ele>
        <time>2026-05-09T08:20:29.976Z</time>
      </trkpt>
      <trkpt lat="52.132488" lon="6.687522">
        <ele>69.522752</ele>
        <time>2026-05-09T08:20:31.973Z</time>
      </trkpt>
      <trkpt lat="52.132519" lon="6.687365">
        <ele>69.510283</ele>
        <time>2026-05-09T08:20:33.980Z</time>
      </trkpt>
      <trkpt lat="52.132550" lon="6.687202">
        <ele>69.497382</ele>
        <time>2026-05-09T08:20:35.977Z</time>
      </trkpt>
      <trkpt lat="52.132578" lon="6.687040">
        <ele>69.484658</ele>
        <time>2026-05-09T08:20:37.977Z</time>
      </trkpt>
      <trkpt lat="52.132603" lon="6.686875">
        <ele>69.471809</ele>
        <time>2026-05-09T08:20:39.970Z</time>
      </trkpt>
      <trkpt lat="52.132635" lon="6.686711">
        <ele>69.458799</ele>
        <time>2026-05-09T08:20:41.979Z</time>
      </trkpt>
      <trkpt lat="52.132665" lon="6.686550">
        <ele>69.446078</ele>
        <time>2026-05-09T08:20:43.972Z</time>
      </trkpt>
      <trkpt lat="52.132696" lon="6.686390">
        <ele>69.433394</ele>
        <time>2026-05-09T08:20:45.973Z</time>
      </trkpt>
      <trkpt lat="52.132726" lon="6.686237">
        <ele>69.421251</ele>
        <time>2026-05-09T08:20:47.981Z</time>
      </trkpt>
      <trkpt lat="52.132759" lon="6.686083">
        <ele>69.408919</ele>
        <time>2026-05-09T08:20:49.977Z</time>
      </trkpt>
      <trkpt lat="52.132789" lon="6.685940">
        <ele>69.397494</ele>
        <time>2026-05-09T08:20:51.984Z</time>
      </trkpt>
      <trkpt lat="52.132816" lon="6.685792">
        <ele>69.385821</ele>
        <time>2026-05-09T08:20:53.979Z</time>
      </trkpt>
      <trkpt lat="52.132847" lon="6.685630">
        <ele>69.372992</ele>
        <time>2026-05-09T08:20:55.985Z</time>
      </trkpt>
      <trkpt lat="52.132877" lon="6.685487">
        <ele>69.361567</ele>
        <time>2026-05-09T08:20:57.969Z</time>
      </trkpt>
      <trkpt lat="52.132907" lon="6.685339">
        <ele>69.349783</ele>
        <time>2026-05-09T08:20:59.976Z</time>
      </trkpt>
      <trkpt lat="52.132935" lon="6.685181">
        <ele>69.346101</ele>
        <time>2026-05-09T08:21:01.985Z</time>
      </trkpt>
      <trkpt lat="52.132965" lon="6.685020">
        <ele>69.380831</ele>
        <time>2026-05-09T08:21:03.976Z</time>
      </trkpt>
      <trkpt lat="52.132996" lon="6.684857">
        <ele>69.416055</ele>
        <time>2026-05-09T08:21:05.977Z</time>
      </trkpt>
      <trkpt lat="52.133026" lon="6.684713">
        <ele>69.447445</ele>
        <time>2026-05-09T08:21:07.978Z</time>
      </trkpt>
      <trkpt lat="52.133050" lon="6.684572">
        <ele>69.477648</ele>
        <time>2026-05-09T08:21:09.976Z</time>
      </trkpt>
      <trkpt lat="52.133073" lon="6.684421">
        <ele>69.509762</ele>
        <time>2026-05-09T08:21:11.989Z</time>
      </trkpt>
      <trkpt lat="52.133104" lon="6.684270">
        <ele>69.542628</ele>
        <time>2026-05-09T08:21:13.970Z</time>
      </trkpt>
      <trkpt lat="52.133133" lon="6.684115">
        <ele>69.576075</ele>
        <time>2026-05-09T08:21:15.974Z</time>
      </trkpt>
      <trkpt lat="52.133164" lon="6.683959">
        <ele>69.609922</ele>
        <time>2026-05-09T08:21:17.975Z</time>
      </trkpt>
      <trkpt lat="52.133195" lon="6.683810">
        <ele>69.642396</ele>
        <time>2026-05-09T08:21:19.973Z</time>
      </trkpt>
      <trkpt lat="52.133237" lon="6.683665">
        <ele>69.675491</ele>
        <time>2026-05-09T08:21:21.973Z</time>
      </trkpt>
      <trkpt lat="52.133272" lon="6.683509">
        <ele>69.709776</ele>
        <time>2026-05-09T08:21:23.977Z</time>
      </trkpt>
      <trkpt lat="52.133292" lon="6.683349">
        <ele>69.743480</ele>
        <time>2026-05-09T08:21:25.972Z</time>
      </trkpt>
      <trkpt lat="52.133313" lon="6.683196">
        <ele>69.775841</ele>
        <time>2026-05-09T08:21:27.974Z</time>
      </trkpt>
      <trkpt lat="52.133340" lon="6.683049">
        <ele>69.807514</ele>
        <time>2026-05-09T08:21:29.973Z</time>
      </trkpt>
      <trkpt lat="52.133380" lon="6.682840">
        <ele>69.852703</ele>
        <time>2026-05-09T08:21:32.977Z</time>
      </trkpt>
      <trkpt lat="52.133436" lon="6.682649">
        <ele>69.896395</ele>
        <time>2026-05-09T08:21:35.974Z</time>
      </trkpt>
      <trkpt lat="52.133475" lon="6.682455">
        <ele>69.938532</ele>
        <time>2026-05-09T08:21:38.977Z</time>
      </trkpt>
      <trkpt lat="52.133491" lon="6.682309">
        <ele>69.896911</ele>
        <time>2026-05-09T08:21:41.978Z</time>
      </trkpt>
      <trkpt lat="52.133531" lon="6.682139">
        <ele>69.824180</ele>
        <time>2026-05-09T08:21:45.972Z</time>
      </trkpt>
      <trkpt lat="52.133511" lon="6.681984">
        <ele>69.760906</ele>
        <time>2026-05-09T08:21:48.978Z</time>
      </trkpt>
      <trkpt lat="52.133449" lon="6.681824">
        <ele>69.685318</ele>
        <time>2026-05-09T08:21:51.976Z</time>
      </trkpt>
      <trkpt lat="52.133424" lon="6.681675">
        <ele>69.623610</ele>
        <time>2026-05-09T08:21:54.984Z</time>
      </trkpt>
      <trkpt lat="52.133540" lon="6.681637">
        <ele>69.546605</ele>
        <time>2026-05-09T08:21:58.977Z</time>
      </trkpt>
      <trkpt lat="52.133640" lon="6.681620">
        <ele>69.481170</ele>
        <time>2026-05-09T08:22:01.977Z</time>
      </trkpt>
      <trkpt lat="52.133731" lon="6.681559">
        <ele>69.417128</ele>
        <time>2026-05-09T08:22:04.971Z</time>
      </trkpt>
      <trkpt lat="52.133753" lon="6.681366">
        <ele>69.338709</ele>
        <time>2026-05-09T08:22:07.972Z</time>
      </trkpt>
      <trkpt lat="52.133754" lon="6.681181">
        <ele>69.264802</ele>
        <time>2026-05-09T08:22:10.981Z</time>
      </trkpt>
      <trkpt lat="52.133754" lon="6.680973">
        <ele>69.181709</ele>
        <time>2026-05-09T08:22:13.972Z</time>
      </trkpt>
      <trkpt lat="52.133758" lon="6.680825">
        <ele>69.122528</ele>
        <time>2026-05-09T08:22:15.981Z</time>
      </trkpt>
      <trkpt lat="52.133763" lon="6.680661">
        <ele>69.056932</ele>
        <time>2026-05-09T08:22:17.980Z</time>
      </trkpt>
      <trkpt lat="52.133781" lon="6.680505">
        <ele>68.993521</ele>
        <time>2026-05-09T08:22:19.980Z</time>
      </trkpt>
      <trkpt lat="52.133811" lon="6.680300">
        <ele>68.909331</ele>
        <time>2026-05-09T08:22:22.979Z</time>
      </trkpt>
      <trkpt lat="52.133832" lon="6.680149">
        <ele>68.847480</ele>
        <time>2026-05-09T08:22:24.988Z</time>
      </trkpt>
      <trkpt lat="52.133852" lon="6.679993">
        <ele>68.783816</ele>
        <time>2026-05-09T08:22:26.980Z</time>
      </trkpt>
      <trkpt lat="52.133875" lon="6.679822">
        <ele>68.766395</ele>
        <time>2026-05-09T08:22:28.975Z</time>
      </trkpt>
      <trkpt lat="52.133889" lon="6.679650">
        <ele>68.757677</ele>
        <time>2026-05-09T08:22:30.976Z</time>
      </trkpt>
      <trkpt lat="52.133908" lon="6.679480">
        <ele>68.748994</ele>
        <time>2026-05-09T08:22:32.986Z</time>
      </trkpt>
      <trkpt lat="52.133930" lon="6.679311">
        <ele>68.740313</ele>
        <time>2026-05-09T08:22:34.978Z</time>
      </trkpt>
      <trkpt lat="52.133951" lon="6.679145">
        <ele>68.731797</ele>
        <time>2026-05-09T08:22:36.979Z</time>
      </trkpt>
      <trkpt lat="52.133966" lon="6.678979">
        <ele>68.723366</ele>
        <time>2026-05-09T08:22:38.978Z</time>
      </trkpt>
      <trkpt lat="52.133986" lon="6.678810">
        <ele>68.714717</ele>
        <time>2026-05-09T08:22:40.971Z</time>
      </trkpt>
      <trkpt lat="52.134006" lon="6.678637">
        <ele>68.705872</ele>
        <time>2026-05-09T08:22:42.975Z</time>
      </trkpt>
      <trkpt lat="52.134026" lon="6.678468">
        <ele>68.697223</ele>
        <time>2026-05-09T08:22:44.971Z</time>
      </trkpt>
      <trkpt lat="52.134041" lon="6.678304">
        <ele>68.688892</ele>
        <time>2026-05-09T08:22:46.969Z</time>
      </trkpt>
      <trkpt lat="52.134060" lon="6.678158">
        <ele>68.681392</ele>
        <time>2026-05-09T08:22:48.968Z</time>
      </trkpt>
      <trkpt lat="52.134078" lon="6.678013">
        <ele>68.673959</ele>
        <time>2026-05-09T08:22:50.973Z</time>
      </trkpt>
      <trkpt lat="52.134103" lon="6.677809">
        <ele>68.663506</ele>
        <time>2026-05-09T08:22:53.977Z</time>
      </trkpt>
      <trkpt lat="52.134126" lon="6.677599">
        <ele>68.652787</ele>
        <time>2026-05-09T08:22:56.975Z</time>
      </trkpt>
      <trkpt lat="52.134150" lon="6.677386">
        <ele>68.641906</ele>
        <time>2026-05-09T08:22:59.974Z</time>
      </trkpt>
      <trkpt lat="52.134170" lon="6.677163">
        <ele>68.630582</ele>
        <time>2026-05-09T08:23:02.967Z</time>
      </trkpt>
      <trkpt lat="52.134186" lon="6.677008">
        <ele>68.701614</ele>
        <time>2026-05-09T08:23:04.976Z</time>
      </trkpt>
      <trkpt lat="52.134204" lon="6.676850">
        <ele>68.851812</ele>
        <time>2026-05-09T08:23:06.982Z</time>
      </trkpt>
      <trkpt lat="52.134215" lon="6.676695">
        <ele>68.997648</ele>
        <time>2026-05-09T08:23:08.995Z</time>
      </trkpt>
      <trkpt lat="52.134230" lon="6.676540">
        <ele>69.144309</ele>
        <time>2026-05-09T08:23:10.973Z</time>
      </trkpt>
      <trkpt lat="52.134243" lon="6.676382">
        <ele>69.293305</ele>
        <time>2026-05-09T08:23:12.974Z</time>
      </trkpt>
      <trkpt lat="52.134257" lon="6.676221">
        <ele>69.445286</ele>
        <time>2026-05-09T08:23:14.975Z</time>
      </trkpt>
      <trkpt lat="52.134270" lon="6.676066">
        <ele>69.591503</ele>
        <time>2026-05-09T08:23:16.973Z</time>
      </trkpt>
      <trkpt lat="52.134286" lon="6.675905">
        <ele>69.743942</ele>
        <time>2026-05-09T08:23:18.972Z</time>
      </trkpt>
      <trkpt lat="52.134299" lon="6.675743">
        <ele>69.896644</ele>
        <time>2026-05-09T08:23:20.975Z</time>
      </trkpt>
      <trkpt lat="52.134314" lon="6.675581">
        <ele>70.049770</ele>
        <time>2026-05-09T08:23:22.972Z</time>
      </trkpt>
      <trkpt lat="52.134332" lon="6.675418">
        <ele>70.204564</ele>
        <time>2026-05-09T08:23:24.975Z</time>
      </trkpt>
      <trkpt lat="52.134347" lon="6.675257">
        <ele>70.356766</ele>
        <time>2026-05-09T08:23:26.976Z</time>
      </trkpt>
      <trkpt lat="52.134359" lon="6.675103">
        <ele>70.501858</ele>
        <time>2026-05-09T08:23:28.974Z</time>
      </trkpt>
      <trkpt lat="52.134371" lon="6.674953">
        <ele>70.643241</ele>
        <time>2026-05-09T08:23:30.973Z</time>
      </trkpt>
      <trkpt lat="52.134385" lon="6.674797">
        <ele>70.790597</ele>
        <time>2026-05-09T08:23:32.978Z</time>
      </trkpt>
      <trkpt lat="52.134404" lon="6.674633">
        <ele>70.946585</ele>
        <time>2026-05-09T08:23:34.979Z</time>
      </trkpt>
      <trkpt lat="52.134421" lon="6.674468">
        <ele>71.102960</ele>
        <time>2026-05-09T08:23:36.978Z</time>
      </trkpt>
      <trkpt lat="52.134450" lon="6.674317">
        <ele>71.250839</ele>
        <time>2026-05-09T08:23:38.986Z</time>
      </trkpt>
      <trkpt lat="52.134486" lon="6.674169">
        <ele>71.385863</ele>
        <time>2026-05-09T08:23:40.977Z</time>
      </trkpt>
      <trkpt lat="52.134532" lon="6.674030">
        <ele>71.473916</ele>
        <time>2026-05-09T08:23:42.978Z</time>
      </trkpt>
      <trkpt lat="52.134580" lon="6.673896">
        <ele>71.560427</ele>
        <time>2026-05-09T08:23:44.977Z</time>
      </trkpt>
      <trkpt lat="52.134603" lon="6.673743">
        <ele>71.648260</ele>
        <time>2026-05-09T08:23:46.978Z</time>
      </trkpt>
      <trkpt lat="52.134599" lon="6.673585">
        <ele>71.736435</ele>
        <time>2026-05-09T08:23:48.977Z</time>
      </trkpt>
      <trkpt lat="52.134575" lon="6.673435">
        <ele>71.822869</ele>
        <time>2026-05-09T08:23:50.976Z</time>
      </trkpt>
      <trkpt lat="52.134556" lon="6.673280">
        <ele>71.911002</ele>
        <time>2026-05-09T08:23:52.976Z</time>
      </trkpt>
      <trkpt lat="52.134541" lon="6.673121">
        <ele>72.000701</ele>
        <time>2026-05-09T08:23:54.984Z</time>
      </trkpt>
      <trkpt lat="52.134541" lon="6.672967">
        <ele>72.086571</ele>
        <time>2026-05-09T08:23:56.982Z</time>
      </trkpt>
      <trkpt lat="52.134545" lon="6.672810">
        <ele>72.174188</ele>
        <time>2026-05-09T08:23:58.977Z</time>
      </trkpt>
      <trkpt lat="52.134559" lon="6.672657">
        <ele>72.260443</ele>
        <time>2026-05-09T08:24:00.981Z</time>
      </trkpt>
      <trkpt lat="52.134571" lon="6.672502">
        <ele>72.347555</ele>
        <time>2026-05-09T08:24:02.974Z</time>
      </trkpt>
      <trkpt lat="52.134581" lon="6.672340">
        <ele>72.438341</ele>
        <time>2026-05-09T08:24:04.977Z</time>
      </trkpt>
      <trkpt lat="52.134597" lon="6.672179">
        <ele>72.529283</ele>
        <time>2026-05-09T08:24:06.974Z</time>
      </trkpt>
      <trkpt lat="52.134611" lon="6.672024">
        <ele>72.616640</ele>
        <time>2026-05-09T08:24:08.981Z</time>
      </trkpt>
      <trkpt lat="52.134624" lon="6.671861">
        <ele>72.708292</ele>
        <time>2026-05-09T08:24:10.977Z</time>
      </trkpt>
      <trkpt lat="52.134643" lon="6.671690">
        <ele>72.805190</ele>
        <time>2026-05-09T08:24:12.978Z</time>
      </trkpt>
      <trkpt lat="52.134665" lon="6.671520">
        <ele>72.902065</ele>
        <time>2026-05-09T08:24:14.977Z</time>
      </trkpt>
      <trkpt lat="52.134686" lon="6.671351">
        <ele>72.998210</ele>
        <time>2026-05-09T08:24:16.976Z</time>
      </trkpt>
      <trkpt lat="52.134696" lon="6.671183">
        <ele>72.823012</ele>
        <time>2026-05-09T08:24:18.982Z</time>
      </trkpt>
      <trkpt lat="52.134711" lon="6.671010">
        <ele>72.638031</ele>
        <time>2026-05-09T08:24:20.973Z</time>
      </trkpt>
      <trkpt lat="52.134725" lon="6.670832">
        <ele>72.448034</ele>
        <time>2026-05-09T08:24:22.974Z</time>
      </trkpt>
      <trkpt lat="52.134738" lon="6.670656">
        <ele>72.260351</ele>
        <time>2026-05-09T08:24:24.980Z</time>
      </trkpt>
      <trkpt lat="52.134753" lon="6.670482">
        <ele>72.074322</ele>
        <time>2026-05-09T08:24:26.983Z</time>
      </trkpt>
      <trkpt lat="52.134768" lon="6.670308">
        <ele>71.888293</ele>
        <time>2026-05-09T08:24:28.978Z</time>
      </trkpt>
      <trkpt lat="52.134780" lon="6.670131">
        <ele>71.699756</ele>
        <time>2026-05-09T08:24:30.975Z</time>
      </trkpt>
      <trkpt lat="52.134801" lon="6.669952">
        <ele>71.506811</ele>
        <time>2026-05-09T08:24:32.979Z</time>
      </trkpt>
      <trkpt lat="52.134826" lon="6.669768">
        <ele>71.307287</ele>
        <time>2026-05-09T08:24:34.977Z</time>
      </trkpt>
      <trkpt lat="52.134865" lon="6.669585">
        <ele>71.102192</ele>
        <time>2026-05-09T08:24:36.973Z</time>
      </trkpt>
      <trkpt lat="52.134922" lon="6.669419">
        <ele>70.900810</ele>
        <time>2026-05-09T08:24:38.976Z</time>
      </trkpt>
      <trkpt lat="52.134977" lon="6.669258">
        <ele>70.705732</ele>
        <time>2026-05-09T08:24:40.980Z</time>
      </trkpt>
      <trkpt lat="52.135003" lon="6.669095">
        <ele>70.527426</ele>
        <time>2026-05-09T08:24:42.977Z</time>
      </trkpt>
      <trkpt lat="52.134998" lon="6.668918">
        <ele>70.339831</ele>
        <time>2026-05-09T08:24:44.978Z</time>
      </trkpt>
      <trkpt lat="52.134982" lon="6.668728">
        <ele>70.136787</ele>
        <time>2026-05-09T08:24:46.977Z</time>
      </trkpt>
      <trkpt lat="52.134979" lon="6.668529">
        <ele>69.926035</ele>
        <time>2026-05-09T08:24:48.975Z</time>
      </trkpt>
      <trkpt lat="52.134984" lon="6.668328">
        <ele>69.748945</ele>
        <time>2026-05-09T08:24:50.978Z</time>
      </trkpt>
      <trkpt lat="52.134997" lon="6.668130">
        <ele>69.579260</ele>
        <time>2026-05-09T08:24:52.983Z</time>
      </trkpt>
      <trkpt lat="52.135012" lon="6.667939">
        <ele>69.415176</ele>
        <time>2026-05-09T08:24:54.975Z</time>
      </trkpt>
      <trkpt lat="52.135028" lon="6.667752">
        <ele>69.254287</ele>
        <time>2026-05-09T08:24:56.978Z</time>
      </trkpt>
      <trkpt lat="52.135046" lon="6.667574">
        <ele>69.100563</ele>
        <time>2026-05-09T08:24:58.971Z</time>
      </trkpt>
      <trkpt lat="52.135064" lon="6.667394">
        <ele>68.945157</ele>
        <time>2026-05-09T08:25:00.978Z</time>
      </trkpt>
      <trkpt lat="52.135079" lon="6.667211">
        <ele>68.787832</ele>
        <time>2026-05-09T08:25:02.973Z</time>
      </trkpt>
      <trkpt lat="52.135090" lon="6.667016">
        <ele>68.620967</ele>
        <time>2026-05-09T08:25:04.986Z</time>
      </trkpt>
      <trkpt lat="52.135102" lon="6.666816">
        <ele>68.449728</ele>
        <time>2026-05-09T08:25:06.975Z</time>
      </trkpt>
      <trkpt lat="52.135108" lon="6.666620">
        <ele>68.282503</ele>
        <time>2026-05-09T08:25:08.977Z</time>
      </trkpt>
      <trkpt lat="52.135114" lon="6.666426">
        <ele>68.116980</ele>
        <time>2026-05-09T08:25:10.981Z</time>
      </trkpt>
      <trkpt lat="52.135125" lon="6.666230">
        <ele>67.949266</ele>
        <time>2026-05-09T08:25:12.980Z</time>
      </trkpt>
      <trkpt lat="52.135133" lon="6.666029">
        <ele>67.777628</ele>
        <time>2026-05-09T08:25:14.976Z</time>
      </trkpt>
      <trkpt lat="52.135135" lon="6.665823">
        <ele>67.602067</ele>
        <time>2026-05-09T08:25:16.975Z</time>
      </trkpt>
      <trkpt lat="52.135137" lon="6.665617">
        <ele>67.426506</ele>
        <time>2026-05-09T08:25:18.979Z</time>
      </trkpt>
      <trkpt lat="52.135138" lon="6.665416">
        <ele>67.362049</ele>
        <time>2026-05-09T08:25:20.980Z</time>
      </trkpt>
      <trkpt lat="52.135134" lon="6.665219">
        <ele>67.318062</ele>
        <time>2026-05-09T08:25:22.975Z</time>
      </trkpt>
      <trkpt lat="52.135134" lon="6.665037">
        <ele>67.277447</ele>
        <time>2026-05-09T08:25:24.974Z</time>
      </trkpt>
      <trkpt lat="52.135129" lon="6.664859">
        <ele>67.237683</ele>
        <time>2026-05-09T08:25:26.973Z</time>
      </trkpt>
      <trkpt lat="52.135127" lon="6.664684">
        <ele>67.198624</ele>
        <time>2026-05-09T08:25:28.979Z</time>
      </trkpt>
      <trkpt lat="52.135119" lon="6.664508">
        <ele>67.159240</ele>
        <time>2026-05-09T08:25:30.979Z</time>
      </trkpt>
      <trkpt lat="52.135116" lon="6.664324">
        <ele>67.118164</ele>
        <time>2026-05-09T08:25:32.976Z</time>
      </trkpt>
      <trkpt lat="52.135109" lon="6.664142">
        <ele>67.077470</ele>
        <time>2026-05-09T08:25:34.978Z</time>
      </trkpt>
      <trkpt lat="52.135108" lon="6.663959">
        <ele>67.036630</ele>
        <time>2026-05-09T08:25:36.976Z</time>
      </trkpt>
      <trkpt lat="52.135109" lon="6.663769">
        <ele>66.994228</ele>
        <time>2026-05-09T08:25:38.979Z</time>
      </trkpt>
      <trkpt lat="52.135109" lon="6.663581">
        <ele>66.952274</ele>
        <time>2026-05-09T08:25:40.974Z</time>
      </trkpt>
      <trkpt lat="52.135107" lon="6.663397">
        <ele>66.911207</ele>
        <time>2026-05-09T08:25:42.985Z</time>
      </trkpt>
      <trkpt lat="52.135106" lon="6.663206">
        <ele>66.868582</ele>
        <time>2026-05-09T08:25:44.975Z</time>
      </trkpt>
      <trkpt lat="52.135105" lon="6.663009">
        <ele>66.824618</ele>
        <time>2026-05-09T08:25:46.975Z</time>
      </trkpt>
      <trkpt lat="52.135103" lon="6.662817">
        <ele>66.781765</ele>
        <time>2026-05-09T08:25:48.976Z</time>
      </trkpt>
      <trkpt lat="52.135096" lon="6.662626">
        <ele>66.746378</ele>
        <time>2026-05-09T08:25:50.974Z</time>
      </trkpt>
      <trkpt lat="52.135096" lon="6.662435">
        <ele>66.748571</ele>
        <time>2026-05-09T08:25:52.976Z</time>
      </trkpt>
      <trkpt lat="52.135088" lon="6.662244">
        <ele>66.750769</ele>
        <time>2026-05-09T08:25:54.972Z</time>
      </trkpt>
      <trkpt lat="52.135084" lon="6.662050">
        <ele>66.752997</ele>
        <time>2026-05-09T08:25:56.975Z</time>
      </trkpt>
      <trkpt lat="52.135080" lon="6.661854">
        <ele>66.755249</ele>
        <time>2026-05-09T08:25:58.975Z</time>
      </trkpt>
      <trkpt lat="52.135071" lon="6.661668">
        <ele>66.757391</ele>
        <time>2026-05-09T08:26:00.972Z</time>
      </trkpt>
      <trkpt lat="52.135061" lon="6.661485">
        <ele>66.759500</ele>
        <time>2026-05-09T08:26:02.971Z</time>
      </trkpt>
      <trkpt lat="52.135054" lon="6.661297">
        <ele>66.761663</ele>
        <time>2026-05-09T08:26:04.972Z</time>
      </trkpt>
      <trkpt lat="52.135048" lon="6.661106">
        <ele>66.763859</ele>
        <time>2026-05-09T08:26:06.982Z</time>
      </trkpt>
      <trkpt lat="52.135044" lon="6.660910">
        <ele>66.766110</ele>
        <time>2026-05-09T08:26:08.979Z</time>
      </trkpt>
      <trkpt lat="52.135041" lon="6.660720">
        <ele>66.768293</ele>
        <time>2026-05-09T08:26:10.977Z</time>
      </trkpt>
      <trkpt lat="52.135038" lon="6.660528">
        <ele>66.770498</ele>
        <time>2026-05-09T08:26:12.972Z</time>
      </trkpt>
      <trkpt lat="52.135030" lon="6.660337">
        <ele>66.772696</ele>
        <time>2026-05-09T08:26:14.975Z</time>
      </trkpt>
      <trkpt lat="52.135027" lon="6.660136">
        <ele>66.775004</ele>
        <time>2026-05-09T08:26:16.974Z</time>
      </trkpt>
      <trkpt lat="52.135022" lon="6.659943">
        <ele>66.777222</ele>
        <time>2026-05-09T08:26:18.977Z</time>
      </trkpt>
      <trkpt lat="52.135016" lon="6.659759">
        <ele>66.779338</ele>
        <time>2026-05-09T08:26:20.977Z</time>
      </trkpt>
      <trkpt lat="52.135013" lon="6.659572">
        <ele>66.765795</ele>
        <time>2026-05-09T08:26:22.979Z</time>
      </trkpt>
      <trkpt lat="52.135009" lon="6.659386">
        <ele>66.749521</ele>
        <time>2026-05-09T08:26:24.973Z</time>
      </trkpt>
      <trkpt lat="52.135007" lon="6.659189">
        <ele>66.732293</ele>
        <time>2026-05-09T08:26:26.979Z</time>
      </trkpt>
      <trkpt lat="52.135003" lon="6.658985">
        <ele>66.714447</ele>
        <time>2026-05-09T08:26:28.978Z</time>
      </trkpt>
      <trkpt lat="52.134997" lon="6.658788">
        <ele>66.697200</ele>
        <time>2026-05-09T08:26:30.979Z</time>
      </trkpt>
      <trkpt lat="52.134997" lon="6.658604">
        <ele>66.681111</ele>
        <time>2026-05-09T08:26:32.984Z</time>
      </trkpt>
      <trkpt lat="52.134993" lon="6.658429">
        <ele>66.665799</ele>
        <time>2026-05-09T08:26:34.976Z</time>
      </trkpt>
      <trkpt lat="52.134992" lon="6.658251">
        <ele>66.650234</ele>
        <time>2026-05-09T08:26:36.971Z</time>
      </trkpt>
      <trkpt lat="52.134996" lon="6.658073">
        <ele>66.634660</ele>
        <time>2026-05-09T08:26:38.975Z</time>
      </trkpt>
      <trkpt lat="52.135061" lon="6.657936">
        <ele>66.619519</ele>
        <time>2026-05-09T08:26:40.972Z</time>
      </trkpt>
      <trkpt lat="52.135130" lon="6.657814">
        <ele>66.605014</ele>
        <time>2026-05-09T08:26:42.971Z</time>
      </trkpt>
      <trkpt lat="52.135147" lon="6.657661">
        <ele>66.591418</ele>
        <time>2026-05-09T08:26:44.971Z</time>
      </trkpt>
      <trkpt lat="52.135137" lon="6.657458">
        <ele>66.573611</ele>
        <time>2026-05-09T08:26:47.989Z</time>
      </trkpt>
      <trkpt lat="52.135073" lon="6.657315">
        <ele>66.558137</ele>
        <time>2026-05-09T08:26:50.974Z</time>
      </trkpt>
      <trkpt lat="52.134992" lon="6.657168">
        <ele>66.540864</ele>
        <time>2026-05-09T08:26:53.981Z</time>
      </trkpt>
      <trkpt lat="52.134976" lon="6.657018">
        <ele>66.527551</ele>
        <time>2026-05-09T08:26:55.975Z</time>
      </trkpt>
      <trkpt lat="52.134978" lon="6.656852">
        <ele>66.492123</ele>
        <time>2026-05-09T08:26:57.974Z</time>
      </trkpt>
      <trkpt lat="52.134980" lon="6.656676">
        <ele>66.445804</ele>
        <time>2026-05-09T08:26:59.976Z</time>
      </trkpt>
      <trkpt lat="52.134983" lon="6.656494">
        <ele>66.397897</ele>
        <time>2026-05-09T08:27:01.971Z</time>
      </trkpt>
      <trkpt lat="52.134983" lon="6.656304">
        <ele>66.347902</ele>
        <time>2026-05-09T08:27:03.980Z</time>
      </trkpt>
      <trkpt lat="52.134983" lon="6.656112">
        <ele>66.297382</ele>
        <time>2026-05-09T08:27:05.979Z</time>
      </trkpt>
      <trkpt lat="52.134986" lon="6.655922">
        <ele>66.247370</ele>
        <time>2026-05-09T08:27:07.972Z</time>
      </trkpt>
      <trkpt lat="52.134987" lon="6.655744">
        <ele>66.200531</ele>
        <time>2026-05-09T08:27:09.976Z</time>
      </trkpt>
      <trkpt lat="52.134986" lon="6.655563">
        <ele>66.152903</ele>
        <time>2026-05-09T08:27:11.980Z</time>
      </trkpt>
      <trkpt lat="52.134989" lon="6.655380">
        <ele>66.104733</ele>
        <time>2026-05-09T08:27:13.978Z</time>
      </trkpt>
      <trkpt lat="52.134986" lon="6.655192">
        <ele>66.055248</ele>
        <time>2026-05-09T08:27:15.975Z</time>
      </trkpt>
      <trkpt lat="52.134986" lon="6.655004">
        <ele>66.005779</ele>
        <time>2026-05-09T08:27:17.978Z</time>
      </trkpt>
      <trkpt lat="52.134986" lon="6.654811">
        <ele>65.954995</ele>
        <time>2026-05-09T08:27:19.977Z</time>
      </trkpt>
      <trkpt lat="52.134984" lon="6.654615">
        <ele>65.903414</ele>
        <time>2026-05-09T08:27:21.972Z</time>
      </trkpt>
      <trkpt lat="52.134980" lon="6.654416">
        <ele>65.851023</ele>
        <time>2026-05-09T08:27:23.978Z</time>
      </trkpt>
      <trkpt lat="52.134977" lon="6.654220">
        <ele>65.799434</ele>
        <time>2026-05-09T08:27:25.971Z</time>
      </trkpt>
      <trkpt lat="52.134973" lon="6.654022">
        <ele>65.749211</ele>
        <time>2026-05-09T08:27:27.974Z</time>
      </trkpt>
      <trkpt lat="52.134966" lon="6.653833">
        <ele>65.718075</ele>
        <time>2026-05-09T08:27:29.981Z</time>
      </trkpt>
      <trkpt lat="52.134958" lon="6.653645">
        <ele>65.687085</ele>
        <time>2026-05-09T08:27:31.987Z</time>
      </trkpt>
      <trkpt lat="52.134951" lon="6.653459">
        <ele>65.656441</ele>
        <time>2026-05-09T08:27:33.977Z</time>
      </trkpt>
      <trkpt lat="52.134944" lon="6.653265">
        <ele>65.624485</ele>
        <time>2026-05-09T08:27:35.976Z</time>
      </trkpt>
      <trkpt lat="52.134940" lon="6.653066">
        <ele>65.591743</ele>
        <time>2026-05-09T08:27:37.974Z</time>
      </trkpt>
      <trkpt lat="52.134933" lon="6.652870">
        <ele>65.559458</ele>
        <time>2026-05-09T08:27:39.975Z</time>
      </trkpt>
      <trkpt lat="52.134929" lon="6.652671">
        <ele>65.526716</ele>
        <time>2026-05-09T08:27:41.976Z</time>
      </trkpt>
      <trkpt lat="52.134923" lon="6.652475">
        <ele>65.494445</ele>
        <time>2026-05-09T08:27:43.989Z</time>
      </trkpt>
      <trkpt lat="52.134916" lon="6.652277">
        <ele>65.461832</ele>
        <time>2026-05-09T08:27:45.974Z</time>
      </trkpt>
      <trkpt lat="52.134910" lon="6.652080">
        <ele>65.429397</ele>
        <time>2026-05-09T08:27:47.976Z</time>
      </trkpt>
      <trkpt lat="52.134905" lon="6.651892">
        <ele>65.398452</ele>
        <time>2026-05-09T08:27:49.975Z</time>
      </trkpt>
      <trkpt lat="52.134898" lon="6.651704">
        <ele>65.367480</ele>
        <time>2026-05-09T08:27:51.970Z</time>
      </trkpt>
      <trkpt lat="52.134894" lon="6.651511">
        <ele>65.335725</ele>
        <time>2026-05-09T08:27:53.972Z</time>
      </trkpt>
      <trkpt lat="52.134885" lon="6.651317">
        <ele>65.303732</ele>
        <time>2026-05-09T08:27:55.976Z</time>
      </trkpt>
      <trkpt lat="52.134879" lon="6.651132">
        <ele>65.273268</ele>
        <time>2026-05-09T08:27:57.981Z</time>
      </trkpt>
      <trkpt lat="52.134875" lon="6.650943">
        <ele>65.243587</ele>
        <time>2026-05-09T08:27:59.977Z</time>
      </trkpt>
      <trkpt lat="52.134869" lon="6.650755">
        <ele>65.214179</ele>
        <time>2026-05-09T08:28:01.987Z</time>
      </trkpt>
      <trkpt lat="52.134865" lon="6.650571">
        <ele>65.185417</ele>
        <time>2026-05-09T08:28:03.970Z</time>
      </trkpt>
      <trkpt lat="52.134859" lon="6.650383">
        <ele>65.156008</ele>
        <time>2026-05-09T08:28:05.972Z</time>
      </trkpt>
      <trkpt lat="52.134853" lon="6.650194">
        <ele>65.126443</ele>
        <time>2026-05-09T08:28:07.968Z</time>
      </trkpt>
      <trkpt lat="52.134846" lon="6.650004">
        <ele>65.096708</ele>
        <time>2026-05-09T08:28:09.976Z</time>
      </trkpt>
      <trkpt lat="52.134843" lon="6.649818">
        <ele>65.067642</ele>
        <time>2026-05-09T08:28:11.982Z</time>
      </trkpt>
      <trkpt lat="52.134835" lon="6.649630">
        <ele>65.038202</ele>
        <time>2026-05-09T08:28:13.976Z</time>
      </trkpt>
      <trkpt lat="52.134832" lon="6.649438">
        <ele>65.008199</ele>
        <time>2026-05-09T08:28:15.975Z</time>
      </trkpt>
      <trkpt lat="52.134827" lon="6.649252">
        <ele>64.979114</ele>
        <time>2026-05-09T08:28:17.979Z</time>
      </trkpt>
      <trkpt lat="52.134820" lon="6.649063">
        <ele>64.949536</ele>
        <time>2026-05-09T08:28:19.980Z</time>
      </trkpt>
      <trkpt lat="52.134812" lon="6.648878">
        <ele>64.920564</ele>
        <time>2026-05-09T08:28:21.978Z</time>
      </trkpt>
      <trkpt lat="52.134806" lon="6.648699">
        <ele>64.892559</ele>
        <time>2026-05-09T08:28:23.969Z</time>
      </trkpt>
      <trkpt lat="52.134802" lon="6.648512">
        <ele>64.863328</ele>
        <time>2026-05-09T08:28:25.977Z</time>
      </trkpt>
      <trkpt lat="52.134793" lon="6.648324">
        <ele>64.833870</ele>
        <time>2026-05-09T08:28:27.981Z</time>
      </trkpt>
      <trkpt lat="52.134788" lon="6.648138">
        <ele>64.820597</ele>
        <time>2026-05-09T08:28:29.976Z</time>
      </trkpt>
      <trkpt lat="52.134781" lon="6.647955">
        <ele>64.848841</ele>
        <time>2026-05-09T08:28:31.976Z</time>
      </trkpt>
      <trkpt lat="52.134776" lon="6.647769">
        <ele>64.877519</ele>
        <time>2026-05-09T08:28:33.974Z</time>
      </trkpt>
      <trkpt lat="52.134773" lon="6.647587">
        <ele>64.905565</ele>
        <time>2026-05-09T08:28:35.977Z</time>
      </trkpt>
      <trkpt lat="52.134772" lon="6.647402">
        <ele>64.934063</ele>
        <time>2026-05-09T08:28:37.981Z</time>
      </trkpt>
      <trkpt lat="52.134770" lon="6.647213">
        <ele>64.963181</ele>
        <time>2026-05-09T08:28:39.981Z</time>
      </trkpt>
      <trkpt lat="52.134771" lon="6.647024">
        <ele>64.992295</ele>
        <time>2026-05-09T08:28:41.981Z</time>
      </trkpt>
      <trkpt lat="52.134770" lon="6.646834">
        <ele>65.021563</ele>
        <time>2026-05-09T08:28:43.981Z</time>
      </trkpt>
      <trkpt lat="52.134772" lon="6.646652">
        <ele>65.049603</ele>
        <time>2026-05-09T08:28:45.981Z</time>
      </trkpt>
      <trkpt lat="52.134772" lon="6.646467">
        <ele>65.078100</ele>
        <time>2026-05-09T08:28:47.982Z</time>
      </trkpt>
      <trkpt lat="52.134776" lon="6.646278">
        <ele>65.107231</ele>
        <time>2026-05-09T08:28:49.981Z</time>
      </trkpt>
      <trkpt lat="52.134782" lon="6.646091">
        <ele>65.136075</ele>
        <time>2026-05-09T08:28:51.983Z</time>
      </trkpt>
      <trkpt lat="52.134786" lon="6.645904">
        <ele>65.164898</ele>
        <time>2026-05-09T08:28:53.980Z</time>
      </trkpt>
      <trkpt lat="52.134787" lon="6.645716">
        <ele>65.193858</ele>
        <time>2026-05-09T08:28:55.978Z</time>
      </trkpt>
      <trkpt lat="52.134793" lon="6.645527">
        <ele>65.223011</ele>
        <time>2026-05-09T08:28:57.976Z</time>
      </trkpt>
      <trkpt lat="52.134802" lon="6.645344">
        <ele>65.251290</ele>
        <time>2026-05-09T08:28:59.980Z</time>
      </trkpt>
      <trkpt lat="52.134805" lon="6.645156">
        <ele>65.255806</ele>
        <time>2026-05-09T08:29:01.980Z</time>
      </trkpt>
      <trkpt lat="52.134814" lon="6.644975">
        <ele>65.241373</ele>
        <time>2026-05-09T08:29:03.985Z</time>
      </trkpt>
      <trkpt lat="52.134820" lon="6.644790">
        <ele>65.226649</ele>
        <time>2026-05-09T08:29:05.983Z</time>
      </trkpt>
      <trkpt lat="52.134829" lon="6.644596">
        <ele>65.211187</ele>
        <time>2026-05-09T08:29:07.982Z</time>
      </trkpt>
      <trkpt lat="52.134835" lon="6.644403">
        <ele>65.195828</ele>
        <time>2026-05-09T08:29:09.975Z</time>
      </trkpt>
      <trkpt lat="52.134842" lon="6.644224">
        <ele>65.181573</ele>
        <time>2026-05-09T08:29:11.982Z</time>
      </trkpt>
      <trkpt lat="52.134852" lon="6.644047">
        <ele>65.167446</ele>
        <time>2026-05-09T08:29:13.983Z</time>
      </trkpt>
      <trkpt lat="52.134861" lon="6.643862">
        <ele>65.152696</ele>
        <time>2026-05-09T08:29:15.982Z</time>
      </trkpt>
      <trkpt lat="52.134863" lon="6.643674">
        <ele>65.137752</ele>
        <time>2026-05-09T08:29:17.980Z</time>
      </trkpt>
      <trkpt lat="52.134870" lon="6.643491">
        <ele>65.123180</ele>
        <time>2026-05-09T08:29:19.982Z</time>
      </trkpt>
      <trkpt lat="52.134878" lon="6.643304">
        <ele>65.108281</ele>
        <time>2026-05-09T08:29:21.981Z</time>
      </trkpt>
      <trkpt lat="52.134881" lon="6.643116">
        <ele>65.093335</ele>
        <time>2026-05-09T08:29:23.980Z</time>
      </trkpt>
      <trkpt lat="52.134873" lon="6.642923">
        <ele>65.077960</ele>
        <time>2026-05-09T08:29:25.977Z</time>
      </trkpt>
      <trkpt lat="52.134881" lon="6.642732">
        <ele>65.062745</ele>
        <time>2026-05-09T08:29:27.975Z</time>
      </trkpt>
      <trkpt lat="52.134886" lon="6.642551">
        <ele>65.048345</ele>
        <time>2026-05-09T08:29:29.975Z</time>
      </trkpt>
      <trkpt lat="52.134893" lon="6.642366">
        <ele>65.033614</ele>
        <time>2026-05-09T08:29:31.974Z</time>
      </trkpt>
      <trkpt lat="52.134901" lon="6.642176">
        <ele>65.007410</ele>
        <time>2026-05-09T08:29:33.974Z</time>
      </trkpt>
      <trkpt lat="52.134910" lon="6.641990">
        <ele>64.979716</ele>
        <time>2026-05-09T08:29:35.974Z</time>
      </trkpt>
      <trkpt lat="52.134919" lon="6.641809">
        <ele>64.952762</ele>
        <time>2026-05-09T08:29:37.979Z</time>
      </trkpt>
      <trkpt lat="52.134924" lon="6.641630">
        <ele>64.926166</ele>
        <time>2026-05-09T08:29:39.975Z</time>
      </trkpt>
      <trkpt lat="52.134932" lon="6.641450">
        <ele>64.899379</ele>
        <time>2026-05-09T08:29:41.978Z</time>
      </trkpt>
      <trkpt lat="52.134936" lon="6.641273">
        <ele>64.873089</ele>
        <time>2026-05-09T08:29:43.981Z</time>
      </trkpt>
      <trkpt lat="52.134944" lon="6.641093">
        <ele>64.846301</ele>
        <time>2026-05-09T08:29:45.972Z</time>
      </trkpt>
      <trkpt lat="52.134953" lon="6.640911">
        <ele>64.819199</ele>
        <time>2026-05-09T08:29:47.979Z</time>
      </trkpt>
      <trkpt lat="52.134962" lon="6.640733">
        <ele>64.792689</ele>
        <time>2026-05-09T08:29:49.979Z</time>
      </trkpt>
      <trkpt lat="52.134969" lon="6.640549">
        <ele>64.765326</ele>
        <time>2026-05-09T08:29:51.975Z</time>
      </trkpt>
      <trkpt lat="52.134984" lon="6.640369">
        <ele>64.738363</ele>
        <time>2026-05-09T08:29:53.973Z</time>
      </trkpt>
      <trkpt lat="52.135000" lon="6.640202">
        <ele>64.713275</ele>
        <time>2026-05-09T08:29:55.976Z</time>
      </trkpt>
      <trkpt lat="52.135007" lon="6.640034">
        <ele>64.688282</ele>
        <time>2026-05-09T08:29:57.983Z</time>
      </trkpt>
      <trkpt lat="52.135013" lon="6.639863">
        <ele>64.662859</ele>
        <time>2026-05-09T08:29:59.976Z</time>
      </trkpt>
      <trkpt lat="52.135023" lon="6.639687">
        <ele>64.636623</ele>
        <time>2026-05-09T08:30:01.977Z</time>
      </trkpt>
      <trkpt lat="52.135029" lon="6.639507">
        <ele>64.609866</ele>
        <time>2026-05-09T08:30:03.977Z</time>
      </trkpt>
      <trkpt lat="52.135037" lon="6.639325">
        <ele>64.614005</ele>
        <time>2026-05-09T08:30:05.973Z</time>
      </trkpt>
      <trkpt lat="52.135039" lon="6.639133">
        <ele>64.651406</ele>
        <time>2026-05-09T08:30:07.978Z</time>
      </trkpt>
      <trkpt lat="52.135046" lon="6.638948">
        <ele>64.687507</ele>
        <time>2026-05-09T08:30:09.976Z</time>
      </trkpt>
      <trkpt lat="52.135057" lon="6.638759">
        <ele>64.724483</ele>
        <time>2026-05-09T08:30:11.975Z</time>
      </trkpt>
      <trkpt lat="52.135064" lon="6.638565">
        <ele>64.762334</ele>
        <time>2026-05-09T08:30:13.978Z</time>
      </trkpt>
      <trkpt lat="52.135072" lon="6.638370">
        <ele>64.800399</ele>
        <time>2026-05-09T08:30:15.972Z</time>
      </trkpt>
      <trkpt lat="52.135079" lon="6.638182">
        <ele>64.837083</ele>
        <time>2026-05-09T08:30:17.975Z</time>
      </trkpt>
      <trkpt lat="52.135086" lon="6.638007">
        <ele>64.871240</ele>
        <time>2026-05-09T08:30:19.977Z</time>
      </trkpt>
      <trkpt lat="52.135089" lon="6.637829">
        <ele>64.905922</ele>
        <time>2026-05-09T08:30:21.976Z</time>
      </trkpt>
      <trkpt lat="52.135096" lon="6.637652">
        <ele>64.940467</ele>
        <time>2026-05-09T08:30:23.973Z</time>
      </trkpt>
      <trkpt lat="52.135105" lon="6.637470">
        <ele>64.976030</ele>
        <time>2026-05-09T08:30:25.972Z</time>
      </trkpt>
      <trkpt lat="52.135111" lon="6.637282">
        <ele>65.012696</ele>
        <time>2026-05-09T08:30:27.976Z</time>
      </trkpt>
      <trkpt lat="52.135120" lon="6.637094">
        <ele>65.049424</ele>
        <time>2026-05-09T08:30:29.976Z</time>
      </trkpt>
      <trkpt lat="52.135127" lon="6.636907">
        <ele>65.085914</ele>
        <time>2026-05-09T08:30:31.979Z</time>
      </trkpt>
      <trkpt lat="52.135134" lon="6.636716">
        <ele>65.123181</ele>
        <time>2026-05-09T08:30:33.981Z</time>
      </trkpt>
      <trkpt lat="52.135138" lon="6.636529">
        <ele>65.159625</ele>
        <time>2026-05-09T08:30:35.986Z</time>
      </trkpt>
      <trkpt lat="52.135148" lon="6.636344">
        <ele>65.191163</ele>
        <time>2026-05-09T08:30:37.977Z</time>
      </trkpt>
      <trkpt lat="52.135153" lon="6.636157">
        <ele>65.221748</ele>
        <time>2026-05-09T08:30:39.978Z</time>
      </trkpt>
      <trkpt lat="52.135151" lon="6.635970">
        <ele>65.252309</ele>
        <time>2026-05-09T08:30:41.978Z</time>
      </trkpt>
      <trkpt lat="52.135140" lon="6.635787">
        <ele>65.282354</ele>
        <time>2026-05-09T08:30:43.977Z</time>
      </trkpt>
      <trkpt lat="52.135142" lon="6.635602">
        <ele>65.312588</ele>
        <time>2026-05-09T08:30:45.978Z</time>
      </trkpt>
      <trkpt lat="52.135150" lon="6.635413">
        <ele>65.343545</ele>
        <time>2026-05-09T08:30:47.984Z</time>
      </trkpt>
      <trkpt lat="52.135157" lon="6.635225">
        <ele>65.374320</ele>
        <time>2026-05-09T08:30:49.978Z</time>
      </trkpt>
      <trkpt lat="52.135168" lon="6.635044">
        <ele>65.404041</ele>
        <time>2026-05-09T08:30:51.978Z</time>
      </trkpt>
      <trkpt lat="52.135174" lon="6.634864">
        <ele>65.433496</ele>
        <time>2026-05-09T08:30:53.977Z</time>
      </trkpt>
      <trkpt lat="52.135182" lon="6.634679">
        <ele>65.463801</ele>
        <time>2026-05-09T08:30:55.977Z</time>
      </trkpt>
      <trkpt lat="52.135188" lon="6.634484">
        <ele>65.495704</ele>
        <time>2026-05-09T08:30:57.974Z</time>
      </trkpt>
      <trkpt lat="52.135193" lon="6.634290">
        <ele>65.527432</ele>
        <time>2026-05-09T08:30:59.983Z</time>
      </trkpt>
      <trkpt lat="52.135200" lon="6.634103">
        <ele>65.558045</ele>
        <time>2026-05-09T08:31:01.984Z</time>
      </trkpt>
      <trkpt lat="52.135210" lon="6.633914">
        <ele>65.589042</ele>
        <time>2026-05-09T08:31:03.981Z</time>
      </trkpt>
      <trkpt lat="52.135217" lon="6.633721">
        <ele>65.620633</ele>
        <time>2026-05-09T08:31:05.976Z</time>
      </trkpt>
      <trkpt lat="52.135225" lon="6.633519">
        <ele>65.646417</ele>
        <time>2026-05-09T08:31:07.983Z</time>
      </trkpt>
      <trkpt lat="52.135234" lon="6.633335">
        <ele>65.648604</ele>
        <time>2026-05-09T08:31:09.973Z</time>
      </trkpt>
      <trkpt lat="52.135239" lon="6.633161">
        <ele>65.650667</ele>
        <time>2026-05-09T08:31:11.983Z</time>
      </trkpt>
      <trkpt lat="52.135245" lon="6.632984">
        <ele>65.652767</ele>
        <time>2026-05-09T08:31:13.982Z</time>
      </trkpt>
      <trkpt lat="52.135252" lon="6.632800">
        <ele>65.654951</ele>
        <time>2026-05-09T08:31:15.973Z</time>
      </trkpt>
      <trkpt lat="52.135257" lon="6.632614">
        <ele>65.657157</ele>
        <time>2026-05-09T08:31:17.981Z</time>
      </trkpt>
      <trkpt lat="52.135264" lon="6.632424">
        <ele>65.659412</ele>
        <time>2026-05-09T08:31:19.974Z</time>
      </trkpt>
      <trkpt lat="52.135272" lon="6.632234">
        <ele>65.661668</ele>
        <time>2026-05-09T08:31:21.975Z</time>
      </trkpt>
      <trkpt lat="52.135283" lon="6.632056">
        <ele>65.663788</ele>
        <time>2026-05-09T08:31:23.975Z</time>
      </trkpt>
      <trkpt lat="52.135285" lon="6.631881">
        <ele>65.665861</ele>
        <time>2026-05-09T08:31:25.976Z</time>
      </trkpt>
      <trkpt lat="52.135293" lon="6.631705">
        <ele>65.667952</ele>
        <time>2026-05-09T08:31:27.980Z</time>
      </trkpt>
      <trkpt lat="52.135301" lon="6.631534">
        <ele>65.669984</ele>
        <time>2026-05-09T08:31:29.977Z</time>
      </trkpt>
      <trkpt lat="52.135311" lon="6.631368">
        <ele>65.671960</ele>
        <time>2026-05-09T08:31:31.979Z</time>
      </trkpt>
      <trkpt lat="52.135313" lon="6.631188">
        <ele>65.674093</ele>
        <time>2026-05-09T08:31:33.975Z</time>
      </trkpt>
      <trkpt lat="52.135323" lon="6.631008">
        <ele>65.676234</ele>
        <time>2026-05-09T08:31:35.981Z</time>
      </trkpt>
      <trkpt lat="52.135332" lon="6.630824">
        <ele>65.678421</ele>
        <time>2026-05-09T08:31:37.978Z</time>
      </trkpt>
      <trkpt lat="52.135339" lon="6.630644">
        <ele>65.680557</ele>
        <time>2026-05-09T08:31:39.979Z</time>
      </trkpt>
      <trkpt lat="52.135348" lon="6.630456">
        <ele>65.671852</ele>
        <time>2026-05-09T08:31:41.970Z</time>
      </trkpt>
      <trkpt lat="52.135355" lon="6.630263">
        <ele>65.662900</ele>
        <time>2026-05-09T08:31:43.980Z</time>
      </trkpt>
      <trkpt lat="52.135361" lon="6.630085">
        <ele>65.654645</ele>
        <time>2026-05-09T08:31:45.979Z</time>
      </trkpt>
      <trkpt lat="52.135369" lon="6.629907">
        <ele>65.646381</ele>
        <time>2026-05-09T08:31:47.981Z</time>
      </trkpt>
      <trkpt lat="52.135375" lon="6.629722">
        <ele>65.637803</ele>
        <time>2026-05-09T08:31:49.972Z</time>
      </trkpt>
      <trkpt lat="52.135383" lon="6.629549">
        <ele>65.629770</ele>
        <time>2026-05-09T08:31:51.976Z</time>
      </trkpt>
      <trkpt lat="52.135389" lon="6.629384">
        <ele>65.622117</ele>
        <time>2026-05-09T08:31:53.976Z</time>
      </trkpt>
      <trkpt lat="52.135391" lon="6.629230">
        <ele>65.614984</ele>
        <time>2026-05-09T08:31:55.985Z</time>
      </trkpt>
      <trkpt lat="52.135403" lon="6.629080">
        <ele>65.607980</ele>
        <time>2026-05-09T08:31:57.976Z</time>
      </trkpt>
      <trkpt lat="52.135377" lon="6.628934">
        <ele>65.600941</ele>
        <time>2026-05-09T08:32:00.976Z</time>
      </trkpt>
      <trkpt lat="52.135262" lon="6.628898">
        <ele>65.592107</ele>
        <time>2026-05-09T08:32:04.992Z</time>
      </trkpt>
      <trkpt lat="52.135239" lon="6.628733">
        <ele>65.584273</ele>
        <time>2026-05-09T08:32:07.976Z</time>
      </trkpt>
      <trkpt lat="52.135276" lon="6.628521">
        <ele>65.574067</ele>
        <time>2026-05-09T08:32:10.984Z</time>
      </trkpt>
      <trkpt lat="52.135286" lon="6.628367">
        <ele>65.566897</ele>
        <time>2026-05-09T08:32:12.972Z</time>
      </trkpt>
      <trkpt lat="52.135296" lon="6.628215">
        <ele>65.559818</ele>
        <time>2026-05-09T08:32:14.974Z</time>
      </trkpt>
      <trkpt lat="52.135303" lon="6.628004">
        <ele>65.550034</ele>
        <time>2026-05-09T08:32:17.981Z</time>
      </trkpt>
      <trkpt lat="52.135312" lon="6.627796">
        <ele>65.543645</ele>
        <time>2026-05-09T08:32:20.978Z</time>
      </trkpt>
      <trkpt lat="52.135328" lon="6.627578">
        <ele>65.540859</ele>
        <time>2026-05-09T08:32:23.977Z</time>
      </trkpt>
      <trkpt lat="52.135365" lon="6.627381">
        <ele>65.538244</ele>
        <time>2026-05-09T08:32:26.981Z</time>
      </trkpt>
      <trkpt lat="52.135373" lon="6.627196">
        <ele>65.535891</ele>
        <time>2026-05-09T08:32:29.979Z</time>
      </trkpt>
      <trkpt lat="52.135293" lon="6.627068">
        <ele>65.533573</ele>
        <time>2026-05-09T08:32:32.978Z</time>
      </trkpt>
      <trkpt lat="52.135335" lon="6.626936">
        <ele>65.531686</ele>
        <time>2026-05-09T08:32:35.978Z</time>
      </trkpt>
      <trkpt lat="52.135289" lon="6.626788">
        <ele>65.529581</ele>
        <time>2026-05-09T08:32:39.979Z</time>
      </trkpt>
      <trkpt lat="52.135209" lon="6.626658">
        <ele>65.527245</ele>
        <time>2026-05-09T08:32:42.984Z</time>
      </trkpt>
      <trkpt lat="52.135292" lon="6.626502">
        <ele>65.524625</ele>
        <time>2026-05-09T08:32:45.988Z</time>
      </trkpt>
      <trkpt lat="52.135377" lon="6.626454">
        <ele>65.522765</ele>
        <time>2026-05-09T08:32:47.984Z</time>
      </trkpt>
      <trkpt lat="52.135464" lon="6.626312">
        <ele>65.520219</ele>
        <time>2026-05-09T08:32:50.981Z</time>
      </trkpt>
      <trkpt lat="52.135481" lon="6.626093">
        <ele>65.517418</ele>
        <time>2026-05-09T08:32:53.975Z</time>
      </trkpt>
      <trkpt lat="52.135494" lon="6.625938">
        <ele>65.515433</ele>
        <time>2026-05-09T08:32:55.982Z</time>
      </trkpt>
      <trkpt lat="52.135509" lon="6.625787">
        <ele>65.513492</ele>
        <time>2026-05-09T08:32:57.982Z</time>
      </trkpt>
      <trkpt lat="52.135518" lon="6.625629">
        <ele>65.511478</ele>
        <time>2026-05-09T08:32:59.988Z</time>
      </trkpt>
      <trkpt lat="52.135528" lon="6.625466">
        <ele>65.509399</ele>
        <time>2026-05-09T08:33:01.978Z</time>
      </trkpt>
      <trkpt lat="52.135543" lon="6.625313">
        <ele>65.509547</ele>
        <time>2026-05-09T08:33:03.989Z</time>
      </trkpt>
      <trkpt lat="52.135546" lon="6.625153">
        <ele>65.524100</ele>
        <time>2026-05-09T08:33:05.976Z</time>
      </trkpt>
      <trkpt lat="52.135558" lon="6.624989">
        <ele>65.539116</ele>
        <time>2026-05-09T08:33:07.982Z</time>
      </trkpt>
      <trkpt lat="52.135567" lon="6.624832">
        <ele>65.553452</ele>
        <time>2026-05-09T08:33:09.986Z</time>
      </trkpt>
      <trkpt lat="52.135570" lon="6.624677">
        <ele>65.567551</ele>
        <time>2026-05-09T08:33:11.976Z</time>
      </trkpt>
      <trkpt lat="52.135592" lon="6.624518">
        <ele>65.582369</ele>
        <time>2026-05-09T08:33:13.976Z</time>
      </trkpt>
      <trkpt lat="52.135597" lon="6.624354">
        <ele>65.597297</ele>
        <time>2026-05-09T08:33:15.987Z</time>
      </trkpt>
      <trkpt lat="52.135602" lon="6.624187">
        <ele>65.612498</ele>
        <time>2026-05-09T08:33:17.983Z</time>
      </trkpt>
      <trkpt lat="52.135607" lon="6.624031">
        <ele>65.626700</ele>
        <time>2026-05-09T08:33:19.977Z</time>
      </trkpt>
      <trkpt lat="52.135616" lon="6.623869">
        <ele>65.641489</ele>
        <time>2026-05-09T08:33:21.973Z</time>
      </trkpt>
      <trkpt lat="52.135625" lon="6.623697">
        <ele>65.657183</ele>
        <time>2026-05-09T08:33:23.976Z</time>
      </trkpt>
      <trkpt lat="52.135639" lon="6.623524">
        <ele>65.673047</ele>
        <time>2026-05-09T08:33:25.983Z</time>
      </trkpt>
      <trkpt lat="52.135652" lon="6.623365">
        <ele>65.687630</ele>
        <time>2026-05-09T08:33:27.985Z</time>
      </trkpt>
      <trkpt lat="52.135664" lon="6.623199">
        <ele>65.702826</ele>
        <time>2026-05-09T08:33:29.982Z</time>
      </trkpt>
      <trkpt lat="52.135665" lon="6.623028">
        <ele>65.718374</ele>
        <time>2026-05-09T08:33:31.983Z</time>
      </trkpt>
      <trkpt lat="52.135671" lon="6.622857">
        <ele>65.733945</ele>
        <time>2026-05-09T08:33:33.981Z</time>
      </trkpt>
      <trkpt lat="52.135690" lon="6.622686">
        <ele>65.749745</ele>
        <time>2026-05-09T08:33:35.981Z</time>
      </trkpt>
      <trkpt lat="52.135703" lon="6.622508">
        <ele>65.766042</ele>
        <time>2026-05-09T08:33:37.977Z</time>
      </trkpt>
      <trkpt lat="52.135714" lon="6.622331">
        <ele>65.773840</ele>
        <time>2026-05-09T08:33:39.977Z</time>
      </trkpt>
      <trkpt lat="52.135724" lon="6.622149">
        <ele>65.773293</ele>
        <time>2026-05-09T08:33:41.973Z</time>
      </trkpt>
      <trkpt lat="52.135739" lon="6.621981">
        <ele>65.772785</ele>
        <time>2026-05-09T08:33:43.972Z</time>
      </trkpt>
      <trkpt lat="52.135752" lon="6.621821">
        <ele>65.772303</ele>
        <time>2026-05-09T08:33:45.977Z</time>
      </trkpt>
      <trkpt lat="52.135761" lon="6.621661">
        <ele>65.771822</ele>
        <time>2026-05-09T08:33:47.971Z</time>
      </trkpt>
      <trkpt lat="52.135774" lon="6.621501">
        <ele>65.771340</ele>
        <time>2026-05-09T08:33:49.977Z</time>
      </trkpt>
      <trkpt lat="52.135786" lon="6.621336">
        <ele>65.770843</ele>
        <time>2026-05-09T08:33:51.977Z</time>
      </trkpt>
      <trkpt lat="52.135794" lon="6.621175">
        <ele>65.770360</ele>
        <time>2026-05-09T08:33:53.977Z</time>
      </trkpt>
      <trkpt lat="52.135791" lon="6.620966">
        <ele>65.769734</ele>
        <time>2026-05-09T08:33:56.975Z</time>
      </trkpt>
      <trkpt lat="52.135805" lon="6.620811">
        <ele>65.769266</ele>
        <time>2026-05-09T08:33:58.977Z</time>
      </trkpt>
      <trkpt lat="52.135819" lon="6.620646">
        <ele>65.768768</ele>
        <time>2026-05-09T08:34:00.974Z</time>
      </trkpt>
      <trkpt lat="52.135834" lon="6.620480">
        <ele>65.768266</ele>
        <time>2026-05-09T08:34:02.976Z</time>
      </trkpt>
      <trkpt lat="52.135848" lon="6.620306">
        <ele>65.767741</ele>
        <time>2026-05-09T08:34:04.982Z</time>
      </trkpt>
      <trkpt lat="52.135866" lon="6.620135">
        <ele>65.767222</ele>
        <time>2026-05-09T08:34:06.976Z</time>
      </trkpt>
      <trkpt lat="52.135883" lon="6.619962">
        <ele>65.766698</ele>
        <time>2026-05-09T08:34:08.982Z</time>
      </trkpt>
      <trkpt lat="52.135905" lon="6.619793">
        <ele>65.766182</ele>
        <time>2026-05-09T08:34:10.975Z</time>
      </trkpt>
      <trkpt lat="52.135922" lon="6.619626">
        <ele>65.765676</ele>
        <time>2026-05-09T08:34:12.981Z</time>
      </trkpt>
      <trkpt lat="52.135944" lon="6.619464">
        <ele>65.749678</ele>
        <time>2026-05-09T08:34:14.980Z</time>
      </trkpt>
      <trkpt lat="52.135964" lon="6.619294">
        <ele>65.700097</ele>
        <time>2026-05-09T08:34:16.982Z</time>
      </trkpt>
      <trkpt lat="52.135982" lon="6.619115">
        <ele>65.648141</ele>
        <time>2026-05-09T08:34:18.979Z</time>
      </trkpt>
      <trkpt lat="52.135998" lon="6.618937">
        <ele>65.596611</ele>
        <time>2026-05-09T08:34:20.975Z</time>
      </trkpt>
      <trkpt lat="52.136016" lon="6.618764">
        <ele>65.546350</ele>
        <time>2026-05-09T08:34:22.976Z</time>
      </trkpt>
      <trkpt lat="52.136024" lon="6.618591">
        <ele>65.496655</ele>
        <time>2026-05-09T08:34:24.978Z</time>
      </trkpt>
      <trkpt lat="52.136014" lon="6.618418">
        <ele>65.446882</ele>
        <time>2026-05-09T08:34:26.978Z</time>
      </trkpt>
      <trkpt lat="52.136009" lon="6.618261">
        <ele>65.401850</ele>
        <time>2026-05-09T08:34:28.974Z</time>
      </trkpt>
      <trkpt lat="52.136001" lon="6.618096">
        <ele>65.354441</ele>
        <time>2026-05-09T08:34:30.979Z</time>
      </trkpt>
      <trkpt lat="52.135993" lon="6.617919">
        <ele>65.303604</ele>
        <time>2026-05-09T08:34:32.978Z</time>
      </trkpt>
      <trkpt lat="52.135986" lon="6.617745">
        <ele>65.253656</ele>
        <time>2026-05-09T08:34:34.977Z</time>
      </trkpt>
      <trkpt lat="52.135978" lon="6.617563">
        <ele>65.201391</ele>
        <time>2026-05-09T08:34:36.973Z</time>
      </trkpt>
      <trkpt lat="52.135967" lon="6.617375">
        <ele>65.147296</ele>
        <time>2026-05-09T08:34:38.976Z</time>
      </trkpt>
      <trkpt lat="52.135961" lon="6.617185">
        <ele>65.092800</ele>
        <time>2026-05-09T08:34:40.977Z</time>
      </trkpt>
      <trkpt lat="52.135956" lon="6.616996">
        <ele>65.038613</ele>
        <time>2026-05-09T08:34:42.975Z</time>
      </trkpt>
      <trkpt lat="52.135956" lon="6.616816">
        <ele>64.987054</ele>
        <time>2026-05-09T08:34:44.975Z</time>
      </trkpt>
      <trkpt lat="52.135960" lon="6.616634">
        <ele>64.934888</ele>
        <time>2026-05-09T08:34:46.976Z</time>
      </trkpt>
      <trkpt lat="52.135967" lon="6.616461">
        <ele>64.967167</ele>
        <time>2026-05-09T08:34:48.975Z</time>
      </trkpt>
      <trkpt lat="52.135962" lon="6.616299">
        <ele>65.014162</ele>
        <time>2026-05-09T08:34:50.983Z</time>
      </trkpt>
      <trkpt lat="52.135955" lon="6.616131">
        <ele>65.062949</ele>
        <time>2026-05-09T08:34:52.973Z</time>
      </trkpt>
      <trkpt lat="52.135977" lon="6.615962">
        <ele>65.113002</ele>
        <time>2026-05-09T08:34:54.982Z</time>
      </trkpt>
      <trkpt lat="52.135984" lon="6.615779">
        <ele>65.166125</ele>
        <time>2026-05-09T08:34:56.976Z</time>
      </trkpt>
      <trkpt lat="52.135981" lon="6.615585">
        <ele>65.222350</ele>
        <time>2026-05-09T08:34:58.969Z</time>
      </trkpt>
      <trkpt lat="52.135963" lon="6.615391">
        <ele>65.279196</ele>
        <time>2026-05-09T08:35:00.969Z</time>
      </trkpt>
      <trkpt lat="52.135921" lon="6.615210">
        <ele>65.335259</ele>
        <time>2026-05-09T08:35:02.975Z</time>
      </trkpt>
      <trkpt lat="52.135876" lon="6.615047">
        <ele>65.387042</ele>
        <time>2026-05-09T08:35:04.973Z</time>
      </trkpt>
      <trkpt lat="52.135833" lon="6.614888">
        <ele>65.437382</ele>
        <time>2026-05-09T08:35:06.966Z</time>
      </trkpt>
      <trkpt lat="52.135790" lon="6.614720">
        <ele>65.490119</ele>
        <time>2026-05-09T08:35:08.973Z</time>
      </trkpt>
      <trkpt lat="52.135739" lon="6.614544">
        <ele>65.546509</ele>
        <time>2026-05-09T08:35:10.979Z</time>
      </trkpt>
      <trkpt lat="52.135682" lon="6.614380">
        <ele>65.601113</ele>
        <time>2026-05-09T08:35:12.971Z</time>
      </trkpt>
      <trkpt lat="52.135626" lon="6.614215">
        <ele>65.655740</ele>
        <time>2026-05-09T08:35:14.971Z</time>
      </trkpt>
      <trkpt lat="52.135574" lon="6.614057">
        <ele>65.707683</ele>
        <time>2026-05-09T08:35:16.971Z</time>
      </trkpt>
      <trkpt lat="52.135530" lon="6.613904">
        <ele>65.756636</ele>
        <time>2026-05-09T08:35:18.973Z</time>
      </trkpt>
      <trkpt lat="52.135497" lon="6.613766">
        <ele>65.843997</ele>
        <time>2026-05-09T08:35:20.973Z</time>
      </trkpt>
      <trkpt lat="52.135453" lon="6.613589">
        <ele>65.999436</ele>
        <time>2026-05-09T08:35:23.976Z</time>
      </trkpt>
      <trkpt lat="52.135424" lon="6.613402">
        <ele>66.156431</ele>
        <time>2026-05-09T08:35:27.973Z</time>
      </trkpt>
      <trkpt lat="52.135388" lon="6.613231">
        <ele>66.303580</ele>
        <time>2026-05-09T08:35:30.976Z</time>
      </trkpt>
      <trkpt lat="52.135346" lon="6.613052">
        <ele>66.459563</ele>
        <time>2026-05-09T08:35:33.974Z</time>
      </trkpt>
      <trkpt lat="52.135309" lon="6.612878">
        <ele>66.609452</ele>
        <time>2026-05-09T08:35:36.973Z</time>
      </trkpt>
      <trkpt lat="52.135274" lon="6.612722">
        <ele>66.744648</ele>
        <time>2026-05-09T08:35:39.974Z</time>
      </trkpt>
      <trkpt lat="52.135244" lon="6.612573">
        <ele>66.872288</ele>
        <time>2026-05-09T08:35:42.972Z</time>
      </trkpt>
      <trkpt lat="52.135219" lon="6.612389">
        <ele>67.025684</ele>
        <time>2026-05-09T08:35:46.973Z</time>
      </trkpt>
      <trkpt lat="52.135180" lon="6.612239">
        <ele>67.158282</ele>
        <time>2026-05-09T08:35:49.974Z</time>
      </trkpt>
      <trkpt lat="52.135149" lon="6.612065">
        <ele>67.305759</ele>
        <time>2026-05-09T08:35:52.976Z</time>
      </trkpt>
      <trkpt lat="52.135122" lon="6.611895">
        <ele>67.448692</ele>
        <time>2026-05-09T08:35:55.975Z</time>
      </trkpt>
      <trkpt lat="52.135108" lon="6.611746">
        <ele>67.571387</ele>
        <time>2026-05-09T08:35:58.967Z</time>
      </trkpt>
      <trkpt lat="52.135087" lon="6.611596">
        <ele>67.696618</ele>
        <time>2026-05-09T08:36:01.980Z</time>
      </trkpt>
      <trkpt lat="52.135075" lon="6.611424">
        <ele>67.837524</ele>
        <time>2026-05-09T08:36:05.974Z</time>
      </trkpt>
      <trkpt lat="52.135087" lon="6.611257">
        <ele>67.974385</ele>
        <time>2026-05-09T08:36:10.975Z</time>
      </trkpt>
      <trkpt lat="52.135054" lon="6.611094">
        <ele>68.114094</ele>
        <time>2026-05-09T08:36:14.977Z</time>
      </trkpt>
      <trkpt lat="52.135039" lon="6.610922">
        <ele>68.137059</ele>
        <time>2026-05-09T08:36:18.977Z</time>
      </trkpt>
      <trkpt lat="52.135057" lon="6.610744">
        <ele>68.101415</ele>
        <time>2026-05-09T08:36:22.973Z</time>
      </trkpt>
      <trkpt lat="52.135057" lon="6.610584">
        <ele>68.069803</ele>
        <time>2026-05-09T08:36:26.974Z</time>
      </trkpt>
      <trkpt lat="52.135060" lon="6.610405">
        <ele>68.034423</ele>
        <time>2026-05-09T08:36:30.976Z</time>
      </trkpt>
      <trkpt lat="52.135066" lon="6.610217">
        <ele>67.997228</ele>
        <time>2026-05-09T08:36:34.975Z</time>
      </trkpt>
      <trkpt lat="52.135070" lon="6.610056">
        <ele>67.965392</ele>
        <time>2026-05-09T08:36:38.977Z</time>
      </trkpt>
      <trkpt lat="52.135060" lon="6.609893">
        <ele>67.933026</ele>
        <time>2026-05-09T08:36:42.974Z</time>
      </trkpt>
      <trkpt lat="52.135043" lon="6.609728">
        <ele>67.899969</ele>
        <time>2026-05-09T08:36:46.974Z</time>
      </trkpt>
      <trkpt lat="52.135051" lon="6.609580">
        <ele>67.870615</ele>
        <time>2026-05-09T08:36:50.980Z</time>
      </trkpt>
      <trkpt lat="52.135077" lon="6.609425">
        <ele>67.838867</ele>
        <time>2026-05-09T08:36:56.973Z</time>
      </trkpt>
      <trkpt lat="52.135096" lon="6.609181">
        <ele>67.790271</ele>
        <time>2026-05-09T08:37:43.975Z</time>
      </trkpt>
      <trkpt lat="52.135086" lon="6.609015">
        <ele>67.757316</ele>
        <time>2026-05-09T08:37:49.975Z</time>
      </trkpt>
      <trkpt lat="52.135075" lon="6.608840">
        <ele>67.722558</ele>
        <time>2026-05-09T08:37:55.983Z</time>
      </trkpt>
      <trkpt lat="52.135060" lon="6.608674">
        <ele>67.689407</ele>
        <time>2026-05-09T08:38:00.980Z</time>
      </trkpt>
      <trkpt lat="52.135045" lon="6.608522">
        <ele>67.658989</ele>
        <time>2026-05-09T08:38:06.979Z</time>
      </trkpt>
      <trkpt lat="52.135107" lon="6.608367">
        <ele>67.622436</ele>
        <time>2026-05-09T08:38:13.974Z</time>
      </trkpt>
      <trkpt lat="52.135108" lon="6.608217">
        <ele>67.592797</ele>
        <time>2026-05-09T08:38:16.971Z</time>
      </trkpt>
      <trkpt lat="52.135085" lon="6.608071">
        <ele>67.483505</ele>
        <time>2026-05-09T08:38:19.978Z</time>
      </trkpt>
      <trkpt lat="52.135102" lon="6.607908">
        <ele>67.308177</ele>
        <time>2026-05-09T08:38:22.975Z</time>
      </trkpt>
      <trkpt lat="52.135112" lon="6.607737">
        <ele>67.126022</ele>
        <time>2026-05-09T08:38:25.985Z</time>
      </trkpt>
      <trkpt lat="52.135112" lon="6.607553">
        <ele>66.930903</ele>
        <time>2026-05-09T08:38:28.977Z</time>
      </trkpt>
      <trkpt lat="52.135112" lon="6.607341">
        <ele>66.706092</ele>
        <time>2026-05-09T08:38:31.975Z</time>
      </trkpt>
      <trkpt lat="52.135114" lon="6.607189">
        <ele>66.544870</ele>
        <time>2026-05-09T08:38:33.975Z</time>
      </trkpt>
      <trkpt lat="52.135114" lon="6.607037">
        <ele>66.383684</ele>
        <time>2026-05-09T08:38:35.982Z</time>
      </trkpt>
      <trkpt lat="52.135117" lon="6.606825">
        <ele>66.158813</ele>
        <time>2026-05-09T08:38:38.981Z</time>
      </trkpt>
      <trkpt lat="52.135117" lon="6.606676">
        <ele>66.000809</ele>
        <time>2026-05-09T08:38:40.976Z</time>
      </trkpt>
      <trkpt lat="52.135117" lon="6.606521">
        <ele>65.836443</ele>
        <time>2026-05-09T08:38:42.973Z</time>
      </trkpt>
      <trkpt lat="52.135122" lon="6.606374">
        <ele>65.680320</ele>
        <time>2026-05-09T08:38:44.975Z</time>
      </trkpt>
      <trkpt lat="52.135123" lon="6.606168">
        <ele>65.461865</ele>
        <time>2026-05-09T08:38:47.982Z</time>
      </trkpt>
      <trkpt lat="52.135125" lon="6.605955">
        <ele>65.235967</ele>
        <time>2026-05-09T08:38:50.981Z</time>
      </trkpt>
      <trkpt lat="52.135126" lon="6.605801">
        <ele>65.072652</ele>
        <time>2026-05-09T08:38:52.980Z</time>
      </trkpt>
      <trkpt lat="52.135131" lon="6.605643">
        <ele>64.904881</ele>
        <time>2026-05-09T08:38:54.980Z</time>
      </trkpt>
      <trkpt lat="52.135128" lon="6.605480">
        <ele>64.731953</ele>
        <time>2026-05-09T08:38:56.971Z</time>
      </trkpt>
      <trkpt lat="52.135132" lon="6.605319">
        <ele>64.561084</ele>
        <time>2026-05-09T08:38:58.975Z</time>
      </trkpt>
      <trkpt lat="52.135128" lon="6.605164">
        <ele>64.471168</ele>
        <time>2026-05-09T08:39:00.980Z</time>
      </trkpt>
      <trkpt lat="52.135119" lon="6.605009">
        <ele>64.465525</ele>
        <time>2026-05-09T08:39:02.979Z</time>
      </trkpt>
      <trkpt lat="52.135116" lon="6.604844">
        <ele>64.459542</ele>
        <time>2026-05-09T08:39:04.977Z</time>
      </trkpt>
      <trkpt lat="52.135108" lon="6.604684">
        <ele>64.453723</ele>
        <time>2026-05-09T08:39:06.980Z</time>
      </trkpt>
      <trkpt lat="52.135098" lon="6.604527">
        <ele>64.448002</ele>
        <time>2026-05-09T08:39:08.979Z</time>
      </trkpt>
      <trkpt lat="52.135082" lon="6.604376">
        <ele>64.442448</ele>
        <time>2026-05-09T08:39:10.984Z</time>
      </trkpt>
      <trkpt lat="52.135072" lon="6.604213">
        <ele>64.436510</ele>
        <time>2026-05-09T08:39:12.986Z</time>
      </trkpt>
      <trkpt lat="52.135063" lon="6.604048">
        <ele>64.430506</ele>
        <time>2026-05-09T08:39:14.980Z</time>
      </trkpt>
      <trkpt lat="52.135053" lon="6.603885">
        <ele>64.424568</ele>
        <time>2026-05-09T08:39:16.973Z</time>
      </trkpt>
      <trkpt lat="52.135041" lon="6.603728">
        <ele>64.418834</ele>
        <time>2026-05-09T08:39:18.982Z</time>
      </trkpt>
      <trkpt lat="52.135022" lon="6.603575">
        <ele>64.413176</ele>
        <time>2026-05-09T08:39:20.979Z</time>
      </trkpt>
      <trkpt lat="52.135012" lon="6.603418">
        <ele>64.407455</ele>
        <time>2026-05-09T08:39:22.985Z</time>
      </trkpt>
      <trkpt lat="52.134994" lon="6.603271">
        <ele>64.402021</ele>
        <time>2026-05-09T08:39:24.985Z</time>
      </trkpt>
      <trkpt lat="52.134977" lon="6.603113">
        <ele>64.396207</ele>
        <time>2026-05-09T08:39:26.985Z</time>
      </trkpt>
      <trkpt lat="52.134963" lon="6.602964">
        <ele>64.390743</ele>
        <time>2026-05-09T08:39:28.972Z</time>
      </trkpt>
      <trkpt lat="52.134952" lon="6.602818">
        <ele>64.385412</ele>
        <time>2026-05-09T08:39:30.975Z</time>
      </trkpt>
      <trkpt lat="52.134936" lon="6.602667">
        <ele>64.379858</ele>
        <time>2026-05-09T08:39:32.990Z</time>
      </trkpt>
      <trkpt lat="52.134913" lon="6.602517">
        <ele>64.374253</ele>
        <time>2026-05-09T08:39:34.982Z</time>
      </trkpt>
      <trkpt lat="52.134889" lon="6.602355">
        <ele>64.368213</ele>
        <time>2026-05-09T08:39:36.975Z</time>
      </trkpt>
      <trkpt lat="52.134865" lon="6.602203">
        <ele>64.382994</ele>
        <time>2026-05-09T08:39:38.980Z</time>
      </trkpt>
      <trkpt lat="52.134839" lon="6.602043">
        <ele>64.401214</ele>
        <time>2026-05-09T08:39:40.974Z</time>
      </trkpt>
      <trkpt lat="52.134819" lon="6.601881">
        <ele>64.419404</ele>
        <time>2026-05-09T08:39:42.975Z</time>
      </trkpt>
      <trkpt lat="52.134801" lon="6.601724">
        <ele>64.436986</ele>
        <time>2026-05-09T08:39:44.980Z</time>
      </trkpt>
      <trkpt lat="52.134779" lon="6.601560">
        <ele>64.455466</ele>
        <time>2026-05-09T08:39:46.975Z</time>
      </trkpt>
      <trkpt lat="52.134754" lon="6.601393">
        <ele>64.474388</ele>
        <time>2026-05-09T08:39:48.973Z</time>
      </trkpt>
      <trkpt lat="52.134728" lon="6.601229">
        <ele>64.493034</ele>
        <time>2026-05-09T08:39:50.974Z</time>
      </trkpt>
      <trkpt lat="52.134706" lon="6.601072">
        <ele>64.510762</ele>
        <time>2026-05-09T08:39:52.980Z</time>
      </trkpt>
      <trkpt lat="52.134679" lon="6.600913">
        <ele>64.528923</ele>
        <time>2026-05-09T08:39:54.973Z</time>
      </trkpt>
      <trkpt lat="52.134644" lon="6.600748">
        <ele>64.548141</ele>
        <time>2026-05-09T08:39:56.978Z</time>
      </trkpt>
      <trkpt lat="52.134619" lon="6.600584">
        <ele>64.566743</ele>
        <time>2026-05-09T08:39:58.976Z</time>
      </trkpt>
      <trkpt lat="52.134609" lon="6.600417">
        <ele>64.585214</ele>
        <time>2026-05-09T08:40:00.973Z</time>
      </trkpt>
      <trkpt lat="52.134595" lon="6.600248">
        <ele>64.603986</ele>
        <time>2026-05-09T08:40:02.975Z</time>
      </trkpt>
      <trkpt lat="52.134576" lon="6.600098">
        <ele>64.620847</ele>
        <time>2026-05-09T08:40:04.978Z</time>
      </trkpt>
      <trkpt lat="52.134553" lon="6.599940">
        <ele>64.638722</ele>
        <time>2026-05-09T08:40:06.975Z</time>
      </trkpt>
      <trkpt lat="52.134533" lon="6.599782">
        <ele>64.656482</ele>
        <time>2026-05-09T08:40:08.976Z</time>
      </trkpt>
      <trkpt lat="52.134515" lon="6.599621">
        <ele>64.674497</ele>
        <time>2026-05-09T08:40:10.978Z</time>
      </trkpt>
      <trkpt lat="52.134495" lon="6.599468">
        <ele>64.687518</ele>
        <time>2026-05-09T08:40:12.977Z</time>
      </trkpt>
      <trkpt lat="52.134470" lon="6.599311">
        <ele>64.656870</ele>
        <time>2026-05-09T08:40:14.979Z</time>
      </trkpt>
      <trkpt lat="52.134448" lon="6.599148">
        <ele>64.625334</ele>
        <time>2026-05-09T08:40:16.976Z</time>
      </trkpt>
      <trkpt lat="52.134424" lon="6.598986">
        <ele>64.593844</ele>
        <time>2026-05-09T08:40:18.977Z</time>
      </trkpt>
      <trkpt lat="52.134399" lon="6.598824">
        <ele>64.562281</ele>
        <time>2026-05-09T08:40:20.977Z</time>
      </trkpt>
      <trkpt lat="52.134379" lon="6.598671">
        <ele>64.532722</ele>
        <time>2026-05-09T08:40:22.977Z</time>
      </trkpt>
      <trkpt lat="52.134357" lon="6.598514">
        <ele>64.502293</ele>
        <time>2026-05-09T08:40:24.977Z</time>
      </trkpt>
      <trkpt lat="52.134332" lon="6.598359">
        <ele>64.472010</ele>
        <time>2026-05-09T08:40:26.973Z</time>
      </trkpt>
      <trkpt lat="52.134312" lon="6.598205">
        <ele>64.442267</ele>
        <time>2026-05-09T08:40:28.977Z</time>
      </trkpt>
      <trkpt lat="52.134297" lon="6.598058">
        <ele>64.414109</ele>
        <time>2026-05-09T08:40:30.983Z</time>
      </trkpt>
      <trkpt lat="52.134273" lon="6.597910">
        <ele>64.385184</ele>
        <time>2026-05-09T08:40:32.975Z</time>
      </trkpt>
      <trkpt lat="52.134248" lon="6.597768">
        <ele>64.357270</ele>
        <time>2026-05-09T08:40:34.976Z</time>
      </trkpt>
      <trkpt lat="52.134216" lon="6.597608">
        <ele>64.325473</ele>
        <time>2026-05-09T08:40:36.975Z</time>
      </trkpt>
      <trkpt lat="52.134190" lon="6.597443">
        <ele>64.293284</ele>
        <time>2026-05-09T08:40:38.976Z</time>
      </trkpt>
      <trkpt lat="52.134177" lon="6.597275">
        <ele>64.261288</ele>
        <time>2026-05-09T08:40:40.976Z</time>
      </trkpt>
      <trkpt lat="52.134163" lon="6.597116">
        <ele>64.230936</ele>
        <time>2026-05-09T08:40:42.976Z</time>
      </trkpt>
      <trkpt lat="52.134145" lon="6.596951">
        <ele>64.199270</ele>
        <time>2026-05-09T08:40:44.974Z</time>
      </trkpt>
      <trkpt lat="52.134120" lon="6.596787">
        <ele>64.167339</ele>
        <time>2026-05-09T08:40:46.974Z</time>
      </trkpt>
      <trkpt lat="52.134099" lon="6.596618">
        <ele>64.134328</ele>
        <time>2026-05-09T08:40:48.974Z</time>
      </trkpt>
      <trkpt lat="52.134078" lon="6.596452">
        <ele>64.094295</ele>
        <time>2026-05-09T08:40:50.971Z</time>
      </trkpt>
      <trkpt lat="52.134060" lon="6.596283">
        <ele>64.053781</ele>
        <time>2026-05-09T08:40:52.972Z</time>
      </trkpt>
      <trkpt lat="52.134063" lon="6.596113">
        <ele>64.013610</ele>
        <time>2026-05-09T08:40:54.969Z</time>
      </trkpt>
      <trkpt lat="52.134076" lon="6.595947">
        <ele>63.974084</ele>
        <time>2026-05-09T08:40:56.988Z</time>
      </trkpt>
      <trkpt lat="52.134100" lon="6.595781">
        <ele>63.933801</ele>
        <time>2026-05-09T08:40:58.978Z</time>
      </trkpt>
      <trkpt lat="52.134126" lon="6.595624">
        <ele>63.895392</ele>
        <time>2026-05-09T08:41:00.980Z</time>
      </trkpt>
      <trkpt lat="52.134156" lon="6.595461">
        <ele>63.855198</ele>
        <time>2026-05-09T08:41:02.972Z</time>
      </trkpt>
      <trkpt lat="52.134199" lon="6.595307">
        <ele>63.815237</ele>
        <time>2026-05-09T08:41:04.968Z</time>
      </trkpt>
      <trkpt lat="52.134243" lon="6.595162">
        <ele>63.777032</ele>
        <time>2026-05-09T08:41:06.977Z</time>
      </trkpt>
      <trkpt lat="52.134266" lon="6.595003">
        <ele>63.738447</ele>
        <time>2026-05-09T08:41:08.973Z</time>
      </trkpt>
      <trkpt lat="52.134296" lon="6.594834">
        <ele>63.696894</ele>
        <time>2026-05-09T08:41:10.985Z</time>
      </trkpt>
      <trkpt lat="52.134323" lon="6.594676">
        <ele>63.658156</ele>
        <time>2026-05-09T08:41:12.973Z</time>
      </trkpt>
      <trkpt lat="52.134356" lon="6.594519">
        <ele>63.618959</ele>
        <time>2026-05-09T08:41:14.977Z</time>
      </trkpt>
      <trkpt lat="52.134388" lon="6.594350">
        <ele>63.577185</ele>
        <time>2026-05-09T08:41:16.976Z</time>
      </trkpt>
      <trkpt lat="52.134419" lon="6.594190">
        <ele>63.537555</ele>
        <time>2026-05-09T08:41:18.972Z</time>
      </trkpt>
      <trkpt lat="52.134450" lon="6.594027">
        <ele>63.497250</ele>
        <time>2026-05-09T08:41:20.975Z</time>
      </trkpt>
      <trkpt lat="52.134482" lon="6.593853">
        <ele>63.454346</ele>
        <time>2026-05-09T08:41:22.981Z</time>
      </trkpt>
      <trkpt lat="52.134515" lon="6.593691">
        <ele>63.424069</ele>
        <time>2026-05-09T08:41:24.983Z</time>
      </trkpt>
      <trkpt lat="52.134544" lon="6.593526">
        <ele>63.396954</ele>
        <time>2026-05-09T08:41:26.973Z</time>
      </trkpt>
      <trkpt lat="52.134568" lon="6.593370">
        <ele>63.371545</ele>
        <time>2026-05-09T08:41:28.968Z</time>
      </trkpt>
      <trkpt lat="52.134616" lon="6.593242">
        <ele>63.347847</ele>
        <time>2026-05-09T08:41:30.980Z</time>
      </trkpt>
      <trkpt lat="52.134740" lon="6.593238">
        <ele>63.315924</ele>
        <time>2026-05-09T08:41:33.997Z</time>
      </trkpt>
      <trkpt lat="52.134800" lon="6.593087">
        <ele>63.287506</ele>
        <time>2026-05-09T08:41:36.973Z</time>
      </trkpt>
      <trkpt lat="52.134783" lon="6.592906">
        <ele>63.258577</ele>
        <time>2026-05-09T08:41:39.969Z</time>
      </trkpt>
      <trkpt lat="52.134762" lon="6.592759">
        <ele>63.234732</ele>
        <time>2026-05-09T08:41:41.977Z</time>
      </trkpt>
      <trkpt lat="52.134727" lon="6.592604">
        <ele>63.208640</ele>
        <time>2026-05-09T08:41:43.987Z</time>
      </trkpt>
      <trkpt lat="52.134729" lon="6.592433">
        <ele>63.181619</ele>
        <time>2026-05-09T08:41:45.995Z</time>
      </trkpt>
      <trkpt lat="52.134759" lon="6.592269">
        <ele>63.154583</ele>
        <time>2026-05-09T08:41:47.975Z</time>
      </trkpt>
      <trkpt lat="52.134777" lon="6.592105">
        <ele>63.128262</ele>
        <time>2026-05-09T08:41:49.973Z</time>
      </trkpt>
      <trkpt lat="52.134801" lon="6.591934">
        <ele>63.100549</ele>
        <time>2026-05-09T08:41:51.978Z</time>
      </trkpt>
      <trkpt lat="52.134833" lon="6.591762">
        <ele>63.072154</ele>
        <time>2026-05-09T08:41:53.973Z</time>
      </trkpt>
      <trkpt lat="52.134862" lon="6.591586">
        <ele>63.043364</ele>
        <time>2026-05-09T08:41:55.973Z</time>
      </trkpt>
      <trkpt lat="52.134894" lon="6.591410">
        <ele>63.014364</ele>
        <time>2026-05-09T08:41:57.977Z</time>
      </trkpt>
      <trkpt lat="52.134930" lon="6.591251">
        <ele>62.987589</ele>
        <time>2026-05-09T08:41:59.971Z</time>
      </trkpt>
      <trkpt lat="52.134963" lon="6.591090">
        <ele>62.929989</ele>
        <time>2026-05-09T08:42:01.977Z</time>
      </trkpt>
      <trkpt lat="52.134996" lon="6.590928">
        <ele>62.862771</ele>
        <time>2026-05-09T08:42:03.971Z</time>
      </trkpt>
      <trkpt lat="52.135033" lon="6.590766">
        <ele>62.794701</ele>
        <time>2026-05-09T08:42:05.970Z</time>
      </trkpt>
      <trkpt lat="52.135074" lon="6.590602">
        <ele>62.724966</ele>
        <time>2026-05-09T08:42:07.978Z</time>
      </trkpt>
      <trkpt lat="52.135115" lon="6.590437">
        <ele>62.654865</ele>
        <time>2026-05-09T08:42:09.970Z</time>
      </trkpt>
      <trkpt lat="52.135155" lon="6.590282">
        <ele>62.588650</ele>
        <time>2026-05-09T08:42:11.976Z</time>
      </trkpt>
      <trkpt lat="52.135201" lon="6.590145">
        <ele>62.527154</ele>
        <time>2026-05-09T08:42:13.975Z</time>
      </trkpt>
      <trkpt lat="52.135246" lon="6.590008">
        <ele>62.465964</ele>
        <time>2026-05-09T08:42:15.977Z</time>
      </trkpt>
      <trkpt lat="52.135287" lon="6.589867">
        <ele>62.404522</ele>
        <time>2026-05-09T08:42:17.977Z</time>
      </trkpt>
      <trkpt lat="52.135332" lon="6.589720">
        <ele>62.339833</ele>
        <time>2026-05-09T08:42:19.975Z</time>
      </trkpt>
      <trkpt lat="52.135377" lon="6.589561">
        <ele>62.270883</ele>
        <time>2026-05-09T08:42:21.974Z</time>
      </trkpt>
      <trkpt lat="52.135421" lon="6.589410">
        <ele>62.205058</ele>
        <time>2026-05-09T08:42:23.973Z</time>
      </trkpt>
      <trkpt lat="52.135471" lon="6.589254">
        <ele>62.135753</ele>
        <time>2026-05-09T08:42:25.969Z</time>
      </trkpt>
      <trkpt lat="52.135521" lon="6.589097">
        <ele>62.066100</ele>
        <time>2026-05-09T08:42:27.968Z</time>
      </trkpt>
      <trkpt lat="52.135568" lon="6.588950">
        <ele>62.000828</ele>
        <time>2026-05-09T08:42:29.980Z</time>
      </trkpt>
      <trkpt lat="52.135613" lon="6.588805">
        <ele>61.936843</ele>
        <time>2026-05-09T08:42:31.972Z</time>
      </trkpt>
      <trkpt lat="52.135656" lon="6.588656">
        <ele>61.872005</ele>
        <time>2026-05-09T08:42:33.973Z</time>
      </trkpt>
      <trkpt lat="52.135701" lon="6.588504">
        <ele>61.813056</ele>
        <time>2026-05-09T08:42:35.981Z</time>
      </trkpt>
      <trkpt lat="52.135748" lon="6.588360">
        <ele>61.770881</ele>
        <time>2026-05-09T08:42:37.982Z</time>
      </trkpt>
      <trkpt lat="52.135793" lon="6.588211">
        <ele>61.727938</ele>
        <time>2026-05-09T08:42:39.974Z</time>
      </trkpt>
      <trkpt lat="52.135828" lon="6.588061">
        <ele>61.686440</ele>
        <time>2026-05-09T08:42:41.975Z</time>
      </trkpt>
      <trkpt lat="52.135875" lon="6.587904">
        <ele>61.641268</ele>
        <time>2026-05-09T08:42:43.981Z</time>
      </trkpt>
      <trkpt lat="52.135920" lon="6.587745">
        <ele>61.595991</ele>
        <time>2026-05-09T08:42:45.974Z</time>
      </trkpt>
      <trkpt lat="52.135928" lon="6.587574">
        <ele>61.551642</ele>
        <time>2026-05-09T08:42:47.972Z</time>
      </trkpt>
      <trkpt lat="52.135885" lon="6.587414">
        <ele>61.506474</ele>
        <time>2026-05-09T08:42:49.979Z</time>
      </trkpt>
      <trkpt lat="52.135819" lon="6.587279">
        <ele>61.461843</ele>
        <time>2026-05-09T08:42:51.980Z</time>
      </trkpt>
      <trkpt lat="52.135744" lon="6.587137">
        <ele>61.413398</ele>
        <time>2026-05-09T08:42:53.975Z</time>
      </trkpt>
      <trkpt lat="52.135662" lon="6.586996">
        <ele>61.363168</ele>
        <time>2026-05-09T08:42:55.979Z</time>
      </trkpt>
      <trkpt lat="52.135575" lon="6.586861">
        <ele>61.312549</ele>
        <time>2026-05-09T08:42:57.973Z</time>
      </trkpt>
      <trkpt lat="52.135498" lon="6.586719">
        <ele>61.263551</ele>
        <time>2026-05-09T08:42:59.980Z</time>
      </trkpt>
      <trkpt lat="52.135411" lon="6.586579">
        <ele>61.212031</ele>
        <time>2026-05-09T08:43:01.977Z</time>
      </trkpt>
      <trkpt lat="52.135327" lon="6.586443">
        <ele>61.162138</ele>
        <time>2026-05-09T08:43:03.978Z</time>
      </trkpt>
      <trkpt lat="52.135249" lon="6.586315">
        <ele>61.115494</ele>
        <time>2026-05-09T08:43:05.976Z</time>
      </trkpt>
      <trkpt lat="52.135172" lon="6.586184">
        <ele>61.069751</ele>
        <time>2026-05-09T08:43:07.972Z</time>
      </trkpt>
      <trkpt lat="52.135116" lon="6.586025">
        <ele>61.075448</ele>
        <time>2026-05-09T08:43:09.984Z</time>
      </trkpt>
      <trkpt lat="52.135095" lon="6.585847">
        <ele>61.081080</ele>
        <time>2026-05-09T08:43:11.975Z</time>
      </trkpt>
      <trkpt lat="52.135101" lon="6.585657">
        <ele>61.086993</ele>
        <time>2026-05-09T08:43:13.974Z</time>
      </trkpt>
      <trkpt lat="52.135109" lon="6.585471">
        <ele>61.092787</ele>
        <time>2026-05-09T08:43:15.976Z</time>
      </trkpt>
      <trkpt lat="52.135121" lon="6.585294">
        <ele>61.098321</ele>
        <time>2026-05-09T08:43:17.974Z</time>
      </trkpt>
      <trkpt lat="52.135132" lon="6.585118">
        <ele>61.103818</ele>
        <time>2026-05-09T08:43:19.984Z</time>
      </trkpt>
      <trkpt lat="52.135142" lon="6.584936">
        <ele>61.109496</ele>
        <time>2026-05-09T08:43:21.975Z</time>
      </trkpt>
      <trkpt lat="52.135154" lon="6.584759">
        <ele>61.115030</ele>
        <time>2026-05-09T08:43:23.977Z</time>
      </trkpt>
      <trkpt lat="52.135168" lon="6.584570">
        <ele>61.120946</ele>
        <time>2026-05-09T08:43:25.981Z</time>
      </trkpt>
      <trkpt lat="52.135179" lon="6.584379">
        <ele>61.126908</ele>
        <time>2026-05-09T08:43:27.973Z</time>
      </trkpt>
      <trkpt lat="52.135191" lon="6.584194">
        <ele>61.132689</ele>
        <time>2026-05-09T08:43:29.976Z</time>
      </trkpt>
      <trkpt lat="52.135200" lon="6.584009">
        <ele>61.138456</ele>
        <time>2026-05-09T08:43:31.981Z</time>
      </trkpt>
      <trkpt lat="52.135211" lon="6.583824">
        <ele>61.144231</ele>
        <time>2026-05-09T08:43:33.980Z</time>
      </trkpt>
      <trkpt lat="52.135220" lon="6.583637">
        <ele>61.150060</ele>
        <time>2026-05-09T08:43:35.975Z</time>
      </trkpt>
      <trkpt lat="52.135230" lon="6.583449">
        <ele>61.155924</ele>
        <time>2026-05-09T08:43:37.979Z</time>
      </trkpt>
      <trkpt lat="52.135248" lon="6.583268">
        <ele>61.151631</ele>
        <time>2026-05-09T08:43:39.974Z</time>
      </trkpt>
      <trkpt lat="52.135260" lon="6.583082">
        <ele>61.095306</ele>
        <time>2026-05-09T08:43:41.978Z</time>
      </trkpt>
      <trkpt lat="52.135268" lon="6.582888">
        <ele>61.036748</ele>
        <time>2026-05-09T08:43:43.976Z</time>
      </trkpt>
      <trkpt lat="52.135281" lon="6.582693">
        <ele>60.977676</ele>
        <time>2026-05-09T08:43:45.975Z</time>
      </trkpt>
      <trkpt lat="52.135292" lon="6.582500">
        <ele>60.919301</ele>
        <time>2026-05-09T08:43:47.981Z</time>
      </trkpt>
      <trkpt lat="52.135308" lon="6.582306">
        <ele>60.860350</ele>
        <time>2026-05-09T08:43:49.980Z</time>
      </trkpt>
      <trkpt lat="52.135317" lon="6.582117">
        <ele>60.803259</ele>
        <time>2026-05-09T08:43:51.972Z</time>
      </trkpt>
      <trkpt lat="52.135327" lon="6.581933">
        <ele>60.747627</ele>
        <time>2026-05-09T08:43:53.979Z</time>
      </trkpt>
      <trkpt lat="52.135331" lon="6.581750">
        <ele>60.692479</ele>
        <time>2026-05-09T08:43:55.973Z</time>
      </trkpt>
      <trkpt lat="52.135316" lon="6.581564">
        <ele>60.635981</ele>
        <time>2026-05-09T08:43:57.977Z</time>
      </trkpt>
      <trkpt lat="52.135292" lon="6.581374">
        <ele>60.577561</ele>
        <time>2026-05-09T08:43:59.972Z</time>
      </trkpt>
      <trkpt lat="52.135268" lon="6.581192">
        <ele>60.521498</ele>
        <time>2026-05-09T08:44:01.973Z</time>
      </trkpt>
      <trkpt lat="52.135238" lon="6.581020">
        <ele>60.467647</ele>
        <time>2026-05-09T08:44:03.973Z</time>
      </trkpt>
      <trkpt lat="52.135209" lon="6.580855">
        <ele>60.415957</ele>
        <time>2026-05-09T08:44:05.979Z</time>
      </trkpt>
      <trkpt lat="52.135176" lon="6.580687">
        <ele>60.362834</ele>
        <time>2026-05-09T08:44:07.979Z</time>
      </trkpt>
      <trkpt lat="52.135142" lon="6.580521">
        <ele>60.310130</ele>
        <time>2026-05-09T08:44:09.983Z</time>
      </trkpt>
      <trkpt lat="52.135103" lon="6.580358">
        <ele>60.310723</ele>
        <time>2026-05-09T08:44:11.976Z</time>
      </trkpt>
      <trkpt lat="52.135058" lon="6.580209">
        <ele>60.389265</ele>
        <time>2026-05-09T08:44:13.978Z</time>
      </trkpt>
      <trkpt lat="52.135003" lon="6.580057">
        <ele>60.472720</ele>
        <time>2026-05-09T08:44:15.973Z</time>
      </trkpt>
      <trkpt lat="52.134945" lon="6.579904">
        <ele>60.557775</ele>
        <time>2026-05-09T08:44:17.974Z</time>
      </trkpt>
      <trkpt lat="52.134888" lon="6.579759">
        <ele>60.639216</ele>
        <time>2026-05-09T08:44:19.979Z</time>
      </trkpt>
      <trkpt lat="52.134815" lon="6.579623">
        <ele>60.724668</ele>
        <time>2026-05-09T08:44:21.975Z</time>
      </trkpt>
      <trkpt lat="52.134719" lon="6.579526">
        <ele>60.811715</ele>
        <time>2026-05-09T08:44:23.974Z</time>
      </trkpt>
      <trkpt lat="52.134614" lon="6.579433">
        <ele>60.903809</ele>
        <time>2026-05-09T08:44:25.977Z</time>
      </trkpt>
      <trkpt lat="52.134510" lon="6.579345">
        <ele>60.994112</ele>
        <time>2026-05-09T08:44:27.974Z</time>
      </trkpt>
      <trkpt lat="52.134403" lon="6.579255">
        <ele>61.086904</ele>
        <time>2026-05-09T08:44:29.982Z</time>
      </trkpt>
      <trkpt lat="52.134300" lon="6.579179">
        <ele>61.174033</ele>
        <time>2026-05-09T08:44:31.974Z</time>
      </trkpt>
      <trkpt lat="52.134193" lon="6.579119">
        <ele>61.261232</ele>
        <time>2026-05-09T08:44:33.973Z</time>
      </trkpt>
      <trkpt lat="52.134081" lon="6.579066">
        <ele>61.351103</ele>
        <time>2026-05-09T08:44:35.980Z</time>
      </trkpt>
      <trkpt lat="52.133971" lon="6.579015">
        <ele>61.439231</ele>
        <time>2026-05-09T08:44:37.975Z</time>
      </trkpt>
      <trkpt lat="52.133856" lon="6.578964">
        <ele>61.531071</ele>
        <time>2026-05-09T08:44:39.978Z</time>
      </trkpt>
      <trkpt lat="52.133749" lon="6.578898">
        <ele>61.619234</ele>
        <time>2026-05-09T08:44:41.978Z</time>
      </trkpt>
      <trkpt lat="52.133650" lon="6.578832">
        <ele>61.666950</ele>
        <time>2026-05-09T08:44:43.972Z</time>
      </trkpt>
      <trkpt lat="52.133552" lon="6.578752">
        <ele>61.673253</ele>
        <time>2026-05-09T08:44:45.979Z</time>
      </trkpt>
      <trkpt lat="52.133454" lon="6.578653">
        <ele>61.679883</ele>
        <time>2026-05-09T08:44:47.978Z</time>
      </trkpt>
      <trkpt lat="52.133358" lon="6.578549">
        <ele>61.686512</ele>
        <time>2026-05-09T08:44:49.971Z</time>
      </trkpt>
      <trkpt lat="52.133262" lon="6.578447">
        <ele>61.693102</ele>
        <time>2026-05-09T08:44:51.973Z</time>
      </trkpt>
      <trkpt lat="52.133161" lon="6.578341">
        <ele>61.700010</ele>
        <time>2026-05-09T08:44:53.974Z</time>
      </trkpt>
      <trkpt lat="52.133061" lon="6.578235">
        <ele>61.706870</ele>
        <time>2026-05-09T08:44:55.979Z</time>
      </trkpt>
      <trkpt lat="52.132959" lon="6.578127">
        <ele>61.713865</ele>
        <time>2026-05-09T08:44:57.976Z</time>
      </trkpt>
      <trkpt lat="52.132856" lon="6.578019">
        <ele>61.720908</ele>
        <time>2026-05-09T08:44:59.972Z</time>
      </trkpt>
      <trkpt lat="52.132757" lon="6.577909">
        <ele>61.727798</ele>
        <time>2026-05-09T08:45:01.977Z</time>
      </trkpt>
      <trkpt lat="52.132670" lon="6.577797">
        <ele>61.734174</ele>
        <time>2026-05-09T08:45:03.975Z</time>
      </trkpt>
      <trkpt lat="52.132585" lon="6.577672">
        <ele>61.740758</ele>
        <time>2026-05-09T08:45:05.975Z</time>
      </trkpt>
      <trkpt lat="52.132515" lon="6.577510">
        <ele>61.747750</ele>
        <time>2026-05-09T08:45:07.974Z</time>
      </trkpt>
      <trkpt lat="52.132475" lon="6.577329">
        <ele>61.754540</ele>
        <time>2026-05-09T08:45:09.971Z</time>
      </trkpt>
      <trkpt lat="52.132444" lon="6.577152">
        <ele>61.761037</ele>
        <time>2026-05-09T08:45:11.974Z</time>
      </trkpt>
      <trkpt lat="52.132414" lon="6.576973">
        <ele>61.767391</ele>
        <time>2026-05-09T08:45:13.974Z</time>
      </trkpt>
      <trkpt lat="52.132373" lon="6.576795">
        <ele>61.685835</ele>
        <time>2026-05-09T08:45:15.973Z</time>
      </trkpt>
      <trkpt lat="52.132347" lon="6.576635">
        <ele>61.614835</ele>
        <time>2026-05-09T08:45:17.980Z</time>
      </trkpt>
      <trkpt lat="52.132309" lon="6.576473">
        <ele>61.540440</ele>
        <time>2026-05-09T08:45:19.975Z</time>
      </trkpt>
      <trkpt lat="52.132275" lon="6.576312">
        <ele>61.467402</ele>
        <time>2026-05-09T08:45:21.976Z</time>
      </trkpt>
      <trkpt lat="52.132244" lon="6.576153">
        <ele>61.395837</ele>
        <time>2026-05-09T08:45:23.974Z</time>
      </trkpt>
      <trkpt lat="52.132218" lon="6.575993">
        <ele>61.324837</ele>
        <time>2026-05-09T08:45:25.979Z</time>
      </trkpt>
      <trkpt lat="52.132181" lon="6.575830">
        <ele>61.250286</ele>
        <time>2026-05-09T08:45:27.976Z</time>
      </trkpt>
      <trkpt lat="52.132147" lon="6.575665">
        <ele>61.175623</ele>
        <time>2026-05-09T08:45:29.973Z</time>
      </trkpt>
      <trkpt lat="52.132115" lon="6.575493">
        <ele>61.098525</ele>
        <time>2026-05-09T08:45:31.975Z</time>
      </trkpt>
      <trkpt lat="52.132083" lon="6.575324">
        <ele>61.022657</ele>
        <time>2026-05-09T08:45:33.973Z</time>
      </trkpt>
      <trkpt lat="52.132049" lon="6.575150">
        <ele>60.944325</ele>
        <time>2026-05-09T08:45:35.979Z</time>
      </trkpt>
      <trkpt lat="52.132014" lon="6.574976">
        <ele>60.865777</ele>
        <time>2026-05-09T08:45:37.982Z</time>
      </trkpt>
      <trkpt lat="52.131981" lon="6.574799">
        <ele>60.786423</ele>
        <time>2026-05-09T08:45:39.986Z</time>
      </trkpt>
      <trkpt lat="52.131952" lon="6.574623">
        <ele>60.708251</ele>
        <time>2026-05-09T08:45:41.979Z</time>
      </trkpt>
      <trkpt lat="52.131932" lon="6.574435">
        <ele>60.626401</ele>
        <time>2026-05-09T08:45:43.978Z</time>
      </trkpt>
      <trkpt lat="52.131914" lon="6.574252">
        <ele>60.546896</ele>
        <time>2026-05-09T08:45:45.985Z</time>
      </trkpt>
      <trkpt lat="52.131901" lon="6.574061">
        <ele>60.578545</ele>
        <time>2026-05-09T08:45:47.985Z</time>
      </trkpt>
      <trkpt lat="52.131890" lon="6.573866">
        <ele>60.702193</ele>
        <time>2026-05-09T08:45:49.984Z</time>
      </trkpt>
      <trkpt lat="52.131875" lon="6.573671">
        <ele>60.826285</ele>
        <time>2026-05-09T08:45:51.973Z</time>
      </trkpt>
      <trkpt lat="52.131861" lon="6.573476">
        <ele>60.950254</ele>
        <time>2026-05-09T08:45:53.978Z</time>
      </trkpt>
      <trkpt lat="52.131851" lon="6.573281">
        <ele>61.073812</ele>
        <time>2026-05-09T08:45:55.978Z</time>
      </trkpt>
      <trkpt lat="52.131841" lon="6.573090">
        <ele>61.194853</ele>
        <time>2026-05-09T08:45:57.977Z</time>
      </trkpt>
      <trkpt lat="52.131829" lon="6.572903">
        <ele>61.313575</ele>
        <time>2026-05-09T08:45:59.973Z</time>
      </trkpt>
      <trkpt lat="52.131815" lon="6.572718">
        <ele>61.431274</ele>
        <time>2026-05-09T08:46:01.974Z</time>
      </trkpt>
      <trkpt lat="52.131801" lon="6.572538">
        <ele>61.545841</ele>
        <time>2026-05-09T08:46:03.975Z</time>
      </trkpt>
      <trkpt lat="52.131782" lon="6.572356">
        <ele>61.662412</ele>
        <time>2026-05-09T08:46:05.978Z</time>
      </trkpt>
      <trkpt lat="52.131757" lon="6.572181">
        <ele>61.775865</ele>
        <time>2026-05-09T08:46:07.975Z</time>
      </trkpt>
      <trkpt lat="52.131732" lon="6.572011">
        <ele>61.886247</ele>
        <time>2026-05-09T08:46:09.981Z</time>
      </trkpt>
      <trkpt lat="52.131702" lon="6.571851">
        <ele>61.991884</ele>
        <time>2026-05-09T08:46:11.974Z</time>
      </trkpt>
      <trkpt lat="52.131636" lon="6.571725">
        <ele>62.096474</ele>
        <time>2026-05-09T08:46:13.974Z</time>
      </trkpt>
      <trkpt lat="52.131530" lon="6.571689">
        <ele>62.207855</ele>
        <time>2026-05-09T08:46:15.981Z</time>
      </trkpt>
      <trkpt lat="52.131424" lon="6.571721">
        <ele>62.318748</ele>
        <time>2026-05-09T08:46:17.977Z</time>
      </trkpt>
      <trkpt lat="52.131318" lon="6.571709">
        <ele>62.308874</ele>
        <time>2026-05-09T08:46:19.973Z</time>
      </trkpt>
      <trkpt lat="52.131246" lon="6.571576">
        <ele>62.222461</ele>
        <time>2026-05-09T08:46:21.966Z</time>
      </trkpt>
      <trkpt lat="52.131220" lon="6.571392">
        <ele>62.130454</ele>
        <time>2026-05-09T08:46:23.981Z</time>
      </trkpt>
      <trkpt lat="52.131196" lon="6.571198">
        <ele>62.034018</ele>
        <time>2026-05-09T08:46:25.974Z</time>
      </trkpt>
      <trkpt lat="52.131168" lon="6.571011">
        <ele>61.940221</ele>
        <time>2026-05-09T08:46:27.980Z</time>
      </trkpt>
      <trkpt lat="52.131138" lon="6.570832">
        <ele>61.849803</ele>
        <time>2026-05-09T08:46:29.973Z</time>
      </trkpt>
      <trkpt lat="52.131113" lon="6.570659">
        <ele>61.763196</ele>
        <time>2026-05-09T08:46:31.988Z</time>
      </trkpt>
      <trkpt lat="52.131078" lon="6.570495">
        <ele>61.678587</ele>
        <time>2026-05-09T08:46:33.972Z</time>
      </trkpt>
      <trkpt lat="52.131048" lon="6.570320">
        <ele>61.590047</ele>
        <time>2026-05-09T08:46:35.972Z</time>
      </trkpt>
      <trkpt lat="52.131021" lon="6.570130">
        <ele>61.495012</ele>
        <time>2026-05-09T08:46:37.973Z</time>
      </trkpt>
      <trkpt lat="52.130993" lon="6.569938">
        <ele>61.398846</ele>
        <time>2026-05-09T08:46:39.979Z</time>
      </trkpt>
      <trkpt lat="52.130966" lon="6.569746">
        <ele>61.302861</ele>
        <time>2026-05-09T08:46:41.978Z</time>
      </trkpt>
      <trkpt lat="52.130936" lon="6.569567">
        <ele>61.212442</ele>
        <time>2026-05-09T08:46:43.973Z</time>
      </trkpt>
      <trkpt lat="52.130917" lon="6.569394">
        <ele>61.126801</ele>
        <time>2026-05-09T08:46:45.976Z</time>
      </trkpt>
      <trkpt lat="52.130886" lon="6.569218">
        <ele>61.037575</ele>
        <time>2026-05-09T08:46:47.977Z</time>
      </trkpt>
      <trkpt lat="52.130862" lon="6.569046">
        <ele>60.951622</ele>
        <time>2026-05-09T08:46:49.981Z</time>
      </trkpt>
      <trkpt lat="52.130838" lon="6.568878">
        <ele>60.930325</ele>
        <time>2026-05-09T08:46:51.980Z</time>
      </trkpt>
      <trkpt lat="52.130811" lon="6.568702">
        <ele>60.926753</ele>
        <time>2026-05-09T08:46:53.980Z</time>
      </trkpt>
      <trkpt lat="52.130783" lon="6.568527">
        <ele>60.923192</ele>
        <time>2026-05-09T08:46:55.982Z</time>
      </trkpt>
      <trkpt lat="52.130756" lon="6.568359">
        <ele>60.919772</ele>
        <time>2026-05-09T08:46:57.976Z</time>
      </trkpt>
      <trkpt lat="52.130726" lon="6.568191">
        <ele>60.916327</ele>
        <time>2026-05-09T08:46:59.974Z</time>
      </trkpt>
      <trkpt lat="52.130696" lon="6.568025">
        <ele>60.912920</ele>
        <time>2026-05-09T08:47:01.983Z</time>
      </trkpt>
      <trkpt lat="52.130671" lon="6.567852">
        <ele>60.909420</ele>
        <time>2026-05-09T08:47:03.983Z</time>
      </trkpt>
      <trkpt lat="52.130644" lon="6.567676">
        <ele>60.905848</ele>
        <time>2026-05-09T08:47:05.969Z</time>
      </trkpt>
      <trkpt lat="52.130608" lon="6.567494">
        <ele>60.902083</ele>
        <time>2026-05-09T08:47:07.970Z</time>
      </trkpt>
      <trkpt lat="52.130575" lon="6.567305">
        <ele>60.898214</ele>
        <time>2026-05-09T08:47:09.972Z</time>
      </trkpt>
      <trkpt lat="52.130542" lon="6.567111">
        <ele>60.894250</ele>
        <time>2026-05-09T08:47:11.978Z</time>
      </trkpt>
      <trkpt lat="52.130502" lon="6.566916">
        <ele>60.890201</ele>
        <time>2026-05-09T08:47:13.979Z</time>
      </trkpt>
      <trkpt lat="52.130467" lon="6.566716">
        <ele>60.886106</ele>
        <time>2026-05-09T08:47:15.980Z</time>
      </trkpt>
      <trkpt lat="52.130436" lon="6.566516">
        <ele>60.882044</ele>
        <time>2026-05-09T08:47:17.976Z</time>
      </trkpt>
      <trkpt lat="52.130410" lon="6.566317">
        <ele>60.878038</ele>
        <time>2026-05-09T08:47:19.976Z</time>
      </trkpt>
      <trkpt lat="52.130385" lon="6.566110">
        <ele>60.872543</ele>
        <time>2026-05-09T08:47:21.976Z</time>
      </trkpt>
      <trkpt lat="52.130358" lon="6.565906">
        <ele>60.864466</ele>
        <time>2026-05-09T08:47:23.972Z</time>
      </trkpt>
      <trkpt lat="52.130328" lon="6.565707">
        <ele>60.856535</ele>
        <time>2026-05-09T08:47:25.976Z</time>
      </trkpt>
      <trkpt lat="52.130300" lon="6.565510">
        <ele>60.848708</ele>
        <time>2026-05-09T08:47:27.970Z</time>
      </trkpt>
      <trkpt lat="52.130273" lon="6.565310">
        <ele>60.840782</ele>
        <time>2026-05-09T08:47:29.971Z</time>
      </trkpt>
      <trkpt lat="52.130251" lon="6.565107">
        <ele>60.832804</ele>
        <time>2026-05-09T08:47:31.975Z</time>
      </trkpt>
      <trkpt lat="52.130230" lon="6.564913">
        <ele>60.825179</ele>
        <time>2026-05-09T08:47:33.977Z</time>
      </trkpt>
      <trkpt lat="52.130222" lon="6.564719">
        <ele>60.817653</ele>
        <time>2026-05-09T08:47:35.970Z</time>
      </trkpt>
      <trkpt lat="52.130227" lon="6.564515">
        <ele>60.809751</ele>
        <time>2026-05-09T08:47:37.973Z</time>
      </trkpt>
      <trkpt lat="52.130241" lon="6.564317">
        <ele>60.802037</ele>
        <time>2026-05-09T08:47:39.970Z</time>
      </trkpt>
      <trkpt lat="52.130260" lon="6.564125">
        <ele>60.794510</ele>
        <time>2026-05-09T08:47:41.981Z</time>
      </trkpt>
      <trkpt lat="52.130279" lon="6.563925">
        <ele>60.786677</ele>
        <time>2026-05-09T08:47:43.975Z</time>
      </trkpt>
      <trkpt lat="52.130306" lon="6.563732">
        <ele>60.779015</ele>
        <time>2026-05-09T08:47:45.981Z</time>
      </trkpt>
      <trkpt lat="52.130332" lon="6.563540">
        <ele>60.771405</ele>
        <time>2026-05-09T08:47:47.979Z</time>
      </trkpt>
      <trkpt lat="52.130357" lon="6.563343">
        <ele>60.763619</ele>
        <time>2026-05-09T08:47:49.975Z</time>
      </trkpt>
      <trkpt lat="52.130378" lon="6.563156">
        <ele>60.803563</ele>
        <time>2026-05-09T08:47:51.975Z</time>
      </trkpt>
      <trkpt lat="52.130383" lon="6.562957">
        <ele>60.860897</ele>
        <time>2026-05-09T08:47:53.971Z</time>
      </trkpt>
      <trkpt lat="52.130370" lon="6.562752">
        <ele>60.920225</ele>
        <time>2026-05-09T08:47:55.981Z</time>
      </trkpt>
      <trkpt lat="52.130345" lon="6.562563">
        <ele>60.975881</ele>
        <time>2026-05-09T08:47:57.980Z</time>
      </trkpt>
      <trkpt lat="52.130292" lon="6.562391">
        <ele>61.031282</ele>
        <time>2026-05-09T08:47:59.980Z</time>
      </trkpt>
      <trkpt lat="52.130230" lon="6.562229">
        <ele>61.086238</ele>
        <time>2026-05-09T08:48:01.975Z</time>
      </trkpt>
      <trkpt lat="52.130158" lon="6.562074">
        <ele>61.142193</ele>
        <time>2026-05-09T08:48:03.974Z</time>
      </trkpt>
      <trkpt lat="52.130091" lon="6.561923">
        <ele>61.195828</ele>
        <time>2026-05-09T08:48:05.977Z</time>
      </trkpt>
      <trkpt lat="52.130024" lon="6.561779">
        <ele>61.247843</ele>
        <time>2026-05-09T08:48:07.973Z</time>
      </trkpt>
      <trkpt lat="52.129963" lon="6.561634">
        <ele>61.298446</ele>
        <time>2026-05-09T08:48:09.981Z</time>
      </trkpt>
      <trkpt lat="52.129904" lon="6.561492">
        <ele>61.347807</ele>
        <time>2026-05-09T08:48:11.983Z</time>
      </trkpt>
      <trkpt lat="52.129845" lon="6.561356">
        <ele>61.395747</ele>
        <time>2026-05-09T08:48:13.975Z</time>
      </trkpt>
      <trkpt lat="52.129794" lon="6.561215">
        <ele>61.442859</ele>
        <time>2026-05-09T08:48:15.978Z</time>
      </trkpt>
      <trkpt lat="52.129741" lon="6.561080">
        <ele>61.488990</ele>
        <time>2026-05-09T08:48:17.981Z</time>
      </trkpt>
      <trkpt lat="52.129680" lon="6.560968">
        <ele>61.532093</ele>
        <time>2026-05-09T08:48:19.972Z</time>
      </trkpt>
      <trkpt lat="52.129551" lon="6.560972">
        <ele>61.592598</ele>
        <time>2026-05-09T08:48:22.977Z</time>
      </trkpt>
      <trkpt lat="52.129494" lon="6.561090">
        <ele>61.645615</ele>
        <time>2026-05-09T08:48:24.975Z</time>
      </trkpt>
      <trkpt lat="52.129441" lon="6.561231">
        <ele>61.708495</ele>
        <time>2026-05-09T08:48:26.977Z</time>
      </trkpt>
      <trkpt lat="52.129380" lon="6.561386">
        <ele>61.778520</ele>
        <time>2026-05-09T08:48:28.977Z</time>
      </trkpt>
      <trkpt lat="52.129308" lon="6.561526">
        <ele>61.847982</ele>
        <time>2026-05-09T08:48:30.973Z</time>
      </trkpt>
      <trkpt lat="52.129232" lon="6.561645">
        <ele>61.913292</ele>
        <time>2026-05-09T08:48:32.977Z</time>
      </trkpt>
      <trkpt lat="52.129150" lon="6.561766">
        <ele>61.981839</ele>
        <time>2026-05-09T08:48:34.981Z</time>
      </trkpt>
      <trkpt lat="52.129059" lon="6.561866">
        <ele>62.049847</ele>
        <time>2026-05-09T08:48:36.982Z</time>
      </trkpt>
      <trkpt lat="52.128972" lon="6.561969">
        <ele>62.116480</ele>
        <time>2026-05-09T08:48:38.985Z</time>
      </trkpt>
      <trkpt lat="52.128868" lon="6.562032">
        <ele>62.185224</ele>
        <time>2026-05-09T08:48:40.975Z</time>
      </trkpt>
      <trkpt lat="52.128760" lon="6.562094">
        <ele>62.256168</ele>
        <time>2026-05-09T08:48:42.980Z</time>
      </trkpt>
      <trkpt lat="52.128649" lon="6.562155">
        <ele>62.328746</ele>
        <time>2026-05-09T08:48:44.972Z</time>
      </trkpt>
      <trkpt lat="52.128533" lon="6.562215">
        <ele>62.404149</ele>
        <time>2026-05-09T08:48:46.975Z</time>
      </trkpt>
      <trkpt lat="52.128422" lon="6.562259">
        <ele>62.474926</ele>
        <time>2026-05-09T08:48:48.973Z</time>
      </trkpt>
      <trkpt lat="52.128311" lon="6.562308">
        <ele>62.546176</ele>
        <time>2026-05-09T08:48:50.979Z</time>
      </trkpt>
      <trkpt lat="52.128199" lon="6.562356">
        <ele>62.617927</ele>
        <time>2026-05-09T08:48:52.977Z</time>
      </trkpt>
      <trkpt lat="52.128089" lon="6.562403">
        <ele>62.688382</ele>
        <time>2026-05-09T08:48:54.979Z</time>
      </trkpt>
      <trkpt lat="52.127977" lon="6.562454">
        <ele>62.655934</ele>
        <time>2026-05-09T08:48:56.973Z</time>
      </trkpt>
      <trkpt lat="52.127865" lon="6.562503">
        <ele>62.543562</ele>
        <time>2026-05-09T08:48:58.978Z</time>
      </trkpt>
      <trkpt lat="52.127756" lon="6.562549">
        <ele>62.434457</ele>
        <time>2026-05-09T08:49:00.973Z</time>
      </trkpt>
      <trkpt lat="52.127653" lon="6.562602">
        <ele>62.329791</ele>
        <time>2026-05-09T08:49:02.973Z</time>
      </trkpt>
      <trkpt lat="52.127548" lon="6.562651">
        <ele>62.223955</ele>
        <time>2026-05-09T08:49:04.971Z</time>
      </trkpt>
      <trkpt lat="52.127440" lon="6.562712">
        <ele>62.113193</ele>
        <time>2026-05-09T08:49:06.985Z</time>
      </trkpt>
      <trkpt lat="52.127343" lon="6.562795">
        <ele>62.007024</ele>
        <time>2026-05-09T08:49:08.977Z</time>
      </trkpt>
      <trkpt lat="52.127252" lon="6.562893">
        <ele>61.901318</ele>
        <time>2026-05-09T08:49:10.977Z</time>
      </trkpt>
      <trkpt lat="52.127164" lon="6.562990">
        <ele>61.798360</ele>
        <time>2026-05-09T08:49:12.976Z</time>
      </trkpt>
      <trkpt lat="52.127085" lon="6.563098">
        <ele>61.698424</ele>
        <time>2026-05-09T08:49:14.976Z</time>
      </trkpt>
      <trkpt lat="52.126971" lon="6.563153">
        <ele>61.583217</ele>
        <time>2026-05-09T08:49:17.984Z</time>
      </trkpt>
      <trkpt lat="52.126943" lon="6.562970">
        <ele>61.471026</ele>
        <time>2026-05-09T08:49:20.977Z</time>
      </trkpt>
      <trkpt lat="52.126979" lon="6.562756">
        <ele>61.339032</ele>
        <time>2026-05-09T08:49:23.982Z</time>
      </trkpt>
      <trkpt lat="52.126977" lon="6.562586">
        <ele>61.237886</ele>
        <time>2026-05-09T08:49:25.979Z</time>
      </trkpt>
      <trkpt lat="52.126976" lon="6.562423">
        <ele>61.140917</ele>
        <time>2026-05-09T08:49:27.977Z</time>
      </trkpt>
      <trkpt lat="52.126974" lon="6.562258">
        <ele>61.042745</ele>
        <time>2026-05-09T08:49:29.973Z</time>
      </trkpt>
      <trkpt lat="52.126970" lon="6.562102">
        <ele>60.973131</ele>
        <time>2026-05-09T08:49:31.975Z</time>
      </trkpt>
      <trkpt lat="52.126957" lon="6.561937">
        <ele>60.959545</ele>
        <time>2026-05-09T08:49:33.975Z</time>
      </trkpt>
      <trkpt lat="52.126940" lon="6.561772">
        <ele>60.945881</ele>
        <time>2026-05-09T08:49:35.973Z</time>
      </trkpt>
      <trkpt lat="52.126916" lon="6.561608">
        <ele>60.932111</ele>
        <time>2026-05-09T08:49:37.981Z</time>
      </trkpt>
      <trkpt lat="52.126886" lon="6.561441">
        <ele>60.917900</ele>
        <time>2026-05-09T08:49:39.978Z</time>
      </trkpt>
      <trkpt lat="52.126851" lon="6.561267">
        <ele>60.902946</ele>
        <time>2026-05-09T08:49:41.980Z</time>
      </trkpt>
      <trkpt lat="52.126802" lon="6.561093">
        <ele>60.887312</ele>
        <time>2026-05-09T08:49:43.975Z</time>
      </trkpt>
      <trkpt lat="52.126746" lon="6.560925">
        <ele>60.871699</ele>
        <time>2026-05-09T08:49:45.981Z</time>
      </trkpt>
      <trkpt lat="52.126707" lon="6.560751">
        <ele>60.856571</ele>
        <time>2026-05-09T08:49:47.979Z</time>
      </trkpt>
      <trkpt lat="52.126685" lon="6.560587">
        <ele>60.842860</ele>
        <time>2026-05-09T08:49:49.980Z</time>
      </trkpt>
      <trkpt lat="52.126654" lon="6.560433">
        <ele>60.829624</ele>
        <time>2026-05-09T08:49:51.973Z</time>
      </trkpt>
      <trkpt lat="52.126622" lon="6.560279">
        <ele>60.816346</ele>
        <time>2026-05-09T08:49:53.980Z</time>
      </trkpt>
      <trkpt lat="52.126599" lon="6.560134">
        <ele>60.804115</ele>
        <time>2026-05-09T08:49:55.987Z</time>
      </trkpt>
      <trkpt lat="52.126569" lon="6.559987">
        <ele>60.791463</ele>
        <time>2026-05-09T08:49:57.977Z</time>
      </trkpt>
      <trkpt lat="52.126502" lon="6.559884">
        <ele>60.779207</ele>
        <time>2026-05-09T08:49:59.979Z</time>
      </trkpt>
      <trkpt lat="52.126409" lon="6.559832">
        <ele>60.766126</ele>
        <time>2026-05-09T08:50:01.981Z</time>
      </trkpt>
      <trkpt lat="52.126314" lon="6.559772">
        <ele>60.752571</ele>
        <time>2026-05-09T08:50:03.977Z</time>
      </trkpt>
      <trkpt lat="52.126216" lon="6.559713">
        <ele>60.738672</ele>
        <time>2026-05-09T08:50:05.978Z</time>
      </trkpt>
      <trkpt lat="52.126110" lon="6.559698">
        <ele>60.824399</ele>
        <time>2026-05-09T08:50:07.976Z</time>
      </trkpt>
      <trkpt lat="52.126002" lon="6.559723">
        <ele>60.921068</ele>
        <time>2026-05-09T08:50:09.973Z</time>
      </trkpt>
      <trkpt lat="52.125901" lon="6.559761">
        <ele>61.012929</ele>
        <time>2026-05-09T08:50:11.975Z</time>
      </trkpt>
      <trkpt lat="52.125800" lon="6.559792">
        <ele>61.104008</ele>
        <time>2026-05-09T08:50:13.977Z</time>
      </trkpt>
      <trkpt lat="52.125703" lon="6.559811">
        <ele>61.190587</ele>
        <time>2026-05-09T08:50:15.982Z</time>
      </trkpt>
      <trkpt lat="52.125604" lon="6.559832">
        <ele>61.279059</ele>
        <time>2026-05-09T08:50:17.976Z</time>
      </trkpt>
      <trkpt lat="52.125506" lon="6.559836">
        <ele>61.365932</ele>
        <time>2026-05-09T08:50:19.977Z</time>
      </trkpt>
      <trkpt lat="52.125408" lon="6.559852">
        <ele>61.453213</ele>
        <time>2026-05-09T08:50:21.978Z</time>
      </trkpt>
      <trkpt lat="52.125312" lon="6.559866">
        <ele>61.538626</ele>
        <time>2026-05-09T08:50:23.975Z</time>
      </trkpt>
      <trkpt lat="52.125218" lon="6.559885">
        <ele>61.622566</ele>
        <time>2026-05-09T08:50:25.981Z</time>
      </trkpt>
      <trkpt lat="52.125129" lon="6.559910">
        <ele>61.702600</ele>
        <time>2026-05-09T08:50:27.981Z</time>
      </trkpt>
      <trkpt lat="52.125032" lon="6.559941">
        <ele>61.790199</ele>
        <time>2026-05-09T08:50:29.977Z</time>
      </trkpt>
      <trkpt lat="52.124904" lon="6.559959">
        <ele>61.904052</ele>
        <time>2026-05-09T08:50:32.973Z</time>
      </trkpt>
      <trkpt lat="52.124779" lon="6.559960">
        <ele>62.014825</ele>
        <time>2026-05-09T08:50:35.972Z</time>
      </trkpt>
      <trkpt lat="52.124650" lon="6.559929">
        <ele>62.130380</ele>
        <time>2026-05-09T08:50:38.987Z</time>
      </trkpt>
      <trkpt lat="52.124520" lon="6.559901">
        <ele>62.246586</ele>
        <time>2026-05-09T08:50:41.972Z</time>
      </trkpt>
      <trkpt lat="52.124398" lon="6.559880">
        <ele>62.308380</ele>
        <time>2026-05-09T08:50:44.972Z</time>
      </trkpt>
      <trkpt lat="52.124275" lon="6.559888">
        <ele>62.202649</ele>
        <time>2026-05-09T08:50:47.978Z</time>
      </trkpt>
      <trkpt lat="52.124147" lon="6.559909">
        <ele>62.092152</ele>
        <time>2026-05-09T08:50:50.980Z</time>
      </trkpt>
      <trkpt lat="52.124018" lon="6.559952">
        <ele>61.979055</ele>
        <time>2026-05-09T08:50:53.976Z</time>
      </trkpt>
      <trkpt lat="52.123894" lon="6.559997">
        <ele>61.869938</ele>
        <time>2026-05-09T08:50:56.972Z</time>
      </trkpt>
      <trkpt lat="52.123768" lon="6.560036">
        <ele>61.759778</ele>
        <time>2026-05-09T08:50:59.984Z</time>
      </trkpt>
      <trkpt lat="52.123643" lon="6.560068">
        <ele>61.651096</ele>
        <time>2026-05-09T08:51:02.982Z</time>
      </trkpt>
      <trkpt lat="52.123509" lon="6.560109">
        <ele>61.533988</ele>
        <time>2026-05-09T08:51:05.970Z</time>
      </trkpt>
      <trkpt lat="52.123381" lon="6.560150">
        <ele>61.421942</ele>
        <time>2026-05-09T08:51:08.982Z</time>
      </trkpt>
      <trkpt lat="52.123263" lon="6.560185">
        <ele>61.318923</ele>
        <time>2026-05-09T08:51:11.973Z</time>
      </trkpt>
      <trkpt lat="52.123164" lon="6.560176">
        <ele>61.233758</ele>
        <time>2026-05-09T08:51:22.977Z</time>
      </trkpt>
      <trkpt lat="52.123055" lon="6.560153">
        <ele>61.139354</ele>
        <time>2026-05-09T08:51:27.972Z</time>
      </trkpt>
      <trkpt lat="52.123035" lon="6.559969">
        <ele>61.040813</ele>
        <time>2026-05-09T08:51:30.979Z</time>
      </trkpt>
      <trkpt lat="52.123041" lon="6.559765">
        <ele>60.933111</ele>
        <time>2026-05-09T08:51:33.973Z</time>
      </trkpt>
      <trkpt lat="52.123054" lon="6.559564">
        <ele>60.826528</ele>
        <time>2026-05-09T08:51:36.973Z</time>
      </trkpt>
      <trkpt lat="52.123057" lon="6.559352">
        <ele>60.786138</ele>
        <time>2026-05-09T08:51:39.975Z</time>
      </trkpt>
      <trkpt lat="52.123051" lon="6.559135">
        <ele>60.785413</ele>
        <time>2026-05-09T08:51:42.978Z</time>
      </trkpt>
      <trkpt lat="52.123052" lon="6.558985">
        <ele>60.784911</ele>
        <time>2026-05-09T08:51:44.974Z</time>
      </trkpt>
      <trkpt lat="52.123050" lon="6.558834">
        <ele>60.784407</ele>
        <time>2026-05-09T08:51:46.979Z</time>
      </trkpt>
      <trkpt lat="52.123050" lon="6.558683">
        <ele>60.783902</ele>
        <time>2026-05-09T08:51:48.979Z</time>
      </trkpt>
      <trkpt lat="52.123051" lon="6.558536">
        <ele>60.783411</ele>
        <time>2026-05-09T08:51:50.971Z</time>
      </trkpt>
      <trkpt lat="52.123048" lon="6.558379">
        <ele>60.782886</ele>
        <time>2026-05-09T08:51:52.978Z</time>
      </trkpt>
      <trkpt lat="52.123041" lon="6.558223">
        <ele>60.782364</ele>
        <time>2026-05-09T08:51:54.976Z</time>
      </trkpt>
      <trkpt lat="52.123028" lon="6.558077">
        <ele>60.781871</ele>
        <time>2026-05-09T08:51:56.984Z</time>
      </trkpt>
      <trkpt lat="52.122982" lon="6.557893">
        <ele>60.781207</ele>
        <time>2026-05-09T08:51:59.974Z</time>
      </trkpt>
      <trkpt lat="52.122857" lon="6.557847">
        <ele>60.780510</ele>
        <time>2026-05-09T08:52:02.974Z</time>
      </trkpt>
      <trkpt lat="52.122764" lon="6.557848">
        <ele>60.780003</ele>
        <time>2026-05-09T08:52:04.976Z</time>
      </trkpt>
      <trkpt lat="52.122671" lon="6.557846">
        <ele>60.779497</ele>
        <time>2026-05-09T08:52:06.977Z</time>
      </trkpt>
      <trkpt lat="52.122577" lon="6.557840">
        <ele>60.778985</ele>
        <time>2026-05-09T08:52:08.974Z</time>
      </trkpt>
      <trkpt lat="52.122485" lon="6.557837">
        <ele>60.778485</ele>
        <time>2026-05-09T08:52:10.969Z</time>
      </trkpt>
      <trkpt lat="52.122391" lon="6.557832">
        <ele>60.777973</ele>
        <time>2026-05-09T08:52:12.974Z</time>
      </trkpt>
      <trkpt lat="52.122295" lon="6.557830">
        <ele>60.777450</ele>
        <time>2026-05-09T08:52:14.981Z</time>
      </trkpt>
      <trkpt lat="52.122196" lon="6.557833">
        <ele>60.776912</ele>
        <time>2026-05-09T08:52:16.974Z</time>
      </trkpt>
      <trkpt lat="52.122098" lon="6.557828">
        <ele>60.786031</ele>
        <time>2026-05-09T08:52:18.973Z</time>
      </trkpt>
      <trkpt lat="52.122000" lon="6.557829">
        <ele>60.797530</ele>
        <time>2026-05-09T08:52:20.973Z</time>
      </trkpt>
      <trkpt lat="52.121901" lon="6.557826">
        <ele>60.809149</ele>
        <time>2026-05-09T08:52:22.978Z</time>
      </trkpt>
      <trkpt lat="52.121806" lon="6.557822">
        <ele>60.820299</ele>
        <time>2026-05-09T08:52:24.971Z</time>
      </trkpt>
      <trkpt lat="52.121709" lon="6.557821">
        <ele>60.831681</ele>
        <time>2026-05-09T08:52:26.980Z</time>
      </trkpt>
      <trkpt lat="52.121610" lon="6.557819">
        <ele>60.843298</ele>
        <time>2026-05-09T08:52:28.973Z</time>
      </trkpt>
      <trkpt lat="52.121513" lon="6.557812">
        <ele>60.854690</ele>
        <time>2026-05-09T08:52:30.980Z</time>
      </trkpt>
      <trkpt lat="52.121415" lon="6.557810">
        <ele>60.866190</ele>
        <time>2026-05-09T08:52:32.978Z</time>
      </trkpt>
      <trkpt lat="52.121317" lon="6.557807">
        <ele>60.877691</ele>
        <time>2026-05-09T08:52:34.977Z</time>
      </trkpt>
      <trkpt lat="52.121216" lon="6.557802">
        <ele>60.889547</ele>
        <time>2026-05-09T08:52:36.974Z</time>
      </trkpt>
      <trkpt lat="52.121121" lon="6.557801">
        <ele>60.900694</ele>
        <time>2026-05-09T08:52:38.978Z</time>
      </trkpt>
      <trkpt lat="52.121020" lon="6.557798">
        <ele>60.912547</ele>
        <time>2026-05-09T08:52:40.974Z</time>
      </trkpt>
      <trkpt lat="52.120917" lon="6.557785">
        <ele>60.924668</ele>
        <time>2026-05-09T08:52:42.976Z</time>
      </trkpt>
      <trkpt lat="52.120818" lon="6.557760">
        <ele>60.936423</ele>
        <time>2026-05-09T08:52:44.975Z</time>
      </trkpt>
      <trkpt lat="52.120720" lon="6.557739">
        <ele>60.948021</ele>
        <time>2026-05-09T08:52:46.977Z</time>
      </trkpt>
      <trkpt lat="52.120621" lon="6.557707">
        <ele>60.959864</ele>
        <time>2026-05-09T08:52:48.972Z</time>
      </trkpt>
      <trkpt lat="52.120524" lon="6.557681">
        <ele>60.971398</ele>
        <time>2026-05-09T08:52:50.977Z</time>
      </trkpt>
      <trkpt lat="52.120429" lon="6.557650">
        <ele>60.982767</ele>
        <time>2026-05-09T08:52:52.976Z</time>
      </trkpt>
      <trkpt lat="52.120330" lon="6.557618">
        <ele>60.987479</ele>
        <time>2026-05-09T08:52:54.976Z</time>
      </trkpt>
      <trkpt lat="52.120230" lon="6.557580">
        <ele>60.986821</ele>
        <time>2026-05-09T08:52:56.977Z</time>
      </trkpt>
      <trkpt lat="52.120129" lon="6.557545">
        <ele>60.986160</ele>
        <time>2026-05-09T08:52:58.978Z</time>
      </trkpt>
      <trkpt lat="52.120027" lon="6.557511">
        <ele>60.985493</ele>
        <time>2026-05-09T08:53:00.975Z</time>
      </trkpt>
      <trkpt lat="52.119925" lon="6.557481">
        <ele>60.984828</ele>
        <time>2026-05-09T08:53:02.981Z</time>
      </trkpt>
      <trkpt lat="52.119822" lon="6.557449">
        <ele>60.984156</ele>
        <time>2026-05-09T08:53:04.981Z</time>
      </trkpt>
      <trkpt lat="52.119718" lon="6.557403">
        <ele>60.983466</ele>
        <time>2026-05-09T08:53:06.981Z</time>
      </trkpt>
      <trkpt lat="52.119616" lon="6.557342">
        <ele>60.982769</ele>
        <time>2026-05-09T08:53:08.975Z</time>
      </trkpt>
      <trkpt lat="52.119516" lon="6.557271">
        <ele>60.982070</ele>
        <time>2026-05-09T08:53:10.975Z</time>
      </trkpt>
      <trkpt lat="52.119427" lon="6.557192">
        <ele>60.981421</ele>
        <time>2026-05-09T08:53:12.973Z</time>
      </trkpt>
      <trkpt lat="52.119334" lon="6.557119">
        <ele>60.980759</ele>
        <time>2026-05-09T08:53:14.978Z</time>
      </trkpt>
      <trkpt lat="52.119242" lon="6.557047">
        <ele>60.980105</ele>
        <time>2026-05-09T08:53:16.975Z</time>
      </trkpt>
      <trkpt lat="52.119151" lon="6.556970">
        <ele>60.979448</ele>
        <time>2026-05-09T08:53:18.981Z</time>
      </trkpt>
      <trkpt lat="52.119062" lon="6.556897">
        <ele>60.978809</ele>
        <time>2026-05-09T08:53:20.972Z</time>
      </trkpt>
      <trkpt lat="52.118972" lon="6.556826">
        <ele>60.978169</ele>
        <time>2026-05-09T08:53:23.006Z</time>
      </trkpt>
      <trkpt lat="52.118884" lon="6.556751">
        <ele>60.977532</ele>
        <time>2026-05-09T08:53:24.979Z</time>
      </trkpt>
      <trkpt lat="52.118793" lon="6.556679">
        <ele>60.976884</ele>
        <time>2026-05-09T08:53:26.972Z</time>
      </trkpt>
      <trkpt lat="52.118699" lon="6.556609">
        <ele>60.973768</ele>
        <time>2026-05-09T08:53:28.978Z</time>
      </trkpt>
      <trkpt lat="52.118607" lon="6.556533">
        <ele>60.957074</ele>
        <time>2026-05-09T08:53:30.977Z</time>
      </trkpt>
      <trkpt lat="52.118513" lon="6.556460">
        <ele>60.940221</ele>
        <time>2026-05-09T08:53:32.974Z</time>
      </trkpt>
      <trkpt lat="52.118416" lon="6.556381">
        <ele>60.922670</ele>
        <time>2026-05-09T08:53:34.975Z</time>
      </trkpt>
      <trkpt lat="52.118322" lon="6.556303">
        <ele>60.905597</ele>
        <time>2026-05-09T08:53:36.971Z</time>
      </trkpt>
      <trkpt lat="52.118225" lon="6.556226">
        <ele>60.888134</ele>
        <time>2026-05-09T08:53:38.978Z</time>
      </trkpt>
      <trkpt lat="52.118126" lon="6.556150">
        <ele>60.870422</ele>
        <time>2026-05-09T08:53:40.975Z</time>
      </trkpt>
      <trkpt lat="52.118033" lon="6.556062">
        <ele>60.853016</ele>
        <time>2026-05-09T08:53:42.977Z</time>
      </trkpt>
      <trkpt lat="52.117944" lon="6.555957">
        <ele>60.835231</ele>
        <time>2026-05-09T08:53:44.982Z</time>
      </trkpt>
      <trkpt lat="52.117878" lon="6.555822">
        <ele>60.818084</ele>
        <time>2026-05-09T08:53:46.979Z</time>
      </trkpt>
      <trkpt lat="52.117835" lon="6.555677">
        <ele>60.802083</ele>
        <time>2026-05-09T08:53:48.971Z</time>
      </trkpt>
      <trkpt lat="52.117813" lon="6.555516">
        <ele>60.785693</ele>
        <time>2026-05-09T08:53:50.973Z</time>
      </trkpt>
      <trkpt lat="52.117813" lon="6.555347">
        <ele>60.768899</ele>
        <time>2026-05-09T08:53:52.970Z</time>
      </trkpt>
      <trkpt lat="52.117823" lon="6.555174">
        <ele>60.751632</ele>
        <time>2026-05-09T08:53:54.972Z</time>
      </trkpt>
      <trkpt lat="52.117827" lon="6.554999">
        <ele>60.734231</ele>
        <time>2026-05-09T08:53:56.984Z</time>
      </trkpt>
      <trkpt lat="52.117837" lon="6.554825">
        <ele>60.716865</ele>
        <time>2026-05-09T08:53:58.974Z</time>
      </trkpt>
      <trkpt lat="52.117847" lon="6.554648">
        <ele>60.699202</ele>
        <time>2026-05-09T08:54:00.984Z</time>
      </trkpt>
      <trkpt lat="52.117856" lon="6.554468">
        <ele>60.678022</ele>
        <time>2026-05-09T08:54:02.975Z</time>
      </trkpt>
      <trkpt lat="52.117865" lon="6.554293">
        <ele>60.646437</ele>
        <time>2026-05-09T08:54:04.975Z</time>
      </trkpt>
      <trkpt lat="52.117874" lon="6.554114">
        <ele>60.614135</ele>
        <time>2026-05-09T08:54:06.976Z</time>
      </trkpt>
      <trkpt lat="52.117884" lon="6.553935">
        <ele>60.581808</ele>
        <time>2026-05-09T08:54:08.977Z</time>
      </trkpt>
      <trkpt lat="52.117893" lon="6.553755">
        <ele>60.549326</ele>
        <time>2026-05-09T08:54:10.980Z</time>
      </trkpt>
      <trkpt lat="52.117901" lon="6.553579">
        <ele>60.517585</ele>
        <time>2026-05-09T08:54:12.971Z</time>
      </trkpt>
      <trkpt lat="52.117912" lon="6.553396">
        <ele>60.484514</ele>
        <time>2026-05-09T08:54:14.971Z</time>
      </trkpt>
      <trkpt lat="52.117922" lon="6.553210">
        <ele>60.450932</ele>
        <time>2026-05-09T08:54:16.980Z</time>
      </trkpt>
      <trkpt lat="52.117933" lon="6.553029">
        <ele>60.418219</ele>
        <time>2026-05-09T08:54:18.972Z</time>
      </trkpt>
      <trkpt lat="52.117943" lon="6.552844">
        <ele>60.384817</ele>
        <time>2026-05-09T08:54:20.974Z</time>
      </trkpt>
      <trkpt lat="52.117952" lon="6.552653">
        <ele>60.350363</ele>
        <time>2026-05-09T08:54:22.984Z</time>
      </trkpt>
      <trkpt lat="52.117964" lon="6.552470">
        <ele>60.317263</ele>
        <time>2026-05-09T08:54:24.978Z</time>
      </trkpt>
      <trkpt lat="52.117985" lon="6.552290">
        <ele>60.284309</ele>
        <time>2026-05-09T08:54:26.985Z</time>
      </trkpt>
      <trkpt lat="52.118021" lon="6.552116">
        <ele>60.251285</ele>
        <time>2026-05-09T08:54:28.972Z</time>
      </trkpt>
      <trkpt lat="52.118069" lon="6.551953">
        <ele>60.218772</ele>
        <time>2026-05-09T08:54:30.981Z</time>
      </trkpt>
      <trkpt lat="52.118123" lon="6.551799">
        <ele>60.186876</ele>
        <time>2026-05-09T08:54:32.971Z</time>
      </trkpt>
      <trkpt lat="52.118182" lon="6.551646">
        <ele>60.160694</ele>
        <time>2026-05-09T08:54:34.979Z</time>
      </trkpt>
      <trkpt lat="52.118242" lon="6.551498">
        <ele>60.178751</ele>
        <time>2026-05-09T08:54:36.972Z</time>
      </trkpt>
      <trkpt lat="52.118302" lon="6.551351">
        <ele>60.196723</ele>
        <time>2026-05-09T08:54:38.975Z</time>
      </trkpt>
      <trkpt lat="52.118353" lon="6.551195">
        <ele>60.214717</ele>
        <time>2026-05-09T08:54:40.970Z</time>
      </trkpt>
      <trkpt lat="52.118404" lon="6.551038">
        <ele>60.232801</ele>
        <time>2026-05-09T08:54:42.980Z</time>
      </trkpt>
      <trkpt lat="52.118457" lon="6.550875">
        <ele>60.251580</ele>
        <time>2026-05-09T08:54:44.976Z</time>
      </trkpt>
      <trkpt lat="52.118502" lon="6.550707">
        <ele>60.270242</ele>
        <time>2026-05-09T08:54:46.974Z</time>
      </trkpt>
      <trkpt lat="52.118549" lon="6.550542">
        <ele>60.288761</ele>
        <time>2026-05-09T08:54:48.975Z</time>
      </trkpt>
      <trkpt lat="52.118592" lon="6.550378">
        <ele>60.306917</ele>
        <time>2026-05-09T08:54:50.978Z</time>
      </trkpt>
      <trkpt lat="52.118635" lon="6.550215">
        <ele>60.324980</ele>
        <time>2026-05-09T08:54:52.975Z</time>
      </trkpt>
      <trkpt lat="52.118681" lon="6.550054">
        <ele>60.343060</ele>
        <time>2026-05-09T08:54:54.983Z</time>
      </trkpt>
      <trkpt lat="52.118729" lon="6.549892">
        <ele>60.361374</ele>
        <time>2026-05-09T08:54:56.973Z</time>
      </trkpt>
      <trkpt lat="52.118775" lon="6.549736">
        <ele>60.378994</ele>
        <time>2026-05-09T08:54:58.978Z</time>
      </trkpt>
      <trkpt lat="52.118823" lon="6.549587">
        <ele>60.396125</ele>
        <time>2026-05-09T08:55:00.973Z</time>
      </trkpt>
      <trkpt lat="52.118866" lon="6.549445">
        <ele>60.412246</ele>
        <time>2026-05-09T08:55:02.974Z</time>
      </trkpt>
      <trkpt lat="52.118903" lon="6.549311">
        <ele>60.427205</ele>
        <time>2026-05-09T08:55:04.975Z</time>
      </trkpt>
      <trkpt lat="52.118940" lon="6.549175">
        <ele>60.442350</ele>
        <time>2026-05-09T08:55:06.989Z</time>
      </trkpt>
      <trkpt lat="52.118979" lon="6.549039">
        <ele>60.456704</ele>
        <time>2026-05-09T08:55:08.972Z</time>
      </trkpt>
      <trkpt lat="52.119016" lon="6.548902">
        <ele>60.457476</ele>
        <time>2026-05-09T08:55:10.975Z</time>
      </trkpt>
      <trkpt lat="52.119065" lon="6.548747">
        <ele>60.458375</ele>
        <time>2026-05-09T08:55:12.980Z</time>
      </trkpt>
      <trkpt lat="52.119111" lon="6.548600">
        <ele>60.459226</ele>
        <time>2026-05-09T08:55:14.974Z</time>
      </trkpt>
      <trkpt lat="52.119162" lon="6.548440">
        <ele>60.460156</ele>
        <time>2026-05-09T08:55:16.980Z</time>
      </trkpt>
      <trkpt lat="52.119206" lon="6.548283">
        <ele>60.461046</ele>
        <time>2026-05-09T08:55:18.975Z</time>
      </trkpt>
      <trkpt lat="52.119247" lon="6.548122">
        <ele>60.461945</ele>
        <time>2026-05-09T08:55:20.975Z</time>
      </trkpt>
      <trkpt lat="52.119297" lon="6.547974">
        <ele>60.462816</ele>
        <time>2026-05-09T08:55:22.980Z</time>
      </trkpt>
      <trkpt lat="52.119339" lon="6.547822">
        <ele>60.463675</ele>
        <time>2026-05-09T08:55:24.975Z</time>
      </trkpt>
      <trkpt lat="52.119376" lon="6.547680">
        <ele>60.464471</ele>
        <time>2026-05-09T08:55:26.973Z</time>
      </trkpt>
      <trkpt lat="52.119415" lon="6.547544">
        <ele>60.465245</ele>
        <time>2026-05-09T08:55:28.977Z</time>
      </trkpt>
      <trkpt lat="52.119413" lon="6.547365">
        <ele>60.466168</ele>
        <time>2026-05-09T08:55:31.981Z</time>
      </trkpt>
      <trkpt lat="52.119309" lon="6.547247">
        <ele>60.467233</ele>
        <time>2026-05-09T08:55:34.973Z</time>
      </trkpt>
      <trkpt lat="52.119220" lon="6.547181">
        <ele>60.468054</ele>
        <time>2026-05-09T08:55:36.974Z</time>
      </trkpt>
      <trkpt lat="52.119129" lon="6.547108">
        <ele>60.468906</ele>
        <time>2026-05-09T08:55:38.970Z</time>
      </trkpt>
      <trkpt lat="52.119030" lon="6.547038">
        <ele>60.469813</ele>
        <time>2026-05-09T08:55:40.976Z</time>
      </trkpt>
      <trkpt lat="52.118938" lon="6.546957">
        <ele>60.470691</ele>
        <time>2026-05-09T08:55:42.976Z</time>
      </trkpt>
      <trkpt lat="52.118842" lon="6.546885">
        <ele>60.471579</ele>
        <time>2026-05-09T08:55:44.979Z</time>
      </trkpt>
      <trkpt lat="52.118751" lon="6.546817">
        <ele>60.491800</ele>
        <time>2026-05-09T08:55:46.978Z</time>
      </trkpt>
      <trkpt lat="52.118663" lon="6.546746">
        <ele>60.516911</ele>
        <time>2026-05-09T08:55:48.982Z</time>
      </trkpt>
      <trkpt lat="52.118569" lon="6.546675">
        <ele>60.543406</ele>
        <time>2026-05-09T08:55:50.977Z</time>
      </trkpt>
      <trkpt lat="52.118476" lon="6.546603">
        <ele>60.569736</ele>
        <time>2026-05-09T08:55:52.978Z</time>
      </trkpt>
      <trkpt lat="52.118382" lon="6.546523">
        <ele>60.596855</ele>
        <time>2026-05-09T08:55:54.981Z</time>
      </trkpt>
      <trkpt lat="52.118282" lon="6.546452">
        <ele>60.624749</ele>
        <time>2026-05-09T08:55:56.987Z</time>
      </trkpt>
      <trkpt lat="52.118185" lon="6.546374">
        <ele>60.652410</ele>
        <time>2026-05-09T08:55:58.988Z</time>
      </trkpt>
      <trkpt lat="52.118084" lon="6.546296">
        <ele>60.680992</ele>
        <time>2026-05-09T08:56:00.977Z</time>
      </trkpt>
      <trkpt lat="52.117987" lon="6.546215">
        <ele>60.708865</ele>
        <time>2026-05-09T08:56:02.976Z</time>
      </trkpt>
      <trkpt lat="52.117887" lon="6.546141">
        <ele>60.736951</ele>
        <time>2026-05-09T08:56:04.974Z</time>
      </trkpt>
      <trkpt lat="52.117788" lon="6.546063">
        <ele>60.765072</ele>
        <time>2026-05-09T08:56:06.985Z</time>
      </trkpt>
      <trkpt lat="52.117689" lon="6.545985">
        <ele>60.793192</ele>
        <time>2026-05-09T08:56:08.972Z</time>
      </trkpt>
      <trkpt lat="52.117590" lon="6.545908">
        <ele>60.821245</ele>
        <time>2026-05-09T08:56:10.972Z</time>
      </trkpt>
      <trkpt lat="52.117491" lon="6.545828">
        <ele>60.849504</ele>
        <time>2026-05-09T08:56:12.980Z</time>
      </trkpt>
      <trkpt lat="52.117390" lon="6.545751">
        <ele>60.878019</ele>
        <time>2026-05-09T08:56:14.974Z</time>
      </trkpt>
      <trkpt lat="52.117287" lon="6.545677">
        <ele>60.906805</ele>
        <time>2026-05-09T08:56:16.973Z</time>
      </trkpt>
      <trkpt lat="52.117186" lon="6.545601">
        <ele>60.937065</ele>
        <time>2026-05-09T08:56:18.982Z</time>
      </trkpt>
      <trkpt lat="52.117093" lon="6.545527">
        <ele>60.976901</ele>
        <time>2026-05-09T08:56:20.980Z</time>
      </trkpt>
      <trkpt lat="52.116998" lon="6.545451">
        <ele>61.017637</ele>
        <time>2026-05-09T08:56:22.978Z</time>
      </trkpt>
      <trkpt lat="52.116907" lon="6.545380">
        <ele>61.056472</ele>
        <time>2026-05-09T08:56:24.977Z</time>
      </trkpt>
      <trkpt lat="52.116818" lon="6.545310">
        <ele>61.094510</ele>
        <time>2026-05-09T08:56:26.972Z</time>
      </trkpt>
      <trkpt lat="52.116731" lon="6.545244">
        <ele>61.131448</ele>
        <time>2026-05-09T08:56:28.975Z</time>
      </trkpt>
      <trkpt lat="52.116646" lon="6.545175">
        <ele>61.168001</ele>
        <time>2026-05-09T08:56:30.973Z</time>
      </trkpt>
      <trkpt lat="52.116561" lon="6.545094">
        <ele>61.205904</ele>
        <time>2026-05-09T08:56:32.977Z</time>
      </trkpt>
      <trkpt lat="52.116489" lon="6.544977">
        <ele>61.245050</ele>
        <time>2026-05-09T08:56:34.975Z</time>
      </trkpt>
      <trkpt lat="52.116437" lon="6.544850">
        <ele>61.281124</ele>
        <time>2026-05-09T08:56:36.975Z</time>
      </trkpt>
      <trkpt lat="52.116411" lon="6.544697">
        <ele>61.318642</ele>
        <time>2026-05-09T08:56:38.977Z</time>
      </trkpt>
      <trkpt lat="52.116404" lon="6.544540">
        <ele>61.355843</ele>
        <time>2026-05-09T08:56:40.976Z</time>
      </trkpt>
      <trkpt lat="52.116413" lon="6.544392">
        <ele>61.390991</ele>
        <time>2026-05-09T08:56:42.973Z</time>
      </trkpt>
      <trkpt lat="52.116418" lon="6.544245">
        <ele>61.425785</ele>
        <time>2026-05-09T08:56:44.977Z</time>
      </trkpt>
      <trkpt lat="52.116406" lon="6.544048">
        <ele>61.472570</ele>
        <time>2026-05-09T08:56:47.976Z</time>
      </trkpt>
      <trkpt lat="52.116312" lon="6.543958">
        <ele>61.514537</ele>
        <time>2026-05-09T08:56:50.973Z</time>
      </trkpt>
      <trkpt lat="52.116214" lon="6.543952">
        <ele>61.552281</ele>
        <time>2026-05-09T08:56:53.972Z</time>
      </trkpt>
      <trkpt lat="52.116112" lon="6.543948">
        <ele>61.591548</ele>
        <time>2026-05-09T08:56:56.975Z</time>
      </trkpt>
      <trkpt lat="52.116003" lon="6.543939">
        <ele>61.617235</ele>
        <time>2026-05-09T08:56:59.974Z</time>
      </trkpt>
      <trkpt lat="52.115902" lon="6.543924">
        <ele>61.590261</ele>
        <time>2026-05-09T08:57:02.975Z</time>
      </trkpt>
      <trkpt lat="52.115800" lon="6.543905">
        <ele>61.562955</ele>
        <time>2026-05-09T08:57:05.980Z</time>
      </trkpt>
      <trkpt lat="52.115718" lon="6.543782">
        <ele>61.533304</ele>
        <time>2026-05-09T08:57:08.979Z</time>
      </trkpt>
      <trkpt lat="52.115665" lon="6.543598">
        <ele>61.500111</ele>
        <time>2026-05-09T08:57:11.977Z</time>
      </trkpt>
      <trkpt lat="52.115600" lon="6.543423">
        <ele>61.466708</ele>
        <time>2026-05-09T08:57:14.981Z</time>
      </trkpt>
      <trkpt lat="52.115669" lon="6.543292">
        <ele>61.438520</ele>
        <time>2026-05-09T08:57:17.978Z</time>
      </trkpt>
      <trkpt lat="52.115761" lon="6.543172">
        <ele>61.407170</ele>
        <time>2026-05-09T08:57:20.977Z</time>
      </trkpt>
      <trkpt lat="52.115823" lon="6.543032">
        <ele>61.378979</ele>
        <time>2026-05-09T08:57:23.977Z</time>
      </trkpt>
      <trkpt lat="52.115887" lon="6.542874">
        <ele>61.348066</ele>
        <time>2026-05-09T08:57:26.985Z</time>
      </trkpt>
      <trkpt lat="52.115918" lon="6.542670">
        <ele>61.313744</ele>
        <time>2026-05-09T08:57:29.985Z</time>
      </trkpt>
      <trkpt lat="52.115970" lon="6.542462">
        <ele>61.277065</ele>
        <time>2026-05-09T08:57:32.970Z</time>
      </trkpt>
      <trkpt lat="52.116011" lon="6.542315">
        <ele>61.250697</ele>
        <time>2026-05-09T08:57:34.971Z</time>
      </trkpt>
      <trkpt lat="52.116053" lon="6.542166">
        <ele>61.223921</ele>
        <time>2026-05-09T08:57:36.978Z</time>
      </trkpt>
      <trkpt lat="52.116096" lon="6.542021">
        <ele>61.197622</ele>
        <time>2026-05-09T08:57:38.983Z</time>
      </trkpt>
      <trkpt lat="52.116166" lon="6.541833">
        <ele>61.161714</ele>
        <time>2026-05-09T08:57:41.981Z</time>
      </trkpt>
      <trkpt lat="52.116228" lon="6.541639">
        <ele>61.138835</ele>
        <time>2026-05-09T08:57:44.978Z</time>
      </trkpt>
      <trkpt lat="52.116280" lon="6.541450">
        <ele>61.127248</ele>
        <time>2026-05-09T08:57:47.983Z</time>
      </trkpt>
      <trkpt lat="52.116352" lon="6.541284">
        <ele>61.115878</ele>
        <time>2026-05-09T08:57:50.977Z</time>
      </trkpt>
      <trkpt lat="52.116436" lon="6.541099">
        <ele>61.103006</ele>
        <time>2026-05-09T08:57:53.973Z</time>
      </trkpt>
      <trkpt lat="52.116470" lon="6.540949">
        <ele>61.094060</ele>
        <time>2026-05-09T08:57:55.974Z</time>
      </trkpt>
      <trkpt lat="52.116487" lon="6.540788">
        <ele>61.084921</ele>
        <time>2026-05-09T08:57:57.981Z</time>
      </trkpt>
      <trkpt lat="52.116519" lon="6.540629">
        <ele>61.075560</ele>
        <time>2026-05-09T08:57:59.979Z</time>
      </trkpt>
      <trkpt lat="52.116564" lon="6.540486">
        <ele>61.066570</ele>
        <time>2026-05-09T08:58:01.980Z</time>
      </trkpt>
      <trkpt lat="52.116607" lon="6.540285">
        <ele>61.054662</ele>
        <time>2026-05-09T08:58:04.980Z</time>
      </trkpt>
      <trkpt lat="52.116579" lon="6.540144">
        <ele>61.046372</ele>
        <time>2026-05-09T08:58:06.976Z</time>
      </trkpt>
      <trkpt lat="52.116509" lon="6.539961">
        <ele>61.034310</ele>
        <time>2026-05-09T08:58:09.980Z</time>
      </trkpt>
      <trkpt lat="52.116495" lon="6.539813">
        <ele>61.025932</ele>
        <time>2026-05-09T08:58:11.979Z</time>
      </trkpt>
      <trkpt lat="52.116556" lon="6.539632">
        <ele>61.014381</ele>
        <time>2026-05-09T08:58:14.980Z</time>
      </trkpt>
      <trkpt lat="52.116616" lon="6.539469">
        <ele>61.003749</ele>
        <time>2026-05-09T08:58:17.972Z</time>
      </trkpt>
      <trkpt lat="52.116630" lon="6.539271">
        <ele>60.992598</ele>
        <time>2026-05-09T08:58:20.978Z</time>
      </trkpt>
      <trkpt lat="52.116585" lon="6.539143">
        <ele>60.984347</ele>
        <time>2026-05-09T08:58:22.977Z</time>
      </trkpt>
      <trkpt lat="52.116549" lon="6.538994">
        <ele>61.001435</ele>
        <time>2026-05-09T08:58:24.977Z</time>
      </trkpt>
      <trkpt lat="52.116517" lon="6.538854">
        <ele>61.027829</ele>
        <time>2026-05-09T08:58:26.977Z</time>
      </trkpt>
      <trkpt lat="52.116481" lon="6.538717">
        <ele>61.054159</ele>
        <time>2026-05-09T08:58:28.983Z</time>
      </trkpt>
      <trkpt lat="52.116441" lon="6.538582">
        <ele>61.080643</ele>
        <time>2026-05-09T08:58:30.976Z</time>
      </trkpt>
      <trkpt lat="52.116415" lon="6.538440">
        <ele>61.106825</ele>
        <time>2026-05-09T08:58:32.988Z</time>
      </trkpt>
      <trkpt lat="52.116405" lon="6.538285">
        <ele>61.134362</ele>
        <time>2026-05-09T08:58:34.989Z</time>
      </trkpt>
      <trkpt lat="52.116398" lon="6.538123">
        <ele>61.163057</ele>
        <time>2026-05-09T08:58:36.967Z</time>
      </trkpt>
      <trkpt lat="52.116383" lon="6.537957">
        <ele>61.192703</ele>
        <time>2026-05-09T08:58:38.979Z</time>
      </trkpt>
      <trkpt lat="52.116335" lon="6.537818">
        <ele>61.220880</ele>
        <time>2026-05-09T08:58:40.977Z</time>
      </trkpt>
      <trkpt lat="52.116259" lon="6.537724">
        <ele>61.248340</ele>
        <time>2026-05-09T08:58:42.974Z</time>
      </trkpt>
      <trkpt lat="52.116138" lon="6.537676">
        <ele>61.284175</ele>
        <time>2026-05-09T08:58:45.977Z</time>
      </trkpt>
      <trkpt lat="52.116005" lon="6.537629">
        <ele>61.323334</ele>
        <time>2026-05-09T08:58:48.974Z</time>
      </trkpt>
      <trkpt lat="52.115912" lon="6.537613">
        <ele>61.350243</ele>
        <time>2026-05-09T08:58:50.974Z</time>
      </trkpt>
      <trkpt lat="52.115784" lon="6.537562">
        <ele>61.388160</ele>
        <time>2026-05-09T08:58:53.982Z</time>
      </trkpt>
      <trkpt lat="52.115708" lon="6.537387">
        <ele>61.426033</ele>
        <time>2026-05-09T08:58:56.975Z</time>
      </trkpt>
      <trkpt lat="52.115693" lon="6.537231">
        <ele>61.453932</ele>
        <time>2026-05-09T08:58:58.980Z</time>
      </trkpt>
      <trkpt lat="52.115605" lon="6.537141">
        <ele>61.483833</ele>
        <time>2026-05-09T08:59:01.974Z</time>
      </trkpt>
      <trkpt lat="52.115587" lon="6.536955">
        <ele>61.491516</ele>
        <time>2026-05-09T08:59:05.979Z</time>
      </trkpt>
      <trkpt lat="52.115620" lon="6.536767">
        <ele>61.476710</ele>
        <time>2026-05-09T08:59:08.982Z</time>
      </trkpt>
      <trkpt lat="52.115647" lon="6.536577">
        <ele>61.461941</ele>
        <time>2026-05-09T08:59:11.972Z</time>
      </trkpt>
      <trkpt lat="52.115649" lon="6.536386">
        <ele>61.447476</ele>
        <time>2026-05-09T08:59:14.977Z</time>
      </trkpt>
      <trkpt lat="52.115674" lon="6.536190">
        <ele>61.432317</ele>
        <time>2026-05-09T08:59:17.979Z</time>
      </trkpt>
      <trkpt lat="52.115577" lon="6.536079">
        <ele>61.417697</ele>
        <time>2026-05-09T08:59:20.976Z</time>
      </trkpt>
      <trkpt lat="52.115554" lon="6.535909">
        <ele>61.404515</ele>
        <time>2026-05-09T08:59:23.977Z</time>
      </trkpt>
      <trkpt lat="52.115637" lon="6.535825">
        <ele>61.392464</ele>
        <time>2026-05-09T08:59:25.984Z</time>
      </trkpt>
      <trkpt lat="52.115713" lon="6.535715">
        <ele>61.379925</ele>
        <time>2026-05-09T08:59:27.978Z</time>
      </trkpt>
      <trkpt lat="52.115787" lon="6.535606">
        <ele>61.367621</ele>
        <time>2026-05-09T08:59:29.975Z</time>
      </trkpt>
      <trkpt lat="52.115844" lon="6.535482">
        <ele>61.355891</ele>
        <time>2026-05-09T08:59:31.975Z</time>
      </trkpt>
      <trkpt lat="52.115873" lon="6.535343">
        <ele>61.344774</ele>
        <time>2026-05-09T08:59:33.972Z</time>
      </trkpt>
      <trkpt lat="52.115868" lon="6.535129">
        <ele>61.328558</ele>
        <time>2026-05-09T08:59:36.971Z</time>
      </trkpt>
      <trkpt lat="52.115844" lon="6.534981">
        <ele>61.316966</ele>
        <time>2026-05-09T08:59:38.985Z</time>
      </trkpt>
      <trkpt lat="52.115811" lon="6.534836">
        <ele>61.305256</ele>
        <time>2026-05-09T08:59:40.977Z</time>
      </trkpt>
      <trkpt lat="52.115786" lon="6.534681">
        <ele>61.293121</ele>
        <time>2026-05-09T08:59:42.981Z</time>
      </trkpt>
      <trkpt lat="52.115782" lon="6.534524">
        <ele>61.281221</ele>
        <time>2026-05-09T08:59:44.983Z</time>
      </trkpt>
      <trkpt lat="52.115788" lon="6.534362">
        <ele>61.269861</ele>
        <time>2026-05-09T08:59:46.974Z</time>
      </trkpt>
      <trkpt lat="52.115811" lon="6.534211">
        <ele>61.259375</ele>
        <time>2026-05-09T08:59:48.973Z</time>
      </trkpt>
      <trkpt lat="52.115850" lon="6.534073">
        <ele>61.249135</ele>
        <time>2026-05-09T08:59:50.980Z</time>
      </trkpt>
      <trkpt lat="52.115919" lon="6.533889">
        <ele>61.234603</ele>
        <time>2026-05-09T08:59:53.975Z</time>
      </trkpt>
      <trkpt lat="52.115976" lon="6.533772">
        <ele>61.224537</ele>
        <time>2026-05-09T08:59:55.979Z</time>
      </trkpt>
      <trkpt lat="52.116030" lon="6.533643">
        <ele>61.214014</ele>
        <time>2026-05-09T08:59:57.977Z</time>
      </trkpt>
      <trkpt lat="52.116069" lon="6.533510">
        <ele>61.204079</ele>
        <time>2026-05-09T08:59:59.981Z</time>
      </trkpt>
      <trkpt lat="52.116103" lon="6.533307">
        <ele>61.189897</ele>
        <time>2026-05-09T09:00:02.980Z</time>
      </trkpt>
      <trkpt lat="52.116095" lon="6.533099">
        <ele>61.175849</ele>
        <time>2026-05-09T09:00:05.978Z</time>
      </trkpt>
      <trkpt lat="52.116071" lon="6.532956">
        <ele>61.165857</ele>
        <time>2026-05-09T09:00:07.978Z</time>
      </trkpt>
      <trkpt lat="52.116060" lon="6.532738">
        <ele>61.151114</ele>
        <time>2026-05-09T09:00:10.980Z</time>
      </trkpt>
      <trkpt lat="52.116087" lon="6.532585">
        <ele>61.140384</ele>
        <time>2026-05-09T09:00:12.982Z</time>
      </trkpt>
      <trkpt lat="52.116131" lon="6.532447">
        <ele>61.129903</ele>
        <time>2026-05-09T09:00:14.980Z</time>
      </trkpt>
      <trkpt lat="52.116173" lon="6.532301">
        <ele>61.119036</ele>
        <time>2026-05-09T09:00:16.980Z</time>
      </trkpt>
      <trkpt lat="52.116208" lon="6.532140">
        <ele>61.107524</ele>
        <time>2026-05-09T09:00:18.980Z</time>
      </trkpt>
      <trkpt lat="52.116246" lon="6.531986">
        <ele>61.096337</ele>
        <time>2026-05-09T09:00:20.974Z</time>
      </trkpt>
      <trkpt lat="52.116293" lon="6.531832">
        <ele>61.084746</ele>
        <time>2026-05-09T09:00:22.981Z</time>
      </trkpt>
      <trkpt lat="52.116346" lon="6.531684">
        <ele>61.105660</ele>
        <time>2026-05-09T09:00:24.980Z</time>
      </trkpt>
      <trkpt lat="52.116393" lon="6.531543">
        <ele>61.146761</ele>
        <time>2026-05-09T09:00:26.972Z</time>
      </trkpt>
      <trkpt lat="52.116442" lon="6.531412">
        <ele>61.186058</ele>
        <time>2026-05-09T09:00:28.983Z</time>
      </trkpt>
      <trkpt lat="52.116497" lon="6.531296">
        <ele>61.223604</ele>
        <time>2026-05-09T09:00:30.980Z</time>
      </trkpt>
      <trkpt lat="52.116551" lon="6.531176">
        <ele>61.261719</ele>
        <time>2026-05-09T09:00:32.973Z</time>
      </trkpt>
      <trkpt lat="52.116564" lon="6.530962">
        <ele>61.316811</ele>
        <time>2026-05-09T09:00:35.991Z</time>
      </trkpt>
      <trkpt lat="52.116499" lon="6.530848">
        <ele>61.356665</ele>
        <time>2026-05-09T09:00:37.989Z</time>
      </trkpt>
      <trkpt lat="52.116424" lon="6.530737">
        <ele>61.398947</ele>
        <time>2026-05-09T09:00:39.975Z</time>
      </trkpt>
      <trkpt lat="52.116357" lon="6.530622">
        <ele>61.439560</ele>
        <time>2026-05-09T09:00:41.973Z</time>
      </trkpt>
      <trkpt lat="52.116284" lon="6.530514">
        <ele>61.480707</ele>
        <time>2026-05-09T09:00:43.974Z</time>
      </trkpt>
      <trkpt lat="52.116222" lon="6.530402">
        <ele>61.519339</ele>
        <time>2026-05-09T09:00:45.975Z</time>
      </trkpt>
      <trkpt lat="52.116114" lon="6.530279">
        <ele>61.574323</ele>
        <time>2026-05-09T09:00:48.977Z</time>
      </trkpt>
      <trkpt lat="52.116042" lon="6.530181">
        <ele>61.613473</ele>
        <time>2026-05-09T09:00:50.974Z</time>
      </trkpt>
      <trkpt lat="52.115979" lon="6.530066">
        <ele>61.652955</ele>
        <time>2026-05-09T09:00:52.975Z</time>
      </trkpt>
      <trkpt lat="52.115906" lon="6.529961">
        <ele>61.693590</ele>
        <time>2026-05-09T09:00:54.971Z</time>
      </trkpt>
      <trkpt lat="52.115831" lon="6.529868">
        <ele>61.732919</ele>
        <time>2026-05-09T09:00:56.976Z</time>
      </trkpt>
      <trkpt lat="52.115754" lon="6.529767">
        <ele>61.774169</ele>
        <time>2026-05-09T09:00:58.982Z</time>
      </trkpt>
      <trkpt lat="52.115674" lon="6.529663">
        <ele>61.816876</ele>
        <time>2026-05-09T09:01:00.979Z</time>
      </trkpt>
      <trkpt lat="52.115603" lon="6.529535">
        <ele>61.817909</ele>
        <time>2026-05-09T09:01:02.976Z</time>
      </trkpt>
      <trkpt lat="52.115536" lon="6.529426">
        <ele>61.801873</ele>
        <time>2026-05-09T09:01:04.979Z</time>
      </trkpt>
      <trkpt lat="52.115465" lon="6.529328">
        <ele>61.786114</ele>
        <time>2026-05-09T09:01:06.979Z</time>
      </trkpt>
      <trkpt lat="52.115393" lon="6.529225">
        <ele>61.769888</ele>
        <time>2026-05-09T09:01:08.979Z</time>
      </trkpt>
      <trkpt lat="52.115318" lon="6.529130">
        <ele>61.753800</ele>
        <time>2026-05-09T09:01:10.973Z</time>
      </trkpt>
      <trkpt lat="52.115246" lon="6.529024">
        <ele>61.737365</ele>
        <time>2026-05-09T09:01:12.977Z</time>
      </trkpt>
      <trkpt lat="52.115170" lon="6.528920">
        <ele>61.720557</ele>
        <time>2026-05-09T09:01:14.978Z</time>
      </trkpt>
      <trkpt lat="52.115099" lon="6.528813">
        <ele>61.704178</ele>
        <time>2026-05-09T09:01:16.977Z</time>
      </trkpt>
      <trkpt lat="52.115038" lon="6.528702">
        <ele>61.688690</ele>
        <time>2026-05-09T09:01:18.987Z</time>
      </trkpt>
      <trkpt lat="52.114973" lon="6.528592">
        <ele>61.672817</ele>
        <time>2026-05-09T09:01:20.976Z</time>
      </trkpt>
      <trkpt lat="52.114876" lon="6.528441">
        <ele>61.650097</ele>
        <time>2026-05-09T09:01:23.975Z</time>
      </trkpt>
      <trkpt lat="52.114766" lon="6.528322">
        <ele>61.627736</ele>
        <time>2026-05-09T09:01:26.975Z</time>
      </trkpt>
      <trkpt lat="52.114668" lon="6.528179">
        <ele>61.605456</ele>
        <time>2026-05-09T09:01:29.976Z</time>
      </trkpt>
      <trkpt lat="52.114604" lon="6.528068">
        <ele>61.589625</ele>
        <time>2026-05-09T09:01:31.981Z</time>
      </trkpt>
      <trkpt lat="52.114525" lon="6.527961">
        <ele>61.572227</ele>
        <time>2026-05-09T09:01:33.986Z</time>
      </trkpt>
      <trkpt lat="52.114459" lon="6.527844">
        <ele>61.555708</ele>
        <time>2026-05-09T09:01:35.977Z</time>
      </trkpt>
      <trkpt lat="52.114404" lon="6.527712">
        <ele>61.539122</ele>
        <time>2026-05-09T09:01:37.981Z</time>
      </trkpt>
      <trkpt lat="52.114375" lon="6.527558">
        <ele>61.527708</ele>
        <time>2026-05-09T09:01:39.980Z</time>
      </trkpt>
      <trkpt lat="52.114369" lon="6.527399">
        <ele>61.536744</ele>
        <time>2026-05-09T09:01:41.974Z</time>
      </trkpt>
      <trkpt lat="52.114365" lon="6.527248">
        <ele>61.545317</ele>
        <time>2026-05-09T09:01:43.977Z</time>
      </trkpt>
      <trkpt lat="52.114367" lon="6.527101">
        <ele>61.553658</ele>
        <time>2026-05-09T09:01:45.973Z</time>
      </trkpt>
      <trkpt lat="52.114375" lon="6.526952">
        <ele>61.562142</ele>
        <time>2026-05-09T09:01:47.979Z</time>
      </trkpt>
      <trkpt lat="52.114374" lon="6.526802">
        <ele>61.570651</ele>
        <time>2026-05-09T09:01:49.988Z</time>
      </trkpt>
      <trkpt lat="52.114353" lon="6.526601">
        <ele>61.582216</ele>
        <time>2026-05-09T09:01:52.979Z</time>
      </trkpt>
      <trkpt lat="52.114355" lon="6.526407">
        <ele>61.593222</ele>
        <time>2026-05-09T09:01:55.979Z</time>
      </trkpt>
      <trkpt lat="52.114364" lon="6.526250">
        <ele>61.602166</ele>
        <time>2026-05-09T09:01:58.973Z</time>
      </trkpt>
      <trkpt lat="52.114376" lon="6.526076">
        <ele>61.612098</ele>
        <time>2026-05-09T09:02:02.972Z</time>
      </trkpt>
      <trkpt lat="52.114337" lon="6.525935">
        <ele>61.620870</ele>
        <time>2026-05-09T09:02:06.973Z</time>
      </trkpt>
      <trkpt lat="52.114194" lon="6.525698">
        <ele>61.639717</ele>
        <time>2026-05-09T09:02:41.981Z</time>
      </trkpt>
      <trkpt lat="52.114134" lon="6.525573">
        <ele>61.648716</ele>
        <time>2026-05-09T09:03:58.982Z</time>
      </trkpt>
      <trkpt lat="52.114216" lon="6.525484">
        <ele>61.657819</ele>
        <time>2026-05-09T09:04:04.975Z</time>
      </trkpt>
      <trkpt lat="52.114310" lon="6.525492">
        <ele>61.666513</ele>
        <time>2026-05-09T09:04:07.975Z</time>
      </trkpt>
      <trkpt lat="52.114417" lon="6.525470">
        <ele>61.676475</ele>
        <time>2026-05-09T09:04:11.975Z</time>
      </trkpt>
      <trkpt lat="52.114507" lon="6.525493">
        <ele>61.684890</ele>
        <time>2026-05-09T09:04:17.975Z</time>
      </trkpt>
      <trkpt lat="52.114608" lon="6.525448">
        <ele>61.707177</ele>
        <time>2026-05-09T09:04:23.980Z</time>
      </trkpt>
      <trkpt lat="52.114709" lon="6.525454">
        <ele>61.761865</ele>
        <time>2026-05-09T09:04:27.973Z</time>
      </trkpt>
      <trkpt lat="52.114815" lon="6.525477">
        <ele>61.819729</ele>
        <time>2026-05-09T09:04:31.974Z</time>
      </trkpt>
      <trkpt lat="52.114913" lon="6.525519">
        <ele>61.874563</ele>
        <time>2026-05-09T09:04:35.974Z</time>
      </trkpt>
      <trkpt lat="52.115017" lon="6.525542">
        <ele>61.931354</ele>
        <time>2026-05-09T09:04:39.973Z</time>
      </trkpt>
      <trkpt lat="52.115125" lon="6.525564">
        <ele>61.990249</ele>
        <time>2026-05-09T09:04:43.978Z</time>
      </trkpt>
      <trkpt lat="52.115214" lon="6.525592">
        <ele>62.039298</ele>
        <time>2026-05-09T09:04:47.981Z</time>
      </trkpt>
      <trkpt lat="52.115309" lon="6.525613">
        <ele>62.091174</ele>
        <time>2026-05-09T09:04:54.986Z</time>
      </trkpt>
      <trkpt lat="52.115409" lon="6.525622">
        <ele>62.145367</ele>
        <time>2026-05-09T09:04:59.987Z</time>
      </trkpt>
      <trkpt lat="52.115523" lon="6.525651">
        <ele>62.207801</ele>
        <time>2026-05-09T09:05:03.973Z</time>
      </trkpt>
      <trkpt lat="52.115633" lon="6.525685">
        <ele>62.268386</ele>
        <time>2026-05-09T09:05:07.979Z</time>
      </trkpt>
      <trkpt lat="52.115741" lon="6.525717">
        <ele>62.327784</ele>
        <time>2026-05-09T09:05:11.977Z</time>
      </trkpt>
      <trkpt lat="52.115857" lon="6.525730">
        <ele>62.390701</ele>
        <time>2026-05-09T09:05:15.977Z</time>
      </trkpt>
      <trkpt lat="52.115955" lon="6.525703">
        <ele>62.444483</ele>
        <time>2026-05-09T09:05:19.976Z</time>
      </trkpt>
      <trkpt lat="52.116051" lon="6.525661">
        <ele>62.498271</ele>
        <time>2026-05-09T09:05:23.974Z</time>
      </trkpt>
      <trkpt lat="52.116133" lon="6.525752">
        <ele>62.551964</ele>
        <time>2026-05-09T09:05:30.974Z</time>
      </trkpt>
      <trkpt lat="52.116167" lon="6.525894">
        <ele>62.602607</ele>
        <time>2026-05-09T09:05:39.976Z</time>
      </trkpt>
      <trkpt lat="52.116297" lon="6.525982">
        <ele>62.660401</ele>
        <time>2026-05-09T09:06:21.973Z</time>
      </trkpt>
      <trkpt lat="52.116389" lon="6.525892">
        <ele>62.639770</ele>
        <time>2026-05-09T09:06:25.974Z</time>
      </trkpt>
      <trkpt lat="52.116463" lon="6.525775">
        <ele>62.619943</ele>
        <time>2026-05-09T09:06:29.972Z</time>
      </trkpt>
      <trkpt lat="52.116511" lon="6.525650">
        <ele>62.602539</ele>
        <time>2026-05-09T09:06:32.973Z</time>
      </trkpt>
      <trkpt lat="52.116575" lon="6.525536">
        <ele>62.584306</ele>
        <time>2026-05-09T09:06:35.972Z</time>
      </trkpt>
      <trkpt lat="52.116574" lon="6.525376">
        <ele>62.565418</ele>
        <time>2026-05-09T09:06:44.967Z</time>
      </trkpt>
      <trkpt lat="52.116627" lon="6.525230">
        <ele>62.545398</ele>
        <time>2026-05-09T09:06:51.976Z</time>
      </trkpt>
      <trkpt lat="52.116663" lon="6.525041">
        <ele>62.522039</ele>
        <time>2026-05-09T09:06:56.980Z</time>
      </trkpt>
      <trkpt lat="52.116715" lon="6.524909">
        <ele>62.503526</ele>
        <time>2026-05-09T09:06:59.971Z</time>
      </trkpt>
      <trkpt lat="52.116758" lon="6.524745">
        <ele>62.482476</ele>
        <time>2026-05-09T09:07:05.978Z</time>
      </trkpt>
      <trkpt lat="52.116837" lon="6.524821">
        <ele>62.464838</ele>
        <time>2026-05-09T09:07:37.981Z</time>
      </trkpt>
      <trkpt lat="52.116934" lon="6.524876">
        <ele>62.445093</ele>
        <time>2026-05-09T09:07:44.978Z</time>
      </trkpt>
      <trkpt lat="52.116859" lon="6.524763">
        <ele>62.425451</ele>
        <time>2026-05-09T09:07:58.983Z</time>
      </trkpt>
      <trkpt lat="52.116821" lon="6.524604">
        <ele>62.405311</ele>
        <time>2026-05-09T09:08:04.978Z</time>
      </trkpt>
      <trkpt lat="52.116817" lon="6.524429">
        <ele>62.384639</ele>
        <time>2026-05-09T09:08:09.981Z</time>
      </trkpt>
      <trkpt lat="52.116840" lon="6.524269">
        <ele>62.365242</ele>
        <time>2026-05-09T09:08:13.984Z</time>
      </trkpt>
      <trkpt lat="52.116858" lon="6.524123">
        <ele>62.347663</ele>
        <time>2026-05-09T09:08:17.976Z</time>
      </trkpt>
      <trkpt lat="52.116869" lon="6.523968">
        <ele>62.329245</ele>
        <time>2026-05-09T09:08:21.976Z</time>
      </trkpt>
      <trkpt lat="52.116890" lon="6.523790">
        <ele>62.370825</ele>
        <time>2026-05-09T09:08:26.990Z</time>
      </trkpt>
      <trkpt lat="52.116877" lon="6.523616">
        <ele>62.462386</ele>
        <time>2026-05-09T09:08:30.974Z</time>
      </trkpt>
      <trkpt lat="52.116833" lon="6.523466">
        <ele>62.549222</ele>
        <time>2026-05-09T09:08:34.979Z</time>
      </trkpt>
      <trkpt lat="52.116786" lon="6.523306">
        <ele>62.641871</ele>
        <time>2026-05-09T09:08:38.979Z</time>
      </trkpt>
      <trkpt lat="52.116744" lon="6.523155">
        <ele>62.728462</ele>
        <time>2026-05-09T09:08:42.979Z</time>
      </trkpt>
      <trkpt lat="52.116680" lon="6.523014">
        <ele>62.820053</ele>
        <time>2026-05-09T09:08:46.970Z</time>
      </trkpt>
      <trkpt lat="52.116584" lon="6.522951">
        <ele>62.908100</ele>
        <time>2026-05-09T09:08:50.974Z</time>
      </trkpt>
      <trkpt lat="52.116632" lon="6.523078">
        <ele>62.985999</ele>
        <time>2026-05-09T09:09:49.975Z</time>
      </trkpt>
      <trkpt lat="52.116545" lon="6.523156">
        <ele>63.070483</ele>
        <time>2026-05-09T09:09:53.979Z</time>
      </trkpt>
      <trkpt lat="52.116451" lon="6.523224">
        <ele>63.157981</ele>
        <time>2026-05-09T09:09:58.981Z</time>
      </trkpt>
      <trkpt lat="52.116349" lon="6.523283">
        <ele>63.250061</ele>
        <time>2026-05-09T09:10:03.979Z</time>
      </trkpt>
      <trkpt lat="52.116260" lon="6.523324">
        <ele>63.328743</ele>
        <time>2026-05-09T09:10:07.975Z</time>
      </trkpt>
      <trkpt lat="52.116163" lon="6.523387">
        <ele>63.417579</ele>
        <time>2026-05-09T09:10:12.980Z</time>
      </trkpt>
      <trkpt lat="52.116075" lon="6.523432">
        <ele>63.496043</ele>
        <time>2026-05-09T09:10:16.975Z</time>
      </trkpt>
      <trkpt lat="52.115970" lon="6.523447">
        <ele>63.585707</ele>
        <time>2026-05-09T09:10:20.972Z</time>
      </trkpt>
      <trkpt lat="52.115872" lon="6.523469">
        <ele>63.669862</ele>
        <time>2026-05-09T09:10:24.971Z</time>
      </trkpt>
      <trkpt lat="52.115770" lon="6.523515">
        <ele>63.759897</ele>
        <time>2026-05-09T09:10:28.979Z</time>
      </trkpt>
      <trkpt lat="52.115667" lon="6.523540">
        <ele>63.848485</ele>
        <time>2026-05-09T09:10:32.973Z</time>
      </trkpt>
      <trkpt lat="52.115570" lon="6.523586">
        <ele>63.783019</ele>
        <time>2026-05-09T09:10:36.977Z</time>
      </trkpt>
      <trkpt lat="52.115465" lon="6.523617">
        <ele>63.711911</ele>
        <time>2026-05-09T09:10:40.977Z</time>
      </trkpt>
      <trkpt lat="52.115371" lon="6.523645">
        <ele>63.648234</ele>
        <time>2026-05-09T09:10:44.984Z</time>
      </trkpt>
      <trkpt lat="52.115262" lon="6.523678">
        <ele>63.574357</ele>
        <time>2026-05-09T09:10:49.982Z</time>
      </trkpt>
      <trkpt lat="52.115205" lon="6.523558">
        <ele>63.512278</ele>
        <time>2026-05-09T09:10:53.981Z</time>
      </trkpt>
      <trkpt lat="52.115160" lon="6.523416">
        <ele>63.446891</ele>
        <time>2026-05-09T09:10:57.982Z</time>
      </trkpt>
      <trkpt lat="52.115133" lon="6.523262">
        <ele>63.381357</ele>
        <time>2026-05-09T09:11:01.972Z</time>
      </trkpt>
      <trkpt lat="52.115110" lon="6.523104">
        <ele>63.314913</ele>
        <time>2026-05-09T09:11:05.974Z</time>
      </trkpt>
      <trkpt lat="52.115083" lon="6.522950">
        <ele>63.249378</ele>
        <time>2026-05-09T09:11:09.978Z</time>
      </trkpt>
      <trkpt lat="52.115032" lon="6.522823">
        <ele>63.187285</ele>
        <time>2026-05-09T09:11:13.973Z</time>
      </trkpt>
      <trkpt lat="52.114962" lon="6.522688">
        <ele>63.114984</ele>
        <time>2026-05-09T09:11:17.971Z</time>
      </trkpt>
      <trkpt lat="52.114896" lon="6.522551">
        <ele>63.043732</ele>
        <time>2026-05-09T09:11:21.973Z</time>
      </trkpt>
      <trkpt lat="52.114829" lon="6.522439">
        <ele>62.979750</ele>
        <time>2026-05-09T09:11:25.973Z</time>
      </trkpt>
      <trkpt lat="52.114754" lon="6.522345">
        <ele>62.916685</ele>
        <time>2026-05-09T09:11:29.972Z</time>
      </trkpt>
      <trkpt lat="52.114670" lon="6.522224">
        <ele>62.841955</ele>
        <time>2026-05-09T09:11:34.970Z</time>
      </trkpt>
      <trkpt lat="52.114596" lon="6.522122">
        <ele>62.777351</ele>
        <time>2026-05-09T09:11:38.978Z</time>
      </trkpt>
      <trkpt lat="52.114537" lon="6.521991">
        <ele>62.710874</ele>
        <time>2026-05-09T09:11:43.975Z</time>
      </trkpt>
      <trkpt lat="52.114586" lon="6.521838">
        <ele>62.630177</ele>
        <time>2026-05-09T09:11:47.975Z</time>
      </trkpt>
      <trkpt lat="52.114665" lon="6.521701">
        <ele>62.480931</ele>
        <time>2026-05-09T09:11:51.980Z</time>
      </trkpt>
      <trkpt lat="52.114747" lon="6.521571">
        <ele>62.332934</ele>
        <time>2026-05-09T09:11:55.975Z</time>
      </trkpt>
      <trkpt lat="52.114802" lon="6.521450">
        <ele>62.213383</ele>
        <time>2026-05-09T09:11:59.986Z</time>
      </trkpt>
      <trkpt lat="52.114884" lon="6.521346">
        <ele>62.078972</ele>
        <time>2026-05-09T09:12:04.973Z</time>
      </trkpt>
      <trkpt lat="52.114967" lon="6.521287">
        <ele>61.961855</ele>
        <time>2026-05-09T09:12:27.973Z</time>
      </trkpt>
      <trkpt lat="52.115122" lon="6.521371">
        <ele>61.750598</ele>
        <time>2026-05-09T09:13:16.975Z</time>
      </trkpt>
      <trkpt lat="52.115215" lon="6.521370">
        <ele>61.630327</ele>
        <time>2026-05-09T09:13:23.972Z</time>
      </trkpt>
      <trkpt lat="52.115124" lon="6.521372">
        <ele>61.512634</ele>
        <time>2026-05-09T09:14:00.977Z</time>
      </trkpt>
      <trkpt lat="52.115032" lon="6.521331">
        <ele>61.389284</ele>
        <time>2026-05-09T09:14:05.972Z</time>
      </trkpt>
      <trkpt lat="52.114942" lon="6.521297">
        <ele>61.269804</ele>
        <time>2026-05-09T09:14:10.981Z</time>
      </trkpt>
      <trkpt lat="52.114851" lon="6.521219">
        <ele>61.136815</ele>
        <time>2026-05-09T09:14:15.974Z</time>
      </trkpt>
      <trkpt lat="52.114896" lon="6.521082">
        <ele>61.013432</ele>
        <time>2026-05-09T09:14:23.975Z</time>
      </trkpt>
      <trkpt lat="52.114948" lon="6.520954">
        <ele>60.891552</ele>
        <time>2026-05-09T09:14:32.978Z</time>
      </trkpt>
      <trkpt lat="52.115005" lon="6.520684">
        <ele>60.664819</ele>
        <time>2026-05-09T09:15:37.969Z</time>
      </trkpt>
      <trkpt lat="52.115063" lon="6.520556">
        <ele>60.538492</ele>
        <time>2026-05-09T09:15:42.973Z</time>
      </trkpt>
      <trkpt lat="52.115122" lon="6.520436">
        <ele>60.416415</ele>
        <time>2026-05-09T09:15:47.975Z</time>
      </trkpt>
      <trkpt lat="52.115168" lon="6.520211">
        <ele>60.351354</ele>
        <time>2026-05-09T09:16:39.978Z</time>
      </trkpt>
      <trkpt lat="52.115169" lon="6.520044">
        <ele>60.387494</ele>
        <time>2026-05-09T09:16:45.984Z</time>
      </trkpt>
      <trkpt lat="52.115167" lon="6.519893">
        <ele>60.420177</ele>
        <time>2026-05-09T09:16:50.976Z</time>
      </trkpt>
      <trkpt lat="52.115169" lon="6.519737">
        <ele>60.453941</ele>
        <time>2026-05-09T09:16:55.975Z</time>
      </trkpt>
      <trkpt lat="52.115184" lon="6.519589">
        <ele>60.486401</ele>
        <time>2026-05-09T09:17:00.974Z</time>
      </trkpt>
      <trkpt lat="52.115086" lon="6.519674">
        <ele>60.525528</ele>
        <time>2026-05-09T09:17:11.980Z</time>
      </trkpt>
      <trkpt lat="52.115017" lon="6.519803">
        <ele>60.562547</ele>
        <time>2026-05-09T09:17:15.978Z</time>
      </trkpt>
      <trkpt lat="52.114946" lon="6.519922">
        <ele>60.598451</ele>
        <time>2026-05-09T09:17:19.970Z</time>
      </trkpt>
      <trkpt lat="52.114871" lon="6.520070">
        <ele>60.639974</ele>
        <time>2026-05-09T09:17:23.977Z</time>
      </trkpt>
      <trkpt lat="52.114790" lon="6.520220">
        <ele>60.683198</ele>
        <time>2026-05-09T09:17:27.973Z</time>
      </trkpt>
      <trkpt lat="52.114717" lon="6.520333">
        <ele>60.718690</ele>
        <time>2026-05-09T09:17:30.975Z</time>
      </trkpt>
      <trkpt lat="52.114632" lon="6.520462">
        <ele>60.759634</ele>
        <time>2026-05-09T09:17:34.977Z</time>
      </trkpt>
      <trkpt lat="52.114536" lon="6.520540">
        <ele>60.797441</ele>
        <time>2026-05-09T09:17:38.983Z</time>
      </trkpt>
      <trkpt lat="52.114420" lon="6.520563">
        <ele>60.838620</ele>
        <time>2026-05-09T09:17:42.975Z</time>
      </trkpt>
      <trkpt lat="52.114348" lon="6.520673">
        <ele>60.873410</ele>
        <time>2026-05-09T09:17:45.976Z</time>
      </trkpt>
      <trkpt lat="52.114293" lon="6.520797">
        <ele>60.906510</ele>
        <time>2026-05-09T09:17:48.976Z</time>
      </trkpt>
      <trkpt lat="52.114256" lon="6.520933">
        <ele>60.938699</ele>
        <time>2026-05-09T09:17:51.976Z</time>
      </trkpt>
      <trkpt lat="52.114226" lon="6.521080">
        <ele>60.979810</ele>
        <time>2026-05-09T09:17:54.977Z</time>
      </trkpt>
      <trkpt lat="52.114181" lon="6.521242">
        <ele>61.040014</ele>
        <time>2026-05-09T09:17:58.974Z</time>
      </trkpt>
      <trkpt lat="52.114127" lon="6.521390">
        <ele>61.098304</ele>
        <time>2026-05-09T09:18:03.974Z</time>
      </trkpt>
      <trkpt lat="52.114022" lon="6.521389">
        <ele>61.156199</ele>
        <time>2026-05-09T09:18:08.978Z</time>
      </trkpt>
      <trkpt lat="52.113926" lon="6.521337">
        <ele>61.211983</ele>
        <time>2026-05-09T09:18:12.971Z</time>
      </trkpt>
      <trkpt lat="52.113838" lon="6.521303">
        <ele>61.261851</ele>
        <time>2026-05-09T09:18:15.977Z</time>
      </trkpt>
      <trkpt lat="52.113721" lon="6.521277">
        <ele>61.326960</ele>
        <time>2026-05-09T09:18:19.970Z</time>
      </trkpt>
      <trkpt lat="52.113620" lon="6.521255">
        <ele>61.383146</ele>
        <time>2026-05-09T09:18:22.976Z</time>
      </trkpt>
      <trkpt lat="52.113521" lon="6.521223">
        <ele>61.438797</ele>
        <time>2026-05-09T09:18:25.969Z</time>
      </trkpt>
      <trkpt lat="52.113424" lon="6.521207">
        <ele>61.492554</ele>
        <time>2026-05-09T09:18:28.988Z</time>
      </trkpt>
      <trkpt lat="52.113304" lon="6.521183">
        <ele>61.559217</ele>
        <time>2026-05-09T09:18:32.974Z</time>
      </trkpt>
      <trkpt lat="52.113202" lon="6.521182">
        <ele>61.615458</ele>
        <time>2026-05-09T09:18:35.976Z</time>
      </trkpt>
      <trkpt lat="52.113105" lon="6.521172">
        <ele>61.669049</ele>
        <time>2026-05-09T09:18:38.978Z</time>
      </trkpt>
      <trkpt lat="52.113009" lon="6.521157">
        <ele>61.722224</ele>
        <time>2026-05-09T09:18:41.975Z</time>
      </trkpt>
      <trkpt lat="52.112915" lon="6.521136">
        <ele>61.774539</ele>
        <time>2026-05-09T09:18:44.975Z</time>
      </trkpt>
      <trkpt lat="52.112816" lon="6.521124">
        <ele>61.829277</ele>
        <time>2026-05-09T09:18:47.981Z</time>
      </trkpt>
      <trkpt lat="52.112724" lon="6.521136">
        <ele>61.880166</ele>
        <time>2026-05-09T09:18:50.986Z</time>
      </trkpt>
      <trkpt lat="52.112633" lon="6.521169">
        <ele>61.931570</ele>
        <time>2026-05-09T09:18:53.976Z</time>
      </trkpt>
      <trkpt lat="52.112525" lon="6.521219">
        <ele>61.873226</ele>
        <time>2026-05-09T09:18:57.986Z</time>
      </trkpt>
      <trkpt lat="52.112433" lon="6.521255">
        <ele>61.779389</ele>
        <time>2026-05-09T09:19:00.984Z</time>
      </trkpt>
      <trkpt lat="52.112334" lon="6.521304">
        <ele>61.676773</ele>
        <time>2026-05-09T09:19:03.976Z</time>
      </trkpt>
      <trkpt lat="52.112235" lon="6.521338">
        <ele>61.576432</ele>
        <time>2026-05-09T09:19:06.969Z</time>
      </trkpt>
      <trkpt lat="52.112132" lon="6.521376">
        <ele>61.471696</ele>
        <time>2026-05-09T09:19:09.968Z</time>
      </trkpt>
      <trkpt lat="52.112026" lon="6.521384">
        <ele>61.366460</ele>
        <time>2026-05-09T09:19:12.977Z</time>
      </trkpt>
      <trkpt lat="52.111920" lon="6.521417">
        <ele>61.259433</ele>
        <time>2026-05-09T09:19:15.982Z</time>
      </trkpt>
      <trkpt lat="52.111824" lon="6.521440">
        <ele>61.163202</ele>
        <time>2026-05-09T09:19:18.985Z</time>
      </trkpt>
      <trkpt lat="52.111721" lon="6.521473">
        <ele>61.059096</ele>
        <time>2026-05-09T09:19:21.971Z</time>
      </trkpt>
      <trkpt lat="52.111620" lon="6.521447">
        <ele>60.957688</ele>
        <time>2026-05-09T09:19:24.977Z</time>
      </trkpt>
      <trkpt lat="52.111538" lon="6.521302">
        <ele>60.837637</ele>
        <time>2026-05-09T09:19:27.983Z</time>
      </trkpt>
      <trkpt lat="52.111492" lon="6.521165">
        <ele>60.742541</ele>
        <time>2026-05-09T09:19:29.970Z</time>
      </trkpt>
      <trkpt lat="52.111444" lon="6.521040">
        <ele>60.652753</ele>
        <time>2026-05-09T09:19:31.973Z</time>
      </trkpt>
      <trkpt lat="52.111394" lon="6.520915">
        <ele>60.561898</ele>
        <time>2026-05-09T09:19:33.977Z</time>
      </trkpt>
      <trkpt lat="52.111347" lon="6.520785">
        <ele>60.470020</ele>
        <time>2026-05-09T09:19:35.982Z</time>
      </trkpt>
      <trkpt lat="52.111295" lon="6.520654">
        <ele>60.375019</ele>
        <time>2026-05-09T09:19:37.974Z</time>
      </trkpt>
      <trkpt lat="52.111247" lon="6.520520">
        <ele>60.280539</ele>
        <time>2026-05-09T09:19:39.973Z</time>
      </trkpt>
      <trkpt lat="52.111199" lon="6.520390">
        <ele>60.188154</ele>
        <time>2026-05-09T09:19:41.977Z</time>
      </trkpt>
      <trkpt lat="52.111139" lon="6.520198">
        <ele>60.155772</ele>
        <time>2026-05-09T09:19:44.974Z</time>
      </trkpt>
      <trkpt lat="52.111138" lon="6.520020">
        <ele>60.144933</ele>
        <time>2026-05-09T09:19:47.980Z</time>
      </trkpt>
      <trkpt lat="52.111144" lon="6.519852">
        <ele>60.134686</ele>
        <time>2026-05-09T09:20:00.977Z</time>
      </trkpt>
      <trkpt lat="52.111080" lon="6.519747">
        <ele>60.125679</ele>
        <time>2026-05-09T09:20:03.974Z</time>
      </trkpt>
      <trkpt lat="52.110982" lon="6.519649">
        <ele>60.114276</ele>
        <time>2026-05-09T09:20:06.978Z</time>
      </trkpt>
      <trkpt lat="52.110927" lon="6.519449">
        <ele>60.100933</ele>
        <time>2026-05-09T09:20:09.974Z</time>
      </trkpt>
      <trkpt lat="52.110887" lon="6.519309">
        <ele>60.091531</ele>
        <time>2026-05-09T09:20:11.976Z</time>
      </trkpt>
      <trkpt lat="52.110842" lon="6.519170">
        <ele>60.081964</ele>
        <time>2026-05-09T09:20:13.978Z</time>
      </trkpt>
      <trkpt lat="52.110803" lon="6.519033">
        <ele>60.072769</ele>
        <time>2026-05-09T09:20:15.975Z</time>
      </trkpt>
      <trkpt lat="52.110741" lon="6.518847">
        <ele>60.059883</ele>
        <time>2026-05-09T09:20:18.975Z</time>
      </trkpt>
      <trkpt lat="52.110686" lon="6.518667">
        <ele>60.047641</ele>
        <time>2026-05-09T09:20:21.976Z</time>
      </trkpt>
      <trkpt lat="52.110624" lon="6.518473">
        <ele>60.034325</ele>
        <time>2026-05-09T09:20:24.975Z</time>
      </trkpt>
      <trkpt lat="52.110578" lon="6.518344">
        <ele>60.025242</ele>
        <time>2026-05-09T09:20:26.976Z</time>
      </trkpt>
      <trkpt lat="52.110536" lon="6.518214">
        <ele>60.016298</ele>
        <time>2026-05-09T09:20:28.977Z</time>
      </trkpt>
      <trkpt lat="52.110493" lon="6.518076">
        <ele>60.006876</ele>
        <time>2026-05-09T09:20:30.973Z</time>
      </trkpt>
      <trkpt lat="52.110447" lon="6.517934">
        <ele>59.997100</ele>
        <time>2026-05-09T09:20:32.974Z</time>
      </trkpt>
      <trkpt lat="52.110402" lon="6.517803">
        <ele>59.988630</ele>
        <time>2026-05-09T09:20:34.974Z</time>
      </trkpt>
      <trkpt lat="52.110353" lon="6.517673">
        <ele>59.992885</ele>
        <time>2026-05-09T09:20:36.974Z</time>
      </trkpt>
      <trkpt lat="52.110291" lon="6.517488">
        <ele>59.998764</ele>
        <time>2026-05-09T09:20:39.977Z</time>
      </trkpt>
      <trkpt lat="52.110236" lon="6.517305">
        <ele>60.004447</ele>
        <time>2026-05-09T09:20:42.979Z</time>
      </trkpt>
      <trkpt lat="52.110170" lon="6.517114">
        <ele>60.010561</ele>
        <time>2026-05-09T09:20:45.978Z</time>
      </trkpt>
      <trkpt lat="52.110128" lon="6.516984">
        <ele>60.014658</ele>
        <time>2026-05-09T09:20:47.974Z</time>
      </trkpt>
      <trkpt lat="52.110080" lon="6.516848">
        <ele>60.019034</ele>
        <time>2026-05-09T09:20:49.976Z</time>
      </trkpt>
      <trkpt lat="52.110040" lon="6.516705">
        <ele>60.023417</ele>
        <time>2026-05-09T09:20:51.979Z</time>
      </trkpt>
      <trkpt lat="52.109996" lon="6.516568">
        <ele>60.027730</ele>
        <time>2026-05-09T09:20:53.973Z</time>
      </trkpt>
      <trkpt lat="52.109954" lon="6.516437">
        <ele>60.031852</ele>
        <time>2026-05-09T09:20:55.978Z</time>
      </trkpt>
      <trkpt lat="52.109888" lon="6.516257">
        <ele>60.037700</ele>
        <time>2026-05-09T09:20:58.978Z</time>
      </trkpt>
      <trkpt lat="52.109824" lon="6.516075">
        <ele>60.043551</ele>
        <time>2026-05-09T09:21:01.979Z</time>
      </trkpt>
      <trkpt lat="52.109773" lon="6.515951">
        <ele>60.047714</ele>
        <time>2026-05-09T09:21:03.976Z</time>
      </trkpt>
      <trkpt lat="52.109731" lon="6.515818">
        <ele>60.051886</ele>
        <time>2026-05-09T09:21:05.977Z</time>
      </trkpt>
      <trkpt lat="52.109684" lon="6.515691">
        <ele>60.056022</ele>
        <time>2026-05-09T09:21:07.970Z</time>
      </trkpt>
      <trkpt lat="52.109644" lon="6.515559">
        <ele>60.060128</ele>
        <time>2026-05-09T09:21:09.975Z</time>
      </trkpt>
      <trkpt lat="52.109581" lon="6.515383">
        <ele>60.065811</ele>
        <time>2026-05-09T09:21:12.971Z</time>
      </trkpt>
      <trkpt lat="52.109559" lon="6.515196">
        <ele>60.071036</ele>
        <time>2026-05-09T09:21:15.985Z</time>
      </trkpt>
      <trkpt lat="52.109637" lon="6.515021">
        <ele>60.076550</ele>
        <time>2026-05-09T09:21:18.981Z</time>
      </trkpt>
      <trkpt lat="52.109696" lon="6.514900">
        <ele>60.080490</ele>
        <time>2026-05-09T09:21:20.983Z</time>
      </trkpt>
      <trkpt lat="52.109752" lon="6.514785">
        <ele>60.084233</ele>
        <time>2026-05-09T09:21:22.976Z</time>
      </trkpt>
      <trkpt lat="52.109805" lon="6.514665">
        <ele>60.088002</ele>
        <time>2026-05-09T09:21:24.983Z</time>
      </trkpt>
      <trkpt lat="52.109859" lon="6.514541">
        <ele>60.091879</ele>
        <time>2026-05-09T09:21:26.979Z</time>
      </trkpt>
      <trkpt lat="52.109917" lon="6.514411">
        <ele>60.095977</ele>
        <time>2026-05-09T09:21:28.974Z</time>
      </trkpt>
      <trkpt lat="52.109974" lon="6.514282">
        <ele>60.100029</ele>
        <time>2026-05-09T09:21:30.973Z</time>
      </trkpt>
      <trkpt lat="52.110028" lon="6.514159">
        <ele>60.103885</ele>
        <time>2026-05-09T09:21:32.974Z</time>
      </trkpt>
      <trkpt lat="52.110084" lon="6.514024">
        <ele>60.108039</ele>
        <time>2026-05-09T09:21:34.979Z</time>
      </trkpt>
      <trkpt lat="52.110147" lon="6.513906">
        <ele>60.112027</ele>
        <time>2026-05-09T09:21:36.980Z</time>
      </trkpt>
      <trkpt lat="52.110207" lon="6.513787">
        <ele>60.115953</ele>
        <time>2026-05-09T09:21:38.974Z</time>
      </trkpt>
      <trkpt lat="52.110264" lon="6.513655">
        <ele>60.120068</ele>
        <time>2026-05-09T09:21:40.978Z</time>
      </trkpt>
      <trkpt lat="52.110319" lon="6.513519">
        <ele>60.124221</ele>
        <time>2026-05-09T09:21:42.979Z</time>
      </trkpt>
      <trkpt lat="52.110377" lon="6.513392">
        <ele>60.128257</ele>
        <time>2026-05-09T09:21:44.979Z</time>
      </trkpt>
      <trkpt lat="52.110436" lon="6.513263">
        <ele>60.132358</ele>
        <time>2026-05-09T09:21:46.972Z</time>
      </trkpt>
      <trkpt lat="52.110491" lon="6.513126">
        <ele>60.136532</ele>
        <time>2026-05-09T09:21:48.977Z</time>
      </trkpt>
      <trkpt lat="52.110549" lon="6.512997">
        <ele>60.140609</ele>
        <time>2026-05-09T09:21:50.972Z</time>
      </trkpt>
      <trkpt lat="52.110610" lon="6.512864">
        <ele>60.144458</ele>
        <time>2026-05-09T09:21:52.971Z</time>
      </trkpt>
      <trkpt lat="52.110670" lon="6.512735">
        <ele>60.108064</ele>
        <time>2026-05-09T09:21:54.976Z</time>
      </trkpt>
      <trkpt lat="52.110722" lon="6.512611">
        <ele>60.074295</ele>
        <time>2026-05-09T09:21:56.976Z</time>
      </trkpt>
      <trkpt lat="52.110778" lon="6.512486">
        <ele>60.039497</ele>
        <time>2026-05-09T09:21:58.977Z</time>
      </trkpt>
      <trkpt lat="52.110836" lon="6.512369">
        <ele>60.005681</ele>
        <time>2026-05-09T09:22:00.976Z</time>
      </trkpt>
      <trkpt lat="52.110890" lon="6.512241">
        <ele>59.970756</ele>
        <time>2026-05-09T09:22:02.974Z</time>
      </trkpt>
      <trkpt lat="52.110967" lon="6.512058">
        <ele>59.920866</ele>
        <time>2026-05-09T09:22:05.976Z</time>
      </trkpt>
      <trkpt lat="52.111027" lon="6.511927">
        <ele>59.884113</ele>
        <time>2026-05-09T09:22:07.977Z</time>
      </trkpt>
      <trkpt lat="52.111083" lon="6.511806">
        <ele>59.850039</ele>
        <time>2026-05-09T09:22:09.976Z</time>
      </trkpt>
      <trkpt lat="52.111134" lon="6.511671">
        <ele>59.814393</ele>
        <time>2026-05-09T09:22:11.975Z</time>
      </trkpt>
      <trkpt lat="52.111164" lon="6.511522">
        <ele>59.779128</ele>
        <time>2026-05-09T09:22:13.974Z</time>
      </trkpt>
      <trkpt lat="52.111174" lon="6.511373">
        <ele>59.745419</ele>
        <time>2026-05-09T09:22:15.974Z</time>
      </trkpt>
      <trkpt lat="52.111163" lon="6.511163">
        <ele>59.698018</ele>
        <time>2026-05-09T09:22:18.975Z</time>
      </trkpt>
      <trkpt lat="52.111157" lon="6.511004">
        <ele>59.662192</ele>
        <time>2026-05-09T09:22:20.973Z</time>
      </trkpt>
      <trkpt lat="52.111147" lon="6.510832">
        <ele>59.623337</ele>
        <time>2026-05-09T09:22:22.974Z</time>
      </trkpt>
      <trkpt lat="52.111140" lon="6.510650">
        <ele>59.582325</ele>
        <time>2026-05-09T09:22:24.973Z</time>
      </trkpt>
      <trkpt lat="52.111130" lon="6.510468">
        <ele>59.541230</ele>
        <time>2026-05-09T09:22:26.973Z</time>
      </trkpt>
      <trkpt lat="52.111121" lon="6.510280">
        <ele>59.498821</ele>
        <time>2026-05-09T09:22:28.989Z</time>
      </trkpt>
      <trkpt lat="52.111108" lon="6.510090">
        <ele>59.478145</ele>
        <time>2026-05-09T09:22:30.971Z</time>
      </trkpt>
      <trkpt lat="52.111100" lon="6.509902">
        <ele>59.466979</ele>
        <time>2026-05-09T09:22:32.979Z</time>
      </trkpt>
      <trkpt lat="52.111092" lon="6.509722">
        <ele>59.456286</ele>
        <time>2026-05-09T09:22:34.977Z</time>
      </trkpt>
      <trkpt lat="52.111085" lon="6.509548">
        <ele>59.445954</ele>
        <time>2026-05-09T09:22:36.970Z</time>
      </trkpt>
      <trkpt lat="52.111077" lon="6.509371">
        <ele>59.435438</ele>
        <time>2026-05-09T09:22:38.971Z</time>
      </trkpt>
      <trkpt lat="52.111073" lon="6.509193">
        <ele>59.424883</ele>
        <time>2026-05-09T09:22:40.978Z</time>
      </trkpt>
      <trkpt lat="52.111067" lon="6.509013">
        <ele>59.414202</ele>
        <time>2026-05-09T09:22:42.977Z</time>
      </trkpt>
      <trkpt lat="52.111056" lon="6.508835">
        <ele>59.403602</ele>
        <time>2026-05-09T09:22:44.970Z</time>
      </trkpt>
      <trkpt lat="52.111047" lon="6.508661">
        <ele>59.393255</ele>
        <time>2026-05-09T09:22:46.977Z</time>
      </trkpt>
      <trkpt lat="52.111036" lon="6.508488">
        <ele>59.382950</ele>
        <time>2026-05-09T09:22:48.979Z</time>
      </trkpt>
      <trkpt lat="52.111026" lon="6.508310">
        <ele>59.372359</ele>
        <time>2026-05-09T09:22:50.970Z</time>
      </trkpt>
      <trkpt lat="52.111015" lon="6.508139">
        <ele>59.362171</ele>
        <time>2026-05-09T09:22:52.977Z</time>
      </trkpt>
      <trkpt lat="52.111007" lon="6.507966">
        <ele>59.351891</ele>
        <time>2026-05-09T09:22:54.976Z</time>
      </trkpt>
      <trkpt lat="52.111003" lon="6.507798">
        <ele>59.341929</ele>
        <time>2026-05-09T09:22:56.975Z</time>
      </trkpt>
      <trkpt lat="52.110993" lon="6.507623">
        <ele>59.331515</ele>
        <time>2026-05-09T09:22:58.978Z</time>
      </trkpt>
      <trkpt lat="52.110987" lon="6.507455">
        <ele>59.321544</ele>
        <time>2026-05-09T09:23:00.981Z</time>
      </trkpt>
      <trkpt lat="52.110978" lon="6.507293">
        <ele>59.313308</ele>
        <time>2026-05-09T09:23:02.986Z</time>
      </trkpt>
      <trkpt lat="52.110968" lon="6.507137">
        <ele>59.323000</ele>
        <time>2026-05-09T09:23:04.981Z</time>
      </trkpt>
      <trkpt lat="52.110960" lon="6.506968">
        <ele>59.333475</ele>
        <time>2026-05-09T09:23:06.980Z</time>
      </trkpt>
      <trkpt lat="52.110959" lon="6.506807">
        <ele>59.343424</ele>
        <time>2026-05-09T09:23:08.981Z</time>
      </trkpt>
      <trkpt lat="52.110953" lon="6.506639">
        <ele>59.353823</ele>
        <time>2026-05-09T09:23:10.980Z</time>
      </trkpt>
      <trkpt lat="52.110941" lon="6.506462">
        <ele>59.364827</ele>
        <time>2026-05-09T09:23:12.980Z</time>
      </trkpt>
      <trkpt lat="52.110937" lon="6.506282">
        <ele>59.375958</ele>
        <time>2026-05-09T09:23:14.980Z</time>
      </trkpt>
      <trkpt lat="52.110925" lon="6.506101">
        <ele>59.387208</ele>
        <time>2026-05-09T09:23:16.980Z</time>
      </trkpt>
      <trkpt lat="52.110920" lon="6.505916">
        <ele>59.398651</ele>
        <time>2026-05-09T09:23:18.980Z</time>
      </trkpt>
      <trkpt lat="52.110907" lon="6.505741">
        <ele>59.409544</ele>
        <time>2026-05-09T09:23:20.979Z</time>
      </trkpt>
      <trkpt lat="52.110899" lon="6.505564">
        <ele>59.420511</ele>
        <time>2026-05-09T09:23:22.979Z</time>
      </trkpt>
      <trkpt lat="52.110886" lon="6.505391">
        <ele>59.431281</ele>
        <time>2026-05-09T09:23:24.978Z</time>
      </trkpt>
      <trkpt lat="52.110874" lon="6.505224">
        <ele>59.441671</ele>
        <time>2026-05-09T09:23:26.979Z</time>
      </trkpt>
      <trkpt lat="52.110853" lon="6.505053">
        <ele>59.452448</ele>
        <time>2026-05-09T09:23:28.979Z</time>
      </trkpt>
      <trkpt lat="52.110823" lon="6.504875">
        <ele>59.463854</ele>
        <time>2026-05-09T09:23:30.971Z</time>
      </trkpt>
      <trkpt lat="52.110785" lon="6.504710">
        <ele>59.474743</ele>
        <time>2026-05-09T09:23:32.978Z</time>
      </trkpt>
      <trkpt lat="52.110745" lon="6.504540">
        <ele>59.485993</ele>
        <time>2026-05-09T09:23:34.974Z</time>
      </trkpt>
      <trkpt lat="52.110706" lon="6.504363">
        <ele>59.488548</ele>
        <time>2026-05-09T09:23:36.982Z</time>
      </trkpt>
      <trkpt lat="52.110668" lon="6.504188">
        <ele>59.474278</ele>
        <time>2026-05-09T09:23:38.974Z</time>
      </trkpt>
      <trkpt lat="52.110632" lon="6.504015">
        <ele>59.460236</ele>
        <time>2026-05-09T09:23:40.973Z</time>
      </trkpt>
      <trkpt lat="52.110594" lon="6.503837">
        <ele>59.445749</ele>
        <time>2026-05-09T09:23:42.973Z</time>
      </trkpt>
      <trkpt lat="52.110560" lon="6.503676">
        <ele>59.432661</ele>
        <time>2026-05-09T09:23:44.980Z</time>
      </trkpt>
      <trkpt lat="52.110521" lon="6.503508">
        <ele>59.418854</ele>
        <time>2026-05-09T09:23:46.978Z</time>
      </trkpt>
      <trkpt lat="52.110483" lon="6.503336">
        <ele>59.404802</ele>
        <time>2026-05-09T09:23:48.976Z</time>
      </trkpt>
      <trkpt lat="52.110450" lon="6.503167">
        <ele>59.391169</ele>
        <time>2026-05-09T09:23:50.984Z</time>
      </trkpt>
      <trkpt lat="52.110409" lon="6.502997">
        <ele>59.377129</ele>
        <time>2026-05-09T09:23:52.978Z</time>
      </trkpt>
      <trkpt lat="52.110369" lon="6.502826">
        <ele>59.363062</ele>
        <time>2026-05-09T09:23:54.979Z</time>
      </trkpt>
      <trkpt lat="52.110332" lon="6.502649">
        <ele>59.348688</ele>
        <time>2026-05-09T09:23:56.976Z</time>
      </trkpt>
      <trkpt lat="52.110295" lon="6.502484">
        <ele>59.335184</ele>
        <time>2026-05-09T09:23:58.977Z</time>
      </trkpt>
      <trkpt lat="52.110257" lon="6.502313">
        <ele>59.321204</ele>
        <time>2026-05-09T09:24:00.981Z</time>
      </trkpt>
      <trkpt lat="52.110222" lon="6.502137">
        <ele>59.306983</ele>
        <time>2026-05-09T09:24:02.983Z</time>
      </trkpt>
      <trkpt lat="52.110183" lon="6.501965">
        <ele>59.292887</ele>
        <time>2026-05-09T09:24:04.977Z</time>
      </trkpt>
      <trkpt lat="52.110147" lon="6.501800">
        <ele>59.279426</ele>
        <time>2026-05-09T09:24:06.981Z</time>
      </trkpt>
      <trkpt lat="52.110106" lon="6.501639">
        <ele>59.272510</ele>
        <time>2026-05-09T09:24:08.981Z</time>
      </trkpt>
      <trkpt lat="52.110045" lon="6.501480">
        <ele>59.297030</ele>
        <time>2026-05-09T09:24:10.978Z</time>
      </trkpt>
      <trkpt lat="52.109990" lon="6.501311">
        <ele>59.322046</ele>
        <time>2026-05-09T09:24:12.976Z</time>
      </trkpt>
      <trkpt lat="52.109949" lon="6.501130">
        <ele>59.347279</ele>
        <time>2026-05-09T09:24:14.978Z</time>
      </trkpt>
      <trkpt lat="52.109913" lon="6.500968">
        <ele>59.369812</ele>
        <time>2026-05-09T09:24:16.978Z</time>
      </trkpt>
      <trkpt lat="52.109882" lon="6.500800">
        <ele>59.392755</ele>
        <time>2026-05-09T09:24:18.976Z</time>
      </trkpt>
      <trkpt lat="52.109845" lon="6.500623">
        <ele>59.417210</ele>
        <time>2026-05-09T09:24:20.980Z</time>
      </trkpt>
      <trkpt lat="52.109831" lon="6.500450">
        <ele>59.440033</ele>
        <time>2026-05-09T09:24:22.971Z</time>
      </trkpt>
      <trkpt lat="52.109799" lon="6.500281">
        <ele>59.463164</ele>
        <time>2026-05-09T09:24:24.983Z</time>
      </trkpt>
      <trkpt lat="52.109759" lon="6.500113">
        <ele>59.486731</ele>
        <time>2026-05-09T09:24:26.978Z</time>
      </trkpt>
      <trkpt lat="52.109723" lon="6.499941">
        <ele>59.510498</ele>
        <time>2026-05-09T09:24:28.979Z</time>
      </trkpt>
      <trkpt lat="52.109688" lon="6.499773">
        <ele>59.533701</ele>
        <time>2026-05-09T09:24:30.972Z</time>
      </trkpt>
      <trkpt lat="52.109651" lon="6.499604">
        <ele>59.557168</ele>
        <time>2026-05-09T09:24:32.979Z</time>
      </trkpt>
      <trkpt lat="52.109613" lon="6.499431">
        <ele>59.581199</ele>
        <time>2026-05-09T09:24:34.972Z</time>
      </trkpt>
      <trkpt lat="52.109573" lon="6.499265">
        <ele>59.604523</ele>
        <time>2026-05-09T09:24:36.977Z</time>
      </trkpt>
      <trkpt lat="52.109543" lon="6.499096">
        <ele>59.627532</ele>
        <time>2026-05-09T09:24:38.973Z</time>
      </trkpt>
      <trkpt lat="52.109508" lon="6.498931">
        <ele>59.650364</ele>
        <time>2026-05-09T09:24:40.977Z</time>
      </trkpt>
      <trkpt lat="52.109474" lon="6.498759">
        <ele>59.676118</ele>
        <time>2026-05-09T09:24:42.976Z</time>
      </trkpt>
      <trkpt lat="52.109436" lon="6.498586">
        <ele>59.702413</ele>
        <time>2026-05-09T09:24:44.976Z</time>
      </trkpt>
      <trkpt lat="52.109402" lon="6.498411">
        <ele>59.728682</ele>
        <time>2026-05-09T09:24:46.978Z</time>
      </trkpt>
      <trkpt lat="52.109359" lon="6.498247">
        <ele>59.754202</ele>
        <time>2026-05-09T09:24:48.975Z</time>
      </trkpt>
      <trkpt lat="52.109330" lon="6.498075">
        <ele>59.779729</ele>
        <time>2026-05-09T09:24:50.978Z</time>
      </trkpt>
      <trkpt lat="52.109299" lon="6.497903">
        <ele>59.805383</ele>
        <time>2026-05-09T09:24:52.975Z</time>
      </trkpt>
      <trkpt lat="52.109256" lon="6.497740">
        <ele>59.830772</ele>
        <time>2026-05-09T09:24:54.983Z</time>
      </trkpt>
      <trkpt lat="52.109226" lon="6.497571">
        <ele>59.855948</ele>
        <time>2026-05-09T09:24:56.978Z</time>
      </trkpt>
      <trkpt lat="52.109182" lon="6.497415">
        <ele>59.880516</ele>
        <time>2026-05-09T09:24:58.977Z</time>
      </trkpt>
      <trkpt lat="52.109132" lon="6.497259">
        <ele>59.905700</ele>
        <time>2026-05-09T09:25:00.981Z</time>
      </trkpt>
      <trkpt lat="52.109082" lon="6.497113">
        <ele>59.929624</ele>
        <time>2026-05-09T09:25:02.981Z</time>
      </trkpt>
      <trkpt lat="52.109039" lon="6.496948">
        <ele>59.955276</ele>
        <time>2026-05-09T09:25:04.978Z</time>
      </trkpt>
      <trkpt lat="52.109002" lon="6.496784">
        <ele>59.980280</ele>
        <time>2026-05-09T09:25:06.976Z</time>
      </trkpt>
      <trkpt lat="52.108969" lon="6.496624">
        <ele>60.004436</ele>
        <time>2026-05-09T09:25:08.974Z</time>
      </trkpt>
      <trkpt lat="52.108935" lon="6.496458">
        <ele>60.029480</ele>
        <time>2026-05-09T09:25:10.985Z</time>
      </trkpt>
      <trkpt lat="52.108903" lon="6.496299">
        <ele>60.053426</ele>
        <time>2026-05-09T09:25:12.981Z</time>
      </trkpt>
      <trkpt lat="52.108871" lon="6.496133">
        <ele>60.042547</ele>
        <time>2026-05-09T09:25:14.979Z</time>
      </trkpt>
      <trkpt lat="52.108834" lon="6.495976">
        <ele>59.954959</ele>
        <time>2026-05-09T09:25:16.981Z</time>
      </trkpt>
      <trkpt lat="52.108800" lon="6.495811">
        <ele>59.864309</ele>
        <time>2026-05-09T09:25:18.987Z</time>
      </trkpt>
      <trkpt lat="52.108762" lon="6.495649">
        <ele>59.773985</ele>
        <time>2026-05-09T09:25:20.980Z</time>
      </trkpt>
      <trkpt lat="52.108720" lon="6.495486">
        <ele>59.681916</ele>
        <time>2026-05-09T09:25:22.977Z</time>
      </trkpt>
      <trkpt lat="52.108686" lon="6.495320">
        <ele>59.590772</ele>
        <time>2026-05-09T09:25:24.974Z</time>
      </trkpt>
      <trkpt lat="52.108650" lon="6.495164">
        <ele>59.503971</ele>
        <time>2026-05-09T09:25:26.973Z</time>
      </trkpt>
      <trkpt lat="52.108621" lon="6.495005">
        <ele>59.417579</ele>
        <time>2026-05-09T09:25:28.979Z</time>
      </trkpt>
      <trkpt lat="52.108584" lon="6.494837">
        <ele>59.324619</ele>
        <time>2026-05-09T09:25:30.990Z</time>
      </trkpt>
      <trkpt lat="52.108551" lon="6.494678">
        <ele>59.237201</ele>
        <time>2026-05-09T09:25:32.984Z</time>
      </trkpt>
      <trkpt lat="52.108541" lon="6.494525">
        <ele>59.157059</ele>
        <time>2026-05-09T09:25:34.971Z</time>
      </trkpt>
      <trkpt lat="52.108517" lon="6.494372">
        <ele>59.074809</ele>
        <time>2026-05-09T09:25:36.980Z</time>
      </trkpt>
      <trkpt lat="52.108487" lon="6.494220">
        <ele>58.991650</ele>
        <time>2026-05-09T09:25:38.969Z</time>
      </trkpt>
      <trkpt lat="52.108459" lon="6.494060">
        <ele>58.904995</ele>
        <time>2026-05-09T09:25:40.982Z</time>
      </trkpt>
      <trkpt lat="52.108424" lon="6.493900">
        <ele>58.816529</ele>
        <time>2026-05-09T09:25:42.972Z</time>
      </trkpt>
      <trkpt lat="52.108395" lon="6.493751">
        <ele>58.735117</ele>
        <time>2026-05-09T09:25:44.970Z</time>
      </trkpt>
      <trkpt lat="52.108365" lon="6.493582">
        <ele>58.643488</ele>
        <time>2026-05-09T09:25:46.971Z</time>
      </trkpt>
      <trkpt lat="52.108329" lon="6.493418">
        <ele>58.552774</ele>
        <time>2026-05-09T09:25:48.968Z</time>
      </trkpt>
      <trkpt lat="52.108290" lon="6.493244">
        <ele>58.603109</ele>
        <time>2026-05-09T09:25:50.973Z</time>
      </trkpt>
      <trkpt lat="52.108253" lon="6.493077">
        <ele>58.663298</ele>
        <time>2026-05-09T09:25:52.973Z</time>
      </trkpt>
      <trkpt lat="52.108215" lon="6.492908">
        <ele>58.724313</ele>
        <time>2026-05-09T09:25:54.973Z</time>
      </trkpt>
      <trkpt lat="52.108179" lon="6.492745">
        <ele>58.783039</ele>
        <time>2026-05-09T09:25:56.981Z</time>
      </trkpt>
      <trkpt lat="52.108147" lon="6.492586">
        <ele>58.839765</ele>
        <time>2026-05-09T09:25:58.972Z</time>
      </trkpt>
      <trkpt lat="52.108118" lon="6.492444">
        <ele>58.890499</ele>
        <time>2026-05-09T09:26:00.973Z</time>
      </trkpt>
      <trkpt lat="52.108084" lon="6.492301">
        <ele>58.942486</ele>
        <time>2026-05-09T09:26:02.973Z</time>
      </trkpt>
      <trkpt lat="52.108035" lon="6.492101">
        <ele>59.015488</ele>
        <time>2026-05-09T09:26:05.974Z</time>
      </trkpt>
      <trkpt lat="52.107992" lon="6.491914">
        <ele>59.083184</ele>
        <time>2026-05-09T09:26:08.975Z</time>
      </trkpt>
      <trkpt lat="52.108001" lon="6.491740">
        <ele>59.142384</ele>
        <time>2026-05-09T09:26:11.969Z</time>
      </trkpt>
      <trkpt lat="52.108034" lon="6.491581">
        <ele>59.199285</ele>
        <time>2026-05-09T09:26:14.976Z</time>
      </trkpt>
      <trkpt lat="52.108060" lon="6.491426">
        <ele>59.253759</ele>
        <time>2026-05-09T09:26:17.979Z</time>
      </trkpt>
      <trkpt lat="52.108139" lon="6.491351">
        <ele>59.304239</ele>
        <time>2026-05-09T09:26:21.973Z</time>
      </trkpt>
      <trkpt lat="52.108056" lon="6.491203">
        <ele>59.372187</ele>
        <time>2026-05-09T09:32:51.973Z</time>
      </trkpt>
      <trkpt lat="52.108030" lon="6.491052">
        <ele>59.425354</ele>
        <time>2026-05-09T09:32:57.977Z</time>
      </trkpt>
      <trkpt lat="52.107995" lon="6.490912">
        <ele>59.476600</ele>
        <time>2026-05-09T09:33:02.975Z</time>
      </trkpt>
      <trkpt lat="52.107943" lon="6.490744">
        <ele>59.539344</ele>
        <time>2026-05-09T09:33:06.974Z</time>
      </trkpt>
      <trkpt lat="52.107898" lon="6.490606">
        <ele>59.568316</ele>
        <time>2026-05-09T09:33:09.975Z</time>
      </trkpt>
      <trkpt lat="52.107858" lon="6.490469">
        <ele>59.596444</ele>
        <time>2026-05-09T09:33:12.976Z</time>
      </trkpt>
      <trkpt lat="52.107819" lon="6.490329">
        <ele>59.624949</ele>
        <time>2026-05-09T09:33:15.974Z</time>
      </trkpt>
      <trkpt lat="52.107776" lon="6.490182">
        <ele>59.655140</ele>
        <time>2026-05-09T09:33:18.976Z</time>
      </trkpt>
      <trkpt lat="52.107730" lon="6.490050">
        <ele>59.683282</ele>
        <time>2026-05-09T09:33:21.975Z</time>
      </trkpt>
      <trkpt lat="52.107690" lon="6.489867">
        <ele>59.719300</ele>
        <time>2026-05-09T09:33:25.975Z</time>
      </trkpt>
      <trkpt lat="52.107648" lon="6.489711">
        <ele>59.750884</ele>
        <time>2026-05-09T09:33:28.980Z</time>
      </trkpt>
      <trkpt lat="52.107589" lon="6.489544">
        <ele>59.786608</ele>
        <time>2026-05-09T09:33:31.972Z</time>
      </trkpt>
      <trkpt lat="52.107518" lon="6.489376">
        <ele>59.824422</ele>
        <time>2026-05-09T09:33:34.980Z</time>
      </trkpt>
      <trkpt lat="52.107466" lon="6.489198">
        <ele>59.860972</ele>
        <time>2026-05-09T09:33:37.973Z</time>
      </trkpt>
      <trkpt lat="52.107426" lon="6.489023">
        <ele>59.895596</ele>
        <time>2026-05-09T09:33:40.979Z</time>
      </trkpt>
      <trkpt lat="52.107384" lon="6.488855">
        <ele>59.929230</ele>
        <time>2026-05-09T09:33:43.972Z</time>
      </trkpt>
      <trkpt lat="52.107360" lon="6.488687">
        <ele>59.961213</ele>
        <time>2026-05-09T09:33:46.974Z</time>
      </trkpt>
      <trkpt lat="52.107318" lon="6.488543">
        <ele>59.990773</ele>
        <time>2026-05-09T09:33:49.979Z</time>
      </trkpt>
      <trkpt lat="52.107277" lon="6.488400">
        <ele>60.020036</ele>
        <time>2026-05-09T09:33:52.976Z</time>
      </trkpt>
      <trkpt lat="52.107225" lon="6.488237">
        <ele>60.054095</ele>
        <time>2026-05-09T09:33:56.976Z</time>
      </trkpt>
      <trkpt lat="52.107181" lon="6.488105">
        <ele>60.080477</ele>
        <time>2026-05-09T09:34:02.978Z</time>
      </trkpt>
      <trkpt lat="52.107098" lon="6.487868">
        <ele>60.040880</ele>
        <time>2026-05-09T09:35:18.976Z</time>
      </trkpt>
      <trkpt lat="52.107060" lon="6.487734">
        <ele>60.019459</ele>
        <time>2026-05-09T09:35:21.980Z</time>
      </trkpt>
      <trkpt lat="52.107018" lon="6.487578">
        <ele>59.994737</ele>
        <time>2026-05-09T09:35:24.980Z</time>
      </trkpt>
      <trkpt lat="52.106978" lon="6.487422">
        <ele>59.970202</ele>
        <time>2026-05-09T09:35:27.975Z</time>
      </trkpt>
      <trkpt lat="52.106933" lon="6.487258">
        <ele>59.944131</ele>
        <time>2026-05-09T09:35:30.981Z</time>
      </trkpt>
      <trkpt lat="52.106883" lon="6.487090">
        <ele>59.917036</ele>
        <time>2026-05-09T09:35:33.974Z</time>
      </trkpt>
      <trkpt lat="52.106829" lon="6.486912">
        <ele>59.888221</ele>
        <time>2026-05-09T09:35:36.978Z</time>
      </trkpt>
      <trkpt lat="52.106781" lon="6.486745">
        <ele>59.861460</ele>
        <time>2026-05-09T09:35:39.981Z</time>
      </trkpt>
      <trkpt lat="52.106733" lon="6.486573">
        <ele>59.834040</ele>
        <time>2026-05-09T09:35:42.974Z</time>
      </trkpt>
      <trkpt lat="52.106681" lon="6.486401">
        <ele>59.806216</ele>
        <time>2026-05-09T09:35:45.971Z</time>
      </trkpt>
      <trkpt lat="52.106635" lon="6.486223">
        <ele>59.778187</ele>
        <time>2026-05-09T09:35:48.974Z</time>
      </trkpt>
      <trkpt lat="52.106627" lon="6.486042">
        <ele>59.751849</ele>
        <time>2026-05-09T09:35:51.985Z</time>
      </trkpt>
      <trkpt lat="52.106648" lon="6.485851">
        <ele>59.723686</ele>
        <time>2026-05-09T09:35:54.975Z</time>
      </trkpt>
      <trkpt lat="52.106691" lon="6.485638">
        <ele>59.691144</ele>
        <time>2026-05-09T09:35:57.977Z</time>
      </trkpt>
      <trkpt lat="52.106769" lon="6.485476">
        <ele>59.661268</ele>
        <time>2026-05-09T09:36:00.973Z</time>
      </trkpt>
      <trkpt lat="52.106880" lon="6.485353">
        <ele>59.649564</ele>
        <time>2026-05-09T09:36:03.975Z</time>
      </trkpt>
      <trkpt lat="52.106964" lon="6.485283">
        <ele>59.644088</ele>
        <time>2026-05-09T09:36:05.984Z</time>
      </trkpt>
      <trkpt lat="52.107052" lon="6.485214">
        <ele>59.638420</ele>
        <time>2026-05-09T09:36:07.975Z</time>
      </trkpt>
      <trkpt lat="52.107143" lon="6.485149">
        <ele>59.632653</ele>
        <time>2026-05-09T09:36:09.976Z</time>
      </trkpt>
      <trkpt lat="52.107230" lon="6.485093">
        <ele>59.627223</ele>
        <time>2026-05-09T09:36:11.977Z</time>
      </trkpt>
      <trkpt lat="52.107319" lon="6.485019">
        <ele>59.621424</ele>
        <time>2026-05-09T09:36:13.980Z</time>
      </trkpt>
      <trkpt lat="52.107441" lon="6.484931">
        <ele>59.613680</ele>
        <time>2026-05-09T09:36:16.975Z</time>
      </trkpt>
      <trkpt lat="52.107527" lon="6.484864">
        <ele>59.608147</ele>
        <time>2026-05-09T09:36:18.973Z</time>
      </trkpt>
      <trkpt lat="52.107613" lon="6.484790">
        <ele>59.602502</ele>
        <time>2026-05-09T09:36:20.973Z</time>
      </trkpt>
      <trkpt lat="52.107704" lon="6.484724">
        <ele>59.596721</ele>
        <time>2026-05-09T09:36:22.981Z</time>
      </trkpt>
      <trkpt lat="52.107795" lon="6.484645">
        <ele>59.590736</ele>
        <time>2026-05-09T09:36:24.981Z</time>
      </trkpt>
      <trkpt lat="52.107882" lon="6.484574">
        <ele>59.585088</ele>
        <time>2026-05-09T09:36:26.974Z</time>
      </trkpt>
      <trkpt lat="52.107996" lon="6.484492">
        <ele>59.577855</ele>
        <time>2026-05-09T09:36:29.973Z</time>
      </trkpt>
      <trkpt lat="52.108116" lon="6.484392">
        <ele>59.570032</ele>
        <time>2026-05-09T09:36:32.972Z</time>
      </trkpt>
      <trkpt lat="52.108201" lon="6.484319">
        <ele>59.564455</ele>
        <time>2026-05-09T09:36:34.975Z</time>
      </trkpt>
      <trkpt lat="52.108283" lon="6.484249">
        <ele>59.559082</ele>
        <time>2026-05-09T09:36:36.977Z</time>
      </trkpt>
      <trkpt lat="52.108369" lon="6.484178">
        <ele>59.553486</ele>
        <time>2026-05-09T09:36:38.973Z</time>
      </trkpt>
      <trkpt lat="52.108446" lon="6.484094">
        <ele>59.518099</ele>
        <time>2026-05-09T09:36:40.972Z</time>
      </trkpt>
      <trkpt lat="52.108528" lon="6.484018">
        <ele>59.466896</ele>
        <time>2026-05-09T09:36:42.978Z</time>
      </trkpt>
      <trkpt lat="52.108652" lon="6.483929">
        <ele>59.393356</ele>
        <time>2026-05-09T09:36:45.978Z</time>
      </trkpt>
      <trkpt lat="52.108768" lon="6.483827">
        <ele>59.321812</ele>
        <time>2026-05-09T09:36:48.980Z</time>
      </trkpt>
      <trkpt lat="52.108886" lon="6.483737">
        <ele>59.251099</ele>
        <time>2026-05-09T09:36:51.978Z</time>
      </trkpt>
      <trkpt lat="52.108967" lon="6.483574">
        <ele>59.181217</ele>
        <time>2026-05-09T09:36:54.975Z</time>
      </trkpt>
      <trkpt lat="52.109001" lon="6.483383">
        <ele>59.114938</ele>
        <time>2026-05-09T09:36:57.970Z</time>
      </trkpt>
      <trkpt lat="52.109031" lon="6.483165">
        <ele>59.040479</ele>
        <time>2026-05-09T09:37:00.975Z</time>
      </trkpt>
      <trkpt lat="52.109051" lon="6.483018">
        <ele>58.990298</ele>
        <time>2026-05-09T09:37:02.976Z</time>
      </trkpt>
      <trkpt lat="52.109071" lon="6.482865">
        <ele>58.938162</ele>
        <time>2026-05-09T09:37:04.982Z</time>
      </trkpt>
      <trkpt lat="52.109076" lon="6.482714">
        <ele>58.887762</ele>
        <time>2026-05-09T09:37:06.975Z</time>
      </trkpt>
      <trkpt lat="52.109029" lon="6.482580">
        <ele>58.836331</ele>
        <time>2026-05-09T09:37:08.981Z</time>
      </trkpt>
      <trkpt lat="52.108970" lon="6.482454">
        <ele>58.783523</ele>
        <time>2026-05-09T09:37:10.975Z</time>
      </trkpt>
      <trkpt lat="52.108890" lon="6.482362">
        <ele>58.730372</ele>
        <time>2026-05-09T09:37:12.975Z</time>
      </trkpt>
      <trkpt lat="52.108799" lon="6.482296">
        <ele>58.676311</ele>
        <time>2026-05-09T09:37:14.972Z</time>
      </trkpt>
      <trkpt lat="52.108707" lon="6.482254">
        <ele>58.624460</ele>
        <time>2026-05-09T09:37:16.974Z</time>
      </trkpt>
      <trkpt lat="52.108612" lon="6.482209">
        <ele>58.583154</ele>
        <time>2026-05-09T09:37:18.971Z</time>
      </trkpt>
      <trkpt lat="52.108517" lon="6.482162">
        <ele>58.666836</ele>
        <time>2026-05-09T09:37:20.979Z</time>
      </trkpt>
      <trkpt lat="52.108420" lon="6.482117">
        <ele>58.751843</ele>
        <time>2026-05-09T09:37:22.971Z</time>
      </trkpt>
      <trkpt lat="52.108325" lon="6.482081">
        <ele>58.834051</ele>
        <time>2026-05-09T09:37:24.979Z</time>
      </trkpt>
      <trkpt lat="52.108231" lon="6.482041">
        <ele>58.915937</ele>
        <time>2026-05-09T09:37:26.970Z</time>
      </trkpt>
      <trkpt lat="52.108142" lon="6.482005">
        <ele>58.993228</ele>
        <time>2026-05-09T09:37:28.972Z</time>
      </trkpt>
      <trkpt lat="52.108032" lon="6.481922">
        <ele>59.095409</ele>
        <time>2026-05-09T09:37:31.972Z</time>
      </trkpt>
      <trkpt lat="52.107994" lon="6.481723">
        <ele>59.203283</ele>
        <time>2026-05-09T09:37:34.971Z</time>
      </trkpt>
      <trkpt lat="52.107970" lon="6.481570">
        <ele>59.285024</ele>
        <time>2026-05-09T09:37:36.979Z</time>
      </trkpt>
      <trkpt lat="52.107948" lon="6.481413">
        <ele>59.368382</ele>
        <time>2026-05-09T09:37:38.975Z</time>
      </trkpt>
      <trkpt lat="52.107926" lon="6.481247">
        <ele>59.456288</ele>
        <time>2026-05-09T09:37:40.977Z</time>
      </trkpt>
      <trkpt lat="52.107907" lon="6.481091">
        <ele>59.538612</ele>
        <time>2026-05-09T09:37:42.972Z</time>
      </trkpt>
      <trkpt lat="52.107888" lon="6.480930">
        <ele>59.623477</ele>
        <time>2026-05-09T09:37:44.973Z</time>
      </trkpt>
      <trkpt lat="52.107866" lon="6.480770">
        <ele>59.708349</ele>
        <time>2026-05-09T09:37:46.974Z</time>
      </trkpt>
      <trkpt lat="52.107846" lon="6.480611">
        <ele>59.792362</ele>
        <time>2026-05-09T09:37:48.982Z</time>
      </trkpt>
      <trkpt lat="52.107825" lon="6.480464">
        <ele>59.870487</ele>
        <time>2026-05-09T09:37:50.976Z</time>
      </trkpt>
      <trkpt lat="52.107806" lon="6.480305">
        <ele>59.954335</ele>
        <time>2026-05-09T09:37:52.974Z</time>
      </trkpt>
      <trkpt lat="52.107788" lon="6.480150">
        <ele>60.035991</ele>
        <time>2026-05-09T09:37:54.975Z</time>
      </trkpt>
      <trkpt lat="52.107767" lon="6.479995">
        <ele>60.083172</ele>
        <time>2026-05-09T09:37:56.973Z</time>
      </trkpt>
      <trkpt lat="52.107745" lon="6.479836">
        <ele>60.056605</ele>
        <time>2026-05-09T09:37:58.973Z</time>
      </trkpt>
      <trkpt lat="52.107722" lon="6.479672">
        <ele>60.029184</ele>
        <time>2026-05-09T09:38:00.972Z</time>
      </trkpt>
      <trkpt lat="52.107698" lon="6.479512">
        <ele>60.002337</ele>
        <time>2026-05-09T09:38:02.974Z</time>
      </trkpt>
      <trkpt lat="52.107672" lon="6.479360">
        <ele>59.976617</ele>
        <time>2026-05-09T09:38:04.974Z</time>
      </trkpt>
      <trkpt lat="52.107644" lon="6.479205">
        <ele>59.950281</ele>
        <time>2026-05-09T09:38:06.972Z</time>
      </trkpt>
      <trkpt lat="52.107614" lon="6.479050">
        <ele>59.923791</ele>
        <time>2026-05-09T09:38:08.969Z</time>
      </trkpt>
      <trkpt lat="52.107588" lon="6.478884">
        <ele>59.895866</ele>
        <time>2026-05-09T09:38:10.973Z</time>
      </trkpt>
      <trkpt lat="52.107566" lon="6.478720">
        <ele>59.868503</ele>
        <time>2026-05-09T09:38:12.974Z</time>
      </trkpt>
      <trkpt lat="52.107544" lon="6.478566">
        <ele>59.842730</ele>
        <time>2026-05-09T09:38:14.972Z</time>
      </trkpt>
      <trkpt lat="52.107521" lon="6.478405">
        <ele>59.815786</ele>
        <time>2026-05-09T09:38:16.978Z</time>
      </trkpt>
      <trkpt lat="52.107501" lon="6.478249">
        <ele>59.789809</ele>
        <time>2026-05-09T09:38:18.974Z</time>
      </trkpt>
      <trkpt lat="52.107483" lon="6.478090">
        <ele>59.763454</ele>
        <time>2026-05-09T09:38:20.967Z</time>
      </trkpt>
      <trkpt lat="52.107464" lon="6.477927">
        <ele>59.736410</ele>
        <time>2026-05-09T09:38:22.972Z</time>
      </trkpt>
      <trkpt lat="52.107447" lon="6.477769">
        <ele>59.710263</ele>
        <time>2026-05-09T09:38:24.978Z</time>
      </trkpt>
      <trkpt lat="52.107427" lon="6.477617">
        <ele>59.684924</ele>
        <time>2026-05-09T09:38:26.974Z</time>
      </trkpt>
      <trkpt lat="52.107406" lon="6.477461">
        <ele>59.658892</ele>
        <time>2026-05-09T09:38:28.973Z</time>
      </trkpt>
      <trkpt lat="52.107380" lon="6.477302">
        <ele>59.632071</ele>
        <time>2026-05-09T09:38:30.977Z</time>
      </trkpt>
      <trkpt lat="52.107321" lon="6.477172">
        <ele>59.606575</ele>
        <time>2026-05-09T09:38:32.973Z</time>
      </trkpt>
      <trkpt lat="52.107228" lon="6.477109">
        <ele>59.582535</ele>
        <time>2026-05-09T09:38:34.977Z</time>
      </trkpt>
      <trkpt lat="52.107122" lon="6.477117">
        <ele>59.557210</ele>
        <time>2026-05-09T09:38:36.977Z</time>
      </trkpt>
      <trkpt lat="52.107019" lon="6.477147">
        <ele>59.532237</ele>
        <time>2026-05-09T09:38:38.975Z</time>
      </trkpt>
      <trkpt lat="52.106913" lon="6.477172">
        <ele>59.506675</ele>
        <time>2026-05-09T09:38:40.977Z</time>
      </trkpt>
      <trkpt lat="52.106812" lon="6.477207">
        <ele>59.482030</ele>
        <time>2026-05-09T09:38:42.982Z</time>
      </trkpt>
      <trkpt lat="52.106707" lon="6.477233">
        <ele>59.456682</ele>
        <time>2026-05-09T09:38:44.972Z</time>
      </trkpt>
      <trkpt lat="52.106603" lon="6.477253">
        <ele>59.431689</ele>
        <time>2026-05-09T09:38:46.971Z</time>
      </trkpt>
      <trkpt lat="52.106501" lon="6.477269">
        <ele>59.407232</ele>
        <time>2026-05-09T09:38:48.973Z</time>
      </trkpt>
      <trkpt lat="52.106402" lon="6.477281">
        <ele>59.383539</ele>
        <time>2026-05-09T09:38:50.975Z</time>
      </trkpt>
      <trkpt lat="52.106303" lon="6.477263">
        <ele>59.359765</ele>
        <time>2026-05-09T09:38:52.975Z</time>
      </trkpt>
      <trkpt lat="52.106207" lon="6.477214">
        <ele>59.335754</ele>
        <time>2026-05-09T09:38:54.972Z</time>
      </trkpt>
      <trkpt lat="52.106108" lon="6.477154">
        <ele>59.310542</ele>
        <time>2026-05-09T09:38:56.979Z</time>
      </trkpt>
      <trkpt lat="52.106011" lon="6.477082">
        <ele>59.285100</ele>
        <time>2026-05-09T09:38:58.975Z</time>
      </trkpt>
      <trkpt lat="52.105921" lon="6.477013">
        <ele>59.261358</ele>
        <time>2026-05-09T09:39:00.972Z</time>
      </trkpt>
      <trkpt lat="52.105827" lon="6.476951">
        <ele>59.237153</ele>
        <time>2026-05-09T09:39:02.980Z</time>
      </trkpt>
      <trkpt lat="52.105737" lon="6.476887">
        <ele>59.213714</ele>
        <time>2026-05-09T09:39:04.987Z</time>
      </trkpt>
      <trkpt lat="52.105648" lon="6.476811">
        <ele>59.189728</ele>
        <time>2026-05-09T09:39:06.972Z</time>
      </trkpt>
      <trkpt lat="52.105556" lon="6.476745">
        <ele>59.175603</ele>
        <time>2026-05-09T09:39:08.973Z</time>
      </trkpt>
      <trkpt lat="52.105467" lon="6.476663">
        <ele>59.163752</ele>
        <time>2026-05-09T09:39:10.970Z</time>
      </trkpt>
      <trkpt lat="52.105395" lon="6.476548">
        <ele>59.152063</ele>
        <time>2026-05-09T09:39:12.979Z</time>
      </trkpt>
      <trkpt lat="52.105328" lon="6.476426">
        <ele>59.140414</ele>
        <time>2026-05-09T09:39:14.971Z</time>
      </trkpt>
      <trkpt lat="52.105265" lon="6.476299">
        <ele>59.128794</ele>
        <time>2026-05-09T09:39:16.971Z</time>
      </trkpt>
      <trkpt lat="52.105203" lon="6.476174">
        <ele>59.117358</ele>
        <time>2026-05-09T09:39:18.973Z</time>
      </trkpt>
      <trkpt lat="52.105137" lon="6.476054">
        <ele>59.105893</ele>
        <time>2026-05-09T09:39:20.977Z</time>
      </trkpt>
      <trkpt lat="52.105067" lon="6.475921">
        <ele>59.093425</ele>
        <time>2026-05-09T09:39:22.971Z</time>
      </trkpt>
      <trkpt lat="52.104998" lon="6.475792">
        <ele>59.081250</ele>
        <time>2026-05-09T09:39:24.972Z</time>
      </trkpt>
      <trkpt lat="52.104931" lon="6.475663">
        <ele>59.069225</ele>
        <time>2026-05-09T09:39:26.972Z</time>
      </trkpt>
      <trkpt lat="52.104867" lon="6.475511">
        <ele>59.056107</ele>
        <time>2026-05-09T09:39:28.972Z</time>
      </trkpt>
      <trkpt lat="52.104811" lon="6.475351">
        <ele>59.042999</ele>
        <time>2026-05-09T09:39:30.976Z</time>
      </trkpt>
      <trkpt lat="52.104767" lon="6.475173">
        <ele>59.029342</ele>
        <time>2026-05-09T09:39:32.973Z</time>
      </trkpt>
      <trkpt lat="52.104733" lon="6.474992">
        <ele>59.015869</ele>
        <time>2026-05-09T09:39:34.973Z</time>
      </trkpt>
      <trkpt lat="52.104701" lon="6.474806">
        <ele>59.002120</ele>
        <time>2026-05-09T09:39:36.978Z</time>
      </trkpt>
      <trkpt lat="52.104667" lon="6.474622">
        <ele>58.988443</ele>
        <time>2026-05-09T09:39:38.977Z</time>
      </trkpt>
      <trkpt lat="52.104618" lon="6.474443">
        <ele>58.980492</ele>
        <time>2026-05-09T09:39:40.975Z</time>
      </trkpt>
      <trkpt lat="52.104558" lon="6.474279">
        <ele>59.007978</ele>
        <time>2026-05-09T09:39:42.975Z</time>
      </trkpt>
      <trkpt lat="52.104500" lon="6.474126">
        <ele>59.033868</ele>
        <time>2026-05-09T09:39:44.970Z</time>
      </trkpt>
      <trkpt lat="52.104446" lon="6.473976">
        <ele>59.058904</ele>
        <time>2026-05-09T09:39:46.973Z</time>
      </trkpt>
      <trkpt lat="52.104386" lon="6.473829">
        <ele>59.084318</ele>
        <time>2026-05-09T09:39:48.978Z</time>
      </trkpt>
      <trkpt lat="52.104326" lon="6.473675">
        <ele>59.110578</ele>
        <time>2026-05-09T09:39:50.973Z</time>
      </trkpt>
      <trkpt lat="52.104266" lon="6.473514">
        <ele>59.137695</ele>
        <time>2026-05-09T09:39:52.974Z</time>
      </trkpt>
      <trkpt lat="52.104209" lon="6.473362">
        <ele>59.163339</ele>
        <time>2026-05-09T09:39:54.981Z</time>
      </trkpt>
      <trkpt lat="52.104136" lon="6.473215">
        <ele>59.190559</ele>
        <time>2026-05-09T09:39:56.974Z</time>
      </trkpt>
      <trkpt lat="52.104048" lon="6.473101">
        <ele>59.216924</ele>
        <time>2026-05-09T09:39:58.973Z</time>
      </trkpt>
      <trkpt lat="52.103941" lon="6.473030">
        <ele>59.244012</ele>
        <time>2026-05-09T09:40:00.971Z</time>
      </trkpt>
      <trkpt lat="52.103831" lon="6.472973">
        <ele>59.271074</ele>
        <time>2026-05-09T09:40:02.981Z</time>
      </trkpt>
      <trkpt lat="52.103726" lon="6.472914">
        <ele>59.297115</ele>
        <time>2026-05-09T09:40:04.979Z</time>
      </trkpt>
      <trkpt lat="52.103621" lon="6.472856">
        <ele>59.323108</ele>
        <time>2026-05-09T09:40:06.978Z</time>
      </trkpt>
      <trkpt lat="52.103511" lon="6.472790">
        <ele>59.350592</ele>
        <time>2026-05-09T09:40:08.970Z</time>
      </trkpt>
      <trkpt lat="52.103407" lon="6.472726">
        <ele>59.376657</ele>
        <time>2026-05-09T09:40:10.977Z</time>
      </trkpt>
      <trkpt lat="52.103301" lon="6.472655">
        <ele>59.399551</ele>
        <time>2026-05-09T09:40:12.979Z</time>
      </trkpt>
      <trkpt lat="52.103208" lon="6.472561">
        <ele>59.406268</ele>
        <time>2026-05-09T09:40:14.979Z</time>
      </trkpt>
      <trkpt lat="52.103142" lon="6.472420">
        <ele>59.412950</ele>
        <time>2026-05-09T09:40:16.978Z</time>
      </trkpt>
      <trkpt lat="52.103105" lon="6.472245">
        <ele>59.419925</ele>
        <time>2026-05-09T09:40:18.973Z</time>
      </trkpt>
      <trkpt lat="52.103078" lon="6.472069">
        <ele>59.426763</ele>
        <time>2026-05-09T09:40:20.973Z</time>
      </trkpt>
      <trkpt lat="52.103047" lon="6.471896">
        <ele>59.433555</ele>
        <time>2026-05-09T09:40:22.973Z</time>
      </trkpt>
      <trkpt lat="52.103016" lon="6.471726">
        <ele>59.440239</ele>
        <time>2026-05-09T09:40:24.971Z</time>
      </trkpt>
      <trkpt lat="52.102978" lon="6.471562">
        <ele>59.446845</ele>
        <time>2026-05-09T09:40:26.972Z</time>
      </trkpt>
      <trkpt lat="52.102938" lon="6.471399">
        <ele>59.453461</ele>
        <time>2026-05-09T09:40:28.978Z</time>
      </trkpt>
      <trkpt lat="52.102896" lon="6.471238">
        <ele>59.460054</ele>
        <time>2026-05-09T09:40:30.976Z</time>
      </trkpt>
      <trkpt lat="52.102852" lon="6.471080">
        <ele>59.466592</ele>
        <time>2026-05-09T09:40:32.977Z</time>
      </trkpt>
      <trkpt lat="52.102810" lon="6.470926">
        <ele>59.472943</ele>
        <time>2026-05-09T09:40:34.976Z</time>
      </trkpt>
      <trkpt lat="52.102769" lon="6.470771">
        <ele>59.479304</ele>
        <time>2026-05-09T09:40:36.972Z</time>
      </trkpt>
      <trkpt lat="52.102727" lon="6.470611">
        <ele>59.485862</ele>
        <time>2026-05-09T09:40:38.976Z</time>
      </trkpt>
      <trkpt lat="52.102683" lon="6.470446">
        <ele>59.492642</ele>
        <time>2026-05-09T09:40:40.974Z</time>
      </trkpt>
      <trkpt lat="52.102640" lon="6.470280">
        <ele>59.499432</ele>
        <time>2026-05-09T09:40:42.976Z</time>
      </trkpt>
      <trkpt lat="52.102598" lon="6.470097">
        <ele>59.506795</ele>
        <time>2026-05-09T09:40:44.974Z</time>
      </trkpt>
      <trkpt lat="52.102558" lon="6.469914">
        <ele>59.554258</ele>
        <time>2026-05-09T09:40:46.975Z</time>
      </trkpt>
      <trkpt lat="52.102515" lon="6.469739">
        <ele>59.612208</ele>
        <time>2026-05-09T09:40:48.974Z</time>
      </trkpt>
      <trkpt lat="52.102474" lon="6.469571">
        <ele>59.667789</ele>
        <time>2026-05-09T09:40:50.975Z</time>
      </trkpt>
      <trkpt lat="52.102433" lon="6.469404">
        <ele>59.723084</ele>
        <time>2026-05-09T09:40:52.970Z</time>
      </trkpt>
      <trkpt lat="52.102391" lon="6.469228">
        <ele>59.781137</ele>
        <time>2026-05-09T09:40:54.972Z</time>
      </trkpt>
      <trkpt lat="52.102349" lon="6.469054">
        <ele>59.838617</ele>
        <time>2026-05-09T09:40:56.976Z</time>
      </trkpt>
      <trkpt lat="52.102304" lon="6.468876">
        <ele>59.897799</ele>
        <time>2026-05-09T09:40:58.980Z</time>
      </trkpt>
      <trkpt lat="52.102265" lon="6.468698">
        <ele>59.955904</ele>
        <time>2026-05-09T09:41:00.978Z</time>
      </trkpt>
      <trkpt lat="52.102224" lon="6.468514">
        <ele>60.016084</ele>
        <time>2026-05-09T09:41:02.979Z</time>
      </trkpt>
      <trkpt lat="52.102193" lon="6.468332">
        <ele>60.074153</ele>
        <time>2026-05-09T09:41:04.972Z</time>
      </trkpt>
      <trkpt lat="52.102161" lon="6.468145">
        <ele>60.133838</ele>
        <time>2026-05-09T09:41:06.973Z</time>
      </trkpt>
      <trkpt lat="52.102131" lon="6.467957">
        <ele>60.193559</ele>
        <time>2026-05-09T09:41:08.972Z</time>
      </trkpt>
      <trkpt lat="52.102103" lon="6.467775">
        <ele>60.251245</ele>
        <time>2026-05-09T09:41:10.980Z</time>
      </trkpt>
      <trkpt lat="52.102072" lon="6.467589">
        <ele>60.310501</ele>
        <time>2026-05-09T09:41:12.978Z</time>
      </trkpt>
      <trkpt lat="52.102046" lon="6.467410">
        <ele>60.367054</ele>
        <time>2026-05-09T09:41:14.972Z</time>
      </trkpt>
      <trkpt lat="52.102022" lon="6.467233">
        <ele>60.395809</ele>
        <time>2026-05-09T09:41:16.978Z</time>
      </trkpt>
      <trkpt lat="52.101994" lon="6.467055">
        <ele>60.343290</ele>
        <time>2026-05-09T09:41:18.971Z</time>
      </trkpt>
      <trkpt lat="52.101965" lon="6.466883">
        <ele>60.292309</ele>
        <time>2026-05-09T09:41:20.977Z</time>
      </trkpt>
      <trkpt lat="52.101937" lon="6.466711">
        <ele>60.241449</ele>
        <time>2026-05-09T09:41:22.974Z</time>
      </trkpt>
      <trkpt lat="52.101909" lon="6.466542">
        <ele>60.191418</ele>
        <time>2026-05-09T09:41:24.977Z</time>
      </trkpt>
      <trkpt lat="52.101880" lon="6.466369">
        <ele>60.140161</ele>
        <time>2026-05-09T09:41:26.975Z</time>
      </trkpt>
      <trkpt lat="52.101852" lon="6.466194">
        <ele>60.088472</ele>
        <time>2026-05-09T09:41:28.977Z</time>
      </trkpt>
      <trkpt lat="52.101823" lon="6.466023">
        <ele>60.037767</ele>
        <time>2026-05-09T09:41:30.975Z</time>
      </trkpt>
      <trkpt lat="52.101794" lon="6.465843">
        <ele>59.984578</ele>
        <time>2026-05-09T09:41:32.970Z</time>
      </trkpt>
      <trkpt lat="52.101763" lon="6.465660">
        <ele>59.930318</ele>
        <time>2026-05-09T09:41:34.973Z</time>
      </trkpt>
      <trkpt lat="52.101736" lon="6.465473">
        <ele>59.875411</ele>
        <time>2026-05-09T09:41:36.976Z</time>
      </trkpt>
      <trkpt lat="52.101711" lon="6.465289">
        <ele>59.821548</ele>
        <time>2026-05-09T09:41:38.973Z</time>
      </trkpt>
      <trkpt lat="52.101684" lon="6.465120">
        <ele>59.771635</ele>
        <time>2026-05-09T09:41:40.969Z</time>
      </trkpt>
      <trkpt lat="52.101658" lon="6.464949">
        <ele>59.721283</ele>
        <time>2026-05-09T09:41:42.975Z</time>
      </trkpt>
      <trkpt lat="52.101639" lon="6.464776">
        <ele>59.671051</ele>
        <time>2026-05-09T09:41:44.973Z</time>
      </trkpt>
      <trkpt lat="52.101613" lon="6.464612">
        <ele>59.622638</ele>
        <time>2026-05-09T09:41:46.978Z</time>
      </trkpt>
      <trkpt lat="52.101494" lon="6.464565">
        <ele>59.572836</ele>
        <time>2026-05-09T09:41:49.972Z</time>
      </trkpt>
      <trkpt lat="52.101409" lon="6.464648">
        <ele>59.580123</ele>
        <time>2026-05-09T09:41:51.972Z</time>
      </trkpt>
      <trkpt lat="52.101311" lon="6.464716">
        <ele>59.587955</ele>
        <time>2026-05-09T09:41:53.982Z</time>
      </trkpt>
      <trkpt lat="52.101216" lon="6.464779">
        <ele>59.595497</ele>
        <time>2026-05-09T09:41:55.979Z</time>
      </trkpt>
      <trkpt lat="52.101117" lon="6.464842">
        <ele>59.603312</ele>
        <time>2026-05-09T09:41:57.974Z</time>
      </trkpt>
      <trkpt lat="52.101020" lon="6.464897">
        <ele>59.610864</ele>
        <time>2026-05-09T09:41:59.975Z</time>
      </trkpt>
      <trkpt lat="52.100919" lon="6.464957">
        <ele>59.618769</ele>
        <time>2026-05-09T09:42:01.975Z</time>
      </trkpt>
      <trkpt lat="52.100819" lon="6.465021">
        <ele>59.626669</ele>
        <time>2026-05-09T09:42:03.974Z</time>
      </trkpt>
      <trkpt lat="52.100716" lon="6.465084">
        <ele>59.634759</ele>
        <time>2026-05-09T09:42:05.974Z</time>
      </trkpt>
      <trkpt lat="52.100614" lon="6.465144">
        <ele>59.642733</ele>
        <time>2026-05-09T09:42:07.972Z</time>
      </trkpt>
      <trkpt lat="52.100516" lon="6.465199">
        <ele>59.650354</ele>
        <time>2026-05-09T09:42:09.972Z</time>
      </trkpt>
      <trkpt lat="52.100414" lon="6.465251">
        <ele>59.658213</ele>
        <time>2026-05-09T09:42:11.972Z</time>
      </trkpt>
      <trkpt lat="52.100312" lon="6.465302">
        <ele>59.666058</ele>
        <time>2026-05-09T09:42:13.972Z</time>
      </trkpt>
      <trkpt lat="52.100211" lon="6.465344">
        <ele>59.673722</ele>
        <time>2026-05-09T09:42:15.977Z</time>
      </trkpt>
      <trkpt lat="52.100106" lon="6.465386">
        <ele>59.681671</ele>
        <time>2026-05-09T09:42:17.971Z</time>
      </trkpt>
      <trkpt lat="52.099999" lon="6.465423">
        <ele>59.689714</ele>
        <time>2026-05-09T09:42:19.977Z</time>
      </trkpt>
      <trkpt lat="52.099886" lon="6.465459">
        <ele>59.698180</ele>
        <time>2026-05-09T09:42:21.969Z</time>
      </trkpt>
      <trkpt lat="52.099778" lon="6.465486">
        <ele>59.703419</ele>
        <time>2026-05-09T09:42:23.973Z</time>
      </trkpt>
      <trkpt lat="52.099662" lon="6.465531">
        <ele>59.700605</ele>
        <time>2026-05-09T09:42:25.971Z</time>
      </trkpt>
      <trkpt lat="52.099548" lon="6.465575">
        <ele>59.697840</ele>
        <time>2026-05-09T09:42:27.973Z</time>
      </trkpt>
      <trkpt lat="52.099437" lon="6.465608">
        <ele>59.695178</ele>
        <time>2026-05-09T09:42:29.976Z</time>
      </trkpt>
      <trkpt lat="52.099325" lon="6.465645">
        <ele>59.692481</ele>
        <time>2026-05-09T09:42:31.971Z</time>
      </trkpt>
      <trkpt lat="52.099212" lon="6.465684">
        <ele>59.689755</ele>
        <time>2026-05-09T09:42:33.971Z</time>
      </trkpt>
      <trkpt lat="52.099097" lon="6.465720">
        <ele>59.686992</ele>
        <time>2026-05-09T09:42:35.975Z</time>
      </trkpt>
      <trkpt lat="52.098988" lon="6.465756">
        <ele>59.684367</ele>
        <time>2026-05-09T09:42:37.975Z</time>
      </trkpt>
      <trkpt lat="52.098880" lon="6.465791">
        <ele>59.681769</ele>
        <time>2026-05-09T09:42:39.969Z</time>
      </trkpt>
      <trkpt lat="52.098774" lon="6.465827">
        <ele>59.679214</ele>
        <time>2026-05-09T09:42:41.977Z</time>
      </trkpt>
      <trkpt lat="52.098667" lon="6.465873">
        <ele>59.676603</ele>
        <time>2026-05-09T09:42:43.974Z</time>
      </trkpt>
      <trkpt lat="52.098567" lon="6.465905">
        <ele>59.674198</ele>
        <time>2026-05-09T09:42:45.973Z</time>
      </trkpt>
      <trkpt lat="52.098471" lon="6.465915">
        <ele>59.671928</ele>
        <time>2026-05-09T09:42:47.973Z</time>
      </trkpt>
      <trkpt lat="52.098419" lon="6.465787">
        <ele>59.669703</ele>
        <time>2026-05-09T09:42:49.980Z</time>
      </trkpt>
      <trkpt lat="52.098414" lon="6.465626">
        <ele>59.667367</ele>
        <time>2026-05-09T09:42:51.976Z</time>
      </trkpt>
      <trkpt lat="52.098410" lon="6.465471">
        <ele>59.665118</ele>
        <time>2026-05-09T09:42:53.974Z</time>
      </trkpt>
      <trkpt lat="52.098404" lon="6.465311">
        <ele>59.662794</ele>
        <time>2026-05-09T09:42:55.972Z</time>
      </trkpt>
      <trkpt lat="52.098396" lon="6.465151">
        <ele>59.663017</ele>
        <time>2026-05-09T09:42:57.972Z</time>
      </trkpt>
      <trkpt lat="52.098391" lon="6.464990">
        <ele>59.665694</ele>
        <time>2026-05-09T09:42:59.971Z</time>
      </trkpt>
      <trkpt lat="52.098381" lon="6.464831">
        <ele>59.668348</ele>
        <time>2026-05-09T09:43:01.980Z</time>
      </trkpt>
      <trkpt lat="52.098375" lon="6.464681">
        <ele>59.670844</ele>
        <time>2026-05-09T09:43:03.972Z</time>
      </trkpt>
      <trkpt lat="52.098371" lon="6.464530">
        <ele>59.673354</ele>
        <time>2026-05-09T09:43:05.971Z</time>
      </trkpt>
      <trkpt lat="52.098365" lon="6.464377">
        <ele>59.675900</ele>
        <time>2026-05-09T09:43:07.972Z</time>
      </trkpt>
      <trkpt lat="52.098358" lon="6.464226">
        <ele>59.678415</ele>
        <time>2026-05-09T09:43:09.982Z</time>
      </trkpt>
      <trkpt lat="52.098352" lon="6.464078">
        <ele>59.680878</ele>
        <time>2026-05-09T09:43:11.973Z</time>
      </trkpt>
      <trkpt lat="52.098344" lon="6.463925">
        <ele>59.683427</ele>
        <time>2026-05-09T09:43:13.969Z</time>
      </trkpt>
      <trkpt lat="52.098339" lon="6.463769">
        <ele>59.686021</ele>
        <time>2026-05-09T09:43:15.973Z</time>
      </trkpt>
      <trkpt lat="52.098333" lon="6.463616">
        <ele>59.688567</ele>
        <time>2026-05-09T09:43:17.973Z</time>
      </trkpt>
      <trkpt lat="52.098326" lon="6.463463">
        <ele>59.691115</ele>
        <time>2026-05-09T09:43:19.977Z</time>
      </trkpt>
      <trkpt lat="52.098320" lon="6.463308">
        <ele>59.693694</ele>
        <time>2026-05-09T09:43:21.971Z</time>
      </trkpt>
      <trkpt lat="52.098311" lon="6.463156">
        <ele>59.696230</ele>
        <time>2026-05-09T09:43:23.975Z</time>
      </trkpt>
      <trkpt lat="52.098307" lon="6.463003">
        <ele>59.698773</ele>
        <time>2026-05-09T09:43:25.983Z</time>
      </trkpt>
      <trkpt lat="52.098298" lon="6.462849">
        <ele>59.701341</ele>
        <time>2026-05-09T09:43:27.972Z</time>
      </trkpt>
      <trkpt lat="52.098293" lon="6.462694">
        <ele>59.703919</ele>
        <time>2026-05-09T09:43:29.976Z</time>
      </trkpt>
      <trkpt lat="52.098279" lon="6.462545">
        <ele>59.706422</ele>
        <time>2026-05-09T09:43:31.972Z</time>
      </trkpt>
      <trkpt lat="52.098247" lon="6.462406">
        <ele>59.708887</ele>
        <time>2026-05-09T09:43:33.975Z</time>
      </trkpt>
      <trkpt lat="52.098161" lon="6.462236">
        <ele>59.657436</ele>
        <time>2026-05-09T09:43:36.987Z</time>
      </trkpt>
      <trkpt lat="52.098088" lon="6.462138">
        <ele>59.597849</ele>
        <time>2026-05-09T09:43:38.983Z</time>
      </trkpt>
      <trkpt lat="52.098014" lon="6.462038">
        <ele>59.537283</ele>
        <time>2026-05-09T09:43:40.981Z</time>
      </trkpt>
      <trkpt lat="52.097936" lon="6.461953">
        <ele>59.478172</ele>
        <time>2026-05-09T09:43:42.974Z</time>
      </trkpt>
      <trkpt lat="52.097853" lon="6.461874">
        <ele>59.417625</ele>
        <time>2026-05-09T09:43:44.980Z</time>
      </trkpt>
      <trkpt lat="52.097770" lon="6.461792">
        <ele>59.356483</ele>
        <time>2026-05-09T09:43:46.970Z</time>
      </trkpt>
      <trkpt lat="52.097689" lon="6.461714">
        <ele>59.297217</ele>
        <time>2026-05-09T09:43:48.983Z</time>
      </trkpt>
      <trkpt lat="52.097604" lon="6.461632">
        <ele>59.234995</ele>
        <time>2026-05-09T09:43:50.974Z</time>
      </trkpt>
      <trkpt lat="52.097517" lon="6.461549">
        <ele>59.171491</ele>
        <time>2026-05-09T09:43:52.974Z</time>
      </trkpt>
      <trkpt lat="52.097434" lon="6.461469">
        <ele>59.110747</ele>
        <time>2026-05-09T09:43:54.980Z</time>
      </trkpt>
      <trkpt lat="52.097352" lon="6.461395">
        <ele>59.051704</ele>
        <time>2026-05-09T09:43:56.976Z</time>
      </trkpt>
      <trkpt lat="52.097242" lon="6.461285">
        <ele>58.970405</ele>
        <time>2026-05-09T09:43:59.973Z</time>
      </trkpt>
      <trkpt lat="52.097124" lon="6.461180">
        <ele>58.885717</ele>
        <time>2026-05-09T09:44:02.972Z</time>
      </trkpt>
      <trkpt lat="52.097005" lon="6.461072">
        <ele>58.799918</ele>
        <time>2026-05-09T09:44:05.972Z</time>
      </trkpt>
      <trkpt lat="52.096923" lon="6.460993">
        <ele>58.739912</ele>
        <time>2026-05-09T09:44:07.972Z</time>
      </trkpt>
      <trkpt lat="52.096844" lon="6.460917">
        <ele>58.682124</ele>
        <time>2026-05-09T09:44:09.971Z</time>
      </trkpt>
      <trkpt lat="52.096761" lon="6.460842">
        <ele>58.622342</ele>
        <time>2026-05-09T09:44:11.972Z</time>
      </trkpt>
      <trkpt lat="52.096679" lon="6.460775">
        <ele>58.592634</ele>
        <time>2026-05-09T09:44:13.976Z</time>
      </trkpt>
      <trkpt lat="52.096599" lon="6.460698">
        <ele>58.660175</ele>
        <time>2026-05-09T09:44:15.968Z</time>
      </trkpt>
      <trkpt lat="52.096520" lon="6.460623">
        <ele>58.726637</ele>
        <time>2026-05-09T09:44:17.973Z</time>
      </trkpt>
      <trkpt lat="52.096441" lon="6.460547">
        <ele>58.793325</ele>
        <time>2026-05-09T09:44:19.971Z</time>
      </trkpt>
      <trkpt lat="52.096359" lon="6.460473">
        <ele>58.861462</ele>
        <time>2026-05-09T09:44:21.974Z</time>
      </trkpt>
      <trkpt lat="52.096245" lon="6.460372">
        <ele>58.955785</ele>
        <time>2026-05-09T09:44:24.970Z</time>
      </trkpt>
      <trkpt lat="52.096165" lon="6.460297">
        <ele>59.022876</ele>
        <time>2026-05-09T09:44:26.982Z</time>
      </trkpt>
      <trkpt lat="52.096084" lon="6.460221">
        <ele>59.090820</ele>
        <time>2026-05-09T09:44:28.975Z</time>
      </trkpt>
      <trkpt lat="52.096002" lon="6.460140">
        <ele>59.160526</ele>
        <time>2026-05-09T09:44:30.973Z</time>
      </trkpt>
      <trkpt lat="52.095919" lon="6.460063">
        <ele>59.229953</ele>
        <time>2026-05-09T09:44:32.978Z</time>
      </trkpt>
      <trkpt lat="52.095835" lon="6.459991">
        <ele>59.298944</ele>
        <time>2026-05-09T09:44:34.970Z</time>
      </trkpt>
      <trkpt lat="52.095724" lon="6.459887">
        <ele>59.392019</ele>
        <time>2026-05-09T09:44:37.967Z</time>
      </trkpt>
      <trkpt lat="52.095619" lon="6.459800">
        <ele>59.477643</ele>
        <time>2026-05-09T09:44:40.974Z</time>
      </trkpt>
      <trkpt lat="52.095489" lon="6.459714">
        <ele>59.579621</ele>
        <time>2026-05-09T09:44:43.980Z</time>
      </trkpt>
      <trkpt lat="52.095404" lon="6.459651">
        <ele>59.647495</ele>
        <time>2026-05-09T09:44:45.974Z</time>
      </trkpt>
      <trkpt lat="52.095310" lon="6.459590">
        <ele>59.721036</ele>
        <time>2026-05-09T09:44:47.975Z</time>
      </trkpt>
      <trkpt lat="52.095212" lon="6.459532">
        <ele>59.796817</ele>
        <time>2026-05-09T09:44:49.973Z</time>
      </trkpt>
      <trkpt lat="52.095114" lon="6.459482">
        <ele>59.871452</ele>
        <time>2026-05-09T09:44:51.974Z</time>
      </trkpt>
      <trkpt lat="52.095021" lon="6.459435">
        <ele>59.882709</ele>
        <time>2026-05-09T09:44:53.980Z</time>
      </trkpt>
      <trkpt lat="52.094929" lon="6.459398">
        <ele>59.880307</ele>
        <time>2026-05-09T09:44:55.979Z</time>
      </trkpt>
      <trkpt lat="52.094831" lon="6.459371">
        <ele>59.877787</ele>
        <time>2026-05-09T09:44:57.979Z</time>
      </trkpt>
      <trkpt lat="52.094721" lon="6.459342">
        <ele>59.874963</ele>
        <time>2026-05-09T09:44:59.973Z</time>
      </trkpt>
      <trkpt lat="52.094612" lon="6.459304">
        <ele>59.872137</ele>
        <time>2026-05-09T09:45:01.974Z</time>
      </trkpt>
      <trkpt lat="52.094502" lon="6.459277">
        <ele>59.869317</ele>
        <time>2026-05-09T09:45:03.977Z</time>
      </trkpt>
      <trkpt lat="52.094392" lon="6.459250">
        <ele>59.866497</ele>
        <time>2026-05-09T09:45:05.977Z</time>
      </trkpt>
      <trkpt lat="52.094283" lon="6.459216">
        <ele>59.863684</ele>
        <time>2026-05-09T09:45:07.971Z</time>
      </trkpt>
      <trkpt lat="52.094174" lon="6.459176">
        <ele>59.860851</ele>
        <time>2026-05-09T09:45:09.978Z</time>
      </trkpt>
      <trkpt lat="52.094066" lon="6.459145">
        <ele>59.858071</ele>
        <time>2026-05-09T09:45:11.977Z</time>
      </trkpt>
      <trkpt lat="52.093960" lon="6.459117">
        <ele>59.855349</ele>
        <time>2026-05-09T09:45:13.971Z</time>
      </trkpt>
      <trkpt lat="52.093858" lon="6.459081">
        <ele>59.852703</ele>
        <time>2026-05-09T09:45:15.972Z</time>
      </trkpt>
      <trkpt lat="52.093753" lon="6.459049">
        <ele>59.849995</ele>
        <time>2026-05-09T09:45:17.971Z</time>
      </trkpt>
      <trkpt lat="52.093649" lon="6.459015">
        <ele>59.847306</ele>
        <time>2026-05-09T09:45:19.985Z</time>
      </trkpt>
      <trkpt lat="52.093545" lon="6.458988">
        <ele>59.844637</ele>
        <time>2026-05-09T09:45:21.968Z</time>
      </trkpt>
      <trkpt lat="52.093444" lon="6.458959">
        <ele>59.842037</ele>
        <time>2026-05-09T09:45:23.985Z</time>
      </trkpt>
      <trkpt lat="52.093344" lon="6.458928">
        <ele>59.839456</ele>
        <time>2026-05-09T09:45:25.991Z</time>
      </trkpt>
      <trkpt lat="52.093244" lon="6.458903">
        <ele>59.903958</ele>
        <time>2026-05-09T09:45:27.971Z</time>
      </trkpt>
      <trkpt lat="52.093144" lon="6.458881">
        <ele>59.978368</ele>
        <time>2026-05-09T09:45:29.987Z</time>
      </trkpt>
      <trkpt lat="52.093039" lon="6.458906">
        <ele>60.056618</ele>
        <time>2026-05-09T09:45:31.981Z</time>
      </trkpt>
      <trkpt lat="52.092943" lon="6.458969">
        <ele>60.132944</ele>
        <time>2026-05-09T09:45:33.978Z</time>
      </trkpt>
      <trkpt lat="52.092847" lon="6.459032">
        <ele>60.209271</ele>
        <time>2026-05-09T09:45:35.976Z</time>
      </trkpt>
      <trkpt lat="52.092751" lon="6.459092">
        <ele>60.285100</ele>
        <time>2026-05-09T09:45:37.978Z</time>
      </trkpt>
      <trkpt lat="52.092650" lon="6.459146">
        <ele>60.363492</ele>
        <time>2026-05-09T09:45:39.975Z</time>
      </trkpt>
      <trkpt lat="52.092545" lon="6.459158">
        <ele>60.441108</ele>
        <time>2026-05-09T09:45:41.976Z</time>
      </trkpt>
      <trkpt lat="52.092437" lon="6.459161">
        <ele>60.520758</ele>
        <time>2026-05-09T09:45:43.981Z</time>
      </trkpt>
      <trkpt lat="52.092330" lon="6.459165">
        <ele>60.599680</ele>
        <time>2026-05-09T09:45:45.969Z</time>
      </trkpt>
      <trkpt lat="52.092225" lon="6.459177">
        <ele>60.677296</ele>
        <time>2026-05-09T09:45:47.973Z</time>
      </trkpt>
      <trkpt lat="52.092113" lon="6.459190">
        <ele>60.760094</ele>
        <time>2026-05-09T09:45:49.976Z</time>
      </trkpt>
      <trkpt lat="52.092001" lon="6.459219">
        <ele>60.843720</ele>
        <time>2026-05-09T09:45:51.974Z</time>
      </trkpt>
      <trkpt lat="52.091887" lon="6.459239">
        <ele>60.928270</ele>
        <time>2026-05-09T09:45:53.973Z</time>
      </trkpt>
      <trkpt lat="52.091772" lon="6.459235">
        <ele>61.013089</ele>
        <time>2026-05-09T09:45:55.974Z</time>
      </trkpt>
      <trkpt lat="52.091662" lon="6.459266">
        <ele>61.095409</ele>
        <time>2026-05-09T09:45:57.974Z</time>
      </trkpt>
      <trkpt lat="52.091556" lon="6.459299">
        <ele>61.157927</ele>
        <time>2026-05-09T09:45:59.973Z</time>
      </trkpt>
      <trkpt lat="52.091453" lon="6.459335">
        <ele>61.097059</ele>
        <time>2026-05-09T09:46:01.973Z</time>
      </trkpt>
      <trkpt lat="52.091352" lon="6.459378">
        <ele>61.036739</ele>
        <time>2026-05-09T09:46:03.980Z</time>
      </trkpt>
      <trkpt lat="52.091250" lon="6.459424">
        <ele>60.975584</ele>
        <time>2026-05-09T09:46:05.978Z</time>
      </trkpt>
      <trkpt lat="52.091148" lon="6.459472">
        <ele>60.914236</ele>
        <time>2026-05-09T09:46:07.974Z</time>
      </trkpt>
      <trkpt lat="52.091052" lon="6.459526">
        <ele>60.855550</ele>
        <time>2026-05-09T09:46:09.971Z</time>
      </trkpt>
      <trkpt lat="52.090959" lon="6.459576">
        <ele>60.798960</ele>
        <time>2026-05-09T09:46:11.974Z</time>
      </trkpt>
      <trkpt lat="52.090871" lon="6.459539">
        <ele>60.746445</ele>
        <time>2026-05-09T09:46:13.971Z</time>
      </trkpt>
      <trkpt lat="52.090811" lon="6.459421">
        <ele>60.692071</ele>
        <time>2026-05-09T09:46:15.973Z</time>
      </trkpt>
      <trkpt lat="52.090813" lon="6.459264">
        <ele>60.636324</ele>
        <time>2026-05-09T09:46:17.973Z</time>
      </trkpt>
      <trkpt lat="52.090848" lon="6.459101">
        <ele>60.575028</ele>
        <time>2026-05-09T09:46:19.969Z</time>
      </trkpt>
      <trkpt lat="52.090869" lon="6.458925">
        <ele>60.511381</ele>
        <time>2026-05-09T09:46:21.976Z</time>
      </trkpt>
      <trkpt lat="52.090890" lon="6.458753">
        <ele>60.449127</ele>
        <time>2026-05-09T09:46:23.972Z</time>
      </trkpt>
      <trkpt lat="52.090896" lon="6.458582">
        <ele>60.388324</ele>
        <time>2026-05-09T09:46:25.973Z</time>
      </trkpt>
      <trkpt lat="52.090900" lon="6.458417">
        <ele>60.329704</ele>
        <time>2026-05-09T09:46:27.972Z</time>
      </trkpt>
      <trkpt lat="52.090906" lon="6.458249">
        <ele>60.269963</ele>
        <time>2026-05-09T09:46:29.969Z</time>
      </trkpt>
      <trkpt lat="52.090914" lon="6.458091">
        <ele>60.213684</ele>
        <time>2026-05-09T09:46:31.973Z</time>
      </trkpt>
      <trkpt lat="52.090918" lon="6.457933">
        <ele>60.157547</ele>
        <time>2026-05-09T09:46:33.971Z</time>
      </trkpt>
      <trkpt lat="52.090920" lon="6.457776">
        <ele>60.108577</ele>
        <time>2026-05-09T09:46:35.975Z</time>
      </trkpt>
      <trkpt lat="52.090916" lon="6.457616">
        <ele>60.067526</ele>
        <time>2026-05-09T09:46:37.973Z</time>
      </trkpt>
      <trkpt lat="52.090915" lon="6.457451">
        <ele>60.025224</ele>
        <time>2026-05-09T09:46:39.975Z</time>
      </trkpt>
      <trkpt lat="52.090920" lon="6.457283">
        <ele>59.982105</ele>
        <time>2026-05-09T09:46:41.975Z</time>
      </trkpt>
      <trkpt lat="52.090909" lon="6.457115">
        <ele>59.938793</ele>
        <time>2026-05-09T09:46:43.975Z</time>
      </trkpt>
      <trkpt lat="52.090878" lon="6.456966">
        <ele>59.898465</ele>
        <time>2026-05-09T09:46:45.969Z</time>
      </trkpt>
      <trkpt lat="52.090834" lon="6.456823">
        <ele>59.857465</ele>
        <time>2026-05-09T09:46:47.972Z</time>
      </trkpt>
      <trkpt lat="52.090769" lon="6.456697">
        <ele>59.815287</ele>
        <time>2026-05-09T09:46:49.979Z</time>
      </trkpt>
      <trkpt lat="52.090687" lon="6.456598">
        <ele>59.772688</ele>
        <time>2026-05-09T09:46:51.980Z</time>
      </trkpt>
      <trkpt lat="52.090598" lon="6.456498">
        <ele>59.727563</ele>
        <time>2026-05-09T09:46:53.986Z</time>
      </trkpt>
      <trkpt lat="52.090503" lon="6.456402">
        <ele>59.680906</ele>
        <time>2026-05-09T09:46:55.976Z</time>
      </trkpt>
      <trkpt lat="52.090409" lon="6.456303">
        <ele>59.634189</ele>
        <time>2026-05-09T09:46:57.972Z</time>
      </trkpt>
      <trkpt lat="52.090320" lon="6.456181">
        <ele>59.585638</ele>
        <time>2026-05-09T09:46:59.977Z</time>
      </trkpt>
      <trkpt lat="52.090242" lon="6.456055">
        <ele>59.539784</ele>
        <time>2026-05-09T09:47:01.977Z</time>
      </trkpt>
      <trkpt lat="52.090175" lon="6.455933">
        <ele>59.497835</ele>
        <time>2026-05-09T09:47:03.980Z</time>
      </trkpt>
      <trkpt lat="52.090080" lon="6.455797">
        <ele>59.445045</ele>
        <time>2026-05-09T09:47:06.984Z</time>
      </trkpt>
      <trkpt lat="52.090016" lon="6.455656">
        <ele>59.400103</ele>
        <time>2026-05-09T09:47:09.985Z</time>
      </trkpt>
      <trkpt lat="52.089949" lon="6.455550">
        <ele>59.400917</ele>
        <time>2026-05-09T09:47:13.977Z</time>
      </trkpt>
      <trkpt lat="52.089883" lon="6.455422">
        <ele>59.474867</ele>
        <time>2026-05-09T09:47:18.976Z</time>
      </trkpt>
      <trkpt lat="52.089784" lon="6.455218">
        <ele>59.589911</ele>
        <time>2026-05-09T09:47:43.971Z</time>
      </trkpt>
      <trkpt lat="52.089737" lon="6.455051">
        <ele>59.671202</ele>
        <time>2026-05-09T09:47:48.973Z</time>
      </trkpt>
      <trkpt lat="52.089681" lon="6.454931">
        <ele>59.737889</ele>
        <time>2026-05-09T09:47:51.974Z</time>
      </trkpt>
      <trkpt lat="52.089627" lon="6.454793">
        <ele>59.810295</ele>
        <time>2026-05-09T09:47:54.974Z</time>
      </trkpt>
      <trkpt lat="52.089560" lon="6.454685">
        <ele>59.878216</ele>
        <time>2026-05-09T09:47:57.969Z</time>
      </trkpt>
      <trkpt lat="52.089492" lon="6.454588">
        <ele>59.943344</ele>
        <time>2026-05-09T09:48:00.969Z</time>
      </trkpt>
      <trkpt lat="52.089412" lon="6.454464">
        <ele>60.022916</ele>
        <time>2026-05-09T09:48:04.986Z</time>
      </trkpt>
      <trkpt lat="52.089336" lon="6.454366">
        <ele>60.092755</ele>
        <time>2026-05-09T09:48:08.989Z</time>
      </trkpt>
      <trkpt lat="52.089295" lon="6.454218">
        <ele>60.164603</ele>
        <time>2026-05-09T09:48:14.977Z</time>
      </trkpt>
      <trkpt lat="52.089188" lon="6.454188">
        <ele>60.242807</ele>
        <time>2026-05-09T09:48:19.976Z</time>
      </trkpt>
      <trkpt lat="52.089114" lon="6.454095">
        <ele>60.310148</ele>
        <time>2026-05-09T09:48:23.976Z</time>
      </trkpt>
      <trkpt lat="52.089175" lon="6.453983">
        <ele>60.376384</ele>
        <time>2026-05-09T09:48:34.981Z</time>
      </trkpt>
      <trkpt lat="52.089280" lon="6.453926">
        <ele>60.456108</ele>
        <time>2026-05-09T09:48:39.975Z</time>
      </trkpt>
      <trkpt lat="52.089180" lon="6.453994">
        <ele>60.534169</ele>
        <time>2026-05-09T09:49:28.974Z</time>
      </trkpt>
      <trkpt lat="52.089064" lon="6.454002">
        <ele>60.617795</ele>
        <time>2026-05-09T09:49:32.970Z</time>
      </trkpt>
      <trkpt lat="52.088974" lon="6.453890">
        <ele>60.655815</ele>
        <time>2026-05-09T09:49:36.968Z</time>
      </trkpt>
      <trkpt lat="52.088883" lon="6.453897">
        <ele>60.619938</ele>
        <time>2026-05-09T09:50:09.973Z</time>
      </trkpt>
      <trkpt lat="52.088971" lon="6.453738">
        <ele>60.568158</ele>
        <time>2026-05-09T09:50:57.973Z</time>
      </trkpt>
      <trkpt lat="52.089057" lon="6.453651">
        <ele>60.528281</ele>
        <time>2026-05-09T09:51:02.975Z</time>
      </trkpt>
      <trkpt lat="52.089096" lon="6.453513">
        <ele>60.491526</ele>
        <time>2026-05-09T09:51:08.977Z</time>
      </trkpt>
      <trkpt lat="52.089076" lon="6.453359">
        <ele>60.453440</ele>
        <time>2026-05-09T09:51:14.976Z</time>
      </trkpt>
      <trkpt lat="52.089081" lon="6.453525">
        <ele>60.413224</ele>
        <time>2026-05-09T09:55:02.977Z</time>
      </trkpt>
      <trkpt lat="52.089108" lon="6.453375">
        <ele>60.375403</ele>
        <time>2026-05-09T09:56:03.978Z</time>
      </trkpt>
      <trkpt lat="52.089176" lon="6.453274">
        <ele>60.339149</ele>
        <time>2026-05-09T09:56:16.977Z</time>
      </trkpt>
      <trkpt lat="52.089051" lon="6.453348">
        <ele>60.286767</ele>
        <time>2026-05-09T09:57:28.984Z</time>
      </trkpt>
      <trkpt lat="52.088983" lon="6.453458">
        <ele>60.249011</ele>
        <time>2026-05-09T09:58:13.984Z</time>
      </trkpt>
      <trkpt lat="52.088886" lon="6.453512">
        <ele>60.208638</ele>
        <time>2026-05-09T09:58:18.972Z</time>
      </trkpt>
      <trkpt lat="52.088793" lon="6.453516">
        <ele>60.172001</ele>
        <time>2026-05-09T09:58:23.982Z</time>
      </trkpt>
      <trkpt lat="52.088754" lon="6.453340">
        <ele>60.126729</ele>
        <time>2026-05-09T09:58:27.989Z</time>
      </trkpt>
      <trkpt lat="52.088719" lon="6.453174">
        <ele>60.084263</ele>
        <time>2026-05-09T09:58:30.981Z</time>
      </trkpt>
      <trkpt lat="52.088680" lon="6.453001">
        <ele>60.039673</ele>
        <time>2026-05-09T09:58:33.970Z</time>
      </trkpt>
      <trkpt lat="52.088645" lon="6.452832">
        <ele>59.996519</ele>
        <time>2026-05-09T09:58:36.981Z</time>
      </trkpt>
      <trkpt lat="52.088606" lon="6.452640">
        <ele>59.965052</ele>
        <time>2026-05-09T09:58:39.974Z</time>
      </trkpt>
      <trkpt lat="52.088563" lon="6.452443">
        <ele>59.972168</ele>
        <time>2026-05-09T09:58:42.979Z</time>
      </trkpt>
      <trkpt lat="52.088525" lon="6.452245">
        <ele>59.979229</ele>
        <time>2026-05-09T09:58:45.972Z</time>
      </trkpt>
      <trkpt lat="52.088482" lon="6.452038">
        <ele>59.986667</ele>
        <time>2026-05-09T09:58:48.982Z</time>
      </trkpt>
      <trkpt lat="52.088444" lon="6.451848">
        <ele>59.993469</ele>
        <time>2026-05-09T09:58:51.981Z</time>
      </trkpt>
      <trkpt lat="52.088414" lon="6.451670">
        <ele>59.999752</ele>
        <time>2026-05-09T09:58:54.987Z</time>
      </trkpt>
      <trkpt lat="52.088390" lon="6.451507">
        <ele>60.005457</ele>
        <time>2026-05-09T09:58:57.977Z</time>
      </trkpt>
      <trkpt lat="52.088361" lon="6.451348">
        <ele>60.011103</ele>
        <time>2026-05-09T09:59:01.982Z</time>
      </trkpt>
      <trkpt lat="52.088332" lon="6.451185">
        <ele>60.016879</ele>
        <time>2026-05-09T09:59:04.972Z</time>
      </trkpt>
      <trkpt lat="52.088300" lon="6.450991">
        <ele>60.023717</ele>
        <time>2026-05-09T09:59:07.983Z</time>
      </trkpt>
      <trkpt lat="52.088262" lon="6.450799">
        <ele>60.030583</ele>
        <time>2026-05-09T09:59:10.984Z</time>
      </trkpt>
      <trkpt lat="52.088233" lon="6.450603">
        <ele>60.037446</ele>
        <time>2026-05-09T09:59:13.973Z</time>
      </trkpt>
      <trkpt lat="52.088210" lon="6.450421">
        <ele>60.043771</ele>
        <time>2026-05-09T09:59:16.985Z</time>
      </trkpt>
      <trkpt lat="52.088207" lon="6.450231">
        <ele>60.050240</ele>
        <time>2026-05-09T09:59:19.981Z</time>
      </trkpt>
      <trkpt lat="52.088257" lon="6.450052">
        <ele>60.056933</ele>
        <time>2026-05-09T09:59:22.983Z</time>
      </trkpt>
      <trkpt lat="52.088301" lon="6.449915">
        <ele>60.062196</ele>
        <time>2026-05-09T09:59:25.975Z</time>
      </trkpt>
      <trkpt lat="52.088253" lon="6.449776">
        <ele>60.155835</ele>
        <time>2026-05-09T09:59:34.981Z</time>
      </trkpt>
      <trkpt lat="52.088172" lon="6.449704">
        <ele>60.249702</ele>
        <time>2026-05-09T09:59:37.981Z</time>
      </trkpt>
      <trkpt lat="52.088085" lon="6.449596">
        <ele>60.360986</ele>
        <time>2026-05-09T09:59:40.984Z</time>
      </trkpt>
      <trkpt lat="52.087995" lon="6.449493">
        <ele>60.472885</ele>
        <time>2026-05-09T09:59:43.982Z</time>
      </trkpt>
      <trkpt lat="52.087903" lon="6.449400">
        <ele>60.583033</ele>
        <time>2026-05-09T09:59:46.975Z</time>
      </trkpt>
      <trkpt lat="52.087808" lon="6.449307">
        <ele>60.695784</ele>
        <time>2026-05-09T09:59:49.975Z</time>
      </trkpt>
      <trkpt lat="52.087724" lon="6.449240">
        <ele>60.790923</ele>
        <time>2026-05-09T09:59:52.980Z</time>
      </trkpt>
      <trkpt lat="52.087630" lon="6.449214">
        <ele>60.887896</ele>
        <time>2026-05-09T09:59:55.980Z</time>
      </trkpt>
      <trkpt lat="52.087528" lon="6.449190">
        <ele>60.992712</ele>
        <time>2026-05-09T09:59:58.979Z</time>
      </trkpt>
      <trkpt lat="52.087417" lon="6.449165">
        <ele>61.106680</ele>
        <time>2026-05-09T10:00:02.979Z</time>
      </trkpt>
      <trkpt lat="52.087319" lon="6.449160">
        <ele>61.206398</ele>
        <time>2026-05-09T10:00:07.974Z</time>
      </trkpt>
      <trkpt lat="52.087161" lon="6.449114">
        <ele>61.369641</ele>
        <time>2026-05-09T10:00:58.980Z</time>
      </trkpt>
      <trkpt lat="52.087071" lon="6.449100">
        <ele>61.461592</ele>
        <time>2026-05-09T10:01:03.014Z</time>
      </trkpt>
      <trkpt lat="52.086981" lon="6.449094">
        <ele>61.553202</ele>
        <time>2026-05-09T10:01:06.973Z</time>
      </trkpt>
      <trkpt lat="52.086884" lon="6.449128">
        <ele>61.654117</ele>
        <time>2026-05-09T10:01:10.984Z</time>
      </trkpt>
      <trkpt lat="52.086783" lon="6.449169">
        <ele>61.759985</ele>
        <time>2026-05-09T10:01:14.986Z</time>
      </trkpt>
      <trkpt lat="52.086698" lon="6.449226">
        <ele>61.853485</ele>
        <time>2026-05-09T10:01:17.976Z</time>
      </trkpt>
      <trkpt lat="52.086613" lon="6.449279">
        <ele>61.950615</ele>
        <time>2026-05-09T10:01:20.983Z</time>
      </trkpt>
      <trkpt lat="52.086527" lon="6.449348">
        <ele>62.056322</ele>
        <time>2026-05-09T10:01:24.974Z</time>
      </trkpt>
      <trkpt lat="52.086443" lon="6.449408">
        <ele>62.157455</ele>
        <time>2026-05-09T10:01:28.975Z</time>
      </trkpt>
      <trkpt lat="52.086337" lon="6.449465">
        <ele>62.280529</ele>
        <time>2026-05-09T10:01:32.970Z</time>
      </trkpt>
      <trkpt lat="52.086228" lon="6.449495">
        <ele>62.402403</ele>
        <time>2026-05-09T10:01:36.974Z</time>
      </trkpt>
      <trkpt lat="52.086123" lon="6.449525">
        <ele>62.519931</ele>
        <time>2026-05-09T10:01:40.981Z</time>
      </trkpt>
      <trkpt lat="52.086006" lon="6.449559">
        <ele>62.650958</ele>
        <time>2026-05-09T10:01:44.973Z</time>
      </trkpt>
      <trkpt lat="52.085915" lon="6.449573">
        <ele>62.751728</ele>
        <time>2026-05-09T10:01:47.970Z</time>
      </trkpt>
      <trkpt lat="52.085799" lon="6.449582">
        <ele>62.879758</ele>
        <time>2026-05-09T10:01:51.978Z</time>
      </trkpt>
      <trkpt lat="52.085694" lon="6.449583">
        <ele>62.995518</ele>
        <time>2026-05-09T10:01:55.977Z</time>
      </trkpt>
      <trkpt lat="52.085595" lon="6.449575">
        <ele>63.104795</ele>
        <time>2026-05-09T10:01:59.978Z</time>
      </trkpt>
      <trkpt lat="52.085504" lon="6.449521">
        <ele>63.211579</ele>
        <time>2026-05-09T10:02:04.976Z</time>
      </trkpt>
      <trkpt lat="52.085484" lon="6.449344">
        <ele>63.333497</ele>
        <time>2026-05-09T10:02:09.977Z</time>
      </trkpt>
      <trkpt lat="52.085497" lon="6.449177">
        <ele>63.447533</ele>
        <time>2026-05-09T10:02:13.975Z</time>
      </trkpt>
      <trkpt lat="52.085498" lon="6.449022">
        <ele>63.552542</ele>
        <time>2026-05-09T10:02:17.981Z</time>
      </trkpt>
      <trkpt lat="52.085509" lon="6.448843">
        <ele>63.674409</ele>
        <time>2026-05-09T10:02:22.973Z</time>
      </trkpt>
      <trkpt lat="52.085601" lon="6.448750">
        <ele>63.793809</ele>
        <time>2026-05-09T10:02:27.971Z</time>
      </trkpt>
      <trkpt lat="52.085701" lon="6.448751">
        <ele>63.841419</ele>
        <time>2026-05-09T10:02:31.975Z</time>
      </trkpt>
      <trkpt lat="52.085807" lon="6.448767">
        <ele>63.707966</ele>
        <time>2026-05-09T10:02:35.970Z</time>
      </trkpt>
      <trkpt lat="52.085905" lon="6.448769">
        <ele>63.585102</ele>
        <time>2026-05-09T10:02:39.971Z</time>
      </trkpt>
      <trkpt lat="52.085975" lon="6.448872">
        <ele>63.466798</ele>
        <time>2026-05-09T10:02:43.978Z</time>
      </trkpt>
      <trkpt lat="52.086062" lon="6.448910">
        <ele>63.353874</ele>
        <time>2026-05-09T10:02:47.974Z</time>
      </trkpt>
      <trkpt lat="52.086172" lon="6.448912">
        <ele>63.215968</ele>
        <time>2026-05-09T10:02:52.978Z</time>
      </trkpt>
      <trkpt lat="52.086250" lon="6.448835">
        <ele>63.101603</ele>
        <time>2026-05-09T10:02:57.984Z</time>
      </trkpt>
      <trkpt lat="52.086247" lon="6.448654">
        <ele>62.962125</ele>
        <time>2026-05-09T10:03:02.974Z</time>
      </trkpt>
      <trkpt lat="52.086262" lon="6.448492">
        <ele>62.835926</ele>
        <time>2026-05-09T10:03:06.973Z</time>
      </trkpt>
      <trkpt lat="52.086298" lon="6.448313">
        <ele>62.690842</ele>
        <time>2026-05-09T10:03:11.973Z</time>
      </trkpt>
      <trkpt lat="52.086339" lon="6.448161">
        <ele>62.562971</ele>
        <time>2026-05-09T10:03:14.974Z</time>
      </trkpt>
      <trkpt lat="52.086401" lon="6.448009">
        <ele>62.422434</ele>
        <time>2026-05-09T10:03:17.973Z</time>
      </trkpt>
      <trkpt lat="52.086472" lon="6.447852">
        <ele>62.272274</ele>
        <time>2026-05-09T10:03:20.971Z</time>
      </trkpt>
      <trkpt lat="52.086533" lon="6.447682">
        <ele>62.120629</ele>
        <time>2026-05-09T10:03:23.972Z</time>
      </trkpt>
      <trkpt lat="52.086609" lon="6.447537">
        <ele>61.973820</ele>
        <time>2026-05-09T10:03:26.971Z</time>
      </trkpt>
      <trkpt lat="52.086670" lon="6.447397">
        <ele>61.841616</ele>
        <time>2026-05-09T10:03:29.972Z</time>
      </trkpt>
      <trkpt lat="52.086718" lon="6.447253">
        <ele>61.715422</ele>
        <time>2026-05-09T10:03:32.972Z</time>
      </trkpt>
      <trkpt lat="52.086777" lon="6.447106">
        <ele>61.589299</ele>
        <time>2026-05-09T10:03:35.973Z</time>
      </trkpt>
      <trkpt lat="52.086850" lon="6.446953">
        <ele>61.474327</ele>
        <time>2026-05-09T10:03:38.979Z</time>
      </trkpt>
      <trkpt lat="52.086913" lon="6.446783">
        <ele>61.356496</ele>
        <time>2026-05-09T10:03:41.969Z</time>
      </trkpt>
      <trkpt lat="52.086924" lon="6.446617">
        <ele>61.257399</ele>
        <time>2026-05-09T10:03:44.972Z</time>
      </trkpt>
      <trkpt lat="52.086915" lon="6.446441">
        <ele>61.152576</ele>
        <time>2026-05-09T10:03:47.970Z</time>
      </trkpt>
      <trkpt lat="52.086904" lon="6.446242">
        <ele>61.033986</ele>
        <time>2026-05-09T10:03:50.977Z</time>
      </trkpt>
      <trkpt lat="52.086900" lon="6.446053">
        <ele>60.921742</ele>
        <time>2026-05-09T10:03:53.969Z</time>
      </trkpt>
      <trkpt lat="52.086882" lon="6.445883">
        <ele>60.819354</ele>
        <time>2026-05-09T10:03:56.974Z</time>
      </trkpt>
      <trkpt lat="52.086782" lon="6.445795">
        <ele>60.709544</ele>
        <time>2026-05-09T10:03:59.977Z</time>
      </trkpt>
      <trkpt lat="52.086674" lon="6.445802">
        <ele>60.605141</ele>
        <time>2026-05-09T10:04:02.973Z</time>
      </trkpt>
      <trkpt lat="52.086560" lon="6.445687">
        <ele>60.475586</ele>
        <time>2026-05-09T10:04:05.976Z</time>
      </trkpt>
      <trkpt lat="52.086478" lon="6.445612">
        <ele>60.384727</ele>
        <time>2026-05-09T10:04:07.982Z</time>
      </trkpt>
      <trkpt lat="52.086394" lon="6.445541">
        <ele>60.293298</ele>
        <time>2026-05-09T10:04:09.975Z</time>
      </trkpt>
      <trkpt lat="52.086312" lon="6.445473">
        <ele>60.204401</ele>
        <time>2026-05-09T10:04:11.975Z</time>
      </trkpt>
      <trkpt lat="52.086200" lon="6.445363">
        <ele>60.078042</ele>
        <time>2026-05-09T10:04:14.971Z</time>
      </trkpt>
      <trkpt lat="52.086092" lon="6.445259">
        <ele>59.956827</ele>
        <time>2026-05-09T10:04:17.974Z</time>
      </trkpt>
      <trkpt lat="52.085983" lon="6.445234">
        <ele>59.885813</ele>
        <time>2026-05-09T10:04:20.966Z</time>
      </trkpt>
      <trkpt lat="52.085890" lon="6.445391">
        <ele>59.898859</ele>
        <time>2026-05-09T10:04:23.979Z</time>
      </trkpt>
      <trkpt lat="52.085829" lon="6.445503">
        <ele>59.907813</ele>
        <time>2026-05-09T10:04:25.980Z</time>
      </trkpt>
      <trkpt lat="52.085769" lon="6.445616">
        <ele>59.916748</ele>
        <time>2026-05-09T10:04:27.967Z</time>
      </trkpt>
      <trkpt lat="52.085668" lon="6.445737">
        <ele>59.928958</ele>
        <time>2026-05-09T10:04:30.971Z</time>
      </trkpt>
      <trkpt lat="52.085562" lon="6.445627">
        <ele>59.941198</ele>
        <time>2026-05-09T10:04:33.977Z</time>
      </trkpt>
      <trkpt lat="52.085500" lon="6.445512">
        <ele>59.950351</ele>
        <time>2026-05-09T10:04:35.980Z</time>
      </trkpt>
      <trkpt lat="52.085438" lon="6.445392">
        <ele>59.959730</ele>
        <time>2026-05-09T10:04:37.971Z</time>
      </trkpt>
      <trkpt lat="52.085378" lon="6.445281">
        <ele>59.968575</ele>
        <time>2026-05-09T10:04:39.971Z</time>
      </trkpt>
      <trkpt lat="52.085315" lon="6.445175">
        <ele>59.977398</ele>
        <time>2026-05-09T10:04:41.975Z</time>
      </trkpt>
      <trkpt lat="52.085250" lon="6.445062">
        <ele>59.986658</ele>
        <time>2026-05-09T10:04:43.971Z</time>
      </trkpt>
      <trkpt lat="52.085185" lon="6.444947">
        <ele>59.996006</ele>
        <time>2026-05-09T10:04:45.975Z</time>
      </trkpt>
      <trkpt lat="52.085119" lon="6.444839">
        <ele>60.005118</ele>
        <time>2026-05-09T10:04:47.977Z</time>
      </trkpt>
      <trkpt lat="52.085053" lon="6.444735">
        <ele>60.014063</ele>
        <time>2026-05-09T10:04:49.974Z</time>
      </trkpt>
      <trkpt lat="52.084990" lon="6.444620">
        <ele>60.023280</ele>
        <time>2026-05-09T10:04:51.975Z</time>
      </trkpt>
      <trkpt lat="52.084924" lon="6.444514">
        <ele>60.032308</ele>
        <time>2026-05-09T10:04:53.974Z</time>
      </trkpt>
      <trkpt lat="52.084860" lon="6.444410">
        <ele>60.041114</ele>
        <time>2026-05-09T10:04:55.973Z</time>
      </trkpt>
      <trkpt lat="52.084793" lon="6.444308">
        <ele>60.050047</ele>
        <time>2026-05-09T10:04:57.972Z</time>
      </trkpt>
      <trkpt lat="52.084724" lon="6.444201">
        <ele>60.063283</ele>
        <time>2026-05-09T10:04:59.975Z</time>
      </trkpt>
      <trkpt lat="52.084627" lon="6.444047">
        <ele>60.108512</ele>
        <time>2026-05-09T10:05:02.979Z</time>
      </trkpt>
      <trkpt lat="52.084562" lon="6.443943">
        <ele>60.138935</ele>
        <time>2026-05-09T10:05:04.967Z</time>
      </trkpt>
      <trkpt lat="52.084474" lon="6.443800">
        <ele>60.180441</ele>
        <time>2026-05-09T10:05:07.968Z</time>
      </trkpt>
      <trkpt lat="52.084387" lon="6.443693">
        <ele>60.216837</ele>
        <time>2026-05-09T10:05:10.967Z</time>
      </trkpt>
      <trkpt lat="52.084293" lon="6.443779">
        <ele>60.252827</ele>
        <time>2026-05-09T10:05:13.965Z</time>
      </trkpt>
      <trkpt lat="52.084231" lon="6.443890">
        <ele>60.283592</ele>
        <time>2026-05-09T10:05:15.966Z</time>
      </trkpt>
      <trkpt lat="52.084165" lon="6.443989">
        <ele>60.313549</ele>
        <time>2026-05-09T10:05:17.964Z</time>
      </trkpt>
      <trkpt lat="52.084100" lon="6.444093">
        <ele>60.343972</ele>
        <time>2026-05-09T10:05:19.969Z</time>
      </trkpt>
      <trkpt lat="52.084007" lon="6.444241">
        <ele>60.387386</ele>
        <time>2026-05-09T10:05:22.967Z</time>
      </trkpt>
      <trkpt lat="52.083898" lon="6.444233">
        <ele>60.423802</ele>
        <time>2026-05-09T10:05:25.968Z</time>
      </trkpt>
      <trkpt lat="52.083800" lon="6.444124">
        <ele>60.463420</ele>
        <time>2026-05-09T10:05:28.969Z</time>
      </trkpt>
      <trkpt lat="52.083712" lon="6.443985">
        <ele>60.504350</ele>
        <time>2026-05-09T10:05:31.965Z</time>
      </trkpt>
      <trkpt lat="52.083595" lon="6.443929">
        <ele>60.545053</ele>
        <time>2026-05-09T10:05:34.968Z</time>
      </trkpt>
      <trkpt lat="52.083468" lon="6.443873">
        <ele>60.588968</ele>
        <time>2026-05-09T10:05:37.968Z</time>
      </trkpt>
      <trkpt lat="52.083373" lon="6.443829">
        <ele>60.621933</ele>
        <time>2026-05-09T10:05:39.977Z</time>
      </trkpt>
      <trkpt lat="52.083281" lon="6.443788">
        <ele>60.653769</ele>
        <time>2026-05-09T10:05:41.972Z</time>
      </trkpt>
      <trkpt lat="52.083189" lon="6.443741">
        <ele>60.657822</ele>
        <time>2026-05-09T10:05:43.976Z</time>
      </trkpt>
      <trkpt lat="52.083100" lon="6.443705">
        <ele>60.657632</ele>
        <time>2026-05-09T10:05:45.973Z</time>
      </trkpt>
      <trkpt lat="52.082982" lon="6.443799">
        <ele>60.657360</ele>
        <time>2026-05-09T10:05:48.974Z</time>
      </trkpt>
      <trkpt lat="52.082897" lon="6.443872">
        <ele>60.657161</ele>
        <time>2026-05-09T10:05:50.973Z</time>
      </trkpt>
      <trkpt lat="52.082814" lon="6.443958">
        <ele>60.656958</ele>
        <time>2026-05-09T10:05:53.966Z</time>
      </trkpt>
      <trkpt lat="52.082731" lon="6.443903">
        <ele>60.656772</ele>
        <time>2026-05-09T10:06:01.973Z</time>
      </trkpt>
      <trkpt lat="52.082651" lon="6.444055">
        <ele>60.656517</ele>
        <time>2026-05-09T10:06:39.969Z</time>
      </trkpt>
      <trkpt lat="52.082571" lon="6.444134">
        <ele>60.656324</ele>
        <time>2026-05-09T10:06:43.975Z</time>
      </trkpt>
      <trkpt lat="52.082487" lon="6.444363">
        <ele>60.655984</ele>
        <time>2026-05-09T10:07:18.973Z</time>
      </trkpt>
      <trkpt lat="52.082377" lon="6.444735">
        <ele>60.655459</ele>
        <time>2026-05-09T10:08:02.972Z</time>
      </trkpt>
      <trkpt lat="52.082327" lon="6.444901">
        <ele>60.655224</ele>
        <time>2026-05-09T10:08:05.970Z</time>
      </trkpt>
      <trkpt lat="52.082275" lon="6.445085">
        <ele>60.654966</ele>
        <time>2026-05-09T10:08:08.969Z</time>
      </trkpt>
      <trkpt lat="52.082221" lon="6.445260">
        <ele>60.654717</ele>
        <time>2026-05-09T10:08:11.973Z</time>
      </trkpt>
      <trkpt lat="52.082162" lon="6.445453">
        <ele>60.654443</ele>
        <time>2026-05-09T10:08:14.970Z</time>
      </trkpt>
      <trkpt lat="52.082108" lon="6.445646">
        <ele>60.685077</ele>
        <time>2026-05-09T10:08:17.973Z</time>
      </trkpt>
      <trkpt lat="52.082069" lon="6.445783">
        <ele>60.745039</ele>
        <time>2026-05-09T10:08:19.972Z</time>
      </trkpt>
      <trkpt lat="52.082014" lon="6.445974">
        <ele>60.828806</ele>
        <time>2026-05-09T10:08:22.974Z</time>
      </trkpt>
      <trkpt lat="52.081958" lon="6.446164">
        <ele>60.912491</ele>
        <time>2026-05-09T10:08:25.977Z</time>
      </trkpt>
      <trkpt lat="52.081904" lon="6.446345">
        <ele>60.992396</ele>
        <time>2026-05-09T10:08:28.978Z</time>
      </trkpt>
      <trkpt lat="52.081876" lon="6.446525">
        <ele>61.066135</ele>
        <time>2026-05-09T10:08:31.973Z</time>
      </trkpt>
      <trkpt lat="52.081860" lon="6.446678">
        <ele>61.127770</ele>
        <time>2026-05-09T10:08:34.978Z</time>
      </trkpt>
      <trkpt lat="52.081757" lon="6.446929">
        <ele>61.247632</ele>
        <time>2026-05-09T10:08:54.973Z</time>
      </trkpt>
      <trkpt lat="52.081676" lon="6.446850">
        <ele>61.308659</ele>
        <time>2026-05-09T10:08:57.971Z</time>
      </trkpt>
      <trkpt lat="52.081588" lon="6.446792">
        <ele>61.370016</ele>
        <time>2026-05-09T10:09:00.974Z</time>
      </trkpt>
      <trkpt lat="52.081482" lon="6.446765">
        <ele>61.439352</ele>
        <time>2026-05-09T10:09:03.974Z</time>
      </trkpt>
      <trkpt lat="52.081387" lon="6.446665">
        <ele>61.512470</ele>
        <time>2026-05-09T10:09:06.980Z</time>
      </trkpt>
      <trkpt lat="52.081302" lon="6.446564">
        <ele>61.580486</ele>
        <time>2026-05-09T10:09:09.973Z</time>
      </trkpt>
      <trkpt lat="52.081200" lon="6.446482">
        <ele>61.654008</ele>
        <time>2026-05-09T10:09:12.969Z</time>
      </trkpt>
      <trkpt lat="52.081085" lon="6.446375">
        <ele>61.739617</ele>
        <time>2026-05-09T10:09:15.978Z</time>
      </trkpt>
      <trkpt lat="52.081001" lon="6.446295">
        <ele>61.802515</ele>
        <time>2026-05-09T10:09:17.971Z</time>
      </trkpt>
      <trkpt lat="52.080925" lon="6.446215">
        <ele>61.786909</ele>
        <time>2026-05-09T10:09:19.973Z</time>
      </trkpt>
      <trkpt lat="52.080813" lon="6.446106">
        <ele>61.730450</ele>
        <time>2026-05-09T10:09:22.971Z</time>
      </trkpt>
      <trkpt lat="52.080730" lon="6.446030">
        <ele>61.689248</ele>
        <time>2026-05-09T10:09:24.973Z</time>
      </trkpt>
      <trkpt lat="52.080622" lon="6.445911">
        <ele>61.632820</ele>
        <time>2026-05-09T10:09:27.970Z</time>
      </trkpt>
      <trkpt lat="52.080543" lon="6.445841">
        <ele>61.593904</ele>
        <time>2026-05-09T10:09:29.971Z</time>
      </trkpt>
      <trkpt lat="52.080432" lon="6.445737">
        <ele>61.538491</ele>
        <time>2026-05-09T10:09:32.976Z</time>
      </trkpt>
      <trkpt lat="52.080325" lon="6.445697">
        <ele>61.490994</ele>
        <time>2026-05-09T10:09:35.972Z</time>
      </trkpt>
      <trkpt lat="52.080230" lon="6.445781">
        <ele>61.444218</ele>
        <time>2026-05-09T10:09:38.974Z</time>
      </trkpt>
      <trkpt lat="52.080138" lon="6.445767">
        <ele>61.404243</ele>
        <time>2026-05-09T10:09:41.982Z</time>
      </trkpt>
      <trkpt lat="52.080050" lon="6.445652">
        <ele>61.355414</ele>
        <time>2026-05-09T10:09:45.975Z</time>
      </trkpt>
      <trkpt lat="52.080021" lon="6.445490">
        <ele>61.310553</ele>
        <time>2026-05-09T10:09:48.973Z</time>
      </trkpt>
      <trkpt lat="52.079934" lon="6.445535">
        <ele>61.271058</ele>
        <time>2026-05-09T10:09:52.981Z</time>
      </trkpt>
      <trkpt lat="52.079872" lon="6.445701">
        <ele>61.219412</ele>
        <time>2026-05-09T10:09:55.983Z</time>
      </trkpt>
      <trkpt lat="52.079820" lon="6.445879">
        <ele>61.167011</ele>
        <time>2026-05-09T10:09:58.978Z</time>
      </trkpt>
      <trkpt lat="52.079760" lon="6.446070">
        <ele>61.109979</ele>
        <time>2026-05-09T10:10:01.974Z</time>
      </trkpt>
      <trkpt lat="52.079674" lon="6.446230">
        <ele>61.053464</ele>
        <time>2026-05-09T10:10:04.980Z</time>
      </trkpt>
      <trkpt lat="52.079623" lon="6.446363">
        <ele>61.036676</ele>
        <time>2026-05-09T10:10:06.975Z</time>
      </trkpt>
      <trkpt lat="52.079535" lon="6.446512">
        <ele>61.032953</ele>
        <time>2026-05-09T10:10:09.973Z</time>
      </trkpt>
      <trkpt lat="52.079438" lon="6.446631">
        <ele>61.029393</ele>
        <time>2026-05-09T10:10:12.972Z</time>
      </trkpt>
      <trkpt lat="52.079330" lon="6.446735">
        <ele>61.025714</ele>
        <time>2026-05-09T10:10:15.971Z</time>
      </trkpt>
      <trkpt lat="52.079225" lon="6.446853">
        <ele>61.021974</ele>
        <time>2026-05-09T10:10:18.970Z</time>
      </trkpt>
      <trkpt lat="52.079120" lon="6.446959">
        <ele>61.018352</ele>
        <time>2026-05-09T10:10:21.976Z</time>
      </trkpt>
      <trkpt lat="52.079013" lon="6.447063">
        <ele>61.014698</ele>
        <time>2026-05-09T10:10:24.971Z</time>
      </trkpt>
      <trkpt lat="52.078918" lon="6.447163">
        <ele>61.011382</ele>
        <time>2026-05-09T10:10:27.970Z</time>
      </trkpt>
      <trkpt lat="52.078833" lon="6.447247">
        <ele>61.008467</ele>
        <time>2026-05-09T10:10:30.980Z</time>
      </trkpt>
      <trkpt lat="52.078736" lon="6.447359">
        <ele>61.004980</ele>
        <time>2026-05-09T10:10:34.973Z</time>
      </trkpt>
      <trkpt lat="52.078636" lon="6.447335">
        <ele>61.002018</ele>
        <time>2026-05-09T10:10:39.975Z</time>
      </trkpt>
      <trkpt lat="52.078584" lon="6.447203">
        <ele>60.999193</ele>
        <time>2026-05-09T10:10:43.974Z</time>
      </trkpt>
      <trkpt lat="52.078609" lon="6.447053">
        <ele>60.996393</ele>
        <time>2026-05-09T10:10:48.972Z</time>
      </trkpt>
      <trkpt lat="52.078584" lon="6.446884">
        <ele>60.993262</ele>
        <time>2026-05-09T10:10:54.974Z</time>
      </trkpt>
      <trkpt lat="52.078511" lon="6.446774">
        <ele>60.990346</ele>
        <time>2026-05-09T10:11:00.975Z</time>
      </trkpt>
      <trkpt lat="52.078422" lon="6.446688">
        <ele>60.987311</ele>
        <time>2026-05-09T10:11:06.972Z</time>
      </trkpt>
      <trkpt lat="52.078466" lon="6.446548">
        <ele>60.998728</ele>
        <time>2026-05-09T10:11:12.972Z</time>
      </trkpt>
      <trkpt lat="52.078519" lon="6.446426">
        <ele>61.025884</ele>
        <time>2026-05-09T10:11:17.972Z</time>
      </trkpt>
      <trkpt lat="52.078586" lon="6.446328">
        <ele>61.052529</ele>
        <time>2026-05-09T10:11:23.977Z</time>
      </trkpt>
      <trkpt lat="52.078744" lon="6.446434">
        <ele>61.103074</ele>
        <time>2026-05-09T10:12:15.970Z</time>
      </trkpt>
      <trkpt lat="52.078842" lon="6.446439">
        <ele>61.132072</ele>
        <time>2026-05-09T10:12:21.972Z</time>
      </trkpt>
      <trkpt lat="52.078940" lon="6.446369">
        <ele>61.163726</ele>
        <time>2026-05-09T10:12:26.971Z</time>
      </trkpt>
      <trkpt lat="52.079016" lon="6.446245">
        <ele>61.195557</ele>
        <time>2026-05-09T10:12:31.983Z</time>
      </trkpt>
      <trkpt lat="52.078990" lon="6.446097">
        <ele>61.223535</ele>
        <time>2026-05-09T10:12:36.977Z</time>
      </trkpt>
      <trkpt lat="52.078896" lon="6.446032">
        <ele>61.253742</ele>
        <time>2026-05-09T10:12:42.975Z</time>
      </trkpt>
      <trkpt lat="52.078805" lon="6.446015">
        <ele>61.280832</ele>
        <time>2026-05-09T10:12:50.976Z</time>
      </trkpt>
      <trkpt lat="52.078694" lon="6.445903">
        <ele>61.319461</ele>
        <time>2026-05-09T10:13:34.974Z</time>
      </trkpt>
      <trkpt lat="52.078621" lon="6.445813">
        <ele>61.346548</ele>
        <time>2026-05-09T10:13:39.968Z</time>
      </trkpt>
      <trkpt lat="52.078524" lon="6.445729">
        <ele>61.379046</ele>
        <time>2026-05-09T10:13:45.969Z</time>
      </trkpt>
      <trkpt lat="52.078417" lon="6.445737">
        <ele>61.410725</ele>
        <time>2026-05-09T10:13:50.971Z</time>
      </trkpt>
      <trkpt lat="52.078379" lon="6.445601">
        <ele>61.437880</ele>
        <time>2026-05-09T10:13:57.980Z</time>
      </trkpt>
      <trkpt lat="52.078343" lon="6.445389">
        <ele>61.477858</ele>
        <time>2026-05-09T10:15:01.977Z</time>
      </trkpt>
      <trkpt lat="52.078235" lon="6.445298">
        <ele>61.513828</ele>
        <time>2026-05-09T10:15:30.974Z</time>
      </trkpt>
      <trkpt lat="52.078274" lon="6.445121">
        <ele>61.521842</ele>
        <time>2026-05-09T10:19:54.971Z</time>
      </trkpt>
      <trkpt lat="52.078295" lon="6.444963">
        <ele>61.525843</ele>
        <time>2026-05-09T10:20:03.981Z</time>
      </trkpt>
      <trkpt lat="52.078354" lon="6.444836">
        <ele>61.529783</ele>
        <time>2026-05-09T10:20:08.970Z</time>
      </trkpt>
      <trkpt lat="52.078443" lon="6.444740">
        <ele>61.534083</ele>
        <time>2026-05-09T10:20:13.965Z</time>
      </trkpt>
      <trkpt lat="52.078539" lon="6.444663">
        <ele>61.538393</ele>
        <time>2026-05-09T10:20:18.980Z</time>
      </trkpt>
      <trkpt lat="52.078641" lon="6.444614">
        <ele>61.542676</ele>
        <time>2026-05-09T10:20:23.966Z</time>
      </trkpt>
      <trkpt lat="52.078741" lon="6.444625">
        <ele>61.546712</ele>
        <time>2026-05-09T10:20:28.972Z</time>
      </trkpt>
      <trkpt lat="52.078838" lon="6.444612">
        <ele>61.550631</ele>
        <time>2026-05-09T10:20:36.965Z</time>
      </trkpt>
      <trkpt lat="52.078977" lon="6.444683">
        <ele>61.556497</ele>
        <time>2026-05-09T10:20:58.974Z</time>
      </trkpt>
      <trkpt lat="52.079042" lon="6.444542">
        <ele>61.560860</ele>
        <time>2026-05-09T10:21:02.971Z</time>
      </trkpt>
      <trkpt lat="52.079056" lon="6.444387">
        <ele>61.564737</ele>
        <time>2026-05-09T10:21:09.972Z</time>
      </trkpt>
      <trkpt lat="52.079084" lon="6.444235">
        <ele>61.568664</ele>
        <time>2026-05-09T10:21:15.972Z</time>
      </trkpt>
      <trkpt lat="52.079110" lon="6.444381">
        <ele>61.572426</ele>
        <time>2026-05-09T10:21:45.968Z</time>
      </trkpt>
      <trkpt lat="52.079195" lon="6.444480">
        <ele>61.576635</ele>
        <time>2026-05-09T10:21:52.974Z</time>
      </trkpt>
      <trkpt lat="52.079273" lon="6.444583">
        <ele>61.580680</ele>
        <time>2026-05-09T10:22:00.970Z</time>
      </trkpt>
      <trkpt lat="52.079443" lon="6.444774">
        <ele>61.588999</ele>
        <time>2026-05-09T10:22:29.972Z</time>
      </trkpt>
      <trkpt lat="52.079506" lon="6.444882">
        <ele>61.553831</ele>
        <time>2026-05-09T10:22:33.971Z</time>
      </trkpt>
      <trkpt lat="52.079565" lon="6.445024">
        <ele>61.493103</ele>
        <time>2026-05-09T10:22:38.970Z</time>
      </trkpt>
      <trkpt lat="52.079656" lon="6.445080">
        <ele>61.437016</ele>
        <time>2026-05-09T10:22:43.971Z</time>
      </trkpt>
      <trkpt lat="52.079728" lon="6.444987">
        <ele>61.384020</ele>
        <time>2026-05-09T10:22:49.973Z</time>
      </trkpt>
      <trkpt lat="52.079813" lon="6.444869">
        <ele>61.319608</ele>
        <time>2026-05-09T10:22:53.985Z</time>
      </trkpt>
      <trkpt lat="52.079808" lon="6.444675">
        <ele>61.250815</ele>
        <time>2026-05-09T10:22:56.980Z</time>
      </trkpt>
      <trkpt lat="52.079782" lon="6.444528">
        <ele>61.196621</ele>
        <time>2026-05-09T10:22:58.978Z</time>
      </trkpt>
      <trkpt lat="52.079755" lon="6.444378">
        <ele>61.141245</ele>
        <time>2026-05-09T10:23:00.983Z</time>
      </trkpt>
      <trkpt lat="52.079723" lon="6.444240">
        <ele>61.088988</ele>
        <time>2026-05-09T10:23:02.973Z</time>
      </trkpt>
      <trkpt lat="52.079684" lon="6.444101">
        <ele>61.034852</ele>
        <time>2026-05-09T10:23:04.972Z</time>
      </trkpt>
      <trkpt lat="52.079644" lon="6.443962">
        <ele>60.980474</ele>
        <time>2026-05-09T10:23:06.976Z</time>
      </trkpt>
      <trkpt lat="52.079591" lon="6.443771">
        <ele>60.906226</ele>
        <time>2026-05-09T10:23:09.969Z</time>
      </trkpt>
      <trkpt lat="52.079538" lon="6.443577">
        <ele>60.831008</ele>
        <time>2026-05-09T10:23:12.971Z</time>
      </trkpt>
      <trkpt lat="52.079504" lon="6.443433">
        <ele>60.776355</ele>
        <time>2026-05-09T10:23:14.969Z</time>
      </trkpt>
      <trkpt lat="52.079470" lon="6.443295">
        <ele>60.723680</ele>
        <time>2026-05-09T10:23:16.969Z</time>
      </trkpt>
      <trkpt lat="52.079399" lon="6.443118">
        <ele>60.648794</ele>
        <time>2026-05-09T10:23:19.969Z</time>
      </trkpt>
      <trkpt lat="52.079331" lon="6.442958">
        <ele>60.579873</ele>
        <time>2026-05-09T10:23:22.970Z</time>
      </trkpt>
      <trkpt lat="52.079254" lon="6.442868">
        <ele>60.522955</ele>
        <time>2026-05-09T10:23:26.969Z</time>
      </trkpt>
      <trkpt lat="52.079263" lon="6.442662">
        <ele>60.443881</ele>
        <time>2026-05-09T10:24:36.970Z</time>
      </trkpt>
      <trkpt lat="52.079259" lon="6.442498">
        <ele>60.381037</ele>
        <time>2026-05-09T10:24:39.970Z</time>
      </trkpt>
      <trkpt lat="52.079269" lon="6.442305">
        <ele>60.306877</ele>
        <time>2026-05-09T10:24:42.970Z</time>
      </trkpt>
      <trkpt lat="52.079263" lon="6.442088">
        <ele>60.223706</ele>
        <time>2026-05-09T10:24:45.973Z</time>
      </trkpt>
      <trkpt lat="52.079249" lon="6.441941">
        <ele>60.166749</ele>
        <time>2026-05-09T10:24:47.973Z</time>
      </trkpt>
      <trkpt lat="52.079220" lon="6.441800">
        <ele>60.109819</ele>
        <time>2026-05-09T10:24:49.970Z</time>
      </trkpt>
      <trkpt lat="52.079202" lon="6.441636">
        <ele>60.046031</ele>
        <time>2026-05-09T10:24:51.972Z</time>
      </trkpt>
      <trkpt lat="52.079216" lon="6.441490">
        <ele>59.989453</ele>
        <time>2026-05-09T10:24:53.964Z</time>
      </trkpt>
      <trkpt lat="52.079241" lon="6.441346">
        <ele>59.932159</ele>
        <time>2026-05-09T10:24:55.973Z</time>
      </trkpt>
      <trkpt lat="52.079263" lon="6.441178">
        <ele>59.866389</ele>
        <time>2026-05-09T10:24:57.974Z</time>
      </trkpt>
      <trkpt lat="52.079287" lon="6.441030">
        <ele>59.807782</ele>
        <time>2026-05-09T10:24:59.972Z</time>
      </trkpt>
      <trkpt lat="52.079307" lon="6.440882">
        <ele>59.749761</ele>
        <time>2026-05-09T10:25:01.982Z</time>
      </trkpt>
      <trkpt lat="52.079322" lon="6.440730">
        <ele>59.690816</ele>
        <time>2026-05-09T10:25:03.970Z</time>
      </trkpt>
      <trkpt lat="52.079351" lon="6.440575">
        <ele>59.628779</ele>
        <time>2026-05-09T10:25:05.987Z</time>
      </trkpt>
      <trkpt lat="52.079378" lon="6.440421">
        <ele>59.567461</ele>
        <time>2026-05-09T10:25:07.967Z</time>
      </trkpt>
      <trkpt lat="52.079403" lon="6.440256">
        <ele>59.502393</ele>
        <time>2026-05-09T10:25:09.971Z</time>
      </trkpt>
      <trkpt lat="52.079424" lon="6.440080">
        <ele>59.433746</ele>
        <time>2026-05-09T10:25:11.978Z</time>
      </trkpt>
      <trkpt lat="52.079454" lon="6.439911">
        <ele>59.455895</ele>
        <time>2026-05-09T10:25:13.978Z</time>
      </trkpt>
      <trkpt lat="52.079476" lon="6.439748">
        <ele>59.478307</ele>
        <time>2026-05-09T10:25:15.970Z</time>
      </trkpt>
      <trkpt lat="52.079494" lon="6.439573">
        <ele>59.502136</ele>
        <time>2026-05-09T10:25:17.978Z</time>
      </trkpt>
      <trkpt lat="52.079518" lon="6.439411">
        <ele>59.524515</ele>
        <time>2026-05-09T10:25:19.967Z</time>
      </trkpt>
      <trkpt lat="52.079542" lon="6.439241">
        <ele>59.547940</ele>
        <time>2026-05-09T10:25:21.980Z</time>
      </trkpt>
      <trkpt lat="52.079571" lon="6.439074">
        <ele>59.571245</ele>
        <time>2026-05-09T10:25:23.976Z</time>
      </trkpt>
      <trkpt lat="52.079589" lon="6.438902">
        <ele>59.594676</ele>
        <time>2026-05-09T10:25:25.969Z</time>
      </trkpt>
      <trkpt lat="52.079607" lon="6.438742">
        <ele>59.616521</ele>
        <time>2026-05-09T10:25:27.968Z</time>
      </trkpt>
      <trkpt lat="52.079612" lon="6.438574">
        <ele>59.639109</ele>
        <time>2026-05-09T10:25:29.967Z</time>
      </trkpt>
      <trkpt lat="52.079569" lon="6.438430">
        <ele>59.660609</ele>
        <time>2026-05-09T10:25:31.969Z</time>
      </trkpt>
      <trkpt lat="52.079481" lon="6.438342">
        <ele>59.683180</ele>
        <time>2026-05-09T10:25:33.968Z</time>
      </trkpt>
      <trkpt lat="52.079392" lon="6.438258">
        <ele>59.705663</ele>
        <time>2026-05-09T10:25:35.968Z</time>
      </trkpt>
      <trkpt lat="52.079301" lon="6.438170">
        <ele>59.728795</ele>
        <time>2026-05-09T10:25:37.964Z</time>
      </trkpt>
      <trkpt lat="52.079216" lon="6.438068">
        <ele>59.751874</ele>
        <time>2026-05-09T10:25:39.974Z</time>
      </trkpt>
      <trkpt lat="52.079130" lon="6.437956">
        <ele>59.775945</ele>
        <time>2026-05-09T10:25:41.969Z</time>
      </trkpt>
      <trkpt lat="52.079041" lon="6.437848">
        <ele>59.800206</ele>
        <time>2026-05-09T10:25:43.972Z</time>
      </trkpt>
      <trkpt lat="52.078953" lon="6.437735">
        <ele>59.824703</ele>
        <time>2026-05-09T10:25:45.971Z</time>
      </trkpt>
      <trkpt lat="52.078869" lon="6.437624">
        <ele>59.831961</ele>
        <time>2026-05-09T10:25:47.971Z</time>
      </trkpt>
      <trkpt lat="52.078787" lon="6.437523">
        <ele>59.838177</ele>
        <time>2026-05-09T10:25:49.971Z</time>
      </trkpt>
      <trkpt lat="52.078708" lon="6.437403">
        <ele>59.844710</ele>
        <time>2026-05-09T10:25:51.971Z</time>
      </trkpt>
      <trkpt lat="52.078633" lon="6.437278">
        <ele>59.851199</ele>
        <time>2026-05-09T10:25:53.972Z</time>
      </trkpt>
      <trkpt lat="52.078547" lon="6.437166">
        <ele>59.857857</ele>
        <time>2026-05-09T10:25:55.971Z</time>
      </trkpt>
      <trkpt lat="52.078462" lon="6.437053">
        <ele>59.864492</ele>
        <time>2026-05-09T10:25:57.970Z</time>
      </trkpt>
      <trkpt lat="52.078379" lon="6.436940">
        <ele>59.871033</ele>
        <time>2026-05-09T10:25:59.974Z</time>
      </trkpt>
      <trkpt lat="52.078294" lon="6.436830">
        <ele>59.877598</ele>
        <time>2026-05-09T10:26:01.972Z</time>
      </trkpt>
      <trkpt lat="52.078204" lon="6.436710">
        <ele>59.884631</ele>
        <time>2026-05-09T10:26:03.973Z</time>
      </trkpt>
      <trkpt lat="52.078113" lon="6.436589">
        <ele>59.891734</ele>
        <time>2026-05-09T10:26:05.974Z</time>
      </trkpt>
      <trkpt lat="52.078018" lon="6.436469">
        <ele>59.899004</ele>
        <time>2026-05-09T10:26:07.973Z</time>
      </trkpt>
      <trkpt lat="52.077926" lon="6.436348">
        <ele>59.906154</ele>
        <time>2026-05-09T10:26:09.974Z</time>
      </trkpt>
      <trkpt lat="52.077833" lon="6.436240">
        <ele>59.913060</ele>
        <time>2026-05-09T10:26:11.971Z</time>
      </trkpt>
      <trkpt lat="52.077746" lon="6.436121">
        <ele>59.919930</ele>
        <time>2026-05-09T10:26:13.972Z</time>
      </trkpt>
      <trkpt lat="52.077657" lon="6.436011">
        <ele>59.926686</ele>
        <time>2026-05-09T10:26:15.972Z</time>
      </trkpt>
      <trkpt lat="52.077549" lon="6.435953">
        <ele>59.933560</ele>
        <time>2026-05-09T10:26:17.972Z</time>
      </trkpt>
      <trkpt lat="52.077461" lon="6.435839">
        <ele>59.923311</ele>
        <time>2026-05-09T10:26:19.970Z</time>
      </trkpt>
      <trkpt lat="52.077389" lon="6.435689">
        <ele>59.910114</ele>
        <time>2026-05-09T10:26:21.982Z</time>
      </trkpt>
      <trkpt lat="52.077302" lon="6.435556">
        <ele>59.896647</ele>
        <time>2026-05-09T10:26:23.969Z</time>
      </trkpt>
      <trkpt lat="52.077206" lon="6.435435">
        <ele>59.882947</ele>
        <time>2026-05-09T10:26:25.976Z</time>
      </trkpt>
      <trkpt lat="52.077097" lon="6.435345">
        <ele>59.869157</ele>
        <time>2026-05-09T10:26:27.973Z</time>
      </trkpt>
      <trkpt lat="52.077029" lon="6.435173">
        <ele>59.854976</ele>
        <time>2026-05-09T10:26:29.974Z</time>
      </trkpt>
      <trkpt lat="52.077005" lon="6.434977">
        <ele>59.841119</ele>
        <time>2026-05-09T10:26:31.970Z</time>
      </trkpt>
      <trkpt lat="52.076935" lon="6.434807">
        <ele>59.826930</ele>
        <time>2026-05-09T10:26:33.968Z</time>
      </trkpt>
      <trkpt lat="52.076857" lon="6.434655">
        <ele>59.813200</ele>
        <time>2026-05-09T10:26:35.974Z</time>
      </trkpt>
      <trkpt lat="52.076782" lon="6.434505">
        <ele>59.799792</ele>
        <time>2026-05-09T10:26:37.977Z</time>
      </trkpt>
      <trkpt lat="52.076710" lon="6.434358">
        <ele>59.786759</ele>
        <time>2026-05-09T10:26:39.972Z</time>
      </trkpt>
      <trkpt lat="52.076638" lon="6.434206">
        <ele>59.773452</ele>
        <time>2026-05-09T10:26:41.973Z</time>
      </trkpt>
      <trkpt lat="52.076566" lon="6.434064">
        <ele>59.760688</ele>
        <time>2026-05-09T10:26:43.973Z</time>
      </trkpt>
      <trkpt lat="52.076491" lon="6.433914">
        <ele>59.747280</ele>
        <time>2026-05-09T10:26:45.973Z</time>
      </trkpt>
      <trkpt lat="52.076414" lon="6.433762">
        <ele>59.733622</ele>
        <time>2026-05-09T10:26:47.975Z</time>
      </trkpt>
      <trkpt lat="52.076339" lon="6.433612">
        <ele>59.704543</ele>
        <time>2026-05-09T10:26:49.971Z</time>
      </trkpt>
      <trkpt lat="52.076264" lon="6.433463">
        <ele>59.672635</ele>
        <time>2026-05-09T10:26:51.969Z</time>
      </trkpt>
      <trkpt lat="52.076192" lon="6.433323">
        <ele>59.642390</ele>
        <time>2026-05-09T10:26:53.978Z</time>
      </trkpt>
      <trkpt lat="52.076118" lon="6.433182">
        <ele>59.611671</ele>
        <time>2026-05-09T10:26:55.975Z</time>
      </trkpt>
      <trkpt lat="52.076044" lon="6.433034">
        <ele>59.580061</ele>
        <time>2026-05-09T10:26:57.971Z</time>
      </trkpt>
      <trkpt lat="52.075972" lon="6.432886">
        <ele>59.548789</ele>
        <time>2026-05-09T10:26:59.973Z</time>
      </trkpt>
      <trkpt lat="52.075898" lon="6.432736">
        <ele>59.516921</ele>
        <time>2026-05-09T10:27:01.972Z</time>
      </trkpt>
      <trkpt lat="52.075824" lon="6.432587">
        <ele>59.485182</ele>
        <time>2026-05-09T10:27:03.979Z</time>
      </trkpt>
      <trkpt lat="52.075751" lon="6.432443">
        <ele>59.454255</ele>
        <time>2026-05-09T10:27:05.973Z</time>
      </trkpt>
      <trkpt lat="52.075680" lon="6.432301">
        <ele>59.423927</ele>
        <time>2026-05-09T10:27:07.969Z</time>
      </trkpt>
      <trkpt lat="52.075606" lon="6.432157">
        <ele>59.392828</ele>
        <time>2026-05-09T10:27:09.977Z</time>
      </trkpt>
      <trkpt lat="52.075537" lon="6.432016">
        <ele>59.362966</ele>
        <time>2026-05-09T10:27:11.971Z</time>
      </trkpt>
      <trkpt lat="52.075469" lon="6.431876">
        <ele>59.333402</ele>
        <time>2026-05-09T10:27:13.972Z</time>
      </trkpt>
      <trkpt lat="52.075399" lon="6.431754">
        <ele>59.305750</ele>
        <time>2026-05-09T10:27:15.971Z</time>
      </trkpt>
      <trkpt lat="52.075331" lon="6.431634">
        <ele>59.278707</ele>
        <time>2026-05-09T10:27:17.980Z</time>
      </trkpt>
      <trkpt lat="52.075260" lon="6.431513">
        <ele>59.250990</ele>
        <time>2026-05-09T10:27:19.971Z</time>
      </trkpt>
      <trkpt lat="52.075191" lon="6.431385">
        <ele>59.261908</ele>
        <time>2026-05-09T10:27:21.971Z</time>
      </trkpt>
      <trkpt lat="52.075115" lon="6.431260">
        <ele>59.280562</ele>
        <time>2026-05-09T10:27:23.969Z</time>
      </trkpt>
      <trkpt lat="52.075019" lon="6.431169">
        <ele>59.299739</ele>
        <time>2026-05-09T10:27:25.973Z</time>
      </trkpt>
      <trkpt lat="52.074918" lon="6.431115">
        <ele>59.318089</ele>
        <time>2026-05-09T10:27:27.975Z</time>
      </trkpt>
      <trkpt lat="52.074831" lon="6.431006">
        <ele>59.337043</ele>
        <time>2026-05-09T10:27:29.967Z</time>
      </trkpt>
      <trkpt lat="52.074745" lon="6.430884">
        <ele>59.356737</ele>
        <time>2026-05-09T10:27:31.976Z</time>
      </trkpt>
      <trkpt lat="52.074693" lon="6.430717">
        <ele>59.376598</ele>
        <time>2026-05-09T10:27:33.975Z</time>
      </trkpt>
      <trkpt lat="52.074634" lon="6.430550">
        <ele>59.397033</ele>
        <time>2026-05-09T10:27:35.974Z</time>
      </trkpt>
      <trkpt lat="52.074554" lon="6.430421">
        <ele>59.416475</ele>
        <time>2026-05-09T10:27:37.979Z</time>
      </trkpt>
      <trkpt lat="52.074471" lon="6.430299">
        <ele>59.435782</ele>
        <time>2026-05-09T10:27:39.971Z</time>
      </trkpt>
      <trkpt lat="52.074390" lon="6.430168">
        <ele>59.455495</ele>
        <time>2026-05-09T10:27:41.969Z</time>
      </trkpt>
      <trkpt lat="52.074305" lon="6.430038">
        <ele>59.475631</ele>
        <time>2026-05-09T10:27:43.972Z</time>
      </trkpt>
      <trkpt lat="52.074222" lon="6.429905">
        <ele>59.495740</ele>
        <time>2026-05-09T10:27:45.980Z</time>
      </trkpt>
      <trkpt lat="52.074146" lon="6.429781">
        <ele>59.514318</ele>
        <time>2026-05-09T10:27:47.972Z</time>
      </trkpt>
      <trkpt lat="52.074071" lon="6.429661">
        <ele>59.532474</ele>
        <time>2026-05-09T10:27:49.973Z</time>
      </trkpt>
      <trkpt lat="52.073993" lon="6.429540">
        <ele>59.551077</ele>
        <time>2026-05-09T10:27:51.971Z</time>
      </trkpt>
      <trkpt lat="52.073914" lon="6.429419">
        <ele>59.574072</ele>
        <time>2026-05-09T10:27:53.968Z</time>
      </trkpt>
      <trkpt lat="52.073839" lon="6.429294">
        <ele>59.598825</ele>
        <time>2026-05-09T10:27:55.970Z</time>
      </trkpt>
      <trkpt lat="52.073760" lon="6.429182">
        <ele>59.622983</ele>
        <time>2026-05-09T10:27:57.972Z</time>
      </trkpt>
      <trkpt lat="52.073684" lon="6.429065">
        <ele>59.647105</ele>
        <time>2026-05-09T10:27:59.971Z</time>
      </trkpt>
      <trkpt lat="52.073603" lon="6.428945">
        <ele>59.672361</ele>
        <time>2026-05-09T10:28:01.970Z</time>
      </trkpt>
      <trkpt lat="52.073524" lon="6.428818">
        <ele>59.697966</ele>
        <time>2026-05-09T10:28:03.972Z</time>
      </trkpt>
      <trkpt lat="52.073443" lon="6.428690">
        <ele>59.723999</ele>
        <time>2026-05-09T10:28:05.970Z</time>
      </trkpt>
      <trkpt lat="52.073364" lon="6.428567">
        <ele>59.749209</ele>
        <time>2026-05-09T10:28:07.970Z</time>
      </trkpt>
      <trkpt lat="52.073269" lon="6.428468">
        <ele>59.775218</ele>
        <time>2026-05-09T10:28:09.973Z</time>
      </trkpt>
      <trkpt lat="52.073179" lon="6.428360">
        <ele>59.801001</ele>
        <time>2026-05-09T10:28:11.975Z</time>
      </trkpt>
      <trkpt lat="52.073114" lon="6.428202">
        <ele>59.827943</ele>
        <time>2026-05-09T10:28:13.981Z</time>
      </trkpt>
      <trkpt lat="52.073039" lon="6.428055">
        <ele>59.855015</ele>
        <time>2026-05-09T10:28:15.976Z</time>
      </trkpt>
      <trkpt lat="52.072956" lon="6.427931">
        <ele>59.880994</ele>
        <time>2026-05-09T10:28:17.971Z</time>
      </trkpt>
      <trkpt lat="52.072872" lon="6.427803">
        <ele>59.907528</ele>
        <time>2026-05-09T10:28:19.977Z</time>
      </trkpt>
      <trkpt lat="52.072775" lon="6.427703">
        <ele>59.934003</ele>
        <time>2026-05-09T10:28:21.974Z</time>
      </trkpt>
      <trkpt lat="52.072664" lon="6.427629">
        <ele>59.961659</ele>
        <time>2026-05-09T10:28:23.970Z</time>
      </trkpt>
      <trkpt lat="52.072570" lon="6.427503">
        <ele>59.963505</ele>
        <time>2026-05-09T10:28:25.968Z</time>
      </trkpt>
      <trkpt lat="52.072496" lon="6.427358">
        <ele>59.951237</ele>
        <time>2026-05-09T10:28:27.974Z</time>
      </trkpt>
      <trkpt lat="52.072391" lon="6.427268">
        <ele>59.938668</ele>
        <time>2026-05-09T10:28:29.980Z</time>
      </trkpt>
      <trkpt lat="52.072283" lon="6.427186">
        <ele>59.926046</ele>
        <time>2026-05-09T10:28:31.973Z</time>
      </trkpt>
      <trkpt lat="52.072172" lon="6.427126">
        <ele>59.913659</ele>
        <time>2026-05-09T10:28:33.976Z</time>
      </trkpt>
      <trkpt lat="52.072059" lon="6.427066">
        <ele>59.901070</ele>
        <time>2026-05-09T10:28:35.977Z</time>
      </trkpt>
      <trkpt lat="52.071943" lon="6.427019">
        <ele>59.888410</ele>
        <time>2026-05-09T10:28:37.967Z</time>
      </trkpt>
      <trkpt lat="52.071830" lon="6.426980">
        <ele>59.876176</ele>
        <time>2026-05-09T10:28:39.979Z</time>
      </trkpt>
      <trkpt lat="52.071710" lon="6.426951">
        <ele>59.863328</ele>
        <time>2026-05-09T10:28:41.971Z</time>
      </trkpt>
      <trkpt lat="52.071587" lon="6.426935">
        <ele>59.850260</ele>
        <time>2026-05-09T10:28:43.974Z</time>
      </trkpt>
      <trkpt lat="52.071464" lon="6.426924">
        <ele>59.837214</ele>
        <time>2026-05-09T10:28:45.972Z</time>
      </trkpt>
      <trkpt lat="52.071348" lon="6.426933">
        <ele>59.824915</ele>
        <time>2026-05-09T10:28:47.980Z</time>
      </trkpt>
      <trkpt lat="52.071233" lon="6.426946">
        <ele>59.812706</ele>
        <time>2026-05-09T10:28:49.970Z</time>
      </trkpt>
      <trkpt lat="52.071115" lon="6.426971">
        <ele>59.800104</ele>
        <time>2026-05-09T10:28:51.972Z</time>
      </trkpt>
      <trkpt lat="52.070993" lon="6.426997">
        <ele>59.787073</ele>
        <time>2026-05-09T10:28:53.974Z</time>
      </trkpt>
      <trkpt lat="52.070874" lon="6.427013">
        <ele>59.778385</ele>
        <time>2026-05-09T10:28:55.978Z</time>
      </trkpt>
      <trkpt lat="52.070757" lon="6.427021">
        <ele>59.773148</ele>
        <time>2026-05-09T10:28:57.971Z</time>
      </trkpt>
      <trkpt lat="52.070642" lon="6.427036">
        <ele>59.767989</ele>
        <time>2026-05-09T10:28:59.980Z</time>
      </trkpt>
      <trkpt lat="52.070523" lon="6.427047">
        <ele>59.762659</ele>
        <time>2026-05-09T10:29:01.977Z</time>
      </trkpt>
      <trkpt lat="52.070402" lon="6.427063">
        <ele>59.757231</ele>
        <time>2026-05-09T10:29:03.969Z</time>
      </trkpt>
      <trkpt lat="52.070284" lon="6.427076">
        <ele>59.751942</ele>
        <time>2026-05-09T10:29:05.971Z</time>
      </trkpt>
      <trkpt lat="52.070166" lon="6.427108">
        <ele>59.746592</ele>
        <time>2026-05-09T10:29:07.970Z</time>
      </trkpt>
      <trkpt lat="52.070049" lon="6.427150">
        <ele>59.741235</ele>
        <time>2026-05-09T10:29:09.971Z</time>
      </trkpt>
      <trkpt lat="52.069936" lon="6.427147">
        <ele>59.736181</ele>
        <time>2026-05-09T10:29:11.970Z</time>
      </trkpt>
      <trkpt lat="52.069811" lon="6.427131">
        <ele>59.730574</ele>
        <time>2026-05-09T10:29:13.976Z</time>
      </trkpt>
      <trkpt lat="52.069690" lon="6.427141">
        <ele>59.725156</ele>
        <time>2026-05-09T10:29:15.976Z</time>
      </trkpt>
      <trkpt lat="52.069575" lon="6.427153">
        <ele>59.720003</ele>
        <time>2026-05-09T10:29:17.968Z</time>
      </trkpt>
      <trkpt lat="52.069459" lon="6.427169">
        <ele>59.714797</ele>
        <time>2026-05-09T10:29:19.969Z</time>
      </trkpt>
      <trkpt lat="52.069340" lon="6.427183">
        <ele>59.709462</ele>
        <time>2026-05-09T10:29:21.972Z</time>
      </trkpt>
      <trkpt lat="52.069222" lon="6.427199">
        <ele>59.704167</ele>
        <time>2026-05-09T10:29:23.969Z</time>
      </trkpt>
      <trkpt lat="52.069104" lon="6.427213">
        <ele>59.691200</ele>
        <time>2026-05-09T10:29:25.967Z</time>
      </trkpt>
      <trkpt lat="52.068988" lon="6.427226">
        <ele>59.665736</ele>
        <time>2026-05-09T10:29:27.971Z</time>
      </trkpt>
      <trkpt lat="52.068872" lon="6.427242">
        <ele>59.640242</ele>
        <time>2026-05-09T10:29:29.973Z</time>
      </trkpt>
      <trkpt lat="52.068761" lon="6.427256">
        <ele>59.615860</ele>
        <time>2026-05-09T10:29:31.966Z</time>
      </trkpt>
      <trkpt lat="52.068644" lon="6.427273">
        <ele>59.590135</ele>
        <time>2026-05-09T10:29:33.967Z</time>
      </trkpt>
      <trkpt lat="52.068527" lon="6.427286">
        <ele>59.564453</ele>
        <time>2026-05-09T10:29:35.969Z</time>
      </trkpt>
      <trkpt lat="52.068410" lon="6.427297">
        <ele>59.538788</ele>
        <time>2026-05-09T10:29:37.970Z</time>
      </trkpt>
      <trkpt lat="52.068297" lon="6.427313">
        <ele>59.513948</ele>
        <time>2026-05-09T10:29:39.973Z</time>
      </trkpt>
      <trkpt lat="52.068183" lon="6.427324">
        <ele>59.488938</ele>
        <time>2026-05-09T10:29:41.973Z</time>
      </trkpt>
      <trkpt lat="52.068072" lon="6.427332">
        <ele>59.464606</ele>
        <time>2026-05-09T10:29:43.972Z</time>
      </trkpt>
      <trkpt lat="52.067954" lon="6.427349">
        <ele>59.438663</ele>
        <time>2026-05-09T10:29:45.975Z</time>
      </trkpt>
      <trkpt lat="52.067834" lon="6.427358">
        <ele>59.412355</ele>
        <time>2026-05-09T10:29:47.968Z</time>
      </trkpt>
      <trkpt lat="52.067713" lon="6.427374">
        <ele>59.385769</ele>
        <time>2026-05-09T10:29:49.971Z</time>
      </trkpt>
      <trkpt lat="52.067589" lon="6.427384">
        <ele>59.358581</ele>
        <time>2026-05-09T10:29:51.967Z</time>
      </trkpt>
      <trkpt lat="52.067475" lon="6.427401">
        <ele>59.333510</ele>
        <time>2026-05-09T10:29:53.973Z</time>
      </trkpt>
      <trkpt lat="52.067358" lon="6.427418">
        <ele>59.307786</ele>
        <time>2026-05-09T10:29:55.972Z</time>
      </trkpt>
      <trkpt lat="52.067240" lon="6.427434">
        <ele>59.356220</ele>
        <time>2026-05-09T10:29:57.971Z</time>
      </trkpt>
      <trkpt lat="52.067124" lon="6.427444">
        <ele>59.406165</ele>
        <time>2026-05-09T10:29:59.978Z</time>
      </trkpt>
      <trkpt lat="52.067006" lon="6.427449">
        <ele>59.456918</ele>
        <time>2026-05-09T10:30:01.972Z</time>
      </trkpt>
      <trkpt lat="52.066888" lon="6.427466">
        <ele>59.507851</ele>
        <time>2026-05-09T10:30:03.972Z</time>
      </trkpt>
      <trkpt lat="52.066767" lon="6.427481">
        <ele>59.560027</ele>
        <time>2026-05-09T10:30:05.978Z</time>
      </trkpt>
      <trkpt lat="52.066653" lon="6.427495">
        <ele>59.609182</ele>
        <time>2026-05-09T10:30:07.972Z</time>
      </trkpt>
      <trkpt lat="52.066541" lon="6.427509">
        <ele>59.657480</ele>
        <time>2026-05-09T10:30:09.973Z</time>
      </trkpt>
      <trkpt lat="52.066427" lon="6.427519">
        <ele>59.706566</ele>
        <time>2026-05-09T10:30:11.977Z</time>
      </trkpt>
      <trkpt lat="52.066310" lon="6.427536">
        <ele>59.757072</ele>
        <time>2026-05-09T10:30:13.971Z</time>
      </trkpt>
      <trkpt lat="52.066191" lon="6.427568">
        <ele>59.808932</ele>
        <time>2026-05-09T10:30:15.972Z</time>
      </trkpt>
      <trkpt lat="52.066081" lon="6.427649">
        <ele>59.860847</ele>
        <time>2026-05-09T10:30:17.971Z</time>
      </trkpt>
      <trkpt lat="52.065960" lon="6.427614">
        <ele>59.913689</ele>
        <time>2026-05-09T10:30:19.977Z</time>
      </trkpt>
      <trkpt lat="52.065843" lon="6.427590">
        <ele>59.964392</ele>
        <time>2026-05-09T10:30:21.979Z</time>
      </trkpt>
      <trkpt lat="52.065728" lon="6.427605">
        <ele>60.013996</ele>
        <time>2026-05-09T10:30:23.971Z</time>
      </trkpt>
      <trkpt lat="52.065613" lon="6.427615">
        <ele>60.063512</ele>
        <time>2026-05-09T10:30:25.968Z</time>
      </trkpt>
      <trkpt lat="52.065493" lon="6.427630">
        <ele>60.068791</ele>
        <time>2026-05-09T10:30:27.971Z</time>
      </trkpt>
      <trkpt lat="52.065374" lon="6.427641">
        <ele>60.051931</ele>
        <time>2026-05-09T10:30:29.971Z</time>
      </trkpt>
      <trkpt lat="52.065253" lon="6.427653">
        <ele>60.034784</ele>
        <time>2026-05-09T10:30:31.972Z</time>
      </trkpt>
      <trkpt lat="52.065134" lon="6.427666">
        <ele>60.017913</ele>
        <time>2026-05-09T10:30:33.968Z</time>
      </trkpt>
      <trkpt lat="52.065019" lon="6.427675">
        <ele>60.001628</ele>
        <time>2026-05-09T10:30:35.967Z</time>
      </trkpt>
      <trkpt lat="52.064905" lon="6.427694">
        <ele>59.985418</ele>
        <time>2026-05-09T10:30:37.969Z</time>
      </trkpt>
      <trkpt lat="52.064790" lon="6.427705">
        <ele>59.969123</ele>
        <time>2026-05-09T10:30:39.976Z</time>
      </trkpt>
      <trkpt lat="52.064677" lon="6.427715">
        <ele>59.953115</ele>
        <time>2026-05-09T10:30:41.974Z</time>
      </trkpt>
      <trkpt lat="52.064565" lon="6.427729">
        <ele>59.937226</ele>
        <time>2026-05-09T10:30:43.975Z</time>
      </trkpt>
      <trkpt lat="52.064455" lon="6.427737">
        <ele>59.921651</ele>
        <time>2026-05-09T10:30:45.968Z</time>
      </trkpt>
      <trkpt lat="52.064345" lon="6.427754">
        <ele>59.906021</ele>
        <time>2026-05-09T10:30:47.972Z</time>
      </trkpt>
      <trkpt lat="52.064234" lon="6.427767">
        <ele>59.890280</ele>
        <time>2026-05-09T10:30:49.975Z</time>
      </trkpt>
      <trkpt lat="52.064134" lon="6.427798">
        <ele>59.875880</ele>
        <time>2026-05-09T10:30:51.971Z</time>
      </trkpt>
      <trkpt lat="52.064033" lon="6.427867">
        <ele>59.860385</ele>
        <time>2026-05-09T10:30:53.982Z</time>
      </trkpt>
      <trkpt lat="52.063928" lon="6.427841">
        <ele>59.845361</ele>
        <time>2026-05-09T10:30:55.974Z</time>
      </trkpt>
      <trkpt lat="52.063822" lon="6.427818">
        <ele>59.830235</ele>
        <time>2026-05-09T10:30:57.970Z</time>
      </trkpt>
      <trkpt lat="52.063714" lon="6.427835">
        <ele>59.819178</ele>
        <time>2026-05-09T10:30:59.971Z</time>
      </trkpt>
      <trkpt lat="52.063602" lon="6.427846">
        <ele>59.809506</ele>
        <time>2026-05-09T10:31:01.971Z</time>
      </trkpt>
      <trkpt lat="52.063488" lon="6.427859">
        <ele>59.799654</ele>
        <time>2026-05-09T10:31:03.970Z</time>
      </trkpt>
      <trkpt lat="52.063375" lon="6.427873">
        <ele>59.789885</ele>
        <time>2026-05-09T10:31:05.968Z</time>
      </trkpt>
      <trkpt lat="52.063265" lon="6.427884">
        <ele>59.780385</ele>
        <time>2026-05-09T10:31:07.977Z</time>
      </trkpt>
      <trkpt lat="52.063153" lon="6.427906">
        <ele>59.770660</ele>
        <time>2026-05-09T10:31:09.976Z</time>
      </trkpt>
      <trkpt lat="52.063035" lon="6.427916">
        <ele>59.760474</ele>
        <time>2026-05-09T10:31:11.971Z</time>
      </trkpt>
      <trkpt lat="52.062924" lon="6.427927">
        <ele>59.750887</ele>
        <time>2026-05-09T10:31:13.977Z</time>
      </trkpt>
      <trkpt lat="52.062815" lon="6.427940">
        <ele>59.741466</ele>
        <time>2026-05-09T10:31:15.971Z</time>
      </trkpt>
      <trkpt lat="52.062701" lon="6.427955">
        <ele>59.731606</ele>
        <time>2026-05-09T10:31:17.969Z</time>
      </trkpt>
      <trkpt lat="52.062591" lon="6.427960">
        <ele>59.722120</ele>
        <time>2026-05-09T10:31:19.982Z</time>
      </trkpt>
      <trkpt lat="52.062485" lon="6.427969">
        <ele>59.712970</ele>
        <time>2026-05-09T10:31:21.970Z</time>
      </trkpt>
      <trkpt lat="52.062377" lon="6.427978">
        <ele>59.703648</ele>
        <time>2026-05-09T10:31:23.973Z</time>
      </trkpt>
      <trkpt lat="52.062263" lon="6.427984">
        <ele>59.693815</ele>
        <time>2026-05-09T10:31:25.973Z</time>
      </trkpt>
      <trkpt lat="52.062143" lon="6.427985">
        <ele>59.683471</ele>
        <time>2026-05-09T10:31:27.974Z</time>
      </trkpt>
      <trkpt lat="52.062026" lon="6.427978">
        <ele>59.673378</ele>
        <time>2026-05-09T10:31:29.968Z</time>
      </trkpt>
      <trkpt lat="52.061913" lon="6.427956">
        <ele>59.698649</ele>
        <time>2026-05-09T10:31:31.968Z</time>
      </trkpt>
      <trkpt lat="52.061804" lon="6.427924">
        <ele>59.735261</ele>
        <time>2026-05-09T10:31:33.969Z</time>
      </trkpt>
      <trkpt lat="52.061692" lon="6.427887">
        <ele>59.773038</ele>
        <time>2026-05-09T10:31:35.974Z</time>
      </trkpt>
      <trkpt lat="52.061578" lon="6.427841">
        <ele>59.811863</ele>
        <time>2026-05-09T10:31:37.973Z</time>
      </trkpt>
      <trkpt lat="52.061467" lon="6.427794">
        <ele>59.849777</ele>
        <time>2026-05-09T10:31:39.974Z</time>
      </trkpt>
      <trkpt lat="52.061354" lon="6.427753">
        <ele>59.888047</ele>
        <time>2026-05-09T10:31:41.962Z</time>
      </trkpt>
      <trkpt lat="52.061241" lon="6.427710">
        <ele>59.926408</ele>
        <time>2026-05-09T10:31:43.979Z</time>
      </trkpt>
      <trkpt lat="52.061133" lon="6.427665">
        <ele>59.963260</ele>
        <time>2026-05-09T10:31:45.971Z</time>
      </trkpt>
      <trkpt lat="52.061023" lon="6.427616">
        <ele>60.000959</ele>
        <time>2026-05-09T10:31:47.980Z</time>
      </trkpt>
      <trkpt lat="52.060913" lon="6.427562">
        <ele>60.038939</ele>
        <time>2026-05-09T10:31:49.973Z</time>
      </trkpt>
      <trkpt lat="52.060802" lon="6.427511">
        <ele>60.077066</ele>
        <time>2026-05-09T10:31:51.970Z</time>
      </trkpt>
      <trkpt lat="52.060690" lon="6.427457">
        <ele>60.115680</ele>
        <time>2026-05-09T10:31:53.969Z</time>
      </trkpt>
      <trkpt lat="52.060580" lon="6.427411">
        <ele>60.153223</ele>
        <time>2026-05-09T10:31:55.969Z</time>
      </trkpt>
      <trkpt lat="52.060471" lon="6.427373">
        <ele>60.190071</ele>
        <time>2026-05-09T10:31:57.970Z</time>
      </trkpt>
      <trkpt lat="52.060358" lon="6.427330">
        <ele>60.228432</ele>
        <time>2026-05-09T10:31:59.978Z</time>
      </trkpt>
      <trkpt lat="52.060250" lon="6.427289">
        <ele>60.265091</ele>
        <time>2026-05-09T10:32:01.970Z</time>
      </trkpt>
      <trkpt lat="52.060140" lon="6.427246">
        <ele>60.295210</ele>
        <time>2026-05-09T10:32:03.973Z</time>
      </trkpt>
      <trkpt lat="52.060035" lon="6.427204">
        <ele>60.323947</ele>
        <time>2026-05-09T10:32:05.977Z</time>
      </trkpt>
      <trkpt lat="52.059928" lon="6.427160">
        <ele>60.353279</ele>
        <time>2026-05-09T10:32:07.977Z</time>
      </trkpt>
      <trkpt lat="52.059817" lon="6.427117">
        <ele>60.383604</ele>
        <time>2026-05-09T10:32:09.972Z</time>
      </trkpt>
      <trkpt lat="52.059712" lon="6.427074">
        <ele>60.412380</ele>
        <time>2026-05-09T10:32:11.976Z</time>
      </trkpt>
      <trkpt lat="52.059605" lon="6.427037">
        <ele>60.441452</ele>
        <time>2026-05-09T10:32:13.971Z</time>
      </trkpt>
      <trkpt lat="52.059497" lon="6.426994">
        <ele>60.471002</ele>
        <time>2026-05-09T10:32:15.971Z</time>
      </trkpt>
      <trkpt lat="52.059386" lon="6.426947">
        <ele>60.501485</ele>
        <time>2026-05-09T10:32:17.968Z</time>
      </trkpt>
      <trkpt lat="52.059277" lon="6.426902">
        <ele>60.531372</ele>
        <time>2026-05-09T10:32:19.972Z</time>
      </trkpt>
      <trkpt lat="52.059171" lon="6.426865">
        <ele>60.560185</ele>
        <time>2026-05-09T10:32:21.967Z</time>
      </trkpt>
      <trkpt lat="52.059062" lon="6.426823">
        <ele>60.589955</ele>
        <time>2026-05-09T10:32:23.974Z</time>
      </trkpt>
      <trkpt lat="52.058950" lon="6.426776">
        <ele>60.620695</ele>
        <time>2026-05-09T10:32:25.974Z</time>
      </trkpt>
      <trkpt lat="52.058837" lon="6.426732">
        <ele>60.651575</ele>
        <time>2026-05-09T10:32:27.970Z</time>
      </trkpt>
      <trkpt lat="52.058728" lon="6.426694">
        <ele>60.681201</ele>
        <time>2026-05-09T10:32:29.968Z</time>
      </trkpt>
      <trkpt lat="52.058624" lon="6.426658">
        <ele>60.709460</ele>
        <time>2026-05-09T10:32:31.972Z</time>
      </trkpt>
      <trkpt lat="52.058521" lon="6.426618">
        <ele>60.737603</ele>
        <time>2026-05-09T10:32:33.973Z</time>
      </trkpt>
      <trkpt lat="52.058416" lon="6.426579">
        <ele>60.725234</ele>
        <time>2026-05-09T10:32:35.971Z</time>
      </trkpt>
      <trkpt lat="52.058306" lon="6.426534">
        <ele>60.701298</ele>
        <time>2026-05-09T10:32:37.971Z</time>
      </trkpt>
      <trkpt lat="52.058198" lon="6.426495">
        <ele>60.677952</ele>
        <time>2026-05-09T10:32:39.973Z</time>
      </trkpt>
      <trkpt lat="52.058093" lon="6.426453">
        <ele>60.655135</ele>
        <time>2026-05-09T10:32:41.971Z</time>
      </trkpt>
      <trkpt lat="52.057986" lon="6.426414">
        <ele>60.631995</ele>
        <time>2026-05-09T10:32:43.969Z</time>
      </trkpt>
      <trkpt lat="52.057873" lon="6.426374">
        <ele>60.607591</ele>
        <time>2026-05-09T10:32:45.972Z</time>
      </trkpt>
      <trkpt lat="52.057755" lon="6.426330">
        <ele>60.582044</ele>
        <time>2026-05-09T10:32:47.971Z</time>
      </trkpt>
      <trkpt lat="52.057645" lon="6.426284">
        <ele>60.558076</ele>
        <time>2026-05-09T10:32:49.971Z</time>
      </trkpt>
      <trkpt lat="52.057538" lon="6.426233">
        <ele>60.534547</ele>
        <time>2026-05-09T10:32:51.977Z</time>
      </trkpt>
      <trkpt lat="52.057425" lon="6.426208">
        <ele>60.510482</ele>
        <time>2026-05-09T10:32:53.973Z</time>
      </trkpt>
      <trkpt lat="52.057307" lon="6.426184">
        <ele>60.485387</ele>
        <time>2026-05-09T10:32:55.977Z</time>
      </trkpt>
      <trkpt lat="52.057193" lon="6.426136">
        <ele>60.460537</ele>
        <time>2026-05-09T10:32:57.977Z</time>
      </trkpt>
      <trkpt lat="52.057085" lon="6.426080">
        <ele>60.436616</ele>
        <time>2026-05-09T10:32:59.968Z</time>
      </trkpt>
      <trkpt lat="52.056981" lon="6.426010">
        <ele>60.412864</ele>
        <time>2026-05-09T10:33:01.971Z</time>
      </trkpt>
      <trkpt lat="52.056874" lon="6.425937">
        <ele>60.388378</ele>
        <time>2026-05-09T10:33:03.969Z</time>
      </trkpt>
      <trkpt lat="52.056770" lon="6.425851">
        <ele>60.363855</ele>
        <time>2026-05-09T10:33:05.970Z</time>
      </trkpt>
      <trkpt lat="52.056667" lon="6.425763">
        <ele>60.377881</ele>
        <time>2026-05-09T10:33:07.969Z</time>
      </trkpt>
      <trkpt lat="52.056578" lon="6.425665">
        <ele>60.390838</ele>
        <time>2026-05-09T10:33:09.969Z</time>
      </trkpt>
      <trkpt lat="52.056491" lon="6.425560">
        <ele>60.403898</ele>
        <time>2026-05-09T10:33:11.974Z</time>
      </trkpt>
      <trkpt lat="52.056406" lon="6.425463">
        <ele>60.416416</ele>
        <time>2026-05-09T10:33:13.975Z</time>
      </trkpt>
      <trkpt lat="52.056323" lon="6.425363">
        <ele>60.428868</ele>
        <time>2026-05-09T10:33:15.974Z</time>
      </trkpt>
      <trkpt lat="52.056237" lon="6.425257">
        <ele>60.441876</ele>
        <time>2026-05-09T10:33:17.975Z</time>
      </trkpt>
      <trkpt lat="52.056146" lon="6.425156">
        <ele>60.455157</ele>
        <time>2026-05-09T10:33:19.974Z</time>
      </trkpt>
      <trkpt lat="52.056059" lon="6.425053">
        <ele>60.468130</ele>
        <time>2026-05-09T10:33:21.970Z</time>
      </trkpt>
      <trkpt lat="52.055978" lon="6.424949">
        <ele>60.480571</ele>
        <time>2026-05-09T10:33:23.973Z</time>
      </trkpt>
      <trkpt lat="52.055894" lon="6.424844">
        <ele>60.493342</ele>
        <time>2026-05-09T10:33:25.974Z</time>
      </trkpt>
      <trkpt lat="52.055811" lon="6.424748">
        <ele>60.505621</ele>
        <time>2026-05-09T10:33:27.972Z</time>
      </trkpt>
      <trkpt lat="52.055728" lon="6.424643">
        <ele>60.518297</ele>
        <time>2026-05-09T10:33:29.972Z</time>
      </trkpt>
      <trkpt lat="52.055640" lon="6.424532">
        <ele>60.531722</ele>
        <time>2026-05-09T10:33:31.969Z</time>
      </trkpt>
      <trkpt lat="52.055556" lon="6.424425">
        <ele>60.544585</ele>
        <time>2026-05-09T10:33:33.972Z</time>
      </trkpt>
      <trkpt lat="52.055466" lon="6.424317">
        <ele>60.558068</ele>
        <time>2026-05-09T10:33:35.968Z</time>
      </trkpt>
      <trkpt lat="52.055375" lon="6.424199">
        <ele>60.572098</ele>
        <time>2026-05-09T10:33:37.966Z</time>
      </trkpt>
      <trkpt lat="52.055291" lon="6.424088">
        <ele>60.578005</ele>
        <time>2026-05-09T10:33:39.974Z</time>
      </trkpt>
      <trkpt lat="52.055211" lon="6.423978">
        <ele>60.570592</ele>
        <time>2026-05-09T10:33:41.972Z</time>
      </trkpt>
      <trkpt lat="52.055133" lon="6.423871">
        <ele>60.563371</ele>
        <time>2026-05-09T10:33:43.970Z</time>
      </trkpt>
      <trkpt lat="52.055064" lon="6.423760">
        <ele>60.556504</ele>
        <time>2026-05-09T10:33:45.984Z</time>
      </trkpt>
      <trkpt lat="52.054992" lon="6.423658">
        <ele>60.549748</ele>
        <time>2026-05-09T10:33:47.978Z</time>
      </trkpt>
      <trkpt lat="52.054909" lon="6.423564">
        <ele>60.542591</ele>
        <time>2026-05-09T10:33:49.982Z</time>
      </trkpt>
      <trkpt lat="52.054853" lon="6.423412">
        <ele>60.534881</ele>
        <time>2026-05-09T10:33:51.977Z</time>
      </trkpt>
      <trkpt lat="52.054795" lon="6.423252">
        <ele>60.526800</ele>
        <time>2026-05-09T10:33:53.971Z</time>
      </trkpt>
      <trkpt lat="52.054730" lon="6.423100">
        <ele>60.518745</ele>
        <time>2026-05-09T10:33:55.978Z</time>
      </trkpt>
      <trkpt lat="52.054666" lon="6.422951">
        <ele>60.510837</ele>
        <time>2026-05-09T10:33:57.976Z</time>
      </trkpt>
      <trkpt lat="52.054608" lon="6.422803">
        <ele>60.503201</ele>
        <time>2026-05-09T10:33:59.976Z</time>
      </trkpt>
      <trkpt lat="52.054547" lon="6.422647">
        <ele>60.495157</ele>
        <time>2026-05-09T10:34:01.974Z</time>
      </trkpt>
      <trkpt lat="52.054485" lon="6.422492">
        <ele>60.487112</ele>
        <time>2026-05-09T10:34:03.969Z</time>
      </trkpt>
      <trkpt lat="52.054422" lon="6.422342">
        <ele>60.479209</ele>
        <time>2026-05-09T10:34:05.974Z</time>
      </trkpt>
      <trkpt lat="52.054364" lon="6.422193">
        <ele>60.471536</ele>
        <time>2026-05-09T10:34:07.970Z</time>
      </trkpt>
      <trkpt lat="52.054304" lon="6.422041">
        <ele>60.463677</ele>
        <time>2026-05-09T10:34:09.969Z</time>
      </trkpt>
      <trkpt lat="52.054247" lon="6.421892">
        <ele>60.456042</ele>
        <time>2026-05-09T10:34:11.972Z</time>
      </trkpt>
      <trkpt lat="52.054190" lon="6.421742">
        <ele>60.462443</ele>
        <time>2026-05-09T10:34:13.970Z</time>
      </trkpt>
      <trkpt lat="52.054138" lon="6.421607">
        <ele>60.474986</ele>
        <time>2026-05-09T10:34:15.971Z</time>
      </trkpt>
      <trkpt lat="52.054082" lon="6.421480">
        <ele>60.487292</ele>
        <time>2026-05-09T10:34:17.973Z</time>
      </trkpt>
      <trkpt lat="52.054024" lon="6.421354">
        <ele>60.499685</ele>
        <time>2026-05-09T10:34:19.969Z</time>
      </trkpt>
      <trkpt lat="52.053961" lon="6.421229">
        <ele>60.512411</ele>
        <time>2026-05-09T10:34:21.974Z</time>
      </trkpt>
      <trkpt lat="52.053892" lon="6.421098">
        <ele>60.525993</ele>
        <time>2026-05-09T10:34:23.973Z</time>
      </trkpt>
      <trkpt lat="52.053813" lon="6.420972">
        <ele>60.540163</ele>
        <time>2026-05-09T10:34:25.974Z</time>
      </trkpt>
      <trkpt lat="52.053727" lon="6.420857">
        <ele>60.554420</ele>
        <time>2026-05-09T10:34:27.971Z</time>
      </trkpt>
      <trkpt lat="52.053634" lon="6.420743">
        <ele>60.569333</ele>
        <time>2026-05-09T10:34:29.972Z</time>
      </trkpt>
      <trkpt lat="52.053537" lon="6.420635">
        <ele>60.584386</ele>
        <time>2026-05-09T10:34:31.979Z</time>
      </trkpt>
      <trkpt lat="52.053441" lon="6.420520">
        <ele>60.599654</ele>
        <time>2026-05-09T10:34:33.972Z</time>
      </trkpt>
      <trkpt lat="52.053346" lon="6.420415">
        <ele>60.614363</ele>
        <time>2026-05-09T10:34:35.971Z</time>
      </trkpt>
      <trkpt lat="52.053246" lon="6.420305">
        <ele>60.629823</ele>
        <time>2026-05-09T10:34:37.970Z</time>
      </trkpt>
      <trkpt lat="52.053146" lon="6.420188">
        <ele>60.645598</ele>
        <time>2026-05-09T10:34:39.974Z</time>
      </trkpt>
      <trkpt lat="52.053047" lon="6.420080">
        <ele>60.660863</ele>
        <time>2026-05-09T10:34:41.973Z</time>
      </trkpt>
      <trkpt lat="52.052955" lon="6.419976">
        <ele>60.675210</ele>
        <time>2026-05-09T10:34:43.970Z</time>
      </trkpt>
      <trkpt lat="52.052867" lon="6.419865">
        <ele>60.688379</ele>
        <time>2026-05-09T10:34:45.971Z</time>
      </trkpt>
      <trkpt lat="52.052775" lon="6.419754">
        <ele>60.700273</ele>
        <time>2026-05-09T10:34:47.968Z</time>
      </trkpt>
      <trkpt lat="52.052681" lon="6.419638">
        <ele>60.712524</ele>
        <time>2026-05-09T10:34:49.971Z</time>
      </trkpt>
      <trkpt lat="52.052586" lon="6.419527">
        <ele>60.724670</ele>
        <time>2026-05-09T10:34:51.970Z</time>
      </trkpt>
      <trkpt lat="52.052488" lon="6.419425">
        <ele>60.736750</ele>
        <time>2026-05-09T10:34:53.970Z</time>
      </trkpt>
      <trkpt lat="52.052396" lon="6.419316">
        <ele>60.748568</ele>
        <time>2026-05-09T10:34:55.971Z</time>
      </trkpt>
      <trkpt lat="52.052303" lon="6.419196">
        <ele>60.760894</ele>
        <time>2026-05-09T10:34:57.971Z</time>
      </trkpt>
      <trkpt lat="52.052206" lon="6.419079">
        <ele>60.773433</ele>
        <time>2026-05-09T10:34:59.966Z</time>
      </trkpt>
      <trkpt lat="52.052112" lon="6.418969">
        <ele>60.785457</ele>
        <time>2026-05-09T10:35:01.974Z</time>
      </trkpt>
      <trkpt lat="52.052017" lon="6.418854">
        <ele>60.797753</ele>
        <time>2026-05-09T10:35:03.975Z</time>
      </trkpt>
      <trkpt lat="52.051919" lon="6.418732">
        <ele>60.810567</ele>
        <time>2026-05-09T10:35:05.976Z</time>
      </trkpt>
      <trkpt lat="52.051822" lon="6.418612">
        <ele>60.823221</ele>
        <time>2026-05-09T10:35:07.967Z</time>
      </trkpt>
      <trkpt lat="52.051729" lon="6.418491">
        <ele>60.835587</ele>
        <time>2026-05-09T10:35:09.973Z</time>
      </trkpt>
      <trkpt lat="52.051637" lon="6.418373">
        <ele>60.847752</ele>
        <time>2026-05-09T10:35:11.973Z</time>
      </trkpt>
      <trkpt lat="52.051542" lon="6.418253">
        <ele>60.860242</ele>
        <time>2026-05-09T10:35:13.971Z</time>
      </trkpt>
      <trkpt lat="52.051443" lon="6.418130">
        <ele>60.870905</ele>
        <time>2026-05-09T10:35:15.970Z</time>
      </trkpt>
      <trkpt lat="52.051347" lon="6.417999">
        <ele>60.873112</ele>
        <time>2026-05-09T10:35:17.970Z</time>
      </trkpt>
      <trkpt lat="52.051245" lon="6.417867">
        <ele>60.875407</ele>
        <time>2026-05-09T10:35:19.970Z</time>
      </trkpt>
      <trkpt lat="52.051146" lon="6.417735">
        <ele>60.877662</ele>
        <time>2026-05-09T10:35:21.974Z</time>
      </trkpt>
      <trkpt lat="52.051048" lon="6.417601">
        <ele>60.879917</ele>
        <time>2026-05-09T10:35:23.970Z</time>
      </trkpt>
      <trkpt lat="52.050952" lon="6.417477">
        <ele>60.882075</ele>
        <time>2026-05-09T10:35:25.977Z</time>
      </trkpt>
      <trkpt lat="52.050854" lon="6.417356">
        <ele>60.884242</ele>
        <time>2026-05-09T10:35:27.974Z</time>
      </trkpt>
      <trkpt lat="52.050757" lon="6.417225">
        <ele>60.886463</ele>
        <time>2026-05-09T10:35:29.977Z</time>
      </trkpt>
      <trkpt lat="52.050660" lon="6.417097">
        <ele>60.888662</ele>
        <time>2026-05-09T10:35:31.968Z</time>
      </trkpt>
      <trkpt lat="52.050561" lon="6.416977">
        <ele>60.890837</ele>
        <time>2026-05-09T10:35:33.973Z</time>
      </trkpt>
      <trkpt lat="52.050467" lon="6.416840">
        <ele>60.893060</ele>
        <time>2026-05-09T10:35:35.971Z</time>
      </trkpt>
      <trkpt lat="52.050377" lon="6.416703">
        <ele>60.895230</ele>
        <time>2026-05-09T10:35:37.971Z</time>
      </trkpt>
      <trkpt lat="52.050293" lon="6.416560">
        <ele>60.897372</ele>
        <time>2026-05-09T10:35:39.973Z</time>
      </trkpt>
      <trkpt lat="52.050213" lon="6.416422">
        <ele>60.899426</ele>
        <time>2026-05-09T10:35:41.970Z</time>
      </trkpt>
      <trkpt lat="52.050133" lon="6.416290">
        <ele>60.901433</ele>
        <time>2026-05-09T10:35:43.970Z</time>
      </trkpt>
      <trkpt lat="52.050046" lon="6.416167">
        <ele>60.896035</ele>
        <time>2026-05-09T10:35:45.971Z</time>
      </trkpt>
      <trkpt lat="52.049949" lon="6.416067">
        <ele>60.886921</ele>
        <time>2026-05-09T10:35:47.969Z</time>
      </trkpt>
      <trkpt lat="52.049869" lon="6.415929">
        <ele>60.877666</ele>
        <time>2026-05-09T10:35:49.977Z</time>
      </trkpt>
      <trkpt lat="52.049800" lon="6.415766">
        <ele>60.868009</ele>
        <time>2026-05-09T10:35:51.970Z</time>
      </trkpt>
      <trkpt lat="52.049746" lon="6.415589">
        <ele>60.858366</ele>
        <time>2026-05-09T10:35:53.976Z</time>
      </trkpt>
      <trkpt lat="52.049668" lon="6.415445">
        <ele>60.849002</ele>
        <time>2026-05-09T10:35:55.977Z</time>
      </trkpt>
      <trkpt lat="52.049587" lon="6.415303">
        <ele>60.839550</ele>
        <time>2026-05-09T10:35:57.978Z</time>
      </trkpt>
      <trkpt lat="52.049500" lon="6.415164">
        <ele>60.829871</ele>
        <time>2026-05-09T10:35:59.975Z</time>
      </trkpt>
      <trkpt lat="52.049421" lon="6.415026">
        <ele>60.820670</ele>
        <time>2026-05-09T10:36:01.976Z</time>
      </trkpt>
      <trkpt lat="52.049342" lon="6.414894">
        <ele>60.811682</ele>
        <time>2026-05-09T10:36:03.969Z</time>
      </trkpt>
      <trkpt lat="52.049250" lon="6.414770">
        <ele>60.802199</ele>
        <time>2026-05-09T10:36:05.969Z</time>
      </trkpt>
      <trkpt lat="52.049155" lon="6.414654">
        <ele>60.792771</ele>
        <time>2026-05-09T10:36:07.969Z</time>
      </trkpt>
      <trkpt lat="52.049053" lon="6.414545">
        <ele>60.783086</ele>
        <time>2026-05-09T10:36:09.971Z</time>
      </trkpt>
      <trkpt lat="52.048953" lon="6.414439">
        <ele>60.773613</ele>
        <time>2026-05-09T10:36:11.971Z</time>
      </trkpt>
      <trkpt lat="52.048844" lon="6.414354">
        <ele>60.764020</ele>
        <time>2026-05-09T10:36:13.975Z</time>
      </trkpt>
      <trkpt lat="52.048733" lon="6.414265">
        <ele>60.804214</ele>
        <time>2026-05-09T10:36:15.972Z</time>
      </trkpt>
      <trkpt lat="52.048624" lon="6.414178">
        <ele>60.887544</ele>
        <time>2026-05-09T10:36:17.975Z</time>
      </trkpt>
      <trkpt lat="52.048523" lon="6.414099">
        <ele>60.964461</ele>
        <time>2026-05-09T10:36:19.973Z</time>
      </trkpt>
      <trkpt lat="52.048417" lon="6.414021">
        <ele>61.044309</ele>
        <time>2026-05-09T10:36:21.973Z</time>
      </trkpt>
      <trkpt lat="52.048309" lon="6.413941">
        <ele>61.125756</ele>
        <time>2026-05-09T10:36:23.973Z</time>
      </trkpt>
      <trkpt lat="52.048202" lon="6.413867">
        <ele>61.205554</ele>
        <time>2026-05-09T10:36:25.975Z</time>
      </trkpt>
      <trkpt lat="52.048095" lon="6.413795">
        <ele>61.285025</ele>
        <time>2026-05-09T10:36:27.969Z</time>
      </trkpt>
      <trkpt lat="52.047994" lon="6.413712">
        <ele>61.362689</ele>
        <time>2026-05-09T10:36:29.972Z</time>
      </trkpt>
      <trkpt lat="52.047897" lon="6.413626">
        <ele>61.438511</ele>
        <time>2026-05-09T10:36:31.971Z</time>
      </trkpt>
      <trkpt lat="52.047802" lon="6.413529">
        <ele>61.515496</ele>
        <time>2026-05-09T10:36:33.973Z</time>
      </trkpt>
      <trkpt lat="52.047710" lon="6.413424">
        <ele>61.592635</ele>
        <time>2026-05-09T10:36:35.972Z</time>
      </trkpt>
      <trkpt lat="52.047610" lon="6.413340">
        <ele>61.669879</ele>
        <time>2026-05-09T10:36:37.973Z</time>
      </trkpt>
      <trkpt lat="52.047506" lon="6.413260">
        <ele>61.748836</ele>
        <time>2026-05-09T10:36:39.973Z</time>
      </trkpt>
      <trkpt lat="52.047404" lon="6.413179">
        <ele>61.826739</ele>
        <time>2026-05-09T10:36:41.980Z</time>
      </trkpt>
      <trkpt lat="52.047300" lon="6.413098">
        <ele>61.905878</ele>
        <time>2026-05-09T10:36:43.971Z</time>
      </trkpt>
      <trkpt lat="52.047200" lon="6.413029">
        <ele>61.980430</ele>
        <time>2026-05-09T10:36:45.970Z</time>
      </trkpt>
      <trkpt lat="52.047104" lon="6.412951">
        <ele>61.937099</ele>
        <time>2026-05-09T10:36:47.972Z</time>
      </trkpt>
      <trkpt lat="52.047010" lon="6.412870">
        <ele>61.868528</ele>
        <time>2026-05-09T10:36:49.970Z</time>
      </trkpt>
      <trkpt lat="52.046912" lon="6.412790">
        <ele>61.797848</ele>
        <time>2026-05-09T10:36:51.979Z</time>
      </trkpt>
      <trkpt lat="52.046813" lon="6.412715">
        <ele>61.727450</ele>
        <time>2026-05-09T10:36:53.971Z</time>
      </trkpt>
      <trkpt lat="52.046715" lon="6.412638">
        <ele>61.657295</ele>
        <time>2026-05-09T10:36:55.971Z</time>
      </trkpt>
      <trkpt lat="52.046616" lon="6.412559">
        <ele>61.586214</ele>
        <time>2026-05-09T10:36:57.971Z</time>
      </trkpt>
      <trkpt lat="52.046517" lon="6.412483">
        <ele>61.515648</ele>
        <time>2026-05-09T10:36:59.970Z</time>
      </trkpt>
      <trkpt lat="52.046414" lon="6.412404">
        <ele>61.442243</ele>
        <time>2026-05-09T10:37:01.984Z</time>
      </trkpt>
      <trkpt lat="52.046313" lon="6.412320">
        <ele>61.369120</ele>
        <time>2026-05-09T10:37:03.972Z</time>
      </trkpt>
      <trkpt lat="52.046208" lon="6.412246">
        <ele>61.295358</ele>
        <time>2026-05-09T10:37:05.975Z</time>
      </trkpt>
      <trkpt lat="52.046107" lon="6.412169">
        <ele>61.223457</ele>
        <time>2026-05-09T10:37:07.977Z</time>
      </trkpt>
      <trkpt lat="52.046007" lon="6.412119">
        <ele>61.156022</ele>
        <time>2026-05-09T10:37:09.969Z</time>
      </trkpt>
      <trkpt lat="52.045910" lon="6.412081">
        <ele>61.091711</ele>
        <time>2026-05-09T10:37:11.981Z</time>
      </trkpt>
      <trkpt lat="52.045816" lon="6.412004">
        <ele>61.023868</ele>
        <time>2026-05-09T10:37:13.974Z</time>
      </trkpt>
      <trkpt lat="52.045723" lon="6.411922">
        <ele>60.955677</ele>
        <time>2026-05-09T10:37:15.967Z</time>
      </trkpt>
      <trkpt lat="52.045631" lon="6.411815">
        <ele>60.882769</ele>
        <time>2026-05-09T10:37:17.972Z</time>
      </trkpt>
      <trkpt lat="52.045534" lon="6.411724">
        <ele>60.825882</ele>
        <time>2026-05-09T10:37:19.974Z</time>
      </trkpt>
      <trkpt lat="52.045429" lon="6.411647">
        <ele>60.799271</ele>
        <time>2026-05-09T10:37:21.973Z</time>
      </trkpt>
      <trkpt lat="52.045326" lon="6.411567">
        <ele>60.772899</ele>
        <time>2026-05-09T10:37:23.974Z</time>
      </trkpt>
      <trkpt lat="52.045230" lon="6.411495">
        <ele>60.748475</ele>
        <time>2026-05-09T10:37:25.969Z</time>
      </trkpt>
      <trkpt lat="52.045134" lon="6.411419">
        <ele>60.723807</ele>
        <time>2026-05-09T10:37:27.972Z</time>
      </trkpt>
      <trkpt lat="52.045033" lon="6.411341">
        <ele>60.697975</ele>
        <time>2026-05-09T10:37:29.973Z</time>
      </trkpt>
      <trkpt lat="52.044933" lon="6.411264">
        <ele>60.672413</ele>
        <time>2026-05-09T10:37:31.971Z</time>
      </trkpt>
      <trkpt lat="52.044830" lon="6.411184">
        <ele>60.646041</ele>
        <time>2026-05-09T10:37:33.970Z</time>
      </trkpt>
      <trkpt lat="52.044728" lon="6.411100">
        <ele>60.619626</ele>
        <time>2026-05-09T10:37:35.964Z</time>
      </trkpt>
      <trkpt lat="52.044628" lon="6.411019">
        <ele>60.593815</ele>
        <time>2026-05-09T10:37:37.979Z</time>
      </trkpt>
      <trkpt lat="52.044526" lon="6.410944">
        <ele>60.567953</ele>
        <time>2026-05-09T10:37:39.972Z</time>
      </trkpt>
      <trkpt lat="52.044420" lon="6.410867">
        <ele>60.541131</ele>
        <time>2026-05-09T10:37:41.973Z</time>
      </trkpt>
      <trkpt lat="52.044314" lon="6.410783">
        <ele>60.513888</ele>
        <time>2026-05-09T10:37:43.971Z</time>
      </trkpt>
      <trkpt lat="52.044209" lon="6.410700">
        <ele>60.486916</ele>
        <time>2026-05-09T10:37:45.972Z</time>
      </trkpt>
      <trkpt lat="52.044103" lon="6.410618">
        <ele>60.459796</ele>
        <time>2026-05-09T10:37:47.976Z</time>
      </trkpt>
      <trkpt lat="52.043999" lon="6.410537">
        <ele>60.433155</ele>
        <time>2026-05-09T10:37:49.974Z</time>
      </trkpt>
      <trkpt lat="52.043897" lon="6.410463">
        <ele>60.419827</ele>
        <time>2026-05-09T10:37:51.970Z</time>
      </trkpt>
      <trkpt lat="52.043790" lon="6.410397">
        <ele>60.421968</ele>
        <time>2026-05-09T10:37:53.979Z</time>
      </trkpt>
      <trkpt lat="52.043685" lon="6.410336">
        <ele>60.424053</ele>
        <time>2026-05-09T10:37:55.976Z</time>
      </trkpt>
      <trkpt lat="52.043573" lon="6.410280">
        <ele>60.426244</ele>
        <time>2026-05-09T10:37:57.975Z</time>
      </trkpt>
      <trkpt lat="52.043457" lon="6.410236">
        <ele>60.428472</ele>
        <time>2026-05-09T10:37:59.976Z</time>
      </trkpt>
      <trkpt lat="52.043339" lon="6.410204">
        <ele>60.430709</ele>
        <time>2026-05-09T10:38:01.969Z</time>
      </trkpt>
      <trkpt lat="52.043229" lon="6.410178">
        <ele>60.432788</ele>
        <time>2026-05-09T10:38:03.970Z</time>
      </trkpt>
      <trkpt lat="52.043114" lon="6.410154">
        <ele>60.434956</ele>
        <time>2026-05-09T10:38:05.977Z</time>
      </trkpt>
      <trkpt lat="52.042993" lon="6.410140">
        <ele>60.437224</ele>
        <time>2026-05-09T10:38:07.977Z</time>
      </trkpt>
      <trkpt lat="52.042873" lon="6.410145">
        <ele>60.439469</ele>
        <time>2026-05-09T10:38:09.967Z</time>
      </trkpt>
      <trkpt lat="52.042749" lon="6.410150">
        <ele>60.441789</ele>
        <time>2026-05-09T10:38:11.965Z</time>
      </trkpt>
      <trkpt lat="52.042620" lon="6.410143">
        <ele>60.444203</ele>
        <time>2026-05-09T10:38:13.974Z</time>
      </trkpt>
      <trkpt lat="52.042496" lon="6.410128">
        <ele>60.446528</ele>
        <time>2026-05-09T10:38:15.975Z</time>
      </trkpt>
      <trkpt lat="52.042383" lon="6.410111">
        <ele>60.448650</ele>
        <time>2026-05-09T10:38:17.968Z</time>
      </trkpt>
      <trkpt lat="52.042269" lon="6.410080">
        <ele>60.450812</ele>
        <time>2026-05-09T10:38:19.975Z</time>
      </trkpt>
      <trkpt lat="52.042150" lon="6.410074">
        <ele>60.453365</ele>
        <time>2026-05-09T10:38:21.971Z</time>
      </trkpt>
      <trkpt lat="52.042027" lon="6.410074">
        <ele>60.457144</ele>
        <time>2026-05-09T10:38:23.975Z</time>
      </trkpt>
      <trkpt lat="52.041908" lon="6.410010">
        <ele>60.460995</ele>
        <time>2026-05-09T10:38:25.977Z</time>
      </trkpt>
      <trkpt lat="52.041782" lon="6.409987">
        <ele>60.464890</ele>
        <time>2026-05-09T10:38:27.978Z</time>
      </trkpt>
      <trkpt lat="52.041661" lon="6.409961">
        <ele>60.468639</ele>
        <time>2026-05-09T10:38:29.971Z</time>
      </trkpt>
      <trkpt lat="52.041539" lon="6.409941">
        <ele>60.472406</ele>
        <time>2026-05-09T10:38:31.972Z</time>
      </trkpt>
      <trkpt lat="52.041416" lon="6.409916">
        <ele>60.476214</ele>
        <time>2026-05-09T10:38:33.968Z</time>
      </trkpt>
      <trkpt lat="52.041296" lon="6.409896">
        <ele>60.479920</ele>
        <time>2026-05-09T10:38:35.971Z</time>
      </trkpt>
      <trkpt lat="52.041181" lon="6.409868">
        <ele>60.483492</ele>
        <time>2026-05-09T10:38:37.978Z</time>
      </trkpt>
      <trkpt lat="52.041062" lon="6.409845">
        <ele>60.487174</ele>
        <time>2026-05-09T10:38:39.978Z</time>
      </trkpt>
      <trkpt lat="52.040944" lon="6.409831">
        <ele>60.490808</ele>
        <time>2026-05-09T10:38:41.979Z</time>
      </trkpt>
      <trkpt lat="52.040828" lon="6.409807">
        <ele>60.494401</ele>
        <time>2026-05-09T10:38:43.971Z</time>
      </trkpt>
      <trkpt lat="52.040718" lon="6.409784">
        <ele>60.497808</ele>
        <time>2026-05-09T10:38:45.971Z</time>
      </trkpt>
      <trkpt lat="52.040610" lon="6.409765">
        <ele>60.501145</ele>
        <time>2026-05-09T10:38:47.974Z</time>
      </trkpt>
      <trkpt lat="52.040503" lon="6.409744">
        <ele>60.504456</ele>
        <time>2026-05-09T10:38:49.977Z</time>
      </trkpt>
      <trkpt lat="52.040391" lon="6.409725">
        <ele>60.507632</ele>
        <time>2026-05-09T10:38:51.976Z</time>
      </trkpt>
      <trkpt lat="52.040275" lon="6.409710">
        <ele>60.503436</ele>
        <time>2026-05-09T10:38:53.971Z</time>
      </trkpt>
      <trkpt lat="52.040160" lon="6.409689">
        <ele>60.499263</ele>
        <time>2026-05-09T10:38:55.983Z</time>
      </trkpt>
      <trkpt lat="52.040045" lon="6.409670">
        <ele>60.495096</ele>
        <time>2026-05-09T10:38:57.975Z</time>
      </trkpt>
      <trkpt lat="52.039924" lon="6.409647">
        <ele>60.490703</ele>
        <time>2026-05-09T10:38:59.974Z</time>
      </trkpt>
      <trkpt lat="52.039807" lon="6.409622">
        <ele>60.486448</ele>
        <time>2026-05-09T10:39:01.976Z</time>
      </trkpt>
      <trkpt lat="52.039689" lon="6.409607">
        <ele>60.482181</ele>
        <time>2026-05-09T10:39:03.974Z</time>
      </trkpt>
      <trkpt lat="52.039568" lon="6.409585">
        <ele>60.477791</ele>
        <time>2026-05-09T10:39:05.975Z</time>
      </trkpt>
      <trkpt lat="52.039450" lon="6.409560">
        <ele>60.473500</ele>
        <time>2026-05-09T10:39:07.974Z</time>
      </trkpt>
      <trkpt lat="52.039328" lon="6.409536">
        <ele>60.469069</ele>
        <time>2026-05-09T10:39:09.971Z</time>
      </trkpt>
      <trkpt lat="52.039211" lon="6.409516">
        <ele>60.464827</ele>
        <time>2026-05-09T10:39:11.975Z</time>
      </trkpt>
      <trkpt lat="52.039095" lon="6.409490">
        <ele>60.460605</ele>
        <time>2026-05-09T10:39:13.969Z</time>
      </trkpt>
      <trkpt lat="52.038976" lon="6.409473">
        <ele>60.456298</ele>
        <time>2026-05-09T10:39:15.969Z</time>
      </trkpt>
      <trkpt lat="52.038857" lon="6.409452">
        <ele>60.451982</ele>
        <time>2026-05-09T10:39:17.973Z</time>
      </trkpt>
      <trkpt lat="52.038742" lon="6.409438">
        <ele>60.447824</ele>
        <time>2026-05-09T10:39:19.967Z</time>
      </trkpt>
      <trkpt lat="52.038627" lon="6.409411">
        <ele>60.443634</ele>
        <time>2026-05-09T10:39:21.973Z</time>
      </trkpt>
      <trkpt lat="52.038512" lon="6.409400">
        <ele>60.431689</ele>
        <time>2026-05-09T10:39:23.968Z</time>
      </trkpt>
      <trkpt lat="52.038393" lon="6.409420">
        <ele>60.417637</ele>
        <time>2026-05-09T10:39:25.979Z</time>
      </trkpt>
      <trkpt lat="52.038281" lon="6.409362">
        <ele>60.403832</ele>
        <time>2026-05-09T10:39:27.972Z</time>
      </trkpt>
      <trkpt lat="52.038164" lon="6.409332">
        <ele>60.389920</ele>
        <time>2026-05-09T10:39:29.965Z</time>
      </trkpt>
      <trkpt lat="52.038045" lon="6.409304">
        <ele>60.375797</ele>
        <time>2026-05-09T10:39:31.978Z</time>
      </trkpt>
      <trkpt lat="52.037929" lon="6.409281">
        <ele>60.362072</ele>
        <time>2026-05-09T10:39:33.970Z</time>
      </trkpt>
      <trkpt lat="52.037811" lon="6.409258">
        <ele>60.348114</ele>
        <time>2026-05-09T10:39:35.972Z</time>
      </trkpt>
      <trkpt lat="52.037690" lon="6.409236">
        <ele>60.333813</ele>
        <time>2026-05-09T10:39:37.973Z</time>
      </trkpt>
      <trkpt lat="52.037568" lon="6.409214">
        <ele>60.319396</ele>
        <time>2026-05-09T10:39:39.971Z</time>
      </trkpt>
      <trkpt lat="52.037443" lon="6.409191">
        <ele>60.304621</ele>
        <time>2026-05-09T10:39:41.966Z</time>
      </trkpt>
      <trkpt lat="52.037315" lon="6.409173">
        <ele>60.289531</ele>
        <time>2026-05-09T10:39:43.963Z</time>
      </trkpt>
      <trkpt lat="52.037192" lon="6.409148">
        <ele>60.274972</ele>
        <time>2026-05-09T10:39:45.970Z</time>
      </trkpt>
      <trkpt lat="52.037076" lon="6.409123">
        <ele>60.261228</ele>
        <time>2026-05-09T10:39:47.970Z</time>
      </trkpt>
      <trkpt lat="52.036962" lon="6.409101">
        <ele>60.247745</ele>
        <time>2026-05-09T10:39:49.968Z</time>
      </trkpt>
      <trkpt lat="52.036848" lon="6.409078">
        <ele>60.234253</ele>
        <time>2026-05-09T10:39:51.969Z</time>
      </trkpt>
      <trkpt lat="52.036735" lon="6.409059">
        <ele>60.243970</ele>
        <time>2026-05-09T10:39:53.971Z</time>
      </trkpt>
      <trkpt lat="52.036627" lon="6.409042">
        <ele>60.258515</ele>
        <time>2026-05-09T10:39:55.978Z</time>
      </trkpt>
      <trkpt lat="52.036516" lon="6.409023">
        <ele>60.273477</ele>
        <time>2026-05-09T10:39:57.972Z</time>
      </trkpt>
      <trkpt lat="52.036406" lon="6.409004">
        <ele>60.288306</ele>
        <time>2026-05-09T10:39:59.969Z</time>
      </trkpt>
      <trkpt lat="52.036305" lon="6.408988">
        <ele>60.301909</ele>
        <time>2026-05-09T10:40:01.967Z</time>
      </trkpt>
      <trkpt lat="52.036202" lon="6.408962">
        <ele>60.315882</ele>
        <time>2026-05-09T10:40:03.971Z</time>
      </trkpt>
      <trkpt lat="52.036099" lon="6.408948">
        <ele>60.329737</ele>
        <time>2026-05-09T10:40:05.965Z</time>
      </trkpt>
      <trkpt lat="52.036001" lon="6.408934">
        <ele>60.342925</ele>
        <time>2026-05-09T10:40:07.964Z</time>
      </trkpt>
      <trkpt lat="52.035906" lon="6.408917">
        <ele>60.355737</ele>
        <time>2026-05-09T10:40:09.967Z</time>
      </trkpt>
      <trkpt lat="52.035806" lon="6.408903">
        <ele>60.369192</ele>
        <time>2026-05-09T10:40:11.973Z</time>
      </trkpt>
      <trkpt lat="52.035702" lon="6.408883">
        <ele>60.383230</ele>
        <time>2026-05-09T10:40:13.973Z</time>
      </trkpt>
      <trkpt lat="52.035596" lon="6.408855">
        <ele>60.397626</ele>
        <time>2026-05-09T10:40:15.972Z</time>
      </trkpt>
      <trkpt lat="52.035483" lon="6.408838">
        <ele>60.412839</ele>
        <time>2026-05-09T10:40:17.973Z</time>
      </trkpt>
      <trkpt lat="52.035369" lon="6.408821">
        <ele>60.428185</ele>
        <time>2026-05-09T10:40:19.967Z</time>
      </trkpt>
      <trkpt lat="52.035265" lon="6.408796">
        <ele>60.442278</ele>
        <time>2026-05-09T10:40:21.967Z</time>
      </trkpt>
      <trkpt lat="52.035156" lon="6.408771">
        <ele>60.457034</ele>
        <time>2026-05-09T10:40:23.973Z</time>
      </trkpt>
      <trkpt lat="52.035047" lon="6.408758">
        <ele>60.471685</ele>
        <time>2026-05-09T10:40:25.969Z</time>
      </trkpt>
      <trkpt lat="52.034946" lon="6.408736">
        <ele>60.475188</ele>
        <time>2026-05-09T10:40:27.966Z</time>
      </trkpt>
      <trkpt lat="52.034841" lon="6.408723">
        <ele>60.477885</ele>
        <time>2026-05-09T10:40:29.969Z</time>
      </trkpt>
      <trkpt lat="52.034729" lon="6.408704">
        <ele>60.480769</ele>
        <time>2026-05-09T10:40:31.977Z</time>
      </trkpt>
      <trkpt lat="52.034613" lon="6.408685">
        <ele>60.483754</ele>
        <time>2026-05-09T10:40:33.970Z</time>
      </trkpt>
      <trkpt lat="52.034491" lon="6.408657">
        <ele>60.486910</ele>
        <time>2026-05-09T10:40:35.972Z</time>
      </trkpt>
      <trkpt lat="52.034361" lon="6.408637">
        <ele>60.490254</ele>
        <time>2026-05-09T10:40:37.972Z</time>
      </trkpt>
      <trkpt lat="52.034233" lon="6.408620">
        <ele>60.493542</ele>
        <time>2026-05-09T10:40:39.972Z</time>
      </trkpt>
      <trkpt lat="52.034108" lon="6.408589">
        <ele>60.496780</ele>
        <time>2026-05-09T10:40:41.976Z</time>
      </trkpt>
      <trkpt lat="52.033983" lon="6.408566">
        <ele>60.500002</ele>
        <time>2026-05-09T10:40:43.976Z</time>
      </trkpt>
      <trkpt lat="52.033859" lon="6.408545">
        <ele>60.503195</ele>
        <time>2026-05-09T10:40:45.981Z</time>
      </trkpt>
      <trkpt lat="52.033739" lon="6.408517">
        <ele>60.506299</ele>
        <time>2026-05-09T10:40:47.984Z</time>
      </trkpt>
      <trkpt lat="52.033620" lon="6.408495">
        <ele>60.509366</ele>
        <time>2026-05-09T10:40:49.969Z</time>
      </trkpt>
      <trkpt lat="52.033499" lon="6.408477">
        <ele>60.512478</ele>
        <time>2026-05-09T10:40:51.974Z</time>
      </trkpt>
      <trkpt lat="52.033377" lon="6.408453">
        <ele>60.515625</ele>
        <time>2026-05-09T10:40:53.974Z</time>
      </trkpt>
      <trkpt lat="52.033257" lon="6.408429">
        <ele>60.518721</ele>
        <time>2026-05-09T10:40:55.983Z</time>
      </trkpt>
      <trkpt lat="52.033137" lon="6.408415">
        <ele>60.511101</ele>
        <time>2026-05-09T10:40:57.970Z</time>
      </trkpt>
      <trkpt lat="52.033023" lon="6.408399">
        <ele>60.503407</ele>
        <time>2026-05-09T10:40:59.975Z</time>
      </trkpt>
      <trkpt lat="52.032909" lon="6.408394">
        <ele>60.495739</ele>
        <time>2026-05-09T10:41:01.966Z</time>
      </trkpt>
      <trkpt lat="52.032792" lon="6.408358">
        <ele>60.487732</ele>
        <time>2026-05-09T10:41:03.977Z</time>
      </trkpt>
      <trkpt lat="52.032672" lon="6.408329">
        <ele>60.479575</ele>
        <time>2026-05-09T10:41:05.969Z</time>
      </trkpt>
      <trkpt lat="52.032554" lon="6.408308">
        <ele>60.471593</ele>
        <time>2026-05-09T10:41:07.973Z</time>
      </trkpt>
      <trkpt lat="52.032433" lon="6.408287">
        <ele>60.463411</ele>
        <time>2026-05-09T10:41:09.975Z</time>
      </trkpt>
      <trkpt lat="52.032314" lon="6.408269">
        <ele>60.455375</ele>
        <time>2026-05-09T10:41:11.967Z</time>
      </trkpt>
      <trkpt lat="52.032193" lon="6.408245">
        <ele>60.447179</ele>
        <time>2026-05-09T10:41:13.981Z</time>
      </trkpt>
      <trkpt lat="52.032070" lon="6.408222">
        <ele>60.438854</ele>
        <time>2026-05-09T10:41:15.968Z</time>
      </trkpt>
      <trkpt lat="52.031947" lon="6.408203">
        <ele>60.430546</ele>
        <time>2026-05-09T10:41:17.981Z</time>
      </trkpt>
      <trkpt lat="52.031820" lon="6.408185">
        <ele>60.421974</ele>
        <time>2026-05-09T10:41:19.969Z</time>
      </trkpt>
      <trkpt lat="52.031695" lon="6.408165">
        <ele>60.413529</ele>
        <time>2026-05-09T10:41:21.979Z</time>
      </trkpt>
      <trkpt lat="52.031567" lon="6.408140">
        <ele>60.404860</ele>
        <time>2026-05-09T10:41:23.970Z</time>
      </trkpt>
      <trkpt lat="52.031437" lon="6.408119">
        <ele>60.400697</ele>
        <time>2026-05-09T10:41:25.971Z</time>
      </trkpt>
      <trkpt lat="52.031309" lon="6.408092">
        <ele>60.413870</ele>
        <time>2026-05-09T10:41:27.979Z</time>
      </trkpt>
      <trkpt lat="52.031180" lon="6.408063">
        <ele>60.427161</ele>
        <time>2026-05-09T10:41:29.970Z</time>
      </trkpt>
      <trkpt lat="52.031060" lon="6.408040">
        <ele>60.439493</ele>
        <time>2026-05-09T10:41:31.970Z</time>
      </trkpt>
      <trkpt lat="52.030945" lon="6.408024">
        <ele>60.451273</ele>
        <time>2026-05-09T10:41:33.970Z</time>
      </trkpt>
      <trkpt lat="52.030825" lon="6.408006">
        <ele>60.463572</ele>
        <time>2026-05-09T10:41:35.978Z</time>
      </trkpt>
      <trkpt lat="52.030700" lon="6.407981">
        <ele>60.476426</ele>
        <time>2026-05-09T10:41:37.972Z</time>
      </trkpt>
      <trkpt lat="52.030577" lon="6.407953">
        <ele>60.489102</ele>
        <time>2026-05-09T10:41:39.977Z</time>
      </trkpt>
      <trkpt lat="52.030452" lon="6.407931">
        <ele>60.501934</ele>
        <time>2026-05-09T10:41:41.970Z</time>
      </trkpt>
      <trkpt lat="52.030331" lon="6.407905">
        <ele>60.514391</ele>
        <time>2026-05-09T10:41:43.970Z</time>
      </trkpt>
      <trkpt lat="52.030212" lon="6.407885">
        <ele>60.526601</ele>
        <time>2026-05-09T10:41:45.976Z</time>
      </trkpt>
      <trkpt lat="52.030103" lon="6.407864">
        <ele>60.537803</ele>
        <time>2026-05-09T10:41:47.967Z</time>
      </trkpt>
      <trkpt lat="52.029997" lon="6.407846">
        <ele>60.548680</ele>
        <time>2026-05-09T10:41:49.969Z</time>
      </trkpt>
      <trkpt lat="52.029885" lon="6.407829">
        <ele>60.560161</ele>
        <time>2026-05-09T10:41:51.977Z</time>
      </trkpt>
      <trkpt lat="52.029772" lon="6.407802">
        <ele>60.571817</ele>
        <time>2026-05-09T10:41:53.974Z</time>
      </trkpt>
      <trkpt lat="52.029656" lon="6.407775">
        <ele>60.594827</ele>
        <time>2026-05-09T10:41:55.975Z</time>
      </trkpt>
      <trkpt lat="52.029538" lon="6.407746">
        <ele>60.665621</ele>
        <time>2026-05-09T10:41:57.980Z</time>
      </trkpt>
      <trkpt lat="52.029422" lon="6.407705">
        <ele>60.736040</ele>
        <time>2026-05-09T10:41:59.974Z</time>
      </trkpt>
      <trkpt lat="52.029312" lon="6.407658">
        <ele>60.803509</ele>
        <time>2026-05-09T10:42:01.977Z</time>
      </trkpt>
      <trkpt lat="52.029203" lon="6.407599">
        <ele>60.871659</ele>
        <time>2026-05-09T10:42:03.969Z</time>
      </trkpt>
      <trkpt lat="52.029090" lon="6.407530">
        <ele>60.943266</ele>
        <time>2026-05-09T10:42:05.976Z</time>
      </trkpt>
      <trkpt lat="52.028985" lon="6.407452">
        <ele>61.011749</ele>
        <time>2026-05-09T10:42:07.980Z</time>
      </trkpt>
      <trkpt lat="52.028886" lon="6.407371">
        <ele>61.077497</ele>
        <time>2026-05-09T10:42:09.973Z</time>
      </trkpt>
      <trkpt lat="52.028791" lon="6.407284">
        <ele>61.142181</ele>
        <time>2026-05-09T10:42:11.976Z</time>
      </trkpt>
      <trkpt lat="52.028700" lon="6.407190">
        <ele>61.206142</ele>
        <time>2026-05-09T10:42:13.980Z</time>
      </trkpt>
      <trkpt lat="52.028612" lon="6.407087">
        <ele>61.270471</ele>
        <time>2026-05-09T10:42:15.975Z</time>
      </trkpt>
      <trkpt lat="52.028525" lon="6.406976">
        <ele>61.336081</ele>
        <time>2026-05-09T10:42:17.975Z</time>
      </trkpt>
      <trkpt lat="52.028446" lon="6.406861">
        <ele>61.398992</ele>
        <time>2026-05-09T10:42:19.972Z</time>
      </trkpt>
      <trkpt lat="52.028366" lon="6.406742">
        <ele>61.463323</ele>
        <time>2026-05-09T10:42:21.966Z</time>
      </trkpt>
      <trkpt lat="52.028295" lon="6.406617">
        <ele>61.525414</ele>
        <time>2026-05-09T10:42:23.970Z</time>
      </trkpt>
      <trkpt lat="52.028221" lon="6.406485">
        <ele>61.590591</ele>
        <time>2026-05-09T10:42:25.976Z</time>
      </trkpt>
      <trkpt lat="52.028152" lon="6.406344">
        <ele>61.651775</ele>
        <time>2026-05-09T10:42:27.974Z</time>
      </trkpt>
      <trkpt lat="52.028091" lon="6.406200">
        <ele>61.678704</ele>
        <time>2026-05-09T10:42:29.981Z</time>
      </trkpt>
      <trkpt lat="52.028029" lon="6.406050">
        <ele>61.706538</ele>
        <time>2026-05-09T10:42:31.974Z</time>
      </trkpt>
      <trkpt lat="52.027980" lon="6.405894">
        <ele>61.733517</ele>
        <time>2026-05-09T10:42:33.971Z</time>
      </trkpt>
      <trkpt lat="52.027929" lon="6.405738">
        <ele>61.760727</ele>
        <time>2026-05-09T10:42:35.974Z</time>
      </trkpt>
      <trkpt lat="52.027885" lon="6.405579">
        <ele>61.787581</ele>
        <time>2026-05-09T10:42:37.976Z</time>
      </trkpt>
      <trkpt lat="52.027848" lon="6.405416">
        <ele>61.814342</ele>
        <time>2026-05-09T10:42:39.974Z</time>
      </trkpt>
      <trkpt lat="52.027812" lon="6.405248">
        <ele>61.841744</ele>
        <time>2026-05-09T10:42:41.969Z</time>
      </trkpt>
      <trkpt lat="52.027782" lon="6.405078">
        <ele>61.868985</ele>
        <time>2026-05-09T10:42:43.975Z</time>
      </trkpt>
      <trkpt lat="52.027753" lon="6.404908">
        <ele>61.896158</ele>
        <time>2026-05-09T10:42:45.970Z</time>
      </trkpt>
      <trkpt lat="52.027724" lon="6.404735">
        <ele>61.923777</ele>
        <time>2026-05-09T10:42:47.971Z</time>
      </trkpt>
      <trkpt lat="52.027704" lon="6.404569">
        <ele>61.949832</ele>
        <time>2026-05-09T10:42:49.974Z</time>
      </trkpt>
      <trkpt lat="52.027707" lon="6.404389">
        <ele>61.977568</ele>
        <time>2026-05-09T10:42:51.973Z</time>
      </trkpt>
      <trkpt lat="52.027703" lon="6.404213">
        <ele>62.004696</ele>
        <time>2026-05-09T10:42:53.976Z</time>
      </trkpt>
      <trkpt lat="52.027699" lon="6.404029">
        <ele>62.033056</ele>
        <time>2026-05-09T10:42:55.968Z</time>
      </trkpt>
      <trkpt lat="52.027708" lon="6.403836">
        <ele>62.062869</ele>
        <time>2026-05-09T10:42:57.973Z</time>
      </trkpt>
      <trkpt lat="52.027722" lon="6.403636">
        <ele>62.093874</ele>
        <time>2026-05-09T10:42:59.973Z</time>
      </trkpt>
      <trkpt lat="52.027734" lon="6.403456">
        <ele>62.126450</ele>
        <time>2026-05-09T10:43:01.969Z</time>
      </trkpt>
      <trkpt lat="52.027752" lon="6.403274">
        <ele>62.160618</ele>
        <time>2026-05-09T10:43:03.972Z</time>
      </trkpt>
      <trkpt lat="52.027767" lon="6.403090">
        <ele>62.195023</ele>
        <time>2026-05-09T10:43:05.972Z</time>
      </trkpt>
      <trkpt lat="52.027780" lon="6.402898">
        <ele>62.230827</ele>
        <time>2026-05-09T10:43:07.971Z</time>
      </trkpt>
      <trkpt lat="52.027797" lon="6.402707">
        <ele>62.266600</ele>
        <time>2026-05-09T10:43:09.974Z</time>
      </trkpt>
      <trkpt lat="52.027810" lon="6.402518">
        <ele>62.301851</ele>
        <time>2026-05-09T10:43:11.979Z</time>
      </trkpt>
      <trkpt lat="52.027827" lon="6.402337">
        <ele>62.335790</ele>
        <time>2026-05-09T10:43:13.967Z</time>
      </trkpt>
      <trkpt lat="52.027839" lon="6.402156">
        <ele>62.369535</ele>
        <time>2026-05-09T10:43:15.971Z</time>
      </trkpt>
      <trkpt lat="52.027853" lon="6.401973">
        <ele>62.403717</ele>
        <time>2026-05-09T10:43:17.966Z</time>
      </trkpt>
      <trkpt lat="52.027868" lon="6.401786">
        <ele>62.438673</ele>
        <time>2026-05-09T10:43:19.970Z</time>
      </trkpt>
      <trkpt lat="52.027882" lon="6.401595">
        <ele>62.474327</ele>
        <time>2026-05-09T10:43:21.970Z</time>
      </trkpt>
      <trkpt lat="52.027898" lon="6.401401">
        <ele>62.510609</ele>
        <time>2026-05-09T10:43:23.971Z</time>
      </trkpt>
      <trkpt lat="52.027917" lon="6.401203">
        <ele>62.547754</ele>
        <time>2026-05-09T10:43:25.967Z</time>
      </trkpt>
      <trkpt lat="52.027935" lon="6.401006">
        <ele>62.584670</ele>
        <time>2026-05-09T10:43:27.971Z</time>
      </trkpt>
      <trkpt lat="52.027948" lon="6.400813">
        <ele>62.620658</ele>
        <time>2026-05-09T10:43:29.971Z</time>
      </trkpt>
      <trkpt lat="52.027966" lon="6.400632">
        <ele>62.618927</ele>
        <time>2026-05-09T10:43:31.974Z</time>
      </trkpt>
      <trkpt lat="52.027983" lon="6.400443">
        <ele>62.564397</ele>
        <time>2026-05-09T10:43:33.969Z</time>
      </trkpt>
      <trkpt lat="52.027998" lon="6.400266">
        <ele>62.513389</ele>
        <time>2026-05-09T10:43:35.964Z</time>
      </trkpt>
      <trkpt lat="52.028015" lon="6.400080">
        <ele>62.459706</ele>
        <time>2026-05-09T10:43:37.971Z</time>
      </trkpt>
      <trkpt lat="52.028031" lon="6.399888">
        <ele>62.404393</ele>
        <time>2026-05-09T10:43:39.977Z</time>
      </trkpt>
      <trkpt lat="52.028047" lon="6.399700">
        <ele>62.350211</ele>
        <time>2026-05-09T10:43:41.968Z</time>
      </trkpt>
      <trkpt lat="52.028065" lon="6.399508">
        <ele>62.294766</ele>
        <time>2026-05-09T10:43:43.969Z</time>
      </trkpt>
      <trkpt lat="52.028080" lon="6.399312">
        <ele>62.238380</ele>
        <time>2026-05-09T10:43:45.975Z</time>
      </trkpt>
      <trkpt lat="52.028101" lon="6.399118">
        <ele>62.182146</ele>
        <time>2026-05-09T10:43:47.974Z</time>
      </trkpt>
      <trkpt lat="52.028117" lon="6.398930">
        <ele>62.127964</ele>
        <time>2026-05-09T10:43:49.975Z</time>
      </trkpt>
      <trkpt lat="52.028132" lon="6.398738">
        <ele>62.072711</ele>
        <time>2026-05-09T10:43:51.975Z</time>
      </trkpt>
      <trkpt lat="52.028148" lon="6.398536">
        <ele>62.014568</ele>
        <time>2026-05-09T10:43:53.973Z</time>
      </trkpt>
      <trkpt lat="52.028167" lon="6.398342">
        <ele>61.958487</ele>
        <time>2026-05-09T10:43:55.976Z</time>
      </trkpt>
      <trkpt lat="52.028182" lon="6.398146">
        <ele>61.902101</ele>
        <time>2026-05-09T10:43:57.964Z</time>
      </trkpt>
      <trkpt lat="52.028199" lon="6.397954">
        <ele>61.846724</ele>
        <time>2026-05-09T10:43:59.968Z</time>
      </trkpt>
      <trkpt lat="52.028215" lon="6.397751">
        <ele>61.808585</ele>
        <time>2026-05-09T10:44:01.973Z</time>
      </trkpt>
      <trkpt lat="52.028233" lon="6.397550">
        <ele>61.816953</ele>
        <time>2026-05-09T10:44:03.972Z</time>
      </trkpt>
      <trkpt lat="52.028251" lon="6.397346">
        <ele>61.825444</ele>
        <time>2026-05-09T10:44:05.973Z</time>
      </trkpt>
      <trkpt lat="52.028271" lon="6.397149">
        <ele>61.833670</ele>
        <time>2026-05-09T10:44:07.970Z</time>
      </trkpt>
      <trkpt lat="52.028285" lon="6.396953">
        <ele>61.841800</ele>
        <time>2026-05-09T10:44:09.971Z</time>
      </trkpt>
      <trkpt lat="52.028297" lon="6.396759">
        <ele>61.849833</ele>
        <time>2026-05-09T10:44:11.972Z</time>
      </trkpt>
      <trkpt lat="52.028312" lon="6.396562">
        <ele>61.858011</ele>
        <time>2026-05-09T10:44:13.971Z</time>
      </trkpt>
      <trkpt lat="52.028329" lon="6.396366">
        <ele>61.866166</ele>
        <time>2026-05-09T10:44:15.972Z</time>
      </trkpt>
      <trkpt lat="52.028352" lon="6.396172">
        <ele>61.874306</ele>
        <time>2026-05-09T10:44:17.971Z</time>
      </trkpt>
      <trkpt lat="52.028371" lon="6.395984">
        <ele>61.882155</ele>
        <time>2026-05-09T10:44:19.972Z</time>
      </trkpt>
      <trkpt lat="52.028386" lon="6.395792">
        <ele>61.890129</ele>
        <time>2026-05-09T10:44:21.970Z</time>
      </trkpt>
      <trkpt lat="52.028402" lon="6.395593">
        <ele>61.898398</ele>
        <time>2026-05-09T10:44:23.977Z</time>
      </trkpt>
      <trkpt lat="52.028412" lon="6.395392">
        <ele>61.906706</ele>
        <time>2026-05-09T10:44:25.971Z</time>
      </trkpt>
      <trkpt lat="52.028412" lon="6.395192">
        <ele>61.914946</ele>
        <time>2026-05-09T10:44:27.969Z</time>
      </trkpt>
      <trkpt lat="52.028425" lon="6.394996">
        <ele>61.923068</ele>
        <time>2026-05-09T10:44:29.976Z</time>
      </trkpt>
      <trkpt lat="52.028439" lon="6.394801">
        <ele>61.930871</ele>
        <time>2026-05-09T10:44:31.977Z</time>
      </trkpt>
      <trkpt lat="52.028459" lon="6.394604">
        <ele>61.938597</ele>
        <time>2026-05-09T10:44:33.976Z</time>
      </trkpt>
      <trkpt lat="52.028483" lon="6.394403">
        <ele>61.946519</ele>
        <time>2026-05-09T10:44:35.972Z</time>
      </trkpt>
      <trkpt lat="52.028514" lon="6.394207">
        <ele>61.954350</ele>
        <time>2026-05-09T10:44:37.975Z</time>
      </trkpt>
      <trkpt lat="52.028532" lon="6.394021">
        <ele>61.961635</ele>
        <time>2026-05-09T10:44:39.970Z</time>
      </trkpt>
      <trkpt lat="52.028545" lon="6.393833">
        <ele>61.968955</ele>
        <time>2026-05-09T10:44:41.969Z</time>
      </trkpt>
      <trkpt lat="52.028562" lon="6.393644">
        <ele>61.976346</ele>
        <time>2026-05-09T10:44:43.974Z</time>
      </trkpt>
      <trkpt lat="52.028576" lon="6.393453">
        <ele>61.983789</ele>
        <time>2026-05-09T10:44:45.971Z</time>
      </trkpt>
      <trkpt lat="52.028587" lon="6.393261">
        <ele>61.991250</ele>
        <time>2026-05-09T10:44:47.981Z</time>
      </trkpt>
      <trkpt lat="52.028602" lon="6.393068">
        <ele>61.998777</ele>
        <time>2026-05-09T10:44:49.966Z</time>
      </trkpt>
      <trkpt lat="52.028617" lon="6.392878">
        <ele>62.006189</ele>
        <time>2026-05-09T10:44:51.965Z</time>
      </trkpt>
      <trkpt lat="52.028631" lon="6.392687">
        <ele>62.013632</ele>
        <time>2026-05-09T10:44:53.968Z</time>
      </trkpt>
      <trkpt lat="52.028646" lon="6.392488">
        <ele>62.021389</ele>
        <time>2026-05-09T10:44:55.972Z</time>
      </trkpt>
      <trkpt lat="52.028664" lon="6.392291">
        <ele>62.029096</ele>
        <time>2026-05-09T10:44:57.972Z</time>
      </trkpt>
      <trkpt lat="52.028681" lon="6.392085">
        <ele>62.037138</ele>
        <time>2026-05-09T10:44:59.970Z</time>
      </trkpt>
      <trkpt lat="52.028698" lon="6.391891">
        <ele>62.033251</ele>
        <time>2026-05-09T10:45:01.967Z</time>
      </trkpt>
      <trkpt lat="52.028714" lon="6.391690">
        <ele>62.023590</ele>
        <time>2026-05-09T10:45:03.973Z</time>
      </trkpt>
      <trkpt lat="52.028732" lon="6.391501">
        <ele>62.014474</ele>
        <time>2026-05-09T10:45:05.966Z</time>
      </trkpt>
      <trkpt lat="52.028747" lon="6.391312">
        <ele>62.005390</ele>
        <time>2026-05-09T10:45:07.979Z</time>
      </trkpt>
      <trkpt lat="52.028763" lon="6.391123">
        <ele>61.996296</ele>
        <time>2026-05-09T10:45:09.971Z</time>
      </trkpt>
      <trkpt lat="52.028781" lon="6.390929">
        <ele>61.986944</ele>
        <time>2026-05-09T10:45:11.969Z</time>
      </trkpt>
      <trkpt lat="52.028797" lon="6.390737">
        <ele>61.977708</ele>
        <time>2026-05-09T10:45:13.971Z</time>
      </trkpt>
      <trkpt lat="52.028813" lon="6.390552">
        <ele>61.968803</ele>
        <time>2026-05-09T10:45:15.972Z</time>
      </trkpt>
      <trkpt lat="52.028834" lon="6.390362">
        <ele>61.959602</ele>
        <time>2026-05-09T10:45:17.974Z</time>
      </trkpt>
      <trkpt lat="52.028852" lon="6.390172">
        <ele>61.950438</ele>
        <time>2026-05-09T10:45:19.969Z</time>
      </trkpt>
      <trkpt lat="52.028864" lon="6.389989">
        <ele>61.941666</ele>
        <time>2026-05-09T10:45:21.970Z</time>
      </trkpt>
      <trkpt lat="52.028875" lon="6.389807">
        <ele>61.932949</ele>
        <time>2026-05-09T10:45:23.968Z</time>
      </trkpt>
      <trkpt lat="52.028884" lon="6.389622">
        <ele>61.924103</ele>
        <time>2026-05-09T10:45:25.979Z</time>
      </trkpt>
      <trkpt lat="52.028889" lon="6.389436">
        <ele>61.915228</ele>
        <time>2026-05-09T10:45:27.972Z</time>
      </trkpt>
      <trkpt lat="52.028889" lon="6.389252">
        <ele>61.906457</ele>
        <time>2026-05-09T10:45:29.972Z</time>
      </trkpt>
      <trkpt lat="52.028880" lon="6.389068">
        <ele>61.898417</ele>
        <time>2026-05-09T10:45:31.972Z</time>
      </trkpt>
      <trkpt lat="52.028867" lon="6.388881">
        <ele>61.892087</ele>
        <time>2026-05-09T10:45:33.972Z</time>
      </trkpt>
      <trkpt lat="52.028849" lon="6.388697">
        <ele>61.885820</ele>
        <time>2026-05-09T10:45:35.975Z</time>
      </trkpt>
      <trkpt lat="52.028829" lon="6.388513">
        <ele>61.879535</ele>
        <time>2026-05-09T10:45:37.975Z</time>
      </trkpt>
      <trkpt lat="52.028799" lon="6.388329">
        <ele>61.873133</ele>
        <time>2026-05-09T10:45:39.972Z</time>
      </trkpt>
      <trkpt lat="52.028764" lon="6.388142">
        <ele>61.866558</ele>
        <time>2026-05-09T10:45:41.976Z</time>
      </trkpt>
      <trkpt lat="52.028722" lon="6.387949">
        <ele>61.859673</ele>
        <time>2026-05-09T10:45:43.967Z</time>
      </trkpt>
      <trkpt lat="52.028681" lon="6.387750">
        <ele>61.852614</ele>
        <time>2026-05-09T10:45:45.977Z</time>
      </trkpt>
      <trkpt lat="52.028642" lon="6.387564">
        <ele>61.846004</ele>
        <time>2026-05-09T10:45:47.974Z</time>
      </trkpt>
      <trkpt lat="52.028605" lon="6.387379">
        <ele>61.839461</ele>
        <time>2026-05-09T10:45:49.968Z</time>
      </trkpt>
      <trkpt lat="52.028566" lon="6.387187">
        <ele>61.832660</ele>
        <time>2026-05-09T10:45:51.975Z</time>
      </trkpt>
      <trkpt lat="52.028525" lon="6.386989">
        <ele>61.825633</ele>
        <time>2026-05-09T10:45:53.975Z</time>
      </trkpt>
      <trkpt lat="52.028485" lon="6.386784">
        <ele>61.818400</ele>
        <time>2026-05-09T10:45:55.968Z</time>
      </trkpt>
      <trkpt lat="52.028442" lon="6.386583">
        <ele>61.811242</ele>
        <time>2026-05-09T10:45:57.975Z</time>
      </trkpt>
      <trkpt lat="52.028401" lon="6.386392">
        <ele>61.804438</ele>
        <time>2026-05-09T10:45:59.974Z</time>
      </trkpt>
      <trkpt lat="52.028364" lon="6.386204">
        <ele>61.788297</ele>
        <time>2026-05-09T10:46:01.966Z</time>
      </trkpt>
      <trkpt lat="52.028326" lon="6.386020">
        <ele>61.766662</ele>
        <time>2026-05-09T10:46:03.973Z</time>
      </trkpt>
      <trkpt lat="52.028286" lon="6.385828">
        <ele>61.744067</ele>
        <time>2026-05-09T10:46:05.971Z</time>
      </trkpt>
      <trkpt lat="52.028252" lon="6.385638">
        <ele>61.722010</ele>
        <time>2026-05-09T10:46:07.971Z</time>
      </trkpt>
      <trkpt lat="52.028210" lon="6.385451">
        <ele>61.699820</ele>
        <time>2026-05-09T10:46:09.979Z</time>
      </trkpt>
      <trkpt lat="52.028178" lon="6.385272">
        <ele>61.679042</ele>
        <time>2026-05-09T10:46:11.971Z</time>
      </trkpt>
      <trkpt lat="52.028140" lon="6.385091">
        <ele>61.657724</ele>
        <time>2026-05-09T10:46:13.971Z</time>
      </trkpt>
      <trkpt lat="52.028102" lon="6.384909">
        <ele>61.636300</ele>
        <time>2026-05-09T10:46:15.970Z</time>
      </trkpt>
      <trkpt lat="52.028063" lon="6.384724">
        <ele>61.614502</ele>
        <time>2026-05-09T10:46:17.972Z</time>
      </trkpt>
      <trkpt lat="52.028028" lon="6.384533">
        <ele>61.592287</ele>
        <time>2026-05-09T10:46:19.971Z</time>
      </trkpt>
      <trkpt lat="52.027992" lon="6.384350">
        <ele>61.570871</ele>
        <time>2026-05-09T10:46:21.966Z</time>
      </trkpt>
      <trkpt lat="52.027952" lon="6.384169">
        <ele>61.549433</ele>
        <time>2026-05-09T10:46:23.968Z</time>
      </trkpt>
      <trkpt lat="52.027910" lon="6.383983">
        <ele>61.527347</ele>
        <time>2026-05-09T10:46:25.969Z</time>
      </trkpt>
      <trkpt lat="52.027875" lon="6.383797">
        <ele>61.505666</ele>
        <time>2026-05-09T10:46:27.970Z</time>
      </trkpt>
      <trkpt lat="52.027836" lon="6.383610">
        <ele>61.483656</ele>
        <time>2026-05-09T10:46:29.976Z</time>
      </trkpt>
      <trkpt lat="52.027802" lon="6.383425">
        <ele>61.475193</ele>
        <time>2026-05-09T10:46:31.971Z</time>
      </trkpt>
      <trkpt lat="52.027766" lon="6.383243">
        <ele>61.473888</ele>
        <time>2026-05-09T10:46:33.973Z</time>
      </trkpt>
      <trkpt lat="52.027726" lon="6.383062">
        <ele>61.472575</ele>
        <time>2026-05-09T10:46:35.970Z</time>
      </trkpt>
      <trkpt lat="52.027689" lon="6.382869">
        <ele>61.471195</ele>
        <time>2026-05-09T10:46:37.982Z</time>
      </trkpt>
      <trkpt lat="52.027653" lon="6.382684">
        <ele>61.469871</ele>
        <time>2026-05-09T10:46:39.971Z</time>
      </trkpt>
      <trkpt lat="52.027614" lon="6.382503">
        <ele>61.468562</ele>
        <time>2026-05-09T10:46:41.969Z</time>
      </trkpt>
      <trkpt lat="52.027578" lon="6.382320">
        <ele>61.467250</ele>
        <time>2026-05-09T10:46:43.971Z</time>
      </trkpt>
      <trkpt lat="52.027544" lon="6.382145">
        <ele>61.465998</ele>
        <time>2026-05-09T10:46:45.969Z</time>
      </trkpt>
      <trkpt lat="52.027507" lon="6.381968">
        <ele>61.464722</ele>
        <time>2026-05-09T10:46:47.969Z</time>
      </trkpt>
      <trkpt lat="52.027472" lon="6.381790">
        <ele>61.463446</ele>
        <time>2026-05-09T10:46:49.966Z</time>
      </trkpt>
      <trkpt lat="52.027437" lon="6.381615">
        <ele>61.462190</ele>
        <time>2026-05-09T10:46:51.967Z</time>
      </trkpt>
      <trkpt lat="52.027399" lon="6.381441">
        <ele>61.460930</ele>
        <time>2026-05-09T10:46:53.965Z</time>
      </trkpt>
      <trkpt lat="52.027366" lon="6.381269">
        <ele>61.459700</ele>
        <time>2026-05-09T10:46:55.971Z</time>
      </trkpt>
      <trkpt lat="52.027326" lon="6.381098">
        <ele>61.458451</ele>
        <time>2026-05-09T10:46:57.969Z</time>
      </trkpt>
      <trkpt lat="52.027287" lon="6.380926">
        <ele>61.457200</ele>
        <time>2026-05-09T10:46:59.973Z</time>
      </trkpt>
      <trkpt lat="52.027251" lon="6.380759">
        <ele>61.456545</ele>
        <time>2026-05-09T10:47:01.967Z</time>
      </trkpt>
      <trkpt lat="52.027214" lon="6.380597">
        <ele>61.461987</ele>
        <time>2026-05-09T10:47:03.972Z</time>
      </trkpt>
      <trkpt lat="52.027181" lon="6.380430">
        <ele>61.467510</ele>
        <time>2026-05-09T10:47:05.979Z</time>
      </trkpt>
      <trkpt lat="52.027146" lon="6.380255">
        <ele>61.473305</ele>
        <time>2026-05-09T10:47:07.964Z</time>
      </trkpt>
      <trkpt lat="52.027109" lon="6.380077">
        <ele>61.479222</ele>
        <time>2026-05-09T10:47:09.972Z</time>
      </trkpt>
      <trkpt lat="52.027073" lon="6.379902">
        <ele>61.485033</ele>
        <time>2026-05-09T10:47:11.970Z</time>
      </trkpt>
      <trkpt lat="52.027039" lon="6.379730">
        <ele>61.490722</ele>
        <time>2026-05-09T10:47:13.972Z</time>
      </trkpt>
      <trkpt lat="52.027004" lon="6.379565">
        <ele>61.496218</ele>
        <time>2026-05-09T10:47:15.971Z</time>
      </trkpt>
      <trkpt lat="52.026969" lon="6.379402">
        <ele>61.501655</ele>
        <time>2026-05-09T10:47:17.970Z</time>
      </trkpt>
      <trkpt lat="52.026935" lon="6.379233">
        <ele>61.507254</ele>
        <time>2026-05-09T10:47:19.970Z</time>
      </trkpt>
      <trkpt lat="52.026902" lon="6.379065">
        <ele>61.512807</ele>
        <time>2026-05-09T10:47:21.977Z</time>
      </trkpt>
      <trkpt lat="52.026866" lon="6.378891">
        <ele>61.518588</ele>
        <time>2026-05-09T10:47:23.968Z</time>
      </trkpt>
      <trkpt lat="52.026828" lon="6.378714">
        <ele>61.524492</ele>
        <time>2026-05-09T10:47:25.981Z</time>
      </trkpt>
      <trkpt lat="52.026789" lon="6.378535">
        <ele>61.530472</ele>
        <time>2026-05-09T10:47:27.973Z</time>
      </trkpt>
      <trkpt lat="52.026758" lon="6.378356">
        <ele>61.536328</ele>
        <time>2026-05-09T10:47:29.976Z</time>
      </trkpt>
      <trkpt lat="52.026723" lon="6.378187">
        <ele>61.541943</ele>
        <time>2026-05-09T10:47:31.978Z</time>
      </trkpt>
      <trkpt lat="52.026689" lon="6.378012">
        <ele>61.547722</ele>
        <time>2026-05-09T10:47:33.971Z</time>
      </trkpt>
      <trkpt lat="52.026651" lon="6.377845">
        <ele>61.510797</ele>
        <time>2026-05-09T10:47:35.969Z</time>
      </trkpt>
      <trkpt lat="52.026618" lon="6.377673">
        <ele>61.469909</ele>
        <time>2026-05-09T10:47:37.968Z</time>
      </trkpt>
      <trkpt lat="52.026583" lon="6.377509">
        <ele>61.430514</ele>
        <time>2026-05-09T10:47:39.974Z</time>
      </trkpt>
      <trkpt lat="52.026541" lon="6.377362">
        <ele>61.393732</ele>
        <time>2026-05-09T10:47:41.976Z</time>
      </trkpt>
      <trkpt lat="52.026464" lon="6.377258">
        <ele>61.356804</ele>
        <time>2026-05-09T10:47:43.968Z</time>
      </trkpt>
      <trkpt lat="52.026371" lon="6.377163">
        <ele>61.316290</ele>
        <time>2026-05-09T10:47:45.974Z</time>
      </trkpt>
      <trkpt lat="52.026281" lon="6.377066">
        <ele>61.276458</ele>
        <time>2026-05-09T10:47:47.974Z</time>
      </trkpt>
      <trkpt lat="52.026198" lon="6.376960">
        <ele>61.237523</ele>
        <time>2026-05-09T10:47:49.973Z</time>
      </trkpt>
      <trkpt lat="52.026117" lon="6.376858">
        <ele>61.199729</ele>
        <time>2026-05-09T10:47:51.970Z</time>
      </trkpt>
      <trkpt lat="52.026036" lon="6.376762">
        <ele>61.162753</ele>
        <time>2026-05-09T10:47:53.968Z</time>
      </trkpt>
      <trkpt lat="52.025958" lon="6.376669">
        <ele>61.127071</ele>
        <time>2026-05-09T10:47:55.973Z</time>
      </trkpt>
      <trkpt lat="52.025883" lon="6.376573">
        <ele>61.091859</ele>
        <time>2026-05-09T10:47:57.971Z</time>
      </trkpt>
      <trkpt lat="52.025833" lon="6.376448">
        <ele>61.058023</ele>
        <time>2026-05-09T10:47:59.972Z</time>
      </trkpt>
      <trkpt lat="52.025763" lon="6.376313">
        <ele>61.017957</ele>
        <time>2026-05-09T10:48:02.967Z</time>
      </trkpt>
      <trkpt lat="52.025671" lon="6.376200">
        <ele>60.975423</ele>
        <time>2026-05-09T10:48:05.971Z</time>
      </trkpt>
      <trkpt lat="52.025569" lon="6.376078">
        <ele>60.928711</ele>
        <time>2026-05-09T10:48:08.969Z</time>
      </trkpt>
      <trkpt lat="52.025469" lon="6.375957">
        <ele>60.886252</ele>
        <time>2026-05-09T10:48:11.971Z</time>
      </trkpt>
      <trkpt lat="52.025396" lon="6.375871">
        <ele>60.911311</ele>
        <time>2026-05-09T10:48:13.966Z</time>
      </trkpt>
      <trkpt lat="52.025317" lon="6.375788">
        <ele>60.937456</ele>
        <time>2026-05-09T10:48:15.968Z</time>
      </trkpt>
      <trkpt lat="52.025213" lon="6.375661">
        <ele>60.973612</ele>
        <time>2026-05-09T10:48:18.977Z</time>
      </trkpt>
      <trkpt lat="52.025110" lon="6.375538">
        <ele>61.009136</ele>
        <time>2026-05-09T10:48:21.970Z</time>
      </trkpt>
      <trkpt lat="52.025011" lon="6.375420">
        <ele>61.043259</ele>
        <time>2026-05-09T10:48:24.969Z</time>
      </trkpt>
      <trkpt lat="52.024913" lon="6.375304">
        <ele>61.076955</ele>
        <time>2026-05-09T10:48:27.983Z</time>
      </trkpt>
      <trkpt lat="52.024811" lon="6.375183">
        <ele>61.112053</ele>
        <time>2026-05-09T10:48:30.980Z</time>
      </trkpt>
      <trkpt lat="52.024704" lon="6.375053">
        <ele>61.149184</ele>
        <time>2026-05-09T10:48:33.977Z</time>
      </trkpt>
      <trkpt lat="52.024631" lon="6.374966">
        <ele>61.174344</ele>
        <time>2026-05-09T10:48:35.972Z</time>
      </trkpt>
      <trkpt lat="52.024558" lon="6.374873">
        <ele>61.200124</ele>
        <time>2026-05-09T10:48:37.961Z</time>
      </trkpt>
      <trkpt lat="52.024484" lon="6.374784">
        <ele>61.225710</ele>
        <time>2026-05-09T10:48:39.974Z</time>
      </trkpt>
      <trkpt lat="52.024407" lon="6.374696">
        <ele>61.251873</ele>
        <time>2026-05-09T10:48:41.973Z</time>
      </trkpt>
      <trkpt lat="52.024332" lon="6.374599">
        <ele>61.278514</ele>
        <time>2026-05-09T10:48:43.965Z</time>
      </trkpt>
      <trkpt lat="52.024259" lon="6.374507">
        <ele>61.304189</ele>
        <time>2026-05-09T10:48:45.973Z</time>
      </trkpt>
      <trkpt lat="52.024150" lon="6.374384">
        <ele>61.341070</ele>
        <time>2026-05-09T10:48:48.973Z</time>
      </trkpt>
      <trkpt lat="52.024044" lon="6.374263">
        <ele>61.377073</ele>
        <time>2026-05-09T10:48:51.973Z</time>
      </trkpt>
      <trkpt lat="52.023970" lon="6.374167">
        <ele>61.398380</ele>
        <time>2026-05-09T10:48:53.970Z</time>
      </trkpt>
      <trkpt lat="52.023898" lon="6.374076">
        <ele>61.416958</ele>
        <time>2026-05-09T10:48:55.972Z</time>
      </trkpt>
      <trkpt lat="52.023819" lon="6.373991">
        <ele>61.436256</ele>
        <time>2026-05-09T10:48:57.971Z</time>
      </trkpt>
      <trkpt lat="52.023744" lon="6.373904">
        <ele>61.455024</ele>
        <time>2026-05-09T10:48:59.978Z</time>
      </trkpt>
      <trkpt lat="52.023666" lon="6.373817">
        <ele>61.474293</ele>
        <time>2026-05-09T10:49:10.970Z</time>
      </trkpt>
      <trkpt lat="52.023570" lon="6.373695">
        <ele>61.499114</ele>
        <time>2026-05-09T10:49:14.979Z</time>
      </trkpt>
      <trkpt lat="52.023482" lon="6.373586">
        <ele>61.521651</ele>
        <time>2026-05-09T10:49:17.981Z</time>
      </trkpt>
      <trkpt lat="52.023396" lon="6.373477">
        <ele>61.543864</ele>
        <time>2026-05-09T10:49:20.970Z</time>
      </trkpt>
      <trkpt lat="52.023295" lon="6.373346">
        <ele>61.570184</ele>
        <time>2026-05-09T10:49:23.969Z</time>
      </trkpt>
      <trkpt lat="52.023198" lon="6.373233">
        <ele>61.594493</ele>
        <time>2026-05-09T10:49:26.971Z</time>
      </trkpt>
      <trkpt lat="52.023116" lon="6.373126">
        <ele>61.615912</ele>
        <time>2026-05-09T10:49:29.977Z</time>
      </trkpt>
      <trkpt lat="52.023036" lon="6.373048">
        <ele>61.634914</ele>
        <time>2026-05-09T10:49:32.972Z</time>
      </trkpt>
      <trkpt lat="52.022850" lon="6.372808">
        <ele>61.683288</ele>
        <time>2026-05-09T10:51:04.974Z</time>
      </trkpt>
      <trkpt lat="52.022769" lon="6.372726">
        <ele>61.702725</ele>
        <time>2026-05-09T10:51:08.967Z</time>
      </trkpt>
      <trkpt lat="52.022693" lon="6.372638">
        <ele>61.721732</ele>
        <time>2026-05-09T10:51:11.969Z</time>
      </trkpt>
      <trkpt lat="52.022613" lon="6.372545">
        <ele>61.741766</ele>
        <time>2026-05-09T10:51:14.969Z</time>
      </trkpt>
      <trkpt lat="52.022533" lon="6.372434">
        <ele>61.754697</ele>
        <time>2026-05-09T10:51:17.974Z</time>
      </trkpt>
      <trkpt lat="52.022448" lon="6.372320">
        <ele>61.761523</ele>
        <time>2026-05-09T10:51:20.974Z</time>
      </trkpt>
      <trkpt lat="52.022363" lon="6.372211">
        <ele>61.768229</ele>
        <time>2026-05-09T10:51:23.976Z</time>
      </trkpt>
      <trkpt lat="52.022273" lon="6.372108">
        <ele>61.775046</ele>
        <time>2026-05-09T10:51:26.967Z</time>
      </trkpt>
      <trkpt lat="52.022183" lon="6.372001">
        <ele>61.781953</ele>
        <time>2026-05-09T10:51:29.974Z</time>
      </trkpt>
      <trkpt lat="52.022092" lon="6.371892">
        <ele>61.788954</ele>
        <time>2026-05-09T10:51:32.976Z</time>
      </trkpt>
      <trkpt lat="52.022000" lon="6.371778">
        <ele>61.796120</ele>
        <time>2026-05-09T10:51:35.974Z</time>
      </trkpt>
      <trkpt lat="52.021902" lon="6.371668">
        <ele>61.803496</ele>
        <time>2026-05-09T10:51:38.972Z</time>
      </trkpt>
      <trkpt lat="52.021804" lon="6.371550">
        <ele>61.811050</ele>
        <time>2026-05-09T10:51:41.973Z</time>
      </trkpt>
      <trkpt lat="52.021713" lon="6.371418">
        <ele>61.818605</ele>
        <time>2026-05-09T10:51:44.972Z</time>
      </trkpt>
      <trkpt lat="52.021627" lon="6.371328">
        <ele>61.824940</ele>
        <time>2026-05-09T10:51:47.972Z</time>
      </trkpt>
      <trkpt lat="52.021529" lon="6.371228">
        <ele>61.832107</ele>
        <time>2026-05-09T10:51:50.978Z</time>
      </trkpt>
      <trkpt lat="52.021431" lon="6.371108">
        <ele>61.839707</ele>
        <time>2026-05-09T10:51:53.973Z</time>
      </trkpt>
      <trkpt lat="52.021329" lon="6.370997">
        <ele>61.847310</ele>
        <time>2026-05-09T10:51:56.967Z</time>
      </trkpt>
      <trkpt lat="52.021238" lon="6.370859">
        <ele>61.855018</ele>
        <time>2026-05-09T10:51:59.963Z</time>
      </trkpt>
      <trkpt lat="52.021141" lon="6.370742">
        <ele>61.862021</ele>
        <time>2026-05-09T10:52:02.972Z</time>
      </trkpt>
      <trkpt lat="52.021040" lon="6.370618">
        <ele>61.837971</ele>
        <time>2026-05-09T10:52:05.976Z</time>
      </trkpt>
      <trkpt lat="52.020936" lon="6.370501">
        <ele>61.813939</ele>
        <time>2026-05-09T10:52:08.970Z</time>
      </trkpt>
      <trkpt lat="52.020833" lon="6.370375">
        <ele>61.789445</ele>
        <time>2026-05-09T10:52:11.971Z</time>
      </trkpt>
      <trkpt lat="52.020754" lon="6.370295">
        <ele>61.771760</ele>
        <time>2026-05-09T10:52:13.974Z</time>
      </trkpt>
      <trkpt lat="52.020648" lon="6.370177">
        <ele>61.747348</ele>
        <time>2026-05-09T10:52:16.968Z</time>
      </trkpt>
      <trkpt lat="52.020565" lon="6.370069">
        <ele>61.727146</ele>
        <time>2026-05-09T10:52:19.979Z</time>
      </trkpt>
      <trkpt lat="52.020507" lon="6.369950">
        <ele>61.709398</ele>
        <time>2026-05-09T10:52:22.973Z</time>
      </trkpt>
      <trkpt lat="52.020414" lon="6.369889">
        <ele>61.690344</ele>
        <time>2026-05-09T10:52:28.975Z</time>
      </trkpt>
      <trkpt lat="52.020360" lon="6.369759">
        <ele>61.672006</ele>
        <time>2026-05-09T10:52:31.973Z</time>
      </trkpt>
      <trkpt lat="52.020270" lon="6.369637">
        <ele>61.649738</ele>
        <time>2026-05-09T10:52:34.971Z</time>
      </trkpt>
      <trkpt lat="52.020170" lon="6.369513">
        <ele>61.625839</ele>
        <time>2026-05-09T10:52:37.972Z</time>
      </trkpt>
      <trkpt lat="52.020071" lon="6.369397">
        <ele>61.602650</ele>
        <time>2026-05-09T10:52:40.972Z</time>
      </trkpt>
      <trkpt lat="52.019962" lon="6.369278">
        <ele>61.577701</ele>
        <time>2026-05-09T10:52:43.964Z</time>
      </trkpt>
      <trkpt lat="52.019888" lon="6.369195">
        <ele>61.560618</ele>
        <time>2026-05-09T10:52:45.972Z</time>
      </trkpt>
      <trkpt lat="52.019780" lon="6.369062">
        <ele>61.534872</ele>
        <time>2026-05-09T10:52:48.971Z</time>
      </trkpt>
      <trkpt lat="52.019709" lon="6.368968">
        <ele>61.516481</ele>
        <time>2026-05-09T10:52:50.971Z</time>
      </trkpt>
      <trkpt lat="52.019604" lon="6.368841">
        <ele>61.483863</ele>
        <time>2026-05-09T10:52:53.971Z</time>
      </trkpt>
      <trkpt lat="52.019532" lon="6.368753">
        <ele>61.461413</ele>
        <time>2026-05-09T10:52:55.975Z</time>
      </trkpt>
      <trkpt lat="52.019428" lon="6.368621">
        <ele>61.428529</ele>
        <time>2026-05-09T10:52:58.978Z</time>
      </trkpt>
      <trkpt lat="52.019323" lon="6.368487">
        <ele>61.395259</ele>
        <time>2026-05-09T10:53:01.971Z</time>
      </trkpt>
      <trkpt lat="52.019216" lon="6.368363">
        <ele>61.362509</ele>
        <time>2026-05-09T10:53:04.971Z</time>
      </trkpt>
      <trkpt lat="52.019107" lon="6.368233">
        <ele>61.328816</ele>
        <time>2026-05-09T10:53:07.968Z</time>
      </trkpt>
      <trkpt lat="52.019005" lon="6.368116">
        <ele>61.297704</ele>
        <time>2026-05-09T10:53:10.965Z</time>
      </trkpt>
      <trkpt lat="52.018901" lon="6.367999">
        <ele>61.266183</ele>
        <time>2026-05-09T10:53:13.972Z</time>
      </trkpt>
      <trkpt lat="52.018800" lon="6.367880">
        <ele>61.235095</ele>
        <time>2026-05-09T10:53:16.973Z</time>
      </trkpt>
      <trkpt lat="52.018697" lon="6.367750">
        <ele>61.202595</ele>
        <time>2026-05-09T10:53:19.974Z</time>
      </trkpt>
      <trkpt lat="52.018596" lon="6.367623">
        <ele>61.170772</ele>
        <time>2026-05-09T10:53:22.970Z</time>
      </trkpt>
      <trkpt lat="52.018496" lon="6.367503">
        <ele>61.139794</ele>
        <time>2026-05-09T10:53:25.979Z</time>
      </trkpt>
      <trkpt lat="52.018403" lon="6.367408">
        <ele>61.112420</ele>
        <time>2026-05-09T10:53:28.978Z</time>
      </trkpt>
      <trkpt lat="52.018321" lon="6.367326">
        <ele>61.088427</ele>
        <time>2026-05-09T10:53:31.972Z</time>
      </trkpt>
      <trkpt lat="52.018235" lon="6.367229">
        <ele>61.079779</ele>
        <time>2026-05-09T10:53:34.972Z</time>
      </trkpt>
      <trkpt lat="52.018137" lon="6.367126">
        <ele>61.100875</ele>
        <time>2026-05-09T10:53:37.978Z</time>
      </trkpt>
      <trkpt lat="52.018042" lon="6.367012">
        <ele>61.122222</ele>
        <time>2026-05-09T10:53:40.972Z</time>
      </trkpt>
      <trkpt lat="52.017944" lon="6.366888">
        <ele>61.144673</ele>
        <time>2026-05-09T10:53:43.972Z</time>
      </trkpt>
      <trkpt lat="52.017834" lon="6.366756">
        <ele>61.169390</ele>
        <time>2026-05-09T10:53:46.976Z</time>
      </trkpt>
      <trkpt lat="52.017761" lon="6.366666">
        <ele>61.185953</ele>
        <time>2026-05-09T10:53:48.977Z</time>
      </trkpt>
      <trkpt lat="52.017657" lon="6.366541">
        <ele>61.209335</ele>
        <time>2026-05-09T10:53:51.977Z</time>
      </trkpt>
      <trkpt lat="52.017583" lon="6.366451">
        <ele>61.226042</ele>
        <time>2026-05-09T10:53:53.966Z</time>
      </trkpt>
      <trkpt lat="52.017510" lon="6.366357">
        <ele>61.242878</ele>
        <time>2026-05-09T10:53:55.976Z</time>
      </trkpt>
      <trkpt lat="52.017411" lon="6.366226">
        <ele>61.265955</ele>
        <time>2026-05-09T10:53:58.975Z</time>
      </trkpt>
      <trkpt lat="52.017309" lon="6.366122">
        <ele>61.287721</ele>
        <time>2026-05-09T10:54:01.968Z</time>
      </trkpt>
      <trkpt lat="52.017201" lon="6.366005">
        <ele>61.311184</ele>
        <time>2026-05-09T10:54:04.972Z</time>
      </trkpt>
      <trkpt lat="52.017125" lon="6.365920">
        <ele>61.327860</ele>
        <time>2026-05-09T10:54:06.966Z</time>
      </trkpt>
      <trkpt lat="52.017047" lon="6.365831">
        <ele>61.345088</ele>
        <time>2026-05-09T10:54:08.973Z</time>
      </trkpt>
      <trkpt lat="52.016974" lon="6.365742">
        <ele>61.361584</ele>
        <time>2026-05-09T10:54:10.972Z</time>
      </trkpt>
      <trkpt lat="52.016900" lon="6.365652">
        <ele>61.378292</ele>
        <time>2026-05-09T10:54:12.977Z</time>
      </trkpt>
      <trkpt lat="52.016827" lon="6.365559">
        <ele>61.395059</ele>
        <time>2026-05-09T10:54:14.973Z</time>
      </trkpt>
      <trkpt lat="52.016758" lon="6.365461">
        <ele>61.410559</ele>
        <time>2026-05-09T10:54:16.965Z</time>
      </trkpt>
      <trkpt lat="52.016652" lon="6.365333">
        <ele>61.432623</ele>
        <time>2026-05-09T10:54:19.971Z</time>
      </trkpt>
      <trkpt lat="52.016575" lon="6.365252">
        <ele>61.447948</ele>
        <time>2026-05-09T10:54:21.970Z</time>
      </trkpt>
      <trkpt lat="52.016459" lon="6.365129">
        <ele>61.471090</ele>
        <time>2026-05-09T10:54:24.968Z</time>
      </trkpt>
      <trkpt lat="52.016354" lon="6.364999">
        <ele>61.493144</ele>
        <time>2026-05-09T10:54:27.971Z</time>
      </trkpt>
      <trkpt lat="52.016279" lon="6.364907">
        <ele>61.508844</ele>
        <time>2026-05-09T10:54:29.979Z</time>
      </trkpt>
      <trkpt lat="52.016206" lon="6.364820">
        <ele>61.523969</ele>
        <time>2026-05-09T10:54:31.974Z</time>
      </trkpt>
      <trkpt lat="52.016133" lon="6.364732">
        <ele>61.539155</ele>
        <time>2026-05-09T10:54:33.969Z</time>
      </trkpt>
      <trkpt lat="52.016027" lon="6.364607">
        <ele>61.561037</ele>
        <time>2026-05-09T10:54:36.971Z</time>
      </trkpt>
      <trkpt lat="52.015929" lon="6.364480">
        <ele>61.581979</ele>
        <time>2026-05-09T10:54:39.972Z</time>
      </trkpt>
      <trkpt lat="52.015824" lon="6.364352">
        <ele>61.603910</ele>
        <time>2026-05-09T10:54:42.977Z</time>
      </trkpt>
      <trkpt lat="52.015727" lon="6.364233">
        <ele>61.624216</ele>
        <time>2026-05-09T10:54:45.977Z</time>
      </trkpt>
      <trkpt lat="52.015629" lon="6.364107">
        <ele>61.645095</ele>
        <time>2026-05-09T10:54:48.970Z</time>
      </trkpt>
      <trkpt lat="52.015532" lon="6.363990">
        <ele>61.665277</ele>
        <time>2026-05-09T10:54:51.970Z</time>
      </trkpt>
      <trkpt lat="52.015443" lon="6.363882">
        <ele>61.683836</ele>
        <time>2026-05-09T10:54:54.976Z</time>
      </trkpt>
      <trkpt lat="52.015343" lon="6.363764">
        <ele>61.718601</ele>
        <time>2026-05-09T10:54:57.967Z</time>
      </trkpt>
      <trkpt lat="52.015266" lon="6.363679">
        <ele>61.768310</ele>
        <time>2026-05-09T10:54:59.973Z</time>
      </trkpt>
      <trkpt lat="52.015186" lon="6.363583">
        <ele>61.821416</ele>
        <time>2026-05-09T10:55:01.973Z</time>
      </trkpt>
      <trkpt lat="52.015107" lon="6.363493">
        <ele>61.872938</ele>
        <time>2026-05-09T10:55:03.974Z</time>
      </trkpt>
      <trkpt lat="52.015032" lon="6.363408">
        <ele>61.921767</ele>
        <time>2026-05-09T10:55:05.969Z</time>
      </trkpt>
      <trkpt lat="52.014928" lon="6.363283">
        <ele>61.990845</ele>
        <time>2026-05-09T10:55:08.974Z</time>
      </trkpt>
      <trkpt lat="52.014832" lon="6.363168">
        <ele>62.054534</ele>
        <time>2026-05-09T10:55:11.975Z</time>
      </trkpt>
      <trkpt lat="52.014743" lon="6.363049">
        <ele>62.116082</ele>
        <time>2026-05-09T10:55:14.972Z</time>
      </trkpt>
      <trkpt lat="52.014642" lon="6.362927">
        <ele>62.183286</ele>
        <time>2026-05-09T10:55:17.967Z</time>
      </trkpt>
      <trkpt lat="52.014549" lon="6.362802">
        <ele>62.247737</ele>
        <time>2026-05-09T10:55:20.971Z</time>
      </trkpt>
      <trkpt lat="52.014446" lon="6.362672">
        <ele>62.317382</ele>
        <time>2026-05-09T10:55:23.970Z</time>
      </trkpt>
      <trkpt lat="52.014368" lon="6.362585">
        <ele>62.367903</ele>
        <time>2026-05-09T10:55:25.973Z</time>
      </trkpt>
      <trkpt lat="52.014276" lon="6.362489">
        <ele>62.426289</ele>
        <time>2026-05-09T10:55:27.978Z</time>
      </trkpt>
      <trkpt lat="52.014199" lon="6.362395">
        <ele>62.477718</ele>
        <time>2026-05-09T10:55:29.970Z</time>
      </trkpt>
      <trkpt lat="52.014129" lon="6.362303">
        <ele>62.525796</ele>
        <time>2026-05-09T10:55:31.968Z</time>
      </trkpt>
      <trkpt lat="52.014031" lon="6.362187">
        <ele>62.590541</ele>
        <time>2026-05-09T10:55:34.973Z</time>
      </trkpt>
      <trkpt lat="52.013937" lon="6.362071">
        <ele>62.653572</ele>
        <time>2026-05-09T10:55:37.969Z</time>
      </trkpt>
      <trkpt lat="52.013838" lon="6.361951">
        <ele>62.590204</ele>
        <time>2026-05-09T10:55:40.977Z</time>
      </trkpt>
      <trkpt lat="52.013739" lon="6.361833">
        <ele>62.516803</ele>
        <time>2026-05-09T10:55:43.971Z</time>
      </trkpt>
      <trkpt lat="52.013638" lon="6.361725">
        <ele>62.444521</ele>
        <time>2026-05-09T10:55:46.975Z</time>
      </trkpt>
      <trkpt lat="52.013550" lon="6.361608">
        <ele>62.376545</ele>
        <time>2026-05-09T10:55:49.977Z</time>
      </trkpt>
      <trkpt lat="52.013448" lon="6.361473">
        <ele>62.297898</ele>
        <time>2026-05-09T10:55:52.973Z</time>
      </trkpt>
      <trkpt lat="52.013341" lon="6.361347">
        <ele>62.218898</ele>
        <time>2026-05-09T10:55:55.973Z</time>
      </trkpt>
      <trkpt lat="52.013262" lon="6.361265">
        <ele>62.162856</ele>
        <time>2026-05-09T10:55:57.973Z</time>
      </trkpt>
      <trkpt lat="52.013189" lon="6.361179">
        <ele>62.108951</ele>
        <time>2026-05-09T10:55:59.974Z</time>
      </trkpt>
      <trkpt lat="52.013088" lon="6.361060">
        <ele>62.034368</ele>
        <time>2026-05-09T10:56:02.974Z</time>
      </trkpt>
      <trkpt lat="52.012988" lon="6.360938">
        <ele>61.959609</ele>
        <time>2026-05-09T10:56:05.965Z</time>
      </trkpt>
      <trkpt lat="52.012884" lon="6.360812">
        <ele>61.882055</ele>
        <time>2026-05-09T10:56:08.973Z</time>
      </trkpt>
      <trkpt lat="52.012788" lon="6.360688">
        <ele>61.808738</ele>
        <time>2026-05-09T10:56:11.966Z</time>
      </trkpt>
      <trkpt lat="52.012687" lon="6.360576">
        <ele>61.735637</ele>
        <time>2026-05-09T10:56:14.972Z</time>
      </trkpt>
      <trkpt lat="52.012578" lon="6.360452">
        <ele>61.656090</ele>
        <time>2026-05-09T10:56:17.972Z</time>
      </trkpt>
      <trkpt lat="52.012480" lon="6.360331">
        <ele>61.583203</ele>
        <time>2026-05-09T10:56:20.971Z</time>
      </trkpt>
      <trkpt lat="52.012394" lon="6.360225">
        <ele>61.578131</ele>
        <time>2026-05-09T10:56:23.970Z</time>
      </trkpt>
      <trkpt lat="52.012302" lon="6.360111">
        <ele>61.572695</ele>
        <time>2026-05-09T10:56:26.969Z</time>
      </trkpt>
      <trkpt lat="52.012208" lon="6.359999">
        <ele>61.567218</ele>
        <time>2026-05-09T10:56:29.968Z</time>
      </trkpt>
      <trkpt lat="52.012113" lon="6.359887">
        <ele>61.561703</ele>
        <time>2026-05-09T10:56:32.971Z</time>
      </trkpt>
      <trkpt lat="52.012017" lon="6.359771">
        <ele>61.556082</ele>
        <time>2026-05-09T10:56:35.963Z</time>
      </trkpt>
      <trkpt lat="52.011927" lon="6.359671">
        <ele>61.550959</ele>
        <time>2026-05-09T10:56:38.970Z</time>
      </trkpt>
      <trkpt lat="52.011839" lon="6.359549">
        <ele>61.545524</ele>
        <time>2026-05-09T10:56:41.966Z</time>
      </trkpt>
      <trkpt lat="52.011745" lon="6.359430">
        <ele>61.539925</ele>
        <time>2026-05-09T10:56:44.968Z</time>
      </trkpt>
      <trkpt lat="52.011647" lon="6.359313">
        <ele>61.534211</ele>
        <time>2026-05-09T10:56:47.975Z</time>
      </trkpt>
      <trkpt lat="52.011562" lon="6.359209">
        <ele>61.529212</ele>
        <time>2026-05-09T10:56:50.972Z</time>
      </trkpt>
      <trkpt lat="52.011467" lon="6.359084">
        <ele>61.523468</ele>
        <time>2026-05-09T10:56:53.973Z</time>
      </trkpt>
      <trkpt lat="52.011381" lon="6.358975">
        <ele>61.518343</ele>
        <time>2026-05-09T10:56:56.973Z</time>
      </trkpt>
      <trkpt lat="52.011297" lon="6.358877">
        <ele>61.513485</ele>
        <time>2026-05-09T10:56:59.972Z</time>
      </trkpt>
      <trkpt lat="52.011204" lon="6.358787">
        <ele>61.508399</ele>
        <time>2026-05-09T10:57:02.972Z</time>
      </trkpt>
      <trkpt lat="52.011114" lon="6.358693">
        <ele>61.503372</ele>
        <time>2026-05-09T10:57:05.970Z</time>
      </trkpt>
      <trkpt lat="52.011034" lon="6.358589">
        <ele>61.497098</ele>
        <time>2026-05-09T10:57:08.970Z</time>
      </trkpt>
      <trkpt lat="52.010948" lon="6.358520">
        <ele>61.459210</ele>
        <time>2026-05-09T10:57:11.971Z</time>
      </trkpt>
      <trkpt lat="52.010843" lon="6.358417">
        <ele>61.410759</ele>
        <time>2026-05-09T10:57:14.970Z</time>
      </trkpt>
      <trkpt lat="52.010768" lon="6.358326">
        <ele>61.373782</ele>
        <time>2026-05-09T10:57:16.963Z</time>
      </trkpt>
      <trkpt lat="52.010690" lon="6.358235">
        <ele>61.335850</ele>
        <time>2026-05-09T10:57:18.964Z</time>
      </trkpt>
      <trkpt lat="52.010615" lon="6.358134">
        <ele>61.297369</ele>
        <time>2026-05-09T10:57:20.963Z</time>
      </trkpt>
      <trkpt lat="52.010542" lon="6.358032">
        <ele>61.259335</ele>
        <time>2026-05-09T10:57:22.971Z</time>
      </trkpt>
      <trkpt lat="52.010431" lon="6.357908">
        <ele>61.206122</ele>
        <time>2026-05-09T10:57:25.974Z</time>
      </trkpt>
      <trkpt lat="52.010356" lon="6.357812">
        <ele>61.168406</ele>
        <time>2026-05-09T10:57:27.967Z</time>
      </trkpt>
      <trkpt lat="52.010280" lon="6.357714">
        <ele>61.130078</ele>
        <time>2026-05-09T10:57:29.969Z</time>
      </trkpt>
      <trkpt lat="52.010198" lon="6.357621">
        <ele>61.090574</ele>
        <time>2026-05-09T10:57:31.968Z</time>
      </trkpt>
      <trkpt lat="52.010120" lon="6.357536">
        <ele>61.053473</ele>
        <time>2026-05-09T10:57:33.985Z</time>
      </trkpt>
      <trkpt lat="52.010037" lon="6.357475">
        <ele>61.017488</ele>
        <time>2026-05-09T10:57:35.974Z</time>
      </trkpt>
      <trkpt lat="52.009948" lon="6.357331">
        <ele>60.967871</ele>
        <time>2026-05-09T10:57:38.975Z</time>
      </trkpt>
      <trkpt lat="52.009880" lon="6.357235">
        <ele>60.932285</ele>
        <time>2026-05-09T10:57:40.976Z</time>
      </trkpt>
      <trkpt lat="52.009806" lon="6.357150">
        <ele>60.896485</ele>
        <time>2026-05-09T10:57:42.982Z</time>
      </trkpt>
      <trkpt lat="52.009695" lon="6.357031">
        <ele>60.843952</ele>
        <time>2026-05-09T10:57:45.974Z</time>
      </trkpt>
      <trkpt lat="52.009593" lon="6.356945">
        <ele>60.798557</ele>
        <time>2026-05-09T10:57:48.971Z</time>
      </trkpt>
      <trkpt lat="52.009494" lon="6.357041">
        <ele>60.803562</ele>
        <time>2026-05-09T10:57:51.969Z</time>
      </trkpt>
      <trkpt lat="52.009443" lon="6.357179">
        <ele>60.820558</ele>
        <time>2026-05-09T10:57:53.974Z</time>
      </trkpt>
      <trkpt lat="52.009360" lon="6.357262">
        <ele>60.837277</ele>
        <time>2026-05-09T10:57:55.967Z</time>
      </trkpt>
      <trkpt lat="52.009255" lon="6.357250">
        <ele>60.855334</ele>
        <time>2026-05-09T10:57:57.983Z</time>
      </trkpt>
      <trkpt lat="52.009146" lon="6.357233">
        <ele>60.874118</ele>
        <time>2026-05-09T10:57:59.966Z</time>
      </trkpt>
      <trkpt lat="52.009034" lon="6.357216">
        <ele>60.893414</ele>
        <time>2026-05-09T10:58:01.973Z</time>
      </trkpt>
      <trkpt lat="52.008927" lon="6.357201">
        <ele>60.911837</ele>
        <time>2026-05-09T10:58:03.968Z</time>
      </trkpt>
      <trkpt lat="52.008818" lon="6.357174">
        <ele>60.930752</ele>
        <time>2026-05-09T10:58:05.974Z</time>
      </trkpt>
      <trkpt lat="52.008704" lon="6.357153">
        <ele>60.950433</ele>
        <time>2026-05-09T10:58:07.973Z</time>
      </trkpt>
      <trkpt lat="52.008587" lon="6.357110">
        <ele>60.971010</ele>
        <time>2026-05-09T10:58:09.971Z</time>
      </trkpt>
      <trkpt lat="52.008471" lon="6.357068">
        <ele>60.991397</ele>
        <time>2026-05-09T10:58:11.972Z</time>
      </trkpt>
      <trkpt lat="52.008356" lon="6.357026">
        <ele>61.011617</ele>
        <time>2026-05-09T10:58:13.979Z</time>
      </trkpt>
      <trkpt lat="52.008249" lon="6.356983">
        <ele>61.030525</ele>
        <time>2026-05-09T10:58:15.973Z</time>
      </trkpt>
      <trkpt lat="52.008148" lon="6.356939">
        <ele>61.048463</ele>
        <time>2026-05-09T10:58:17.964Z</time>
      </trkpt>
      <trkpt lat="52.008041" lon="6.356888">
        <ele>61.067592</ele>
        <time>2026-05-09T10:58:19.969Z</time>
      </trkpt>
      <trkpt lat="52.007938" lon="6.356832">
        <ele>61.086224</ele>
        <time>2026-05-09T10:58:21.982Z</time>
      </trkpt>
      <trkpt lat="52.007827" lon="6.356771">
        <ele>61.103556</ele>
        <time>2026-05-09T10:58:23.969Z</time>
      </trkpt>
      <trkpt lat="52.007718" lon="6.356718">
        <ele>61.117399</ele>
        <time>2026-05-09T10:58:25.970Z</time>
      </trkpt>
      <trkpt lat="52.007617" lon="6.356667">
        <ele>61.130268</ele>
        <time>2026-05-09T10:58:27.970Z</time>
      </trkpt>
      <trkpt lat="52.007513" lon="6.356610">
        <ele>61.143622</ele>
        <time>2026-05-09T10:58:29.968Z</time>
      </trkpt>
      <trkpt lat="52.007401" lon="6.356554">
        <ele>61.157880</ele>
        <time>2026-05-09T10:58:31.971Z</time>
      </trkpt>
      <trkpt lat="52.007296" lon="6.356499">
        <ele>61.171303</ele>
        <time>2026-05-09T10:58:33.966Z</time>
      </trkpt>
      <trkpt lat="52.007192" lon="6.356447">
        <ele>61.184543</ele>
        <time>2026-05-09T10:58:35.967Z</time>
      </trkpt>
      <trkpt lat="52.007089" lon="6.356383">
        <ele>61.197960</ele>
        <time>2026-05-09T10:58:37.976Z</time>
      </trkpt>
      <trkpt lat="52.006985" lon="6.356309">
        <ele>61.211774</ele>
        <time>2026-05-09T10:58:39.969Z</time>
      </trkpt>
      <trkpt lat="52.006882" lon="6.356237">
        <ele>61.225417</ele>
        <time>2026-05-09T10:58:41.971Z</time>
      </trkpt>
      <trkpt lat="52.006777" lon="6.356170">
        <ele>61.239143</ele>
        <time>2026-05-09T10:58:43.971Z</time>
      </trkpt>
      <trkpt lat="52.006665" lon="6.356107">
        <ele>61.253564</ele>
        <time>2026-05-09T10:58:45.968Z</time>
      </trkpt>
      <trkpt lat="52.006564" lon="6.356036">
        <ele>61.266954</ele>
        <time>2026-05-09T10:58:47.970Z</time>
      </trkpt>
      <trkpt lat="52.006470" lon="6.355948">
        <ele>61.280154</ele>
        <time>2026-05-09T10:58:49.973Z</time>
      </trkpt>
      <trkpt lat="52.006362" lon="6.355886">
        <ele>61.294091</ele>
        <time>2026-05-09T10:58:51.972Z</time>
      </trkpt>
      <trkpt lat="52.006262" lon="6.355812">
        <ele>61.307460</ele>
        <time>2026-05-09T10:58:53.973Z</time>
      </trkpt>
      <trkpt lat="52.006164" lon="6.355739">
        <ele>61.342370</ele>
        <time>2026-05-09T10:58:55.972Z</time>
      </trkpt>
      <trkpt lat="52.006064" lon="6.355682">
        <ele>61.412184</ele>
        <time>2026-05-09T10:58:57.973Z</time>
      </trkpt>
      <trkpt lat="52.005972" lon="6.355621">
        <ele>61.477644</ele>
        <time>2026-05-09T10:58:59.972Z</time>
      </trkpt>
      <trkpt lat="52.005874" lon="6.355555">
        <ele>61.547531</ele>
        <time>2026-05-09T10:59:01.969Z</time>
      </trkpt>
      <trkpt lat="52.005784" lon="6.355478">
        <ele>61.614540</ele>
        <time>2026-05-09T10:59:03.971Z</time>
      </trkpt>
      <trkpt lat="52.005749" lon="6.355332">
        <ele>61.678078</ele>
        <time>2026-05-09T10:59:05.971Z</time>
      </trkpt>
      <trkpt lat="52.005753" lon="6.355176">
        <ele>61.741395</ele>
        <time>2026-05-09T10:59:07.966Z</time>
      </trkpt>
      <trkpt lat="52.005770" lon="6.355013">
        <ele>61.808438</ele>
        <time>2026-05-09T10:59:09.970Z</time>
      </trkpt>
      <trkpt lat="52.005783" lon="6.354851">
        <ele>61.874688</ele>
        <time>2026-05-09T10:59:11.969Z</time>
      </trkpt>
      <trkpt lat="52.005798" lon="6.354690">
        <ele>61.940721</ele>
        <time>2026-05-09T10:59:13.970Z</time>
      </trkpt>
      <trkpt lat="52.005815" lon="6.354525">
        <ele>62.008564</ele>
        <time>2026-05-09T10:59:15.971Z</time>
      </trkpt>
      <trkpt lat="52.005827" lon="6.354350">
        <ele>62.079969</ele>
        <time>2026-05-09T10:59:17.969Z</time>
      </trkpt>
      <trkpt lat="52.005842" lon="6.354182">
        <ele>62.148810</ele>
        <time>2026-05-09T10:59:19.968Z</time>
      </trkpt>
      <trkpt lat="52.005858" lon="6.354013">
        <ele>62.218150</ele>
        <time>2026-05-09T10:59:21.970Z</time>
      </trkpt>
      <trkpt lat="52.005874" lon="6.353868">
        <ele>62.277888</ele>
        <time>2026-05-09T10:59:23.969Z</time>
      </trkpt>
      <trkpt lat="52.005902" lon="6.353658">
        <ele>62.365023</ele>
        <time>2026-05-09T10:59:26.969Z</time>
      </trkpt>
      <trkpt lat="52.005926" lon="6.353515">
        <ele>62.425129</ele>
        <time>2026-05-09T10:59:28.965Z</time>
      </trkpt>
      <trkpt lat="52.005952" lon="6.353373">
        <ele>62.485207</ele>
        <time>2026-05-09T10:59:30.971Z</time>
      </trkpt>
      <trkpt lat="52.005991" lon="6.353166">
        <ele>62.525537</ele>
        <time>2026-05-09T10:59:33.983Z</time>
      </trkpt>
      <trkpt lat="52.006038" lon="6.352979">
        <ele>62.553805</ele>
        <time>2026-05-09T10:59:36.967Z</time>
      </trkpt>
      <trkpt lat="52.006082" lon="6.352823">
        <ele>62.577820</ele>
        <time>2026-05-09T10:59:39.970Z</time>
      </trkpt>
      <trkpt lat="52.006101" lon="6.352674">
        <ele>62.599116</ele>
        <time>2026-05-09T10:59:43.973Z</time>
      </trkpt>
      <trkpt lat="52.006033" lon="6.352514">
        <ele>62.626326</ele>
        <time>2026-05-09T10:59:47.976Z</time>
      </trkpt>
      <trkpt lat="52.005949" lon="6.352441">
        <ele>62.647985</ele>
        <time>2026-05-09T10:59:50.973Z</time>
      </trkpt>
      <trkpt lat="52.005843" lon="6.352421">
        <ele>62.672246</ele>
        <time>2026-05-09T10:59:54.972Z</time>
      </trkpt>
      <trkpt lat="52.005746" lon="6.352403">
        <ele>62.694442</ele>
        <time>2026-05-09T11:00:00.966Z</time>
      </trkpt>
      <trkpt lat="52.005805" lon="6.352185">
        <ele>62.727771</ele>
        <time>2026-05-09T11:00:49.968Z</time>
      </trkpt>
      <trkpt lat="52.005899" lon="6.352234">
        <ele>62.750215</ele>
        <time>2026-05-09T11:00:53.966Z</time>
      </trkpt>
      <trkpt lat="52.005995" lon="6.352322">
        <ele>62.775275</ele>
        <time>2026-05-09T11:00:57.966Z</time>
      </trkpt>
      <trkpt lat="52.006087" lon="6.352404">
        <ele>62.799133</ele>
        <time>2026-05-09T11:01:01.965Z</time>
      </trkpt>
      <trkpt lat="52.006185" lon="6.352414">
        <ele>62.821457</ele>
        <time>2026-05-09T11:01:08.977Z</time>
      </trkpt>
      <trkpt lat="52.006260" lon="6.352321">
        <ele>62.842908</ele>
        <time>2026-05-09T11:01:12.973Z</time>
      </trkpt>
      <trkpt lat="52.006312" lon="6.352181">
        <ele>62.865792</ele>
        <time>2026-05-09T11:01:15.972Z</time>
      </trkpt>
      <trkpt lat="52.006359" lon="6.352052">
        <ele>62.886771</ele>
        <time>2026-05-09T11:01:18.967Z</time>
      </trkpt>
      <trkpt lat="52.006413" lon="6.351918">
        <ele>62.909185</ele>
        <time>2026-05-09T11:01:21.971Z</time>
      </trkpt>
      <trkpt lat="52.006465" lon="6.351765">
        <ele>62.896510</ele>
        <time>2026-05-09T11:01:24.970Z</time>
      </trkpt>
      <trkpt lat="52.006516" lon="6.351608">
        <ele>62.883224</ele>
        <time>2026-05-09T11:01:27.978Z</time>
      </trkpt>
      <trkpt lat="52.006561" lon="6.351466">
        <ele>62.871270</ele>
        <time>2026-05-09T11:01:30.978Z</time>
      </trkpt>
      <trkpt lat="52.006604" lon="6.351335">
        <ele>62.860159</ele>
        <time>2026-05-09T11:01:33.971Z</time>
      </trkpt>
      <trkpt lat="52.006643" lon="6.351200">
        <ele>62.848998</ele>
        <time>2026-05-09T11:01:36.968Z</time>
      </trkpt>
      <trkpt lat="52.006690" lon="6.351036">
        <ele>62.835458</ele>
        <time>2026-05-09T11:01:40.970Z</time>
      </trkpt>
      <trkpt lat="52.006728" lon="6.350892">
        <ele>62.823732</ele>
        <time>2026-05-09T11:01:43.965Z</time>
      </trkpt>
      <trkpt lat="52.006768" lon="6.350729">
        <ele>62.810599</ele>
        <time>2026-05-09T11:01:47.966Z</time>
      </trkpt>
      <trkpt lat="52.006805" lon="6.350589">
        <ele>62.799196</ele>
        <time>2026-05-09T11:01:50.974Z</time>
      </trkpt>
      <trkpt lat="52.006840" lon="6.350435">
        <ele>62.786909</ele>
        <time>2026-05-09T11:01:53.973Z</time>
      </trkpt>
      <trkpt lat="52.006882" lon="6.350262">
        <ele>62.772991</ele>
        <time>2026-05-09T11:01:57.968Z</time>
      </trkpt>
      <trkpt lat="52.006919" lon="6.350122">
        <ele>62.761588</ele>
        <time>2026-05-09T11:02:01.976Z</time>
      </trkpt>
      <trkpt lat="52.007006" lon="6.350025">
        <ele>62.748758</ele>
        <time>2026-05-09T11:02:06.975Z</time>
      </trkpt>
      <trkpt lat="52.007097" lon="6.349959">
        <ele>62.736642</ele>
        <time>2026-05-09T11:02:11.976Z</time>
      </trkpt>
      <trkpt lat="52.007014" lon="6.349871">
        <ele>62.724591</ele>
        <time>2026-05-09T11:02:21.974Z</time>
      </trkpt>
      <trkpt lat="52.006911" lon="6.349919">
        <ele>62.711563</ele>
        <time>2026-05-09T11:02:26.978Z</time>
      </trkpt>
      <trkpt lat="52.006811" lon="6.349947">
        <ele>62.699225</ele>
        <time>2026-05-09T11:02:30.976Z</time>
      </trkpt>
      <trkpt lat="52.006762" lon="6.349795">
        <ele>62.690918</ele>
        <time>2026-05-09T11:03:25.980Z</time>
      </trkpt>
      <trkpt lat="52.006853" lon="6.349809">
        <ele>62.691314</ele>
        <time>2026-05-09T11:03:58.969Z</time>
      </trkpt>
      <trkpt lat="52.006757" lon="6.349706">
        <ele>62.691813</ele>
        <time>2026-05-09T11:04:36.976Z</time>
      </trkpt>
      <trkpt lat="52.006655" lon="6.349666">
        <ele>62.692268</ele>
        <time>2026-05-09T11:04:42.970Z</time>
      </trkpt>
      <trkpt lat="52.006566" lon="6.349629">
        <ele>62.692666</ele>
        <time>2026-05-09T11:04:47.974Z</time>
      </trkpt>
      <trkpt lat="52.006477" lon="6.349571">
        <ele>62.693082</ele>
        <time>2026-05-09T11:04:52.973Z</time>
      </trkpt>
      <trkpt lat="52.006386" lon="6.349534">
        <ele>62.693488</ele>
        <time>2026-05-09T11:04:57.973Z</time>
      </trkpt>
      <trkpt lat="52.006298" lon="6.349488">
        <ele>62.693889</ele>
        <time>2026-05-09T11:05:01.973Z</time>
      </trkpt>
      <trkpt lat="52.006204" lon="6.349436">
        <ele>62.694320</ele>
        <time>2026-05-09T11:05:06.973Z</time>
      </trkpt>
      <trkpt lat="52.006103" lon="6.349419">
        <ele>62.694760</ele>
        <time>2026-05-09T11:05:10.969Z</time>
      </trkpt>
      <trkpt lat="52.006023" lon="6.349539">
        <ele>62.695232</ele>
        <time>2026-05-09T11:05:16.970Z</time>
      </trkpt>
      <trkpt lat="52.005968" lon="6.349659">
        <ele>62.695631</ele>
        <time>2026-05-09T11:05:20.974Z</time>
      </trkpt>
      <trkpt lat="52.005875" lon="6.349858">
        <ele>62.696298</ele>
        <time>2026-05-09T11:06:16.971Z</time>
      </trkpt>
      <trkpt lat="52.005815" lon="6.349979">
        <ele>62.696712</ele>
        <time>2026-05-09T11:06:21.971Z</time>
      </trkpt>
      <trkpt lat="52.005754" lon="6.350088">
        <ele>62.697105</ele>
        <time>2026-05-09T11:06:25.977Z</time>
      </trkpt>
      <trkpt lat="52.005676" lon="6.350201">
        <ele>62.697558</ele>
        <time>2026-05-09T11:06:29.978Z</time>
      </trkpt>
      <trkpt lat="52.005610" lon="6.350322">
        <ele>62.697990</ele>
        <time>2026-05-09T11:06:34.976Z</time>
      </trkpt>
      <trkpt lat="52.005536" lon="6.350434">
        <ele>62.698428</ele>
        <time>2026-05-09T11:06:40.969Z</time>
      </trkpt>
      <trkpt lat="52.005467" lon="6.350547">
        <ele>62.664167</ele>
        <time>2026-05-09T11:06:46.975Z</time>
      </trkpt>
      <trkpt lat="52.005372" lon="6.350498">
        <ele>62.613664</ele>
        <time>2026-05-09T11:06:57.974Z</time>
      </trkpt>
      <trkpt lat="52.005308" lon="6.350362">
        <ele>62.560270</ele>
        <time>2026-05-09T11:07:02.972Z</time>
      </trkpt>
      <trkpt lat="52.005238" lon="6.350266">
        <ele>62.513853</ele>
        <time>2026-05-09T11:07:07.973Z</time>
      </trkpt>
      <trkpt lat="52.005165" lon="6.350150">
        <ele>62.462111</ele>
        <time>2026-05-09T11:07:14.967Z</time>
      </trkpt>
      <trkpt lat="52.005097" lon="6.350018">
        <ele>62.408425</ele>
        <time>2026-05-09T11:07:21.972Z</time>
      </trkpt>
      <trkpt lat="52.005029" lon="6.349880">
        <ele>62.353290</ele>
        <time>2026-05-09T11:07:26.973Z</time>
      </trkpt>
      <trkpt lat="52.004956" lon="6.349761">
        <ele>62.300890</ele>
        <time>2026-05-09T11:07:32.977Z</time>
      </trkpt>
      <trkpt lat="52.004873" lon="6.349704">
        <ele>62.255232</ele>
        <time>2026-05-09T11:07:38.973Z</time>
      </trkpt>
      <trkpt lat="52.004792" lon="6.349786">
        <ele>62.206874</ele>
        <time>2026-05-09T11:07:43.968Z</time>
      </trkpt>
      <trkpt lat="52.004712" lon="6.349866">
        <ele>62.159274</ele>
        <time>2026-05-09T11:07:48.985Z</time>
      </trkpt>
      <trkpt lat="52.004620" lon="6.349969">
        <ele>62.102661</ele>
        <time>2026-05-09T11:08:19.967Z</time>
      </trkpt>
      <trkpt lat="52.004548" lon="6.350072">
        <ele>62.054050</ele>
        <time>2026-05-09T11:08:22.971Z</time>
      </trkpt>
      <trkpt lat="52.004471" lon="6.350170">
        <ele>62.004487</ele>
        <time>2026-05-09T11:08:25.970Z</time>
      </trkpt>
      <trkpt lat="52.004399" lon="6.350268">
        <ele>61.956893</ele>
        <time>2026-05-09T11:08:28.973Z</time>
      </trkpt>
      <trkpt lat="52.004321" lon="6.350397">
        <ele>61.900493</ele>
        <time>2026-05-09T11:08:32.973Z</time>
      </trkpt>
      <trkpt lat="52.004289" lon="6.350544">
        <ele>61.851860</ele>
        <time>2026-05-09T11:08:35.974Z</time>
      </trkpt>
      <trkpt lat="52.004262" lon="6.350691">
        <ele>61.804011</ele>
        <time>2026-05-09T11:08:38.971Z</time>
      </trkpt>
      <trkpt lat="52.004228" lon="6.350860">
        <ele>61.764520</ele>
        <time>2026-05-09T11:08:41.973Z</time>
      </trkpt>
      <trkpt lat="52.004185" lon="6.351060">
        <ele>61.725727</ele>
        <time>2026-05-09T11:09:36.966Z</time>
      </trkpt>
      <trkpt lat="52.004155" lon="6.351219">
        <ele>61.695275</ele>
        <time>2026-05-09T11:09:40.972Z</time>
      </trkpt>
      <trkpt lat="52.004109" lon="6.351378">
        <ele>61.663104</ele>
        <time>2026-05-09T11:09:45.969Z</time>
      </trkpt>
      <trkpt lat="52.004004" lon="6.351454">
        <ele>61.628911</ele>
        <time>2026-05-09T11:09:50.972Z</time>
      </trkpt>
      <trkpt lat="52.003914" lon="6.351388">
        <ele>61.599538</ele>
        <time>2026-05-09T11:09:53.971Z</time>
      </trkpt>
      <trkpt lat="52.003822" lon="6.351327">
        <ele>61.569979</ele>
        <time>2026-05-09T11:09:56.973Z</time>
      </trkpt>
      <trkpt lat="52.003716" lon="6.351267">
        <ele>61.536589</ele>
        <time>2026-05-09T11:09:59.971Z</time>
      </trkpt>
      <trkpt lat="52.003600" lon="6.351214">
        <ele>61.500745</ele>
        <time>2026-05-09T11:10:02.970Z</time>
      </trkpt>
      <trkpt lat="52.003493" lon="6.351144">
        <ele>61.466433</ele>
        <time>2026-05-09T11:10:05.977Z</time>
      </trkpt>
      <trkpt lat="52.003370" lon="6.351084">
        <ele>61.428231</ele>
        <time>2026-05-09T11:10:08.971Z</time>
      </trkpt>
      <trkpt lat="52.003256" lon="6.351009">
        <ele>61.391645</ele>
        <time>2026-05-09T11:10:11.972Z</time>
      </trkpt>
      <trkpt lat="52.003139" lon="6.350951">
        <ele>61.355258</ele>
        <time>2026-05-09T11:10:14.969Z</time>
      </trkpt>
      <trkpt lat="52.003016" lon="6.350880">
        <ele>61.316429</ele>
        <time>2026-05-09T11:10:17.969Z</time>
      </trkpt>
      <trkpt lat="52.002891" lon="6.350827">
        <ele>61.278000</ele>
        <time>2026-05-09T11:10:20.972Z</time>
      </trkpt>
      <trkpt lat="52.002804" lon="6.350788">
        <ele>61.253329</ele>
        <time>2026-05-09T11:10:22.969Z</time>
      </trkpt>
      <trkpt lat="52.002715" lon="6.350760">
        <ele>61.282600</ele>
        <time>2026-05-09T11:10:24.972Z</time>
      </trkpt>
      <trkpt lat="52.002582" lon="6.350714">
        <ele>61.326507</ele>
        <time>2026-05-09T11:10:27.973Z</time>
      </trkpt>
      <trkpt lat="52.002482" lon="6.350698">
        <ele>61.358952</ele>
        <time>2026-05-09T11:10:29.969Z</time>
      </trkpt>
      <trkpt lat="52.002388" lon="6.350665">
        <ele>61.390004</ele>
        <time>2026-05-09T11:10:31.990Z</time>
      </trkpt>
      <trkpt lat="52.002297" lon="6.350637">
        <ele>61.419909</ele>
        <time>2026-05-09T11:10:33.968Z</time>
      </trkpt>
      <trkpt lat="52.002169" lon="6.350593">
        <ele>61.462154</ele>
        <time>2026-05-09T11:10:36.975Z</time>
      </trkpt>
      <trkpt lat="52.002048" lon="6.350539">
        <ele>61.502672</ele>
        <time>2026-05-09T11:10:39.970Z</time>
      </trkpt>
      <trkpt lat="52.001944" lon="6.350474">
        <ele>61.538652</ele>
        <time>2026-05-09T11:10:42.972Z</time>
      </trkpt>
      <trkpt lat="52.001826" lon="6.350415">
        <ele>61.578517</ele>
        <time>2026-05-09T11:10:45.968Z</time>
      </trkpt>
      <trkpt lat="52.001701" lon="6.350329">
        <ele>61.622350</ele>
        <time>2026-05-09T11:10:48.974Z</time>
      </trkpt>
      <trkpt lat="52.001607" lon="6.350277">
        <ele>61.654413</ele>
        <time>2026-05-09T11:10:50.972Z</time>
      </trkpt>
      <trkpt lat="52.001515" lon="6.350218">
        <ele>61.686350</ele>
        <time>2026-05-09T11:10:52.971Z</time>
      </trkpt>
      <trkpt lat="52.001427" lon="6.350159">
        <ele>61.717090</ele>
        <time>2026-05-09T11:10:54.977Z</time>
      </trkpt>
      <trkpt lat="52.001331" lon="6.350123">
        <ele>61.748902</ele>
        <time>2026-05-09T11:10:56.986Z</time>
      </trkpt>
      <trkpt lat="52.001244" lon="6.350069">
        <ele>61.778975</ele>
        <time>2026-05-09T11:10:58.972Z</time>
      </trkpt>
      <trkpt lat="52.001148" lon="6.350048">
        <ele>61.810252</ele>
        <time>2026-05-09T11:11:00.977Z</time>
      </trkpt>
      <trkpt lat="52.001065" lon="6.350109">
        <ele>61.839241</ele>
        <time>2026-05-09T11:11:02.976Z</time>
      </trkpt>
      <trkpt lat="52.000965" lon="6.350132">
        <ele>61.869779</ele>
        <time>2026-05-09T11:11:04.976Z</time>
      </trkpt>
      <trkpt lat="52.000869" lon="6.350084">
        <ele>61.900150</ele>
        <time>2026-05-09T11:11:06.971Z</time>
      </trkpt>
      <trkpt lat="52.000788" lon="6.350019">
        <ele>61.927468</ele>
        <time>2026-05-09T11:11:08.964Z</time>
      </trkpt>
      <trkpt lat="52.000671" lon="6.349917">
        <ele>61.967618</ele>
        <time>2026-05-09T11:11:11.967Z</time>
      </trkpt>
      <trkpt lat="52.000582" lon="6.349865">
        <ele>61.996217</ele>
        <time>2026-05-09T11:11:13.971Z</time>
      </trkpt>
      <trkpt lat="52.000479" lon="6.349822">
        <ele>62.028373</ele>
        <time>2026-05-09T11:11:15.971Z</time>
      </trkpt>
      <trkpt lat="52.000373" lon="6.349763">
        <ele>62.062253</ele>
        <time>2026-05-09T11:11:17.969Z</time>
      </trkpt>
      <trkpt lat="52.000277" lon="6.349709">
        <ele>62.092971</ele>
        <time>2026-05-09T11:11:19.975Z</time>
      </trkpt>
      <trkpt lat="52.000175" lon="6.349647">
        <ele>62.125901</ele>
        <time>2026-05-09T11:11:21.973Z</time>
      </trkpt>
      <trkpt lat="52.000090" lon="6.349588">
        <ele>62.153851</ele>
        <time>2026-05-09T11:11:23.973Z</time>
      </trkpt>
      <trkpt lat="51.999990" lon="6.349530">
        <ele>62.185957</ele>
        <time>2026-05-09T11:11:25.970Z</time>
      </trkpt>
      <trkpt lat="51.999892" lon="6.349470">
        <ele>62.217624</ele>
        <time>2026-05-09T11:11:27.972Z</time>
      </trkpt>
      <trkpt lat="51.999787" lon="6.349420">
        <ele>62.250709</ele>
        <time>2026-05-09T11:11:29.972Z</time>
      </trkpt>
      <trkpt lat="51.999692" lon="6.349363">
        <ele>62.281331</ele>
        <time>2026-05-09T11:11:31.966Z</time>
      </trkpt>
      <trkpt lat="51.999592" lon="6.349305">
        <ele>62.313438</ele>
        <time>2026-05-09T11:11:33.973Z</time>
      </trkpt>
      <trkpt lat="51.999493" lon="6.349244">
        <ele>62.345453</ele>
        <time>2026-05-09T11:11:35.998Z</time>
      </trkpt>
      <trkpt lat="51.999387" lon="6.349188">
        <ele>62.372505</ele>
        <time>2026-05-09T11:11:37.980Z</time>
      </trkpt>
      <trkpt lat="51.999292" lon="6.349130">
        <ele>62.316346</ele>
        <time>2026-05-09T11:11:39.971Z</time>
      </trkpt>
      <trkpt lat="51.999202" lon="6.349084">
        <ele>62.264136</ele>
        <time>2026-05-09T11:11:41.970Z</time>
      </trkpt>
      <trkpt lat="51.999103" lon="6.349021">
        <ele>62.205300</ele>
        <time>2026-05-09T11:11:43.970Z</time>
      </trkpt>
      <trkpt lat="51.999013" lon="6.348960">
        <ele>62.151336</ele>
        <time>2026-05-09T11:11:45.978Z</time>
      </trkpt>
      <trkpt lat="51.998895" lon="6.348901">
        <ele>62.083016</ele>
        <time>2026-05-09T11:11:48.969Z</time>
      </trkpt>
      <trkpt lat="51.998797" lon="6.348839">
        <ele>62.024819</ele>
        <time>2026-05-09T11:11:51.972Z</time>
      </trkpt>
      <trkpt lat="51.998693" lon="6.348783">
        <ele>61.964190</ele>
        <time>2026-05-09T11:11:54.971Z</time>
      </trkpt>
      <trkpt lat="51.998568" lon="6.348721">
        <ele>61.891867</ele>
        <time>2026-05-09T11:11:57.970Z</time>
      </trkpt>
      <trkpt lat="51.998479" lon="6.348669">
        <ele>61.839529</ele>
        <time>2026-05-09T11:11:59.976Z</time>
      </trkpt>
      <trkpt lat="51.998389" lon="6.348618">
        <ele>61.786784</ele>
        <time>2026-05-09T11:12:01.976Z</time>
      </trkpt>
      <trkpt lat="51.998297" lon="6.348570">
        <ele>61.733313</ele>
        <time>2026-05-09T11:12:03.970Z</time>
      </trkpt>
      <trkpt lat="51.998204" lon="6.348516">
        <ele>61.678661</ele>
        <time>2026-05-09T11:12:05.970Z</time>
      </trkpt>
      <trkpt lat="51.998103" lon="6.348460">
        <ele>61.619606</ele>
        <time>2026-05-09T11:12:07.983Z</time>
      </trkpt>
      <trkpt lat="51.998015" lon="6.348402">
        <ele>61.567054</ele>
        <time>2026-05-09T11:12:09.975Z</time>
      </trkpt>
      <trkpt lat="51.997920" lon="6.348349">
        <ele>61.511471</ele>
        <time>2026-05-09T11:12:11.986Z</time>
      </trkpt>
      <trkpt lat="51.997822" lon="6.348294">
        <ele>61.454096</ele>
        <time>2026-05-09T11:12:13.969Z</time>
      </trkpt>
      <trkpt lat="51.997726" lon="6.348238">
        <ele>61.397652</ele>
        <time>2026-05-09T11:12:15.970Z</time>
      </trkpt>
      <trkpt lat="51.997628" lon="6.348185">
        <ele>61.391864</ele>
        <time>2026-05-09T11:12:17.972Z</time>
      </trkpt>
      <trkpt lat="51.997529" lon="6.348141">
        <ele>61.406183</ele>
        <time>2026-05-09T11:12:19.966Z</time>
      </trkpt>
      <trkpt lat="51.997438" lon="6.348082">
        <ele>61.419854</ele>
        <time>2026-05-09T11:12:21.968Z</time>
      </trkpt>
      <trkpt lat="51.997338" lon="6.348035">
        <ele>61.434378</ele>
        <time>2026-05-09T11:12:23.964Z</time>
      </trkpt>
      <trkpt lat="51.997242" lon="6.347977">
        <ele>61.448668</ele>
        <time>2026-05-09T11:12:25.972Z</time>
      </trkpt>
      <trkpt lat="51.997141" lon="6.347925">
        <ele>61.463450</ele>
        <time>2026-05-09T11:12:27.972Z</time>
      </trkpt>
      <trkpt lat="51.997038" lon="6.347864">
        <ele>61.478746</ele>
        <time>2026-05-09T11:12:29.972Z</time>
      </trkpt>
      <trkpt lat="51.996937" lon="6.347801">
        <ele>61.493841</ele>
        <time>2026-05-09T11:12:31.967Z</time>
      </trkpt>
      <trkpt lat="51.996838" lon="6.347739">
        <ele>61.508644</ele>
        <time>2026-05-09T11:12:33.971Z</time>
      </trkpt>
      <trkpt lat="51.996733" lon="6.347676">
        <ele>61.524261</ele>
        <time>2026-05-09T11:12:35.967Z</time>
      </trkpt>
      <trkpt lat="51.996628" lon="6.347622">
        <ele>61.539627</ele>
        <time>2026-05-09T11:12:37.967Z</time>
      </trkpt>
      <trkpt lat="51.996524" lon="6.347556">
        <ele>61.555205</ele>
        <time>2026-05-09T11:12:39.971Z</time>
      </trkpt>
      <trkpt lat="51.996422" lon="6.347498">
        <ele>61.570283</ele>
        <time>2026-05-09T11:12:41.970Z</time>
      </trkpt>
      <trkpt lat="51.996326" lon="6.347433">
        <ele>61.584794</ele>
        <time>2026-05-09T11:12:43.970Z</time>
      </trkpt>
      <trkpt lat="51.996235" lon="6.347389">
        <ele>61.598040</ele>
        <time>2026-05-09T11:12:45.972Z</time>
      </trkpt>
      <trkpt lat="51.996141" lon="6.347333">
        <ele>61.612009</ele>
        <time>2026-05-09T11:12:47.970Z</time>
      </trkpt>
      <trkpt lat="51.996049" lon="6.347276">
        <ele>61.625747</ele>
        <time>2026-05-09T11:12:49.977Z</time>
      </trkpt>
      <trkpt lat="51.995962" lon="6.347231">
        <ele>61.583705</ele>
        <time>2026-05-09T11:12:51.972Z</time>
      </trkpt>
      <trkpt lat="51.995871" lon="6.347178">
        <ele>61.474556</ele>
        <time>2026-05-09T11:12:53.975Z</time>
      </trkpt>
      <trkpt lat="51.995775" lon="6.347129">
        <ele>61.360943</ele>
        <time>2026-05-09T11:12:55.970Z</time>
      </trkpt>
      <trkpt lat="51.995682" lon="6.347076">
        <ele>61.249666</ele>
        <time>2026-05-09T11:12:57.975Z</time>
      </trkpt>
      <trkpt lat="51.995588" lon="6.347034">
        <ele>61.139594</ele>
        <time>2026-05-09T11:12:59.965Z</time>
      </trkpt>
      <trkpt lat="51.995502" lon="6.346977">
        <ele>61.034723</ele>
        <time>2026-05-09T11:13:01.963Z</time>
      </trkpt>
      <trkpt lat="51.995379" lon="6.346896">
        <ele>60.884871</ele>
        <time>2026-05-09T11:13:04.981Z</time>
      </trkpt>
      <trkpt lat="51.995290" lon="6.346845">
        <ele>60.778315</ele>
        <time>2026-05-09T11:13:06.974Z</time>
      </trkpt>
      <trkpt lat="51.995192" lon="6.346786">
        <ele>60.660313</ele>
        <time>2026-05-09T11:13:08.974Z</time>
      </trkpt>
      <trkpt lat="51.995093" lon="6.346730">
        <ele>60.541953</ele>
        <time>2026-05-09T11:13:10.983Z</time>
      </trkpt>
      <trkpt lat="51.994982" lon="6.346676">
        <ele>60.411129</ele>
        <time>2026-05-09T11:13:12.983Z</time>
      </trkpt>
      <trkpt lat="51.994880" lon="6.346617">
        <ele>60.288882</ele>
        <time>2026-05-09T11:13:14.973Z</time>
      </trkpt>
      <trkpt lat="51.994775" lon="6.346539">
        <ele>60.158521</ele>
        <time>2026-05-09T11:13:16.975Z</time>
      </trkpt>
      <trkpt lat="51.994657" lon="6.346467">
        <ele>60.016203</ele>
        <time>2026-05-09T11:13:18.976Z</time>
      </trkpt>
      <trkpt lat="51.994550" lon="6.346398">
        <ele>59.886221</ele>
        <time>2026-05-09T11:13:20.980Z</time>
      </trkpt>
      <trkpt lat="51.994441" lon="6.346333">
        <ele>59.755123</ele>
        <time>2026-05-09T11:13:22.973Z</time>
      </trkpt>
      <trkpt lat="51.994335" lon="6.346258">
        <ele>59.624581</ele>
        <time>2026-05-09T11:13:24.973Z</time>
      </trkpt>
      <trkpt lat="51.994225" lon="6.346177">
        <ele>59.568085</ele>
        <time>2026-05-09T11:13:26.971Z</time>
      </trkpt>
      <trkpt lat="51.994118" lon="6.346087">
        <ele>59.527756</ele>
        <time>2026-05-09T11:13:28.971Z</time>
      </trkpt>
      <trkpt lat="51.994004" lon="6.346006">
        <ele>59.486111</ele>
        <time>2026-05-09T11:13:30.972Z</time>
      </trkpt>
      <trkpt lat="51.993894" lon="6.345927">
        <ele>59.445857</ele>
        <time>2026-05-09T11:13:32.971Z</time>
      </trkpt>
      <trkpt lat="51.993789" lon="6.345859">
        <ele>59.408024</ele>
        <time>2026-05-09T11:13:34.972Z</time>
      </trkpt>
      <trkpt lat="51.993672" lon="6.345776">
        <ele>59.365293</ele>
        <time>2026-05-09T11:13:36.971Z</time>
      </trkpt>
      <trkpt lat="51.993577" lon="6.345690">
        <ele>59.328893</ele>
        <time>2026-05-09T11:13:38.971Z</time>
      </trkpt>
      <trkpt lat="51.993521" lon="6.345548">
        <ele>59.294142</ele>
        <time>2026-05-09T11:13:40.972Z</time>
      </trkpt>
      <trkpt lat="51.993407" lon="6.345490">
        <ele>59.254160</ele>
        <time>2026-05-09T11:13:42.972Z</time>
      </trkpt>
      <trkpt lat="51.993274" lon="6.345438">
        <ele>59.208375</ele>
        <time>2026-05-09T11:13:45.972Z</time>
      </trkpt>
      <trkpt lat="51.993174" lon="6.345344">
        <ele>59.169705</ele>
        <time>2026-05-09T11:13:47.995Z</time>
      </trkpt>
      <trkpt lat="51.993056" lon="6.345239">
        <ele>59.124673</ele>
        <time>2026-05-09T11:13:49.968Z</time>
      </trkpt>
      <trkpt lat="51.992948" lon="6.345143">
        <ele>59.083468</ele>
        <time>2026-05-09T11:13:51.971Z</time>
      </trkpt>
      <trkpt lat="51.992850" lon="6.345033">
        <ele>59.043597</ele>
        <time>2026-05-09T11:13:53.976Z</time>
      </trkpt>
      <trkpt lat="51.992747" lon="6.344920">
        <ele>59.001996</ele>
        <time>2026-05-09T11:13:55.972Z</time>
      </trkpt>
      <trkpt lat="51.992635" lon="6.344808">
        <ele>58.957788</ele>
        <time>2026-05-09T11:13:57.970Z</time>
      </trkpt>
      <trkpt lat="51.992529" lon="6.344688">
        <ele>58.914349</ele>
        <time>2026-05-09T11:13:59.969Z</time>
      </trkpt>
      <trkpt lat="51.992423" lon="6.344572">
        <ele>58.871378</ele>
        <time>2026-05-09T11:14:01.975Z</time>
      </trkpt>
      <trkpt lat="51.992322" lon="6.344471">
        <ele>58.831502</ele>
        <time>2026-05-09T11:14:03.974Z</time>
      </trkpt>
      <trkpt lat="51.992226" lon="6.344365">
        <ele>58.792476</ele>
        <time>2026-05-09T11:14:05.977Z</time>
      </trkpt>
      <trkpt lat="51.992135" lon="6.344256">
        <ele>58.754462</ele>
        <time>2026-05-09T11:14:07.970Z</time>
      </trkpt>
      <trkpt lat="51.992044" lon="6.344146">
        <ele>58.716325</ele>
        <time>2026-05-09T11:14:09.973Z</time>
      </trkpt>
      <trkpt lat="51.991935" lon="6.344044">
        <ele>58.674032</ele>
        <time>2026-05-09T11:14:11.975Z</time>
      </trkpt>
      <trkpt lat="51.991840" lon="6.343932">
        <ele>58.634567</ele>
        <time>2026-05-09T11:14:13.977Z</time>
      </trkpt>
      <trkpt lat="51.991738" lon="6.343831">
        <ele>58.594404</ele>
        <time>2026-05-09T11:14:15.971Z</time>
      </trkpt>
      <trkpt lat="51.991639" lon="6.343716">
        <ele>58.553484</ele>
        <time>2026-05-09T11:14:17.975Z</time>
      </trkpt>
      <trkpt lat="51.991537" lon="6.343609">
        <ele>58.512662</ele>
        <time>2026-05-09T11:14:19.970Z</time>
      </trkpt>
      <trkpt lat="51.991445" lon="6.343497">
        <ele>58.474007</ele>
        <time>2026-05-09T11:14:21.976Z</time>
      </trkpt>
      <trkpt lat="51.991351" lon="6.343403">
        <ele>58.436895</ele>
        <time>2026-05-09T11:14:23.965Z</time>
      </trkpt>
      <trkpt lat="51.991261" lon="6.343293">
        <ele>58.399027</ele>
        <time>2026-05-09T11:14:25.980Z</time>
      </trkpt>
      <trkpt lat="51.991158" lon="6.343186">
        <ele>58.394514</ele>
        <time>2026-05-09T11:14:27.979Z</time>
      </trkpt>
      <trkpt lat="51.991060" lon="6.343074">
        <ele>58.393891</ele>
        <time>2026-05-09T11:14:29.980Z</time>
      </trkpt>
      <trkpt lat="51.990962" lon="6.342967">
        <ele>58.393277</ele>
        <time>2026-05-09T11:14:31.972Z</time>
      </trkpt>
      <trkpt lat="51.990860" lon="6.342863">
        <ele>58.392651</ele>
        <time>2026-05-09T11:14:33.972Z</time>
      </trkpt>
      <trkpt lat="51.990758" lon="6.342768">
        <ele>58.392040</ele>
        <time>2026-05-09T11:14:35.978Z</time>
      </trkpt>
      <trkpt lat="51.990647" lon="6.342648">
        <ele>58.391346</ele>
        <time>2026-05-09T11:14:37.980Z</time>
      </trkpt>
      <trkpt lat="51.990539" lon="6.342533">
        <ele>58.390675</ele>
        <time>2026-05-09T11:14:39.972Z</time>
      </trkpt>
      <trkpt lat="51.990436" lon="6.342428">
        <ele>58.390043</ele>
        <time>2026-05-09T11:14:41.972Z</time>
      </trkpt>
      <trkpt lat="51.990342" lon="6.342324">
        <ele>58.389451</ele>
        <time>2026-05-09T11:14:43.976Z</time>
      </trkpt>
      <trkpt lat="51.990236" lon="6.342204">
        <ele>58.388779</ele>
        <time>2026-05-09T11:14:45.972Z</time>
      </trkpt>
      <trkpt lat="51.990128" lon="6.342087">
        <ele>58.388104</ele>
        <time>2026-05-09T11:14:47.971Z</time>
      </trkpt>
      <trkpt lat="51.990026" lon="6.341977">
        <ele>58.387468</ele>
        <time>2026-05-09T11:14:49.977Z</time>
      </trkpt>
      <trkpt lat="51.989938" lon="6.341874">
        <ele>58.386904</ele>
        <time>2026-05-09T11:14:51.970Z</time>
      </trkpt>
      <trkpt lat="51.989844" lon="6.341753">
        <ele>58.386280</ele>
        <time>2026-05-09T11:14:53.977Z</time>
      </trkpt>
      <trkpt lat="51.989735" lon="6.341641">
        <ele>58.389364</ele>
        <time>2026-05-09T11:14:55.971Z</time>
      </trkpt>
      <trkpt lat="51.989623" lon="6.341529">
        <ele>58.408748</ele>
        <time>2026-05-09T11:14:57.975Z</time>
      </trkpt>
      <trkpt lat="51.989521" lon="6.341415">
        <ele>58.426995</ele>
        <time>2026-05-09T11:14:59.976Z</time>
      </trkpt>
      <trkpt lat="51.989422" lon="6.341311">
        <ele>58.444371</ele>
        <time>2026-05-09T11:15:01.975Z</time>
      </trkpt>
      <trkpt lat="51.989320" lon="6.341200">
        <ele>58.462466</ele>
        <time>2026-05-09T11:15:03.976Z</time>
      </trkpt>
      <trkpt lat="51.989217" lon="6.341102">
        <ele>58.480058</ele>
        <time>2026-05-09T11:15:05.975Z</time>
      </trkpt>
      <trkpt lat="51.989114" lon="6.340994">
        <ele>58.498126</ele>
        <time>2026-05-09T11:15:07.968Z</time>
      </trkpt>
      <trkpt lat="51.989018" lon="6.340885">
        <ele>58.515388</ele>
        <time>2026-05-09T11:15:09.974Z</time>
      </trkpt>
      <trkpt lat="51.988926" lon="6.340778">
        <ele>58.532065</ele>
        <time>2026-05-09T11:15:11.973Z</time>
      </trkpt>
      <trkpt lat="51.988824" lon="6.340661">
        <ele>58.550468</ele>
        <time>2026-05-09T11:15:13.972Z</time>
      </trkpt>
      <trkpt lat="51.988727" lon="6.340553">
        <ele>58.567800</ele>
        <time>2026-05-09T11:15:15.981Z</time>
      </trkpt>
      <trkpt lat="51.988625" lon="6.340456">
        <ele>58.585219</ele>
        <time>2026-05-09T11:15:17.972Z</time>
      </trkpt>
      <trkpt lat="51.988526" lon="6.340346">
        <ele>58.602897</ele>
        <time>2026-05-09T11:15:19.971Z</time>
      </trkpt>
      <trkpt lat="51.988418" lon="6.340250">
        <ele>58.621041</ele>
        <time>2026-05-09T11:15:21.976Z</time>
      </trkpt>
      <trkpt lat="51.988324" lon="6.340136">
        <ele>58.638330</ele>
        <time>2026-05-09T11:15:23.979Z</time>
      </trkpt>
      <trkpt lat="51.988224" lon="6.340022">
        <ele>58.647989</ele>
        <time>2026-05-09T11:15:25.979Z</time>
      </trkpt>
      <trkpt lat="51.988131" lon="6.339919">
        <ele>58.639578</ele>
        <time>2026-05-09T11:15:27.978Z</time>
      </trkpt>
      <trkpt lat="51.988029" lon="6.339807">
        <ele>58.630378</ele>
        <time>2026-05-09T11:15:29.971Z</time>
      </trkpt>
      <trkpt lat="51.987924" lon="6.339699">
        <ele>58.621091</ele>
        <time>2026-05-09T11:15:31.970Z</time>
      </trkpt>
      <trkpt lat="51.987834" lon="6.339598">
        <ele>58.612917</ele>
        <time>2026-05-09T11:15:33.973Z</time>
      </trkpt>
      <trkpt lat="51.987730" lon="6.339484">
        <ele>58.603541</ele>
        <time>2026-05-09T11:15:35.971Z</time>
      </trkpt>
      <trkpt lat="51.987627" lon="6.339377">
        <ele>58.594405</ele>
        <time>2026-05-09T11:15:37.971Z</time>
      </trkpt>
      <trkpt lat="51.987529" lon="6.339275">
        <ele>58.585708</ele>
        <time>2026-05-09T11:15:39.978Z</time>
      </trkpt>
      <trkpt lat="51.987422" lon="6.339173">
        <ele>58.576437</ele>
        <time>2026-05-09T11:15:41.971Z</time>
      </trkpt>
      <trkpt lat="51.987328" lon="6.339040">
        <ele>58.567121</ele>
        <time>2026-05-09T11:15:43.973Z</time>
      </trkpt>
      <trkpt lat="51.987233" lon="6.338943">
        <ele>58.558736</ele>
        <time>2026-05-09T11:15:45.977Z</time>
      </trkpt>
      <trkpt lat="51.987136" lon="6.338833">
        <ele>58.549896</ele>
        <time>2026-05-09T11:15:47.971Z</time>
      </trkpt>
      <trkpt lat="51.987033" lon="6.338715">
        <ele>58.540478</ele>
        <time>2026-05-09T11:15:49.976Z</time>
      </trkpt>
      <trkpt lat="51.986932" lon="6.338609">
        <ele>58.531492</ele>
        <time>2026-05-09T11:15:51.975Z</time>
      </trkpt>
      <trkpt lat="51.986830" lon="6.338507">
        <ele>58.522542</ele>
        <time>2026-05-09T11:15:53.977Z</time>
      </trkpt>
      <trkpt lat="51.986741" lon="6.338404">
        <ele>58.510664</ele>
        <time>2026-05-09T11:15:55.975Z</time>
      </trkpt>
      <trkpt lat="51.986657" lon="6.338306">
        <ele>58.488809</ele>
        <time>2026-05-09T11:15:57.967Z</time>
      </trkpt>
      <trkpt lat="51.986562" lon="6.338198">
        <ele>58.464304</ele>
        <time>2026-05-09T11:15:59.983Z</time>
      </trkpt>
      <trkpt lat="51.986469" lon="6.338087">
        <ele>58.439916</ele>
        <time>2026-05-09T11:16:01.970Z</time>
      </trkpt>
      <trkpt lat="51.986357" lon="6.337986">
        <ele>58.412846</ele>
        <time>2026-05-09T11:16:03.975Z</time>
      </trkpt>
      <trkpt lat="51.986266" lon="6.337873">
        <ele>58.388640</ele>
        <time>2026-05-09T11:16:05.970Z</time>
      </trkpt>
      <trkpt lat="51.986164" lon="6.337763">
        <ele>58.362767</ele>
        <time>2026-05-09T11:16:07.975Z</time>
      </trkpt>
      <trkpt lat="51.986071" lon="6.337658">
        <ele>58.338833</ele>
        <time>2026-05-09T11:16:09.972Z</time>
      </trkpt>
      <trkpt lat="51.985968" lon="6.337570">
        <ele>58.314240</ele>
        <time>2026-05-09T11:16:11.970Z</time>
      </trkpt>
      <trkpt lat="51.985875" lon="6.337474">
        <ele>58.290955</ele>
        <time>2026-05-09T11:16:13.973Z</time>
      </trkpt>
      <trkpt lat="51.985787" lon="6.337372">
        <ele>58.268109</ele>
        <time>2026-05-09T11:16:15.969Z</time>
      </trkpt>
      <trkpt lat="51.985702" lon="6.337281">
        <ele>58.246596</ele>
        <time>2026-05-09T11:16:17.977Z</time>
      </trkpt>
      <trkpt lat="51.985603" lon="6.337172">
        <ele>58.221322</ele>
        <time>2026-05-09T11:16:19.979Z</time>
      </trkpt>
      <trkpt lat="51.985513" lon="6.337071">
        <ele>58.198205</ele>
        <time>2026-05-09T11:16:21.972Z</time>
      </trkpt>
      <trkpt lat="51.985416" lon="6.336977">
        <ele>58.174336</ele>
        <time>2026-05-09T11:16:23.971Z</time>
      </trkpt>
      <trkpt lat="51.985327" lon="6.336879">
        <ele>58.151614</ele>
        <time>2026-05-09T11:16:25.979Z</time>
      </trkpt>
      <trkpt lat="51.985244" lon="6.336774">
        <ele>58.137940</ele>
        <time>2026-05-09T11:16:27.966Z</time>
      </trkpt>
      <trkpt lat="51.985156" lon="6.336689">
        <ele>58.142857</ele>
        <time>2026-05-09T11:16:29.978Z</time>
      </trkpt>
      <trkpt lat="51.985074" lon="6.336580">
        <ele>58.147946</ele>
        <time>2026-05-09T11:16:31.979Z</time>
      </trkpt>
      <trkpt lat="51.984983" lon="6.336481">
        <ele>58.153206</ele>
        <time>2026-05-09T11:16:33.967Z</time>
      </trkpt>
      <trkpt lat="51.984885" lon="6.336389">
        <ele>58.158642</ele>
        <time>2026-05-09T11:16:35.969Z</time>
      </trkpt>
      <trkpt lat="51.984783" lon="6.336293">
        <ele>58.164303</ele>
        <time>2026-05-09T11:16:37.970Z</time>
      </trkpt>
      <trkpt lat="51.984695" lon="6.336192">
        <ele>58.169478</ele>
        <time>2026-05-09T11:16:39.968Z</time>
      </trkpt>
      <trkpt lat="51.984601" lon="6.336100">
        <ele>58.174748</ele>
        <time>2026-05-09T11:16:41.964Z</time>
      </trkpt>
      <trkpt lat="51.984503" lon="6.335983">
        <ele>58.180590</ele>
        <time>2026-05-09T11:16:43.969Z</time>
      </trkpt>
      <trkpt lat="51.984410" lon="6.335891">
        <ele>58.185819</ele>
        <time>2026-05-09T11:16:45.978Z</time>
      </trkpt>
      <trkpt lat="51.984316" lon="6.335778">
        <ele>58.191436</ele>
        <time>2026-05-09T11:16:47.978Z</time>
      </trkpt>
      <trkpt lat="51.984231" lon="6.335691">
        <ele>58.196261</ele>
        <time>2026-05-09T11:16:49.970Z</time>
      </trkpt>
      <trkpt lat="51.984132" lon="6.335583">
        <ele>58.201988</ele>
        <time>2026-05-09T11:16:51.969Z</time>
      </trkpt>
      <trkpt lat="51.984039" lon="6.335480">
        <ele>58.207394</ele>
        <time>2026-05-09T11:16:53.969Z</time>
      </trkpt>
      <trkpt lat="51.983937" lon="6.335374">
        <ele>58.213209</ele>
        <time>2026-05-09T11:16:55.965Z</time>
      </trkpt>
      <trkpt lat="51.983845" lon="6.335274">
        <ele>58.218526</ele>
        <time>2026-05-09T11:16:57.971Z</time>
      </trkpt>
      <trkpt lat="51.983744" lon="6.335175">
        <ele>58.233260</ele>
        <time>2026-05-09T11:16:59.974Z</time>
      </trkpt>
      <trkpt lat="51.983647" lon="6.335070">
        <ele>58.273528</ele>
        <time>2026-05-09T11:17:01.979Z</time>
      </trkpt>
      <trkpt lat="51.983566" lon="6.334968">
        <ele>58.308935</ele>
        <time>2026-05-09T11:17:03.966Z</time>
      </trkpt>
      <trkpt lat="51.983469" lon="6.334870">
        <ele>58.348398</ele>
        <time>2026-05-09T11:17:05.974Z</time>
      </trkpt>
      <trkpt lat="51.983381" lon="6.334765">
        <ele>58.386119</ele>
        <time>2026-05-09T11:17:07.974Z</time>
      </trkpt>
      <trkpt lat="51.983295" lon="6.334660">
        <ele>58.423286</ele>
        <time>2026-05-09T11:17:09.975Z</time>
      </trkpt>
      <trkpt lat="51.983194" lon="6.334564">
        <ele>58.463712</ele>
        <time>2026-05-09T11:17:11.982Z</time>
      </trkpt>
      <trkpt lat="51.983096" lon="6.334465">
        <ele>58.503580</ele>
        <time>2026-05-09T11:17:13.974Z</time>
      </trkpt>
      <trkpt lat="51.983015" lon="6.334357">
        <ele>58.539783</ele>
        <time>2026-05-09T11:17:15.973Z</time>
      </trkpt>
      <trkpt lat="51.982919" lon="6.334257">
        <ele>58.579181</ele>
        <time>2026-05-09T11:17:17.973Z</time>
      </trkpt>
      <trkpt lat="51.982818" lon="6.334149">
        <ele>58.620954</ele>
        <time>2026-05-09T11:17:19.972Z</time>
      </trkpt>
      <trkpt lat="51.982740" lon="6.334051">
        <ele>58.655021</ele>
        <time>2026-05-09T11:17:21.972Z</time>
      </trkpt>
      <trkpt lat="51.982642" lon="6.333957">
        <ele>58.694337</ele>
        <time>2026-05-09T11:17:23.979Z</time>
      </trkpt>
      <trkpt lat="51.982540" lon="6.333845">
        <ele>58.736870</ele>
        <time>2026-05-09T11:17:25.971Z</time>
      </trkpt>
      <trkpt lat="51.982440" lon="6.333736">
        <ele>58.778474</ele>
        <time>2026-05-09T11:17:27.964Z</time>
      </trkpt>
      <trkpt lat="51.982345" lon="6.333630">
        <ele>58.818290</ele>
        <time>2026-05-09T11:17:29.973Z</time>
      </trkpt>
      <trkpt lat="51.982243" lon="6.333524">
        <ele>58.832332</ele>
        <time>2026-05-09T11:17:31.978Z</time>
      </trkpt>
      <trkpt lat="51.982150" lon="6.333423">
        <ele>58.804330</ele>
        <time>2026-05-09T11:17:33.970Z</time>
      </trkpt>
      <trkpt lat="51.982055" lon="6.333326">
        <ele>58.776244</ele>
        <time>2026-05-09T11:17:35.975Z</time>
      </trkpt>
      <trkpt lat="51.981974" lon="6.333222">
        <ele>58.750399</ele>
        <time>2026-05-09T11:17:37.973Z</time>
      </trkpt>
      <trkpt lat="51.981889" lon="6.333112">
        <ele>58.723196</ele>
        <time>2026-05-09T11:17:39.968Z</time>
      </trkpt>
      <trkpt lat="51.981795" lon="6.333022">
        <ele>58.695884</ele>
        <time>2026-05-09T11:17:41.973Z</time>
      </trkpt>
      <trkpt lat="51.981694" lon="6.332928">
        <ele>58.666749</ele>
        <time>2026-05-09T11:17:43.971Z</time>
      </trkpt>
      <trkpt lat="51.981616" lon="6.332841">
        <ele>58.643065</ele>
        <time>2026-05-09T11:17:45.977Z</time>
      </trkpt>
      <trkpt lat="51.981508" lon="6.332716">
        <ele>58.609871</ele>
        <time>2026-05-09T11:17:47.977Z</time>
      </trkpt>
      <trkpt lat="51.981410" lon="6.332604">
        <ele>58.579878</ele>
        <time>2026-05-09T11:17:49.970Z</time>
      </trkpt>
      <trkpt lat="51.981312" lon="6.332510">
        <ele>58.551391</ele>
        <time>2026-05-09T11:17:51.973Z</time>
      </trkpt>
      <trkpt lat="51.981204" lon="6.332404">
        <ele>58.519807</ele>
        <time>2026-05-09T11:17:53.972Z</time>
      </trkpt>
      <trkpt lat="51.981107" lon="6.332304">
        <ele>58.491050</ele>
        <time>2026-05-09T11:17:55.969Z</time>
      </trkpt>
      <trkpt lat="51.981005" lon="6.332197">
        <ele>58.460658</ele>
        <time>2026-05-09T11:17:57.970Z</time>
      </trkpt>
      <trkpt lat="51.980916" lon="6.332100">
        <ele>58.433831</ele>
        <time>2026-05-09T11:17:59.977Z</time>
      </trkpt>
      <trkpt lat="51.980826" lon="6.331997">
        <ele>58.406273</ele>
        <time>2026-05-09T11:18:01.971Z</time>
      </trkpt>
      <trkpt lat="51.980733" lon="6.331883">
        <ele>58.393196</ele>
        <time>2026-05-09T11:18:03.973Z</time>
      </trkpt>
      <trkpt lat="51.980639" lon="6.331781">
        <ele>58.392074</ele>
        <time>2026-05-09T11:18:05.969Z</time>
      </trkpt>
      <trkpt lat="51.980546" lon="6.331681">
        <ele>58.390966</ele>
        <time>2026-05-09T11:18:07.973Z</time>
      </trkpt>
      <trkpt lat="51.980442" lon="6.331588">
        <ele>58.389787</ele>
        <time>2026-05-09T11:18:09.967Z</time>
      </trkpt>
      <trkpt lat="51.980353" lon="6.331474">
        <ele>58.388662</ele>
        <time>2026-05-09T11:18:11.975Z</time>
      </trkpt>
      <trkpt lat="51.980260" lon="6.331371">
        <ele>58.387544</ele>
        <time>2026-05-09T11:18:13.967Z</time>
      </trkpt>
      <trkpt lat="51.980164" lon="6.331291">
        <ele>58.386472</ele>
        <time>2026-05-09T11:18:15.973Z</time>
      </trkpt>
      <trkpt lat="51.980054" lon="6.331239">
        <ele>58.385335</ele>
        <time>2026-05-09T11:18:17.982Z</time>
      </trkpt>
      <trkpt lat="51.979972" lon="6.331100">
        <ele>58.384157</ele>
        <time>2026-05-09T11:18:19.973Z</time>
      </trkpt>
      <trkpt lat="51.979873" lon="6.330979">
        <ele>58.382927</ele>
        <time>2026-05-09T11:18:21.971Z</time>
      </trkpt>
      <trkpt lat="51.979773" lon="6.330854">
        <ele>58.381674</ele>
        <time>2026-05-09T11:18:23.964Z</time>
      </trkpt>
      <trkpt lat="51.979670" lon="6.330754">
        <ele>58.380482</ele>
        <time>2026-05-09T11:18:25.969Z</time>
      </trkpt>
      <trkpt lat="51.979568" lon="6.330640">
        <ele>58.379253</ele>
        <time>2026-05-09T11:18:27.971Z</time>
      </trkpt>
      <trkpt lat="51.979466" lon="6.330533">
        <ele>58.378047</ele>
        <time>2026-05-09T11:18:29.970Z</time>
      </trkpt>
      <trkpt lat="51.979352" lon="6.330420">
        <ele>58.376720</ele>
        <time>2026-05-09T11:18:31.971Z</time>
      </trkpt>
      <trkpt lat="51.979236" lon="6.330303">
        <ele>58.369432</ele>
        <time>2026-05-09T11:18:33.971Z</time>
      </trkpt>
      <trkpt lat="51.979114" lon="6.330181">
        <ele>58.354756</ele>
        <time>2026-05-09T11:18:35.970Z</time>
      </trkpt>
      <trkpt lat="51.979001" lon="6.330057">
        <ele>58.340786</ele>
        <time>2026-05-09T11:18:37.969Z</time>
      </trkpt>
      <trkpt lat="51.978900" lon="6.329914">
        <ele>58.327060</ele>
        <time>2026-05-09T11:18:39.964Z</time>
      </trkpt>
      <trkpt lat="51.978787" lon="6.329792">
        <ele>58.313160</ele>
        <time>2026-05-09T11:18:41.969Z</time>
      </trkpt>
      <trkpt lat="51.978679" lon="6.329675">
        <ele>58.299861</ele>
        <time>2026-05-09T11:18:43.968Z</time>
      </trkpt>
      <trkpt lat="51.978572" lon="6.329555">
        <ele>58.286541</ele>
        <time>2026-05-09T11:18:45.971Z</time>
      </trkpt>
      <trkpt lat="51.978472" lon="6.329428">
        <ele>58.273537</ele>
        <time>2026-05-09T11:18:47.970Z</time>
      </trkpt>
      <trkpt lat="51.978360" lon="6.329315">
        <ele>58.260030</ele>
        <time>2026-05-09T11:18:49.969Z</time>
      </trkpt>
      <trkpt lat="51.978249" lon="6.329204">
        <ele>58.246677</ele>
        <time>2026-05-09T11:18:51.971Z</time>
      </trkpt>
      <trkpt lat="51.978142" lon="6.329086">
        <ele>58.233428</ele>
        <time>2026-05-09T11:18:53.967Z</time>
      </trkpt>
      <trkpt lat="51.978035" lon="6.328978">
        <ele>58.220523</ele>
        <time>2026-05-09T11:18:55.970Z</time>
      </trkpt>
      <trkpt lat="51.977934" lon="6.328867">
        <ele>58.208031</ele>
        <time>2026-05-09T11:18:57.973Z</time>
      </trkpt>
      <trkpt lat="51.977829" lon="6.328751">
        <ele>58.195022</ele>
        <time>2026-05-09T11:18:59.974Z</time>
      </trkpt>
      <trkpt lat="51.977726" lon="6.328632">
        <ele>58.095655</ele>
        <time>2026-05-09T11:19:01.981Z</time>
      </trkpt>
      <trkpt lat="51.977623" lon="6.328524">
        <ele>57.971209</ele>
        <time>2026-05-09T11:19:03.968Z</time>
      </trkpt>
      <trkpt lat="51.977522" lon="6.328408">
        <ele>57.845643</ele>
        <time>2026-05-09T11:19:05.965Z</time>
      </trkpt>
      <trkpt lat="51.977410" lon="6.328289">
        <ele>57.709790</ele>
        <time>2026-05-09T11:19:07.960Z</time>
      </trkpt>
      <trkpt lat="51.977314" lon="6.328185">
        <ele>57.592656</ele>
        <time>2026-05-09T11:19:09.972Z</time>
      </trkpt>
      <trkpt lat="51.977205" lon="6.328061">
        <ele>57.457571</ele>
        <time>2026-05-09T11:19:11.972Z</time>
      </trkpt>
      <trkpt lat="51.977101" lon="6.327949">
        <ele>57.330906</ele>
        <time>2026-05-09T11:19:13.971Z</time>
      </trkpt>
      <trkpt lat="51.976998" lon="6.327840">
        <ele>57.206119</ele>
        <time>2026-05-09T11:19:15.965Z</time>
      </trkpt>
      <trkpt lat="51.976893" lon="6.327724">
        <ele>57.077216</ele>
        <time>2026-05-09T11:19:17.970Z</time>
      </trkpt>
      <trkpt lat="51.976790" lon="6.327624">
        <ele>56.955411</ele>
        <time>2026-05-09T11:19:19.972Z</time>
      </trkpt>
      <trkpt lat="51.976686" lon="6.327512">
        <ele>56.828745</ele>
        <time>2026-05-09T11:19:21.967Z</time>
      </trkpt>
      <trkpt lat="51.976588" lon="6.327401">
        <ele>56.707467</ele>
        <time>2026-05-09T11:19:23.973Z</time>
      </trkpt>
      <trkpt lat="51.976492" lon="6.327295">
        <ele>56.589633</ele>
        <time>2026-05-09T11:19:25.978Z</time>
      </trkpt>
      <trkpt lat="51.976387" lon="6.327262">
        <ele>56.481086</ele>
        <time>2026-05-09T11:19:27.978Z</time>
      </trkpt>
      <trkpt lat="51.976286" lon="6.327339">
        <ele>56.367838</ele>
        <time>2026-05-09T11:19:29.970Z</time>
      </trkpt>
      <trkpt lat="51.976183" lon="6.327405">
        <ele>56.444806</ele>
        <time>2026-05-09T11:19:31.969Z</time>
      </trkpt>
      <trkpt lat="51.976079" lon="6.327464">
        <ele>56.524033</ele>
        <time>2026-05-09T11:19:33.971Z</time>
      </trkpt>
      <trkpt lat="51.975989" lon="6.327371">
        <ele>56.600755</ele>
        <time>2026-05-09T11:19:35.965Z</time>
      </trkpt>
      <trkpt lat="51.975981" lon="6.327177">
        <ele>56.686887</ele>
        <time>2026-05-09T11:19:37.967Z</time>
      </trkpt>
      <trkpt lat="51.975996" lon="6.326961">
        <ele>56.783179</ele>
        <time>2026-05-09T11:19:39.970Z</time>
      </trkpt>
      <trkpt lat="51.976011" lon="6.326733">
        <ele>56.884755</ele>
        <time>2026-05-09T11:19:41.975Z</time>
      </trkpt>
      <trkpt lat="51.976018" lon="6.326501">
        <ele>56.987652</ele>
        <time>2026-05-09T11:19:43.977Z</time>
      </trkpt>
      <trkpt lat="51.976032" lon="6.326260">
        <ele>57.094885</ele>
        <time>2026-05-09T11:19:45.971Z</time>
      </trkpt>
      <trkpt lat="51.976045" lon="6.326052">
        <ele>57.187500</ele>
        <time>2026-05-09T11:19:47.970Z</time>
      </trkpt>
      <trkpt lat="51.976059" lon="6.325869">
        <ele>57.269190</ele>
        <time>2026-05-09T11:19:49.971Z</time>
      </trkpt>
      <trkpt lat="51.976076" lon="6.325695">
        <ele>57.347233</ele>
        <time>2026-05-09T11:19:51.975Z</time>
      </trkpt>
      <trkpt lat="51.976066" lon="6.325533">
        <ele>57.419357</ele>
        <time>2026-05-09T11:19:53.977Z</time>
      </trkpt>
      <trkpt lat="51.976083" lon="6.325371">
        <ele>57.492155</ele>
        <time>2026-05-09T11:19:55.970Z</time>
      </trkpt>
      <trkpt lat="51.976104" lon="6.325204">
        <ele>57.567659</ele>
        <time>2026-05-09T11:19:57.969Z</time>
      </trkpt>
      <trkpt lat="51.976113" lon="6.325031">
        <ele>57.644569</ele>
        <time>2026-05-09T11:19:59.972Z</time>
      </trkpt>
      <trkpt lat="51.976195" lon="6.324916">
        <ele>57.619658</ele>
        <time>2026-05-09T11:20:02.967Z</time>
      </trkpt>
      <trkpt lat="51.976325" lon="6.324913">
        <ele>57.559874</ele>
        <time>2026-05-09T11:20:05.969Z</time>
      </trkpt>
      <trkpt lat="51.976449" lon="6.324849">
        <ele>57.500043</ele>
        <time>2026-05-09T11:20:08.976Z</time>
      </trkpt>
      <trkpt lat="51.976506" lon="6.324732">
        <ele>57.457790</ele>
        <time>2026-05-09T11:20:10.971Z</time>
      </trkpt>
      <trkpt lat="51.976519" lon="6.324564">
        <ele>57.409831</ele>
        <time>2026-05-09T11:20:12.971Z</time>
      </trkpt>
      <trkpt lat="51.976538" lon="6.324402">
        <ele>57.363120</ele>
        <time>2026-05-09T11:20:14.972Z</time>
      </trkpt>
      <trkpt lat="51.976534" lon="6.324248">
        <ele>57.319461</ele>
        <time>2026-05-09T11:20:16.974Z</time>
      </trkpt>
      <trkpt lat="51.976524" lon="6.324096">
        <ele>57.276162</ele>
        <time>2026-05-09T11:20:18.973Z</time>
      </trkpt>
      <trkpt lat="51.976518" lon="6.323934">
        <ele>57.230193</ele>
        <time>2026-05-09T11:20:20.971Z</time>
      </trkpt>
      <trkpt lat="51.976517" lon="6.323779">
        <ele>57.186287</ele>
        <time>2026-05-09T11:20:22.972Z</time>
      </trkpt>
      <trkpt lat="51.976525" lon="6.323618">
        <ele>57.140536</ele>
        <time>2026-05-09T11:20:24.973Z</time>
      </trkpt>
      <trkpt lat="51.976518" lon="6.323454">
        <ele>57.093972</ele>
        <time>2026-05-09T11:20:26.978Z</time>
      </trkpt>
      <trkpt lat="51.976536" lon="6.323285">
        <ele>57.045393</ele>
        <time>2026-05-09T11:20:28.973Z</time>
      </trkpt>
      <trkpt lat="51.976537" lon="6.323133">
        <ele>57.002337</ele>
        <time>2026-05-09T11:20:30.971Z</time>
      </trkpt>
      <trkpt lat="51.976530" lon="6.322973">
        <ele>56.956903</ele>
        <time>2026-05-09T11:20:32.970Z</time>
      </trkpt>
      <trkpt lat="51.976547" lon="6.322806">
        <ele>56.908959</ele>
        <time>2026-05-09T11:20:34.970Z</time>
      </trkpt>
      <trkpt lat="51.976561" lon="6.322650">
        <ele>56.864305</ele>
        <time>2026-05-09T11:20:36.973Z</time>
      </trkpt>
      <trkpt lat="51.976577" lon="6.322499">
        <ele>56.894523</ele>
        <time>2026-05-09T11:20:38.972Z</time>
      </trkpt>
      <trkpt lat="51.976612" lon="6.322346">
        <ele>57.136954</ele>
        <time>2026-05-09T11:20:40.972Z</time>
      </trkpt>
      <trkpt lat="51.976640" lon="6.322194">
        <ele>57.372613</ele>
        <time>2026-05-09T11:20:42.971Z</time>
      </trkpt>
      <trkpt lat="51.976665" lon="6.322039">
        <ele>57.610610</ele>
        <time>2026-05-09T11:20:44.971Z</time>
      </trkpt>
      <trkpt lat="51.976701" lon="6.321877">
        <ele>57.866424</ele>
        <time>2026-05-09T11:20:46.973Z</time>
      </trkpt>
      <trkpt lat="51.976742" lon="6.321736">
        <ele>58.098026</ele>
        <time>2026-05-09T11:20:48.971Z</time>
      </trkpt>
      <trkpt lat="51.976786" lon="6.321589">
        <ele>58.340792</ele>
        <time>2026-05-09T11:20:50.969Z</time>
      </trkpt>
      <trkpt lat="51.976843" lon="6.321432">
        <ele>58.611490</ele>
        <time>2026-05-09T11:20:52.968Z</time>
      </trkpt>
      <trkpt lat="51.976888" lon="6.321282">
        <ele>58.859318</ele>
        <time>2026-05-09T11:20:54.970Z</time>
      </trkpt>
      <trkpt lat="51.976934" lon="6.321129">
        <ele>59.112207</ele>
        <time>2026-05-09T11:20:56.974Z</time>
      </trkpt>
      <trkpt lat="51.976964" lon="6.320985">
        <ele>59.338005</ele>
        <time>2026-05-09T11:20:58.974Z</time>
      </trkpt>
      <trkpt lat="51.977033" lon="6.320806">
        <ele>59.651658</ele>
        <time>2026-05-09T11:21:01.973Z</time>
      </trkpt>
      <trkpt lat="51.977067" lon="6.320626">
        <ele>59.931315</ele>
        <time>2026-05-09T11:21:04.974Z</time>
      </trkpt>
      <trkpt lat="51.977107" lon="6.320483">
        <ele>60.164598</ele>
        <time>2026-05-09T11:21:06.973Z</time>
      </trkpt>
      <trkpt lat="51.977151" lon="6.320349">
        <ele>60.390153</ele>
        <time>2026-05-09T11:21:08.967Z</time>
      </trkpt>
      <trkpt lat="51.977196" lon="6.320211">
        <ele>60.622085</ele>
        <time>2026-05-09T11:21:10.973Z</time>
      </trkpt>
      <trkpt lat="51.977241" lon="6.320030">
        <ele>60.912011</ele>
        <time>2026-05-09T11:21:13.973Z</time>
      </trkpt>
      <trkpt lat="51.977274" lon="6.319872">
        <ele>61.159823</ele>
        <time>2026-05-09T11:21:15.972Z</time>
      </trkpt>
      <trkpt lat="51.977300" lon="6.319720">
        <ele>61.095133</ele>
        <time>2026-05-09T11:21:17.968Z</time>
      </trkpt>
      <trkpt lat="51.977333" lon="6.319583">
        <ele>61.022183</ele>
        <time>2026-05-09T11:21:19.980Z</time>
      </trkpt>
      <trkpt lat="51.977366" lon="6.319416">
        <ele>60.935209</ele>
        <time>2026-05-09T11:21:21.970Z</time>
      </trkpt>
      <trkpt lat="51.977399" lon="6.319248">
        <ele>60.847763</ele>
        <time>2026-05-09T11:21:23.972Z</time>
      </trkpt>
      <trkpt lat="51.977411" lon="6.319063">
        <ele>60.755513</ele>
        <time>2026-05-09T11:21:25.971Z</time>
      </trkpt>
      <trkpt lat="51.977425" lon="6.318892">
        <ele>60.669966</ele>
        <time>2026-05-09T11:21:27.969Z</time>
      </trkpt>
      <trkpt lat="51.977434" lon="6.318716">
        <ele>60.582386</ele>
        <time>2026-05-09T11:21:29.971Z</time>
      </trkpt>
      <trkpt lat="51.977435" lon="6.318543">
        <ele>60.496590</ele>
        <time>2026-05-09T11:21:31.971Z</time>
      </trkpt>
      <trkpt lat="51.977414" lon="6.318386">
        <ele>60.416918</ele>
        <time>2026-05-09T11:21:33.977Z</time>
      </trkpt>
      <trkpt lat="51.977399" lon="6.318221">
        <ele>60.334207</ele>
        <time>2026-05-09T11:21:35.974Z</time>
      </trkpt>
      <trkpt lat="51.977387" lon="6.318059">
        <ele>60.253291</ele>
        <time>2026-05-09T11:21:37.970Z</time>
      </trkpt>
      <trkpt lat="51.977336" lon="6.317896">
        <ele>60.162627</ele>
        <time>2026-05-09T11:21:39.972Z</time>
      </trkpt>
      <trkpt lat="51.977313" lon="6.317718">
        <ele>60.072434</ele>
        <time>2026-05-09T11:21:41.972Z</time>
      </trkpt>
      <trkpt lat="51.977298" lon="6.317550">
        <ele>59.988250</ele>
        <time>2026-05-09T11:21:43.972Z</time>
      </trkpt>
      <trkpt lat="51.977275" lon="6.317390">
        <ele>59.906773</ele>
        <time>2026-05-09T11:21:45.975Z</time>
      </trkpt>
      <trkpt lat="51.977255" lon="6.317222">
        <ele>59.821918</ele>
        <time>2026-05-09T11:21:47.974Z</time>
      </trkpt>
      <trkpt lat="51.977229" lon="6.317070">
        <ele>59.743687</ele>
        <time>2026-05-09T11:21:49.971Z</time>
      </trkpt>
      <trkpt lat="51.977213" lon="6.316896">
        <ele>59.693846</ele>
        <time>2026-05-09T11:21:51.975Z</time>
      </trkpt>
      <trkpt lat="51.977207" lon="6.316735">
        <ele>59.659554</ele>
        <time>2026-05-09T11:21:53.974Z</time>
      </trkpt>
      <trkpt lat="51.977203" lon="6.316566">
        <ele>59.623596</ele>
        <time>2026-05-09T11:21:55.982Z</time>
      </trkpt>
      <trkpt lat="51.977215" lon="6.316411">
        <ele>59.590383</ele>
        <time>2026-05-09T11:21:57.970Z</time>
      </trkpt>
      <trkpt lat="51.977237" lon="6.316257">
        <ele>59.556772</ele>
        <time>2026-05-09T11:21:59.974Z</time>
      </trkpt>
      <trkpt lat="51.977262" lon="6.316102">
        <ele>59.522707</ele>
        <time>2026-05-09T11:22:01.974Z</time>
      </trkpt>
      <trkpt lat="51.977293" lon="6.315935">
        <ele>59.485624</ele>
        <time>2026-05-09T11:22:03.972Z</time>
      </trkpt>
      <trkpt lat="51.977310" lon="6.315771">
        <ele>59.450266</ele>
        <time>2026-05-09T11:22:05.973Z</time>
      </trkpt>
      <trkpt lat="51.977325" lon="6.315608">
        <ele>59.415227</ele>
        <time>2026-05-09T11:22:07.972Z</time>
      </trkpt>
      <trkpt lat="51.977348" lon="6.315440">
        <ele>59.378637</ele>
        <time>2026-05-09T11:22:09.973Z</time>
      </trkpt>
      <trkpt lat="51.977361" lon="6.315256">
        <ele>59.339261</ele>
        <time>2026-05-09T11:22:11.981Z</time>
      </trkpt>
      <trkpt lat="51.977369" lon="6.315083">
        <ele>59.302376</ele>
        <time>2026-05-09T11:22:13.973Z</time>
      </trkpt>
      <trkpt lat="51.977373" lon="6.314912">
        <ele>59.265994</ele>
        <time>2026-05-09T11:22:15.979Z</time>
      </trkpt>
      <trkpt lat="51.977366" lon="6.314684">
        <ele>59.217459</ele>
        <time>2026-05-09T11:22:18.972Z</time>
      </trkpt>
      <trkpt lat="51.977364" lon="6.314528">
        <ele>59.184285</ele>
        <time>2026-05-09T11:22:20.978Z</time>
      </trkpt>
      <trkpt lat="51.977346" lon="6.314363">
        <ele>59.148659</ele>
        <time>2026-05-09T11:22:22.971Z</time>
      </trkpt>
      <trkpt lat="51.977340" lon="6.314208">
        <ele>59.115640</ele>
        <time>2026-05-09T11:22:24.971Z</time>
      </trkpt>
      <trkpt lat="51.977323" lon="6.314047">
        <ele>59.054606</ele>
        <time>2026-05-09T11:22:26.971Z</time>
      </trkpt>
      <trkpt lat="51.977327" lon="6.313880">
        <ele>58.972783</ele>
        <time>2026-05-09T11:22:28.978Z</time>
      </trkpt>
      <trkpt lat="51.977344" lon="6.313729">
        <ele>58.897630</ele>
        <time>2026-05-09T11:22:30.972Z</time>
      </trkpt>
      <trkpt lat="51.977347" lon="6.313563">
        <ele>58.816322</ele>
        <time>2026-05-09T11:22:32.969Z</time>
      </trkpt>
      <trkpt lat="51.977335" lon="6.313407">
        <ele>58.739353</ele>
        <time>2026-05-09T11:22:34.968Z</time>
      </trkpt>
      <trkpt lat="51.977349" lon="6.313253">
        <ele>58.663139</ele>
        <time>2026-05-09T11:22:36.973Z</time>
      </trkpt>
      <trkpt lat="51.977361" lon="6.313070">
        <ele>58.573037</ele>
        <time>2026-05-09T11:22:38.976Z</time>
      </trkpt>
      <trkpt lat="51.977385" lon="6.312914">
        <ele>58.494315</ele>
        <time>2026-05-09T11:22:40.973Z</time>
      </trkpt>
      <trkpt lat="51.977394" lon="6.312741">
        <ele>58.409314</ele>
        <time>2026-05-09T11:22:42.968Z</time>
      </trkpt>
      <trkpt lat="51.977402" lon="6.312563">
        <ele>58.321935</ele>
        <time>2026-05-09T11:22:44.969Z</time>
      </trkpt>
      <trkpt lat="51.977451" lon="6.312397">
        <ele>58.231813</ele>
        <time>2026-05-09T11:22:46.976Z</time>
      </trkpt>
      <trkpt lat="51.977470" lon="6.312208">
        <ele>58.138056</ele>
        <time>2026-05-09T11:22:48.969Z</time>
      </trkpt>
      <trkpt lat="51.977492" lon="6.312052">
        <ele>58.059704</ele>
        <time>2026-05-09T11:22:50.976Z</time>
      </trkpt>
      <trkpt lat="51.977503" lon="6.311889">
        <ele>57.979423</ele>
        <time>2026-05-09T11:22:52.974Z</time>
      </trkpt>
      <trkpt lat="51.977551" lon="6.311740">
        <ele>57.897100</ele>
        <time>2026-05-09T11:22:54.973Z</time>
      </trkpt>
      <trkpt lat="51.977549" lon="6.311593">
        <ele>57.825112</ele>
        <time>2026-05-09T11:22:57.975Z</time>
      </trkpt>
      <trkpt lat="51.977587" lon="6.311442">
        <ele>57.745252</ele>
        <time>2026-05-09T11:23:12.965Z</time>
      </trkpt>
      <trkpt lat="51.977630" lon="6.311309">
        <ele>57.671713</ele>
        <time>2026-05-09T11:23:16.970Z</time>
      </trkpt>
      <trkpt lat="51.977676" lon="6.311119">
        <ele>57.700403</ele>
        <time>2026-05-09T11:23:20.971Z</time>
      </trkpt>
      <trkpt lat="51.977716" lon="6.310986">
        <ele>57.721410</ele>
        <time>2026-05-09T11:23:23.971Z</time>
      </trkpt>
      <trkpt lat="51.977769" lon="6.310823">
        <ele>57.747571</ele>
        <time>2026-05-09T11:23:27.976Z</time>
      </trkpt>
      <trkpt lat="51.977827" lon="6.310699">
        <ele>57.769671</ele>
        <time>2026-05-09T11:23:30.969Z</time>
      </trkpt>
      <trkpt lat="51.977910" lon="6.310559">
        <ele>57.797250</ele>
        <time>2026-05-09T11:23:33.975Z</time>
      </trkpt>
      <trkpt lat="51.977989" lon="6.310410">
        <ele>57.825154</ele>
        <time>2026-05-09T11:23:36.970Z</time>
      </trkpt>
      <trkpt lat="51.978063" lon="6.310253">
        <ele>57.853213</ele>
        <time>2026-05-09T11:23:39.967Z</time>
      </trkpt>
      <trkpt lat="51.978128" lon="6.310087">
        <ele>57.881132</ele>
        <time>2026-05-09T11:23:42.974Z</time>
      </trkpt>
      <trkpt lat="51.978195" lon="6.309912">
        <ele>57.910378</ele>
        <time>2026-05-09T11:23:45.973Z</time>
      </trkpt>
      <trkpt lat="51.978267" lon="6.309737">
        <ele>57.940248</ele>
        <time>2026-05-09T11:23:48.977Z</time>
      </trkpt>
      <trkpt lat="51.978330" lon="6.309571">
        <ele>57.967922</ele>
        <time>2026-05-09T11:23:51.986Z</time>
      </trkpt>
      <trkpt lat="51.978392" lon="6.309386">
        <ele>57.997814</ele>
        <time>2026-05-09T11:23:54.993Z</time>
      </trkpt>
      <trkpt lat="51.978453" lon="6.309205">
        <ele>58.027098</ele>
        <time>2026-05-09T11:23:57.977Z</time>
      </trkpt>
      <trkpt lat="51.978502" lon="6.309072">
        <ele>58.049094</ele>
        <time>2026-05-09T11:23:59.977Z</time>
      </trkpt>
      <trkpt lat="51.978557" lon="6.308937">
        <ele>58.072067</ele>
        <time>2026-05-09T11:24:01.965Z</time>
      </trkpt>
      <trkpt lat="51.978610" lon="6.308813">
        <ele>58.050024</ele>
        <time>2026-05-09T11:24:03.975Z</time>
      </trkpt>
      <trkpt lat="51.978678" lon="6.308699">
        <ele>57.942745</ele>
        <time>2026-05-09T11:24:05.975Z</time>
      </trkpt>
      <trkpt lat="51.978778" lon="6.308564">
        <ele>57.800009</ele>
        <time>2026-05-09T11:24:08.973Z</time>
      </trkpt>
      <trkpt lat="51.978879" lon="6.308408">
        <ele>57.647010</ele>
        <time>2026-05-09T11:24:11.974Z</time>
      </trkpt>
      <trkpt lat="51.978957" lon="6.308326">
        <ele>57.545025</ele>
        <time>2026-05-09T11:24:13.973Z</time>
      </trkpt>
      <trkpt lat="51.979052" lon="6.308182">
        <ele>57.402383</ele>
        <time>2026-05-09T11:24:16.981Z</time>
      </trkpt>
      <trkpt lat="51.979113" lon="6.308025">
        <ele>57.276899</ele>
        <time>2026-05-09T11:24:19.973Z</time>
      </trkpt>
      <trkpt lat="51.979136" lon="6.307825">
        <ele>57.139362</ele>
        <time>2026-05-09T11:24:22.973Z</time>
      </trkpt>
      <trkpt lat="51.979133" lon="6.307625">
        <ele>57.004121</ele>
        <time>2026-05-09T11:24:25.972Z</time>
      </trkpt>
      <trkpt lat="51.979128" lon="6.307478">
        <ele>56.904597</ele>
        <time>2026-05-09T11:24:27.973Z</time>
      </trkpt>
      <trkpt lat="51.979116" lon="6.307323">
        <ele>56.798992</ele>
        <time>2026-05-09T11:24:29.979Z</time>
      </trkpt>
      <trkpt lat="51.979095" lon="6.307176">
        <ele>56.696981</ele>
        <time>2026-05-09T11:24:31.972Z</time>
      </trkpt>
      <trkpt lat="51.979057" lon="6.306969">
        <ele>56.550966</ele>
        <time>2026-05-09T11:24:34.978Z</time>
      </trkpt>
      <trkpt lat="51.979020" lon="6.306787">
        <ele>56.421404</ele>
        <time>2026-05-09T11:24:37.985Z</time>
      </trkpt>
      <trkpt lat="51.978969" lon="6.306598">
        <ele>56.281917</ele>
        <time>2026-05-09T11:24:40.978Z</time>
      </trkpt>
      <trkpt lat="51.978909" lon="6.306406">
        <ele>56.136374</ele>
        <time>2026-05-09T11:24:43.977Z</time>
      </trkpt>
      <trkpt lat="51.978843" lon="6.306224">
        <ele>56.107576</ele>
        <time>2026-05-09T11:24:46.971Z</time>
      </trkpt>
      <trkpt lat="51.978771" lon="6.306075">
        <ele>56.102862</ele>
        <time>2026-05-09T11:24:49.979Z</time>
      </trkpt>
      <trkpt lat="51.978682" lon="6.305958">
        <ele>56.098235</ele>
        <time>2026-05-09T11:24:52.979Z</time>
      </trkpt>
      <trkpt lat="51.978580" lon="6.305881">
        <ele>56.093689</ele>
        <time>2026-05-09T11:24:55.970Z</time>
      </trkpt>
      <trkpt lat="51.978472" lon="6.305797">
        <ele>56.088850</ele>
        <time>2026-05-09T11:24:58.970Z</time>
      </trkpt>
      <trkpt lat="51.978378" lon="6.305746">
        <ele>56.084845</ele>
        <time>2026-05-09T11:25:00.979Z</time>
      </trkpt>
      <trkpt lat="51.978300" lon="6.305656">
        <ele>56.080978</ele>
        <time>2026-05-09T11:25:02.977Z</time>
      </trkpt>
      <trkpt lat="51.978191" lon="6.305526">
        <ele>56.075512</ele>
        <time>2026-05-09T11:25:05.978Z</time>
      </trkpt>
      <trkpt lat="51.978073" lon="6.305373">
        <ele>56.069410</ele>
        <time>2026-05-09T11:25:08.984Z</time>
      </trkpt>
      <trkpt lat="51.977999" lon="6.305253">
        <ele>56.065183</ele>
        <time>2026-05-09T11:25:10.978Z</time>
      </trkpt>
      <trkpt lat="51.977941" lon="6.305126">
        <ele>56.061248</ele>
        <time>2026-05-09T11:25:12.970Z</time>
      </trkpt>
      <trkpt lat="51.977876" lon="6.304952">
        <ele>56.056183</ele>
        <time>2026-05-09T11:25:15.970Z</time>
      </trkpt>
      <trkpt lat="51.977837" lon="6.304812">
        <ele>56.052358</ele>
        <time>2026-05-09T11:25:22.977Z</time>
      </trkpt>
      <trkpt lat="51.977768" lon="6.304653">
        <ele>56.047517</ele>
        <time>2026-05-09T11:25:42.974Z</time>
      </trkpt>
      <trkpt lat="51.977672" lon="6.304408">
        <ele>56.040289</ele>
        <time>2026-05-09T11:26:33.969Z</time>
      </trkpt>
      <trkpt lat="51.977628" lon="6.304234">
        <ele>56.021012</ele>
        <time>2026-05-09T11:26:37.976Z</time>
      </trkpt>
      <trkpt lat="51.977582" lon="6.304099">
        <ele>56.001785</ele>
        <time>2026-05-09T11:26:40.974Z</time>
      </trkpt>
      <trkpt lat="51.977530" lon="6.303957">
        <ele>55.981197</ele>
        <time>2026-05-09T11:26:43.984Z</time>
      </trkpt>
      <trkpt lat="51.977477" lon="6.303796">
        <ele>55.958447</ele>
        <time>2026-05-09T11:26:46.974Z</time>
      </trkpt>
      <trkpt lat="51.977420" lon="6.303634">
        <ele>55.935196</ele>
        <time>2026-05-09T11:26:49.974Z</time>
      </trkpt>
      <trkpt lat="51.977355" lon="6.303487">
        <ele>55.912645</ele>
        <time>2026-05-09T11:26:52.973Z</time>
      </trkpt>
      <trkpt lat="51.977273" lon="6.303317">
        <ele>55.885736</ele>
        <time>2026-05-09T11:26:55.977Z</time>
      </trkpt>
      <trkpt lat="51.977190" lon="6.303172">
        <ele>55.861067</ele>
        <time>2026-05-09T11:26:58.966Z</time>
      </trkpt>
      <trkpt lat="51.977073" lon="6.303042">
        <ele>55.832382</ele>
        <time>2026-05-09T11:27:01.982Z</time>
      </trkpt>
      <trkpt lat="51.976992" lon="6.302965">
        <ele>55.813391</ele>
        <time>2026-05-09T11:27:03.980Z</time>
      </trkpt>
      <trkpt lat="51.976886" lon="6.302856">
        <ele>55.788005</ele>
        <time>2026-05-09T11:27:06.978Z</time>
      </trkpt>
      <trkpt lat="51.976763" lon="6.302754">
        <ele>55.760060</ele>
        <time>2026-05-09T11:27:09.975Z</time>
      </trkpt>
      <trkpt lat="51.976681" lon="6.302668">
        <ele>55.740309</ele>
        <time>2026-05-09T11:27:11.973Z</time>
      </trkpt>
      <trkpt lat="51.976580" lon="6.302574">
        <ele>55.716755</ele>
        <time>2026-05-09T11:27:14.973Z</time>
      </trkpt>
      <trkpt lat="51.976503" lon="6.302459">
        <ele>55.695586</ele>
        <time>2026-05-09T11:27:17.977Z</time>
      </trkpt>
      <trkpt lat="51.976457" lon="6.302309">
        <ele>55.675431</ele>
        <time>2026-05-09T11:27:20.973Z</time>
      </trkpt>
      <trkpt lat="51.976365" lon="6.302212">
        <ele>55.678387</ele>
        <time>2026-05-09T11:27:23.973Z</time>
      </trkpt>
      <trkpt lat="51.976230" lon="6.302227">
        <ele>55.682033</ele>
        <time>2026-05-09T11:27:26.985Z</time>
      </trkpt>
      <trkpt lat="51.976133" lon="6.302201">
        <ele>55.684683</ele>
        <time>2026-05-09T11:27:28.969Z</time>
      </trkpt>
      <trkpt lat="51.976024" lon="6.302144">
        <ele>55.687769</ele>
        <time>2026-05-09T11:27:30.978Z</time>
      </trkpt>
      <trkpt lat="51.975913" lon="6.302101">
        <ele>55.690844</ele>
        <time>2026-05-09T11:27:32.968Z</time>
      </trkpt>
      <trkpt lat="51.975817" lon="6.302056">
        <ele>55.693536</ele>
        <time>2026-05-09T11:27:34.977Z</time>
      </trkpt>
      <trkpt lat="51.975693" lon="6.302023">
        <ele>55.696923</ele>
        <time>2026-05-09T11:27:36.967Z</time>
      </trkpt>
      <trkpt lat="51.975578" lon="6.301971">
        <ele>55.700140</ele>
        <time>2026-05-09T11:27:38.992Z</time>
      </trkpt>
      <trkpt lat="51.975478" lon="6.301924">
        <ele>55.702945</ele>
        <time>2026-05-09T11:27:40.983Z</time>
      </trkpt>
      <trkpt lat="51.975367" lon="6.301900">
        <ele>55.705963</ele>
        <time>2026-05-09T11:27:42.968Z</time>
      </trkpt>
      <trkpt lat="51.975258" lon="6.301858">
        <ele>55.708982</ele>
        <time>2026-05-09T11:27:44.980Z</time>
      </trkpt>
      <trkpt lat="51.975144" lon="6.301808">
        <ele>55.712164</ele>
        <time>2026-05-09T11:27:46.983Z</time>
      </trkpt>
      <trkpt lat="51.975042" lon="6.301752">
        <ele>55.715066</ele>
        <time>2026-05-09T11:27:48.983Z</time>
      </trkpt>
      <trkpt lat="51.974939" lon="6.301665">
        <ele>55.718194</ele>
        <time>2026-05-09T11:27:50.973Z</time>
      </trkpt>
      <trkpt lat="51.974834" lon="6.301588">
        <ele>55.721299</ele>
        <time>2026-05-09T11:27:52.971Z</time>
      </trkpt>
      <trkpt lat="51.974728" lon="6.301546">
        <ele>55.735856</ele>
        <time>2026-05-09T11:27:54.971Z</time>
      </trkpt>
      <trkpt lat="51.974627" lon="6.301466">
        <ele>55.821727</ele>
        <time>2026-05-09T11:27:56.982Z</time>
      </trkpt>
      <trkpt lat="51.974538" lon="6.301408">
        <ele>55.895006</ele>
        <time>2026-05-09T11:27:58.976Z</time>
      </trkpt>
      <trkpt lat="51.974447" lon="6.301349">
        <ele>55.969880</ele>
        <time>2026-05-09T11:28:00.973Z</time>
      </trkpt>
      <trkpt lat="51.974346" lon="6.301372">
        <ele>56.047809</ele>
        <time>2026-05-09T11:28:02.989Z</time>
      </trkpt>
      <trkpt lat="51.974263" lon="6.301504">
        <ele>56.136592</ele>
        <time>2026-05-09T11:28:04.970Z</time>
      </trkpt>
      <trkpt lat="51.974183" lon="6.301634">
        <ele>56.223084</ele>
        <time>2026-05-09T11:28:06.972Z</time>
      </trkpt>
      <trkpt lat="51.974108" lon="6.301752">
        <ele>56.302890</ele>
        <time>2026-05-09T11:28:08.972Z</time>
      </trkpt>
      <trkpt lat="51.974032" lon="6.301888">
        <ele>56.389321</ele>
        <time>2026-05-09T11:28:10.967Z</time>
      </trkpt>
      <trkpt lat="51.973964" lon="6.302017">
        <ele>56.469237</ele>
        <time>2026-05-09T11:28:12.964Z</time>
      </trkpt>
      <trkpt lat="51.973891" lon="6.302130">
        <ele>56.546311</ele>
        <time>2026-05-09T11:28:14.968Z</time>
      </trkpt>
      <trkpt lat="51.973771" lon="6.302219">
        <ele>56.647119</ele>
        <time>2026-05-09T11:28:17.980Z</time>
      </trkpt>
      <trkpt lat="51.973697" lon="6.302355">
        <ele>56.732530</ele>
        <time>2026-05-09T11:28:20.969Z</time>
      </trkpt>
      <trkpt lat="51.973618" lon="6.302469">
        <ele>56.813296</ele>
        <time>2026-05-09T11:28:24.970Z</time>
      </trkpt>
      <trkpt lat="51.973537" lon="6.302333">
        <ele>56.902339</ele>
        <time>2026-05-09T11:28:27.969Z</time>
      </trkpt>
      <trkpt lat="51.973437" lon="6.302192">
        <ele>57.003548</ele>
        <time>2026-05-09T11:28:30.968Z</time>
      </trkpt>
      <trkpt lat="51.973360" lon="6.302104">
        <ele>57.075502</ele>
        <time>2026-05-09T11:28:32.966Z</time>
      </trkpt>
      <trkpt lat="51.973299" lon="6.301994">
        <ele>57.078799</ele>
        <time>2026-05-09T11:28:34.972Z</time>
      </trkpt>
      <trkpt lat="51.973219" lon="6.301881">
        <ele>57.045448</ele>
        <time>2026-05-09T11:28:36.967Z</time>
      </trkpt>
      <trkpt lat="51.973146" lon="6.301773">
        <ele>57.014385</ele>
        <time>2026-05-09T11:28:38.971Z</time>
      </trkpt>
      <trkpt lat="51.973069" lon="6.301642">
        <ele>56.979305</ele>
        <time>2026-05-09T11:28:40.968Z</time>
      </trkpt>
      <trkpt lat="51.972984" lon="6.301530">
        <ele>56.944874</ele>
        <time>2026-05-09T11:28:42.966Z</time>
      </trkpt>
      <trkpt lat="51.972901" lon="6.301412">
        <ele>56.910174</ele>
        <time>2026-05-09T11:28:44.966Z</time>
      </trkpt>
      <trkpt lat="51.972821" lon="6.301299">
        <ele>56.876823</ele>
        <time>2026-05-09T11:28:46.967Z</time>
      </trkpt>
      <trkpt lat="51.972743" lon="6.301171">
        <ele>56.841941</ele>
        <time>2026-05-09T11:28:48.974Z</time>
      </trkpt>
      <trkpt lat="51.972667" lon="6.301050">
        <ele>56.808461</ele>
        <time>2026-05-09T11:28:50.969Z</time>
      </trkpt>
      <trkpt lat="51.972594" lon="6.300935">
        <ele>56.776469</ele>
        <time>2026-05-09T11:28:52.969Z</time>
      </trkpt>
      <trkpt lat="51.972507" lon="6.300821">
        <ele>56.741305</ele>
        <time>2026-05-09T11:28:54.966Z</time>
      </trkpt>
      <trkpt lat="51.972434" lon="6.300710">
        <ele>56.709847</ele>
        <time>2026-05-09T11:28:56.967Z</time>
      </trkpt>
      <trkpt lat="51.972352" lon="6.300596">
        <ele>56.675893</ele>
        <time>2026-05-09T11:28:58.974Z</time>
      </trkpt>
      <trkpt lat="51.972263" lon="6.300469">
        <ele>56.638625</ele>
        <time>2026-05-09T11:29:00.972Z</time>
      </trkpt>
      <trkpt lat="51.972174" lon="6.300350">
        <ele>56.602361</ele>
        <time>2026-05-09T11:29:02.972Z</time>
      </trkpt>
      <trkpt lat="51.972094" lon="6.300225">
        <ele>56.567439</ele>
        <time>2026-05-09T11:29:04.965Z</time>
      </trkpt>
      <trkpt lat="51.972021" lon="6.300117">
        <ele>56.536376</ele>
        <time>2026-05-09T11:29:06.966Z</time>
      </trkpt>
      <trkpt lat="51.971941" lon="6.300002">
        <ele>56.545910</ele>
        <time>2026-05-09T11:29:08.971Z</time>
      </trkpt>
      <trkpt lat="51.971855" lon="6.299879">
        <ele>56.562210</ele>
        <time>2026-05-09T11:29:10.966Z</time>
      </trkpt>
      <trkpt lat="51.971778" lon="6.299766">
        <ele>56.576971</ele>
        <time>2026-05-09T11:29:12.966Z</time>
      </trkpt>
      <trkpt lat="51.971700" lon="6.299646">
        <ele>56.592253</ele>
        <time>2026-05-09T11:29:14.972Z</time>
      </trkpt>
      <trkpt lat="51.971611" lon="6.299536">
        <ele>56.608160</ele>
        <time>2026-05-09T11:29:16.969Z</time>
      </trkpt>
      <trkpt lat="51.971538" lon="6.299421">
        <ele>56.622626</ele>
        <time>2026-05-09T11:29:18.969Z</time>
      </trkpt>
      <trkpt lat="51.971454" lon="6.299312">
        <ele>56.637918</ele>
        <time>2026-05-09T11:29:20.977Z</time>
      </trkpt>
      <trkpt lat="51.971363" lon="6.299203">
        <ele>56.654001</ele>
        <time>2026-05-09T11:29:22.977Z</time>
      </trkpt>
      <trkpt lat="51.971289" lon="6.299097">
        <ele>56.668035</ele>
        <time>2026-05-09T11:29:24.972Z</time>
      </trkpt>
      <trkpt lat="51.971213" lon="6.298981">
        <ele>56.682870</ele>
        <time>2026-05-09T11:29:26.968Z</time>
      </trkpt>
      <trkpt lat="51.971134" lon="6.298863">
        <ele>56.698136</ele>
        <time>2026-05-09T11:29:28.976Z</time>
      </trkpt>
      <trkpt lat="51.971050" lon="6.298747">
        <ele>56.713819</ele>
        <time>2026-05-09T11:29:30.969Z</time>
      </trkpt>
      <trkpt lat="51.970972" lon="6.298628">
        <ele>56.729042</ele>
        <time>2026-05-09T11:29:32.972Z</time>
      </trkpt>
      <trkpt lat="51.970888" lon="6.298503">
        <ele>56.745247</ele>
        <time>2026-05-09T11:29:34.966Z</time>
      </trkpt>
      <trkpt lat="51.970810" lon="6.298377">
        <ele>56.760895</ele>
        <time>2026-05-09T11:29:36.968Z</time>
      </trkpt>
      <trkpt lat="51.970724" lon="6.298276">
        <ele>56.775990</ele>
        <time>2026-05-09T11:29:38.973Z</time>
      </trkpt>
      <trkpt lat="51.970643" lon="6.298166">
        <ele>56.799279</ele>
        <time>2026-05-09T11:29:40.968Z</time>
      </trkpt>
      <trkpt lat="51.970560" lon="6.298054">
        <ele>56.860662</ele>
        <time>2026-05-09T11:29:42.966Z</time>
      </trkpt>
      <trkpt lat="51.970479" lon="6.297962">
        <ele>56.916885</ele>
        <time>2026-05-09T11:29:44.969Z</time>
      </trkpt>
      <trkpt lat="51.970387" lon="6.297853">
        <ele>56.981661</ele>
        <time>2026-05-09T11:29:46.973Z</time>
      </trkpt>
      <trkpt lat="51.970301" lon="6.297782">
        <ele>57.036532</ele>
        <time>2026-05-09T11:29:48.970Z</time>
      </trkpt>
      <trkpt lat="51.970202" lon="6.297704">
        <ele>57.099116</ele>
        <time>2026-05-09T11:29:50.964Z</time>
      </trkpt>
      <trkpt lat="51.970103" lon="6.297626">
        <ele>57.161700</ele>
        <time>2026-05-09T11:29:52.971Z</time>
      </trkpt>
      <trkpt lat="51.970006" lon="6.297558">
        <ele>57.221789</ele>
        <time>2026-05-09T11:29:54.972Z</time>
      </trkpt>
      <trkpt lat="51.969913" lon="6.297494">
        <ele>57.279236</ele>
        <time>2026-05-09T11:29:56.966Z</time>
      </trkpt>
      <trkpt lat="51.969822" lon="6.297441">
        <ele>57.334219</ele>
        <time>2026-05-09T11:29:58.980Z</time>
      </trkpt>
      <trkpt lat="51.969737" lon="6.297392">
        <ele>57.385517</ele>
        <time>2026-05-09T11:30:00.966Z</time>
      </trkpt>
      <trkpt lat="51.969613" lon="6.297313">
        <ele>57.461274</ele>
        <time>2026-05-09T11:30:03.979Z</time>
      </trkpt>
      <trkpt lat="51.969528" lon="6.297257">
        <ele>57.513444</ele>
        <time>2026-05-09T11:30:05.980Z</time>
      </trkpt>
      <trkpt lat="51.969392" lon="6.297220">
        <ele>57.591867</ele>
        <time>2026-05-09T11:30:08.976Z</time>
      </trkpt>
      <trkpt lat="51.969270" lon="6.297153">
        <ele>57.665113</ele>
        <time>2026-05-09T11:30:11.961Z</time>
      </trkpt>
      <trkpt lat="51.969160" lon="6.297096">
        <ele>57.730781</ele>
        <time>2026-05-09T11:30:14.969Z</time>
      </trkpt>
      <trkpt lat="51.969089" lon="6.296988">
        <ele>57.786119</ele>
        <time>2026-05-09T11:30:19.967Z</time>
      </trkpt>
      <trkpt lat="51.968887" lon="6.296908">
        <ele>57.847217</ele>
        <time>2026-05-09T11:30:44.971Z</time>
      </trkpt>
      <trkpt lat="51.968784" lon="6.296879">
        <ele>57.870219</ele>
        <time>2026-05-09T11:30:47.972Z</time>
      </trkpt>
      <trkpt lat="51.968685" lon="6.296819">
        <ele>57.893472</ele>
        <time>2026-05-09T11:30:50.971Z</time>
      </trkpt>
      <trkpt lat="51.968583" lon="6.296757">
        <ele>57.917438</ele>
        <time>2026-05-09T11:30:53.968Z</time>
      </trkpt>
      <trkpt lat="51.968482" lon="6.296677">
        <ele>57.942167</ele>
        <time>2026-05-09T11:30:56.970Z</time>
      </trkpt>
      <trkpt lat="51.968379" lon="6.296594">
        <ele>57.967471</ele>
        <time>2026-05-09T11:30:59.971Z</time>
      </trkpt>
      <trkpt lat="51.968274" lon="6.296486">
        <ele>57.994823</ele>
        <time>2026-05-09T11:31:02.971Z</time>
      </trkpt>
      <trkpt lat="51.968176" lon="6.296349">
        <ele>58.023282</ele>
        <time>2026-05-09T11:31:05.971Z</time>
      </trkpt>
      <trkpt lat="51.968081" lon="6.296210">
        <ele>58.051426</ele>
        <time>2026-05-09T11:31:08.968Z</time>
      </trkpt>
      <trkpt lat="51.967987" lon="6.296075">
        <ele>58.079044</ele>
        <time>2026-05-09T11:31:11.971Z</time>
      </trkpt>
      <trkpt lat="51.967895" lon="6.295931">
        <ele>58.107166</ele>
        <time>2026-05-09T11:31:14.976Z</time>
      </trkpt>
      <trkpt lat="51.967804" lon="6.295797">
        <ele>58.134202</ele>
        <time>2026-05-09T11:31:17.976Z</time>
      </trkpt>
      <trkpt lat="51.967720" lon="6.295659">
        <ele>58.160501</ele>
        <time>2026-05-09T11:31:20.971Z</time>
      </trkpt>
      <trkpt lat="51.967640" lon="6.295529">
        <ele>58.185410</ele>
        <time>2026-05-09T11:31:23.969Z</time>
      </trkpt>
      <trkpt lat="51.967551" lon="6.295398">
        <ele>58.207130</ele>
        <time>2026-05-09T11:31:26.970Z</time>
      </trkpt>
      <trkpt lat="51.967460" lon="6.295275">
        <ele>58.208237</ele>
        <time>2026-05-09T11:31:29.966Z</time>
      </trkpt>
      <trkpt lat="51.967377" lon="6.295143">
        <ele>58.209323</ele>
        <time>2026-05-09T11:31:32.969Z</time>
      </trkpt>
      <trkpt lat="51.967285" lon="6.295006">
        <ele>58.210490</ele>
        <time>2026-05-09T11:31:35.980Z</time>
      </trkpt>
      <trkpt lat="51.967183" lon="6.294885">
        <ele>58.211671</ele>
        <time>2026-05-09T11:31:38.965Z</time>
      </trkpt>
      <trkpt lat="51.967072" lon="6.294772">
        <ele>58.212895</ele>
        <time>2026-05-09T11:31:41.966Z</time>
      </trkpt>
      <trkpt lat="51.966962" lon="6.294680">
        <ele>58.214052</ele>
        <time>2026-05-09T11:31:44.971Z</time>
      </trkpt>
      <trkpt lat="51.966851" lon="6.294582">
        <ele>58.215233</ele>
        <time>2026-05-09T11:31:47.972Z</time>
      </trkpt>
      <trkpt lat="51.966741" lon="6.294481">
        <ele>58.216414</ele>
        <time>2026-05-09T11:31:50.970Z</time>
      </trkpt>
      <trkpt lat="51.966641" lon="6.294385">
        <ele>58.217500</ele>
        <time>2026-05-09T11:31:53.971Z</time>
      </trkpt>
      <trkpt lat="51.966546" lon="6.294289">
        <ele>58.218546</ele>
        <time>2026-05-09T11:31:56.969Z</time>
      </trkpt>
      <trkpt lat="51.966544" lon="6.294126">
        <ele>58.219485</ele>
        <time>2026-05-09T11:31:59.973Z</time>
      </trkpt>
      <trkpt lat="51.966585" lon="6.293934">
        <ele>58.220655</ele>
        <time>2026-05-09T11:32:02.976Z</time>
      </trkpt>
      <trkpt lat="51.966620" lon="6.293738">
        <ele>58.221830</ele>
        <time>2026-05-09T11:32:05.968Z</time>
      </trkpt>
      <trkpt lat="51.966666" lon="6.293541">
        <ele>58.223044</ele>
        <time>2026-05-09T11:32:08.971Z</time>
      </trkpt>
      <trkpt lat="51.966711" lon="6.293358">
        <ele>58.262943</ele>
        <time>2026-05-09T11:32:11.968Z</time>
      </trkpt>
      <trkpt lat="51.966751" lon="6.293169">
        <ele>58.364065</ele>
        <time>2026-05-09T11:32:14.968Z</time>
      </trkpt>
      <trkpt lat="51.966802" lon="6.292991">
        <ele>58.463399</ele>
        <time>2026-05-09T11:32:17.963Z</time>
      </trkpt>
      <trkpt lat="51.966843" lon="6.292854">
        <ele>58.540469</ele>
        <time>2026-05-09T11:32:19.969Z</time>
      </trkpt>
      <trkpt lat="51.966881" lon="6.292717">
        <ele>58.616495</ele>
        <time>2026-05-09T11:32:21.970Z</time>
      </trkpt>
      <trkpt lat="51.966916" lon="6.292522">
        <ele>58.719270</ele>
        <time>2026-05-09T11:32:24.969Z</time>
      </trkpt>
      <trkpt lat="51.966954" lon="6.292322">
        <ele>58.825176</ele>
        <time>2026-05-09T11:32:27.977Z</time>
      </trkpt>
      <trkpt lat="51.966991" lon="6.292103">
        <ele>58.940084</ele>
        <time>2026-05-09T11:32:30.970Z</time>
      </trkpt>
      <trkpt lat="51.967012" lon="6.291957">
        <ele>59.015949</ele>
        <time>2026-05-09T11:32:32.974Z</time>
      </trkpt>
      <trkpt lat="51.967051" lon="6.291735">
        <ele>59.132761</ele>
        <time>2026-05-09T11:32:35.971Z</time>
      </trkpt>
      <trkpt lat="51.967085" lon="6.291532">
        <ele>59.239210</ele>
        <time>2026-05-09T11:32:38.965Z</time>
      </trkpt>
      <trkpt lat="51.967122" lon="6.291342">
        <ele>59.340041</ele>
        <time>2026-05-09T11:32:41.971Z</time>
      </trkpt>
      <trkpt lat="51.967156" lon="6.291146">
        <ele>59.443076</ele>
        <time>2026-05-09T11:32:44.972Z</time>
      </trkpt>
      <trkpt lat="51.967180" lon="6.291006">
        <ele>59.516609</ele>
        <time>2026-05-09T11:32:46.971Z</time>
      </trkpt>
      <trkpt lat="51.967203" lon="6.290811">
        <ele>59.617073</ele>
        <time>2026-05-09T11:32:49.979Z</time>
      </trkpt>
      <trkpt lat="51.967182" lon="6.290653">
        <ele>59.698862</ele>
        <time>2026-05-09T11:32:52.970Z</time>
      </trkpt>
      <trkpt lat="51.967108" lon="6.290566">
        <ele>59.713205</ele>
        <time>2026-05-09T11:32:55.969Z</time>
      </trkpt>
      <trkpt lat="51.967023" lon="6.290474">
        <ele>59.727294</ele>
        <time>2026-05-09T11:32:58.972Z</time>
      </trkpt>
      <trkpt lat="51.966939" lon="6.290374">
        <ele>59.741659</ele>
        <time>2026-05-09T11:33:01.970Z</time>
      </trkpt>
      <trkpt lat="51.966863" lon="6.290291">
        <ele>59.754291</ele>
        <time>2026-05-09T11:33:04.969Z</time>
      </trkpt>
      <trkpt lat="51.966772" lon="6.290187">
        <ele>59.769639</ele>
        <time>2026-05-09T11:33:08.969Z</time>
      </trkpt>
      <trkpt lat="51.966686" lon="6.290095">
        <ele>59.783842</ele>
        <time>2026-05-09T11:33:12.970Z</time>
      </trkpt>
      <trkpt lat="51.966511" lon="6.289888">
        <ele>59.813703</ele>
        <time>2026-05-09T11:33:36.974Z</time>
      </trkpt>
      <trkpt lat="51.966445" lon="6.289779">
        <ele>59.826688</ele>
        <time>2026-05-09T11:33:47.972Z</time>
      </trkpt>
      <trkpt lat="51.966393" lon="6.289661">
        <ele>59.839014</ele>
        <time>2026-05-09T11:33:56.970Z</time>
      </trkpt>
      <trkpt lat="51.966438" lon="6.289532">
        <ele>59.851608</ele>
        <time>2026-05-09T11:34:07.968Z</time>
      </trkpt>
      <trkpt lat="51.966510" lon="6.289430">
        <ele>59.864787</ele>
        <time>2026-05-09T11:34:11.969Z</time>
      </trkpt>
      <trkpt lat="51.966564" lon="6.289302">
        <ele>59.877968</ele>
        <time>2026-05-09T11:34:15.965Z</time>
      </trkpt>
      <trkpt lat="51.966638" lon="6.289185">
        <ele>59.892214</ele>
        <time>2026-05-09T11:34:20.977Z</time>
      </trkpt>
      <trkpt lat="51.966704" lon="6.289069">
        <ele>59.905629</ele>
        <time>2026-05-09T11:34:24.966Z</time>
      </trkpt>
      <trkpt lat="51.966779" lon="6.288937">
        <ele>59.920885</ele>
        <time>2026-05-09T11:34:28.966Z</time>
      </trkpt>
      <trkpt lat="51.966855" lon="6.288811">
        <ele>59.935866</ele>
        <time>2026-05-09T11:34:32.970Z</time>
      </trkpt>
      <trkpt lat="51.966919" lon="6.288686">
        <ele>59.944387</ele>
        <time>2026-05-09T11:34:37.964Z</time>
      </trkpt>
      <trkpt lat="51.966970" lon="6.288558">
        <ele>59.857730</ele>
        <time>2026-05-09T11:34:42.965Z</time>
      </trkpt>
      <trkpt lat="51.967025" lon="6.288409">
        <ele>59.758986</ele>
        <time>2026-05-09T11:34:48.976Z</time>
      </trkpt>
      <trkpt lat="51.967096" lon="6.288292">
        <ele>59.665627</ele>
        <time>2026-05-09T11:34:52.971Z</time>
      </trkpt>
      <trkpt lat="51.967146" lon="6.288134">
        <ele>59.564650</ele>
        <time>2026-05-09T11:34:56.973Z</time>
      </trkpt>
      <trkpt lat="51.967201" lon="6.288008">
        <ele>59.476865</ele>
        <time>2026-05-09T11:35:00.966Z</time>
      </trkpt>
      <trkpt lat="51.967241" lon="6.287864">
        <ele>59.387067</ele>
        <time>2026-05-09T11:35:04.968Z</time>
      </trkpt>
      <trkpt lat="51.967213" lon="6.287676">
        <ele>59.277113</ele>
        <time>2026-05-09T11:35:08.969Z</time>
      </trkpt>
      <trkpt lat="51.967156" lon="6.287555">
        <ele>59.190523</ele>
        <time>2026-05-09T11:35:13.967Z</time>
      </trkpt>
      <trkpt lat="51.967084" lon="6.287676">
        <ele>59.094893</ele>
        <time>2026-05-09T11:35:18.964Z</time>
      </trkpt>
      <trkpt lat="51.966996" lon="6.287740">
        <ele>59.005916</ele>
        <time>2026-05-09T11:35:26.969Z</time>
      </trkpt>
      <trkpt lat="51.966897" lon="6.287767">
        <ele>58.913288</ele>
        <time>2026-05-09T11:35:34.966Z</time>
      </trkpt>
      <trkpt lat="51.966795" lon="6.287790">
        <ele>58.818268</ele>
        <time>2026-05-09T11:35:51.973Z</time>
      </trkpt>
      <trkpt lat="51.966725" lon="6.287686">
        <ele>58.730705</ele>
        <time>2026-05-09T11:35:55.971Z</time>
      </trkpt>
      <trkpt lat="51.966654" lon="6.287585">
        <ele>58.643592</ele>
        <time>2026-05-09T11:35:59.970Z</time>
      </trkpt>
      <trkpt lat="51.966594" lon="6.287436">
        <ele>58.542399</ele>
        <time>2026-05-09T11:36:05.970Z</time>
      </trkpt>
      <trkpt lat="51.966617" lon="6.287291">
        <ele>58.457279</ele>
        <time>2026-05-09T11:36:11.970Z</time>
      </trkpt>
      <trkpt lat="51.966675" lon="6.287176">
        <ele>58.372791</ele>
        <time>2026-05-09T11:36:15.968Z</time>
      </trkpt>
      <trkpt lat="51.966745" lon="6.287073">
        <ele>58.292271</ele>
        <time>2026-05-09T11:36:19.970Z</time>
      </trkpt>
      <trkpt lat="51.966821" lon="6.286952">
        <ele>58.367861</ele>
        <time>2026-05-09T11:36:24.965Z</time>
      </trkpt>
      <trkpt lat="51.966897" lon="6.286834">
        <ele>58.442538</ele>
        <time>2026-05-09T11:36:29.971Z</time>
      </trkpt>
      <trkpt lat="51.966965" lon="6.286723">
        <ele>58.511014</ele>
        <time>2026-05-09T11:36:33.972Z</time>
      </trkpt>
      <trkpt lat="51.967042" lon="6.286639">
        <ele>58.576888</ele>
        <time>2026-05-09T11:36:37.972Z</time>
      </trkpt>
      <trkpt lat="51.967123" lon="6.286554">
        <ele>58.645375</ele>
        <time>2026-05-09T11:36:42.969Z</time>
      </trkpt>
      <trkpt lat="51.967196" lon="6.286458">
        <ele>58.712085</ele>
        <time>2026-05-09T11:36:48.980Z</time>
      </trkpt>
      <trkpt lat="51.967149" lon="6.286319">
        <ele>58.781447</ele>
        <time>2026-05-09T11:36:54.970Z</time>
      </trkpt>
      <trkpt lat="51.967053" lon="6.286342">
        <ele>58.850349</ele>
        <time>2026-05-09T11:37:00.968Z</time>
      </trkpt>
      <trkpt lat="51.967002" lon="6.286470">
        <ele>58.917032</ele>
        <time>2026-05-09T11:37:04.969Z</time>
      </trkpt>
      <trkpt lat="51.966948" lon="6.286610">
        <ele>58.989289</ele>
        <time>2026-05-09T11:37:09.970Z</time>
      </trkpt>
      <trkpt lat="51.966888" lon="6.286742">
        <ele>59.061048</ele>
        <time>2026-05-09T11:37:13.969Z</time>
      </trkpt>
      <trkpt lat="51.966826" lon="6.286877">
        <ele>59.134708</ele>
        <time>2026-05-09T11:37:18.974Z</time>
      </trkpt>
      <trkpt lat="51.966763" lon="6.287009">
        <ele>59.207752</ele>
        <time>2026-05-09T11:37:23.967Z</time>
      </trkpt>
      <trkpt lat="51.966692" lon="6.287135">
        <ele>59.282449</ele>
        <time>2026-05-09T11:37:27.968Z</time>
      </trkpt>
      <trkpt lat="51.966616" lon="6.287242">
        <ele>59.353884</ele>
        <time>2026-05-09T11:37:31.973Z</time>
      </trkpt>
      <trkpt lat="51.966543" lon="6.287356">
        <ele>59.425812</ele>
        <time>2026-05-09T11:37:35.972Z</time>
      </trkpt>
      <trkpt lat="51.966488" lon="6.287478">
        <ele>59.491945</ele>
        <time>2026-05-09T11:37:39.972Z</time>
      </trkpt>
      <trkpt lat="51.966412" lon="6.287575">
        <ele>59.560593</ele>
        <time>2026-05-09T11:37:44.963Z</time>
      </trkpt>
      <trkpt lat="51.966338" lon="6.287692">
        <ele>59.546976</ele>
        <time>2026-05-09T11:37:49.971Z</time>
      </trkpt>
      <trkpt lat="51.966266" lon="6.287788">
        <ele>59.527864</ele>
        <time>2026-05-09T11:37:53.969Z</time>
      </trkpt>
      <trkpt lat="51.966193" lon="6.287885">
        <ele>59.508514</ele>
        <time>2026-05-09T11:37:57.970Z</time>
      </trkpt>
      <trkpt lat="51.966111" lon="6.287974">
        <ele>59.488282</ele>
        <time>2026-05-09T11:38:01.970Z</time>
      </trkpt>
      <trkpt lat="51.966034" lon="6.288071">
        <ele>59.468290</ele>
        <time>2026-05-09T11:38:05.972Z</time>
      </trkpt>
      <trkpt lat="51.965960" lon="6.288161">
        <ele>59.449324</ele>
        <time>2026-05-09T11:38:09.971Z</time>
      </trkpt>
      <trkpt lat="51.965880" lon="6.288266">
        <ele>59.428222</ele>
        <time>2026-05-09T11:38:14.967Z</time>
      </trkpt>
      <trkpt lat="51.965797" lon="6.288369">
        <ele>59.406792</ele>
        <time>2026-05-09T11:38:19.969Z</time>
      </trkpt>
      <trkpt lat="51.965724" lon="6.288487">
        <ele>59.385661</ele>
        <time>2026-05-09T11:38:25.965Z</time>
      </trkpt>
      <trkpt lat="51.965732" lon="6.288659">
        <ele>59.363863</ele>
        <time>2026-05-09T11:38:32.965Z</time>
      </trkpt>
      <trkpt lat="51.965760" lon="6.288810">
        <ele>59.343936</ele>
        <time>2026-05-09T11:38:38.972Z</time>
      </trkpt>
      <trkpt lat="51.965696" lon="6.288927">
        <ele>59.324164</ele>
        <time>2026-05-09T11:38:46.969Z</time>
      </trkpt>
      <trkpt lat="51.965632" lon="6.289048">
        <ele>59.304012</ele>
        <time>2026-05-09T11:38:56.968Z</time>
      </trkpt>
      <trkpt lat="51.965554" lon="6.289152">
        <ele>59.283308</ele>
        <time>2026-05-09T11:39:06.975Z</time>
      </trkpt>
      <trkpt lat="51.965487" lon="6.289253">
        <ele>59.264553</ele>
        <time>2026-05-09T11:39:16.966Z</time>
      </trkpt>
      <trkpt lat="51.965395" lon="6.289271">
        <ele>59.245547</ele>
        <time>2026-05-09T11:39:35.969Z</time>
      </trkpt>
      <trkpt lat="51.965330" lon="6.289148">
        <ele>59.225069</ele>
        <time>2026-05-09T11:40:06.971Z</time>
      </trkpt>
      <trkpt lat="51.965284" lon="6.289021">
        <ele>59.206452</ele>
        <time>2026-05-09T11:40:17.965Z</time>
      </trkpt>
      <trkpt lat="51.965230" lon="6.288902">
        <ele>59.299714</ele>
        <time>2026-05-09T11:40:27.967Z</time>
      </trkpt>
      <trkpt lat="51.965181" lon="6.288767">
        <ele>59.506422</ele>
        <time>2026-05-09T11:40:37.969Z</time>
      </trkpt>
      <trkpt lat="51.965126" lon="6.288642">
        <ele>59.709065</ele>
        <time>2026-05-09T11:40:46.976Z</time>
      </trkpt>
      <trkpt lat="51.965215" lon="6.288565">
        <ele>59.925016</ele>
        <time>2026-05-09T11:41:00.974Z</time>
      </trkpt>
      <trkpt lat="51.965324" lon="6.288638">
        <ele>60.177496</ele>
        <time>2026-05-09T11:41:24.970Z</time>
      </trkpt>
      <trkpt lat="51.965373" lon="6.288767">
        <ele>60.377425</ele>
        <time>2026-05-09T11:41:34.970Z</time>
      </trkpt>
      <trkpt lat="51.965415" lon="6.288896">
        <ele>60.569910</ele>
        <time>2026-05-09T11:41:45.964Z</time>
      </trkpt>
      <trkpt lat="51.965447" lon="6.289037">
        <ele>60.768145</ele>
        <time>2026-05-09T11:41:54.975Z</time>
      </trkpt>
      <trkpt lat="51.965445" lon="6.289187">
        <ele>60.966082</ele>
        <time>2026-05-09T11:42:03.971Z</time>
      </trkpt>
      <trkpt lat="51.965365" lon="6.289253">
        <ele>61.158237</ele>
        <time>2026-05-09T11:42:12.975Z</time>
      </trkpt>
      <trkpt lat="51.965274" lon="6.289309">
        <ele>61.366622</ele>
        <time>2026-05-09T11:42:22.968Z</time>
      </trkpt>
      <trkpt lat="51.965195" lon="6.289397">
        <ele>61.571785</ele>
        <time>2026-05-09T11:42:31.972Z</time>
      </trkpt>
      <trkpt lat="51.965105" lon="6.289486">
        <ele>61.797445</ele>
        <time>2026-05-09T11:42:39.962Z</time>
      </trkpt>
      <trkpt lat="51.965026" lon="6.289560">
        <ele>61.992751</ele>
        <time>2026-05-09T11:42:45.970Z</time>
      </trkpt>
      <trkpt lat="51.964946" lon="6.289627">
        <ele>62.185508</ele>
        <time>2026-05-09T11:42:53.972Z</time>
      </trkpt>
      <trkpt lat="51.964875" lon="6.289718">
        <ele>62.379221</ele>
        <time>2026-05-09T11:43:02.977Z</time>
      </trkpt>
      <trkpt lat="51.964805" lon="6.289821">
        <ele>62.581534</ele>
        <time>2026-05-09T11:43:10.968Z</time>
      </trkpt>
      <trkpt lat="51.964718" lon="6.289895">
        <ele>62.791850</ele>
        <time>2026-05-09T11:43:18.973Z</time>
      </trkpt>
      <trkpt lat="51.964638" lon="6.289983">
        <ele>62.998782</ele>
        <time>2026-05-09T11:43:24.969Z</time>
      </trkpt>
      <trkpt lat="51.964559" lon="6.290056">
        <ele>63.105961</ele>
        <time>2026-05-09T11:43:31.971Z</time>
      </trkpt>
      <trkpt lat="51.964469" lon="6.290106">
        <ele>63.186451</ele>
        <time>2026-05-09T11:43:43.969Z</time>
      </trkpt>
      <trkpt lat="51.964388" lon="6.290210">
        <ele>63.273843</ele>
        <time>2026-05-09T11:43:53.977Z</time>
      </trkpt>
      <trkpt lat="51.964294" lon="6.290286">
        <ele>63.362703</ele>
        <time>2026-05-09T11:44:00.976Z</time>
      </trkpt>
      <trkpt lat="51.964207" lon="6.290357">
        <ele>63.445101</ele>
        <time>2026-05-09T11:44:06.978Z</time>
      </trkpt>
      <trkpt lat="51.964114" lon="6.290387">
        <ele>63.525331</ele>
        <time>2026-05-09T11:44:13.970Z</time>
      </trkpt>
      <trkpt lat="51.964114" lon="6.290225">
        <ele>63.609791</ele>
        <time>2026-05-09T11:44:19.968Z</time>
      </trkpt>
      <trkpt lat="51.964118" lon="6.290063">
        <ele>63.694318</ele>
        <time>2026-05-09T11:44:25.968Z</time>
      </trkpt>
      <trkpt lat="51.964094" lon="6.289912">
        <ele>63.775620</ele>
        <time>2026-05-09T11:44:32.971Z</time>
      </trkpt>
      <trkpt lat="51.964041" lon="6.289788">
        <ele>63.854300</ele>
        <time>2026-05-09T11:44:40.976Z</time>
      </trkpt>
      <trkpt lat="51.964104" lon="6.289682">
        <ele>63.931084</ele>
        <time>2026-05-09T11:44:48.975Z</time>
      </trkpt>
      <trkpt lat="51.964178" lon="6.289594">
        <ele>64.008708</ele>
        <time>2026-05-09T11:44:56.967Z</time>
      </trkpt>
      <trkpt lat="51.964229" lon="6.289470">
        <ele>64.086435</ele>
        <time>2026-05-09T11:45:02.968Z</time>
      </trkpt>
      <trkpt lat="51.964299" lon="6.289363">
        <ele>64.167799</ele>
        <time>2026-05-09T11:45:09.966Z</time>
      </trkpt>
      <trkpt lat="51.964374" lon="6.289270">
        <ele>64.247663</ele>
        <time>2026-05-09T11:45:15.972Z</time>
      </trkpt>
      <trkpt lat="51.964440" lon="6.289162">
        <ele>64.326967</ele>
        <time>2026-05-09T11:45:21.970Z</time>
      </trkpt>
      <trkpt lat="51.964514" lon="6.289066">
        <ele>64.407126</ele>
        <time>2026-05-09T11:45:26.967Z</time>
      </trkpt>
      <trkpt lat="51.964587" lon="6.288964">
        <ele>64.488632</ele>
        <time>2026-05-09T11:45:32.971Z</time>
      </trkpt>
      <trkpt lat="51.964658" lon="6.288844">
        <ele>64.557918</ele>
        <time>2026-05-09T11:45:38.970Z</time>
      </trkpt>
      <trkpt lat="51.964733" lon="6.288729">
        <ele>64.317439</ele>
        <time>2026-05-09T11:45:44.969Z</time>
      </trkpt>
      <trkpt lat="51.964809" lon="6.288605">
        <ele>64.066269</ele>
        <time>2026-05-09T11:45:51.975Z</time>
      </trkpt>
      <trkpt lat="51.964889" lon="6.288498">
        <ele>63.824655</ele>
        <time>2026-05-09T11:45:58.972Z</time>
      </trkpt>
      <trkpt lat="51.964973" lon="6.288435">
        <ele>63.608982</ele>
        <time>2026-05-09T11:46:03.973Z</time>
      </trkpt>
      <trkpt lat="51.965048" lon="6.288344">
        <ele>63.390730</ele>
        <time>2026-05-09T11:46:08.967Z</time>
      </trkpt>
      <trkpt lat="51.965132" lon="6.288278">
        <ele>63.173214</ele>
        <time>2026-05-09T11:46:14.968Z</time>
      </trkpt>
      <trkpt lat="51.965203" lon="6.288185">
        <ele>62.960564</ele>
        <time>2026-05-09T11:46:22.966Z</time>
      </trkpt>
      <trkpt lat="51.965146" lon="6.288043">
        <ele>62.717187</ele>
        <time>2026-05-09T12:21:08.966Z</time>
      </trkpt>
      <trkpt lat="51.965093" lon="6.287905">
        <ele>62.483665</ele>
        <time>2026-05-09T12:21:15.962Z</time>
      </trkpt>
      <trkpt lat="51.965051" lon="6.287770">
        <ele>62.266485</ele>
        <time>2026-05-09T12:21:22.962Z</time>
      </trkpt>
      <trkpt lat="51.964997" lon="6.287629">
        <ele>62.028074</ele>
        <time>2026-05-09T12:21:31.961Z</time>
      </trkpt>
      <trkpt lat="51.964933" lon="6.287508">
        <ele>61.799067</ele>
        <time>2026-05-09T12:21:41.965Z</time>
      </trkpt>
      <trkpt lat="51.964869" lon="6.287388">
        <ele>61.571148</ele>
        <time>2026-05-09T12:21:48.959Z</time>
      </trkpt>
      <trkpt lat="51.964770" lon="6.287337">
        <ele>61.329063</ele>
        <time>2026-05-09T12:21:55.971Z</time>
      </trkpt>
      <trkpt lat="51.964705" lon="6.287441">
        <ele>61.116326</ele>
        <time>2026-05-09T12:21:58.962Z</time>
      </trkpt>
      <trkpt lat="51.964620" lon="6.287572">
        <ele>60.843125</ele>
        <time>2026-05-09T12:22:02.963Z</time>
      </trkpt>
      <trkpt lat="51.964530" lon="6.287679">
        <ele>60.583101</ele>
        <time>2026-05-09T12:22:06.961Z</time>
      </trkpt>
      <trkpt lat="51.964434" lon="6.287793">
        <ele>60.335417</ele>
        <time>2026-05-09T12:22:10.961Z</time>
      </trkpt>
      <trkpt lat="51.964350" lon="6.287933">
        <ele>60.168844</ele>
        <time>2026-05-09T12:22:14.970Z</time>
      </trkpt>
      <trkpt lat="51.964277" lon="6.288044">
        <ele>60.030453</ele>
        <time>2026-05-09T12:22:17.963Z</time>
      </trkpt>
      <trkpt lat="51.964201" lon="6.288149">
        <ele>59.892374</ele>
        <time>2026-05-09T12:22:20.960Z</time>
      </trkpt>
      <trkpt lat="51.964124" lon="6.288251">
        <ele>59.754869</ele>
        <time>2026-05-09T12:22:23.963Z</time>
      </trkpt>
      <trkpt lat="51.964052" lon="6.288347">
        <ele>59.625956</ele>
        <time>2026-05-09T12:22:26.968Z</time>
      </trkpt>
      <trkpt lat="51.963986" lon="6.288447">
        <ele>59.501043</ele>
        <time>2026-05-09T12:22:29.963Z</time>
      </trkpt>
      <trkpt lat="51.963905" lon="6.288570">
        <ele>59.347581</ele>
        <time>2026-05-09T12:22:33.967Z</time>
      </trkpt>
      <trkpt lat="51.963830" lon="6.288680">
        <ele>59.207730</ele>
        <time>2026-05-09T12:22:37.968Z</time>
      </trkpt>
      <trkpt lat="51.963771" lon="6.288805">
        <ele>59.073506</ele>
        <time>2026-05-09T12:22:42.965Z</time>
      </trkpt>
      <trkpt lat="51.963704" lon="6.288905">
        <ele>58.947577</ele>
        <time>2026-05-09T12:22:49.965Z</time>
      </trkpt>
      <trkpt lat="51.963766" lon="6.288786">
        <ele>58.814735</ele>
        <time>2026-05-09T12:23:19.960Z</time>
      </trkpt>
      <trkpt lat="51.963694" lon="6.288646">
        <ele>58.659288</ele>
        <time>2026-05-09T12:23:24.965Z</time>
      </trkpt>
      <trkpt lat="51.963591" lon="6.288589">
        <ele>58.508736</ele>
        <time>2026-05-09T12:23:28.966Z</time>
      </trkpt>
      <trkpt lat="51.963500" lon="6.288536">
        <ele>58.374980</ele>
        <time>2026-05-09T12:23:32.965Z</time>
      </trkpt>
      <trkpt lat="51.963425" lon="6.288429">
        <ele>58.236831</ele>
        <time>2026-05-09T12:23:37.963Z</time>
      </trkpt>
      <trkpt lat="51.963449" lon="6.288254">
        <ele>58.084004</ele>
        <time>2026-05-09T12:23:42.959Z</time>
      </trkpt>
      <trkpt lat="51.963502" lon="6.288108">
        <ele>57.939555</ele>
        <time>2026-05-09T12:23:48.959Z</time>
      </trkpt>
      <trkpt lat="51.963439" lon="6.288315">
        <ele>57.874619</ele>
        <time>2026-05-09T12:24:41.964Z</time>
      </trkpt>
      <trkpt lat="51.963366" lon="6.288405">
        <ele>57.861179</ele>
        <time>2026-05-09T12:24:46.964Z</time>
      </trkpt>
      <trkpt lat="51.963282" lon="6.288340">
        <ele>57.847537</ele>
        <time>2026-05-09T12:24:50.964Z</time>
      </trkpt>
      <trkpt lat="51.963173" lon="6.288362">
        <ele>57.831434</ele>
        <time>2026-05-09T12:24:54.965Z</time>
      </trkpt>
      <trkpt lat="51.963086" lon="6.288436">
        <ele>57.817033</ele>
        <time>2026-05-09T12:24:59.964Z</time>
      </trkpt>
      <trkpt lat="51.962995" lon="6.288451">
        <ele>57.803624</ele>
        <time>2026-05-09T12:25:04.973Z</time>
      </trkpt>
      <trkpt lat="51.962933" lon="6.288288">
        <ele>57.786320</ele>
        <time>2026-05-09T12:25:08.960Z</time>
      </trkpt>
      <trkpt lat="51.962891" lon="6.288113">
        <ele>57.769355</ele>
        <time>2026-05-09T12:25:12.968Z</time>
      </trkpt>
      <trkpt lat="51.962923" lon="6.287949">
        <ele>57.753815</ele>
        <time>2026-05-09T12:25:17.966Z</time>
      </trkpt>
      <trkpt lat="51.962959" lon="6.287802">
        <ele>57.739526</ele>
        <time>2026-05-09T12:25:21.966Z</time>
      </trkpt>
      <trkpt lat="51.963054" lon="6.287748">
        <ele>57.724769</ele>
        <time>2026-05-09T12:25:25.961Z</time>
      </trkpt>
      <trkpt lat="51.963181" lon="6.287703">
        <ele>57.705711</ele>
        <time>2026-05-09T12:25:59.973Z</time>
      </trkpt>
      <trkpt lat="51.963297" lon="6.287524">
        <ele>57.682245</ele>
        <time>2026-05-09T12:26:28.968Z</time>
      </trkpt>
      <trkpt lat="51.963381" lon="6.287394">
        <ele>57.665229</ele>
        <time>2026-05-09T12:26:32.961Z</time>
      </trkpt>
      <trkpt lat="51.963490" lon="6.287319">
        <ele>57.647872</ele>
        <time>2026-05-09T12:26:36.966Z</time>
      </trkpt>
      <trkpt lat="51.963602" lon="6.287363">
        <ele>57.630978</ele>
        <time>2026-05-09T12:26:40.960Z</time>
      </trkpt>
      <trkpt lat="51.963690" lon="6.287263">
        <ele>57.622389</ele>
        <time>2026-05-09T12:26:44.969Z</time>
      </trkpt>
      <trkpt lat="51.963764" lon="6.287153">
        <ele>57.616973</ele>
        <time>2026-05-09T12:26:47.973Z</time>
      </trkpt>
      <trkpt lat="51.963846" lon="6.287044">
        <ele>57.611251</ele>
        <time>2026-05-09T12:26:50.961Z</time>
      </trkpt>
      <trkpt lat="51.963926" lon="6.286926">
        <ele>57.605417</ele>
        <time>2026-05-09T12:26:53.970Z</time>
      </trkpt>
      <trkpt lat="51.964002" lon="6.286806">
        <ele>57.599693</ele>
        <time>2026-05-09T12:26:56.968Z</time>
      </trkpt>
      <trkpt lat="51.964080" lon="6.286699">
        <ele>57.594181</ele>
        <time>2026-05-09T12:26:59.965Z</time>
      </trkpt>
      <trkpt lat="51.964154" lon="6.286581">
        <ele>57.588581</ele>
        <time>2026-05-09T12:27:02.966Z</time>
      </trkpt>
      <trkpt lat="51.964233" lon="6.286474">
        <ele>57.583027</ele>
        <time>2026-05-09T12:27:05.969Z</time>
      </trkpt>
      <trkpt lat="51.964305" lon="6.286362">
        <ele>57.577644</ele>
        <time>2026-05-09T12:27:08.970Z</time>
      </trkpt>
      <trkpt lat="51.964331" lon="6.286209">
        <ele>57.572366</ele>
        <time>2026-05-09T12:27:11.964Z</time>
      </trkpt>
      <trkpt lat="51.964291" lon="6.286032">
        <ele>57.566096</ele>
        <time>2026-05-09T12:27:14.961Z</time>
      </trkpt>
      <trkpt lat="51.964215" lon="6.285876">
        <ele>57.559482</ele>
        <time>2026-05-09T12:27:17.970Z</time>
      </trkpt>
      <trkpt lat="51.964133" lon="6.285712">
        <ele>57.552458</ele>
        <time>2026-05-09T12:27:20.965Z</time>
      </trkpt>
      <trkpt lat="51.964085" lon="6.285588">
        <ele>57.547588</ele>
        <time>2026-05-09T12:27:22.966Z</time>
      </trkpt>
      <trkpt lat="51.964029" lon="6.285474">
        <ele>57.542739</ele>
        <time>2026-05-09T12:27:24.964Z</time>
      </trkpt>
      <trkpt lat="51.963946" lon="6.285307">
        <ele>57.535604</ele>
        <time>2026-05-09T12:27:27.964Z</time>
      </trkpt>
      <trkpt lat="51.963890" lon="6.285191">
        <ele>57.530703</ele>
        <time>2026-05-09T12:27:29.965Z</time>
      </trkpt>
      <trkpt lat="51.963827" lon="6.285057">
        <ele>57.424279</ele>
        <time>2026-05-09T12:27:31.971Z</time>
      </trkpt>
      <trkpt lat="51.963766" lon="6.284909">
        <ele>57.282091</ele>
        <time>2026-05-09T12:27:33.963Z</time>
      </trkpt>
      <trkpt lat="51.963705" lon="6.284748">
        <ele>57.131165</ele>
        <time>2026-05-09T12:27:35.962Z</time>
      </trkpt>
      <trkpt lat="51.963640" lon="6.284599">
        <ele>56.985380</ele>
        <time>2026-05-09T12:27:37.960Z</time>
      </trkpt>
      <trkpt lat="51.963575" lon="6.284458">
        <ele>56.844761</ele>
        <time>2026-05-09T12:27:39.959Z</time>
      </trkpt>
      <trkpt lat="51.963512" lon="6.284319">
        <ele>56.706968</ele>
        <time>2026-05-09T12:27:41.971Z</time>
      </trkpt>
      <trkpt lat="51.963451" lon="6.284183">
        <ele>56.572639</ele>
        <time>2026-05-09T12:27:43.956Z</time>
      </trkpt>
      <trkpt lat="51.963395" lon="6.284058">
        <ele>56.449226</ele>
        <time>2026-05-09T12:27:45.961Z</time>
      </trkpt>
      <trkpt lat="51.963327" lon="6.283897">
        <ele>56.293355</ele>
        <time>2026-05-09T12:27:48.961Z</time>
      </trkpt>
      <trkpt lat="51.963268" lon="6.283766">
        <ele>56.163779</ele>
        <time>2026-05-09T12:27:53.969Z</time>
      </trkpt>
      <trkpt lat="51.963204" lon="6.283636">
        <ele>56.030902</ele>
        <time>2026-05-09T12:27:57.961Z</time>
      </trkpt>
      <trkpt lat="51.963131" lon="6.283479">
        <ele>55.873838</ele>
        <time>2026-05-09T12:28:00.970Z</time>
      </trkpt>
      <trkpt lat="51.963078" lon="6.283353">
        <ele>55.752011</ele>
        <time>2026-05-09T12:28:02.959Z</time>
      </trkpt>
      <trkpt lat="51.963024" lon="6.283227">
        <ele>55.629448</ele>
        <time>2026-05-09T12:28:04.965Z</time>
      </trkpt>
      <trkpt lat="51.962966" lon="6.283102">
        <ele>55.504492</ele>
        <time>2026-05-09T12:28:06.960Z</time>
      </trkpt>
      <trkpt lat="51.962906" lon="6.282982">
        <ele>55.381085</ele>
        <time>2026-05-09T12:28:08.965Z</time>
      </trkpt>
      <trkpt lat="51.962843" lon="6.282856">
        <ele>55.251508</ele>
        <time>2026-05-09T12:28:10.964Z</time>
      </trkpt>
      <trkpt lat="51.962786" lon="6.282732">
        <ele>55.143037</ele>
        <time>2026-05-09T12:28:12.965Z</time>
      </trkpt>
      <trkpt lat="51.962726" lon="6.282618">
        <ele>55.048913</ele>
        <time>2026-05-09T12:28:14.965Z</time>
      </trkpt>
      <trkpt lat="51.962670" lon="6.282496">
        <ele>54.953404</ele>
        <time>2026-05-09T12:28:16.972Z</time>
      </trkpt>
      <trkpt lat="51.962620" lon="6.282366">
        <ele>54.857194</ele>
        <time>2026-05-09T12:28:18.963Z</time>
      </trkpt>
      <trkpt lat="51.962561" lon="6.282230">
        <ele>54.752773</ele>
        <time>2026-05-09T12:28:20.962Z</time>
      </trkpt>
      <trkpt lat="51.962479" lon="6.282126">
        <ele>54.646738</ele>
        <time>2026-05-09T12:28:22.967Z</time>
      </trkpt>
      <trkpt lat="51.962389" lon="6.282054">
        <ele>54.544503</ele>
        <time>2026-05-09T12:28:24.967Z</time>
      </trkpt>
      <trkpt lat="51.962301" lon="6.281981">
        <ele>54.443807</ele>
        <time>2026-05-09T12:28:26.961Z</time>
      </trkpt>
      <trkpt lat="51.962213" lon="6.281904">
        <ele>54.341944</ele>
        <time>2026-05-09T12:28:28.970Z</time>
      </trkpt>
      <trkpt lat="51.962124" lon="6.281837">
        <ele>54.241983</ele>
        <time>2026-05-09T12:28:30.970Z</time>
      </trkpt>
      <trkpt lat="51.962045" lon="6.281759">
        <ele>54.147765</ele>
        <time>2026-05-09T12:28:32.963Z</time>
      </trkpt>
      <trkpt lat="51.961963" lon="6.281681">
        <ele>54.050924</ele>
        <time>2026-05-09T12:28:34.963Z</time>
      </trkpt>
      <trkpt lat="51.961887" lon="6.281581">
        <ele>53.951235</ele>
        <time>2026-05-09T12:28:36.963Z</time>
      </trkpt>
      <trkpt lat="51.961816" lon="6.281483">
        <ele>53.856269</ele>
        <time>2026-05-09T12:28:38.961Z</time>
      </trkpt>
      <trkpt lat="51.961747" lon="6.281388">
        <ele>53.764075</ele>
        <time>2026-05-09T12:28:40.967Z</time>
      </trkpt>
      <trkpt lat="51.961677" lon="6.281284">
        <ele>53.667379</ele>
        <time>2026-05-09T12:28:42.967Z</time>
      </trkpt>
      <trkpt lat="51.961613" lon="6.281178">
        <ele>53.574208</ele>
        <time>2026-05-09T12:28:44.960Z</time>
      </trkpt>
      <trkpt lat="51.961552" lon="6.281068">
        <ele>53.481298</ele>
        <time>2026-05-09T12:28:46.962Z</time>
      </trkpt>
      <trkpt lat="51.961482" lon="6.280967">
        <ele>53.385864</ele>
        <time>2026-05-09T12:28:48.959Z</time>
      </trkpt>
      <trkpt lat="51.961411" lon="6.280867">
        <ele>53.415686</ele>
        <time>2026-05-09T12:28:50.964Z</time>
      </trkpt>
      <trkpt lat="51.961341" lon="6.280750">
        <ele>53.483040</ele>
        <time>2026-05-09T12:28:52.959Z</time>
      </trkpt>
      <trkpt lat="51.961266" lon="6.280638">
        <ele>53.551355</ele>
        <time>2026-05-09T12:28:54.963Z</time>
      </trkpt>
      <trkpt lat="51.961191" lon="6.280521">
        <ele>53.621085</ele>
        <time>2026-05-09T12:28:56.959Z</time>
      </trkpt>
      <trkpt lat="51.961109" lon="6.280401">
        <ele>53.695094</ele>
        <time>2026-05-09T12:28:58.958Z</time>
      </trkpt>
      <trkpt lat="51.961037" lon="6.280279">
        <ele>53.764865</ele>
        <time>2026-05-09T12:29:00.958Z</time>
      </trkpt>
      <trkpt lat="51.960963" lon="6.280162">
        <ele>53.834114</ele>
        <time>2026-05-09T12:29:02.961Z</time>
      </trkpt>
      <trkpt lat="51.960894" lon="6.280044">
        <ele>53.901302</ele>
        <time>2026-05-09T12:29:04.961Z</time>
      </trkpt>
      <trkpt lat="51.960816" lon="6.279927">
        <ele>53.972495</ele>
        <time>2026-05-09T12:29:06.965Z</time>
      </trkpt>
      <trkpt lat="51.960735" lon="6.279802">
        <ele>54.047416</ele>
        <time>2026-05-09T12:29:08.972Z</time>
      </trkpt>
      <trkpt lat="51.960650" lon="6.279679">
        <ele>54.123750</ele>
        <time>2026-05-09T12:29:10.967Z</time>
      </trkpt>
      <trkpt lat="51.960562" lon="6.279541">
        <ele>54.205773</ele>
        <time>2026-05-09T12:29:12.963Z</time>
      </trkpt>
      <trkpt lat="51.960469" lon="6.279403">
        <ele>54.290239</ele>
        <time>2026-05-09T12:29:14.967Z</time>
      </trkpt>
      <trkpt lat="51.960377" lon="6.279266">
        <ele>54.373931</ele>
        <time>2026-05-09T12:29:16.963Z</time>
      </trkpt>
      <trkpt lat="51.960297" lon="6.279120">
        <ele>54.454626</ele>
        <time>2026-05-09T12:29:18.961Z</time>
      </trkpt>
      <trkpt lat="51.960217" lon="6.278982">
        <ele>54.532883</ele>
        <time>2026-05-09T12:29:20.966Z</time>
      </trkpt>
      <trkpt lat="51.960133" lon="6.278850">
        <ele>54.611397</ele>
        <time>2026-05-09T12:29:22.968Z</time>
      </trkpt>
      <trkpt lat="51.960050" lon="6.278721">
        <ele>54.688700</ele>
        <time>2026-05-09T12:29:24.967Z</time>
      </trkpt>
      <trkpt lat="51.959963" lon="6.278592">
        <ele>54.767968</ele>
        <time>2026-05-09T12:29:26.970Z</time>
      </trkpt>
      <trkpt lat="51.959873" lon="6.278473">
        <ele>54.846055</ele>
        <time>2026-05-09T12:29:28.960Z</time>
      </trkpt>
      <trkpt lat="51.959781" lon="6.278367">
        <ele>54.921948</ele>
        <time>2026-05-09T12:29:30.963Z</time>
      </trkpt>
      <trkpt lat="51.959685" lon="6.278281">
        <ele>54.995707</ele>
        <time>2026-05-09T12:29:32.960Z</time>
      </trkpt>
      <trkpt lat="51.959602" lon="6.278179">
        <ele>55.065738</ele>
        <time>2026-05-09T12:29:34.963Z</time>
      </trkpt>
      <trkpt lat="51.959552" lon="6.278052">
        <ele>55.128204</ele>
        <time>2026-05-09T12:29:36.959Z</time>
      </trkpt>
      <trkpt lat="51.959533" lon="6.277857">
        <ele>55.210034</ele>
        <time>2026-05-09T12:29:39.963Z</time>
      </trkpt>
      <trkpt lat="51.959580" lon="6.277690">
        <ele>55.286132</ele>
        <time>2026-05-09T12:29:42.957Z</time>
      </trkpt>
      <trkpt lat="51.959650" lon="6.277549">
        <ele>55.361182</ele>
        <time>2026-05-09T12:29:45.964Z</time>
      </trkpt>
      <trkpt lat="51.959733" lon="6.277379">
        <ele>55.451081</ele>
        <time>2026-05-09T12:29:48.969Z</time>
      </trkpt>
      <trkpt lat="51.959799" lon="6.277258">
        <ele>55.518060</ele>
        <time>2026-05-09T12:29:50.961Z</time>
      </trkpt>
      <trkpt lat="51.959869" lon="6.277122">
        <ele>55.591508</ele>
        <time>2026-05-09T12:29:52.960Z</time>
      </trkpt>
      <trkpt lat="51.959940" lon="6.276986">
        <ele>55.665389</ele>
        <time>2026-05-09T12:29:54.970Z</time>
      </trkpt>
      <trkpt lat="51.960015" lon="6.276845">
        <ele>55.742593</ele>
        <time>2026-05-09T12:29:56.972Z</time>
      </trkpt>
      <trkpt lat="51.960093" lon="6.276692">
        <ele>55.766502</ele>
        <time>2026-05-09T12:29:58.968Z</time>
      </trkpt>
      <trkpt lat="51.960177" lon="6.276523">
        <ele>55.736061</ele>
        <time>2026-05-09T12:30:01.966Z</time>
      </trkpt>
      <trkpt lat="51.960258" lon="6.276358">
        <ele>55.706485</ele>
        <time>2026-05-09T12:30:04.961Z</time>
      </trkpt>
      <trkpt lat="51.960332" lon="6.276218">
        <ele>55.680625</ele>
        <time>2026-05-09T12:30:07.965Z</time>
      </trkpt>
      <trkpt lat="51.960371" lon="6.276059">
        <ele>55.656632</ele>
        <time>2026-05-09T12:30:11.966Z</time>
      </trkpt>
      <trkpt lat="51.960272" lon="6.275969">
        <ele>55.630814</ele>
        <time>2026-05-09T12:30:14.965Z</time>
      </trkpt>
      <trkpt lat="51.960147" lon="6.275879">
        <ele>55.599701</ele>
        <time>2026-05-09T12:30:17.970Z</time>
      </trkpt>
      <trkpt lat="51.960062" lon="6.275802">
        <ele>55.577553</ele>
        <time>2026-05-09T12:30:19.965Z</time>
      </trkpt>
      <trkpt lat="51.959977" lon="6.275716">
        <ele>55.554763</ele>
        <time>2026-05-09T12:30:21.966Z</time>
      </trkpt>
      <trkpt lat="51.959894" lon="6.275639">
        <ele>55.533011</ele>
        <time>2026-05-09T12:30:23.964Z</time>
      </trkpt>
      <trkpt lat="51.959810" lon="6.275560">
        <ele>55.510922</ele>
        <time>2026-05-09T12:30:25.970Z</time>
      </trkpt>
      <trkpt lat="51.959729" lon="6.275476">
        <ele>55.489051</ele>
        <time>2026-05-09T12:30:27.968Z</time>
      </trkpt>
      <trkpt lat="51.959640" lon="6.275381">
        <ele>55.464814</ele>
        <time>2026-05-09T12:30:29.970Z</time>
      </trkpt>
      <trkpt lat="51.959546" lon="6.275316">
        <ele>55.441566</ele>
        <time>2026-05-09T12:30:31.964Z</time>
      </trkpt>
      <trkpt lat="51.959449" lon="6.275344">
        <ele>55.419150</ele>
        <time>2026-05-09T12:30:33.969Z</time>
      </trkpt>
      <trkpt lat="51.959374" lon="6.275449">
        <ele>55.396614</ele>
        <time>2026-05-09T12:30:35.960Z</time>
      </trkpt>
      <trkpt lat="51.959290" lon="6.275520">
        <ele>55.375065</ele>
        <time>2026-05-09T12:30:37.967Z</time>
      </trkpt>
      <trkpt lat="51.959193" lon="6.275529">
        <ele>55.355976</ele>
        <time>2026-05-09T12:30:39.967Z</time>
      </trkpt>
      <trkpt lat="51.959092" lon="6.275490">
        <ele>55.336091</ele>
        <time>2026-05-09T12:30:41.969Z</time>
      </trkpt>
      <trkpt lat="51.958989" lon="6.275447">
        <ele>55.315720</ele>
        <time>2026-05-09T12:30:43.964Z</time>
      </trkpt>
      <trkpt lat="51.958880" lon="6.275416">
        <ele>55.294524</ele>
        <time>2026-05-09T12:30:45.964Z</time>
      </trkpt>
      <trkpt lat="51.958771" lon="6.275371">
        <ele>55.272981</ele>
        <time>2026-05-09T12:30:47.967Z</time>
      </trkpt>
      <trkpt lat="51.958674" lon="6.275329">
        <ele>55.253752</ele>
        <time>2026-05-09T12:30:49.960Z</time>
      </trkpt>
      <trkpt lat="51.958570" lon="6.275294">
        <ele>55.233408</ele>
        <time>2026-05-09T12:30:51.965Z</time>
      </trkpt>
      <trkpt lat="51.958462" lon="6.275254">
        <ele>55.212190</ele>
        <time>2026-05-09T12:30:53.962Z</time>
      </trkpt>
      <trkpt lat="51.958359" lon="6.275228">
        <ele>55.192225</ele>
        <time>2026-05-09T12:30:55.965Z</time>
      </trkpt>
      <trkpt lat="51.958252" lon="6.275197">
        <ele>55.171406</ele>
        <time>2026-05-09T12:30:57.964Z</time>
      </trkpt>
      <trkpt lat="51.958141" lon="6.275176">
        <ele>55.150001</ele>
        <time>2026-05-09T12:30:59.965Z</time>
      </trkpt>
      <trkpt lat="51.958035" lon="6.275171">
        <ele>55.129690</ele>
        <time>2026-05-09T12:31:01.964Z</time>
      </trkpt>
      <trkpt lat="51.957920" lon="6.275155">
        <ele>55.107582</ele>
        <time>2026-05-09T12:31:03.961Z</time>
      </trkpt>
      <trkpt lat="51.957812" lon="6.275145">
        <ele>55.086862</ele>
        <time>2026-05-09T12:31:05.962Z</time>
      </trkpt>
      <trkpt lat="51.957706" lon="6.275137">
        <ele>55.066537</ele>
        <time>2026-05-09T12:31:07.959Z</time>
      </trkpt>
      <trkpt lat="51.957595" lon="6.275118">
        <ele>55.045158</ele>
        <time>2026-05-09T12:31:09.966Z</time>
      </trkpt>
      <trkpt lat="51.957484" lon="6.275098">
        <ele>55.025116</ele>
        <time>2026-05-09T12:31:11.965Z</time>
      </trkpt>
      <trkpt lat="51.957376" lon="6.275091">
        <ele>55.011843</ele>
        <time>2026-05-09T12:31:13.965Z</time>
      </trkpt>
      <trkpt lat="51.957269" lon="6.275080">
        <ele>54.998677</ele>
        <time>2026-05-09T12:31:15.959Z</time>
      </trkpt>
      <trkpt lat="51.957163" lon="6.275063">
        <ele>54.985597</ele>
        <time>2026-05-09T12:31:17.965Z</time>
      </trkpt>
      <trkpt lat="51.957064" lon="6.275054">
        <ele>54.973421</ele>
        <time>2026-05-09T12:31:19.965Z</time>
      </trkpt>
      <trkpt lat="51.956965" lon="6.275049">
        <ele>54.961258</ele>
        <time>2026-05-09T12:31:21.957Z</time>
      </trkpt>
      <trkpt lat="51.956873" lon="6.275050">
        <ele>54.949961</ele>
        <time>2026-05-09T12:31:23.964Z</time>
      </trkpt>
      <trkpt lat="51.956740" lon="6.275040">
        <ele>54.933611</ele>
        <time>2026-05-09T12:31:26.964Z</time>
      </trkpt>
      <trkpt lat="51.956642" lon="6.275011">
        <ele>54.921378</ele>
        <time>2026-05-09T12:31:28.960Z</time>
      </trkpt>
      <trkpt lat="51.956566" lon="6.274901">
        <ele>54.908872</ele>
        <time>2026-05-09T12:31:30.963Z</time>
      </trkpt>
      <trkpt lat="51.956489" lon="6.274781">
        <ele>54.895762</ele>
        <time>2026-05-09T12:31:32.963Z</time>
      </trkpt>
      <trkpt lat="51.956416" lon="6.274659">
        <ele>54.882894</ele>
        <time>2026-05-09T12:31:34.959Z</time>
      </trkpt>
      <trkpt lat="51.956338" lon="6.274546">
        <ele>54.870054</ele>
        <time>2026-05-09T12:31:36.975Z</time>
      </trkpt>
      <trkpt lat="51.956257" lon="6.274460">
        <ele>54.858167</ele>
        <time>2026-05-09T12:31:38.973Z</time>
      </trkpt>
      <trkpt lat="51.956168" lon="6.274386">
        <ele>54.845887</ele>
        <time>2026-05-09T12:31:40.964Z</time>
      </trkpt>
      <trkpt lat="51.956078" lon="6.274339">
        <ele>54.834277</ele>
        <time>2026-05-09T12:31:42.961Z</time>
      </trkpt>
      <trkpt lat="51.955986" lon="6.274266">
        <ele>54.821701</ele>
        <time>2026-05-09T12:31:44.959Z</time>
      </trkpt>
      <trkpt lat="51.955923" lon="6.274124">
        <ele>54.808460</ele>
        <time>2026-05-09T12:31:46.962Z</time>
      </trkpt>
      <trkpt lat="51.955866" lon="6.273976">
        <ele>54.827626</ele>
        <time>2026-05-09T12:31:48.962Z</time>
      </trkpt>
      <trkpt lat="51.955809" lon="6.273833">
        <ele>54.851327</ele>
        <time>2026-05-09T12:31:50.965Z</time>
      </trkpt>
      <trkpt lat="51.955753" lon="6.273688">
        <ele>54.875142</ele>
        <time>2026-05-09T12:31:52.961Z</time>
      </trkpt>
      <trkpt lat="51.955695" lon="6.273545">
        <ele>54.898967</ele>
        <time>2026-05-09T12:31:54.969Z</time>
      </trkpt>
      <trkpt lat="51.955636" lon="6.273404">
        <ele>54.922686</ele>
        <time>2026-05-09T12:31:56.960Z</time>
      </trkpt>
      <trkpt lat="51.955584" lon="6.273270">
        <ele>54.944725</ele>
        <time>2026-05-09T12:31:58.968Z</time>
      </trkpt>
      <trkpt lat="51.955531" lon="6.273126">
        <ele>54.968067</ele>
        <time>2026-05-09T12:32:00.969Z</time>
      </trkpt>
      <trkpt lat="51.955478" lon="6.273000">
        <ele>54.989298</ele>
        <time>2026-05-09T12:32:02.961Z</time>
      </trkpt>
      <trkpt lat="51.955411" lon="6.272817">
        <ele>55.018922</ele>
        <time>2026-05-09T12:32:05.969Z</time>
      </trkpt>
      <trkpt lat="51.955347" lon="6.272637">
        <ele>55.047844</ele>
        <time>2026-05-09T12:32:08.964Z</time>
      </trkpt>
      <trkpt lat="51.955285" lon="6.272461">
        <ele>55.076057</ele>
        <time>2026-05-09T12:32:11.965Z</time>
      </trkpt>
      <trkpt lat="51.955211" lon="6.272296">
        <ele>55.104458</ele>
        <time>2026-05-09T12:32:14.966Z</time>
      </trkpt>
      <trkpt lat="51.955125" lon="6.272194">
        <ele>55.128514</ele>
        <time>2026-05-09T12:32:17.973Z</time>
      </trkpt>
      <trkpt lat="51.955044" lon="6.271936">
        <ele>55.168812</ele>
        <time>2026-05-09T12:32:46.964Z</time>
      </trkpt>
      <trkpt lat="51.955058" lon="6.271786">
        <ele>55.189926</ele>
        <time>2026-05-09T12:32:53.960Z</time>
      </trkpt>
      <trkpt lat="51.955018" lon="6.271921">
        <ele>55.210773</ele>
        <time>2026-05-09T12:33:23.964Z</time>
      </trkpt>
      <trkpt lat="51.954921" lon="6.272011">
        <ele>55.211053</ele>
        <time>2026-05-09T12:34:12.969Z</time>
      </trkpt>
      <trkpt lat="51.954825" lon="6.271956">
        <ele>55.209279</ele>
        <time>2026-05-09T12:34:16.961Z</time>
      </trkpt>
      <trkpt lat="51.954722" lon="6.271915">
        <ele>55.207432</ele>
        <time>2026-05-09T12:34:21.961Z</time>
      </trkpt>
      <trkpt lat="51.954625" lon="6.271876">
        <ele>55.205691</ele>
        <time>2026-05-09T12:34:26.961Z</time>
      </trkpt>
      <trkpt lat="51.954527" lon="6.271867">
        <ele>55.203980</ele>
        <time>2026-05-09T12:34:30.965Z</time>
      </trkpt>
      <trkpt lat="51.954408" lon="6.271841">
        <ele>55.201888</ele>
        <time>2026-05-09T12:34:33.962Z</time>
      </trkpt>
      <trkpt lat="51.954317" lon="6.271831">
        <ele>55.200299</ele>
        <time>2026-05-09T12:34:35.966Z</time>
      </trkpt>
      <trkpt lat="51.954223" lon="6.271818">
        <ele>55.198656</ele>
        <time>2026-05-09T12:34:37.964Z</time>
      </trkpt>
      <trkpt lat="51.954127" lon="6.271791">
        <ele>55.196958</ele>
        <time>2026-05-09T12:34:39.964Z</time>
      </trkpt>
      <trkpt lat="51.953996" lon="6.271766">
        <ele>55.194660</ele>
        <time>2026-05-09T12:34:42.964Z</time>
      </trkpt>
      <trkpt lat="51.953871" lon="6.271754">
        <ele>55.192478</ele>
        <time>2026-05-09T12:34:45.960Z</time>
      </trkpt>
      <trkpt lat="51.953781" lon="6.271733">
        <ele>55.190894</ele>
        <time>2026-05-09T12:34:47.970Z</time>
      </trkpt>
      <trkpt lat="51.953686" lon="6.271718">
        <ele>55.189231</ele>
        <time>2026-05-09T12:34:49.965Z</time>
      </trkpt>
      <trkpt lat="51.953590" lon="6.271701">
        <ele>55.187549</ele>
        <time>2026-05-09T12:34:51.963Z</time>
      </trkpt>
      <trkpt lat="51.953494" lon="6.271689">
        <ele>55.185871</ele>
        <time>2026-05-09T12:34:53.971Z</time>
      </trkpt>
      <trkpt lat="51.953404" lon="6.271678">
        <ele>55.184298</ele>
        <time>2026-05-09T12:34:55.961Z</time>
      </trkpt>
      <trkpt lat="51.953279" lon="6.271652">
        <ele>55.182103</ele>
        <time>2026-05-09T12:34:58.963Z</time>
      </trkpt>
      <trkpt lat="51.953157" lon="6.271623">
        <ele>55.223685</ele>
        <time>2026-05-09T12:35:01.961Z</time>
      </trkpt>
      <trkpt lat="51.953035" lon="6.271606">
        <ele>55.281800</ele>
        <time>2026-05-09T12:35:04.963Z</time>
      </trkpt>
      <trkpt lat="51.952910" lon="6.271583">
        <ele>55.341506</ele>
        <time>2026-05-09T12:35:07.970Z</time>
      </trkpt>
      <trkpt lat="51.952793" lon="6.271528">
        <ele>55.399319</ele>
        <time>2026-05-09T12:35:10.961Z</time>
      </trkpt>
      <trkpt lat="51.952687" lon="6.271459">
        <ele>55.453525</ele>
        <time>2026-05-09T12:35:13.962Z</time>
      </trkpt>
      <trkpt lat="51.952595" lon="6.271384">
        <ele>55.502390</ele>
        <time>2026-05-09T12:35:17.961Z</time>
      </trkpt>
      <trkpt lat="51.952493" lon="6.271352">
        <ele>55.551696</ele>
        <time>2026-05-09T12:35:21.961Z</time>
      </trkpt>
      <trkpt lat="51.952421" lon="6.271519">
        <ele>55.611311</ele>
        <time>2026-05-09T12:35:24.966Z</time>
      </trkpt>
      <trkpt lat="51.952451" lon="6.271691">
        <ele>55.663598</ele>
        <time>2026-05-09T12:35:26.966Z</time>
      </trkpt>
      <trkpt lat="51.952497" lon="6.271830">
        <ele>55.709748</ele>
        <time>2026-05-09T12:35:28.965Z</time>
      </trkpt>
      <trkpt lat="51.952545" lon="6.271962">
        <ele>55.754578</ele>
        <time>2026-05-09T12:35:30.961Z</time>
      </trkpt>
      <trkpt lat="51.952593" lon="6.272094">
        <ele>55.799409</ele>
        <time>2026-05-09T12:35:32.965Z</time>
      </trkpt>
      <trkpt lat="51.952646" lon="6.272229">
        <ele>55.846228</ele>
        <time>2026-05-09T12:35:34.963Z</time>
      </trkpt>
      <trkpt lat="51.952689" lon="6.272359">
        <ele>55.889385</ele>
        <time>2026-05-09T12:35:36.965Z</time>
      </trkpt>
      <trkpt lat="51.952723" lon="6.272498">
        <ele>55.933128</ele>
        <time>2026-05-09T12:35:38.968Z</time>
      </trkpt>
      <trkpt lat="51.952747" lon="6.272656">
        <ele>55.980727</ele>
        <time>2026-05-09T12:35:40.963Z</time>
      </trkpt>
      <trkpt lat="51.952751" lon="6.272820">
        <ele>56.028735</ele>
        <time>2026-05-09T12:35:42.965Z</time>
      </trkpt>
      <trkpt lat="51.952748" lon="6.272983">
        <ele>55.973460</ele>
        <time>2026-05-09T12:35:44.965Z</time>
      </trkpt>
      <trkpt lat="51.952731" lon="6.273141">
        <ele>55.903351</ele>
        <time>2026-05-09T12:35:46.959Z</time>
      </trkpt>
      <trkpt lat="51.952698" lon="6.273304">
        <ele>55.828355</ele>
        <time>2026-05-09T12:35:48.969Z</time>
      </trkpt>
      <trkpt lat="51.952653" lon="6.273454">
        <ele>55.755432</ele>
        <time>2026-05-09T12:35:50.963Z</time>
      </trkpt>
      <trkpt lat="51.952605" lon="6.273597">
        <ele>55.684255</ele>
        <time>2026-05-09T12:35:52.968Z</time>
      </trkpt>
      <trkpt lat="51.952555" lon="6.273736">
        <ele>55.613904</ele>
        <time>2026-05-09T12:35:54.971Z</time>
      </trkpt>
      <trkpt lat="51.952500" lon="6.273878">
        <ele>55.540594</ele>
        <time>2026-05-09T12:35:56.963Z</time>
      </trkpt>
      <trkpt lat="51.952450" lon="6.274046">
        <ele>55.459044</ele>
        <time>2026-05-09T12:35:58.960Z</time>
      </trkpt>
      <trkpt lat="51.952426" lon="6.274237">
        <ele>55.373836</ele>
        <time>2026-05-09T12:36:00.961Z</time>
      </trkpt>
      <trkpt lat="51.952411" lon="6.274441">
        <ele>55.284032</ele>
        <time>2026-05-09T12:36:02.968Z</time>
      </trkpt>
      <trkpt lat="51.952392" lon="6.274655">
        <ele>55.189523</ele>
        <time>2026-05-09T12:36:04.959Z</time>
      </trkpt>
      <trkpt lat="51.952373" lon="6.274869">
        <ele>55.095013</ele>
        <time>2026-05-09T12:36:06.963Z</time>
      </trkpt>
      <trkpt lat="51.952362" lon="6.275068">
        <ele>55.007677</ele>
        <time>2026-05-09T12:36:08.967Z</time>
      </trkpt>
      <trkpt lat="51.952350" lon="6.275248">
        <ele>54.928537</ele>
        <time>2026-05-09T12:36:10.966Z</time>
      </trkpt>
      <trkpt lat="51.952352" lon="6.275423">
        <ele>54.852028</ele>
        <time>2026-05-09T12:36:12.968Z</time>
      </trkpt>
      <trkpt lat="51.952381" lon="6.275581">
        <ele>54.779965</ele>
        <time>2026-05-09T12:36:14.963Z</time>
      </trkpt>
      <trkpt lat="51.952421" lon="6.275715">
        <ele>54.883558</ele>
        <time>2026-05-09T12:36:16.968Z</time>
      </trkpt>
      <trkpt lat="51.952458" lon="6.275850">
        <ele>55.063278</ele>
        <time>2026-05-09T12:36:18.971Z</time>
      </trkpt>
      <trkpt lat="51.952481" lon="6.276059">
        <ele>55.321528</ele>
        <time>2026-05-09T12:36:21.968Z</time>
      </trkpt>
      <trkpt lat="51.952500" lon="6.276262">
        <ele>55.571289</ele>
        <time>2026-05-09T12:36:24.966Z</time>
      </trkpt>
      <trkpt lat="51.952518" lon="6.276486">
        <ele>55.846069</ele>
        <time>2026-05-09T12:36:27.968Z</time>
      </trkpt>
      <trkpt lat="51.952531" lon="6.276645">
        <ele>56.041172</ele>
        <time>2026-05-09T12:36:29.966Z</time>
      </trkpt>
      <trkpt lat="51.952538" lon="6.276803">
        <ele>56.233859</ele>
        <time>2026-05-09T12:36:31.964Z</time>
      </trkpt>
      <trkpt lat="51.952544" lon="6.276963">
        <ele>56.428844</ele>
        <time>2026-05-09T12:36:33.959Z</time>
      </trkpt>
      <trkpt lat="51.952549" lon="6.277129">
        <ele>56.631007</ele>
        <time>2026-05-09T12:36:35.966Z</time>
      </trkpt>
      <trkpt lat="51.952546" lon="6.277291">
        <ele>56.828154</ele>
        <time>2026-05-09T12:36:37.965Z</time>
      </trkpt>
      <trkpt lat="51.952542" lon="6.277457">
        <ele>57.030231</ele>
        <time>2026-05-09T12:36:39.965Z</time>
      </trkpt>
      <trkpt lat="51.952540" lon="6.277611">
        <ele>57.217598</ele>
        <time>2026-05-09T12:36:41.963Z</time>
      </trkpt>
      <trkpt lat="51.952532" lon="6.277836">
        <ele>57.491744</ele>
        <time>2026-05-09T12:36:44.962Z</time>
      </trkpt>
      <trkpt lat="51.952520" lon="6.277996">
        <ele>57.687804</ele>
        <time>2026-05-09T12:36:46.962Z</time>
      </trkpt>
      <trkpt lat="51.952509" lon="6.278161">
        <ele>57.889681</ele>
        <time>2026-05-09T12:36:48.963Z</time>
      </trkpt>
      <trkpt lat="51.952497" lon="6.278320">
        <ele>58.084534</ele>
        <time>2026-05-09T12:36:50.961Z</time>
      </trkpt>
      <trkpt lat="51.952481" lon="6.278489">
        <ele>58.292518</ele>
        <time>2026-05-09T12:36:52.970Z</time>
      </trkpt>
      <trkpt lat="51.952464" lon="6.278636">
        <ele>58.324231</ele>
        <time>2026-05-09T12:36:54.961Z</time>
      </trkpt>
      <trkpt lat="51.952447" lon="6.278780">
        <ele>58.340251</ele>
        <time>2026-05-09T12:36:56.960Z</time>
      </trkpt>
      <trkpt lat="51.952415" lon="6.278992">
        <ele>58.364098</ele>
        <time>2026-05-09T12:36:59.963Z</time>
      </trkpt>
      <trkpt lat="51.952397" lon="6.279168">
        <ele>58.383591</ele>
        <time>2026-05-09T12:37:01.960Z</time>
      </trkpt>
      <trkpt lat="51.952381" lon="6.279336">
        <ele>58.402164</ele>
        <time>2026-05-09T12:37:03.964Z</time>
      </trkpt>
      <trkpt lat="51.952367" lon="6.279505">
        <ele>58.420795</ele>
        <time>2026-05-09T12:37:05.961Z</time>
      </trkpt>
      <trkpt lat="51.952347" lon="6.279661">
        <ele>58.438204</ele>
        <time>2026-05-09T12:37:07.962Z</time>
      </trkpt>
      <trkpt lat="51.952329" lon="6.279818">
        <ele>58.455652</ele>
        <time>2026-05-09T12:37:09.963Z</time>
      </trkpt>
      <trkpt lat="51.952309" lon="6.279970">
        <ele>58.472633</ele>
        <time>2026-05-09T12:37:11.960Z</time>
      </trkpt>
      <trkpt lat="51.952284" lon="6.280116">
        <ele>58.489189</ele>
        <time>2026-05-09T12:37:13.956Z</time>
      </trkpt>
      <trkpt lat="51.952252" lon="6.280260">
        <ele>58.505914</ele>
        <time>2026-05-09T12:37:15.963Z</time>
      </trkpt>
      <trkpt lat="51.952221" lon="6.280409">
        <ele>58.523096</ele>
        <time>2026-05-09T12:37:17.960Z</time>
      </trkpt>
      <trkpt lat="51.952187" lon="6.280560">
        <ele>58.540661</ele>
        <time>2026-05-09T12:37:19.960Z</time>
      </trkpt>
      <trkpt lat="51.952151" lon="6.280710">
        <ele>58.558249</ele>
        <time>2026-05-09T12:37:21.963Z</time>
      </trkpt>
      <trkpt lat="51.952121" lon="6.280870">
        <ele>58.576521</ele>
        <time>2026-05-09T12:37:23.959Z</time>
      </trkpt>
      <trkpt lat="51.952092" lon="6.281027">
        <ele>58.594429</ele>
        <time>2026-05-09T12:37:25.972Z</time>
      </trkpt>
      <trkpt lat="51.952062" lon="6.281178">
        <ele>58.611763</ele>
        <time>2026-05-09T12:37:27.964Z</time>
      </trkpt>
      <trkpt lat="51.952029" lon="6.281331">
        <ele>58.620556</ele>
        <time>2026-05-09T12:37:29.959Z</time>
      </trkpt>
      <trkpt lat="51.951993" lon="6.281484">
        <ele>58.506405</ele>
        <time>2026-05-09T12:37:31.961Z</time>
      </trkpt>
      <trkpt lat="51.951961" lon="6.281644">
        <ele>58.389157</ele>
        <time>2026-05-09T12:37:33.957Z</time>
      </trkpt>
      <trkpt lat="51.951920" lon="6.281809">
        <ele>58.265154</ele>
        <time>2026-05-09T12:37:35.963Z</time>
      </trkpt>
      <trkpt lat="51.951877" lon="6.281985">
        <ele>58.133192</ele>
        <time>2026-05-09T12:37:37.959Z</time>
      </trkpt>
      <trkpt lat="51.951844" lon="6.282177">
        <ele>57.994258</ele>
        <time>2026-05-09T12:37:39.963Z</time>
      </trkpt>
      <trkpt lat="51.951857" lon="6.282376">
        <ele>57.854774</ele>
        <time>2026-05-09T12:37:41.962Z</time>
      </trkpt>
      <trkpt lat="51.951914" lon="6.282558">
        <ele>57.712478</ele>
        <time>2026-05-09T12:37:43.959Z</time>
      </trkpt>
      <trkpt lat="51.951984" lon="6.282740">
        <ele>57.562946</ele>
        <time>2026-05-09T12:37:45.963Z</time>
      </trkpt>
      <trkpt lat="51.952033" lon="6.282925">
        <ele>57.422595</ele>
        <time>2026-05-09T12:37:47.962Z</time>
      </trkpt>
      <trkpt lat="51.952053" lon="6.283107">
        <ele>57.293738</ele>
        <time>2026-05-09T12:37:49.964Z</time>
      </trkpt>
      <trkpt lat="51.952065" lon="6.283285">
        <ele>57.168929</ele>
        <time>2026-05-09T12:37:51.962Z</time>
      </trkpt>
      <trkpt lat="51.952050" lon="6.283459">
        <ele>57.046468</ele>
        <time>2026-05-09T12:37:53.963Z</time>
      </trkpt>
      <trkpt lat="51.952030" lon="6.283631">
        <ele>56.924466</ele>
        <time>2026-05-09T12:37:55.961Z</time>
      </trkpt>
      <trkpt lat="51.952005" lon="6.283804">
        <ele>56.800612</ele>
        <time>2026-05-09T12:37:57.968Z</time>
      </trkpt>
      <trkpt lat="51.951976" lon="6.283977">
        <ele>56.675648</ele>
        <time>2026-05-09T12:37:59.963Z</time>
      </trkpt>
      <trkpt lat="51.951963" lon="6.284160">
        <ele>56.591118</ele>
        <time>2026-05-09T12:38:01.968Z</time>
      </trkpt>
      <trkpt lat="51.951961" lon="6.284350">
        <ele>56.582615</ele>
        <time>2026-05-09T12:38:03.964Z</time>
      </trkpt>
      <trkpt lat="51.951953" lon="6.284540">
        <ele>56.574093</ele>
        <time>2026-05-09T12:38:05.962Z</time>
      </trkpt>
      <trkpt lat="51.951948" lon="6.284735">
        <ele>56.565360</ele>
        <time>2026-05-09T12:38:07.962Z</time>
      </trkpt>
      <trkpt lat="51.951949" lon="6.284928">
        <ele>56.556723</ele>
        <time>2026-05-09T12:38:09.964Z</time>
      </trkpt>
      <trkpt lat="51.951949" lon="6.285110">
        <ele>56.548579</ele>
        <time>2026-05-09T12:38:11.962Z</time>
      </trkpt>
      <trkpt lat="51.951947" lon="6.285290">
        <ele>56.540524</ele>
        <time>2026-05-09T12:38:13.967Z</time>
      </trkpt>
      <trkpt lat="51.951946" lon="6.285469">
        <ele>56.532513</ele>
        <time>2026-05-09T12:38:15.966Z</time>
      </trkpt>
      <trkpt lat="51.951947" lon="6.285637">
        <ele>56.524996</ele>
        <time>2026-05-09T12:38:17.972Z</time>
      </trkpt>
      <trkpt lat="51.951935" lon="6.285815">
        <ele>56.516983</ele>
        <time>2026-05-09T12:38:19.966Z</time>
      </trkpt>
      <trkpt lat="51.951873" lon="6.285971">
        <ele>56.508677</ele>
        <time>2026-05-09T12:38:21.954Z</time>
      </trkpt>
      <trkpt lat="51.951783" lon="6.286097">
        <ele>56.500047</ele>
        <time>2026-05-09T12:38:23.963Z</time>
      </trkpt>
      <trkpt lat="51.951686" lon="6.286184">
        <ele>56.492000</ele>
        <time>2026-05-09T12:38:25.968Z</time>
      </trkpt>
      <trkpt lat="51.951590" lon="6.286248">
        <ele>56.484464</ele>
        <time>2026-05-09T12:38:27.965Z</time>
      </trkpt>
      <trkpt lat="51.951498" lon="6.286308">
        <ele>56.477265</ele>
        <time>2026-05-09T12:38:29.965Z</time>
      </trkpt>
      <trkpt lat="51.951408" lon="6.286359">
        <ele>56.470344</ele>
        <time>2026-05-09T12:38:31.962Z</time>
      </trkpt>
      <trkpt lat="51.951329" lon="6.286436">
        <ele>56.463653</ele>
        <time>2026-05-09T12:38:33.963Z</time>
      </trkpt>
      <trkpt lat="51.951196" lon="6.286438">
        <ele>56.321355</ele>
        <time>2026-05-09T12:38:36.969Z</time>
      </trkpt>
      <trkpt lat="51.951091" lon="6.286407">
        <ele>56.205912</ele>
        <time>2026-05-09T12:38:38.959Z</time>
      </trkpt>
      <trkpt lat="51.950978" lon="6.286413">
        <ele>56.083616</ele>
        <time>2026-05-09T12:38:40.963Z</time>
      </trkpt>
      <trkpt lat="51.950871" lon="6.286444">
        <ele>55.966044</ele>
        <time>2026-05-09T12:38:42.964Z</time>
      </trkpt>
      <trkpt lat="51.950768" lon="6.286482">
        <ele>55.851786</ele>
        <time>2026-05-09T12:38:44.961Z</time>
      </trkpt>
      <trkpt lat="51.950661" lon="6.286520">
        <ele>55.733305</ele>
        <time>2026-05-09T12:38:46.960Z</time>
      </trkpt>
      <trkpt lat="51.950553" lon="6.286558">
        <ele>55.613767</ele>
        <time>2026-05-09T12:38:48.971Z</time>
      </trkpt>
      <trkpt lat="51.950447" lon="6.286591">
        <ele>55.497016</ele>
        <time>2026-05-09T12:38:50.960Z</time>
      </trkpt>
      <trkpt lat="51.950339" lon="6.286634">
        <ele>55.376727</ele>
        <time>2026-05-09T12:38:52.962Z</time>
      </trkpt>
      <trkpt lat="51.950235" lon="6.286671">
        <ele>55.261559</ele>
        <time>2026-05-09T12:38:54.968Z</time>
      </trkpt>
      <trkpt lat="51.950129" lon="6.286704">
        <ele>55.144808</ele>
        <time>2026-05-09T12:38:56.967Z</time>
      </trkpt>
      <trkpt lat="51.950022" lon="6.286702">
        <ele>55.029059</ele>
        <time>2026-05-09T12:38:58.962Z</time>
      </trkpt>
      <trkpt lat="51.949911" lon="6.286670">
        <ele>54.907111</ele>
        <time>2026-05-09T12:39:00.964Z</time>
      </trkpt>
      <trkpt lat="51.949807" lon="6.286602">
        <ele>54.785823</ele>
        <time>2026-05-09T12:39:02.959Z</time>
      </trkpt>
      <trkpt lat="51.949715" lon="6.286503">
        <ele>54.666409</ele>
        <time>2026-05-09T12:39:04.966Z</time>
      </trkpt>
      <trkpt lat="51.949634" lon="6.286393">
        <ele>54.552150</ele>
        <time>2026-05-09T12:39:06.965Z</time>
      </trkpt>
      <trkpt lat="51.949563" lon="6.286269">
        <ele>54.571720</ele>
        <time>2026-05-09T12:39:08.959Z</time>
      </trkpt>
      <trkpt lat="51.949485" lon="6.286151">
        <ele>54.650562</ele>
        <time>2026-05-09T12:39:10.959Z</time>
      </trkpt>
      <trkpt lat="51.949392" lon="6.286058">
        <ele>54.731325</ele>
        <time>2026-05-09T12:39:12.959Z</time>
      </trkpt>
      <trkpt lat="51.949297" lon="6.285969">
        <ele>54.812424</ele>
        <time>2026-05-09T12:39:14.961Z</time>
      </trkpt>
      <trkpt lat="51.949189" lon="6.285910">
        <ele>54.896671</ele>
        <time>2026-05-09T12:39:16.968Z</time>
      </trkpt>
      <trkpt lat="51.949083" lon="6.285849">
        <ele>54.979817</ele>
        <time>2026-05-09T12:39:18.966Z</time>
      </trkpt>
      <trkpt lat="51.948982" lon="6.285789">
        <ele>55.059332</ele>
        <time>2026-05-09T12:39:20.966Z</time>
      </trkpt>
      <trkpt lat="51.948882" lon="6.285730">
        <ele>55.137997</ele>
        <time>2026-05-09T12:39:22.962Z</time>
      </trkpt>
      <trkpt lat="51.948783" lon="6.285675">
        <ele>55.215357</ele>
        <time>2026-05-09T12:39:24.970Z</time>
      </trkpt>
      <trkpt lat="51.948684" lon="6.285621">
        <ele>55.292571</ele>
        <time>2026-05-09T12:39:26.969Z</time>
      </trkpt>
      <trkpt lat="51.948583" lon="6.285569">
        <ele>55.370907</ele>
        <time>2026-05-09T12:39:28.967Z</time>
      </trkpt>
      <trkpt lat="51.948485" lon="6.285527">
        <ele>55.445842</ele>
        <time>2026-05-09T12:39:30.961Z</time>
      </trkpt>
      <trkpt lat="51.948386" lon="6.285480">
        <ele>55.522099</ele>
        <time>2026-05-09T12:39:32.962Z</time>
      </trkpt>
      <trkpt lat="51.948287" lon="6.285413">
        <ele>55.601400</ele>
        <time>2026-05-09T12:39:34.962Z</time>
      </trkpt>
      <trkpt lat="51.948191" lon="6.285327">
        <ele>55.682471</ele>
        <time>2026-05-09T12:39:36.961Z</time>
      </trkpt>
      <trkpt lat="51.948107" lon="6.285220">
        <ele>55.761424</ele>
        <time>2026-05-09T12:39:38.960Z</time>
      </trkpt>
      <trkpt lat="51.948035" lon="6.285098">
        <ele>55.838389</ele>
        <time>2026-05-09T12:39:40.962Z</time>
      </trkpt>
      <trkpt lat="51.947972" lon="6.284969">
        <ele>55.881848</ele>
        <time>2026-05-09T12:39:42.968Z</time>
      </trkpt>
      <trkpt lat="51.947919" lon="6.284834">
        <ele>55.919786</ele>
        <time>2026-05-09T12:39:44.961Z</time>
      </trkpt>
      <trkpt lat="51.947872" lon="6.284694">
        <ele>55.957572</ele>
        <time>2026-05-09T12:39:46.961Z</time>
      </trkpt>
      <trkpt lat="51.947828" lon="6.284551">
        <ele>55.995455</ele>
        <time>2026-05-09T12:39:48.960Z</time>
      </trkpt>
      <trkpt lat="51.947837" lon="6.284331">
        <ele>56.047716</ele>
        <time>2026-05-09T12:39:51.964Z</time>
      </trkpt>
      <trkpt lat="51.947808" lon="6.284189">
        <ele>56.083173</ele>
        <time>2026-05-09T12:39:53.959Z</time>
      </trkpt>
      <trkpt lat="51.947741" lon="6.284084">
        <ele>56.118994</ele>
        <time>2026-05-09T12:39:55.962Z</time>
      </trkpt>
      <trkpt lat="51.947654" lon="6.284035">
        <ele>56.154409</ele>
        <time>2026-05-09T12:39:57.973Z</time>
      </trkpt>
      <trkpt lat="51.947526" lon="6.284088">
        <ele>56.205208</ele>
        <time>2026-05-09T12:40:00.969Z</time>
      </trkpt>
      <trkpt lat="51.947459" lon="6.284197">
        <ele>56.241695</ele>
        <time>2026-05-09T12:40:02.967Z</time>
      </trkpt>
      <trkpt lat="51.947433" lon="6.284355">
        <ele>56.280457</ele>
        <time>2026-05-09T12:40:04.964Z</time>
      </trkpt>
      <trkpt lat="51.947367" lon="6.284477">
        <ele>56.318933</ele>
        <time>2026-05-09T12:40:06.959Z</time>
      </trkpt>
      <trkpt lat="51.947281" lon="6.284556">
        <ele>56.356937</ele>
        <time>2026-05-09T12:40:08.963Z</time>
      </trkpt>
      <trkpt lat="51.947190" lon="6.284625">
        <ele>56.395564</ele>
        <time>2026-05-09T12:40:10.959Z</time>
      </trkpt>
      <trkpt lat="51.947092" lon="6.284668">
        <ele>56.434603</ele>
        <time>2026-05-09T12:40:12.962Z</time>
      </trkpt>
      <trkpt lat="51.946992" lon="6.284700">
        <ele>56.473799</ele>
        <time>2026-05-09T12:40:14.957Z</time>
      </trkpt>
      <trkpt lat="51.946894" lon="6.284715">
        <ele>56.511652</ele>
        <time>2026-05-09T12:40:16.959Z</time>
      </trkpt>
      <trkpt lat="51.946799" lon="6.284698">
        <ele>56.568067</ele>
        <time>2026-05-09T12:40:18.963Z</time>
      </trkpt>
      <trkpt lat="51.946699" lon="6.284643">
        <ele>56.696547</ele>
        <time>2026-05-09T12:40:20.962Z</time>
      </trkpt>
      <trkpt lat="51.946599" lon="6.284604">
        <ele>56.821691</ele>
        <time>2026-05-09T12:40:22.964Z</time>
      </trkpt>
      <trkpt lat="51.946500" lon="6.284561">
        <ele>56.946394</ele>
        <time>2026-05-09T12:40:24.961Z</time>
      </trkpt>
      <trkpt lat="51.946397" lon="6.284548">
        <ele>57.072101</ele>
        <time>2026-05-09T12:40:26.962Z</time>
      </trkpt>
      <trkpt lat="51.946305" lon="6.284485">
        <ele>57.193608</ele>
        <time>2026-05-09T12:40:28.961Z</time>
      </trkpt>
      <trkpt lat="51.946220" lon="6.284396">
        <ele>57.316704</ele>
        <time>2026-05-09T12:40:30.957Z</time>
      </trkpt>
      <trkpt lat="51.946140" lon="6.284299">
        <ele>57.438229</ele>
        <time>2026-05-09T12:40:32.967Z</time>
      </trkpt>
      <trkpt lat="51.946069" lon="6.284191">
        <ele>57.556656</ele>
        <time>2026-05-09T12:40:34.959Z</time>
      </trkpt>
      <trkpt lat="51.946005" lon="6.284082">
        <ele>57.669562</ele>
        <time>2026-05-09T12:40:36.961Z</time>
      </trkpt>
      <trkpt lat="51.945943" lon="6.283969">
        <ele>57.783027</ele>
        <time>2026-05-09T12:40:38.955Z</time>
      </trkpt>
      <trkpt lat="51.945883" lon="6.283852">
        <ele>57.897178</ele>
        <time>2026-05-09T12:40:40.963Z</time>
      </trkpt>
      <trkpt lat="51.945823" lon="6.283734">
        <ele>58.011907</ele>
        <time>2026-05-09T12:40:42.963Z</time>
      </trkpt>
      <trkpt lat="51.945763" lon="6.283610">
        <ele>58.130143</ele>
        <time>2026-05-09T12:40:44.958Z</time>
      </trkpt>
      <trkpt lat="51.945702" lon="6.283490">
        <ele>58.246803</ele>
        <time>2026-05-09T12:40:46.957Z</time>
      </trkpt>
      <trkpt lat="51.945641" lon="6.283375">
        <ele>58.360596</ele>
        <time>2026-05-09T12:40:48.957Z</time>
      </trkpt>
      <trkpt lat="51.945582" lon="6.283252">
        <ele>58.477491</ele>
        <time>2026-05-09T12:40:50.959Z</time>
      </trkpt>
      <trkpt lat="51.945530" lon="6.283122">
        <ele>58.593726</ele>
        <time>2026-05-09T12:40:52.961Z</time>
      </trkpt>
      <trkpt lat="51.945480" lon="6.282999">
        <ele>58.704235</ele>
        <time>2026-05-09T12:40:54.963Z</time>
      </trkpt>
      <trkpt lat="51.945422" lon="6.282884">
        <ele>58.925361</ele>
        <time>2026-05-09T12:40:56.961Z</time>
      </trkpt>
      <trkpt lat="51.945363" lon="6.282772">
        <ele>59.173874</ele>
        <time>2026-05-09T12:40:58.964Z</time>
      </trkpt>
      <trkpt lat="51.945272" lon="6.282617">
        <ele>59.534941</ele>
        <time>2026-05-09T12:41:01.965Z</time>
      </trkpt>
      <trkpt lat="51.945179" lon="6.282471">
        <ele>59.889085</ele>
        <time>2026-05-09T12:41:04.966Z</time>
      </trkpt>
      <trkpt lat="51.945089" lon="6.282323">
        <ele>60.239770</ele>
        <time>2026-05-09T12:41:07.962Z</time>
      </trkpt>
      <trkpt lat="51.944999" lon="6.282172">
        <ele>60.594076</ele>
        <time>2026-05-09T12:41:10.955Z</time>
      </trkpt>
      <trkpt lat="51.944908" lon="6.282027">
        <ele>60.943124</ele>
        <time>2026-05-09T12:41:13.962Z</time>
      </trkpt>
      <trkpt lat="51.944814" lon="6.281882">
        <ele>61.298077</ele>
        <time>2026-05-09T12:41:16.969Z</time>
      </trkpt>
      <trkpt lat="51.944712" lon="6.281747">
        <ele>61.658307</ele>
        <time>2026-05-09T12:41:19.963Z</time>
      </trkpt>
      <trkpt lat="51.944605" lon="6.281621">
        <ele>62.020119</ele>
        <time>2026-05-09T12:41:22.962Z</time>
      </trkpt>
      <trkpt lat="51.944498" lon="6.281495">
        <ele>62.381931</ele>
        <time>2026-05-09T12:41:25.961Z</time>
      </trkpt>
      <trkpt lat="51.944384" lon="6.281378">
        <ele>62.751079</ele>
        <time>2026-05-09T12:41:28.960Z</time>
      </trkpt>
      <trkpt lat="51.944270" lon="6.281268">
        <ele>63.114050</ele>
        <time>2026-05-09T12:41:31.962Z</time>
      </trkpt>
      <trkpt lat="51.944153" lon="6.281161">
        <ele>63.481591</ele>
        <time>2026-05-09T12:41:34.961Z</time>
      </trkpt>
      <trkpt lat="51.944072" lon="6.281093">
        <ele>63.587618</ele>
        <time>2026-05-09T12:41:36.968Z</time>
      </trkpt>
      <trkpt lat="51.943988" lon="6.281033">
        <ele>63.395529</ele>
        <time>2026-05-09T12:41:38.967Z</time>
      </trkpt>
      <trkpt lat="51.943870" lon="6.280935">
        <ele>63.118088</ele>
        <time>2026-05-09T12:41:41.966Z</time>
      </trkpt>
      <trkpt lat="51.943785" lon="6.280886">
        <ele>62.929295</ele>
        <time>2026-05-09T12:41:43.961Z</time>
      </trkpt>
      <trkpt lat="51.943697" lon="6.280828">
        <ele>62.730501</ele>
        <time>2026-05-09T12:41:45.960Z</time>
      </trkpt>
      <trkpt lat="51.943601" lon="6.280776">
        <ele>62.518681</ele>
        <time>2026-05-09T12:41:47.961Z</time>
      </trkpt>
      <trkpt lat="51.943505" lon="6.280721">
        <ele>62.305603</ele>
        <time>2026-05-09T12:41:49.965Z</time>
      </trkpt>
      <trkpt lat="51.943410" lon="6.280671">
        <ele>62.096577</ele>
        <time>2026-05-09T12:41:51.959Z</time>
      </trkpt>
      <trkpt lat="51.943315" lon="6.280628">
        <ele>61.890159</ele>
        <time>2026-05-09T12:41:53.966Z</time>
      </trkpt>
      <trkpt lat="51.943214" lon="6.280593">
        <ele>61.674009</ele>
        <time>2026-05-09T12:41:55.961Z</time>
      </trkpt>
      <trkpt lat="51.943105" lon="6.280555">
        <ele>61.440677</ele>
        <time>2026-05-09T12:41:57.964Z</time>
      </trkpt>
      <trkpt lat="51.942993" lon="6.280521">
        <ele>61.202206</ele>
        <time>2026-05-09T12:41:59.961Z</time>
      </trkpt>
      <trkpt lat="51.942880" lon="6.280488">
        <ele>60.961909</ele>
        <time>2026-05-09T12:42:01.958Z</time>
      </trkpt>
      <trkpt lat="51.942762" lon="6.280460">
        <ele>60.712321</ele>
        <time>2026-05-09T12:42:03.963Z</time>
      </trkpt>
      <trkpt lat="51.942641" lon="6.280437">
        <ele>60.457351</ele>
        <time>2026-05-09T12:42:05.959Z</time>
      </trkpt>
      <trkpt lat="51.942521" lon="6.280418">
        <ele>60.205012</ele>
        <time>2026-05-09T12:42:07.963Z</time>
      </trkpt>
      <trkpt lat="51.942397" lon="6.280387">
        <ele>59.942431</ele>
        <time>2026-05-09T12:42:09.961Z</time>
      </trkpt>
      <trkpt lat="51.942275" lon="6.280372">
        <ele>59.675072</ele>
        <time>2026-05-09T12:42:11.964Z</time>
      </trkpt>
      <trkpt lat="51.942151" lon="6.280358">
        <ele>59.400169</ele>
        <time>2026-05-09T12:42:13.960Z</time>
      </trkpt>
      <trkpt lat="51.942024" lon="6.280345">
        <ele>59.118736</ele>
        <time>2026-05-09T12:42:15.962Z</time>
      </trkpt>
      <trkpt lat="51.941896" lon="6.280333">
        <ele>58.835177</ele>
        <time>2026-05-09T12:42:17.960Z</time>
      </trkpt>
      <trkpt lat="51.941765" lon="6.280317">
        <ele>58.544636</ele>
        <time>2026-05-09T12:42:19.962Z</time>
      </trkpt>
      <trkpt lat="51.941629" lon="6.280306">
        <ele>58.243484</ele>
        <time>2026-05-09T12:42:21.962Z</time>
      </trkpt>
      <trkpt lat="51.941496" lon="6.280289">
        <ele>57.948428</ele>
        <time>2026-05-09T12:42:23.962Z</time>
      </trkpt>
      <trkpt lat="51.941363" lon="6.280273">
        <ele>57.653476</ele>
        <time>2026-05-09T12:42:25.962Z</time>
      </trkpt>
      <trkpt lat="51.941233" lon="6.280258">
        <ele>57.365241</ele>
        <time>2026-05-09T12:42:27.962Z</time>
      </trkpt>
      <trkpt lat="51.941100" lon="6.280244">
        <ele>57.070478</ele>
        <time>2026-05-09T12:42:29.963Z</time>
      </trkpt>
      <trkpt lat="51.940966" lon="6.280229">
        <ele>56.773418</ele>
        <time>2026-05-09T12:42:31.961Z</time>
      </trkpt>
      <trkpt lat="51.940831" lon="6.280217">
        <ele>56.474402</ele>
        <time>2026-05-09T12:42:33.963Z</time>
      </trkpt>
      <trkpt lat="51.940699" lon="6.280199">
        <ele>56.181440</ele>
        <time>2026-05-09T12:42:35.958Z</time>
      </trkpt>
      <trkpt lat="51.940573" lon="6.280187">
        <ele>55.908350</ele>
        <time>2026-05-09T12:42:37.967Z</time>
      </trkpt>
      <trkpt lat="51.940452" lon="6.280173">
        <ele>55.946788</ele>
        <time>2026-05-09T12:42:39.966Z</time>
      </trkpt>
      <trkpt lat="51.940330" lon="6.280160">
        <ele>55.985529</ele>
        <time>2026-05-09T12:42:41.963Z</time>
      </trkpt>
      <trkpt lat="51.940210" lon="6.280148">
        <ele>56.023626</ele>
        <time>2026-05-09T12:42:43.963Z</time>
      </trkpt>
      <trkpt lat="51.940093" lon="6.280133">
        <ele>56.060815</ele>
        <time>2026-05-09T12:42:45.967Z</time>
      </trkpt>
      <trkpt lat="51.939979" lon="6.280110">
        <ele>56.097216</ele>
        <time>2026-05-09T12:42:47.965Z</time>
      </trkpt>
      <trkpt lat="51.939867" lon="6.280094">
        <ele>56.132842</ele>
        <time>2026-05-09T12:42:49.963Z</time>
      </trkpt>
      <trkpt lat="51.939761" lon="6.280081">
        <ele>56.166526</ele>
        <time>2026-05-09T12:42:51.957Z</time>
      </trkpt>
      <trkpt lat="51.939655" lon="6.280062">
        <ele>56.200318</ele>
        <time>2026-05-09T12:42:53.958Z</time>
      </trkpt>
      <trkpt lat="51.939546" lon="6.280044">
        <ele>56.235035</ele>
        <time>2026-05-09T12:42:55.963Z</time>
      </trkpt>
      <trkpt lat="51.939441" lon="6.280015">
        <ele>56.268785</ele>
        <time>2026-05-09T12:42:57.964Z</time>
      </trkpt>
      <trkpt lat="51.939338" lon="6.279969">
        <ele>56.302637</ele>
        <time>2026-05-09T12:42:59.963Z</time>
      </trkpt>
      <trkpt lat="51.939233" lon="6.279914">
        <ele>56.337600</ele>
        <time>2026-05-09T12:43:01.962Z</time>
      </trkpt>
      <trkpt lat="51.939129" lon="6.279840">
        <ele>56.373585</ele>
        <time>2026-05-09T12:43:03.965Z</time>
      </trkpt>
      <trkpt lat="51.939026" lon="6.279755">
        <ele>56.410203</ele>
        <time>2026-05-09T12:43:05.964Z</time>
      </trkpt>
      <trkpt lat="51.938928" lon="6.279666">
        <ele>56.445792</ele>
        <time>2026-05-09T12:43:07.970Z</time>
      </trkpt>
      <trkpt lat="51.938827" lon="6.279589">
        <ele>56.477251</ele>
        <time>2026-05-09T12:43:09.966Z</time>
      </trkpt>
      <trkpt lat="51.938724" lon="6.279523">
        <ele>56.474637</ele>
        <time>2026-05-09T12:43:11.961Z</time>
      </trkpt>
      <trkpt lat="51.938616" lon="6.279458">
        <ele>56.471917</ele>
        <time>2026-05-09T12:43:13.965Z</time>
      </trkpt>
      <trkpt lat="51.938503" lon="6.279400">
        <ele>56.469119</ele>
        <time>2026-05-09T12:43:15.962Z</time>
      </trkpt>
      <trkpt lat="51.938394" lon="6.279341">
        <ele>56.466407</ele>
        <time>2026-05-09T12:43:17.968Z</time>
      </trkpt>
      <trkpt lat="51.938285" lon="6.279277">
        <ele>56.463670</ele>
        <time>2026-05-09T12:43:19.957Z</time>
      </trkpt>
      <trkpt lat="51.938175" lon="6.279216">
        <ele>56.460926</ele>
        <time>2026-05-09T12:43:21.964Z</time>
      </trkpt>
      <trkpt lat="51.938071" lon="6.279154">
        <ele>56.458310</ele>
        <time>2026-05-09T12:43:23.958Z</time>
      </trkpt>
      <trkpt lat="51.937973" lon="6.279099">
        <ele>56.455862</ele>
        <time>2026-05-09T12:43:25.963Z</time>
      </trkpt>
      <trkpt lat="51.937872" lon="6.279044">
        <ele>56.453347</ele>
        <time>2026-05-09T12:43:27.969Z</time>
      </trkpt>
      <trkpt lat="51.937768" lon="6.278988">
        <ele>56.450760</ele>
        <time>2026-05-09T12:43:29.959Z</time>
      </trkpt>
      <trkpt lat="51.937666" lon="6.278935">
        <ele>56.448231</ele>
        <time>2026-05-09T12:43:31.966Z</time>
      </trkpt>
      <trkpt lat="51.937566" lon="6.278879">
        <ele>56.445734</ele>
        <time>2026-05-09T12:43:33.966Z</time>
      </trkpt>
      <trkpt lat="51.937463" lon="6.278827">
        <ele>56.443187</ele>
        <time>2026-05-09T12:43:35.964Z</time>
      </trkpt>
      <trkpt lat="51.937360" lon="6.278765">
        <ele>56.440593</ele>
        <time>2026-05-09T12:43:37.966Z</time>
      </trkpt>
      <trkpt lat="51.937257" lon="6.278704">
        <ele>56.438005</ele>
        <time>2026-05-09T12:43:39.967Z</time>
      </trkpt>
      <trkpt lat="51.937149" lon="6.278635">
        <ele>56.435265</ele>
        <time>2026-05-09T12:43:41.961Z</time>
      </trkpt>
      <trkpt lat="51.937039" lon="6.278566">
        <ele>56.442257</ele>
        <time>2026-05-09T12:43:43.965Z</time>
      </trkpt>
      <trkpt lat="51.936932" lon="6.278487">
        <ele>56.449998</ele>
        <time>2026-05-09T12:43:45.966Z</time>
      </trkpt>
      <trkpt lat="51.936830" lon="6.278417">
        <ele>56.457290</ele>
        <time>2026-05-09T12:43:47.962Z</time>
      </trkpt>
      <trkpt lat="51.936734" lon="6.278347">
        <ele>56.464221</ele>
        <time>2026-05-09T12:43:49.964Z</time>
      </trkpt>
      <trkpt lat="51.936632" lon="6.278275">
        <ele>56.471545</ele>
        <time>2026-05-09T12:43:51.964Z</time>
      </trkpt>
      <trkpt lat="51.936526" lon="6.278204">
        <ele>56.479096</ele>
        <time>2026-05-09T12:43:53.962Z</time>
      </trkpt>
      <trkpt lat="51.936420" lon="6.278130">
        <ele>56.486695</ele>
        <time>2026-05-09T12:43:55.961Z</time>
      </trkpt>
      <trkpt lat="51.936319" lon="6.278061">
        <ele>56.493911</ele>
        <time>2026-05-09T12:43:57.967Z</time>
      </trkpt>
      <trkpt lat="51.936213" lon="6.277991">
        <ele>56.501447</ele>
        <time>2026-05-09T12:43:59.960Z</time>
      </trkpt>
      <trkpt lat="51.936106" lon="6.277917">
        <ele>56.509106</ele>
        <time>2026-05-09T12:44:01.961Z</time>
      </trkpt>
      <trkpt lat="51.936000" lon="6.277842">
        <ele>56.516721</ele>
        <time>2026-05-09T12:44:03.962Z</time>
      </trkpt>
      <trkpt lat="51.935896" lon="6.277773">
        <ele>56.524119</ele>
        <time>2026-05-09T12:44:05.969Z</time>
      </trkpt>
      <trkpt lat="51.935793" lon="6.277698">
        <ele>56.531554</ele>
        <time>2026-05-09T12:44:07.964Z</time>
      </trkpt>
      <trkpt lat="51.935689" lon="6.277615">
        <ele>56.539185</ele>
        <time>2026-05-09T12:44:09.960Z</time>
      </trkpt>
      <trkpt lat="51.935585" lon="6.277529">
        <ele>56.546872</ele>
        <time>2026-05-09T12:44:11.960Z</time>
      </trkpt>
      <trkpt lat="51.935481" lon="6.277443">
        <ele>56.549459</ele>
        <time>2026-05-09T12:44:13.960Z</time>
      </trkpt>
      <trkpt lat="51.935381" lon="6.277346">
        <ele>56.520466</ele>
        <time>2026-05-09T12:44:15.963Z</time>
      </trkpt>
      <trkpt lat="51.935286" lon="6.277248">
        <ele>56.492450</ele>
        <time>2026-05-09T12:44:17.957Z</time>
      </trkpt>
      <trkpt lat="51.935196" lon="6.277145">
        <ele>56.465042</ele>
        <time>2026-05-09T12:44:19.958Z</time>
      </trkpt>
      <trkpt lat="51.935103" lon="6.277036">
        <ele>56.436491</ele>
        <time>2026-05-09T12:44:21.959Z</time>
      </trkpt>
      <trkpt lat="51.935013" lon="6.276924">
        <ele>56.408264</ele>
        <time>2026-05-09T12:44:23.965Z</time>
      </trkpt>
      <trkpt lat="51.934918" lon="6.276819">
        <ele>56.379658</ele>
        <time>2026-05-09T12:44:25.956Z</time>
      </trkpt>
      <trkpt lat="51.934828" lon="6.276715">
        <ele>56.352160</ele>
        <time>2026-05-09T12:44:27.962Z</time>
      </trkpt>
      <trkpt lat="51.934737" lon="6.276617">
        <ele>56.324980</ele>
        <time>2026-05-09T12:44:29.964Z</time>
      </trkpt>
      <trkpt lat="51.934642" lon="6.276517">
        <ele>56.296799</ele>
        <time>2026-05-09T12:44:31.956Z</time>
      </trkpt>
      <trkpt lat="51.934546" lon="6.276415">
        <ele>56.268242</ele>
        <time>2026-05-09T12:44:33.962Z</time>
      </trkpt>
      <trkpt lat="51.934451" lon="6.276316">
        <ele>56.240144</ele>
        <time>2026-05-09T12:44:35.965Z</time>
      </trkpt>
      <trkpt lat="51.934354" lon="6.276217">
        <ele>56.211626</ele>
        <time>2026-05-09T12:44:37.959Z</time>
      </trkpt>
      <trkpt lat="51.934258" lon="6.276117">
        <ele>56.183235</ele>
        <time>2026-05-09T12:44:39.965Z</time>
      </trkpt>
      <trkpt lat="51.934164" lon="6.276021">
        <ele>56.155595</ele>
        <time>2026-05-09T12:44:41.966Z</time>
      </trkpt>
      <trkpt lat="51.934070" lon="6.275923">
        <ele>56.127789</ele>
        <time>2026-05-09T12:44:43.962Z</time>
      </trkpt>
      <trkpt lat="51.933972" lon="6.275823">
        <ele>56.111973</ele>
        <time>2026-05-09T12:44:45.964Z</time>
      </trkpt>
      <trkpt lat="51.933878" lon="6.275714">
        <ele>56.136947</ele>
        <time>2026-05-09T12:44:47.965Z</time>
      </trkpt>
      <trkpt lat="51.933791" lon="6.275607">
        <ele>56.160544</ele>
        <time>2026-05-09T12:44:49.964Z</time>
      </trkpt>
      <trkpt lat="51.933713" lon="6.275477">
        <ele>56.184715</ele>
        <time>2026-05-09T12:44:51.962Z</time>
      </trkpt>
      <trkpt lat="51.933649" lon="6.275325">
        <ele>56.209242</ele>
        <time>2026-05-09T12:44:53.958Z</time>
      </trkpt>
      <trkpt lat="51.933593" lon="6.275164">
        <ele>56.233875</ele>
        <time>2026-05-09T12:44:55.963Z</time>
      </trkpt>
      <trkpt lat="51.933552" lon="6.274993">
        <ele>56.258323</ele>
        <time>2026-05-09T12:44:57.963Z</time>
      </trkpt>
      <trkpt lat="51.933524" lon="6.274824">
        <ele>56.281642</ele>
        <time>2026-05-09T12:44:59.963Z</time>
      </trkpt>
      <trkpt lat="51.933509" lon="6.274644">
        <ele>56.305846</ele>
        <time>2026-05-09T12:45:01.962Z</time>
      </trkpt>
      <trkpt lat="51.933507" lon="6.274464">
        <ele>56.329836</ele>
        <time>2026-05-09T12:45:03.963Z</time>
      </trkpt>
      <trkpt lat="51.933512" lon="6.274285">
        <ele>56.353713</ele>
        <time>2026-05-09T12:45:05.969Z</time>
      </trkpt>
      <trkpt lat="51.933502" lon="6.274119">
        <ele>56.375938</ele>
        <time>2026-05-09T12:45:07.960Z</time>
      </trkpt>
      <trkpt lat="51.933486" lon="6.273964">
        <ele>56.396880</ele>
        <time>2026-05-09T12:45:09.959Z</time>
      </trkpt>
      <trkpt lat="51.933489" lon="6.273814">
        <ele>56.416879</ele>
        <time>2026-05-09T12:45:11.970Z</time>
      </trkpt>
      <trkpt lat="51.933501" lon="6.273662">
        <ele>56.437299</ele>
        <time>2026-05-09T12:45:13.959Z</time>
      </trkpt>
      <trkpt lat="51.933518" lon="6.273447">
        <ele>56.466183</ele>
        <time>2026-05-09T12:45:16.958Z</time>
      </trkpt>
      <trkpt lat="51.933562" lon="6.273291">
        <ele>56.489043</ele>
        <time>2026-05-09T12:45:19.967Z</time>
      </trkpt>
      <trkpt lat="51.933569" lon="6.273126">
        <ele>56.582620</ele>
        <time>2026-05-09T12:45:27.962Z</time>
      </trkpt>
      <trkpt lat="51.933561" lon="6.272935">
        <ele>56.719237</ele>
        <time>2026-05-09T12:45:31.961Z</time>
      </trkpt>
      <trkpt lat="51.933499" lon="6.272826">
        <ele>56.825067</ele>
        <time>2026-05-09T12:45:34.975Z</time>
      </trkpt>
      <trkpt lat="51.933559" lon="6.272683">
        <ele>56.948503</ele>
        <time>2026-05-09T12:45:38.964Z</time>
      </trkpt>
      <trkpt lat="51.933641" lon="6.272552">
        <ele>57.081720</ele>
        <time>2026-05-09T12:45:41.961Z</time>
      </trkpt>
      <trkpt lat="51.933654" lon="6.272345">
        <ele>57.230205</ele>
        <time>2026-05-09T12:45:44.963Z</time>
      </trkpt>
      <trkpt lat="51.933667" lon="6.272199">
        <ele>57.335475</ele>
        <time>2026-05-09T12:45:46.963Z</time>
      </trkpt>
      <trkpt lat="51.933688" lon="6.271993">
        <ele>57.484477</ele>
        <time>2026-05-09T12:45:49.963Z</time>
      </trkpt>
      <trkpt lat="51.933705" lon="6.271811">
        <ele>57.615839</ele>
        <time>2026-05-09T12:45:52.969Z</time>
      </trkpt>
      <trkpt lat="51.933716" lon="6.271644">
        <ele>57.735692</ele>
        <time>2026-05-09T12:45:55.969Z</time>
      </trkpt>
      <trkpt lat="51.933803" lon="6.271569">
        <ele>57.849727</ele>
        <time>2026-05-09T12:45:59.966Z</time>
      </trkpt>
      <trkpt lat="51.933895" lon="6.271571">
        <ele>57.956218</ele>
        <time>2026-05-09T12:46:02.966Z</time>
      </trkpt>
      <trkpt lat="51.933978" lon="6.271644">
        <ele>58.065498</ele>
        <time>2026-05-09T12:46:05.961Z</time>
      </trkpt>
      <trkpt lat="51.934034" lon="6.271807">
        <ele>58.198657</ele>
        <time>2026-05-09T12:46:08.961Z</time>
      </trkpt>
      <trkpt lat="51.934102" lon="6.271964">
        <ele>58.335576</ele>
        <time>2026-05-09T12:46:11.967Z</time>
      </trkpt>
      <trkpt lat="51.934188" lon="6.272097">
        <ele>58.473111</ele>
        <time>2026-05-09T12:46:14.966Z</time>
      </trkpt>
      <trkpt lat="51.934298" lon="6.272216">
        <ele>58.563898</ele>
        <time>2026-05-09T12:46:17.961Z</time>
      </trkpt>
      <trkpt lat="51.934394" lon="6.272334">
        <ele>58.528809</ele>
        <time>2026-05-09T12:46:20.972Z</time>
      </trkpt>
      <trkpt lat="51.934496" lon="6.272420">
        <ele>58.495321</ele>
        <time>2026-05-09T12:46:24.966Z</time>
      </trkpt>
      <trkpt lat="51.934597" lon="6.272471">
        <ele>58.464506</ele>
        <time>2026-05-09T12:46:28.964Z</time>
      </trkpt>
      <trkpt lat="51.934691" lon="6.272490">
        <ele>58.436911</ele>
        <time>2026-05-09T12:46:31.964Z</time>
      </trkpt>
      <trkpt lat="51.934786" lon="6.272489">
        <ele>58.409237</ele>
        <time>2026-05-09T12:46:34.963Z</time>
      </trkpt>
      <trkpt lat="51.934971" lon="6.272410">
        <ele>58.353508</ele>
        <time>2026-05-09T12:51:39.963Z</time>
      </trkpt>
      <trkpt lat="51.935094" lon="6.272390">
        <ele>58.317498</ele>
        <time>2026-05-09T12:51:42.969Z</time>
      </trkpt>
      <trkpt lat="51.935193" lon="6.272395">
        <ele>58.288645</ele>
        <time>2026-05-09T12:51:44.962Z</time>
      </trkpt>
      <trkpt lat="51.935293" lon="6.272406">
        <ele>58.259447</ele>
        <time>2026-05-09T12:51:46.961Z</time>
      </trkpt>
      <trkpt lat="51.935389" lon="6.272421">
        <ele>58.231352</ele>
        <time>2026-05-09T12:51:48.965Z</time>
      </trkpt>
      <trkpt lat="51.935483" lon="6.272436">
        <ele>58.203837</ele>
        <time>2026-05-09T12:51:50.964Z</time>
      </trkpt>
      <trkpt lat="51.935612" lon="6.272463">
        <ele>58.165947</ele>
        <time>2026-05-09T12:51:53.967Z</time>
      </trkpt>
      <trkpt lat="51.935744" lon="6.272478">
        <ele>58.127400</ele>
        <time>2026-05-09T12:51:56.976Z</time>
      </trkpt>
      <trkpt lat="51.935838" lon="6.272495">
        <ele>58.099848</ele>
        <time>2026-05-09T12:51:58.962Z</time>
      </trkpt>
      <trkpt lat="51.935928" lon="6.272515">
        <ele>58.073385</ele>
        <time>2026-05-09T12:52:00.960Z</time>
      </trkpt>
      <trkpt lat="51.936054" lon="6.272547">
        <ele>58.014131</ele>
        <time>2026-05-09T12:52:03.967Z</time>
      </trkpt>
      <trkpt lat="51.936182" lon="6.272570">
        <ele>57.925514</ele>
        <time>2026-05-09T12:52:06.957Z</time>
      </trkpt>
      <trkpt lat="51.936312" lon="6.272577">
        <ele>57.836009</ele>
        <time>2026-05-09T12:52:09.967Z</time>
      </trkpt>
      <trkpt lat="51.936442" lon="6.272586">
        <ele>57.746473</ele>
        <time>2026-05-09T12:52:12.960Z</time>
      </trkpt>
      <trkpt lat="51.936571" lon="6.272608">
        <ele>57.657216</ele>
        <time>2026-05-09T12:52:15.958Z</time>
      </trkpt>
      <trkpt lat="51.936691" lon="6.272630">
        <ele>57.574116</ele>
        <time>2026-05-09T12:52:18.960Z</time>
      </trkpt>
      <trkpt lat="51.936822" lon="6.272635">
        <ele>57.483948</ele>
        <time>2026-05-09T12:52:21.964Z</time>
      </trkpt>
      <trkpt lat="51.936916" lon="6.272633">
        <ele>57.419260</ele>
        <time>2026-05-09T12:52:23.964Z</time>
      </trkpt>
      <trkpt lat="51.937051" lon="6.272635">
        <ele>57.326360</ele>
        <time>2026-05-09T12:52:26.959Z</time>
      </trkpt>
      <trkpt lat="51.937184" lon="6.272602">
        <ele>57.233776</ele>
        <time>2026-05-09T12:52:29.963Z</time>
      </trkpt>
      <trkpt lat="51.937310" lon="6.272548">
        <ele>57.144098</ele>
        <time>2026-05-09T12:52:32.963Z</time>
      </trkpt>
      <trkpt lat="51.937430" lon="6.272461">
        <ele>57.053650</ele>
        <time>2026-05-09T12:52:35.963Z</time>
      </trkpt>
      <trkpt lat="51.937543" lon="6.272377">
        <ele>56.968116</ele>
        <time>2026-05-09T12:52:38.962Z</time>
      </trkpt>
      <trkpt lat="51.937651" lon="6.272309">
        <ele>56.888397</ele>
        <time>2026-05-09T12:52:41.961Z</time>
      </trkpt>
      <trkpt lat="51.937712" lon="6.272181">
        <ele>56.819763</ele>
        <time>2026-05-09T12:52:44.962Z</time>
      </trkpt>
      <trkpt lat="51.937713" lon="6.272030">
        <ele>56.790594</ele>
        <time>2026-05-09T12:52:47.962Z</time>
      </trkpt>
      <trkpt lat="51.937706" lon="6.271861">
        <ele>56.761175</ele>
        <time>2026-05-09T12:52:50.965Z</time>
      </trkpt>
      <trkpt lat="51.937712" lon="6.271682">
        <ele>56.730039</ele>
        <time>2026-05-09T12:52:53.957Z</time>
      </trkpt>
      <trkpt lat="51.937742" lon="6.271498">
        <ele>56.696983</ele>
        <time>2026-05-09T12:52:56.962Z</time>
      </trkpt>
      <trkpt lat="51.937771" lon="6.271318">
        <ele>56.664670</ele>
        <time>2026-05-09T12:52:59.965Z</time>
      </trkpt>
      <trkpt lat="51.937797" lon="6.271133">
        <ele>56.631714</ele>
        <time>2026-05-09T12:53:02.965Z</time>
      </trkpt>
      <trkpt lat="51.937816" lon="6.270940">
        <ele>56.597768</ele>
        <time>2026-05-09T12:53:05.967Z</time>
      </trkpt>
      <trkpt lat="51.937779" lon="6.270748">
        <ele>56.562830</ele>
        <time>2026-05-09T12:53:08.963Z</time>
      </trkpt>
      <trkpt lat="51.937710" lon="6.270588">
        <ele>56.528916</ele>
        <time>2026-05-09T12:53:11.967Z</time>
      </trkpt>
      <trkpt lat="51.937636" lon="6.270438">
        <ele>56.495549</ele>
        <time>2026-05-09T12:53:14.966Z</time>
      </trkpt>
      <trkpt lat="51.937562" lon="6.270273">
        <ele>56.460111</ele>
        <time>2026-05-09T12:53:17.963Z</time>
      </trkpt>
      <trkpt lat="51.937486" lon="6.270125">
        <ele>56.426657</ele>
        <time>2026-05-09T12:53:20.962Z</time>
      </trkpt>
      <trkpt lat="51.937411" lon="6.269993">
        <ele>56.395479</ele>
        <time>2026-05-09T12:53:23.965Z</time>
      </trkpt>
      <trkpt lat="51.937347" lon="6.269875">
        <ele>56.368182</ele>
        <time>2026-05-09T12:53:26.972Z</time>
      </trkpt>
      <trkpt lat="51.937326" lon="6.269730">
        <ele>56.342312</ele>
        <time>2026-05-09T12:53:29.964Z</time>
      </trkpt>
      <trkpt lat="51.937338" lon="6.269558">
        <ele>56.312247</ele>
        <time>2026-05-09T12:53:32.966Z</time>
      </trkpt>
      <trkpt lat="51.937361" lon="6.269393">
        <ele>56.297124</ele>
        <time>2026-05-09T12:53:35.964Z</time>
      </trkpt>
      <trkpt lat="51.937368" lon="6.269228">
        <ele>56.284647</ele>
        <time>2026-05-09T12:53:38.965Z</time>
      </trkpt>
      <trkpt lat="51.937416" lon="6.269075">
        <ele>56.271696</ele>
        <time>2026-05-09T12:53:41.964Z</time>
      </trkpt>
      <trkpt lat="51.937525" lon="6.269004">
        <ele>56.257324</ele>
        <time>2026-05-09T12:53:44.956Z</time>
      </trkpt>
      <trkpt lat="51.937618" lon="6.268934">
        <ele>56.244779</ele>
        <time>2026-05-09T12:53:47.961Z</time>
      </trkpt>
      <trkpt lat="51.937704" lon="6.268861">
        <ele>56.232902</ele>
        <time>2026-05-09T12:53:50.960Z</time>
      </trkpt>
      <trkpt lat="51.937798" lon="6.268778">
        <ele>56.219806</ele>
        <time>2026-05-09T12:53:53.960Z</time>
      </trkpt>
      <trkpt lat="51.937888" lon="6.268696">
        <ele>56.207175</ele>
        <time>2026-05-09T12:53:56.964Z</time>
      </trkpt>
      <trkpt lat="51.937984" lon="6.268590">
        <ele>56.192965</ele>
        <time>2026-05-09T12:53:59.959Z</time>
      </trkpt>
      <trkpt lat="51.938087" lon="6.268466">
        <ele>56.177270</ele>
        <time>2026-05-09T12:54:02.960Z</time>
      </trkpt>
      <trkpt lat="51.938180" lon="6.268305">
        <ele>56.160626</ele>
        <time>2026-05-09T12:54:05.965Z</time>
      </trkpt>
      <trkpt lat="51.938239" lon="6.268190">
        <ele>56.149340</ele>
        <time>2026-05-09T12:54:07.959Z</time>
      </trkpt>
      <trkpt lat="51.938324" lon="6.268025">
        <ele>56.133120</ele>
        <time>2026-05-09T12:54:10.964Z</time>
      </trkpt>
      <trkpt lat="51.938396" lon="6.267858">
        <ele>56.117747</ele>
        <time>2026-05-09T12:54:13.958Z</time>
      </trkpt>
      <trkpt lat="51.938458" lon="6.267675">
        <ele>56.101995</ele>
        <time>2026-05-09T12:54:16.964Z</time>
      </trkpt>
      <trkpt lat="51.938505" lon="6.267471">
        <ele>56.095536</ele>
        <time>2026-05-09T12:54:19.964Z</time>
      </trkpt>
      <trkpt lat="51.938519" lon="6.267260">
        <ele>56.145443</ele>
        <time>2026-05-09T12:54:22.971Z</time>
      </trkpt>
      <trkpt lat="51.938489" lon="6.267056">
        <ele>56.194764</ele>
        <time>2026-05-09T12:54:25.960Z</time>
      </trkpt>
      <trkpt lat="51.938454" lon="6.266919">
        <ele>56.229638</ele>
        <time>2026-05-09T12:54:27.961Z</time>
      </trkpt>
      <trkpt lat="51.938420" lon="6.266780">
        <ele>56.264806</ele>
        <time>2026-05-09T12:54:29.962Z</time>
      </trkpt>
      <trkpt lat="51.938381" lon="6.266643">
        <ele>56.300293</ele>
        <time>2026-05-09T12:54:31.956Z</time>
      </trkpt>
      <trkpt lat="51.938339" lon="6.266509">
        <ele>56.335644</ele>
        <time>2026-05-09T12:54:33.962Z</time>
      </trkpt>
      <trkpt lat="51.938289" lon="6.266383">
        <ele>56.370883</ele>
        <time>2026-05-09T12:54:35.963Z</time>
      </trkpt>
      <trkpt lat="51.938240" lon="6.266255">
        <ele>56.406316</ele>
        <time>2026-05-09T12:54:37.960Z</time>
      </trkpt>
      <trkpt lat="51.938188" lon="6.266131">
        <ele>56.441583</ele>
        <time>2026-05-09T12:54:39.961Z</time>
      </trkpt>
      <trkpt lat="51.938132" lon="6.265949">
        <ele>56.489419</ele>
        <time>2026-05-09T12:54:42.961Z</time>
      </trkpt>
      <trkpt lat="51.938099" lon="6.265769">
        <ele>56.533581</ele>
        <time>2026-05-09T12:54:45.959Z</time>
      </trkpt>
      <trkpt lat="51.938075" lon="6.265595">
        <ele>56.575512</ele>
        <time>2026-05-09T12:54:48.966Z</time>
      </trkpt>
      <trkpt lat="51.938059" lon="6.265401">
        <ele>56.621542</ele>
        <time>2026-05-09T12:54:51.960Z</time>
      </trkpt>
      <trkpt lat="51.938059" lon="6.265255">
        <ele>56.655877</ele>
        <time>2026-05-09T12:54:53.960Z</time>
      </trkpt>
      <trkpt lat="51.938061" lon="6.265048">
        <ele>56.704563</ele>
        <time>2026-05-09T12:54:56.966Z</time>
      </trkpt>
      <trkpt lat="51.938057" lon="6.264870">
        <ele>56.746451</ele>
        <time>2026-05-09T12:54:59.963Z</time>
      </trkpt>
      <trkpt lat="51.938024" lon="6.264710">
        <ele>56.757889</ele>
        <time>2026-05-09T12:55:02.965Z</time>
      </trkpt>
      <trkpt lat="51.937958" lon="6.264560">
        <ele>56.699609</ele>
        <time>2026-05-09T12:55:05.958Z</time>
      </trkpt>
      <trkpt lat="51.937886" lon="6.264386">
        <ele>56.633335</ele>
        <time>2026-05-09T12:55:08.964Z</time>
      </trkpt>
      <trkpt lat="51.937834" lon="6.264262">
        <ele>56.585907</ele>
        <time>2026-05-09T12:55:10.962Z</time>
      </trkpt>
      <trkpt lat="51.937767" lon="6.264081">
        <ele>56.519140</ele>
        <time>2026-05-09T12:55:13.962Z</time>
      </trkpt>
      <trkpt lat="51.937696" lon="6.263908">
        <ele>56.453414</ele>
        <time>2026-05-09T12:55:16.962Z</time>
      </trkpt>
      <trkpt lat="51.937604" lon="6.263774">
        <ele>56.389986</ele>
        <time>2026-05-09T12:55:19.962Z</time>
      </trkpt>
      <trkpt lat="51.937517" lon="6.263734">
        <ele>56.343599</ele>
        <time>2026-05-09T12:55:21.961Z</time>
      </trkpt>
      <trkpt lat="51.937426" lon="6.263707">
        <ele>56.296145</ele>
        <time>2026-05-09T12:55:23.964Z</time>
      </trkpt>
      <trkpt lat="51.937298" lon="6.263647">
        <ele>56.227797</ele>
        <time>2026-05-09T12:55:26.968Z</time>
      </trkpt>
      <trkpt lat="51.937213" lon="6.263597">
        <ele>56.181416</ele>
        <time>2026-05-09T12:55:28.961Z</time>
      </trkpt>
      <trkpt lat="51.937099" lon="6.263495">
        <ele>56.114630</ele>
        <time>2026-05-09T12:55:31.962Z</time>
      </trkpt>
      <trkpt lat="51.937033" lon="6.263391">
        <ele>56.067428</ele>
        <time>2026-05-09T12:55:33.960Z</time>
      </trkpt>
      <trkpt lat="51.936972" lon="6.263272">
        <ele>56.018484</ele>
        <time>2026-05-09T12:55:35.962Z</time>
      </trkpt>
      <trkpt lat="51.936912" lon="6.263153">
        <ele>55.969866</ele>
        <time>2026-05-09T12:55:37.958Z</time>
      </trkpt>
      <trkpt lat="51.936844" lon="6.262983">
        <ele>55.905778</ele>
        <time>2026-05-09T12:55:40.962Z</time>
      </trkpt>
      <trkpt lat="51.936782" lon="6.262805">
        <ele>55.856128</ele>
        <time>2026-05-09T12:55:43.961Z</time>
      </trkpt>
      <trkpt lat="51.936706" lon="6.262650">
        <ele>55.884622</ele>
        <time>2026-05-09T12:55:46.961Z</time>
      </trkpt>
      <trkpt lat="51.936630" lon="6.262495">
        <ele>55.913116</ele>
        <time>2026-05-09T12:55:49.962Z</time>
      </trkpt>
      <trkpt lat="51.936556" lon="6.262357">
        <ele>55.939431</ele>
        <time>2026-05-09T12:55:52.960Z</time>
      </trkpt>
      <trkpt lat="51.936474" lon="6.262204">
        <ele>55.968600</ele>
        <time>2026-05-09T12:55:55.965Z</time>
      </trkpt>
      <trkpt lat="51.936401" lon="6.262044">
        <ele>55.997239</ele>
        <time>2026-05-09T12:55:58.960Z</time>
      </trkpt>
      <trkpt lat="51.936332" lon="6.261906">
        <ele>56.022803</ele>
        <time>2026-05-09T12:56:01.961Z</time>
      </trkpt>
      <trkpt lat="51.936236" lon="6.261812">
        <ele>56.048973</ele>
        <time>2026-05-09T12:56:04.963Z</time>
      </trkpt>
      <trkpt lat="51.936149" lon="6.261760">
        <ele>56.070611</ele>
        <time>2026-05-09T12:56:06.963Z</time>
      </trkpt>
      <trkpt lat="51.936092" lon="6.261637">
        <ele>56.092750</ele>
        <time>2026-05-09T12:56:08.962Z</time>
      </trkpt>
      <trkpt lat="51.936039" lon="6.261443">
        <ele>56.123281</ele>
        <time>2026-05-09T12:56:11.962Z</time>
      </trkpt>
      <trkpt lat="51.935978" lon="6.261256">
        <ele>56.153721</ele>
        <time>2026-05-09T12:56:14.962Z</time>
      </trkpt>
      <trkpt lat="51.935931" lon="6.261131">
        <ele>56.174787</ele>
        <time>2026-05-09T12:56:16.956Z</time>
      </trkpt>
      <trkpt lat="51.935881" lon="6.261002">
        <ele>56.196711</ele>
        <time>2026-05-09T12:56:18.969Z</time>
      </trkpt>
      <trkpt lat="51.935828" lon="6.260874">
        <ele>56.218896</ele>
        <time>2026-05-09T12:56:20.970Z</time>
      </trkpt>
      <trkpt lat="51.935757" lon="6.260695">
        <ele>56.249520</ele>
        <time>2026-05-09T12:56:23.961Z</time>
      </trkpt>
      <trkpt lat="51.935709" lon="6.260570">
        <ele>56.270709</ele>
        <time>2026-05-09T12:56:25.960Z</time>
      </trkpt>
      <trkpt lat="51.935590" lon="6.260485">
        <ele>56.326505</ele>
        <time>2026-05-09T12:56:28.958Z</time>
      </trkpt>
      <trkpt lat="51.935507" lon="6.260559">
        <ele>56.367442</ele>
        <time>2026-05-09T12:56:30.959Z</time>
      </trkpt>
      <trkpt lat="51.935426" lon="6.260636">
        <ele>56.408023</ele>
        <time>2026-05-09T12:56:32.974Z</time>
      </trkpt>
      <trkpt lat="51.935348" lon="6.260709">
        <ele>56.446946</ele>
        <time>2026-05-09T12:56:34.960Z</time>
      </trkpt>
      <trkpt lat="51.935236" lon="6.260827">
        <ele>56.504672</ele>
        <time>2026-05-09T12:56:37.960Z</time>
      </trkpt>
      <trkpt lat="51.935160" lon="6.260906">
        <ele>56.543689</ele>
        <time>2026-05-09T12:56:39.961Z</time>
      </trkpt>
      <trkpt lat="51.935076" lon="6.260982">
        <ele>56.585263</ele>
        <time>2026-05-09T12:56:41.958Z</time>
      </trkpt>
      <trkpt lat="51.934990" lon="6.261058">
        <ele>56.627594</ele>
        <time>2026-05-09T12:56:43.963Z</time>
      </trkpt>
      <trkpt lat="51.934915" lon="6.261145">
        <ele>56.667448</ele>
        <time>2026-05-09T12:56:45.958Z</time>
      </trkpt>
      <trkpt lat="51.934822" lon="6.261220">
        <ele>56.712340</ele>
        <time>2026-05-09T12:56:47.957Z</time>
      </trkpt>
      <trkpt lat="51.934732" lon="6.261259">
        <ele>56.752605</ele>
        <time>2026-05-09T12:56:49.965Z</time>
      </trkpt>
      <trkpt lat="51.934646" lon="6.261315">
        <ele>56.792660</ele>
        <time>2026-05-09T12:56:51.965Z</time>
      </trkpt>
      <trkpt lat="51.934533" lon="6.261416">
        <ele>56.848427</ele>
        <time>2026-05-09T12:56:54.965Z</time>
      </trkpt>
      <trkpt lat="51.934451" lon="6.261488">
        <ele>56.888730</ele>
        <time>2026-05-09T12:56:56.960Z</time>
      </trkpt>
      <trkpt lat="51.934372" lon="6.261578">
        <ele>56.930458</ele>
        <time>2026-05-09T12:56:58.957Z</time>
      </trkpt>
      <trkpt lat="51.934283" lon="6.261620">
        <ele>56.970521</ele>
        <time>2026-05-09T12:57:00.960Z</time>
      </trkpt>
      <trkpt lat="51.934195" lon="6.261658">
        <ele>57.009882</ele>
        <time>2026-05-09T12:57:03.963Z</time>
      </trkpt>
      <trkpt lat="51.934092" lon="6.261670">
        <ele>57.056994</ele>
        <time>2026-05-09T12:57:09.963Z</time>
      </trkpt>
      <trkpt lat="51.934190" lon="6.261639">
        <ele>57.118246</ele>
        <time>2026-05-09T12:57:20.962Z</time>
      </trkpt>
      <trkpt lat="51.934207" lon="6.261478">
        <ele>57.180028</ele>
        <time>2026-05-09T12:57:23.962Z</time>
      </trkpt>
      <trkpt lat="51.934206" lon="6.261284">
        <ele>57.253408</ele>
        <time>2026-05-09T12:57:26.955Z</time>
      </trkpt>
      <trkpt lat="51.934220" lon="6.261136">
        <ele>57.310042</ele>
        <time>2026-05-09T12:57:28.962Z</time>
      </trkpt>
      <trkpt lat="51.934230" lon="6.260975">
        <ele>57.371246</ele>
        <time>2026-05-09T12:57:30.960Z</time>
      </trkpt>
      <trkpt lat="51.934225" lon="6.260822">
        <ele>57.429197</ele>
        <time>2026-05-09T12:57:32.960Z</time>
      </trkpt>
      <trkpt lat="51.934185" lon="6.260685">
        <ele>57.486531</ele>
        <time>2026-05-09T12:57:34.962Z</time>
      </trkpt>
      <trkpt lat="51.934135" lon="6.260548">
        <ele>57.546747</ele>
        <time>2026-05-09T12:57:36.960Z</time>
      </trkpt>
      <trkpt lat="51.934085" lon="6.260410">
        <ele>57.607289</ele>
        <time>2026-05-09T12:57:38.959Z</time>
      </trkpt>
      <trkpt lat="51.934038" lon="6.260281">
        <ele>57.663963</ele>
        <time>2026-05-09T12:57:40.966Z</time>
      </trkpt>
      <trkpt lat="51.933990" lon="6.260149">
        <ele>57.721927</ele>
        <time>2026-05-09T12:57:42.961Z</time>
      </trkpt>
      <trkpt lat="51.933944" lon="6.260021">
        <ele>57.777965</ele>
        <time>2026-05-09T12:57:44.960Z</time>
      </trkpt>
      <trkpt lat="51.933879" lon="6.259846">
        <ele>57.855239</ele>
        <time>2026-05-09T12:57:47.960Z</time>
      </trkpt>
      <trkpt lat="51.933824" lon="6.259689">
        <ele>57.923538</ele>
        <time>2026-05-09T12:57:50.970Z</time>
      </trkpt>
      <trkpt lat="51.933768" lon="6.259548">
        <ele>57.986976</ele>
        <time>2026-05-09T12:57:53.960Z</time>
      </trkpt>
      <trkpt lat="51.933810" lon="6.259403">
        <ele>58.047571</ele>
        <time>2026-05-09T12:57:56.956Z</time>
      </trkpt>
      <trkpt lat="51.933924" lon="6.259277">
        <ele>58.132200</ele>
        <time>2026-05-09T12:57:59.956Z</time>
      </trkpt>
      <trkpt lat="51.934008" lon="6.259181">
        <ele>58.152580</ele>
        <time>2026-05-09T12:58:01.964Z</time>
      </trkpt>
      <trkpt lat="51.934095" lon="6.259081">
        <ele>58.153473</ele>
        <time>2026-05-09T12:58:03.958Z</time>
      </trkpt>
      <trkpt lat="51.934179" lon="6.258980">
        <ele>58.154348</ele>
        <time>2026-05-09T12:58:05.963Z</time>
      </trkpt>
      <trkpt lat="51.934272" lon="6.258880">
        <ele>58.155282</ele>
        <time>2026-05-09T12:58:07.962Z</time>
      </trkpt>
      <trkpt lat="51.934360" lon="6.258780">
        <ele>58.156181</ele>
        <time>2026-05-09T12:58:09.957Z</time>
      </trkpt>
      <trkpt lat="51.934451" lon="6.258673">
        <ele>58.157122</ele>
        <time>2026-05-09T12:58:11.961Z</time>
      </trkpt>
      <trkpt lat="51.934541" lon="6.258570">
        <ele>58.158044</ele>
        <time>2026-05-09T12:58:13.961Z</time>
      </trkpt>
      <trkpt lat="51.934632" lon="6.258471">
        <ele>58.158961</ele>
        <time>2026-05-09T12:58:15.961Z</time>
      </trkpt>
      <trkpt lat="51.934720" lon="6.258372">
        <ele>58.159857</ele>
        <time>2026-05-09T12:58:17.962Z</time>
      </trkpt>
      <trkpt lat="51.934810" lon="6.258267">
        <ele>58.160785</ele>
        <time>2026-05-09T12:58:19.961Z</time>
      </trkpt>
      <trkpt lat="51.934904" lon="6.258168">
        <ele>58.161723</ele>
        <time>2026-05-09T12:58:21.961Z</time>
      </trkpt>
      <trkpt lat="51.934996" lon="6.258062">
        <ele>58.162667</ele>
        <time>2026-05-09T12:58:23.960Z</time>
      </trkpt>
      <trkpt lat="51.935094" lon="6.257949">
        <ele>58.163674</ele>
        <time>2026-05-09T12:58:25.959Z</time>
      </trkpt>
      <trkpt lat="51.935192" lon="6.257836">
        <ele>58.164680</ele>
        <time>2026-05-09T12:58:27.959Z</time>
      </trkpt>
      <trkpt lat="51.935296" lon="6.257717">
        <ele>58.165745</ele>
        <time>2026-05-09T12:58:29.967Z</time>
      </trkpt>
      <trkpt lat="51.935395" lon="6.257610">
        <ele>58.166741</ele>
        <time>2026-05-09T12:58:31.960Z</time>
      </trkpt>
      <trkpt lat="51.935491" lon="6.257496">
        <ele>58.152086</ele>
        <time>2026-05-09T12:58:33.962Z</time>
      </trkpt>
      <trkpt lat="51.935589" lon="6.257384">
        <ele>58.130432</ele>
        <time>2026-05-09T12:58:35.962Z</time>
      </trkpt>
      <trkpt lat="51.935691" lon="6.257277">
        <ele>58.108490</ele>
        <time>2026-05-09T12:58:37.960Z</time>
      </trkpt>
      <trkpt lat="51.935787" lon="6.257168">
        <ele>58.087323</ele>
        <time>2026-05-09T12:58:39.957Z</time>
      </trkpt>
      <trkpt lat="51.935878" lon="6.257062">
        <ele>58.067086</ele>
        <time>2026-05-09T12:58:41.959Z</time>
      </trkpt>
      <trkpt lat="51.935972" lon="6.256952">
        <ele>58.046149</ele>
        <time>2026-05-09T12:58:43.958Z</time>
      </trkpt>
      <trkpt lat="51.936063" lon="6.256847">
        <ele>58.025977</ele>
        <time>2026-05-09T12:58:45.958Z</time>
      </trkpt>
      <trkpt lat="51.936156" lon="6.256742">
        <ele>58.005510</ele>
        <time>2026-05-09T12:58:47.964Z</time>
      </trkpt>
      <trkpt lat="51.936249" lon="6.256639">
        <ele>57.985169</ele>
        <time>2026-05-09T12:58:49.957Z</time>
      </trkpt>
      <trkpt lat="51.936345" lon="6.256527">
        <ele>57.963809</ele>
        <time>2026-05-09T12:58:51.963Z</time>
      </trkpt>
      <trkpt lat="51.936441" lon="6.256419">
        <ele>57.942705</ele>
        <time>2026-05-09T12:58:53.970Z</time>
      </trkpt>
      <trkpt lat="51.936538" lon="6.256312">
        <ele>57.921517</ele>
        <time>2026-05-09T12:58:55.956Z</time>
      </trkpt>
      <trkpt lat="51.936634" lon="6.256203">
        <ele>57.900350</ele>
        <time>2026-05-09T12:58:57.963Z</time>
      </trkpt>
      <trkpt lat="51.936730" lon="6.256099">
        <ele>57.879497</ele>
        <time>2026-05-09T12:58:59.964Z</time>
      </trkpt>
      <trkpt lat="51.936822" lon="6.255999">
        <ele>57.859493</ele>
        <time>2026-05-09T12:59:01.962Z</time>
      </trkpt>
      <trkpt lat="51.936918" lon="6.255894">
        <ele>57.842396</ele>
        <time>2026-05-09T12:59:03.962Z</time>
      </trkpt>
      <trkpt lat="51.937018" lon="6.255780">
        <ele>57.843864</ele>
        <time>2026-05-09T12:59:05.965Z</time>
      </trkpt>
      <trkpt lat="51.937116" lon="6.255661">
        <ele>57.845335</ele>
        <time>2026-05-09T12:59:07.962Z</time>
      </trkpt>
      <trkpt lat="51.937220" lon="6.255552">
        <ele>57.846822</ele>
        <time>2026-05-09T12:59:09.961Z</time>
      </trkpt>
      <trkpt lat="51.937328" lon="6.255458">
        <ele>57.848294</ele>
        <time>2026-05-09T12:59:11.965Z</time>
      </trkpt>
      <trkpt lat="51.937423" lon="6.255348">
        <ele>57.849696</ele>
        <time>2026-05-09T12:59:13.968Z</time>
      </trkpt>
      <trkpt lat="51.937524" lon="6.255243">
        <ele>57.851137</ele>
        <time>2026-05-09T12:59:15.963Z</time>
      </trkpt>
      <trkpt lat="51.937630" lon="6.255142">
        <ele>57.852613</ele>
        <time>2026-05-09T12:59:17.968Z</time>
      </trkpt>
      <trkpt lat="51.937735" lon="6.255036">
        <ele>57.854099</ele>
        <time>2026-05-09T12:59:19.961Z</time>
      </trkpt>
      <trkpt lat="51.937835" lon="6.254929">
        <ele>57.855537</ele>
        <time>2026-05-09T12:59:21.964Z</time>
      </trkpt>
      <trkpt lat="51.937940" lon="6.254826">
        <ele>57.857011</ele>
        <time>2026-05-09T12:59:23.959Z</time>
      </trkpt>
      <trkpt lat="51.938050" lon="6.254733">
        <ele>57.858501</ele>
        <time>2026-05-09T12:59:25.959Z</time>
      </trkpt>
      <trkpt lat="51.938157" lon="6.254643">
        <ele>57.859949</ele>
        <time>2026-05-09T12:59:27.961Z</time>
      </trkpt>
      <trkpt lat="51.938262" lon="6.254549">
        <ele>57.861389</ele>
        <time>2026-05-09T12:59:29.959Z</time>
      </trkpt>
      <trkpt lat="51.938369" lon="6.254465">
        <ele>57.862817</ele>
        <time>2026-05-09T12:59:31.959Z</time>
      </trkpt>
      <trkpt lat="51.938471" lon="6.254379">
        <ele>57.864556</ele>
        <time>2026-05-09T12:59:33.959Z</time>
      </trkpt>
      <trkpt lat="51.938574" lon="6.254298">
        <ele>57.867061</ele>
        <time>2026-05-09T12:59:35.968Z</time>
      </trkpt>
      <trkpt lat="51.938682" lon="6.254209">
        <ele>57.869712</ele>
        <time>2026-05-09T12:59:37.957Z</time>
      </trkpt>
      <trkpt lat="51.938788" lon="6.254115">
        <ele>57.872356</ele>
        <time>2026-05-09T12:59:39.966Z</time>
      </trkpt>
      <trkpt lat="51.938893" lon="6.254024">
        <ele>57.874961</ele>
        <time>2026-05-09T12:59:41.956Z</time>
      </trkpt>
      <trkpt lat="51.938998" lon="6.253934">
        <ele>57.877559</ele>
        <time>2026-05-09T12:59:43.955Z</time>
      </trkpt>
      <trkpt lat="51.939103" lon="6.253842">
        <ele>57.880171</ele>
        <time>2026-05-09T12:59:45.967Z</time>
      </trkpt>
      <trkpt lat="51.939209" lon="6.253750">
        <ele>57.882802</ele>
        <time>2026-05-09T12:59:47.965Z</time>
      </trkpt>
      <trkpt lat="51.939316" lon="6.253661">
        <ele>57.885433</ele>
        <time>2026-05-09T12:59:49.963Z</time>
      </trkpt>
      <trkpt lat="51.939422" lon="6.253575">
        <ele>57.888026</ele>
        <time>2026-05-09T12:59:51.966Z</time>
      </trkpt>
      <trkpt lat="51.939521" lon="6.253492">
        <ele>57.890465</ele>
        <time>2026-05-09T12:59:53.962Z</time>
      </trkpt>
      <trkpt lat="51.939618" lon="6.253415">
        <ele>57.892828</ele>
        <time>2026-05-09T12:59:55.965Z</time>
      </trkpt>
      <trkpt lat="51.939715" lon="6.253327">
        <ele>57.895260</ele>
        <time>2026-05-09T12:59:57.964Z</time>
      </trkpt>
      <trkpt lat="51.939810" lon="6.253249">
        <ele>57.897590</ele>
        <time>2026-05-09T12:59:59.964Z</time>
      </trkpt>
      <trkpt lat="51.939898" lon="6.253166">
        <ele>57.899818</ele>
        <time>2026-05-09T13:00:01.962Z</time>
      </trkpt>
      <trkpt lat="51.939989" lon="6.253096">
        <ele>57.902022</ele>
        <time>2026-05-09T13:00:03.963Z</time>
      </trkpt>
      <trkpt lat="51.940071" lon="6.253034">
        <ele>57.900061</ele>
        <time>2026-05-09T13:00:05.963Z</time>
      </trkpt>
      <trkpt lat="51.940133" lon="6.252927">
        <ele>57.893190</ele>
        <time>2026-05-09T13:00:07.962Z</time>
      </trkpt>
      <trkpt lat="51.940138" lon="6.252763">
        <ele>57.885506</ele>
        <time>2026-05-09T13:00:09.962Z</time>
      </trkpt>
      <trkpt lat="51.940102" lon="6.252592">
        <ele>57.877050</ele>
        <time>2026-05-09T13:00:11.962Z</time>
      </trkpt>
      <trkpt lat="51.940058" lon="6.252417">
        <ele>57.868206</ele>
        <time>2026-05-09T13:00:13.960Z</time>
      </trkpt>
      <trkpt lat="51.940018" lon="6.252237">
        <ele>57.859252</ele>
        <time>2026-05-09T13:00:15.961Z</time>
      </trkpt>
      <trkpt lat="51.939978" lon="6.252056">
        <ele>57.850255</ele>
        <time>2026-05-09T13:00:17.961Z</time>
      </trkpt>
      <trkpt lat="51.939937" lon="6.251876">
        <ele>57.841275</ele>
        <time>2026-05-09T13:00:19.956Z</time>
      </trkpt>
      <trkpt lat="51.939894" lon="6.251686">
        <ele>57.831804</ele>
        <time>2026-05-09T13:00:21.960Z</time>
      </trkpt>
      <trkpt lat="51.939850" lon="6.251501">
        <ele>57.822524</ele>
        <time>2026-05-09T13:00:23.966Z</time>
      </trkpt>
      <trkpt lat="51.939809" lon="6.251312">
        <ele>57.813149</ele>
        <time>2026-05-09T13:00:25.959Z</time>
      </trkpt>
      <trkpt lat="51.939768" lon="6.251133">
        <ele>57.804213</ele>
        <time>2026-05-09T13:00:27.950Z</time>
      </trkpt>
      <trkpt lat="51.939725" lon="6.250952">
        <ele>57.795135</ele>
        <time>2026-05-09T13:00:29.968Z</time>
      </trkpt>
      <trkpt lat="51.939682" lon="6.250774">
        <ele>57.786189</ele>
        <time>2026-05-09T13:00:31.955Z</time>
      </trkpt>
      <trkpt lat="51.939645" lon="6.250594">
        <ele>57.777310</ele>
        <time>2026-05-09T13:00:33.959Z</time>
      </trkpt>
      <trkpt lat="51.939608" lon="6.250415">
        <ele>57.768475</ele>
        <time>2026-05-09T13:00:35.959Z</time>
      </trkpt>
      <trkpt lat="51.939566" lon="6.250238">
        <ele>57.758512</ele>
        <time>2026-05-09T13:00:37.968Z</time>
      </trkpt>
      <trkpt lat="51.939525" lon="6.250061">
        <ele>57.748288</ele>
        <time>2026-05-09T13:00:39.957Z</time>
      </trkpt>
      <trkpt lat="51.939485" lon="6.249893">
        <ele>57.738549</ele>
        <time>2026-05-09T13:00:41.959Z</time>
      </trkpt>
      <trkpt lat="51.939446" lon="6.249720">
        <ele>57.728588</ele>
        <time>2026-05-09T13:00:43.956Z</time>
      </trkpt>
      <trkpt lat="51.939403" lon="6.249543">
        <ele>57.718300</ele>
        <time>2026-05-09T13:00:45.958Z</time>
      </trkpt>
      <trkpt lat="51.939360" lon="6.249361">
        <ele>57.707760</ele>
        <time>2026-05-09T13:00:47.958Z</time>
      </trkpt>
      <trkpt lat="51.939319" lon="6.249179">
        <ele>57.697281</ele>
        <time>2026-05-09T13:00:49.960Z</time>
      </trkpt>
      <trkpt lat="51.939280" lon="6.249001">
        <ele>57.687066</ele>
        <time>2026-05-09T13:00:51.967Z</time>
      </trkpt>
      <trkpt lat="51.939240" lon="6.248826">
        <ele>57.676973</ele>
        <time>2026-05-09T13:00:53.955Z</time>
      </trkpt>
      <trkpt lat="51.939195" lon="6.248649">
        <ele>57.666619</ele>
        <time>2026-05-09T13:00:55.957Z</time>
      </trkpt>
      <trkpt lat="51.939160" lon="6.248469">
        <ele>57.656412</ele>
        <time>2026-05-09T13:00:57.967Z</time>
      </trkpt>
      <trkpt lat="51.939118" lon="6.248290">
        <ele>57.646055</ele>
        <time>2026-05-09T13:00:59.963Z</time>
      </trkpt>
      <trkpt lat="51.939078" lon="6.248108">
        <ele>57.635606</ele>
        <time>2026-05-09T13:01:01.969Z</time>
      </trkpt>
      <trkpt lat="51.939034" lon="6.247934">
        <ele>57.625436</ele>
        <time>2026-05-09T13:01:03.963Z</time>
      </trkpt>
      <trkpt lat="51.938988" lon="6.247755">
        <ele>57.614949</ele>
        <time>2026-05-09T13:01:05.969Z</time>
      </trkpt>
      <trkpt lat="51.938945" lon="6.247571">
        <ele>57.604987</ele>
        <time>2026-05-09T13:01:07.960Z</time>
      </trkpt>
      <trkpt lat="51.938899" lon="6.247388">
        <ele>57.595907</ele>
        <time>2026-05-09T13:01:09.961Z</time>
      </trkpt>
      <trkpt lat="51.938851" lon="6.247211">
        <ele>57.587023</ele>
        <time>2026-05-09T13:01:11.960Z</time>
      </trkpt>
      <trkpt lat="51.938802" lon="6.247035">
        <ele>57.578150</ele>
        <time>2026-05-09T13:01:13.961Z</time>
      </trkpt>
      <trkpt lat="51.938751" lon="6.246862">
        <ele>57.569340</ele>
        <time>2026-05-09T13:01:15.961Z</time>
      </trkpt>
      <trkpt lat="51.938697" lon="6.246678">
        <ele>57.559977</ele>
        <time>2026-05-09T13:01:17.961Z</time>
      </trkpt>
      <trkpt lat="51.938647" lon="6.246512">
        <ele>57.551489</ele>
        <time>2026-05-09T13:01:19.960Z</time>
      </trkpt>
      <trkpt lat="51.938540" lon="6.246168">
        <ele>57.533787</ele>
        <time>2026-05-09T13:01:57.964Z</time>
      </trkpt>
      <trkpt lat="51.938484" lon="6.245996">
        <ele>57.524850</ele>
        <time>2026-05-09T13:02:00.960Z</time>
      </trkpt>
      <trkpt lat="51.938421" lon="6.245806">
        <ele>57.514938</ele>
        <time>2026-05-09T13:02:03.961Z</time>
      </trkpt>
      <trkpt lat="51.938361" lon="6.245615">
        <ele>57.505089</ele>
        <time>2026-05-09T13:02:06.963Z</time>
      </trkpt>
      <trkpt lat="51.938300" lon="6.245433">
        <ele>57.495572</ele>
        <time>2026-05-09T13:02:09.959Z</time>
      </trkpt>
      <trkpt lat="51.938259" lon="6.245304">
        <ele>57.488904</ele>
        <time>2026-05-09T13:02:11.960Z</time>
      </trkpt>
      <trkpt lat="51.938217" lon="6.245164">
        <ele>57.481750</ele>
        <time>2026-05-09T13:02:13.959Z</time>
      </trkpt>
      <trkpt lat="51.938170" lon="6.245022">
        <ele>57.474838</ele>
        <time>2026-05-09T13:02:15.959Z</time>
      </trkpt>
      <trkpt lat="51.938125" lon="6.244878">
        <ele>57.475858</ele>
        <time>2026-05-09T13:02:17.959Z</time>
      </trkpt>
      <trkpt lat="51.938080" lon="6.244740">
        <ele>57.476843</ele>
        <time>2026-05-09T13:02:19.959Z</time>
      </trkpt>
      <trkpt lat="51.938036" lon="6.244595">
        <ele>57.477864</ele>
        <time>2026-05-09T13:02:21.967Z</time>
      </trkpt>
      <trkpt lat="51.937987" lon="6.244450">
        <ele>57.478908</ele>
        <time>2026-05-09T13:02:23.958Z</time>
      </trkpt>
      <trkpt lat="51.937938" lon="6.244303">
        <ele>57.479963</ele>
        <time>2026-05-09T13:02:25.959Z</time>
      </trkpt>
      <trkpt lat="51.937887" lon="6.244167">
        <ele>57.480968</ele>
        <time>2026-05-09T13:02:27.957Z</time>
      </trkpt>
      <trkpt lat="51.937838" lon="6.244023">
        <ele>57.482006</ele>
        <time>2026-05-09T13:02:29.968Z</time>
      </trkpt>
      <trkpt lat="51.937791" lon="6.243874">
        <ele>57.483063</ele>
        <time>2026-05-09T13:02:31.960Z</time>
      </trkpt>
      <trkpt lat="51.937743" lon="6.243722">
        <ele>57.484141</ele>
        <time>2026-05-09T13:02:33.960Z</time>
      </trkpt>
      <trkpt lat="51.937695" lon="6.243576">
        <ele>57.485186</ele>
        <time>2026-05-09T13:02:35.959Z</time>
      </trkpt>
      <trkpt lat="51.937653" lon="6.243433">
        <ele>57.486186</ele>
        <time>2026-05-09T13:02:37.956Z</time>
      </trkpt>
      <trkpt lat="51.937608" lon="6.243293">
        <ele>57.487183</ele>
        <time>2026-05-09T13:02:39.959Z</time>
      </trkpt>
      <trkpt lat="51.937565" lon="6.243145">
        <ele>57.488216</ele>
        <time>2026-05-09T13:02:41.955Z</time>
      </trkpt>
      <trkpt lat="51.937526" lon="6.242996">
        <ele>57.489238</ele>
        <time>2026-05-09T13:02:43.965Z</time>
      </trkpt>
      <trkpt lat="51.937495" lon="6.242842">
        <ele>57.490261</ele>
        <time>2026-05-09T13:02:45.971Z</time>
      </trkpt>
      <trkpt lat="51.937471" lon="6.242680">
        <ele>57.491313</ele>
        <time>2026-05-09T13:02:47.964Z</time>
      </trkpt>
      <trkpt lat="51.937454" lon="6.242513">
        <ele>57.492382</ele>
        <time>2026-05-09T13:02:49.964Z</time>
      </trkpt>
      <trkpt lat="51.937444" lon="6.242341">
        <ele>57.500326</ele>
        <time>2026-05-09T13:02:51.956Z</time>
      </trkpt>
      <trkpt lat="51.937449" lon="6.242171">
        <ele>57.528329</ele>
        <time>2026-05-09T13:02:53.955Z</time>
      </trkpt>
      <trkpt lat="51.937459" lon="6.241997">
        <ele>57.557083</ele>
        <time>2026-05-09T13:02:55.963Z</time>
      </trkpt>
      <trkpt lat="51.937471" lon="6.241816">
        <ele>57.587036</ele>
        <time>2026-05-09T13:02:57.957Z</time>
      </trkpt>
      <trkpt lat="51.937483" lon="6.241639">
        <ele>57.616334</ele>
        <time>2026-05-09T13:02:59.958Z</time>
      </trkpt>
      <trkpt lat="51.937494" lon="6.241452">
        <ele>57.647242</ele>
        <time>2026-05-09T13:03:01.962Z</time>
      </trkpt>
      <trkpt lat="51.937505" lon="6.241265">
        <ele>57.678150</ele>
        <time>2026-05-09T13:03:03.963Z</time>
      </trkpt>
      <trkpt lat="51.937514" lon="6.241078">
        <ele>57.709012</ele>
        <time>2026-05-09T13:03:05.969Z</time>
      </trkpt>
      <trkpt lat="51.937524" lon="6.240897">
        <ele>57.738913</ele>
        <time>2026-05-09T13:03:07.959Z</time>
      </trkpt>
      <trkpt lat="51.937530" lon="6.240720">
        <ele>57.768080</ele>
        <time>2026-05-09T13:03:09.971Z</time>
      </trkpt>
      <trkpt lat="51.937521" lon="6.240547">
        <ele>57.796646</ele>
        <time>2026-05-09T13:03:11.959Z</time>
      </trkpt>
      <trkpt lat="51.937504" lon="6.240373">
        <ele>57.825632</ele>
        <time>2026-05-09T13:03:13.959Z</time>
      </trkpt>
      <trkpt lat="51.937479" lon="6.240207">
        <ele>57.853749</ele>
        <time>2026-05-09T13:03:15.960Z</time>
      </trkpt>
      <trkpt lat="51.937450" lon="6.240065">
        <ele>57.878361</ele>
        <time>2026-05-09T13:03:17.960Z</time>
      </trkpt>
      <trkpt lat="51.937402" lon="6.239923">
        <ele>57.905007</ele>
        <time>2026-05-09T13:03:20.967Z</time>
      </trkpt>
      <trkpt lat="51.937357" lon="6.239786">
        <ele>57.930548</ele>
        <time>2026-05-09T13:03:24.960Z</time>
      </trkpt>
      <trkpt lat="51.937311" lon="6.239657">
        <ele>57.955068</ele>
        <time>2026-05-09T13:03:27.967Z</time>
      </trkpt>
      <trkpt lat="51.937236" lon="6.239497">
        <ele>57.995675</ele>
        <time>2026-05-09T13:03:30.953Z</time>
      </trkpt>
      <trkpt lat="51.937180" lon="6.239377">
        <ele>58.032945</ele>
        <time>2026-05-09T13:03:32.958Z</time>
      </trkpt>
      <trkpt lat="51.937129" lon="6.239248">
        <ele>58.070895</ele>
        <time>2026-05-09T13:03:34.959Z</time>
      </trkpt>
      <trkpt lat="51.937070" lon="6.239112">
        <ele>58.112077</ele>
        <time>2026-05-09T13:03:36.959Z</time>
      </trkpt>
      <trkpt lat="51.937011" lon="6.238976">
        <ele>58.153259</ele>
        <time>2026-05-09T13:03:38.958Z</time>
      </trkpt>
      <trkpt lat="51.936957" lon="6.238840">
        <ele>58.193319</ele>
        <time>2026-05-09T13:03:40.959Z</time>
      </trkpt>
      <trkpt lat="51.936904" lon="6.238715">
        <ele>58.230888</ele>
        <time>2026-05-09T13:03:42.963Z</time>
      </trkpt>
      <trkpt lat="51.936848" lon="6.238589">
        <ele>58.269354</ele>
        <time>2026-05-09T13:03:44.959Z</time>
      </trkpt>
      <trkpt lat="51.936791" lon="6.238458">
        <ele>58.309061</ele>
        <time>2026-05-09T13:03:46.964Z</time>
      </trkpt>
      <trkpt lat="51.936736" lon="6.238331">
        <ele>58.347496</ele>
        <time>2026-05-09T13:03:48.959Z</time>
      </trkpt>
      <trkpt lat="51.936679" lon="6.238209">
        <ele>58.385404</ele>
        <time>2026-05-09T13:03:50.964Z</time>
      </trkpt>
      <trkpt lat="51.936622" lon="6.238083">
        <ele>58.424106</ele>
        <time>2026-05-09T13:03:52.958Z</time>
      </trkpt>
      <trkpt lat="51.936567" lon="6.237962">
        <ele>58.461335</ele>
        <time>2026-05-09T13:03:54.958Z</time>
      </trkpt>
      <trkpt lat="51.936517" lon="6.237839">
        <ele>58.497820</ele>
        <time>2026-05-09T13:03:56.961Z</time>
      </trkpt>
      <trkpt lat="51.936442" lon="6.237675">
        <ele>58.548388</ele>
        <time>2026-05-09T13:03:59.955Z</time>
      </trkpt>
      <trkpt lat="51.936373" lon="6.237524">
        <ele>58.594934</ele>
        <time>2026-05-09T13:04:02.962Z</time>
      </trkpt>
      <trkpt lat="51.936301" lon="6.237413">
        <ele>58.634834</ele>
        <time>2026-05-09T13:04:05.964Z</time>
      </trkpt>
      <trkpt lat="51.936219" lon="6.237272">
        <ele>58.682836</ele>
        <time>2026-05-09T13:04:09.968Z</time>
      </trkpt>
      <trkpt lat="51.936149" lon="6.237100">
        <ele>58.689257</ele>
        <time>2026-05-09T13:04:12.962Z</time>
      </trkpt>
      <trkpt lat="51.936101" lon="6.236972">
        <ele>58.683005</ele>
        <time>2026-05-09T13:04:14.953Z</time>
      </trkpt>
      <trkpt lat="51.936053" lon="6.236837">
        <ele>58.676501</ele>
        <time>2026-05-09T13:04:16.963Z</time>
      </trkpt>
      <trkpt lat="51.936016" lon="6.236689">
        <ele>58.669836</ele>
        <time>2026-05-09T13:04:18.962Z</time>
      </trkpt>
      <trkpt lat="51.935985" lon="6.236533">
        <ele>58.662996</ele>
        <time>2026-05-09T13:04:20.959Z</time>
      </trkpt>
      <trkpt lat="51.935957" lon="6.236390">
        <ele>58.656735</ele>
        <time>2026-05-09T13:04:22.960Z</time>
      </trkpt>
      <trkpt lat="51.935929" lon="6.236251">
        <ele>58.650632</ele>
        <time>2026-05-09T13:04:24.958Z</time>
      </trkpt>
      <trkpt lat="51.935901" lon="6.236103">
        <ele>58.644172</ele>
        <time>2026-05-09T13:04:26.959Z</time>
      </trkpt>
      <trkpt lat="51.935873" lon="6.235948">
        <ele>58.637431</ele>
        <time>2026-05-09T13:04:28.957Z</time>
      </trkpt>
      <trkpt lat="51.935844" lon="6.235790">
        <ele>58.630551</ele>
        <time>2026-05-09T13:04:30.958Z</time>
      </trkpt>
      <trkpt lat="51.935816" lon="6.235639">
        <ele>58.623971</ele>
        <time>2026-05-09T13:04:32.956Z</time>
      </trkpt>
      <trkpt lat="51.935802" lon="6.235477">
        <ele>58.617144</ele>
        <time>2026-05-09T13:04:34.961Z</time>
      </trkpt>
      <trkpt lat="51.935813" lon="6.235318">
        <ele>58.610467</ele>
        <time>2026-05-09T13:04:36.963Z</time>
      </trkpt>
      <trkpt lat="51.935838" lon="6.235165">
        <ele>58.603862</ele>
        <time>2026-05-09T13:04:38.962Z</time>
      </trkpt>
      <trkpt lat="51.935889" lon="6.235020">
        <ele>58.596895</ele>
        <time>2026-05-09T13:04:40.965Z</time>
      </trkpt>
      <trkpt lat="51.935957" lon="6.234888">
        <ele>58.589716</ele>
        <time>2026-05-09T13:04:42.961Z</time>
      </trkpt>
      <trkpt lat="51.936038" lon="6.234782">
        <ele>58.582672</ele>
        <time>2026-05-09T13:04:44.966Z</time>
      </trkpt>
      <trkpt lat="51.936110" lon="6.234688">
        <ele>58.576415</ele>
        <time>2026-05-09T13:04:46.964Z</time>
      </trkpt>
      <trkpt lat="51.936210" lon="6.234550">
        <ele>58.562909</ele>
        <time>2026-05-09T13:04:49.964Z</time>
      </trkpt>
      <trkpt lat="51.936305" lon="6.234519">
        <ele>58.551628</ele>
        <time>2026-05-09T13:04:54.964Z</time>
      </trkpt>
      <trkpt lat="51.936373" lon="6.234405">
        <ele>58.540243</ele>
        <time>2026-05-09T13:04:57.963Z</time>
      </trkpt>
      <trkpt lat="51.936441" lon="6.234260">
        <ele>58.527167</ele>
        <time>2026-05-09T13:05:00.966Z</time>
      </trkpt>
      <trkpt lat="51.936485" lon="6.234092">
        <ele>58.514066</ele>
        <time>2026-05-09T13:05:03.960Z</time>
      </trkpt>
      <trkpt lat="51.936494" lon="6.233914">
        <ele>58.501248</ele>
        <time>2026-05-09T13:05:06.955Z</time>
      </trkpt>
      <trkpt lat="51.936484" lon="6.233747">
        <ele>58.489205</ele>
        <time>2026-05-09T13:05:09.954Z</time>
      </trkpt>
      <trkpt lat="51.936439" lon="6.233587">
        <ele>58.476583</ele>
        <time>2026-05-09T13:05:12.961Z</time>
      </trkpt>
      <trkpt lat="51.936384" lon="6.233426">
        <ele>58.463372</ele>
        <time>2026-05-09T13:05:15.968Z</time>
      </trkpt>
      <trkpt lat="51.936329" lon="6.233271">
        <ele>58.450536</ele>
        <time>2026-05-09T13:05:18.958Z</time>
      </trkpt>
      <trkpt lat="51.936356" lon="6.233118">
        <ele>58.439113</ele>
        <time>2026-05-09T13:05:21.962Z</time>
      </trkpt>
      <trkpt lat="51.936353" lon="6.232961">
        <ele>58.427839</ele>
        <time>2026-05-09T13:05:24.967Z</time>
      </trkpt>
      <trkpt lat="51.936296" lon="6.232843">
        <ele>58.417080</ele>
        <time>2026-05-09T13:05:27.958Z</time>
      </trkpt>
      <trkpt lat="51.936229" lon="6.232740">
        <ele>58.406334</ele>
        <time>2026-05-09T13:05:30.963Z</time>
      </trkpt>
      <trkpt lat="51.936116" lon="6.232751">
        <ele>58.393155</ele>
        <time>2026-05-09T13:05:34.957Z</time>
      </trkpt>
      <trkpt lat="51.936018" lon="6.232857">
        <ele>58.379442</ele>
        <time>2026-05-09T13:05:38.964Z</time>
      </trkpt>
      <trkpt lat="51.935925" lon="6.232787">
        <ele>58.367507</ele>
        <time>2026-05-09T13:05:41.959Z</time>
      </trkpt>
      <trkpt lat="51.935874" lon="6.232577">
        <ele>58.385011</ele>
        <time>2026-05-09T13:05:44.964Z</time>
      </trkpt>
      <trkpt lat="51.935852" lon="6.232433">
        <ele>58.401451</ele>
        <time>2026-05-09T13:05:46.960Z</time>
      </trkpt>
      <trkpt lat="51.935831" lon="6.232229">
        <ele>58.424369</ele>
        <time>2026-05-09T13:05:49.966Z</time>
      </trkpt>
      <trkpt lat="51.935805" lon="6.232035">
        <ele>58.446369</ele>
        <time>2026-05-09T13:05:52.962Z</time>
      </trkpt>
      <trkpt lat="51.935760" lon="6.231862">
        <ele>58.467175</ele>
        <time>2026-05-09T13:05:55.961Z</time>
      </trkpt>
      <trkpt lat="51.935688" lon="6.231688">
        <ele>58.490396</ele>
        <time>2026-05-09T13:05:58.961Z</time>
      </trkpt>
      <trkpt lat="51.935624" lon="6.231498">
        <ele>58.514388</ele>
        <time>2026-05-09T13:06:01.963Z</time>
      </trkpt>
      <trkpt lat="51.935575" lon="6.231369">
        <ele>58.531178</ele>
        <time>2026-05-09T13:06:03.960Z</time>
      </trkpt>
      <trkpt lat="51.935525" lon="6.231236">
        <ele>58.548440</ele>
        <time>2026-05-09T13:06:05.969Z</time>
      </trkpt>
      <trkpt lat="51.935477" lon="6.231102">
        <ele>58.565613</ele>
        <time>2026-05-09T13:06:07.955Z</time>
      </trkpt>
      <trkpt lat="51.935429" lon="6.230970">
        <ele>58.582594</ele>
        <time>2026-05-09T13:06:09.960Z</time>
      </trkpt>
      <trkpt lat="51.935376" lon="6.230837">
        <ele>58.600143</ele>
        <time>2026-05-09T13:06:11.959Z</time>
      </trkpt>
      <trkpt lat="51.935331" lon="6.230706">
        <ele>58.616760</ele>
        <time>2026-05-09T13:06:13.960Z</time>
      </trkpt>
      <trkpt lat="51.935272" lon="6.230587">
        <ele>58.633682</ele>
        <time>2026-05-09T13:06:15.958Z</time>
      </trkpt>
      <trkpt lat="51.935210" lon="6.230474">
        <ele>58.650444</ele>
        <time>2026-05-09T13:06:17.958Z</time>
      </trkpt>
      <trkpt lat="51.935144" lon="6.230360">
        <ele>58.667773</ele>
        <time>2026-05-09T13:06:19.957Z</time>
      </trkpt>
      <trkpt lat="51.935089" lon="6.230233">
        <ele>58.684971</ele>
        <time>2026-05-09T13:06:21.959Z</time>
      </trkpt>
      <trkpt lat="51.935043" lon="6.230097">
        <ele>58.674426</ele>
        <time>2026-05-09T13:06:23.957Z</time>
      </trkpt>
      <trkpt lat="51.934989" lon="6.229954">
        <ele>58.657054</ele>
        <time>2026-05-09T13:06:25.964Z</time>
      </trkpt>
      <trkpt lat="51.934935" lon="6.229809">
        <ele>58.639505</ele>
        <time>2026-05-09T13:06:27.964Z</time>
      </trkpt>
      <trkpt lat="51.934882" lon="6.229656">
        <ele>58.621325</ele>
        <time>2026-05-09T13:06:29.965Z</time>
      </trkpt>
      <trkpt lat="51.934826" lon="6.229502">
        <ele>58.602803</ele>
        <time>2026-05-09T13:06:31.962Z</time>
      </trkpt>
      <trkpt lat="51.934765" lon="6.229346">
        <ele>58.583666</ele>
        <time>2026-05-09T13:06:33.955Z</time>
      </trkpt>
      <trkpt lat="51.934710" lon="6.229188">
        <ele>58.564870</ele>
        <time>2026-05-09T13:06:35.958Z</time>
      </trkpt>
      <trkpt lat="51.934662" lon="6.229025">
        <ele>58.546156</ele>
        <time>2026-05-09T13:06:37.966Z</time>
      </trkpt>
      <trkpt lat="51.934610" lon="6.228866">
        <ele>58.527511</ele>
        <time>2026-05-09T13:06:39.963Z</time>
      </trkpt>
      <trkpt lat="51.934557" lon="6.228719">
        <ele>58.509870</ele>
        <time>2026-05-09T13:06:41.963Z</time>
      </trkpt>
      <trkpt lat="51.934509" lon="6.228567">
        <ele>58.492178</ele>
        <time>2026-05-09T13:06:43.969Z</time>
      </trkpt>
      <trkpt lat="51.934458" lon="6.228416">
        <ele>58.474342</ele>
        <time>2026-05-09T13:06:45.966Z</time>
      </trkpt>
      <trkpt lat="51.934404" lon="6.228262">
        <ele>58.455988</ele>
        <time>2026-05-09T13:06:47.964Z</time>
      </trkpt>
      <trkpt lat="51.934353" lon="6.228100">
        <ele>58.437144</ele>
        <time>2026-05-09T13:06:49.961Z</time>
      </trkpt>
      <trkpt lat="51.934299" lon="6.227940">
        <ele>58.418248</ele>
        <time>2026-05-09T13:06:51.969Z</time>
      </trkpt>
      <trkpt lat="51.934246" lon="6.227786">
        <ele>58.399977</ele>
        <time>2026-05-09T13:06:53.956Z</time>
      </trkpt>
      <trkpt lat="51.934192" lon="6.227629">
        <ele>58.402049</ele>
        <time>2026-05-09T13:06:55.965Z</time>
      </trkpt>
      <trkpt lat="51.934140" lon="6.227473">
        <ele>58.472899</ele>
        <time>2026-05-09T13:06:57.966Z</time>
      </trkpt>
      <trkpt lat="51.934084" lon="6.227314">
        <ele>58.546056</ele>
        <time>2026-05-09T13:06:59.964Z</time>
      </trkpt>
      <trkpt lat="51.934030" lon="6.227152">
        <ele>58.619631</ele>
        <time>2026-05-09T13:07:01.960Z</time>
      </trkpt>
      <trkpt lat="51.933981" lon="6.226994">
        <ele>58.690291</ele>
        <time>2026-05-09T13:07:03.958Z</time>
      </trkpt>
      <trkpt lat="51.933934" lon="6.226852">
        <ele>58.754681</ele>
        <time>2026-05-09T13:07:05.959Z</time>
      </trkpt>
      <trkpt lat="51.933896" lon="6.226713">
        <ele>58.815428</ele>
        <time>2026-05-09T13:07:07.963Z</time>
      </trkpt>
      <trkpt lat="51.933859" lon="6.226569">
        <ele>58.877755</ele>
        <time>2026-05-09T13:07:09.950Z</time>
      </trkpt>
      <trkpt lat="51.933818" lon="6.226421">
        <ele>58.942579</ele>
        <time>2026-05-09T13:07:11.956Z</time>
      </trkpt>
      <trkpt lat="51.933776" lon="6.226273">
        <ele>59.007670</ele>
        <time>2026-05-09T13:07:13.962Z</time>
      </trkpt>
      <trkpt lat="51.933734" lon="6.226130">
        <ele>59.070953</ele>
        <time>2026-05-09T13:07:15.958Z</time>
      </trkpt>
      <trkpt lat="51.933693" lon="6.225994">
        <ele>59.131435</ele>
        <time>2026-05-09T13:07:17.968Z</time>
      </trkpt>
      <trkpt lat="51.933653" lon="6.225851">
        <ele>59.194172</ele>
        <time>2026-05-09T13:07:19.954Z</time>
      </trkpt>
      <trkpt lat="51.933612" lon="6.225708">
        <ele>59.257178</ele>
        <time>2026-05-09T13:07:21.951Z</time>
      </trkpt>
      <trkpt lat="51.933569" lon="6.225554">
        <ele>59.324720</ele>
        <time>2026-05-09T13:07:23.966Z</time>
      </trkpt>
      <trkpt lat="51.933529" lon="6.225397">
        <ele>59.392590</ele>
        <time>2026-05-09T13:07:25.964Z</time>
      </trkpt>
      <trkpt lat="51.933481" lon="6.225242">
        <ele>59.461888</ele>
        <time>2026-05-09T13:07:27.956Z</time>
      </trkpt>
      <trkpt lat="51.933437" lon="6.225085">
        <ele>59.530789</ele>
        <time>2026-05-09T13:07:29.956Z</time>
      </trkpt>
      <trkpt lat="51.933390" lon="6.224925">
        <ele>59.569431</ele>
        <time>2026-05-09T13:07:31.962Z</time>
      </trkpt>
      <trkpt lat="51.933343" lon="6.224771">
        <ele>59.594360</ele>
        <time>2026-05-09T13:07:33.956Z</time>
      </trkpt>
      <trkpt lat="51.933289" lon="6.224618">
        <ele>59.619938</ele>
        <time>2026-05-09T13:07:35.961Z</time>
      </trkpt>
      <trkpt lat="51.933234" lon="6.224459">
        <ele>59.646388</ele>
        <time>2026-05-09T13:07:37.962Z</time>
      </trkpt>
      <trkpt lat="51.933184" lon="6.224300">
        <ele>59.672283</ele>
        <time>2026-05-09T13:07:39.960Z</time>
      </trkpt>
      <trkpt lat="51.933132" lon="6.224136">
        <ele>59.699038</ele>
        <time>2026-05-09T13:07:41.962Z</time>
      </trkpt>
      <trkpt lat="51.933077" lon="6.223970">
        <ele>59.726379</ele>
        <time>2026-05-09T13:07:43.956Z</time>
      </trkpt>
      <trkpt lat="51.933023" lon="6.223804">
        <ele>59.753609</ele>
        <time>2026-05-09T13:07:45.959Z</time>
      </trkpt>
      <trkpt lat="51.932972" lon="6.223646">
        <ele>59.779484</ele>
        <time>2026-05-09T13:07:47.960Z</time>
      </trkpt>
      <trkpt lat="51.932927" lon="6.223494">
        <ele>59.803947</ele>
        <time>2026-05-09T13:07:49.962Z</time>
      </trkpt>
      <trkpt lat="51.932879" lon="6.223353">
        <ele>59.827314</ele>
        <time>2026-05-09T13:07:51.958Z</time>
      </trkpt>
      <trkpt lat="51.932833" lon="6.223208">
        <ele>59.850973</ele>
        <time>2026-05-09T13:07:53.966Z</time>
      </trkpt>
      <trkpt lat="51.932789" lon="6.223065">
        <ele>59.874159</ele>
        <time>2026-05-09T13:07:55.960Z</time>
      </trkpt>
      <trkpt lat="51.932746" lon="6.222924">
        <ele>59.896982</ele>
        <time>2026-05-09T13:07:57.962Z</time>
      </trkpt>
      <trkpt lat="51.932700" lon="6.222788">
        <ele>59.919487</ele>
        <time>2026-05-09T13:07:59.958Z</time>
      </trkpt>
      <trkpt lat="51.932657" lon="6.222650">
        <ele>59.941920</ele>
        <time>2026-05-09T13:08:01.958Z</time>
      </trkpt>
      <trkpt lat="51.932611" lon="6.222511">
        <ele>59.964808</ele>
        <time>2026-05-09T13:08:03.960Z</time>
      </trkpt>
      <trkpt lat="51.932566" lon="6.222372">
        <ele>59.998343</ele>
        <time>2026-05-09T13:08:05.959Z</time>
      </trkpt>
      <trkpt lat="51.932519" lon="6.222229">
        <ele>60.040913</ele>
        <time>2026-05-09T13:08:07.966Z</time>
      </trkpt>
      <trkpt lat="51.932470" lon="6.222079">
        <ele>60.085506</ele>
        <time>2026-05-09T13:08:09.960Z</time>
      </trkpt>
      <trkpt lat="51.932419" lon="6.221928">
        <ele>60.130734</ele>
        <time>2026-05-09T13:08:11.957Z</time>
      </trkpt>
      <trkpt lat="51.932368" lon="6.221777">
        <ele>60.175963</ele>
        <time>2026-05-09T13:08:13.957Z</time>
      </trkpt>
      <trkpt lat="51.932321" lon="6.221632">
        <ele>60.218996</ele>
        <time>2026-05-09T13:08:15.960Z</time>
      </trkpt>
      <trkpt lat="51.932276" lon="6.221483">
        <ele>60.262582</ele>
        <time>2026-05-09T13:08:17.960Z</time>
      </trkpt>
      <trkpt lat="51.932229" lon="6.221334">
        <ele>60.306548</ele>
        <time>2026-05-09T13:08:19.963Z</time>
      </trkpt>
      <trkpt lat="51.932183" lon="6.221188">
        <ele>60.349619</ele>
        <time>2026-05-09T13:08:21.963Z</time>
      </trkpt>
      <trkpt lat="51.932139" lon="6.221049">
        <ele>60.390665</ele>
        <time>2026-05-09T13:08:23.961Z</time>
      </trkpt>
      <trkpt lat="51.932093" lon="6.220923">
        <ele>60.429132</ele>
        <time>2026-05-09T13:08:25.961Z</time>
      </trkpt>
      <trkpt lat="51.932039" lon="6.220754">
        <ele>60.479135</ele>
        <time>2026-05-09T13:08:28.963Z</time>
      </trkpt>
      <trkpt lat="51.931983" lon="6.220599">
        <ele>60.526329</ele>
        <time>2026-05-09T13:08:31.961Z</time>
      </trkpt>
      <trkpt lat="51.931923" lon="6.220454">
        <ele>60.572203</ele>
        <time>2026-05-09T13:08:34.960Z</time>
      </trkpt>
      <trkpt lat="51.931839" lon="6.220129">
        <ele>60.664778</ele>
        <time>2026-05-09T13:09:06.972Z</time>
      </trkpt>
      <trkpt lat="51.931785" lon="6.219966">
        <ele>60.713387</ele>
        <time>2026-05-09T13:09:09.960Z</time>
      </trkpt>
      <trkpt lat="51.931735" lon="6.219781">
        <ele>60.731452</ele>
        <time>2026-05-09T13:09:12.962Z</time>
      </trkpt>
      <trkpt lat="51.931700" lon="6.219645">
        <ele>60.717706</ele>
        <time>2026-05-09T13:09:14.960Z</time>
      </trkpt>
      <trkpt lat="51.931662" lon="6.219512">
        <ele>60.704034</ele>
        <time>2026-05-09T13:09:16.964Z</time>
      </trkpt>
      <trkpt lat="51.931615" lon="6.219312">
        <ele>60.684070</ele>
        <time>2026-05-09T13:09:19.956Z</time>
      </trkpt>
      <trkpt lat="51.931580" lon="6.219166">
        <ele>60.669459</ele>
        <time>2026-05-09T13:09:21.964Z</time>
      </trkpt>
      <trkpt lat="51.931542" lon="6.219010">
        <ele>60.653814</ele>
        <time>2026-05-09T13:09:23.963Z</time>
      </trkpt>
      <trkpt lat="51.931502" lon="6.218849">
        <ele>60.637624</ele>
        <time>2026-05-09T13:09:25.961Z</time>
      </trkpt>
      <trkpt lat="51.931462" lon="6.218692">
        <ele>60.621779</ele>
        <time>2026-05-09T13:09:27.962Z</time>
      </trkpt>
      <trkpt lat="51.931425" lon="6.218547">
        <ele>60.607142</ele>
        <time>2026-05-09T13:09:29.960Z</time>
      </trkpt>
      <trkpt lat="51.931392" lon="6.218410">
        <ele>60.593423</ele>
        <time>2026-05-09T13:09:31.960Z</time>
      </trkpt>
      <trkpt lat="51.931364" lon="6.218266">
        <ele>60.579339</ele>
        <time>2026-05-09T13:09:33.959Z</time>
      </trkpt>
      <trkpt lat="51.931333" lon="6.218119">
        <ele>60.564848</ele>
        <time>2026-05-09T13:09:35.955Z</time>
      </trkpt>
      <trkpt lat="51.931299" lon="6.217968">
        <ele>60.549854</ele>
        <time>2026-05-09T13:09:37.967Z</time>
      </trkpt>
      <trkpt lat="51.931268" lon="6.217817">
        <ele>60.535009</ele>
        <time>2026-05-09T13:09:39.962Z</time>
      </trkpt>
      <trkpt lat="51.931232" lon="6.217665">
        <ele>60.519822</ele>
        <time>2026-05-09T13:09:41.966Z</time>
      </trkpt>
      <trkpt lat="51.931195" lon="6.217510">
        <ele>60.504319</ele>
        <time>2026-05-09T13:09:43.959Z</time>
      </trkpt>
      <trkpt lat="51.931159" lon="6.217355">
        <ele>60.488869</ele>
        <time>2026-05-09T13:09:45.960Z</time>
      </trkpt>
      <trkpt lat="51.931120" lon="6.217200">
        <ele>60.473254</ele>
        <time>2026-05-09T13:09:47.962Z</time>
      </trkpt>
      <trkpt lat="51.931084" lon="6.217042">
        <ele>60.509237</ele>
        <time>2026-05-09T13:09:49.962Z</time>
      </trkpt>
      <trkpt lat="51.931047" lon="6.216884">
        <ele>60.567577</ele>
        <time>2026-05-09T13:09:51.961Z</time>
      </trkpt>
      <trkpt lat="51.931002" lon="6.216729">
        <ele>60.626714</ele>
        <time>2026-05-09T13:09:53.958Z</time>
      </trkpt>
      <trkpt lat="51.930957" lon="6.216581">
        <ele>60.683675</ele>
        <time>2026-05-09T13:09:55.964Z</time>
      </trkpt>
      <trkpt lat="51.930906" lon="6.216428">
        <ele>60.743711</ele>
        <time>2026-05-09T13:09:57.960Z</time>
      </trkpt>
      <trkpt lat="51.930857" lon="6.216274">
        <ele>60.803530</ele>
        <time>2026-05-09T13:09:59.957Z</time>
      </trkpt>
      <trkpt lat="51.930805" lon="6.216111">
        <ele>60.866879</ele>
        <time>2026-05-09T13:10:01.960Z</time>
      </trkpt>
      <trkpt lat="51.930755" lon="6.215946">
        <ele>60.930341</ele>
        <time>2026-05-09T13:10:03.961Z</time>
      </trkpt>
      <trkpt lat="51.930711" lon="6.215772">
        <ele>60.995258</ele>
        <time>2026-05-09T13:10:05.962Z</time>
      </trkpt>
      <trkpt lat="51.930675" lon="6.215593">
        <ele>61.060250</ele>
        <time>2026-05-09T13:10:07.962Z</time>
      </trkpt>
      <trkpt lat="51.930642" lon="6.215424">
        <ele>61.121442</ele>
        <time>2026-05-09T13:10:09.963Z</time>
      </trkpt>
      <trkpt lat="51.930606" lon="6.215254">
        <ele>61.183488</ele>
        <time>2026-05-09T13:10:11.960Z</time>
      </trkpt>
      <trkpt lat="51.930572" lon="6.215083">
        <ele>61.245508</ele>
        <time>2026-05-09T13:10:13.962Z</time>
      </trkpt>
      <trkpt lat="51.930539" lon="6.214904">
        <ele>61.309999</ele>
        <time>2026-05-09T13:10:15.957Z</time>
      </trkpt>
      <trkpt lat="51.930502" lon="6.214725">
        <ele>61.375167</ele>
        <time>2026-05-09T13:10:17.969Z</time>
      </trkpt>
      <trkpt lat="51.930467" lon="6.214540">
        <ele>61.441965</ele>
        <time>2026-05-09T13:10:19.961Z</time>
      </trkpt>
      <trkpt lat="51.930430" lon="6.214350">
        <ele>61.444657</ele>
        <time>2026-05-09T13:10:21.963Z</time>
      </trkpt>
      <trkpt lat="51.930392" lon="6.214155">
        <ele>61.383113</ele>
        <time>2026-05-09T13:10:23.957Z</time>
      </trkpt>
      <trkpt lat="51.930358" lon="6.213973">
        <ele>61.325884</ele>
        <time>2026-05-09T13:10:25.962Z</time>
      </trkpt>
      <trkpt lat="51.930321" lon="6.213795">
        <ele>61.269355</ele>
        <time>2026-05-09T13:10:27.964Z</time>
      </trkpt>
      <trkpt lat="51.930289" lon="6.213628">
        <ele>61.216728</ele>
        <time>2026-05-09T13:10:29.964Z</time>
      </trkpt>
      <trkpt lat="51.930250" lon="6.213471">
        <ele>61.165791</ele>
        <time>2026-05-09T13:10:31.968Z</time>
      </trkpt>
      <trkpt lat="51.930207" lon="6.213306">
        <ele>61.111883</ele>
        <time>2026-05-09T13:10:33.969Z</time>
      </trkpt>
      <trkpt lat="51.930162" lon="6.213146">
        <ele>61.058961</ele>
        <time>2026-05-09T13:10:35.966Z</time>
      </trkpt>
      <trkpt lat="51.930111" lon="6.212987">
        <ele>61.005025</ele>
        <time>2026-05-09T13:10:37.970Z</time>
      </trkpt>
      <trkpt lat="51.930060" lon="6.212827">
        <ele>60.950821</ele>
        <time>2026-05-09T13:10:39.971Z</time>
      </trkpt>
      <trkpt lat="51.930005" lon="6.212672">
        <ele>60.897004</ele>
        <time>2026-05-09T13:10:41.956Z</time>
      </trkpt>
      <trkpt lat="51.929947" lon="6.212517">
        <ele>60.842441</ele>
        <time>2026-05-09T13:10:43.969Z</time>
      </trkpt>
      <trkpt lat="51.929881" lon="6.212360">
        <ele>60.785258</ele>
        <time>2026-05-09T13:10:45.955Z</time>
      </trkpt>
      <trkpt lat="51.929816" lon="6.212201">
        <ele>60.727847</ele>
        <time>2026-05-09T13:10:47.956Z</time>
      </trkpt>
      <trkpt lat="51.929747" lon="6.212043">
        <ele>60.669581</ele>
        <time>2026-05-09T13:10:49.959Z</time>
      </trkpt>
      <trkpt lat="51.929675" lon="6.211877">
        <ele>60.608504</ele>
        <time>2026-05-09T13:10:51.958Z</time>
      </trkpt>
      <trkpt lat="51.929600" lon="6.211719">
        <ele>60.568282</ele>
        <time>2026-05-09T13:10:53.967Z</time>
      </trkpt>
      <trkpt lat="51.929517" lon="6.211566">
        <ele>60.531656</ele>
        <time>2026-05-09T13:10:55.958Z</time>
      </trkpt>
      <trkpt lat="51.929435" lon="6.211415">
        <ele>60.495492</ele>
        <time>2026-05-09T13:10:57.960Z</time>
      </trkpt>
      <trkpt lat="51.929357" lon="6.211267">
        <ele>60.460499</ele>
        <time>2026-05-09T13:10:59.956Z</time>
      </trkpt>
      <trkpt lat="51.929280" lon="6.211123">
        <ele>60.426242</ele>
        <time>2026-05-09T13:11:01.958Z</time>
      </trkpt>
      <trkpt lat="51.929200" lon="6.210976">
        <ele>60.391003</ele>
        <time>2026-05-09T13:11:03.965Z</time>
      </trkpt>
      <trkpt lat="51.929123" lon="6.210825">
        <ele>60.355785</ele>
        <time>2026-05-09T13:11:05.955Z</time>
      </trkpt>
      <trkpt lat="51.929038" lon="6.210682">
        <ele>60.320086</ele>
        <time>2026-05-09T13:11:07.958Z</time>
      </trkpt>
      <trkpt lat="51.928954" lon="6.210533">
        <ele>60.283800</ele>
        <time>2026-05-09T13:11:09.960Z</time>
      </trkpt>
      <trkpt lat="51.928872" lon="6.210381">
        <ele>60.247501</ele>
        <time>2026-05-09T13:11:11.957Z</time>
      </trkpt>
      <trkpt lat="51.928789" lon="6.210229">
        <ele>60.211009</ele>
        <time>2026-05-09T13:11:13.964Z</time>
      </trkpt>
      <trkpt lat="51.928707" lon="6.210077">
        <ele>60.174710</ele>
        <time>2026-05-09T13:11:15.961Z</time>
      </trkpt>
      <trkpt lat="51.928629" lon="6.209926">
        <ele>60.139306</ele>
        <time>2026-05-09T13:11:17.970Z</time>
      </trkpt>
      <trkpt lat="51.928550" lon="6.209780">
        <ele>60.104394</ele>
        <time>2026-05-09T13:11:19.971Z</time>
      </trkpt>
      <trkpt lat="51.928471" lon="6.209633">
        <ele>60.076035</ele>
        <time>2026-05-09T13:11:21.961Z</time>
      </trkpt>
      <trkpt lat="51.928393" lon="6.209481">
        <ele>60.099785</ele>
        <time>2026-05-09T13:11:23.969Z</time>
      </trkpt>
      <trkpt lat="51.928310" lon="6.209339">
        <ele>60.123284</ele>
        <time>2026-05-09T13:11:25.968Z</time>
      </trkpt>
      <trkpt lat="51.928230" lon="6.209196">
        <ele>60.146473</ele>
        <time>2026-05-09T13:11:27.968Z</time>
      </trkpt>
      <trkpt lat="51.928152" lon="6.209050">
        <ele>60.169674</ele>
        <time>2026-05-09T13:11:29.968Z</time>
      </trkpt>
      <trkpt lat="51.928071" lon="6.208901">
        <ele>60.193531</ele>
        <time>2026-05-09T13:11:31.960Z</time>
      </trkpt>
      <trkpt lat="51.927990" lon="6.208758">
        <ele>60.216851</ele>
        <time>2026-05-09T13:11:33.968Z</time>
      </trkpt>
      <trkpt lat="51.927914" lon="6.208619">
        <ele>60.239163</ele>
        <time>2026-05-09T13:11:35.968Z</time>
      </trkpt>
      <trkpt lat="51.927841" lon="6.208472">
        <ele>60.261832</ele>
        <time>2026-05-09T13:11:37.959Z</time>
      </trkpt>
      <trkpt lat="51.927763" lon="6.208330">
        <ele>60.284672</ele>
        <time>2026-05-09T13:11:39.967Z</time>
      </trkpt>
      <trkpt lat="51.927684" lon="6.208188">
        <ele>60.307642</ele>
        <time>2026-05-09T13:11:41.969Z</time>
      </trkpt>
      <trkpt lat="51.927608" lon="6.208045">
        <ele>60.330315</ele>
        <time>2026-05-09T13:11:43.967Z</time>
      </trkpt>
      <trkpt lat="51.927531" lon="6.207912">
        <ele>60.352226</ele>
        <time>2026-05-09T13:11:45.965Z</time>
      </trkpt>
      <trkpt lat="51.927455" lon="6.207770">
        <ele>60.374809</ele>
        <time>2026-05-09T13:11:47.961Z</time>
      </trkpt>
      <trkpt lat="51.927378" lon="6.207636">
        <ele>60.396807</ele>
        <time>2026-05-09T13:11:49.959Z</time>
      </trkpt>
      <trkpt lat="51.927301" lon="6.207516">
        <ele>60.417607</ele>
        <time>2026-05-09T13:11:51.967Z</time>
      </trkpt>
      <trkpt lat="51.927229" lon="6.207400">
        <ele>60.437265</ele>
        <time>2026-05-09T13:11:53.955Z</time>
      </trkpt>
      <trkpt lat="51.927155" lon="6.207296">
        <ele>60.456183</ele>
        <time>2026-05-09T13:11:55.958Z</time>
      </trkpt>
      <trkpt lat="51.927074" lon="6.207194">
        <ele>60.475996</ele>
        <time>2026-05-09T13:11:57.959Z</time>
      </trkpt>
      <trkpt lat="51.926988" lon="6.207096">
        <ele>60.496304</ele>
        <time>2026-05-09T13:11:59.967Z</time>
      </trkpt>
      <trkpt lat="51.926894" lon="6.206995">
        <ele>60.518089</ele>
        <time>2026-05-09T13:12:01.958Z</time>
      </trkpt>
      <trkpt lat="51.926803" lon="6.206889">
        <ele>60.539736</ele>
        <time>2026-05-09T13:12:03.959Z</time>
      </trkpt>
      <trkpt lat="51.926707" lon="6.206785">
        <ele>60.562041</ele>
        <time>2026-05-09T13:12:05.962Z</time>
      </trkpt>
      <trkpt lat="51.926611" lon="6.206678">
        <ele>60.584546</ele>
        <time>2026-05-09T13:12:07.959Z</time>
      </trkpt>
      <trkpt lat="51.926518" lon="6.206577">
        <ele>60.606171</ele>
        <time>2026-05-09T13:12:09.960Z</time>
      </trkpt>
      <trkpt lat="51.926428" lon="6.206472">
        <ele>60.627591</ele>
        <time>2026-05-09T13:12:11.964Z</time>
      </trkpt>
      <trkpt lat="51.926335" lon="6.206369">
        <ele>60.649349</ele>
        <time>2026-05-09T13:12:13.964Z</time>
      </trkpt>
      <trkpt lat="51.926240" lon="6.206267">
        <ele>60.671362</ele>
        <time>2026-05-09T13:12:15.958Z</time>
      </trkpt>
      <trkpt lat="51.926146" lon="6.206166">
        <ele>60.693147</ele>
        <time>2026-05-09T13:12:17.955Z</time>
      </trkpt>
      <trkpt lat="51.926060" lon="6.206069">
        <ele>60.713386</ele>
        <time>2026-05-09T13:12:19.969Z</time>
      </trkpt>
      <trkpt lat="51.925972" lon="6.205977">
        <ele>60.733615</ele>
        <time>2026-05-09T13:12:21.967Z</time>
      </trkpt>
      <trkpt lat="51.925886" lon="6.205881">
        <ele>60.753786</ele>
        <time>2026-05-09T13:12:23.962Z</time>
      </trkpt>
      <trkpt lat="51.925799" lon="6.205788">
        <ele>60.772632</ele>
        <time>2026-05-09T13:12:25.957Z</time>
      </trkpt>
      <trkpt lat="51.925711" lon="6.205690">
        <ele>60.783613</ele>
        <time>2026-05-09T13:12:27.968Z</time>
      </trkpt>
      <trkpt lat="51.925622" lon="6.205587">
        <ele>60.794860</ele>
        <time>2026-05-09T13:12:29.955Z</time>
      </trkpt>
      <trkpt lat="51.925533" lon="6.205482">
        <ele>60.806181</ele>
        <time>2026-05-09T13:12:31.961Z</time>
      </trkpt>
      <trkpt lat="51.925444" lon="6.205384">
        <ele>60.817246</ele>
        <time>2026-05-09T13:12:33.961Z</time>
      </trkpt>
      <trkpt lat="51.925352" lon="6.205283">
        <ele>60.828674</ele>
        <time>2026-05-09T13:12:35.960Z</time>
      </trkpt>
      <trkpt lat="51.925258" lon="6.205176">
        <ele>60.840487</ele>
        <time>2026-05-09T13:12:37.959Z</time>
      </trkpt>
      <trkpt lat="51.925160" lon="6.205072">
        <ele>60.852534</ele>
        <time>2026-05-09T13:12:39.962Z</time>
      </trkpt>
      <trkpt lat="51.925065" lon="6.204967">
        <ele>60.864360</ele>
        <time>2026-05-09T13:12:41.968Z</time>
      </trkpt>
      <trkpt lat="51.924971" lon="6.204859">
        <ele>60.876210</ele>
        <time>2026-05-09T13:12:43.962Z</time>
      </trkpt>
      <trkpt lat="51.924878" lon="6.204751">
        <ele>60.887976</ele>
        <time>2026-05-09T13:12:45.972Z</time>
      </trkpt>
      <trkpt lat="51.924783" lon="6.204638">
        <ele>60.900095</ele>
        <time>2026-05-09T13:12:47.961Z</time>
      </trkpt>
      <trkpt lat="51.924685" lon="6.204520">
        <ele>60.912650</ele>
        <time>2026-05-09T13:12:49.966Z</time>
      </trkpt>
      <trkpt lat="51.924589" lon="6.204403">
        <ele>60.925003</ele>
        <time>2026-05-09T13:12:51.967Z</time>
      </trkpt>
      <trkpt lat="51.924491" lon="6.204289">
        <ele>60.937408</ele>
        <time>2026-05-09T13:12:53.959Z</time>
      </trkpt>
      <trkpt lat="51.924395" lon="6.204164">
        <ele>60.950072</ele>
        <time>2026-05-09T13:12:55.967Z</time>
      </trkpt>
      <trkpt lat="51.924302" lon="6.204038">
        <ele>60.943435</ele>
        <time>2026-05-09T13:12:57.959Z</time>
      </trkpt>
      <trkpt lat="51.924208" lon="6.203921">
        <ele>60.919023</ele>
        <time>2026-05-09T13:12:59.960Z</time>
      </trkpt>
      <trkpt lat="51.924110" lon="6.203802">
        <ele>60.893802</ele>
        <time>2026-05-09T13:13:01.960Z</time>
      </trkpt>
      <trkpt lat="51.924015" lon="6.203683">
        <ele>60.869072</ele>
        <time>2026-05-09T13:13:03.955Z</time>
      </trkpt>
      <trkpt lat="51.923920" lon="6.203562">
        <ele>60.844186</ele>
        <time>2026-05-09T13:13:05.965Z</time>
      </trkpt>
      <trkpt lat="51.923827" lon="6.203440">
        <ele>60.819543</ele>
        <time>2026-05-09T13:13:07.965Z</time>
      </trkpt>
      <trkpt lat="51.923731" lon="6.203327">
        <ele>60.795105</ele>
        <time>2026-05-09T13:13:09.958Z</time>
      </trkpt>
      <trkpt lat="51.923636" lon="6.203211">
        <ele>60.770606</ele>
        <time>2026-05-09T13:13:11.959Z</time>
      </trkpt>
      <trkpt lat="51.923543" lon="6.203094">
        <ele>60.746357</ele>
        <time>2026-05-09T13:13:13.964Z</time>
      </trkpt>
      <trkpt lat="51.923450" lon="6.202976">
        <ele>60.722031</ele>
        <time>2026-05-09T13:13:15.963Z</time>
      </trkpt>
      <trkpt lat="51.923355" lon="6.202861">
        <ele>60.697608</ele>
        <time>2026-05-09T13:13:17.966Z</time>
      </trkpt>
      <trkpt lat="51.923261" lon="6.202763">
        <ele>60.674586</ele>
        <time>2026-05-09T13:13:19.963Z</time>
      </trkpt>
      <trkpt lat="51.923173" lon="6.202667">
        <ele>60.652737</ele>
        <time>2026-05-09T13:13:21.960Z</time>
      </trkpt>
      <trkpt lat="51.923085" lon="6.202572">
        <ele>60.630958</ele>
        <time>2026-05-09T13:13:23.966Z</time>
      </trkpt>
      <trkpt lat="51.922989" lon="6.202480">
        <ele>60.607986</ele>
        <time>2026-05-09T13:13:25.956Z</time>
      </trkpt>
      <trkpt lat="51.922900" lon="6.202390">
        <ele>60.586378</ele>
        <time>2026-05-09T13:13:27.963Z</time>
      </trkpt>
      <trkpt lat="51.922806" lon="6.202296">
        <ele>60.629366</ele>
        <time>2026-05-09T13:13:29.957Z</time>
      </trkpt>
      <trkpt lat="51.922713" lon="6.202204">
        <ele>60.673926</ele>
        <time>2026-05-09T13:13:31.958Z</time>
      </trkpt>
      <trkpt lat="51.922610" lon="6.202115">
        <ele>60.721664</ele>
        <time>2026-05-09T13:13:33.960Z</time>
      </trkpt>
      <trkpt lat="51.922513" lon="6.202014">
        <ele>60.768815</ele>
        <time>2026-05-09T13:13:35.957Z</time>
      </trkpt>
      <trkpt lat="51.922412" lon="6.201911">
        <ele>60.817618</ele>
        <time>2026-05-09T13:13:37.962Z</time>
      </trkpt>
      <trkpt lat="51.922311" lon="6.201812">
        <ele>60.865891</ele>
        <time>2026-05-09T13:13:39.961Z</time>
      </trkpt>
      <trkpt lat="51.922213" lon="6.201717">
        <ele>60.912592</ele>
        <time>2026-05-09T13:13:41.967Z</time>
      </trkpt>
      <trkpt lat="51.922115" lon="6.201620">
        <ele>60.959555</ele>
        <time>2026-05-09T13:13:43.960Z</time>
      </trkpt>
      <trkpt lat="51.922017" lon="6.201516">
        <ele>61.007461</ele>
        <time>2026-05-09T13:13:45.961Z</time>
      </trkpt>
      <trkpt lat="51.921917" lon="6.201416">
        <ele>61.055517</ele>
        <time>2026-05-09T13:13:47.960Z</time>
      </trkpt>
      <trkpt lat="51.921819" lon="6.201325">
        <ele>61.101709</ele>
        <time>2026-05-09T13:13:49.970Z</time>
      </trkpt>
      <trkpt lat="51.921723" lon="6.201232">
        <ele>61.147449</ele>
        <time>2026-05-09T13:13:51.967Z</time>
      </trkpt>
      <trkpt lat="51.921628" lon="6.201136">
        <ele>61.193235</ele>
        <time>2026-05-09T13:13:53.966Z</time>
      </trkpt>
      <trkpt lat="51.921533" lon="6.201040">
        <ele>61.239021</ele>
        <time>2026-05-09T13:13:55.973Z</time>
      </trkpt>
      <trkpt lat="51.921437" lon="6.200941">
        <ele>61.285556</ele>
        <time>2026-05-09T13:13:57.962Z</time>
      </trkpt>
      <trkpt lat="51.921341" lon="6.200836">
        <ele>61.326070</ele>
        <time>2026-05-09T13:13:59.967Z</time>
      </trkpt>
      <trkpt lat="51.921246" lon="6.200732">
        <ele>61.345237</ele>
        <time>2026-05-09T13:14:01.969Z</time>
      </trkpt>
      <trkpt lat="51.921154" lon="6.200638">
        <ele>61.363420</ele>
        <time>2026-05-09T13:14:03.965Z</time>
      </trkpt>
      <trkpt lat="51.921068" lon="6.200543">
        <ele>61.380820</ele>
        <time>2026-05-09T13:14:05.965Z</time>
      </trkpt>
      <trkpt lat="51.920982" lon="6.200451">
        <ele>61.398048</ele>
        <time>2026-05-09T13:14:07.964Z</time>
      </trkpt>
      <trkpt lat="51.920900" lon="6.200360">
        <ele>61.414663</ele>
        <time>2026-05-09T13:14:09.956Z</time>
      </trkpt>
      <trkpt lat="51.920819" lon="6.200269">
        <ele>61.431141</ele>
        <time>2026-05-09T13:14:11.965Z</time>
      </trkpt>
      <trkpt lat="51.920737" lon="6.200182">
        <ele>61.447526</ele>
        <time>2026-05-09T13:14:13.960Z</time>
      </trkpt>
      <trkpt lat="51.920639" lon="6.200073">
        <ele>61.467398</ele>
        <time>2026-05-09T13:14:16.957Z</time>
      </trkpt>
      <trkpt lat="51.920604" lon="6.199930">
        <ele>61.483264</ele>
        <time>2026-05-09T13:14:27.956Z</time>
      </trkpt>
      <trkpt lat="51.920558" lon="6.199782">
        <ele>61.500355</ele>
        <time>2026-05-09T13:14:31.957Z</time>
      </trkpt>
      <trkpt lat="51.920455" lon="6.199644">
        <ele>61.522697</ele>
        <time>2026-05-09T13:14:34.961Z</time>
      </trkpt>
      <trkpt lat="51.920384" lon="6.199533">
        <ele>61.539189</ele>
        <time>2026-05-09T13:14:36.962Z</time>
      </trkpt>
      <trkpt lat="51.920318" lon="6.199412">
        <ele>61.555848</ele>
        <time>2026-05-09T13:14:38.955Z</time>
      </trkpt>
      <trkpt lat="51.920241" lon="6.199304">
        <ele>61.572872</ele>
        <time>2026-05-09T13:14:40.961Z</time>
      </trkpt>
      <trkpt lat="51.920162" lon="6.199209">
        <ele>61.589318</ele>
        <time>2026-05-09T13:14:42.961Z</time>
      </trkpt>
      <trkpt lat="51.920090" lon="6.199119">
        <ele>61.604520</ele>
        <time>2026-05-09T13:14:44.956Z</time>
      </trkpt>
      <trkpt lat="51.920035" lon="6.198989">
        <ele>61.620777</ele>
        <time>2026-05-09T13:14:46.955Z</time>
      </trkpt>
      <trkpt lat="51.919949" lon="6.198917">
        <ele>61.560910</ele>
        <time>2026-05-09T13:14:48.961Z</time>
      </trkpt>
      <trkpt lat="51.919851" lon="6.198874">
        <ele>61.491105</ele>
        <time>2026-05-09T13:14:50.955Z</time>
      </trkpt>
      <trkpt lat="51.919765" lon="6.198787">
        <ele>61.421408</ele>
        <time>2026-05-09T13:14:52.958Z</time>
      </trkpt>
      <trkpt lat="51.919670" lon="6.198720">
        <ele>61.350178</ele>
        <time>2026-05-09T13:14:54.958Z</time>
      </trkpt>
      <trkpt lat="51.919577" lon="6.198641">
        <ele>61.277989</ele>
        <time>2026-05-09T13:14:56.959Z</time>
      </trkpt>
      <trkpt lat="51.919490" lon="6.198537">
        <ele>61.203670</ele>
        <time>2026-05-09T13:14:58.957Z</time>
      </trkpt>
      <trkpt lat="51.919404" lon="6.198432">
        <ele>61.129649</ele>
        <time>2026-05-09T13:15:00.957Z</time>
      </trkpt>
      <trkpt lat="51.919317" lon="6.198326">
        <ele>61.054824</ele>
        <time>2026-05-09T13:15:02.957Z</time>
      </trkpt>
      <trkpt lat="51.919228" lon="6.198218">
        <ele>60.978389</ele>
        <time>2026-05-09T13:15:04.954Z</time>
      </trkpt>
      <trkpt lat="51.919135" lon="6.198100">
        <ele>60.897193</ele>
        <time>2026-05-09T13:15:06.959Z</time>
      </trkpt>
      <trkpt lat="51.919043" lon="6.197982">
        <ele>60.816537</ele>
        <time>2026-05-09T13:15:08.958Z</time>
      </trkpt>
      <trkpt lat="51.918960" lon="6.197877">
        <ele>60.744153</ele>
        <time>2026-05-09T13:15:10.964Z</time>
      </trkpt>
      <trkpt lat="51.918873" lon="6.197776">
        <ele>60.670581</ele>
        <time>2026-05-09T13:15:12.954Z</time>
      </trkpt>
      <trkpt lat="51.918784" lon="6.197690">
        <ele>60.599344</ele>
        <time>2026-05-09T13:15:14.964Z</time>
      </trkpt>
      <trkpt lat="51.918692" lon="6.197614">
        <ele>60.528351</ele>
        <time>2026-05-09T13:15:16.955Z</time>
      </trkpt>
      <trkpt lat="51.918596" lon="6.197547">
        <ele>60.456489</ele>
        <time>2026-05-09T13:15:18.957Z</time>
      </trkpt>
      <trkpt lat="51.918499" lon="6.197474">
        <ele>60.388742</ele>
        <time>2026-05-09T13:15:20.954Z</time>
      </trkpt>
      <trkpt lat="51.918404" lon="6.197413">
        <ele>60.485118</ele>
        <time>2026-05-09T13:15:22.957Z</time>
      </trkpt>
      <trkpt lat="51.918306" lon="6.197344">
        <ele>60.585891</ele>
        <time>2026-05-09T13:15:24.955Z</time>
      </trkpt>
      <trkpt lat="51.918209" lon="6.197279">
        <ele>60.684888</ele>
        <time>2026-05-09T13:15:26.954Z</time>
      </trkpt>
      <trkpt lat="51.918111" lon="6.197217">
        <ele>60.784110</ele>
        <time>2026-05-09T13:15:28.954Z</time>
      </trkpt>
      <trkpt lat="51.918018" lon="6.197150">
        <ele>60.880098</ele>
        <time>2026-05-09T13:15:30.957Z</time>
      </trkpt>
      <trkpt lat="51.917915" lon="6.197084">
        <ele>60.984560</ele>
        <time>2026-05-09T13:15:32.959Z</time>
      </trkpt>
      <trkpt lat="51.917815" lon="6.197013">
        <ele>61.087528</ele>
        <time>2026-05-09T13:15:34.953Z</time>
      </trkpt>
      <trkpt lat="51.917712" lon="6.196941">
        <ele>61.193323</ele>
        <time>2026-05-09T13:15:36.955Z</time>
      </trkpt>
      <trkpt lat="51.917613" lon="6.196873">
        <ele>61.294734</ele>
        <time>2026-05-09T13:15:38.958Z</time>
      </trkpt>
      <trkpt lat="51.917517" lon="6.196794">
        <ele>61.396278</ele>
        <time>2026-05-09T13:15:40.962Z</time>
      </trkpt>
      <trkpt lat="51.917419" lon="6.196715">
        <ele>61.499507</ele>
        <time>2026-05-09T13:15:42.955Z</time>
      </trkpt>
      <trkpt lat="51.917318" lon="6.196632">
        <ele>61.606309</ele>
        <time>2026-05-09T13:15:44.959Z</time>
      </trkpt>
      <trkpt lat="51.917217" lon="6.196534">
        <ele>61.717330</ele>
        <time>2026-05-09T13:15:46.956Z</time>
      </trkpt>
      <trkpt lat="51.917114" lon="6.196439">
        <ele>61.829100</ele>
        <time>2026-05-09T13:15:48.954Z</time>
      </trkpt>
      <trkpt lat="51.917014" lon="6.196337">
        <ele>61.940534</ele>
        <time>2026-05-09T13:15:50.959Z</time>
      </trkpt>
      <trkpt lat="51.916913" lon="6.196241">
        <ele>62.050962</ele>
        <time>2026-05-09T13:15:52.952Z</time>
      </trkpt>
      <trkpt lat="51.916812" lon="6.196146">
        <ele>62.069976</ele>
        <time>2026-05-09T13:15:54.957Z</time>
      </trkpt>
      <trkpt lat="51.916708" lon="6.196045">
        <ele>62.052789</ele>
        <time>2026-05-09T13:15:56.959Z</time>
      </trkpt>
      <trkpt lat="51.916600" lon="6.195942">
        <ele>62.035026</ele>
        <time>2026-05-09T13:15:58.956Z</time>
      </trkpt>
      <trkpt lat="51.916493" lon="6.195845">
        <ele>62.017647</ele>
        <time>2026-05-09T13:16:00.964Z</time>
      </trkpt>
      <trkpt lat="51.916387" lon="6.195746">
        <ele>62.000304</ele>
        <time>2026-05-09T13:16:02.954Z</time>
      </trkpt>
      <trkpt lat="51.916282" lon="6.195663">
        <ele>61.983744</ele>
        <time>2026-05-09T13:16:04.955Z</time>
      </trkpt>
      <trkpt lat="51.916175" lon="6.195581">
        <ele>61.966966</ele>
        <time>2026-05-09T13:16:06.959Z</time>
      </trkpt>
      <trkpt lat="51.916065" lon="6.195508">
        <ele>61.950115</ele>
        <time>2026-05-09T13:16:08.959Z</time>
      </trkpt>
      <trkpt lat="51.915958" lon="6.195430">
        <ele>61.933484</ele>
        <time>2026-05-09T13:16:10.957Z</time>
      </trkpt>
      <trkpt lat="51.915853" lon="6.195357">
        <ele>61.917287</ele>
        <time>2026-05-09T13:16:12.957Z</time>
      </trkpt>
      <trkpt lat="51.915754" lon="6.195282">
        <ele>61.901796</ele>
        <time>2026-05-09T13:16:14.963Z</time>
      </trkpt>
      <trkpt lat="51.915654" lon="6.195208">
        <ele>61.886212</ele>
        <time>2026-05-09T13:16:16.963Z</time>
      </trkpt>
      <trkpt lat="51.915553" lon="6.195139">
        <ele>61.870675</ele>
        <time>2026-05-09T13:16:18.956Z</time>
      </trkpt>
      <trkpt lat="51.915456" lon="6.195067">
        <ele>61.855551</ele>
        <time>2026-05-09T13:16:20.962Z</time>
      </trkpt>
      <trkpt lat="51.915353" lon="6.194997">
        <ele>61.839718</ele>
        <time>2026-05-09T13:16:22.956Z</time>
      </trkpt>
      <trkpt lat="51.915254" lon="6.194934">
        <ele>61.827360</ele>
        <time>2026-05-09T13:16:24.961Z</time>
      </trkpt>
      <trkpt lat="51.915156" lon="6.194861">
        <ele>61.830506</ele>
        <time>2026-05-09T13:16:26.955Z</time>
      </trkpt>
      <trkpt lat="51.915057" lon="6.194791">
        <ele>61.833657</ele>
        <time>2026-05-09T13:16:28.954Z</time>
      </trkpt>
      <trkpt lat="51.914962" lon="6.194717">
        <ele>61.836731</ele>
        <time>2026-05-09T13:16:30.960Z</time>
      </trkpt>
      <trkpt lat="51.914868" lon="6.194655">
        <ele>61.839691</ele>
        <time>2026-05-09T13:16:32.959Z</time>
      </trkpt>
      <trkpt lat="51.914774" lon="6.194585">
        <ele>61.842709</ele>
        <time>2026-05-09T13:16:34.955Z</time>
      </trkpt>
      <trkpt lat="51.914677" lon="6.194516">
        <ele>61.845799</ele>
        <time>2026-05-09T13:16:36.960Z</time>
      </trkpt>
      <trkpt lat="51.914577" lon="6.194440">
        <ele>61.849020</ele>
        <time>2026-05-09T13:16:38.957Z</time>
      </trkpt>
      <trkpt lat="51.914472" lon="6.194375">
        <ele>61.852299</ele>
        <time>2026-05-09T13:16:40.958Z</time>
      </trkpt>
      <trkpt lat="51.914368" lon="6.194320">
        <ele>61.855490</ele>
        <time>2026-05-09T13:16:42.958Z</time>
      </trkpt>
      <trkpt lat="51.914262" lon="6.194278">
        <ele>61.858673</ele>
        <time>2026-05-09T13:16:44.953Z</time>
      </trkpt>
      <trkpt lat="51.914155" lon="6.194253">
        <ele>61.861826</ele>
        <time>2026-05-09T13:16:46.955Z</time>
      </trkpt>
      <trkpt lat="51.914041" lon="6.194222">
        <ele>61.865198</ele>
        <time>2026-05-09T13:16:48.958Z</time>
      </trkpt>
      <trkpt lat="51.913926" lon="6.194189">
        <ele>61.868605</ele>
        <time>2026-05-09T13:16:50.966Z</time>
      </trkpt>
      <trkpt lat="51.913813" lon="6.194149">
        <ele>61.871979</ele>
        <time>2026-05-09T13:16:52.958Z</time>
      </trkpt>
      <trkpt lat="51.913705" lon="6.194092">
        <ele>61.875292</ele>
        <time>2026-05-09T13:16:54.966Z</time>
      </trkpt>
      <trkpt lat="51.913607" lon="6.194025">
        <ele>61.878394</ele>
        <time>2026-05-09T13:16:56.956Z</time>
      </trkpt>
      <trkpt lat="51.913505" lon="6.193944">
        <ele>61.921848</ele>
        <time>2026-05-09T13:16:58.961Z</time>
      </trkpt>
      <trkpt lat="51.913405" lon="6.193862">
        <ele>61.981073</ele>
        <time>2026-05-09T13:17:00.960Z</time>
      </trkpt>
      <trkpt lat="51.913301" lon="6.193780">
        <ele>62.042191</ele>
        <time>2026-05-09T13:17:02.964Z</time>
      </trkpt>
      <trkpt lat="51.913204" lon="6.193696">
        <ele>62.100310</ele>
        <time>2026-05-09T13:17:04.953Z</time>
      </trkpt>
      <trkpt lat="51.913107" lon="6.193615">
        <ele>62.157975</ele>
        <time>2026-05-09T13:17:06.959Z</time>
      </trkpt>
      <trkpt lat="51.913017" lon="6.193530">
        <ele>62.213022</ele>
        <time>2026-05-09T13:17:08.965Z</time>
      </trkpt>
      <trkpt lat="51.912927" lon="6.193460">
        <ele>62.265777</ele>
        <time>2026-05-09T13:17:10.956Z</time>
      </trkpt>
      <trkpt lat="51.912835" lon="6.193381">
        <ele>62.320798</ele>
        <time>2026-05-09T13:17:12.964Z</time>
      </trkpt>
      <trkpt lat="51.912743" lon="6.193305">
        <ele>62.375367</ele>
        <time>2026-05-09T13:17:14.956Z</time>
      </trkpt>
      <trkpt lat="51.912653" lon="6.193228">
        <ele>62.429149</ele>
        <time>2026-05-09T13:17:16.958Z</time>
      </trkpt>
      <trkpt lat="51.912559" lon="6.193140">
        <ele>62.486515</ele>
        <time>2026-05-09T13:17:18.963Z</time>
      </trkpt>
      <trkpt lat="51.912461" lon="6.193059">
        <ele>62.544651</ele>
        <time>2026-05-09T13:17:20.960Z</time>
      </trkpt>
      <trkpt lat="51.912366" lon="6.192977">
        <ele>62.601530</ele>
        <time>2026-05-09T13:17:22.961Z</time>
      </trkpt>
      <trkpt lat="51.912262" lon="6.192904">
        <ele>62.661424</ele>
        <time>2026-05-09T13:17:24.954Z</time>
      </trkpt>
      <trkpt lat="51.912159" lon="6.192822">
        <ele>62.722068</ele>
        <time>2026-05-09T13:17:26.960Z</time>
      </trkpt>
      <trkpt lat="51.912053" lon="6.192739">
        <ele>62.784281</ele>
        <time>2026-05-09T13:17:28.957Z</time>
      </trkpt>
      <trkpt lat="51.911948" lon="6.192658">
        <ele>62.833056</ele>
        <time>2026-05-09T13:17:30.960Z</time>
      </trkpt>
      <trkpt lat="51.911851" lon="6.192571">
        <ele>62.844659</ele>
        <time>2026-05-09T13:17:32.963Z</time>
      </trkpt>
      <trkpt lat="51.911757" lon="6.192477">
        <ele>62.856219</ele>
        <time>2026-05-09T13:17:34.961Z</time>
      </trkpt>
      <trkpt lat="51.911657" lon="6.192388">
        <ele>62.868160</ele>
        <time>2026-05-09T13:17:36.960Z</time>
      </trkpt>
      <trkpt lat="51.911555" lon="6.192298">
        <ele>62.880316</ele>
        <time>2026-05-09T13:17:38.956Z</time>
      </trkpt>
      <trkpt lat="51.911451" lon="6.192215">
        <ele>62.892449</ele>
        <time>2026-05-09T13:17:40.959Z</time>
      </trkpt>
      <trkpt lat="51.911355" lon="6.192124">
        <ele>62.904089</ele>
        <time>2026-05-09T13:17:42.959Z</time>
      </trkpt>
      <trkpt lat="51.911254" lon="6.192046">
        <ele>62.915799</ele>
        <time>2026-05-09T13:17:44.958Z</time>
      </trkpt>
      <trkpt lat="51.911157" lon="6.191960">
        <ele>62.927372</ele>
        <time>2026-05-09T13:17:46.965Z</time>
      </trkpt>
      <trkpt lat="51.911055" lon="6.191874">
        <ele>62.939406</ele>
        <time>2026-05-09T13:17:48.963Z</time>
      </trkpt>
      <trkpt lat="51.910954" lon="6.191790">
        <ele>62.951288</ele>
        <time>2026-05-09T13:17:50.958Z</time>
      </trkpt>
      <trkpt lat="51.910853" lon="6.191705">
        <ele>62.963199</ele>
        <time>2026-05-09T13:17:52.960Z</time>
      </trkpt>
      <trkpt lat="51.910756" lon="6.191636">
        <ele>62.974287</ele>
        <time>2026-05-09T13:17:54.957Z</time>
      </trkpt>
      <trkpt lat="51.910660" lon="6.191572">
        <ele>62.985152</ele>
        <time>2026-05-09T13:17:56.959Z</time>
      </trkpt>
      <trkpt lat="51.910561" lon="6.191512">
        <ele>62.996214</ele>
        <time>2026-05-09T13:17:58.958Z</time>
      </trkpt>
      <trkpt lat="51.910453" lon="6.191466">
        <ele>63.007903</ele>
        <time>2026-05-09T13:18:00.963Z</time>
      </trkpt>
      <trkpt lat="51.910347" lon="6.191412">
        <ele>63.011302</ele>
        <time>2026-05-09T13:18:02.959Z</time>
      </trkpt>
      <trkpt lat="51.910250" lon="6.191364">
        <ele>62.956908</ele>
        <time>2026-05-09T13:18:04.963Z</time>
      </trkpt>
      <trkpt lat="51.910148" lon="6.191317">
        <ele>62.900036</ele>
        <time>2026-05-09T13:18:06.961Z</time>
      </trkpt>
      <trkpt lat="51.910045" lon="6.191271">
        <ele>62.842736</ele>
        <time>2026-05-09T13:18:08.970Z</time>
      </trkpt>
      <trkpt lat="51.909941" lon="6.191219">
        <ele>62.784366</ele>
        <time>2026-05-09T13:18:10.961Z</time>
      </trkpt>
      <trkpt lat="51.909837" lon="6.191165">
        <ele>62.725796</ele>
        <time>2026-05-09T13:18:12.964Z</time>
      </trkpt>
      <trkpt lat="51.909741" lon="6.191114">
        <ele>62.671615</ele>
        <time>2026-05-09T13:18:14.962Z</time>
      </trkpt>
      <trkpt lat="51.909643" lon="6.191069">
        <ele>62.616987</ele>
        <time>2026-05-09T13:18:16.961Z</time>
      </trkpt>
      <trkpt lat="51.909545" lon="6.191026">
        <ele>62.562535</ele>
        <time>2026-05-09T13:18:18.959Z</time>
      </trkpt>
      <trkpt lat="51.909448" lon="6.190973">
        <ele>62.507636</ele>
        <time>2026-05-09T13:18:20.963Z</time>
      </trkpt>
      <trkpt lat="51.909357" lon="6.190916">
        <ele>62.455314</ele>
        <time>2026-05-09T13:18:22.961Z</time>
      </trkpt>
      <trkpt lat="51.909233" lon="6.190840">
        <ele>62.384214</ele>
        <time>2026-05-09T13:18:25.970Z</time>
      </trkpt>
      <trkpt lat="51.909180" lon="6.190657">
        <ele>62.317326</ele>
        <time>2026-05-09T13:18:28.970Z</time>
      </trkpt>
      <trkpt lat="51.909146" lon="6.190451">
        <ele>62.246771</ele>
        <time>2026-05-09T13:18:31.962Z</time>
      </trkpt>
      <trkpt lat="51.909147" lon="6.190291">
        <ele>62.193830</ele>
        <time>2026-05-09T13:18:33.963Z</time>
      </trkpt>
      <trkpt lat="51.909144" lon="6.190123">
        <ele>62.138221</ele>
        <time>2026-05-09T13:18:35.959Z</time>
      </trkpt>
      <trkpt lat="51.909145" lon="6.189964">
        <ele>62.085611</ele>
        <time>2026-05-09T13:18:37.955Z</time>
      </trkpt>
      <trkpt lat="51.909148" lon="6.189802">
        <ele>62.021774</ele>
        <time>2026-05-09T13:18:39.960Z</time>
      </trkpt>
      <trkpt lat="51.909148" lon="6.189634">
        <ele>61.939840</ele>
        <time>2026-05-09T13:18:41.958Z</time>
      </trkpt>
      <trkpt lat="51.909146" lon="6.189463">
        <ele>61.856427</ele>
        <time>2026-05-09T13:18:43.958Z</time>
      </trkpt>
      <trkpt lat="51.909146" lon="6.189299">
        <ele>61.776443</ele>
        <time>2026-05-09T13:18:45.957Z</time>
      </trkpt>
      <trkpt lat="51.909141" lon="6.189131">
        <ele>61.694414</ele>
        <time>2026-05-09T13:18:47.957Z</time>
      </trkpt>
      <trkpt lat="51.909138" lon="6.188972">
        <ele>61.616833</ele>
        <time>2026-05-09T13:18:49.958Z</time>
      </trkpt>
      <trkpt lat="51.909154" lon="6.188817">
        <ele>61.540187</ele>
        <time>2026-05-09T13:18:51.958Z</time>
      </trkpt>
      <trkpt lat="51.909187" lon="6.188672">
        <ele>61.464811</ele>
        <time>2026-05-09T13:18:53.957Z</time>
      </trkpt>
      <trkpt lat="51.909234" lon="6.188537">
        <ele>61.389211</ele>
        <time>2026-05-09T13:18:55.956Z</time>
      </trkpt>
      <trkpt lat="51.909284" lon="6.188346">
        <ele>61.288019</ele>
        <time>2026-05-09T13:18:58.964Z</time>
      </trkpt>
      <trkpt lat="51.909298" lon="6.188142">
        <ele>61.187914</ele>
        <time>2026-05-09T13:19:01.957Z</time>
      </trkpt>
      <trkpt lat="51.909268" lon="6.187928">
        <ele>61.080885</ele>
        <time>2026-05-09T13:19:04.959Z</time>
      </trkpt>
      <trkpt lat="51.909245" lon="6.187784">
        <ele>61.008340</ele>
        <time>2026-05-09T13:19:06.962Z</time>
      </trkpt>
      <trkpt lat="51.909236" lon="6.187625">
        <ele>60.930469</ele>
        <time>2026-05-09T13:19:08.961Z</time>
      </trkpt>
      <trkpt lat="51.909247" lon="6.187467">
        <ele>60.852923</ele>
        <time>2026-05-09T13:19:10.963Z</time>
      </trkpt>
      <trkpt lat="51.909270" lon="6.187322">
        <ele>60.779906</ele>
        <time>2026-05-09T13:19:12.957Z</time>
      </trkpt>
      <trkpt lat="51.909297" lon="6.187116">
        <ele>60.677197</ele>
        <time>2026-05-09T13:19:15.961Z</time>
      </trkpt>
      <trkpt lat="51.909332" lon="6.186913">
        <ele>60.615977</ele>
        <time>2026-05-09T13:19:18.955Z</time>
      </trkpt>
      <trkpt lat="51.909366" lon="6.186707">
        <ele>60.587575</ele>
        <time>2026-05-09T13:19:21.956Z</time>
      </trkpt>
      <trkpt lat="51.909407" lon="6.186520">
        <ele>60.561144</ele>
        <time>2026-05-09T13:19:24.960Z</time>
      </trkpt>
      <trkpt lat="51.909429" lon="6.186351">
        <ele>60.538140</ele>
        <time>2026-05-09T13:19:27.971Z</time>
      </trkpt>
      <trkpt lat="51.909350" lon="6.186273">
        <ele>60.518170</ele>
        <time>2026-05-09T13:19:32.963Z</time>
      </trkpt>
      <trkpt lat="51.909263" lon="6.186231">
        <ele>60.498572</ele>
        <time>2026-05-09T13:19:36.954Z</time>
      </trkpt>
      <trkpt lat="51.909196" lon="6.186109">
        <ele>60.476817</ele>
        <time>2026-05-09T13:19:39.961Z</time>
      </trkpt>
      <trkpt lat="51.909244" lon="6.185928">
        <ele>60.450578</ele>
        <time>2026-05-09T13:19:42.960Z</time>
      </trkpt>
      <trkpt lat="51.909293" lon="6.185798">
        <ele>60.430288</ele>
        <time>2026-05-09T13:19:44.959Z</time>
      </trkpt>
      <trkpt lat="51.909344" lon="6.185662">
        <ele>60.409091</ele>
        <time>2026-05-09T13:19:46.960Z</time>
      </trkpt>
      <trkpt lat="51.909399" lon="6.185532">
        <ele>60.388096</ele>
        <time>2026-05-09T13:19:48.959Z</time>
      </trkpt>
      <trkpt lat="51.909454" lon="6.185401">
        <ele>60.366991</ele>
        <time>2026-05-09T13:19:50.964Z</time>
      </trkpt>
      <trkpt lat="51.909503" lon="6.185268">
        <ele>60.346359</ele>
        <time>2026-05-09T13:19:52.958Z</time>
      </trkpt>
      <trkpt lat="51.909540" lon="6.185134">
        <ele>60.326807</ele>
        <time>2026-05-09T13:19:54.963Z</time>
      </trkpt>
      <trkpt lat="51.909578" lon="6.184999">
        <ele>60.307043</ele>
        <time>2026-05-09T13:19:56.962Z</time>
      </trkpt>
      <trkpt lat="51.909620" lon="6.184863">
        <ele>60.286787</ele>
        <time>2026-05-09T13:19:58.956Z</time>
      </trkpt>
      <trkpt lat="51.909665" lon="6.184720">
        <ele>60.265407</ele>
        <time>2026-05-09T13:20:00.957Z</time>
      </trkpt>
      <trkpt lat="51.909710" lon="6.184569">
        <ele>60.243415</ele>
        <time>2026-05-09T13:20:02.957Z</time>
      </trkpt>
      <trkpt lat="51.909755" lon="6.184414">
        <ele>60.257538</ele>
        <time>2026-05-09T13:20:04.964Z</time>
      </trkpt>
      <trkpt lat="51.909803" lon="6.184259">
        <ele>60.271837</ele>
        <time>2026-05-09T13:20:06.959Z</time>
      </trkpt>
      <trkpt lat="51.909850" lon="6.184104">
        <ele>60.286076</ele>
        <time>2026-05-09T13:20:08.957Z</time>
      </trkpt>
      <trkpt lat="51.909895" lon="6.183953">
        <ele>60.299902</ele>
        <time>2026-05-09T13:20:10.961Z</time>
      </trkpt>
      <trkpt lat="51.909941" lon="6.183806">
        <ele>60.313491</ele>
        <time>2026-05-09T13:20:12.956Z</time>
      </trkpt>
      <trkpt lat="51.909983" lon="6.183663">
        <ele>60.326549</ele>
        <time>2026-05-09T13:20:14.965Z</time>
      </trkpt>
      <trkpt lat="51.910024" lon="6.183517">
        <ele>60.339774</ele>
        <time>2026-05-09T13:20:16.964Z</time>
      </trkpt>
      <trkpt lat="51.910066" lon="6.183369">
        <ele>60.353205</ele>
        <time>2026-05-09T13:20:18.957Z</time>
      </trkpt>
      <trkpt lat="51.910111" lon="6.183222">
        <ele>60.366735</ele>
        <time>2026-05-09T13:20:20.964Z</time>
      </trkpt>
      <trkpt lat="51.910157" lon="6.183072">
        <ele>60.380545</ele>
        <time>2026-05-09T13:20:22.961Z</time>
      </trkpt>
      <trkpt lat="51.910204" lon="6.182917">
        <ele>60.394784</ele>
        <time>2026-05-09T13:20:24.961Z</time>
      </trkpt>
      <trkpt lat="51.910250" lon="6.182756">
        <ele>60.409412</ele>
        <time>2026-05-09T13:20:26.962Z</time>
      </trkpt>
      <trkpt lat="51.910293" lon="6.182601">
        <ele>60.423424</ele>
        <time>2026-05-09T13:20:28.964Z</time>
      </trkpt>
      <trkpt lat="51.910330" lon="6.182435">
        <ele>60.437976</ele>
        <time>2026-05-09T13:20:30.961Z</time>
      </trkpt>
      <trkpt lat="51.910356" lon="6.182260">
        <ele>60.452816</ele>
        <time>2026-05-09T13:20:32.963Z</time>
      </trkpt>
      <trkpt lat="51.910375" lon="6.182077">
        <ele>60.468115</ele>
        <time>2026-05-09T13:20:34.962Z</time>
      </trkpt>
      <trkpt lat="51.910390" lon="6.181896">
        <ele>60.483172</ele>
        <time>2026-05-09T13:20:36.962Z</time>
      </trkpt>
      <trkpt lat="51.910407" lon="6.181712">
        <ele>60.490894</ele>
        <time>2026-05-09T13:20:38.969Z</time>
      </trkpt>
      <trkpt lat="51.910442" lon="6.181531">
        <ele>60.498510</ele>
        <time>2026-05-09T13:20:40.960Z</time>
      </trkpt>
      <trkpt lat="51.910488" lon="6.181359">
        <ele>60.506038</ele>
        <time>2026-05-09T13:20:42.961Z</time>
      </trkpt>
      <trkpt lat="51.910535" lon="6.181196">
        <ele>60.513263</ele>
        <time>2026-05-09T13:20:44.960Z</time>
      </trkpt>
      <trkpt lat="51.910575" lon="6.181026">
        <ele>60.520568</ele>
        <time>2026-05-09T13:20:46.961Z</time>
      </trkpt>
      <trkpt lat="51.910620" lon="6.180857">
        <ele>60.527959</ele>
        <time>2026-05-09T13:20:48.961Z</time>
      </trkpt>
      <trkpt lat="51.910667" lon="6.180685">
        <ele>60.535513</ele>
        <time>2026-05-09T13:20:50.960Z</time>
      </trkpt>
      <trkpt lat="51.910719" lon="6.180523">
        <ele>60.542846</ele>
        <time>2026-05-09T13:20:52.960Z</time>
      </trkpt>
      <trkpt lat="51.910787" lon="6.180380">
        <ele>60.550096</ele>
        <time>2026-05-09T13:20:54.961Z</time>
      </trkpt>
      <trkpt lat="51.910859" lon="6.180244">
        <ele>60.557292</ele>
        <time>2026-05-09T13:20:56.958Z</time>
      </trkpt>
      <trkpt lat="51.910934" lon="6.180110">
        <ele>60.564557</ele>
        <time>2026-05-09T13:20:58.960Z</time>
      </trkpt>
      <trkpt lat="51.910999" lon="6.179963">
        <ele>60.571819</ele>
        <time>2026-05-09T13:21:00.958Z</time>
      </trkpt>
      <trkpt lat="51.911052" lon="6.179801">
        <ele>60.579182</ele>
        <time>2026-05-09T13:21:02.962Z</time>
      </trkpt>
      <trkpt lat="51.911095" lon="6.179638">
        <ele>60.586301</ele>
        <time>2026-05-09T13:21:04.964Z</time>
      </trkpt>
      <trkpt lat="51.911136" lon="6.179480">
        <ele>60.593183</ele>
        <time>2026-05-09T13:21:06.955Z</time>
      </trkpt>
      <trkpt lat="51.911172" lon="6.179320">
        <ele>60.600022</ele>
        <time>2026-05-09T13:21:08.954Z</time>
      </trkpt>
      <trkpt lat="51.911214" lon="6.179165">
        <ele>60.565272</ele>
        <time>2026-05-09T13:21:10.955Z</time>
      </trkpt>
      <trkpt lat="51.911252" lon="6.179006">
        <ele>60.525358</ele>
        <time>2026-05-09T13:21:12.956Z</time>
      </trkpt>
      <trkpt lat="51.911289" lon="6.178847">
        <ele>60.485579</ele>
        <time>2026-05-09T13:21:14.955Z</time>
      </trkpt>
      <trkpt lat="51.911329" lon="6.178690">
        <ele>60.445817</ele>
        <time>2026-05-09T13:21:16.957Z</time>
      </trkpt>
      <trkpt lat="51.911367" lon="6.178537">
        <ele>60.407209</ele>
        <time>2026-05-09T13:21:18.957Z</time>
      </trkpt>
      <trkpt lat="51.911407" lon="6.178383">
        <ele>60.368096</ele>
        <time>2026-05-09T13:21:20.961Z</time>
      </trkpt>
      <trkpt lat="51.911443" lon="6.178224">
        <ele>60.328450</ele>
        <time>2026-05-09T13:21:22.958Z</time>
      </trkpt>
      <trkpt lat="51.911485" lon="6.178060">
        <ele>60.286884</ele>
        <time>2026-05-09T13:21:24.960Z</time>
      </trkpt>
      <trkpt lat="51.911522" lon="6.177893">
        <ele>60.245348</ele>
        <time>2026-05-09T13:21:26.958Z</time>
      </trkpt>
      <trkpt lat="51.911564" lon="6.177728">
        <ele>60.203566</ele>
        <time>2026-05-09T13:21:28.960Z</time>
      </trkpt>
      <trkpt lat="51.911606" lon="6.177556">
        <ele>60.160265</ele>
        <time>2026-05-09T13:21:30.964Z</time>
      </trkpt>
      <trkpt lat="51.911646" lon="6.177384">
        <ele>60.117238</ele>
        <time>2026-05-09T13:21:32.953Z</time>
      </trkpt>
      <trkpt lat="51.911690" lon="6.177221">
        <ele>60.075590</ele>
        <time>2026-05-09T13:21:34.957Z</time>
      </trkpt>
      <trkpt lat="51.911730" lon="6.177049">
        <ele>60.032562</ele>
        <time>2026-05-09T13:21:36.959Z</time>
      </trkpt>
      <trkpt lat="51.911769" lon="6.176873">
        <ele>59.988787</ele>
        <time>2026-05-09T13:21:38.959Z</time>
      </trkpt>
      <trkpt lat="51.911812" lon="6.176700">
        <ele>59.945128</ele>
        <time>2026-05-09T13:21:40.957Z</time>
      </trkpt>
      <trkpt lat="51.911856" lon="6.176536">
        <ele>59.919972</ele>
        <time>2026-05-09T13:21:42.959Z</time>
      </trkpt>
      <trkpt lat="51.911897" lon="6.176374">
        <ele>59.924751</ele>
        <time>2026-05-09T13:21:44.956Z</time>
      </trkpt>
      <trkpt lat="51.911937" lon="6.176209">
        <ele>59.929588</ele>
        <time>2026-05-09T13:21:46.964Z</time>
      </trkpt>
      <trkpt lat="51.911980" lon="6.176041">
        <ele>59.934552</ele>
        <time>2026-05-09T13:21:48.956Z</time>
      </trkpt>
      <trkpt lat="51.912019" lon="6.175875">
        <ele>59.939399</ele>
        <time>2026-05-09T13:21:50.960Z</time>
      </trkpt>
      <trkpt lat="51.912057" lon="6.175708">
        <ele>59.944257</ele>
        <time>2026-05-09T13:21:52.961Z</time>
      </trkpt>
      <trkpt lat="51.912101" lon="6.175544">
        <ele>59.949137</ele>
        <time>2026-05-09T13:21:54.963Z</time>
      </trkpt>
      <trkpt lat="51.912144" lon="6.175379">
        <ele>59.954025</ele>
        <time>2026-05-09T13:21:56.958Z</time>
      </trkpt>
      <trkpt lat="51.912184" lon="6.175207">
        <ele>59.959041</ele>
        <time>2026-05-09T13:21:58.958Z</time>
      </trkpt>
      <trkpt lat="51.912228" lon="6.175038">
        <ele>59.964047</ele>
        <time>2026-05-09T13:22:00.958Z</time>
      </trkpt>
      <trkpt lat="51.912271" lon="6.174864">
        <ele>59.969162</ele>
        <time>2026-05-09T13:22:02.960Z</time>
      </trkpt>
      <trkpt lat="51.912314" lon="6.174696">
        <ele>59.974125</ele>
        <time>2026-05-09T13:22:04.962Z</time>
      </trkpt>
      <trkpt lat="51.912353" lon="6.174532">
        <ele>59.978921</ele>
        <time>2026-05-09T13:22:06.961Z</time>
      </trkpt>
      <trkpt lat="51.912387" lon="6.174369">
        <ele>59.983617</ele>
        <time>2026-05-09T13:22:08.957Z</time>
      </trkpt>
      <trkpt lat="51.912421" lon="6.174219">
        <ele>59.987978</ele>
        <time>2026-05-09T13:22:10.955Z</time>
      </trkpt>
      <trkpt lat="51.912457" lon="6.174067">
        <ele>59.992421</ele>
        <time>2026-05-09T13:22:12.954Z</time>
      </trkpt>
      <trkpt lat="51.912495" lon="6.173911">
        <ele>59.996998</ele>
        <time>2026-05-09T13:22:14.963Z</time>
      </trkpt>
      <trkpt lat="51.912537" lon="6.173747">
        <ele>59.969087</ele>
        <time>2026-05-09T13:22:16.961Z</time>
      </trkpt>
      <trkpt lat="51.912576" lon="6.173588">
        <ele>59.935976</ele>
        <time>2026-05-09T13:22:18.959Z</time>
      </trkpt>
      <trkpt lat="51.912612" lon="6.173429">
        <ele>59.903201</ele>
        <time>2026-05-09T13:22:20.958Z</time>
      </trkpt>
      <trkpt lat="51.912650" lon="6.173265">
        <ele>59.869301</ele>
        <time>2026-05-09T13:22:22.959Z</time>
      </trkpt>
      <trkpt lat="51.912677" lon="6.173093">
        <ele>59.834956</ele>
        <time>2026-05-09T13:22:24.957Z</time>
      </trkpt>
      <trkpt lat="51.912693" lon="6.172907">
        <ele>59.798616</ele>
        <time>2026-05-09T13:22:26.959Z</time>
      </trkpt>
      <trkpt lat="51.912700" lon="6.172713">
        <ele>59.761011</ele>
        <time>2026-05-09T13:22:28.959Z</time>
      </trkpt>
      <trkpt lat="51.912702" lon="6.172519">
        <ele>59.723465</ele>
        <time>2026-05-09T13:22:30.956Z</time>
      </trkpt>
      <trkpt lat="51.912717" lon="6.172320">
        <ele>59.684670</ele>
        <time>2026-05-09T13:22:32.953Z</time>
      </trkpt>
      <trkpt lat="51.912743" lon="6.172144">
        <ele>59.649650</ele>
        <time>2026-05-09T13:22:34.958Z</time>
      </trkpt>
      <trkpt lat="51.912783" lon="6.171977">
        <ele>59.614983</ele>
        <time>2026-05-09T13:22:36.959Z</time>
      </trkpt>
      <trkpt lat="51.912831" lon="6.171825">
        <ele>59.581940</ele>
        <time>2026-05-09T13:22:38.964Z</time>
      </trkpt>
      <trkpt lat="51.912882" lon="6.171672">
        <ele>59.548287</ele>
        <time>2026-05-09T13:22:40.955Z</time>
      </trkpt>
      <trkpt lat="51.912943" lon="6.171529">
        <ele>59.514644</ele>
        <time>2026-05-09T13:22:42.959Z</time>
      </trkpt>
      <trkpt lat="51.913005" lon="6.171392">
        <ele>59.481764</ele>
        <time>2026-05-09T13:22:44.957Z</time>
      </trkpt>
      <trkpt lat="51.913060" lon="6.171256">
        <ele>59.450296</ele>
        <time>2026-05-09T13:22:46.956Z</time>
      </trkpt>
      <trkpt lat="51.913113" lon="6.171118">
        <ele>59.423575</ele>
        <time>2026-05-09T13:22:48.957Z</time>
      </trkpt>
      <trkpt lat="51.913169" lon="6.170979">
        <ele>59.401782</ele>
        <time>2026-05-09T13:22:50.962Z</time>
      </trkpt>
      <trkpt lat="51.913221" lon="6.170829">
        <ele>59.379196</ele>
        <time>2026-05-09T13:22:52.954Z</time>
      </trkpt>
      <trkpt lat="51.913273" lon="6.170676">
        <ele>59.356265</ele>
        <time>2026-05-09T13:22:54.961Z</time>
      </trkpt>
      <trkpt lat="51.913326" lon="6.170515">
        <ele>59.332310</ele>
        <time>2026-05-09T13:22:56.975Z</time>
      </trkpt>
      <trkpt lat="51.913369" lon="6.170358">
        <ele>59.309761</ele>
        <time>2026-05-09T13:22:58.957Z</time>
      </trkpt>
      <trkpt lat="51.913413" lon="6.170197">
        <ele>59.286646</ele>
        <time>2026-05-09T13:23:00.953Z</time>
      </trkpt>
      <trkpt lat="51.913453" lon="6.170027">
        <ele>59.262762</ele>
        <time>2026-05-09T13:23:02.960Z</time>
      </trkpt>
      <trkpt lat="51.913493" lon="6.169845">
        <ele>59.237401</ele>
        <time>2026-05-09T13:23:04.955Z</time>
      </trkpt>
      <trkpt lat="51.913538" lon="6.169663">
        <ele>59.211663</ele>
        <time>2026-05-09T13:23:06.955Z</time>
      </trkpt>
      <trkpt lat="51.913589" lon="6.169487">
        <ele>59.186138</ele>
        <time>2026-05-09T13:23:08.960Z</time>
      </trkpt>
      <trkpt lat="51.913633" lon="6.169308">
        <ele>59.160844</ele>
        <time>2026-05-09T13:23:10.955Z</time>
      </trkpt>
      <trkpt lat="51.913675" lon="6.169133">
        <ele>59.136195</ele>
        <time>2026-05-09T13:23:12.959Z</time>
      </trkpt>
      <trkpt lat="51.913722" lon="6.168953">
        <ele>59.110538</ele>
        <time>2026-05-09T13:23:14.962Z</time>
      </trkpt>
      <trkpt lat="51.913765" lon="6.168769">
        <ele>59.084710</ele>
        <time>2026-05-09T13:23:16.956Z</time>
      </trkpt>
      <trkpt lat="51.913805" lon="6.168586">
        <ele>59.059225</ele>
        <time>2026-05-09T13:23:18.966Z</time>
      </trkpt>
      <trkpt lat="51.913842" lon="6.168401">
        <ele>59.031672</ele>
        <time>2026-05-09T13:23:20.959Z</time>
      </trkpt>
      <trkpt lat="51.913871" lon="6.168214">
        <ele>59.003368</ele>
        <time>2026-05-09T13:23:22.954Z</time>
      </trkpt>
      <trkpt lat="51.913888" lon="6.168023">
        <ele>58.975042</ele>
        <time>2026-05-09T13:23:24.957Z</time>
      </trkpt>
      <trkpt lat="51.913904" lon="6.167835">
        <ele>58.947184</ele>
        <time>2026-05-09T13:23:26.958Z</time>
      </trkpt>
      <trkpt lat="51.913907" lon="6.167642">
        <ele>58.918845</ele>
        <time>2026-05-09T13:23:28.956Z</time>
      </trkpt>
      <trkpt lat="51.913911" lon="6.167447">
        <ele>58.890206</ele>
        <time>2026-05-09T13:23:30.958Z</time>
      </trkpt>
      <trkpt lat="51.913913" lon="6.167255">
        <ele>58.862018</ele>
        <time>2026-05-09T13:23:32.957Z</time>
      </trkpt>
      <trkpt lat="51.913911" lon="6.167069">
        <ele>58.834712</ele>
        <time>2026-05-09T13:23:34.956Z</time>
      </trkpt>
      <trkpt lat="51.913906" lon="6.166885">
        <ele>58.807677</ele>
        <time>2026-05-09T13:23:36.965Z</time>
      </trkpt>
      <trkpt lat="51.913895" lon="6.166701">
        <ele>58.780541</ele>
        <time>2026-05-09T13:23:38.958Z</time>
      </trkpt>
      <trkpt lat="51.913883" lon="6.166521">
        <ele>58.753965</ele>
        <time>2026-05-09T13:23:40.959Z</time>
      </trkpt>
      <trkpt lat="51.913866" lon="6.166355">
        <ele>58.729265</ele>
        <time>2026-05-09T13:23:42.963Z</time>
      </trkpt>
      <trkpt lat="51.913849" lon="6.166194">
        <ele>58.705289</ele>
        <time>2026-05-09T13:23:44.958Z</time>
      </trkpt>
      <trkpt lat="51.913836" lon="6.166023">
        <ele>58.679998</ele>
        <time>2026-05-09T13:23:46.962Z</time>
      </trkpt>
      <trkpt lat="51.913812" lon="6.165852">
        <ele>58.654256</ele>
        <time>2026-05-09T13:23:48.956Z</time>
      </trkpt>
      <trkpt lat="51.913784" lon="6.165675">
        <ele>58.627433</ele>
        <time>2026-05-09T13:23:50.955Z</time>
      </trkpt>
      <trkpt lat="51.913756" lon="6.165499">
        <ele>58.618309</ele>
        <time>2026-05-09T13:23:52.961Z</time>
      </trkpt>
      <trkpt lat="51.913725" lon="6.165319">
        <ele>58.612725</ele>
        <time>2026-05-09T13:23:54.961Z</time>
      </trkpt>
      <trkpt lat="51.913699" lon="6.165139">
        <ele>58.607201</ele>
        <time>2026-05-09T13:23:56.956Z</time>
      </trkpt>
      <trkpt lat="51.913690" lon="6.164960">
        <ele>58.601834</ele>
        <time>2026-05-09T13:23:58.956Z</time>
      </trkpt>
      <trkpt lat="51.913696" lon="6.164781">
        <ele>58.596477</ele>
        <time>2026-05-09T13:24:00.959Z</time>
      </trkpt>
      <trkpt lat="51.913712" lon="6.164621">
        <ele>58.591634</ele>
        <time>2026-05-09T13:24:02.959Z</time>
      </trkpt>
      <trkpt lat="51.913742" lon="6.164483">
        <ele>58.587261</ele>
        <time>2026-05-09T13:24:04.959Z</time>
      </trkpt>
      <trkpt lat="51.913806" lon="6.164310">
        <ele>58.581234</ele>
        <time>2026-05-09T13:24:07.960Z</time>
      </trkpt>
      <trkpt lat="51.913866" lon="6.164162">
        <ele>58.575941</ele>
        <time>2026-05-09T13:24:11.958Z</time>
      </trkpt>
      <trkpt lat="51.913923" lon="6.164005">
        <ele>58.570498</ele>
        <time>2026-05-09T13:24:17.953Z</time>
      </trkpt>
      <trkpt lat="51.913885" lon="6.163846">
        <ele>58.565402</ele>
        <time>2026-05-09T13:24:20.964Z</time>
      </trkpt>
      <trkpt lat="51.913785" lon="6.163704">
        <ele>58.558962</ele>
        <time>2026-05-09T13:24:23.961Z</time>
      </trkpt>
      <trkpt lat="51.913713" lon="6.163598">
        <ele>58.554251</ele>
        <time>2026-05-09T13:24:25.957Z</time>
      </trkpt>
      <trkpt lat="51.913645" lon="6.163492">
        <ele>58.549681</ele>
        <time>2026-05-09T13:24:27.958Z</time>
      </trkpt>
      <trkpt lat="51.913578" lon="6.163376">
        <ele>58.544932</ele>
        <time>2026-05-09T13:24:29.962Z</time>
      </trkpt>
      <trkpt lat="51.913511" lon="6.163255">
        <ele>58.540074</ele>
        <time>2026-05-09T13:24:31.964Z</time>
      </trkpt>
      <trkpt lat="51.913446" lon="6.163122">
        <ele>58.530595</ele>
        <time>2026-05-09T13:24:33.956Z</time>
      </trkpt>
      <trkpt lat="51.913381" lon="6.162984">
        <ele>58.490865</ele>
        <time>2026-05-09T13:24:35.963Z</time>
      </trkpt>
      <trkpt lat="51.913325" lon="6.162838">
        <ele>58.451525</ele>
        <time>2026-05-09T13:24:37.961Z</time>
      </trkpt>
      <trkpt lat="51.913272" lon="6.162686">
        <ele>58.411573</ele>
        <time>2026-05-09T13:24:39.961Z</time>
      </trkpt>
      <trkpt lat="51.913221" lon="6.162528">
        <ele>58.370768</ele>
        <time>2026-05-09T13:24:41.955Z</time>
      </trkpt>
      <trkpt lat="51.913176" lon="6.162364">
        <ele>58.329697</ele>
        <time>2026-05-09T13:24:43.961Z</time>
      </trkpt>
      <trkpt lat="51.913136" lon="6.162200">
        <ele>58.289343</ele>
        <time>2026-05-09T13:24:45.961Z</time>
      </trkpt>
      <trkpt lat="51.913098" lon="6.162035">
        <ele>58.249042</ele>
        <time>2026-05-09T13:24:47.960Z</time>
      </trkpt>
      <trkpt lat="51.913062" lon="6.161869">
        <ele>58.208779</ele>
        <time>2026-05-09T13:24:49.960Z</time>
      </trkpt>
      <trkpt lat="51.913025" lon="6.161708">
        <ele>58.169465</ele>
        <time>2026-05-09T13:24:51.960Z</time>
      </trkpt>
      <trkpt lat="51.912987" lon="6.161546">
        <ele>58.129806</ele>
        <time>2026-05-09T13:24:53.959Z</time>
      </trkpt>
      <trkpt lat="51.912949" lon="6.161380">
        <ele>58.089291</ele>
        <time>2026-05-09T13:24:55.959Z</time>
      </trkpt>
      <trkpt lat="51.912914" lon="6.161206">
        <ele>58.047412</ele>
        <time>2026-05-09T13:24:57.960Z</time>
      </trkpt>
      <trkpt lat="51.912877" lon="6.161037">
        <ele>58.006378</ele>
        <time>2026-05-09T13:24:59.959Z</time>
      </trkpt>
      <trkpt lat="51.912838" lon="6.160862">
        <ele>57.963801</ele>
        <time>2026-05-09T13:25:01.967Z</time>
      </trkpt>
      <trkpt lat="51.912799" lon="6.160684">
        <ele>57.920578</ele>
        <time>2026-05-09T13:25:03.955Z</time>
      </trkpt>
      <trkpt lat="51.912761" lon="6.160506">
        <ele>57.877477</ele>
        <time>2026-05-09T13:25:05.958Z</time>
      </trkpt>
      <trkpt lat="51.912723" lon="6.160331">
        <ele>57.878954</ele>
        <time>2026-05-09T13:25:07.953Z</time>
      </trkpt>
      <trkpt lat="51.912684" lon="6.160157">
        <ele>57.892244</ele>
        <time>2026-05-09T13:25:09.966Z</time>
      </trkpt>
      <trkpt lat="51.912645" lon="6.159978">
        <ele>57.905872</ele>
        <time>2026-05-09T13:25:11.959Z</time>
      </trkpt>
      <trkpt lat="51.912602" lon="6.159795">
        <ele>57.919929</ele>
        <time>2026-05-09T13:25:13.958Z</time>
      </trkpt>
      <trkpt lat="51.912563" lon="6.159611">
        <ele>57.933896</ele>
        <time>2026-05-09T13:25:15.959Z</time>
      </trkpt>
      <trkpt lat="51.912522" lon="6.159437">
        <ele>57.947266</ele>
        <time>2026-05-09T13:25:17.959Z</time>
      </trkpt>
      <trkpt lat="51.912483" lon="6.159257">
        <ele>57.960962</ele>
        <time>2026-05-09T13:25:19.960Z</time>
      </trkpt>
      <trkpt lat="51.912442" lon="6.159067">
        <ele>57.975411</ele>
        <time>2026-05-09T13:25:21.956Z</time>
      </trkpt>
      <trkpt lat="51.912402" lon="6.158881">
        <ele>57.989552</ele>
        <time>2026-05-09T13:25:23.960Z</time>
      </trkpt>
      <trkpt lat="51.912360" lon="6.158696">
        <ele>58.003703</ele>
        <time>2026-05-09T13:25:25.955Z</time>
      </trkpt>
      <trkpt lat="51.912318" lon="6.158512">
        <ele>58.017787</ele>
        <time>2026-05-09T13:25:27.956Z</time>
      </trkpt>
      <trkpt lat="51.912277" lon="6.158325">
        <ele>58.032034</ele>
        <time>2026-05-09T13:25:29.963Z</time>
      </trkpt>
      <trkpt lat="51.912228" lon="6.158135">
        <ele>58.046817</ele>
        <time>2026-05-09T13:25:31.956Z</time>
      </trkpt>
      <trkpt lat="51.912180" lon="6.157939">
        <ele>58.061955</ele>
        <time>2026-05-09T13:25:33.957Z</time>
      </trkpt>
      <trkpt lat="51.912132" lon="6.157746">
        <ele>58.076894</ele>
        <time>2026-05-09T13:25:35.957Z</time>
      </trkpt>
      <trkpt lat="51.912082" lon="6.157552">
        <ele>58.134548</ele>
        <time>2026-05-09T13:25:37.962Z</time>
      </trkpt>
      <trkpt lat="51.912034" lon="6.157364">
        <ele>58.192897</ele>
        <time>2026-05-09T13:25:39.961Z</time>
      </trkpt>
      <trkpt lat="51.911990" lon="6.157188">
        <ele>58.247356</ele>
        <time>2026-05-09T13:25:41.961Z</time>
      </trkpt>
      <trkpt lat="51.911947" lon="6.157023">
        <ele>58.298723</ele>
        <time>2026-05-09T13:25:43.954Z</time>
      </trkpt>
      <trkpt lat="51.911900" lon="6.156860">
        <ele>58.350322</ele>
        <time>2026-05-09T13:25:45.960Z</time>
      </trkpt>
      <trkpt lat="51.911853" lon="6.156698">
        <ele>58.401661</ele>
        <time>2026-05-09T13:25:47.962Z</time>
      </trkpt>
      <trkpt lat="51.911801" lon="6.156541">
        <ele>58.452764</ele>
        <time>2026-05-09T13:25:49.959Z</time>
      </trkpt>
      <trkpt lat="51.911746" lon="6.156379">
        <ele>58.505793</ele>
        <time>2026-05-09T13:25:51.960Z</time>
      </trkpt>
      <trkpt lat="51.911687" lon="6.156227">
        <ele>58.557295</ele>
        <time>2026-05-09T13:25:53.955Z</time>
      </trkpt>
      <trkpt lat="51.911632" lon="6.156068">
        <ele>58.609572</ele>
        <time>2026-05-09T13:25:55.959Z</time>
      </trkpt>
      <trkpt lat="51.911568" lon="6.155921">
        <ele>58.661170</ele>
        <time>2026-05-09T13:25:57.954Z</time>
      </trkpt>
      <trkpt lat="51.911502" lon="6.155777">
        <ele>58.712617</ele>
        <time>2026-05-09T13:25:59.955Z</time>
      </trkpt>
      <trkpt lat="51.911434" lon="6.155635">
        <ele>58.764169</ele>
        <time>2026-05-09T13:26:01.953Z</time>
      </trkpt>
      <trkpt lat="51.911367" lon="6.155493">
        <ele>58.815438</ele>
        <time>2026-05-09T13:26:03.959Z</time>
      </trkpt>
      <trkpt lat="51.911299" lon="6.155365">
        <ele>58.863881</ele>
        <time>2026-05-09T13:26:05.959Z</time>
      </trkpt>
      <trkpt lat="51.911229" lon="6.155251">
        <ele>58.910009</ele>
        <time>2026-05-09T13:26:07.956Z</time>
      </trkpt>
      <trkpt lat="51.911153" lon="6.155129">
        <ele>59.089372</ele>
        <time>2026-05-09T13:26:09.966Z</time>
      </trkpt>
      <trkpt lat="51.911077" lon="6.155005">
        <ele>59.281410</ele>
        <time>2026-05-09T13:26:11.965Z</time>
      </trkpt>
      <trkpt lat="51.910995" lon="6.154883">
        <ele>59.479631</ele>
        <time>2026-05-09T13:26:13.960Z</time>
      </trkpt>
      <trkpt lat="51.910912" lon="6.154766">
        <ele>59.675520</ele>
        <time>2026-05-09T13:26:15.959Z</time>
      </trkpt>
      <trkpt lat="51.910831" lon="6.154658">
        <ele>59.862304</ele>
        <time>2026-05-09T13:26:17.959Z</time>
      </trkpt>
      <trkpt lat="51.910746" lon="6.154548">
        <ele>60.056006</ele>
        <time>2026-05-09T13:26:19.956Z</time>
      </trkpt>
      <trkpt lat="51.910657" lon="6.154443">
        <ele>60.252043</ele>
        <time>2026-05-09T13:26:21.958Z</time>
      </trkpt>
      <trkpt lat="51.910565" lon="6.154340">
        <ele>60.451168</ele>
        <time>2026-05-09T13:26:23.957Z</time>
      </trkpt>
      <trkpt lat="51.910471" lon="6.154252">
        <ele>60.644488</ele>
        <time>2026-05-09T13:26:25.956Z</time>
      </trkpt>
      <trkpt lat="51.910375" lon="6.154162">
        <ele>60.841991</ele>
        <time>2026-05-09T13:26:27.960Z</time>
      </trkpt>
      <trkpt lat="51.910281" lon="6.154076">
        <ele>61.034222</ele>
        <time>2026-05-09T13:26:29.964Z</time>
      </trkpt>
      <trkpt lat="51.910183" lon="6.153993">
        <ele>61.231139</ele>
        <time>2026-05-09T13:26:31.957Z</time>
      </trkpt>
      <trkpt lat="51.910087" lon="6.153915">
        <ele>61.422383</ele>
        <time>2026-05-09T13:26:33.962Z</time>
      </trkpt>
      <trkpt lat="51.909994" lon="6.153840">
        <ele>61.607375</ele>
        <time>2026-05-09T13:26:35.956Z</time>
      </trkpt>
      <trkpt lat="51.909898" lon="6.153773">
        <ele>61.793517</ele>
        <time>2026-05-09T13:26:37.960Z</time>
      </trkpt>
      <trkpt lat="51.909804" lon="6.153703">
        <ele>61.977745</ele>
        <time>2026-05-09T13:26:39.962Z</time>
      </trkpt>
      <trkpt lat="51.909712" lon="6.153636">
        <ele>62.149998</ele>
        <time>2026-05-09T13:26:41.962Z</time>
      </trkpt>
      <trkpt lat="51.909620" lon="6.153571">
        <ele>62.295934</ele>
        <time>2026-05-09T13:26:43.961Z</time>
      </trkpt>
      <trkpt lat="51.909530" lon="6.153503">
        <ele>62.440324</ele>
        <time>2026-05-09T13:26:45.968Z</time>
      </trkpt>
      <trkpt lat="51.909445" lon="6.153441">
        <ele>62.575863</ele>
        <time>2026-05-09T13:26:47.961Z</time>
      </trkpt>
      <trkpt lat="51.909359" lon="6.153374">
        <ele>62.714613</ele>
        <time>2026-05-09T13:26:49.960Z</time>
      </trkpt>
      <trkpt lat="51.909240" lon="6.153286">
        <ele>62.904812</ele>
        <time>2026-05-09T13:26:52.961Z</time>
      </trkpt>
      <trkpt lat="51.909123" lon="6.153202">
        <ele>63.090887</ele>
        <time>2026-05-09T13:26:55.964Z</time>
      </trkpt>
      <trkpt lat="51.909007" lon="6.153120">
        <ele>63.274909</ele>
        <time>2026-05-09T13:26:58.960Z</time>
      </trkpt>
      <trkpt lat="51.908894" lon="6.153045">
        <ele>63.452467</ele>
        <time>2026-05-09T13:27:01.954Z</time>
      </trkpt>
      <trkpt lat="51.908785" lon="6.152973">
        <ele>63.623624</ele>
        <time>2026-05-09T13:27:04.958Z</time>
      </trkpt>
      <trkpt lat="51.908671" lon="6.152907">
        <ele>63.799652</ele>
        <time>2026-05-09T13:27:07.956Z</time>
      </trkpt>
      <trkpt lat="51.908557" lon="6.152831">
        <ele>63.978896</ele>
        <time>2026-05-09T13:27:10.959Z</time>
      </trkpt>
      <trkpt lat="51.908441" lon="6.152738">
        <ele>64.167081</ele>
        <time>2026-05-09T13:27:13.960Z</time>
      </trkpt>
      <trkpt lat="51.908355" lon="6.152675">
        <ele>64.304315</ele>
        <time>2026-05-09T13:27:15.964Z</time>
      </trkpt>
      <trkpt lat="51.908269" lon="6.152612">
        <ele>64.441549</ele>
        <time>2026-05-09T13:27:17.957Z</time>
      </trkpt>
      <trkpt lat="51.908182" lon="6.152545">
        <ele>64.581611</ele>
        <time>2026-05-09T13:27:19.964Z</time>
      </trkpt>
      <trkpt lat="51.908092" lon="6.152480">
        <ele>64.724886</ele>
        <time>2026-05-09T13:27:21.958Z</time>
      </trkpt>
      <trkpt lat="51.908001" lon="6.152416">
        <ele>64.529530</ele>
        <time>2026-05-09T13:27:23.957Z</time>
      </trkpt>
      <trkpt lat="51.907908" lon="6.152353">
        <ele>64.311306</ele>
        <time>2026-05-09T13:27:25.960Z</time>
      </trkpt>
      <trkpt lat="51.907814" lon="6.152279">
        <ele>64.085062</ele>
        <time>2026-05-09T13:27:27.957Z</time>
      </trkpt>
      <trkpt lat="51.907717" lon="6.152200">
        <ele>63.850036</ele>
        <time>2026-05-09T13:27:29.956Z</time>
      </trkpt>
      <trkpt lat="51.907621" lon="6.152121">
        <ele>63.616942</ele>
        <time>2026-05-09T13:27:31.956Z</time>
      </trkpt>
      <trkpt lat="51.907522" lon="6.152050">
        <ele>63.382562</ele>
        <time>2026-05-09T13:27:33.963Z</time>
      </trkpt>
      <trkpt lat="51.907423" lon="6.151976">
        <ele>63.146532</ele>
        <time>2026-05-09T13:27:35.963Z</time>
      </trkpt>
      <trkpt lat="51.907319" lon="6.151902">
        <ele>62.900630</ele>
        <time>2026-05-09T13:27:37.958Z</time>
      </trkpt>
      <trkpt lat="51.907213" lon="6.151823">
        <ele>62.648041</ele>
        <time>2026-05-09T13:27:39.960Z</time>
      </trkpt>
      <trkpt lat="51.907103" lon="6.151750">
        <ele>62.390700</ele>
        <time>2026-05-09T13:27:41.961Z</time>
      </trkpt>
      <trkpt lat="51.906995" lon="6.151671">
        <ele>62.134171</ele>
        <time>2026-05-09T13:27:43.961Z</time>
      </trkpt>
      <trkpt lat="51.906883" lon="6.151589">
        <ele>61.868099</ele>
        <time>2026-05-09T13:27:45.962Z</time>
      </trkpt>
      <trkpt lat="51.906767" lon="6.151506">
        <ele>61.593575</ele>
        <time>2026-05-09T13:27:47.960Z</time>
      </trkpt>
      <trkpt lat="51.906652" lon="6.151422">
        <ele>61.320483</ele>
        <time>2026-05-09T13:27:49.956Z</time>
      </trkpt>
      <trkpt lat="51.906538" lon="6.151339">
        <ele>61.049915</ele>
        <time>2026-05-09T13:27:51.963Z</time>
      </trkpt>
      <trkpt lat="51.906422" lon="6.151246">
        <ele>60.799140</ele>
        <time>2026-05-09T13:27:53.962Z</time>
      </trkpt>
      <trkpt lat="51.906311" lon="6.151144">
        <ele>60.640912</ele>
        <time>2026-05-09T13:27:55.958Z</time>
      </trkpt>
      <trkpt lat="51.906205" lon="6.151027">
        <ele>60.481882</ele>
        <time>2026-05-09T13:27:57.960Z</time>
      </trkpt>
      <trkpt lat="51.906098" lon="6.150911">
        <ele>60.322253</ele>
        <time>2026-05-09T13:27:59.959Z</time>
      </trkpt>
      <trkpt lat="51.906001" lon="6.150789">
        <ele>60.170001</ele>
        <time>2026-05-09T13:28:01.958Z</time>
      </trkpt>
      <trkpt lat="51.905912" lon="6.150643">
        <ele>60.012975</ele>
        <time>2026-05-09T13:28:03.957Z</time>
      </trkpt>
      <trkpt lat="51.905828" lon="6.150491">
        <ele>59.856855</ele>
        <time>2026-05-09T13:28:05.957Z</time>
      </trkpt>
      <trkpt lat="51.905739" lon="6.150338">
        <ele>59.695975</ele>
        <time>2026-05-09T13:28:07.957Z</time>
      </trkpt>
      <trkpt lat="51.905665" lon="6.150163">
        <ele>59.533659</ele>
        <time>2026-05-09T13:28:09.959Z</time>
      </trkpt>
      <trkpt lat="51.905599" lon="6.149981">
        <ele>59.372145</ele>
        <time>2026-05-09T13:28:11.959Z</time>
      </trkpt>
      <trkpt lat="51.905548" lon="6.149795">
        <ele>59.216422</ele>
        <time>2026-05-09T13:28:13.959Z</time>
      </trkpt>
      <trkpt lat="51.905503" lon="6.149601">
        <ele>59.057855</ele>
        <time>2026-05-09T13:28:15.962Z</time>
      </trkpt>
      <trkpt lat="51.905469" lon="6.149412">
        <ele>58.907236</ele>
        <time>2026-05-09T13:28:17.958Z</time>
      </trkpt>
      <trkpt lat="51.905443" lon="6.149224">
        <ele>58.759834</ele>
        <time>2026-05-09T13:28:19.958Z</time>
      </trkpt>
      <trkpt lat="51.905426" lon="6.149037">
        <ele>58.615221</ele>
        <time>2026-05-09T13:28:21.962Z</time>
      </trkpt>
      <trkpt lat="51.905408" lon="6.148847">
        <ele>58.604001</ele>
        <time>2026-05-09T13:28:23.959Z</time>
      </trkpt>
      <trkpt lat="51.905396" lon="6.148658">
        <ele>58.599700</ele>
        <time>2026-05-09T13:28:25.961Z</time>
      </trkpt>
      <trkpt lat="51.905388" lon="6.148476">
        <ele>58.595570</ele>
        <time>2026-05-09T13:28:27.962Z</time>
      </trkpt>
      <trkpt lat="51.905381" lon="6.148290">
        <ele>58.591352</ele>
        <time>2026-05-09T13:28:29.956Z</time>
      </trkpt>
      <trkpt lat="51.905376" lon="6.148106">
        <ele>58.587182</ele>
        <time>2026-05-09T13:28:31.961Z</time>
      </trkpt>
      <trkpt lat="51.905374" lon="6.147914">
        <ele>58.582836</ele>
        <time>2026-05-09T13:28:33.960Z</time>
      </trkpt>
      <trkpt lat="51.905379" lon="6.147729">
        <ele>58.578644</ele>
        <time>2026-05-09T13:28:35.960Z</time>
      </trkpt>
      <trkpt lat="51.905387" lon="6.147552">
        <ele>58.574626</ele>
        <time>2026-05-09T13:28:37.960Z</time>
      </trkpt>
      <trkpt lat="51.905396" lon="6.147382">
        <ele>58.570764</ele>
        <time>2026-05-09T13:28:39.961Z</time>
      </trkpt>
      <trkpt lat="51.905402" lon="6.147210">
        <ele>58.566864</ele>
        <time>2026-05-09T13:28:41.961Z</time>
      </trkpt>
      <trkpt lat="51.905402" lon="6.147023">
        <ele>58.562631</ele>
        <time>2026-05-09T13:28:43.959Z</time>
      </trkpt>
      <trkpt lat="51.905405" lon="6.146826">
        <ele>58.558170</ele>
        <time>2026-05-09T13:28:45.969Z</time>
      </trkpt>
      <trkpt lat="51.905412" lon="6.146637">
        <ele>58.553884</ele>
        <time>2026-05-09T13:28:47.960Z</time>
      </trkpt>
      <trkpt lat="51.905415" lon="6.146447">
        <ele>58.549582</ele>
        <time>2026-05-09T13:28:49.961Z</time>
      </trkpt>
      <trkpt lat="51.905419" lon="6.146254">
        <ele>58.545210</ele>
        <time>2026-05-09T13:28:51.953Z</time>
      </trkpt>
      <trkpt lat="51.905421" lon="6.146068">
        <ele>58.535361</ele>
        <time>2026-05-09T13:28:53.965Z</time>
      </trkpt>
      <trkpt lat="51.905423" lon="6.145895">
        <ele>58.512243</ele>
        <time>2026-05-09T13:28:55.959Z</time>
      </trkpt>
      <trkpt lat="51.905427" lon="6.145726">
        <ele>58.489647</ele>
        <time>2026-05-09T13:28:57.960Z</time>
      </trkpt>
      <trkpt lat="51.905428" lon="6.145555">
        <ele>58.466800</ele>
        <time>2026-05-09T13:28:59.964Z</time>
      </trkpt>
      <trkpt lat="51.905431" lon="6.145385">
        <ele>58.444078</ele>
        <time>2026-05-09T13:29:01.960Z</time>
      </trkpt>
      <trkpt lat="51.905438" lon="6.145209">
        <ele>58.420514</ele>
        <time>2026-05-09T13:29:03.958Z</time>
      </trkpt>
      <trkpt lat="51.905441" lon="6.145025">
        <ele>58.395923</ele>
        <time>2026-05-09T13:29:05.969Z</time>
      </trkpt>
      <trkpt lat="51.905445" lon="6.144842">
        <ele>58.371458</ele>
        <time>2026-05-09T13:29:07.968Z</time>
      </trkpt>
      <trkpt lat="51.905445" lon="6.144661">
        <ele>58.347275</ele>
        <time>2026-05-09T13:29:09.967Z</time>
      </trkpt>
      <trkpt lat="51.905451" lon="6.144481">
        <ele>58.323191</ele>
        <time>2026-05-09T13:29:11.969Z</time>
      </trkpt>
      <trkpt lat="51.905453" lon="6.144299">
        <ele>58.298871</ele>
        <time>2026-05-09T13:29:13.969Z</time>
      </trkpt>
      <trkpt lat="51.905457" lon="6.144117">
        <ele>58.274540</ele>
        <time>2026-05-09T13:29:15.965Z</time>
      </trkpt>
      <trkpt lat="51.905460" lon="6.143931">
        <ele>58.249681</ele>
        <time>2026-05-09T13:29:17.956Z</time>
      </trkpt>
      <trkpt lat="51.905464" lon="6.143744">
        <ele>58.224682</ele>
        <time>2026-05-09T13:29:19.964Z</time>
      </trkpt>
      <trkpt lat="51.905467" lon="6.143562">
        <ele>58.200357</ele>
        <time>2026-05-09T13:29:21.958Z</time>
      </trkpt>
      <trkpt lat="51.905470" lon="6.143383">
        <ele>58.176433</ele>
        <time>2026-05-09T13:29:23.957Z</time>
      </trkpt>
      <trkpt lat="51.905477" lon="6.143201">
        <ele>58.151275</ele>
        <time>2026-05-09T13:29:25.957Z</time>
      </trkpt>
      <trkpt lat="51.905477" lon="6.143014">
        <ele>58.091988</ele>
        <time>2026-05-09T13:29:27.961Z</time>
      </trkpt>
      <trkpt lat="51.905482" lon="6.142826">
        <ele>58.032329</ele>
        <time>2026-05-09T13:29:29.962Z</time>
      </trkpt>
      <trkpt lat="51.905483" lon="6.142634">
        <ele>57.971454</ele>
        <time>2026-05-09T13:29:31.961Z</time>
      </trkpt>
      <trkpt lat="51.905483" lon="6.142446">
        <ele>57.911850</ele>
        <time>2026-05-09T13:29:33.971Z</time>
      </trkpt>
      <trkpt lat="51.905486" lon="6.142262">
        <ele>57.853494</ele>
        <time>2026-05-09T13:29:35.962Z</time>
      </trkpt>
      <trkpt lat="51.905496" lon="6.142074">
        <ele>57.793668</ele>
        <time>2026-05-09T13:29:37.961Z</time>
      </trkpt>
      <trkpt lat="51.905513" lon="6.141882">
        <ele>57.732172</ele>
        <time>2026-05-09T13:29:39.961Z</time>
      </trkpt>
      <trkpt lat="51.905532" lon="6.141696">
        <ele>57.672399</ele>
        <time>2026-05-09T13:29:41.970Z</time>
      </trkpt>
      <trkpt lat="51.905553" lon="6.141506">
        <ele>57.611202</ele>
        <time>2026-05-09T13:29:43.964Z</time>
      </trkpt>
      <trkpt lat="51.905568" lon="6.141309">
        <ele>57.548271</ele>
        <time>2026-05-09T13:29:45.959Z</time>
      </trkpt>
      <trkpt lat="51.905578" lon="6.141115">
        <ele>57.486550</ele>
        <time>2026-05-09T13:29:47.962Z</time>
      </trkpt>
      <trkpt lat="51.905588" lon="6.140933">
        <ele>57.428620</ele>
        <time>2026-05-09T13:29:49.963Z</time>
      </trkpt>
      <trkpt lat="51.905607" lon="6.140752">
        <ele>57.370411</ele>
        <time>2026-05-09T13:29:51.955Z</time>
      </trkpt>
      <trkpt lat="51.905618" lon="6.140564">
        <ele>57.310539</ele>
        <time>2026-05-09T13:29:53.963Z</time>
      </trkpt>
      <trkpt lat="51.905635" lon="6.140373">
        <ele>57.249357</ele>
        <time>2026-05-09T13:29:55.964Z</time>
      </trkpt>
      <trkpt lat="51.905651" lon="6.140175">
        <ele>57.197789</ele>
        <time>2026-05-09T13:29:57.955Z</time>
      </trkpt>
      <trkpt lat="51.905665" lon="6.139969">
        <ele>57.150315</ele>
        <time>2026-05-09T13:29:59.964Z</time>
      </trkpt>
      <trkpt lat="51.905679" lon="6.139767">
        <ele>57.103752</ele>
        <time>2026-05-09T13:30:01.958Z</time>
      </trkpt>
      <trkpt lat="51.905694" lon="6.139573">
        <ele>57.058966</ele>
        <time>2026-05-09T13:30:03.970Z</time>
      </trkpt>
      <trkpt lat="51.905707" lon="6.139381">
        <ele>57.014721</ele>
        <time>2026-05-09T13:30:05.958Z</time>
      </trkpt>
      <trkpt lat="51.905717" lon="6.139194">
        <ele>56.971724</ele>
        <time>2026-05-09T13:30:07.979Z</time>
      </trkpt>
      <trkpt lat="51.905733" lon="6.139002">
        <ele>56.927344</ele>
        <time>2026-05-09T13:30:09.956Z</time>
      </trkpt>
      <trkpt lat="51.905747" lon="6.138814">
        <ele>56.883967</ele>
        <time>2026-05-09T13:30:11.956Z</time>
      </trkpt>
      <trkpt lat="51.905762" lon="6.138625">
        <ele>56.840316</ele>
        <time>2026-05-09T13:30:13.958Z</time>
      </trkpt>
      <trkpt lat="51.905776" lon="6.138441">
        <ele>56.797849</ele>
        <time>2026-05-09T13:30:15.963Z</time>
      </trkpt>
      <trkpt lat="51.905789" lon="6.138262">
        <ele>56.756563</ele>
        <time>2026-05-09T13:30:17.959Z</time>
      </trkpt>
      <trkpt lat="51.905802" lon="6.138080">
        <ele>56.714594</ele>
        <time>2026-05-09T13:30:19.961Z</time>
      </trkpt>
      <trkpt lat="51.905813" lon="6.137890">
        <ele>56.670880</ele>
        <time>2026-05-09T13:30:21.963Z</time>
      </trkpt>
      <trkpt lat="51.905827" lon="6.137709">
        <ele>56.629094</ele>
        <time>2026-05-09T13:30:23.957Z</time>
      </trkpt>
      <trkpt lat="51.905841" lon="6.137532">
        <ele>56.588218</ele>
        <time>2026-05-09T13:30:25.956Z</time>
      </trkpt>
      <trkpt lat="51.905855" lon="6.137356">
        <ele>56.567079</ele>
        <time>2026-05-09T13:30:27.960Z</time>
      </trkpt>
      <trkpt lat="51.905865" lon="6.137178">
        <ele>56.587665</ele>
        <time>2026-05-09T13:30:29.969Z</time>
      </trkpt>
      <trkpt lat="51.905876" lon="6.137002">
        <ele>56.608039</ele>
        <time>2026-05-09T13:30:31.962Z</time>
      </trkpt>
      <trkpt lat="51.905887" lon="6.136826">
        <ele>56.628413</ele>
        <time>2026-05-09T13:30:33.954Z</time>
      </trkpt>
      <trkpt lat="51.905897" lon="6.136651">
        <ele>56.648655</ele>
        <time>2026-05-09T13:30:35.961Z</time>
      </trkpt>
      <trkpt lat="51.905909" lon="6.136483">
        <ele>56.668133</ele>
        <time>2026-05-09T13:30:37.967Z</time>
      </trkpt>
      <trkpt lat="51.905921" lon="6.136314">
        <ele>56.687725</ele>
        <time>2026-05-09T13:30:39.970Z</time>
      </trkpt>
      <trkpt lat="51.905932" lon="6.136140">
        <ele>56.707870</ele>
        <time>2026-05-09T13:30:41.969Z</time>
      </trkpt>
      <trkpt lat="51.905939" lon="6.135950">
        <ele>56.729792</ele>
        <time>2026-05-09T13:30:43.967Z</time>
      </trkpt>
      <trkpt lat="51.905951" lon="6.135763">
        <ele>56.751446</ele>
        <time>2026-05-09T13:30:45.969Z</time>
      </trkpt>
      <trkpt lat="51.905961" lon="6.135575">
        <ele>56.773178</ele>
        <time>2026-05-09T13:30:47.964Z</time>
      </trkpt>
      <trkpt lat="51.905981" lon="6.135391">
        <ele>56.794696</ele>
        <time>2026-05-09T13:30:49.961Z</time>
      </trkpt>
      <trkpt lat="51.905999" lon="6.135210">
        <ele>56.815812</ele>
        <time>2026-05-09T13:30:51.958Z</time>
      </trkpt>
      <trkpt lat="51.906011" lon="6.135023">
        <ele>56.837465</ele>
        <time>2026-05-09T13:30:53.958Z</time>
      </trkpt>
      <trkpt lat="51.906028" lon="6.134841">
        <ele>56.858665</ele>
        <time>2026-05-09T13:30:55.975Z</time>
      </trkpt>
      <trkpt lat="51.906040" lon="6.134668">
        <ele>56.878716</ele>
        <time>2026-05-09T13:30:57.960Z</time>
      </trkpt>
      <trkpt lat="51.906053" lon="6.134499">
        <ele>56.919259</ele>
        <time>2026-05-09T13:30:59.958Z</time>
      </trkpt>
      <trkpt lat="51.906064" lon="6.134333">
        <ele>57.138706</ele>
        <time>2026-05-09T13:31:01.959Z</time>
      </trkpt>
      <trkpt lat="51.906073" lon="6.134170">
        <ele>57.353811</ele>
        <time>2026-05-09T13:31:03.955Z</time>
      </trkpt>
      <trkpt lat="51.906083" lon="6.134015">
        <ele>57.558655</ele>
        <time>2026-05-09T13:31:05.953Z</time>
      </trkpt>
      <trkpt lat="51.906095" lon="6.133867">
        <ele>57.754860</ele>
        <time>2026-05-09T13:31:07.968Z</time>
      </trkpt>
      <trkpt lat="51.906107" lon="6.133713">
        <ele>57.958887</ele>
        <time>2026-05-09T13:31:09.961Z</time>
      </trkpt>
      <trkpt lat="51.906117" lon="6.133555">
        <ele>58.167653</ele>
        <time>2026-05-09T13:31:11.957Z</time>
      </trkpt>
      <trkpt lat="51.906127" lon="6.133404">
        <ele>58.367269</ele>
        <time>2026-05-09T13:31:13.963Z</time>
      </trkpt>
      <trkpt lat="51.906139" lon="6.133187">
        <ele>58.653638</ele>
        <time>2026-05-09T13:31:16.957Z</time>
      </trkpt>
      <trkpt lat="51.906151" lon="6.132969">
        <ele>58.941317</ele>
        <time>2026-05-09T13:31:19.962Z</time>
      </trkpt>
      <trkpt lat="51.906157" lon="6.132823">
        <ele>59.133645</ele>
        <time>2026-05-09T13:31:21.958Z</time>
      </trkpt>
      <trkpt lat="51.906163" lon="6.132675">
        <ele>59.328597</ele>
        <time>2026-05-09T13:31:23.955Z</time>
      </trkpt>
      <trkpt lat="51.906171" lon="6.132522">
        <ele>59.530422</ele>
        <time>2026-05-09T13:31:25.956Z</time>
      </trkpt>
      <trkpt lat="51.906179" lon="6.132306">
        <ele>59.814844</ele>
        <time>2026-05-09T13:31:28.956Z</time>
      </trkpt>
      <trkpt lat="51.906183" lon="6.132151">
        <ele>60.018755</ele>
        <time>2026-05-09T13:31:30.961Z</time>
      </trkpt>
      <trkpt lat="51.906187" lon="6.131999">
        <ele>60.218726</ele>
        <time>2026-05-09T13:31:32.960Z</time>
      </trkpt>
      <trkpt lat="51.906187" lon="6.131852">
        <ele>60.411944</ele>
        <time>2026-05-09T13:31:34.964Z</time>
      </trkpt>
      <trkpt lat="51.906192" lon="6.131701">
        <ele>60.610704</ele>
        <time>2026-05-09T13:31:36.955Z</time>
      </trkpt>
      <trkpt lat="51.906188" lon="6.131549">
        <ele>60.827572</ele>
        <time>2026-05-09T13:31:38.957Z</time>
      </trkpt>
      <trkpt lat="51.906190" lon="6.131398">
        <ele>61.066814</ele>
        <time>2026-05-09T13:31:40.959Z</time>
      </trkpt>
      <trkpt lat="51.906186" lon="6.131251">
        <ele>61.299892</ele>
        <time>2026-05-09T13:31:42.959Z</time>
      </trkpt>
      <trkpt lat="51.906186" lon="6.131095">
        <ele>61.546999</ele>
        <time>2026-05-09T13:31:44.955Z</time>
      </trkpt>
      <trkpt lat="51.906180" lon="6.130945">
        <ele>61.785101</ele>
        <time>2026-05-09T13:31:46.959Z</time>
      </trkpt>
      <trkpt lat="51.906175" lon="6.130795">
        <ele>62.023051</ele>
        <time>2026-05-09T13:31:48.960Z</time>
      </trkpt>
      <trkpt lat="51.906164" lon="6.130584">
        <ele>62.358470</ele>
        <time>2026-05-09T13:31:51.954Z</time>
      </trkpt>
      <trkpt lat="51.906154" lon="6.130379">
        <ele>62.684208</ele>
        <time>2026-05-09T13:31:54.957Z</time>
      </trkpt>
      <trkpt lat="51.906145" lon="6.130187">
        <ele>62.989217</ele>
        <time>2026-05-09T13:31:57.954Z</time>
      </trkpt>
      <trkpt lat="51.906130" lon="6.130012">
        <ele>63.269083</ele>
        <time>2026-05-09T13:32:00.957Z</time>
      </trkpt>
      <trkpt lat="51.906122" lon="6.129832">
        <ele>63.554946</ele>
        <time>2026-05-09T13:32:03.956Z</time>
      </trkpt>
      <trkpt lat="51.906107" lon="6.129646">
        <ele>63.852081</ele>
        <time>2026-05-09T13:32:06.956Z</time>
      </trkpt>
      <trkpt lat="51.906087" lon="6.129458">
        <ele>64.154273</ele>
        <time>2026-05-09T13:32:09.955Z</time>
      </trkpt>
      <trkpt lat="51.906060" lon="6.129266">
        <ele>64.466206</ele>
        <time>2026-05-09T13:32:12.955Z</time>
      </trkpt>
      <trkpt lat="51.906040" lon="6.129064">
        <ele>64.790273</ele>
        <time>2026-05-09T13:32:15.955Z</time>
      </trkpt>
      <trkpt lat="51.906023" lon="6.128847">
        <ele>65.136767</ele>
        <time>2026-05-09T13:32:18.962Z</time>
      </trkpt>
      <trkpt lat="51.906011" lon="6.128696">
        <ele>65.308672</ele>
        <time>2026-05-09T13:32:20.965Z</time>
      </trkpt>
      <trkpt lat="51.905999" lon="6.128537">
        <ele>65.006540</ele>
        <time>2026-05-09T13:32:22.959Z</time>
      </trkpt>
      <trkpt lat="51.905989" lon="6.128367">
        <ele>64.684442</ele>
        <time>2026-05-09T13:32:24.962Z</time>
      </trkpt>
      <trkpt lat="51.905973" lon="6.128188">
        <ele>64.343297</ele>
        <time>2026-05-09T13:32:26.961Z</time>
      </trkpt>
      <trkpt lat="51.905959" lon="6.128002">
        <ele>63.989873</ele>
        <time>2026-05-09T13:32:28.961Z</time>
      </trkpt>
      <trkpt lat="51.905945" lon="6.127814">
        <ele>63.632704</ele>
        <time>2026-05-09T13:32:30.954Z</time>
      </trkpt>
      <trkpt lat="51.905944" lon="6.127620">
        <ele>63.266779</ele>
        <time>2026-05-09T13:32:32.961Z</time>
      </trkpt>
      <trkpt lat="51.905933" lon="6.127409">
        <ele>62.867384</ele>
        <time>2026-05-09T13:32:34.960Z</time>
      </trkpt>
      <trkpt lat="51.905919" lon="6.127194">
        <ele>62.459611</ele>
        <time>2026-05-09T13:32:36.963Z</time>
      </trkpt>
      <trkpt lat="51.905903" lon="6.126968">
        <ele>62.030544</ele>
        <time>2026-05-09T13:32:38.962Z</time>
      </trkpt>
      <trkpt lat="51.905884" lon="6.126727">
        <ele>61.572287</ele>
        <time>2026-05-09T13:32:40.963Z</time>
      </trkpt>
      <trkpt lat="51.905863" lon="6.126478">
        <ele>61.098268</ele>
        <time>2026-05-09T13:32:42.961Z</time>
      </trkpt>
      <trkpt lat="51.905846" lon="6.126238">
        <ele>60.642619</ele>
        <time>2026-05-09T13:32:44.956Z</time>
      </trkpt>
      <trkpt lat="51.905826" lon="6.126012">
        <ele>60.211986</ele>
        <time>2026-05-09T13:32:46.969Z</time>
      </trkpt>
      <trkpt lat="51.905808" lon="6.125790">
        <ele>59.806177</ele>
        <time>2026-05-09T13:32:48.959Z</time>
      </trkpt>
      <trkpt lat="51.905792" lon="6.125561">
        <ele>59.495559</ele>
        <time>2026-05-09T13:32:50.960Z</time>
      </trkpt>
      <trkpt lat="51.905777" lon="6.125333">
        <ele>59.186519</ele>
        <time>2026-05-09T13:32:52.969Z</time>
      </trkpt>
      <trkpt lat="51.905766" lon="6.125104">
        <ele>58.876940</ele>
        <time>2026-05-09T13:32:54.956Z</time>
      </trkpt>
      <trkpt lat="51.905745" lon="6.124879">
        <ele>58.570235</ele>
        <time>2026-05-09T13:32:56.962Z</time>
      </trkpt>
      <trkpt lat="51.905721" lon="6.124645">
        <ele>58.250522</ele>
        <time>2026-05-09T13:32:58.966Z</time>
      </trkpt>
      <trkpt lat="51.905704" lon="6.124409">
        <ele>57.930280</ele>
        <time>2026-05-09T13:33:00.961Z</time>
      </trkpt>
      <trkpt lat="51.905690" lon="6.124172">
        <ele>57.609391</ele>
        <time>2026-05-09T13:33:02.964Z</time>
      </trkpt>
      <trkpt lat="51.905681" lon="6.123945">
        <ele>57.302809</ele>
        <time>2026-05-09T13:33:04.970Z</time>
      </trkpt>
      <trkpt lat="51.905674" lon="6.123723">
        <ele>57.003207</ele>
        <time>2026-05-09T13:33:06.963Z</time>
      </trkpt>
      <trkpt lat="51.905662" lon="6.123508">
        <ele>56.712247</ele>
        <time>2026-05-09T13:33:08.955Z</time>
      </trkpt>
      <trkpt lat="51.905650" lon="6.123305">
        <ele>56.437391</ele>
        <time>2026-05-09T13:33:10.963Z</time>
      </trkpt>
      <trkpt lat="51.905643" lon="6.123103">
        <ele>56.164706</ele>
        <time>2026-05-09T13:33:12.962Z</time>
      </trkpt>
      <trkpt lat="51.905648" lon="6.122913">
        <ele>55.917258</ele>
        <time>2026-05-09T13:33:14.983Z</time>
      </trkpt>
      <trkpt lat="51.905653" lon="6.122724">
        <ele>55.892078</ele>
        <time>2026-05-09T13:33:16.961Z</time>
      </trkpt>
      <trkpt lat="51.905656" lon="6.122542">
        <ele>55.867845</ele>
        <time>2026-05-09T13:33:18.958Z</time>
      </trkpt>
      <trkpt lat="51.905672" lon="6.122372">
        <ele>55.844955</ele>
        <time>2026-05-09T13:33:20.959Z</time>
      </trkpt>
      <trkpt lat="51.905704" lon="6.122207">
        <ele>55.821933</ele>
        <time>2026-05-09T13:33:22.963Z</time>
      </trkpt>
      <trkpt lat="51.905732" lon="6.122035">
        <ele>55.798256</ele>
        <time>2026-05-09T13:33:24.958Z</time>
      </trkpt>
      <trkpt lat="51.905757" lon="6.121867">
        <ele>55.775253</ele>
        <time>2026-05-09T13:33:26.962Z</time>
      </trkpt>
      <trkpt lat="51.905781" lon="6.121702">
        <ele>55.752688</ele>
        <time>2026-05-09T13:33:28.960Z</time>
      </trkpt>
      <trkpt lat="51.905788" lon="6.121538">
        <ele>55.730807</ele>
        <time>2026-05-09T13:33:30.968Z</time>
      </trkpt>
      <trkpt lat="51.905788" lon="6.121371">
        <ele>55.708579</ele>
        <time>2026-05-09T13:33:32.964Z</time>
      </trkpt>
      <trkpt lat="51.905764" lon="6.121209">
        <ele>55.686403</ele>
        <time>2026-05-09T13:33:34.962Z</time>
      </trkpt>
      <trkpt lat="51.905739" lon="6.121057">
        <ele>55.665464</ele>
        <time>2026-05-09T13:33:36.963Z</time>
      </trkpt>
      <trkpt lat="51.905689" lon="6.120858">
        <ele>55.636864</ele>
        <time>2026-05-09T13:33:39.963Z</time>
      </trkpt>
      <trkpt lat="51.905656" lon="6.120720">
        <ele>55.617164</ele>
        <time>2026-05-09T13:33:41.962Z</time>
      </trkpt>
      <trkpt lat="51.905624" lon="6.120584">
        <ele>55.597790</ele>
        <time>2026-05-09T13:33:43.963Z</time>
      </trkpt>
      <trkpt lat="51.905595" lon="6.120444">
        <ele>55.578133</ele>
        <time>2026-05-09T13:33:45.959Z</time>
      </trkpt>
      <trkpt lat="51.905564" lon="6.120302">
        <ele>55.558084</ele>
        <time>2026-05-09T13:33:47.962Z</time>
      </trkpt>
      <trkpt lat="51.905534" lon="6.120157">
        <ele>55.537727</ele>
        <time>2026-05-09T13:33:49.964Z</time>
      </trkpt>
      <trkpt lat="51.905498" lon="6.120011">
        <ele>55.575143</ele>
        <time>2026-05-09T13:33:51.958Z</time>
      </trkpt>
      <trkpt lat="51.905465" lon="6.119856">
        <ele>55.648455</ele>
        <time>2026-05-09T13:33:53.960Z</time>
      </trkpt>
      <trkpt lat="51.905436" lon="6.119711">
        <ele>55.716606</ele>
        <time>2026-05-09T13:33:55.965Z</time>
      </trkpt>
      <trkpt lat="51.905406" lon="6.119567">
        <ele>55.784561</ele>
        <time>2026-05-09T13:33:57.953Z</time>
      </trkpt>
      <trkpt lat="51.905374" lon="6.119428">
        <ele>55.850894</ele>
        <time>2026-05-09T13:33:59.951Z</time>
      </trkpt>
      <trkpt lat="51.905342" lon="6.119281">
        <ele>55.920589</ele>
        <time>2026-05-09T13:34:01.964Z</time>
      </trkpt>
      <trkpt lat="51.905310" lon="6.119132">
        <ele>55.991129</ele>
        <time>2026-05-09T13:34:03.952Z</time>
      </trkpt>
      <trkpt lat="51.905279" lon="6.118981">
        <ele>56.062281</ele>
        <time>2026-05-09T13:34:05.956Z</time>
      </trkpt>
      <trkpt lat="51.905263" lon="6.118834">
        <ele>56.129021</ele>
        <time>2026-05-09T13:34:07.954Z</time>
      </trkpt>
      <trkpt lat="51.905245" lon="6.118622">
        <ele>56.224700</ele>
        <time>2026-05-09T13:34:10.958Z</time>
      </trkpt>
      <trkpt lat="51.905221" lon="6.118411">
        <ele>56.320630</ele>
        <time>2026-05-09T13:34:13.953Z</time>
      </trkpt>
      <trkpt lat="51.905220" lon="6.118205">
        <ele>56.412736</ele>
        <time>2026-05-09T13:34:16.957Z</time>
      </trkpt>
      <trkpt lat="51.905220" lon="6.118009">
        <ele>56.500369</ele>
        <time>2026-05-09T13:34:19.961Z</time>
      </trkpt>
      <trkpt lat="51.905209" lon="6.117834">
        <ele>56.579018</ele>
        <time>2026-05-09T13:34:22.956Z</time>
      </trkpt>
      <trkpt lat="51.905204" lon="6.117672">
        <ele>56.651539</ele>
        <time>2026-05-09T13:34:25.961Z</time>
      </trkpt>
      <trkpt lat="51.905247" lon="6.117500">
        <ele>56.734515</ele>
        <time>2026-05-09T13:34:29.958Z</time>
      </trkpt>
      <trkpt lat="51.905294" lon="6.117357">
        <ele>56.806958</ele>
        <time>2026-05-09T13:34:33.966Z</time>
      </trkpt>
      <trkpt lat="51.905340" lon="6.117215">
        <ele>56.826587</ele>
        <time>2026-05-09T13:34:36.956Z</time>
      </trkpt>
      <trkpt lat="51.905421" lon="6.117056">
        <ele>56.812151</ele>
        <time>2026-05-09T13:34:39.957Z</time>
      </trkpt>
      <trkpt lat="51.905497" lon="6.116963">
        <ele>56.801345</ele>
        <time>2026-05-09T13:34:41.957Z</time>
      </trkpt>
      <trkpt lat="51.905609" lon="6.116844">
        <ele>56.786149</ele>
        <time>2026-05-09T13:34:44.967Z</time>
      </trkpt>
      <trkpt lat="51.905674" lon="6.116725">
        <ele>56.775022</ele>
        <time>2026-05-09T13:34:46.957Z</time>
      </trkpt>
      <trkpt lat="51.905734" lon="6.116603">
        <ele>56.764100</ele>
        <time>2026-05-09T13:34:48.953Z</time>
      </trkpt>
      <trkpt lat="51.905789" lon="6.116476">
        <ele>56.753237</ele>
        <time>2026-05-09T13:34:50.957Z</time>
      </trkpt>
      <trkpt lat="51.905845" lon="6.116354">
        <ele>56.742591</ele>
        <time>2026-05-09T13:34:52.956Z</time>
      </trkpt>
      <trkpt lat="51.905891" lon="6.116221">
        <ele>56.731917</ele>
        <time>2026-05-09T13:34:54.956Z</time>
      </trkpt>
      <trkpt lat="51.905929" lon="6.116079">
        <ele>56.721081</ele>
        <time>2026-05-09T13:34:56.965Z</time>
      </trkpt>
      <trkpt lat="51.905959" lon="6.115929">
        <ele>56.710042</ele>
        <time>2026-05-09T13:34:58.958Z</time>
      </trkpt>
      <trkpt lat="51.905982" lon="6.115781">
        <ele>56.699357</ele>
        <time>2026-05-09T13:35:00.965Z</time>
      </trkpt>
      <trkpt lat="51.906004" lon="6.115631">
        <ele>56.688563</ele>
        <time>2026-05-09T13:35:02.957Z</time>
      </trkpt>
      <trkpt lat="51.906029" lon="6.115475">
        <ele>56.677279</ele>
        <time>2026-05-09T13:35:04.953Z</time>
      </trkpt>
      <trkpt lat="51.906053" lon="6.115319">
        <ele>56.666024</ele>
        <time>2026-05-09T13:35:06.958Z</time>
      </trkpt>
      <trkpt lat="51.906079" lon="6.115161">
        <ele>56.654576</ele>
        <time>2026-05-09T13:35:08.957Z</time>
      </trkpt>
      <trkpt lat="51.906103" lon="6.115011">
        <ele>56.643727</ele>
        <time>2026-05-09T13:35:10.959Z</time>
      </trkpt>
      <trkpt lat="51.906129" lon="6.114871">
        <ele>56.633492</ele>
        <time>2026-05-09T13:35:12.959Z</time>
      </trkpt>
      <trkpt lat="51.906160" lon="6.114671">
        <ele>56.589776</ele>
        <time>2026-05-09T13:35:15.961Z</time>
      </trkpt>
      <trkpt lat="51.906192" lon="6.114460">
        <ele>56.532083</ele>
        <time>2026-05-09T13:35:18.961Z</time>
      </trkpt>
      <trkpt lat="51.906219" lon="6.114319">
        <ele>56.492883</ele>
        <time>2026-05-09T13:35:20.957Z</time>
      </trkpt>
      <trkpt lat="51.906262" lon="6.114126">
        <ele>56.438398</ele>
        <time>2026-05-09T13:35:23.958Z</time>
      </trkpt>
      <trkpt lat="51.906307" lon="6.113943">
        <ele>56.386090</ele>
        <time>2026-05-09T13:35:26.961Z</time>
      </trkpt>
      <trkpt lat="51.906357" lon="6.113758">
        <ele>56.332462</ele>
        <time>2026-05-09T13:35:29.960Z</time>
      </trkpt>
      <trkpt lat="51.906409" lon="6.113580">
        <ele>56.280169</ele>
        <time>2026-05-09T13:35:32.955Z</time>
      </trkpt>
      <trkpt lat="51.906462" lon="6.113454">
        <ele>56.239678</ele>
        <time>2026-05-09T13:35:35.958Z</time>
      </trkpt>
      <trkpt lat="51.906431" lon="6.113298">
        <ele>56.196161</ele>
        <time>2026-05-09T13:35:41.958Z</time>
      </trkpt>
      <trkpt lat="51.906315" lon="6.113228">
        <ele>56.142890</ele>
        <time>2026-05-09T13:35:45.958Z</time>
      </trkpt>
      <trkpt lat="51.906199" lon="6.113159">
        <ele>56.089711</ele>
        <time>2026-05-09T13:35:48.959Z</time>
      </trkpt>
      <trkpt lat="51.906122" lon="6.113071">
        <ele>56.049162</ele>
        <time>2026-05-09T13:35:50.953Z</time>
      </trkpt>
      <trkpt lat="51.906050" lon="6.112981">
        <ele>56.010031</ele>
        <time>2026-05-09T13:35:52.956Z</time>
      </trkpt>
      <trkpt lat="51.905973" lon="6.112891">
        <ele>55.969175</ele>
        <time>2026-05-09T13:35:54.957Z</time>
      </trkpt>
      <trkpt lat="51.905889" lon="6.112808">
        <ele>55.926835</ele>
        <time>2026-05-09T13:35:56.955Z</time>
      </trkpt>
      <trkpt lat="51.905804" lon="6.112719">
        <ele>55.883284</ele>
        <time>2026-05-09T13:35:58.956Z</time>
      </trkpt>
      <trkpt lat="51.905714" lon="6.112647">
        <ele>55.860310</ele>
        <time>2026-05-09T13:36:00.956Z</time>
      </trkpt>
      <trkpt lat="51.905626" lon="6.112564">
        <ele>55.874188</ele>
        <time>2026-05-09T13:36:02.956Z</time>
      </trkpt>
      <trkpt lat="51.905543" lon="6.112474">
        <ele>55.887800</ele>
        <time>2026-05-09T13:36:04.956Z</time>
      </trkpt>
      <trkpt lat="51.905463" lon="6.112390">
        <ele>55.900792</ele>
        <time>2026-05-09T13:36:06.952Z</time>
      </trkpt>
      <trkpt lat="51.905381" lon="6.112311">
        <ele>55.913795</ele>
        <time>2026-05-09T13:36:08.956Z</time>
      </trkpt>
      <trkpt lat="51.905294" lon="6.112237">
        <ele>55.927187</ele>
        <time>2026-05-09T13:36:10.953Z</time>
      </trkpt>
      <trkpt lat="51.905206" lon="6.112174">
        <ele>55.940300</ele>
        <time>2026-05-09T13:36:12.958Z</time>
      </trkpt>
      <trkpt lat="51.905119" lon="6.112122">
        <ele>55.952939</ele>
        <time>2026-05-09T13:36:14.956Z</time>
      </trkpt>
      <trkpt lat="51.905026" lon="6.112083">
        <ele>55.966032</ele>
        <time>2026-05-09T13:36:16.956Z</time>
      </trkpt>
      <trkpt lat="51.904932" lon="6.112050">
        <ele>55.979142</ele>
        <time>2026-05-09T13:36:18.961Z</time>
      </trkpt>
      <trkpt lat="51.904843" lon="6.112017">
        <ele>55.991587</ele>
        <time>2026-05-09T13:36:20.956Z</time>
      </trkpt>
      <trkpt lat="51.904713" lon="6.111976">
        <ele>56.009639</ele>
        <time>2026-05-09T13:36:23.953Z</time>
      </trkpt>
      <trkpt lat="51.904584" lon="6.111944">
        <ele>56.027427</ele>
        <time>2026-05-09T13:36:26.956Z</time>
      </trkpt>
      <trkpt lat="51.904467" lon="6.111879">
        <ele>56.044285</ele>
        <time>2026-05-09T13:36:29.959Z</time>
      </trkpt>
      <trkpt lat="51.904351" lon="6.111799">
        <ele>56.061468</ele>
        <time>2026-05-09T13:36:32.962Z</time>
      </trkpt>
      <trkpt lat="51.904245" lon="6.111681">
        <ele>56.078996</ele>
        <time>2026-05-09T13:36:35.963Z</time>
      </trkpt>
      <trkpt lat="51.904150" lon="6.111545">
        <ele>56.096273</ele>
        <time>2026-05-09T13:36:38.957Z</time>
      </trkpt>
      <trkpt lat="51.904065" lon="6.111421">
        <ele>56.055128</ele>
        <time>2026-05-09T13:36:41.952Z</time>
      </trkpt>
      <trkpt lat="51.903991" lon="6.111311">
        <ele>55.999799</ele>
        <time>2026-05-09T13:36:44.953Z</time>
      </trkpt>
      <trkpt lat="51.903917" lon="6.111192">
        <ele>55.942356</ele>
        <time>2026-05-09T13:36:47.951Z</time>
      </trkpt>
      <trkpt lat="51.903842" lon="6.111051">
        <ele>55.879063</ele>
        <time>2026-05-09T13:36:50.956Z</time>
      </trkpt>
      <trkpt lat="51.903797" lon="6.110901">
        <ele>55.822357</ele>
        <time>2026-05-09T13:36:53.956Z</time>
      </trkpt>
      <trkpt lat="51.903720" lon="6.110788">
        <ele>55.765118</ele>
        <time>2026-05-09T13:36:56.953Z</time>
      </trkpt>
      <trkpt lat="51.903634" lon="6.110681">
        <ele>55.705375</ele>
        <time>2026-05-09T13:36:59.951Z</time>
      </trkpt>
      <trkpt lat="51.903514" lon="6.110737">
        <ele>55.636564</ele>
        <time>2026-05-09T13:37:02.957Z</time>
      </trkpt>
      <trkpt lat="51.903420" lon="6.110748">
        <ele>55.584631</ele>
        <time>2026-05-09T13:37:04.949Z</time>
      </trkpt>
      <trkpt lat="51.903325" lon="6.110733">
        <ele>55.532034</ele>
        <time>2026-05-09T13:37:06.960Z</time>
      </trkpt>
      <trkpt lat="51.903233" lon="6.110700">
        <ele>55.480112</ele>
        <time>2026-05-09T13:37:08.957Z</time>
      </trkpt>
      <trkpt lat="51.903137" lon="6.110654">
        <ele>55.424949</ele>
        <time>2026-05-09T13:37:10.956Z</time>
      </trkpt>
      <trkpt lat="51.903039" lon="6.110590">
        <ele>55.366727</ele>
        <time>2026-05-09T13:37:12.957Z</time>
      </trkpt>
      <trkpt lat="51.902940" lon="6.110515">
        <ele>55.306509</ele>
        <time>2026-05-09T13:37:14.955Z</time>
      </trkpt>
      <trkpt lat="51.902847" lon="6.110443">
        <ele>55.249716</ele>
        <time>2026-05-09T13:37:16.957Z</time>
      </trkpt>
      <trkpt lat="51.902755" lon="6.110358">
        <ele>55.191361</ele>
        <time>2026-05-09T13:37:18.961Z</time>
      </trkpt>
      <trkpt lat="51.902660" lon="6.110281">
        <ele>55.132831</ele>
        <time>2026-05-09T13:37:20.960Z</time>
      </trkpt>
      <trkpt lat="51.902564" lon="6.110194">
        <ele>55.125028</ele>
        <time>2026-05-09T13:37:22.955Z</time>
      </trkpt>
      <trkpt lat="51.902475" lon="6.110116">
        <ele>55.148289</ele>
        <time>2026-05-09T13:37:24.955Z</time>
      </trkpt>
      <trkpt lat="51.902386" lon="6.110046">
        <ele>55.171032</ele>
        <time>2026-05-09T13:37:26.955Z</time>
      </trkpt>
      <trkpt lat="51.902298" lon="6.109973">
        <ele>55.193759</ele>
        <time>2026-05-09T13:37:28.963Z</time>
      </trkpt>
      <trkpt lat="51.902211" lon="6.109902">
        <ele>55.216153</ele>
        <time>2026-05-09T13:37:30.962Z</time>
      </trkpt>
      <trkpt lat="51.902127" lon="6.109829">
        <ele>55.238065</ele>
        <time>2026-05-09T13:37:32.958Z</time>
      </trkpt>
      <trkpt lat="51.902044" lon="6.109754">
        <ele>55.259912</ele>
        <time>2026-05-09T13:37:34.954Z</time>
      </trkpt>
      <trkpt lat="51.901957" lon="6.109687">
        <ele>55.282056</ele>
        <time>2026-05-09T13:37:36.953Z</time>
      </trkpt>
      <trkpt lat="51.901868" lon="6.109615">
        <ele>55.304924</ele>
        <time>2026-05-09T13:37:38.958Z</time>
      </trkpt>
      <trkpt lat="51.901783" lon="6.109539">
        <ele>55.327242</ele>
        <time>2026-05-09T13:37:40.957Z</time>
      </trkpt>
      <trkpt lat="51.901688" lon="6.109461">
        <ele>55.351725</ele>
        <time>2026-05-09T13:37:42.952Z</time>
      </trkpt>
      <trkpt lat="51.901592" lon="6.109382">
        <ele>55.376477</ele>
        <time>2026-05-09T13:37:44.957Z</time>
      </trkpt>
      <trkpt lat="51.901495" lon="6.109305">
        <ele>55.401309</ele>
        <time>2026-05-09T13:37:46.952Z</time>
      </trkpt>
      <trkpt lat="51.901406" lon="6.109231">
        <ele>55.424305</ele>
        <time>2026-05-09T13:37:48.952Z</time>
      </trkpt>
      <trkpt lat="51.901314" lon="6.109159">
        <ele>55.447792</ele>
        <time>2026-05-09T13:37:50.958Z</time>
      </trkpt>
      <trkpt lat="51.901221" lon="6.109086">
        <ele>55.471549</ele>
        <time>2026-05-09T13:37:52.955Z</time>
      </trkpt>
      <trkpt lat="51.901131" lon="6.109015">
        <ele>55.494560</ele>
        <time>2026-05-09T13:37:54.958Z</time>
      </trkpt>
      <trkpt lat="51.901046" lon="6.108946">
        <ele>55.516416</ele>
        <time>2026-05-09T13:37:56.959Z</time>
      </trkpt>
      <trkpt lat="51.900960" lon="6.108861">
        <ele>55.557141</ele>
        <time>2026-05-09T13:37:58.959Z</time>
      </trkpt>
      <trkpt lat="51.900866" lon="6.108779">
        <ele>55.607677</ele>
        <time>2026-05-09T13:38:00.963Z</time>
      </trkpt>
      <trkpt lat="51.900767" lon="6.108697">
        <ele>55.660309</ele>
        <time>2026-05-09T13:38:02.955Z</time>
      </trkpt>
      <trkpt lat="51.900663" lon="6.108611">
        <ele>55.715581</ele>
        <time>2026-05-09T13:38:04.960Z</time>
      </trkpt>
      <trkpt lat="51.900566" lon="6.108527">
        <ele>55.767644</ele>
        <time>2026-05-09T13:38:06.957Z</time>
      </trkpt>
      <trkpt lat="51.900465" lon="6.108443">
        <ele>55.821385</ele>
        <time>2026-05-09T13:38:08.951Z</time>
      </trkpt>
      <trkpt lat="51.900367" lon="6.108360">
        <ele>55.873731</ele>
        <time>2026-05-09T13:38:10.957Z</time>
      </trkpt>
      <trkpt lat="51.900268" lon="6.108281">
        <ele>55.925970</ele>
        <time>2026-05-09T13:38:12.955Z</time>
      </trkpt>
      <trkpt lat="51.900171" lon="6.108200">
        <ele>55.977627</ele>
        <time>2026-05-09T13:38:14.954Z</time>
      </trkpt>
      <trkpt lat="51.900073" lon="6.108119">
        <ele>56.029704</ele>
        <time>2026-05-09T13:38:16.954Z</time>
      </trkpt>
      <trkpt lat="51.899975" lon="6.108036">
        <ele>56.082050</ele>
        <time>2026-05-09T13:38:18.955Z</time>
      </trkpt>
      <trkpt lat="51.899875" lon="6.107953">
        <ele>56.135237</ele>
        <time>2026-05-09T13:38:20.957Z</time>
      </trkpt>
      <trkpt lat="51.899781" lon="6.107876">
        <ele>56.185097</ele>
        <time>2026-05-09T13:38:22.958Z</time>
      </trkpt>
      <trkpt lat="51.899685" lon="6.107796">
        <ele>56.236199</ele>
        <time>2026-05-09T13:38:24.959Z</time>
      </trkpt>
      <trkpt lat="51.899590" lon="6.107716">
        <ele>56.286881</ele>
        <time>2026-05-09T13:38:26.954Z</time>
      </trkpt>
      <trkpt lat="51.899498" lon="6.107635">
        <ele>56.336445</ele>
        <time>2026-05-09T13:38:28.954Z</time>
      </trkpt>
      <trkpt lat="51.899405" lon="6.107560">
        <ele>56.396140</ele>
        <time>2026-05-09T13:38:30.958Z</time>
      </trkpt>
      <trkpt lat="51.899309" lon="6.107486">
        <ele>56.493887</ele>
        <time>2026-05-09T13:38:32.953Z</time>
      </trkpt>
      <trkpt lat="51.899212" lon="6.107402">
        <ele>56.595012</ele>
        <time>2026-05-09T13:38:34.951Z</time>
      </trkpt>
      <trkpt lat="51.899115" lon="6.107325">
        <ele>56.694326</ele>
        <time>2026-05-09T13:38:36.956Z</time>
      </trkpt>
      <trkpt lat="51.899019" lon="6.107243">
        <ele>56.794107</ele>
        <time>2026-05-09T13:38:38.956Z</time>
      </trkpt>
      <trkpt lat="51.898918" lon="6.107158">
        <ele>56.898750</ele>
        <time>2026-05-09T13:38:40.955Z</time>
      </trkpt>
      <trkpt lat="51.898823" lon="6.107074">
        <ele>56.998257</ele>
        <time>2026-05-09T13:38:42.965Z</time>
      </trkpt>
      <trkpt lat="51.898727" lon="6.107000">
        <ele>57.096004</ele>
        <time>2026-05-09T13:38:44.957Z</time>
      </trkpt>
      <trkpt lat="51.898630" lon="6.106919">
        <ele>57.196338</ele>
        <time>2026-05-09T13:38:46.956Z</time>
      </trkpt>
      <trkpt lat="51.898536" lon="6.106838">
        <ele>57.294228</ele>
        <time>2026-05-09T13:38:48.955Z</time>
      </trkpt>
      <trkpt lat="51.898443" lon="6.106762">
        <ele>57.389997</ele>
        <time>2026-05-09T13:38:50.952Z</time>
      </trkpt>
      <trkpt lat="51.898349" lon="6.106683">
        <ele>57.487359</ele>
        <time>2026-05-09T13:38:52.956Z</time>
      </trkpt>
      <trkpt lat="51.898256" lon="6.106605">
        <ele>57.583645</ele>
        <time>2026-05-09T13:38:54.955Z</time>
      </trkpt>
      <trkpt lat="51.898162" lon="6.106523">
        <ele>57.681803</ele>
        <time>2026-05-09T13:38:56.954Z</time>
      </trkpt>
      <trkpt lat="51.898069" lon="6.106446">
        <ele>57.777828</ele>
        <time>2026-05-09T13:38:58.963Z</time>
      </trkpt>
      <trkpt lat="51.897979" lon="6.106374">
        <ele>57.870116</ele>
        <time>2026-05-09T13:39:00.956Z</time>
      </trkpt>
      <trkpt lat="51.897893" lon="6.106306">
        <ele>57.958102</ele>
        <time>2026-05-09T13:39:02.957Z</time>
      </trkpt>
      <trkpt lat="51.897775" lon="6.106207">
        <ele>58.057121</ele>
        <time>2026-05-09T13:39:05.954Z</time>
      </trkpt>
      <trkpt lat="51.897662" lon="6.106115">
        <ele>58.121612</ele>
        <time>2026-05-09T13:39:08.954Z</time>
      </trkpt>
      <trkpt lat="51.897547" lon="6.106020">
        <ele>58.187439</ele>
        <time>2026-05-09T13:39:11.958Z</time>
      </trkpt>
      <trkpt lat="51.897432" lon="6.105921">
        <ele>58.253847</ele>
        <time>2026-05-09T13:39:14.960Z</time>
      </trkpt>
      <trkpt lat="51.897319" lon="6.105823">
        <ele>58.319208</ele>
        <time>2026-05-09T13:39:17.955Z</time>
      </trkpt>
      <trkpt lat="51.897207" lon="6.105725">
        <ele>58.384119</ele>
        <time>2026-05-09T13:39:20.960Z</time>
      </trkpt>
      <trkpt lat="51.897086" lon="6.105635">
        <ele>58.452016</ele>
        <time>2026-05-09T13:39:23.967Z</time>
      </trkpt>
      <trkpt lat="51.896999" lon="6.105571">
        <ele>58.500741</ele>
        <time>2026-05-09T13:39:25.955Z</time>
      </trkpt>
      <trkpt lat="51.896914" lon="6.105512">
        <ele>58.547898</ele>
        <time>2026-05-09T13:39:27.960Z</time>
      </trkpt>
      <trkpt lat="51.896791" lon="6.105428">
        <ele>58.615967</ele>
        <time>2026-05-09T13:39:30.958Z</time>
      </trkpt>
      <trkpt lat="51.896704" lon="6.105376">
        <ele>58.663257</ele>
        <time>2026-05-09T13:39:32.965Z</time>
      </trkpt>
      <trkpt lat="51.896612" lon="6.105321">
        <ele>58.713265</ele>
        <time>2026-05-09T13:39:34.958Z</time>
      </trkpt>
      <trkpt lat="51.896517" lon="6.105259">
        <ele>58.765494</ele>
        <time>2026-05-09T13:39:36.959Z</time>
      </trkpt>
      <trkpt lat="51.896423" lon="6.105209">
        <ele>58.815948</ele>
        <time>2026-05-09T13:39:38.956Z</time>
      </trkpt>
      <trkpt lat="51.896332" lon="6.105161">
        <ele>58.864752</ele>
        <time>2026-05-09T13:39:40.957Z</time>
      </trkpt>
      <trkpt lat="51.896245" lon="6.105102">
        <ele>58.912849</ele>
        <time>2026-05-09T13:39:42.955Z</time>
      </trkpt>
      <trkpt lat="51.896153" lon="6.105045">
        <ele>58.937944</ele>
        <time>2026-05-09T13:39:44.957Z</time>
      </trkpt>
      <trkpt lat="51.896061" lon="6.104986">
        <ele>58.916070</ele>
        <time>2026-05-09T13:39:46.959Z</time>
      </trkpt>
      <trkpt lat="51.895969" lon="6.104930">
        <ele>58.894343</ele>
        <time>2026-05-09T13:39:48.957Z</time>
      </trkpt>
      <trkpt lat="51.895880" lon="6.104876">
        <ele>58.873333</ele>
        <time>2026-05-09T13:39:50.964Z</time>
      </trkpt>
      <trkpt lat="51.895795" lon="6.104819">
        <ele>58.852996</ele>
        <time>2026-05-09T13:39:52.963Z</time>
      </trkpt>
      <trkpt lat="51.895705" lon="6.104766">
        <ele>58.831825</ele>
        <time>2026-05-09T13:39:54.956Z</time>
      </trkpt>
      <trkpt lat="51.895611" lon="6.104710">
        <ele>58.809684</ele>
        <time>2026-05-09T13:39:56.954Z</time>
      </trkpt>
      <trkpt lat="51.895521" lon="6.104649">
        <ele>58.788116</ele>
        <time>2026-05-09T13:39:58.958Z</time>
      </trkpt>
      <trkpt lat="51.895429" lon="6.104602">
        <ele>58.766790</ele>
        <time>2026-05-09T13:40:00.956Z</time>
      </trkpt>
      <trkpt lat="51.895340" lon="6.104543">
        <ele>58.745531</ele>
        <time>2026-05-09T13:40:02.955Z</time>
      </trkpt>
      <trkpt lat="51.895250" lon="6.104484">
        <ele>58.724068</ele>
        <time>2026-05-09T13:40:04.956Z</time>
      </trkpt>
      <trkpt lat="51.895158" lon="6.104426">
        <ele>58.702243</ele>
        <time>2026-05-09T13:40:06.963Z</time>
      </trkpt>
      <trkpt lat="51.895069" lon="6.104378">
        <ele>58.681506</ele>
        <time>2026-05-09T13:40:08.956Z</time>
      </trkpt>
      <trkpt lat="51.894979" lon="6.104321">
        <ele>58.660143</ele>
        <time>2026-05-09T13:40:10.961Z</time>
      </trkpt>
      <trkpt lat="51.894888" lon="6.104265">
        <ele>58.638623</ele>
        <time>2026-05-09T13:40:12.961Z</time>
      </trkpt>
      <trkpt lat="51.894795" lon="6.104211">
        <ele>58.616783</ele>
        <time>2026-05-09T13:40:14.957Z</time>
      </trkpt>
      <trkpt lat="51.894698" lon="6.104150">
        <ele>58.593780</ele>
        <time>2026-05-09T13:40:16.958Z</time>
      </trkpt>
      <trkpt lat="51.894599" lon="6.104089">
        <ele>58.570364</ele>
        <time>2026-05-09T13:40:18.955Z</time>
      </trkpt>
      <trkpt lat="51.894501" lon="6.104034">
        <ele>58.549679</ele>
        <time>2026-05-09T13:40:20.958Z</time>
      </trkpt>
      <trkpt lat="51.894400" lon="6.103972">
        <ele>58.640866</ele>
        <time>2026-05-09T13:40:22.957Z</time>
      </trkpt>
      <trkpt lat="51.894297" lon="6.103914">
        <ele>58.732930</ele>
        <time>2026-05-09T13:40:24.960Z</time>
      </trkpt>
      <trkpt lat="51.894194" lon="6.103857">
        <ele>58.824823</ele>
        <time>2026-05-09T13:40:26.957Z</time>
      </trkpt>
      <trkpt lat="51.894092" lon="6.103804">
        <ele>58.915261</ele>
        <time>2026-05-09T13:40:28.967Z</time>
      </trkpt>
      <trkpt lat="51.893992" lon="6.103735">
        <ele>59.007026</ele>
        <time>2026-05-09T13:40:30.960Z</time>
      </trkpt>
      <trkpt lat="51.893892" lon="6.103668">
        <ele>59.098387</ele>
        <time>2026-05-09T13:40:32.959Z</time>
      </trkpt>
      <trkpt lat="51.893792" lon="6.103611">
        <ele>59.187888</ele>
        <time>2026-05-09T13:40:34.957Z</time>
      </trkpt>
      <trkpt lat="51.893693" lon="6.103545">
        <ele>59.278271</ele>
        <time>2026-05-09T13:40:36.961Z</time>
      </trkpt>
      <trkpt lat="51.893594" lon="6.103478">
        <ele>59.368853</ele>
        <time>2026-05-09T13:40:38.965Z</time>
      </trkpt>
      <trkpt lat="51.893497" lon="6.103422">
        <ele>59.455792</ele>
        <time>2026-05-09T13:40:40.956Z</time>
      </trkpt>
      <trkpt lat="51.893402" lon="6.103369">
        <ele>59.540621</ele>
        <time>2026-05-09T13:40:42.953Z</time>
      </trkpt>
      <trkpt lat="51.893305" lon="6.103310">
        <ele>59.628097</ele>
        <time>2026-05-09T13:40:44.964Z</time>
      </trkpt>
      <trkpt lat="51.893214" lon="6.103248">
        <ele>59.711443</ele>
        <time>2026-05-09T13:40:46.955Z</time>
      </trkpt>
      <trkpt lat="51.893120" lon="6.103197">
        <ele>59.795137</ele>
        <time>2026-05-09T13:40:48.954Z</time>
      </trkpt>
      <trkpt lat="51.893028" lon="6.103131">
        <ele>59.880085</ele>
        <time>2026-05-09T13:40:50.952Z</time>
      </trkpt>
      <trkpt lat="51.892938" lon="6.103055">
        <ele>59.965770</ele>
        <time>2026-05-09T13:40:52.959Z</time>
      </trkpt>
      <trkpt lat="51.892845" lon="6.102985">
        <ele>60.052347</ele>
        <time>2026-05-09T13:40:54.959Z</time>
      </trkpt>
      <trkpt lat="51.892746" lon="6.102934">
        <ele>60.083309</ele>
        <time>2026-05-09T13:40:56.959Z</time>
      </trkpt>
      <trkpt lat="51.892644" lon="6.102879">
        <ele>60.104061</ele>
        <time>2026-05-09T13:40:58.961Z</time>
      </trkpt>
      <trkpt lat="51.892541" lon="6.102817">
        <ele>60.125273</ele>
        <time>2026-05-09T13:41:00.958Z</time>
      </trkpt>
      <trkpt lat="51.892438" lon="6.102742">
        <ele>60.147073</ele>
        <time>2026-05-09T13:41:02.962Z</time>
      </trkpt>
      <trkpt lat="51.892336" lon="6.102677">
        <ele>60.168232</ele>
        <time>2026-05-09T13:41:04.962Z</time>
      </trkpt>
      <trkpt lat="51.892235" lon="6.102624">
        <ele>60.188727</ele>
        <time>2026-05-09T13:41:06.954Z</time>
      </trkpt>
      <trkpt lat="51.892131" lon="6.102593">
        <ele>60.209142</ele>
        <time>2026-05-09T13:41:08.957Z</time>
      </trkpt>
      <trkpt lat="51.892032" lon="6.102548">
        <ele>60.228991</ele>
        <time>2026-05-09T13:41:10.962Z</time>
      </trkpt>
      <trkpt lat="51.891933" lon="6.102486">
        <ele>60.249481</ele>
        <time>2026-05-09T13:41:12.958Z</time>
      </trkpt>
      <trkpt lat="51.891830" lon="6.102428">
        <ele>60.270532</ele>
        <time>2026-05-09T13:41:14.960Z</time>
      </trkpt>
      <trkpt lat="51.891725" lon="6.102360">
        <ele>60.292362</ele>
        <time>2026-05-09T13:41:16.961Z</time>
      </trkpt>
      <trkpt lat="51.891629" lon="6.102271">
        <ele>60.313713</ele>
        <time>2026-05-09T13:41:18.962Z</time>
      </trkpt>
      <trkpt lat="51.891536" lon="6.102177">
        <ele>60.334874</ele>
        <time>2026-05-09T13:41:20.959Z</time>
      </trkpt>
      <trkpt lat="51.891440" lon="6.102111">
        <ele>60.355006</ele>
        <time>2026-05-09T13:41:22.958Z</time>
      </trkpt>
      <trkpt lat="51.891344" lon="6.102056">
        <ele>60.374663</ele>
        <time>2026-05-09T13:41:24.963Z</time>
      </trkpt>
      <trkpt lat="51.891249" lon="6.102009">
        <ele>60.393839</ele>
        <time>2026-05-09T13:41:26.956Z</time>
      </trkpt>
      <trkpt lat="51.891156" lon="6.101982">
        <ele>60.412079</ele>
        <time>2026-05-09T13:41:28.953Z</time>
      </trkpt>
      <trkpt lat="51.891064" lon="6.101951">
        <ele>60.374639</ele>
        <time>2026-05-09T13:41:30.958Z</time>
      </trkpt>
      <trkpt lat="51.890972" lon="6.101886">
        <ele>60.328757</ele>
        <time>2026-05-09T13:41:32.954Z</time>
      </trkpt>
      <trkpt lat="51.890870" lon="6.101824">
        <ele>60.278955</ele>
        <time>2026-05-09T13:41:34.957Z</time>
      </trkpt>
      <trkpt lat="51.890767" lon="6.101763">
        <ele>60.228821</ele>
        <time>2026-05-09T13:41:36.959Z</time>
      </trkpt>
      <trkpt lat="51.890664" lon="6.101702">
        <ele>60.178688</ele>
        <time>2026-05-09T13:41:38.955Z</time>
      </trkpt>
      <trkpt lat="51.890564" lon="6.101639">
        <ele>60.129639</ele>
        <time>2026-05-09T13:41:40.952Z</time>
      </trkpt>
      <trkpt lat="51.890460" lon="6.101573">
        <ele>60.078578</ele>
        <time>2026-05-09T13:41:42.965Z</time>
      </trkpt>
      <trkpt lat="51.890350" lon="6.101503">
        <ele>60.024552</ele>
        <time>2026-05-09T13:41:44.952Z</time>
      </trkpt>
      <trkpt lat="51.890243" lon="6.101437">
        <ele>59.972213</ele>
        <time>2026-05-09T13:41:46.957Z</time>
      </trkpt>
      <trkpt lat="51.890139" lon="6.101366">
        <ele>59.920621</ele>
        <time>2026-05-09T13:41:48.957Z</time>
      </trkpt>
      <trkpt lat="51.890034" lon="6.101304">
        <ele>59.869532</ele>
        <time>2026-05-09T13:41:50.956Z</time>
      </trkpt>
      <trkpt lat="51.889936" lon="6.101234">
        <ele>59.820571</ele>
        <time>2026-05-09T13:41:52.957Z</time>
      </trkpt>
      <trkpt lat="51.889840" lon="6.101163">
        <ele>59.772329</ele>
        <time>2026-05-09T13:41:54.957Z</time>
      </trkpt>
      <trkpt lat="51.889746" lon="6.101082">
        <ele>59.723657</ele>
        <time>2026-05-09T13:41:56.952Z</time>
      </trkpt>
      <trkpt lat="51.889652" lon="6.100997">
        <ele>59.674446</ele>
        <time>2026-05-09T13:41:58.957Z</time>
      </trkpt>
      <trkpt lat="51.889559" lon="6.100898">
        <ele>59.623576</ele>
        <time>2026-05-09T13:42:00.958Z</time>
      </trkpt>
      <trkpt lat="51.889470" lon="6.100800">
        <ele>59.578864</ele>
        <time>2026-05-09T13:42:02.961Z</time>
      </trkpt>
      <trkpt lat="51.889388" lon="6.100687">
        <ele>59.542561</ele>
        <time>2026-05-09T13:42:04.958Z</time>
      </trkpt>
      <trkpt lat="51.889315" lon="6.100550">
        <ele>59.504890</ele>
        <time>2026-05-09T13:42:06.969Z</time>
      </trkpt>
      <trkpt lat="51.889233" lon="6.100420">
        <ele>59.466201</ele>
        <time>2026-05-09T13:42:08.955Z</time>
      </trkpt>
      <trkpt lat="51.889147" lon="6.100305">
        <ele>59.428598</ele>
        <time>2026-05-09T13:42:10.953Z</time>
      </trkpt>
      <trkpt lat="51.889056" lon="6.100202">
        <ele>59.391163</ele>
        <time>2026-05-09T13:42:12.961Z</time>
      </trkpt>
      <trkpt lat="51.888973" lon="6.100080">
        <ele>59.353371</ele>
        <time>2026-05-09T13:42:14.959Z</time>
      </trkpt>
      <trkpt lat="51.888902" lon="6.099934">
        <ele>59.314683</ele>
        <time>2026-05-09T13:42:16.957Z</time>
      </trkpt>
      <trkpt lat="51.888831" lon="6.099781">
        <ele>59.274841</ele>
        <time>2026-05-09T13:42:18.958Z</time>
      </trkpt>
      <trkpt lat="51.888770" lon="6.099621">
        <ele>59.235698</ele>
        <time>2026-05-09T13:42:20.958Z</time>
      </trkpt>
      <trkpt lat="51.888712" lon="6.099466">
        <ele>59.197970</ele>
        <time>2026-05-09T13:42:22.959Z</time>
      </trkpt>
      <trkpt lat="51.888653" lon="6.099310">
        <ele>59.159889</ele>
        <time>2026-05-09T13:42:24.966Z</time>
      </trkpt>
      <trkpt lat="51.888597" lon="6.099157">
        <ele>59.122865</ele>
        <time>2026-05-09T13:42:26.957Z</time>
      </trkpt>
      <trkpt lat="51.888539" lon="6.099002">
        <ele>59.085138</ele>
        <time>2026-05-09T13:42:28.957Z</time>
      </trkpt>
      <trkpt lat="51.888484" lon="6.098844">
        <ele>59.047382</ele>
        <time>2026-05-09T13:42:30.951Z</time>
      </trkpt>
      <trkpt lat="51.888439" lon="6.098686">
        <ele>59.011163</ele>
        <time>2026-05-09T13:42:32.954Z</time>
      </trkpt>
      <trkpt lat="51.888410" lon="6.098522">
        <ele>58.968710</ele>
        <time>2026-05-09T13:42:34.959Z</time>
      </trkpt>
      <trkpt lat="51.888411" lon="6.098347">
        <ele>58.904917</ele>
        <time>2026-05-09T13:42:36.956Z</time>
      </trkpt>
      <trkpt lat="51.888423" lon="6.098181">
        <ele>58.843994</ele>
        <time>2026-05-09T13:42:38.958Z</time>
      </trkpt>
      <trkpt lat="51.888448" lon="6.098022">
        <ele>58.784186</ele>
        <time>2026-05-09T13:42:40.956Z</time>
      </trkpt>
      <trkpt lat="51.888435" lon="6.097877">
        <ele>58.730777</ele>
        <time>2026-05-09T13:42:42.959Z</time>
      </trkpt>
      <trkpt lat="51.888341" lon="6.097747">
        <ele>58.657787</ele>
        <time>2026-05-09T13:42:45.962Z</time>
      </trkpt>
      <trkpt lat="51.888220" lon="6.097776">
        <ele>58.585547</ele>
        <time>2026-05-09T13:42:48.959Z</time>
      </trkpt>
      <trkpt lat="51.888106" lon="6.097655">
        <ele>58.505059</ele>
        <time>2026-05-09T13:42:51.968Z</time>
      </trkpt>
      <trkpt lat="51.888039" lon="6.097521">
        <ele>58.442197</ele>
        <time>2026-05-09T13:42:53.962Z</time>
      </trkpt>
      <trkpt lat="51.887973" lon="6.097373">
        <ele>58.375640</ele>
        <time>2026-05-09T13:42:55.970Z</time>
      </trkpt>
      <trkpt lat="51.887913" lon="6.097216">
        <ele>58.308328</ele>
        <time>2026-05-09T13:42:57.958Z</time>
      </trkpt>
      <trkpt lat="51.887854" lon="6.097066">
        <ele>58.243491</ele>
        <time>2026-05-09T13:42:59.958Z</time>
      </trkpt>
      <trkpt lat="51.887792" lon="6.096915">
        <ele>58.177382</ele>
        <time>2026-05-09T13:43:01.972Z</time>
      </trkpt>
      <trkpt lat="51.887722" lon="6.096772">
        <ele>58.110852</ele>
        <time>2026-05-09T13:43:03.971Z</time>
      </trkpt>
      <trkpt lat="51.887660" lon="6.096631">
        <ele>58.047745</ele>
        <time>2026-05-09T13:43:05.954Z</time>
      </trkpt>
      <trkpt lat="51.887601" lon="6.096496">
        <ele>57.987447</ele>
        <time>2026-05-09T13:43:07.973Z</time>
      </trkpt>
      <trkpt lat="51.887539" lon="6.096358">
        <ele>57.925228</ele>
        <time>2026-05-09T13:43:09.968Z</time>
      </trkpt>
      <trkpt lat="51.887475" lon="6.096209">
        <ele>57.882181</ele>
        <time>2026-05-09T13:43:11.953Z</time>
      </trkpt>
      <trkpt lat="51.887408" lon="6.096063">
        <ele>57.839985</ele>
        <time>2026-05-09T13:43:13.955Z</time>
      </trkpt>
      <trkpt lat="51.887343" lon="6.095920">
        <ele>57.798797</ele>
        <time>2026-05-09T13:43:15.956Z</time>
      </trkpt>
      <trkpt lat="51.887271" lon="6.095785">
        <ele>57.757416</ele>
        <time>2026-05-09T13:43:17.960Z</time>
      </trkpt>
      <trkpt lat="51.887202" lon="6.095656">
        <ele>57.717826</ele>
        <time>2026-05-09T13:43:19.955Z</time>
      </trkpt>
      <trkpt lat="51.887133" lon="6.095526">
        <ele>57.678060</ele>
        <time>2026-05-09T13:43:21.959Z</time>
      </trkpt>
      <trkpt lat="51.887063" lon="6.095390">
        <ele>57.636990</ele>
        <time>2026-05-09T13:43:23.954Z</time>
      </trkpt>
      <trkpt lat="51.886992" lon="6.095263">
        <ele>57.597248</ele>
        <time>2026-05-09T13:43:25.960Z</time>
      </trkpt>
      <trkpt lat="51.886923" lon="6.095137">
        <ele>57.558181</ele>
        <time>2026-05-09T13:43:27.971Z</time>
      </trkpt>
      <trkpt lat="51.886849" lon="6.095019">
        <ele>57.519166</ele>
        <time>2026-05-09T13:43:29.958Z</time>
      </trkpt>
      <trkpt lat="51.886780" lon="6.094900">
        <ele>57.481297</ele>
        <time>2026-05-09T13:43:31.954Z</time>
      </trkpt>
      <trkpt lat="51.886710" lon="6.094781">
        <ele>57.443171</ele>
        <time>2026-05-09T13:43:33.957Z</time>
      </trkpt>
      <trkpt lat="51.886640" lon="6.094656">
        <ele>57.404025</ele>
        <time>2026-05-09T13:43:35.956Z</time>
      </trkpt>
      <trkpt lat="51.886562" lon="6.094539">
        <ele>57.364082</ele>
        <time>2026-05-09T13:43:37.956Z</time>
      </trkpt>
      <trkpt lat="51.886489" lon="6.094426">
        <ele>57.326144</ele>
        <time>2026-05-09T13:43:39.971Z</time>
      </trkpt>
      <trkpt lat="51.886422" lon="6.094316">
        <ele>57.290301</ele>
        <time>2026-05-09T13:43:41.954Z</time>
      </trkpt>
      <trkpt lat="51.886352" lon="6.094207">
        <ele>57.253818</ele>
        <time>2026-05-09T13:43:43.958Z</time>
      </trkpt>
      <trkpt lat="51.886283" lon="6.094094">
        <ele>57.264276</ele>
        <time>2026-05-09T13:43:45.957Z</time>
      </trkpt>
      <trkpt lat="51.886207" lon="6.093978">
        <ele>57.287336</ele>
        <time>2026-05-09T13:43:47.956Z</time>
      </trkpt>
      <trkpt lat="51.886127" lon="6.093861">
        <ele>57.311137</ele>
        <time>2026-05-09T13:43:49.957Z</time>
      </trkpt>
      <trkpt lat="51.886046" lon="6.093742">
        <ele>57.335286</ele>
        <time>2026-05-09T13:43:51.961Z</time>
      </trkpt>
      <trkpt lat="51.885959" lon="6.093628">
        <ele>57.359998</ele>
        <time>2026-05-09T13:43:53.969Z</time>
      </trkpt>
      <trkpt lat="51.885878" lon="6.093515">
        <ele>57.383604</ele>
        <time>2026-05-09T13:43:55.965Z</time>
      </trkpt>
      <trkpt lat="51.885792" lon="6.093402">
        <ele>57.408059</ele>
        <time>2026-05-09T13:43:57.965Z</time>
      </trkpt>
      <trkpt lat="51.885709" lon="6.093288">
        <ele>57.432090</ele>
        <time>2026-05-09T13:43:59.954Z</time>
      </trkpt>
      <trkpt lat="51.885626" lon="6.093171">
        <ele>57.456388</ele>
        <time>2026-05-09T13:44:01.969Z</time>
      </trkpt>
      <trkpt lat="51.885542" lon="6.093053">
        <ele>57.480942</ele>
        <time>2026-05-09T13:44:03.956Z</time>
      </trkpt>
      <trkpt lat="51.885461" lon="6.092937">
        <ele>57.504818</ele>
        <time>2026-05-09T13:44:05.957Z</time>
      </trkpt>
      <trkpt lat="51.885384" lon="6.092823">
        <ele>57.527854</ele>
        <time>2026-05-09T13:44:07.953Z</time>
      </trkpt>
      <trkpt lat="51.885306" lon="6.092703">
        <ele>57.551610</ele>
        <time>2026-05-09T13:44:09.960Z</time>
      </trkpt>
      <trkpt lat="51.885235" lon="6.092576">
        <ele>57.574968</ele>
        <time>2026-05-09T13:44:11.952Z</time>
      </trkpt>
      <trkpt lat="51.885172" lon="6.092442">
        <ele>57.597930</ele>
        <time>2026-05-09T13:44:13.960Z</time>
      </trkpt>
      <trkpt lat="51.885114" lon="6.092310">
        <ele>57.620018</ele>
        <time>2026-05-09T13:44:15.968Z</time>
      </trkpt>
      <trkpt lat="51.885058" lon="6.092169">
        <ele>57.642874</ele>
        <time>2026-05-09T13:44:17.964Z</time>
      </trkpt>
      <trkpt lat="51.885008" lon="6.092030">
        <ele>57.829591</ele>
        <time>2026-05-09T13:44:19.956Z</time>
      </trkpt>
      <trkpt lat="51.884960" lon="6.091889">
        <ele>58.025313</ele>
        <time>2026-05-09T13:44:21.957Z</time>
      </trkpt>
      <trkpt lat="51.884916" lon="6.091757">
        <ele>58.207660</ele>
        <time>2026-05-09T13:44:23.957Z</time>
      </trkpt>
      <trkpt lat="51.884865" lon="6.091562">
        <ele>58.465081</ele>
        <time>2026-05-09T13:44:26.956Z</time>
      </trkpt>
      <trkpt lat="51.884834" lon="6.091425">
        <ele>58.642441</ele>
        <time>2026-05-09T13:44:28.955Z</time>
      </trkpt>
      <trkpt lat="51.884806" lon="6.091285">
        <ele>58.821321</ele>
        <time>2026-05-09T13:44:30.959Z</time>
      </trkpt>
      <trkpt lat="51.884775" lon="6.091075">
        <ele>59.083774</ele>
        <time>2026-05-09T13:44:33.957Z</time>
      </trkpt>
      <trkpt lat="51.884747" lon="6.090865">
        <ele>59.344916</ele>
        <time>2026-05-09T13:44:36.954Z</time>
      </trkpt>
      <trkpt lat="51.884730" lon="6.090650">
        <ele>59.608384</ele>
        <time>2026-05-09T13:44:39.957Z</time>
      </trkpt>
      <trkpt lat="51.884721" lon="6.090434">
        <ele>59.871529</ele>
        <time>2026-05-09T13:44:42.957Z</time>
      </trkpt>
      <trkpt lat="51.884725" lon="6.090286">
        <ele>60.051595</ele>
        <time>2026-05-09T13:44:44.964Z</time>
      </trkpt>
      <trkpt lat="51.884728" lon="6.090138">
        <ele>60.231586</ele>
        <time>2026-05-09T13:44:46.956Z</time>
      </trkpt>
      <trkpt lat="51.884736" lon="6.089918">
        <ele>60.499460</ele>
        <time>2026-05-09T13:44:49.961Z</time>
      </trkpt>
      <trkpt lat="51.884746" lon="6.089766">
        <ele>60.685262</ele>
        <time>2026-05-09T13:44:51.962Z</time>
      </trkpt>
      <trkpt lat="51.884752" lon="6.089613">
        <ele>60.871609</ele>
        <time>2026-05-09T13:44:53.956Z</time>
      </trkpt>
      <trkpt lat="51.884764" lon="6.089463">
        <ele>61.055459</ele>
        <time>2026-05-09T13:44:55.958Z</time>
      </trkpt>
      <trkpt lat="51.884791" lon="6.089258">
        <ele>61.047276</ele>
        <time>2026-05-09T13:44:58.961Z</time>
      </trkpt>
      <trkpt lat="51.884823" lon="6.089059">
        <ele>60.768466</ele>
        <time>2026-05-09T13:45:01.955Z</time>
      </trkpt>
      <trkpt lat="51.884853" lon="6.088870">
        <ele>60.503883</ele>
        <time>2026-05-09T13:45:04.958Z</time>
      </trkpt>
      <trkpt lat="51.884888" lon="6.088673">
        <ele>60.225947</ele>
        <time>2026-05-09T13:45:07.960Z</time>
      </trkpt>
      <trkpt lat="51.884916" lon="6.088464">
        <ele>59.935987</ele>
        <time>2026-05-09T13:45:10.961Z</time>
      </trkpt>
      <trkpt lat="51.884935" lon="6.088306">
        <ele>59.717744</ele>
        <time>2026-05-09T13:45:12.960Z</time>
      </trkpt>
      <trkpt lat="51.884957" lon="6.088132">
        <ele>59.476937</ele>
        <time>2026-05-09T13:45:14.960Z</time>
      </trkpt>
      <trkpt lat="51.884986" lon="6.087940">
        <ele>59.208944</ele>
        <time>2026-05-09T13:45:16.960Z</time>
      </trkpt>
      <trkpt lat="51.885019" lon="6.087733">
        <ele>58.919085</ele>
        <time>2026-05-09T13:45:18.964Z</time>
      </trkpt>
      <trkpt lat="51.885055" lon="6.087511">
        <ele>58.607885</ele>
        <time>2026-05-09T13:45:20.957Z</time>
      </trkpt>
      <trkpt lat="51.885086" lon="6.087282">
        <ele>58.290029</ele>
        <time>2026-05-09T13:45:22.953Z</time>
      </trkpt>
      <trkpt lat="51.885111" lon="6.087056">
        <ele>57.978739</ele>
        <time>2026-05-09T13:45:24.957Z</time>
      </trkpt>
      <trkpt lat="51.885127" lon="6.086846">
        <ele>57.691862</ele>
        <time>2026-05-09T13:45:26.957Z</time>
      </trkpt>
      <trkpt lat="51.885142" lon="6.086639">
        <ele>57.409286</ele>
        <time>2026-05-09T13:45:28.956Z</time>
      </trkpt>
      <trkpt lat="51.885146" lon="6.086441">
        <ele>57.233695</ele>
        <time>2026-05-09T13:45:30.956Z</time>
      </trkpt>
      <trkpt lat="51.885151" lon="6.086254">
        <ele>57.229787</ele>
        <time>2026-05-09T13:45:32.954Z</time>
      </trkpt>
      <trkpt lat="51.885158" lon="6.086071">
        <ele>57.225958</ele>
        <time>2026-05-09T13:45:34.967Z</time>
      </trkpt>
      <trkpt lat="51.885159" lon="6.085886">
        <ele>57.222095</ele>
        <time>2026-05-09T13:45:36.961Z</time>
      </trkpt>
      <trkpt lat="51.885166" lon="6.085706">
        <ele>57.218329</ele>
        <time>2026-05-09T13:45:38.960Z</time>
      </trkpt>
      <trkpt lat="51.885166" lon="6.085522">
        <ele>57.214486</ele>
        <time>2026-05-09T13:45:40.956Z</time>
      </trkpt>
      <trkpt lat="51.885169" lon="6.085346">
        <ele>57.210810</ele>
        <time>2026-05-09T13:45:42.953Z</time>
      </trkpt>
      <trkpt lat="51.885167" lon="6.085170">
        <ele>57.207134</ele>
        <time>2026-05-09T13:45:44.967Z</time>
      </trkpt>
      <trkpt lat="51.885167" lon="6.084997">
        <ele>57.203521</ele>
        <time>2026-05-09T13:45:46.954Z</time>
      </trkpt>
      <trkpt lat="51.885163" lon="6.084823">
        <ele>57.199885</ele>
        <time>2026-05-09T13:45:48.967Z</time>
      </trkpt>
      <trkpt lat="51.885162" lon="6.084648">
        <ele>57.196231</ele>
        <time>2026-05-09T13:45:50.966Z</time>
      </trkpt>
      <trkpt lat="51.885157" lon="6.084469">
        <ele>57.192489</ele>
        <time>2026-05-09T13:45:52.971Z</time>
      </trkpt>
      <trkpt lat="51.885152" lon="6.084287">
        <ele>57.188685</ele>
        <time>2026-05-09T13:45:54.954Z</time>
      </trkpt>
      <trkpt lat="51.885149" lon="6.084105">
        <ele>57.184883</ele>
        <time>2026-05-09T13:45:56.967Z</time>
      </trkpt>
      <trkpt lat="51.885139" lon="6.083919">
        <ele>57.180984</ele>
        <time>2026-05-09T13:45:58.963Z</time>
      </trkpt>
      <trkpt lat="51.885125" lon="6.083733">
        <ele>57.177072</ele>
        <time>2026-05-09T13:46:00.953Z</time>
      </trkpt>
      <trkpt lat="51.885114" lon="6.083550">
        <ele>57.176151</ele>
        <time>2026-05-09T13:46:02.957Z</time>
      </trkpt>
      <trkpt lat="51.885101" lon="6.083373">
        <ele>57.182603</ele>
        <time>2026-05-09T13:46:04.958Z</time>
      </trkpt>
      <trkpt lat="51.885088" lon="6.083196">
        <ele>57.189054</ele>
        <time>2026-05-09T13:46:06.957Z</time>
      </trkpt>
      <trkpt lat="51.885078" lon="6.083020">
        <ele>57.195451</ele>
        <time>2026-05-09T13:46:08.957Z</time>
      </trkpt>
      <trkpt lat="51.885069" lon="6.082836">
        <ele>57.202131</ele>
        <time>2026-05-09T13:46:10.958Z</time>
      </trkpt>
      <trkpt lat="51.885059" lon="6.082649">
        <ele>57.208925</ele>
        <time>2026-05-09T13:46:12.964Z</time>
      </trkpt>
      <trkpt lat="51.885052" lon="6.082457">
        <ele>57.215886</ele>
        <time>2026-05-09T13:46:14.964Z</time>
      </trkpt>
      <trkpt lat="51.885040" lon="6.082274">
        <ele>57.222547</ele>
        <time>2026-05-09T13:46:16.959Z</time>
      </trkpt>
      <trkpt lat="51.885020" lon="6.082103">
        <ele>57.228846</ele>
        <time>2026-05-09T13:46:18.958Z</time>
      </trkpt>
      <trkpt lat="51.884991" lon="6.081923">
        <ele>57.235579</ele>
        <time>2026-05-09T13:46:20.953Z</time>
      </trkpt>
      <trkpt lat="51.884960" lon="6.081741">
        <ele>57.242412</ele>
        <time>2026-05-09T13:46:22.957Z</time>
      </trkpt>
      <trkpt lat="51.884928" lon="6.081557">
        <ele>57.249331</ele>
        <time>2026-05-09T13:46:24.964Z</time>
      </trkpt>
      <trkpt lat="51.884892" lon="6.081382">
        <ele>57.256007</ele>
        <time>2026-05-09T13:46:26.963Z</time>
      </trkpt>
      <trkpt lat="51.884861" lon="6.081216">
        <ele>57.262284</ele>
        <time>2026-05-09T13:46:28.956Z</time>
      </trkpt>
      <trkpt lat="51.884829" lon="6.081049">
        <ele>57.268613</ele>
        <time>2026-05-09T13:46:30.951Z</time>
      </trkpt>
      <trkpt lat="51.884802" lon="6.080876">
        <ele>57.275072</ele>
        <time>2026-05-09T13:46:32.962Z</time>
      </trkpt>
      <trkpt lat="51.884778" lon="6.080702">
        <ele>57.273775</ele>
        <time>2026-05-09T13:46:34.954Z</time>
      </trkpt>
      <trkpt lat="51.884751" lon="6.080529">
        <ele>57.251758</ele>
        <time>2026-05-09T13:46:36.956Z</time>
      </trkpt>
      <trkpt lat="51.884724" lon="6.080361">
        <ele>57.230338</ele>
        <time>2026-05-09T13:46:38.956Z</time>
      </trkpt>
      <trkpt lat="51.884704" lon="6.080190">
        <ele>57.208864</ele>
        <time>2026-05-09T13:46:40.957Z</time>
      </trkpt>
      <trkpt lat="51.884679" lon="6.080025">
        <ele>57.187902</ele>
        <time>2026-05-09T13:46:42.953Z</time>
      </trkpt>
      <trkpt lat="51.884655" lon="6.079859">
        <ele>57.166866</ele>
        <time>2026-05-09T13:46:44.963Z</time>
      </trkpt>
      <trkpt lat="51.884630" lon="6.079684">
        <ele>57.144703</ele>
        <time>2026-05-09T13:46:46.956Z</time>
      </trkpt>
      <trkpt lat="51.884604" lon="6.079511">
        <ele>57.122734</ele>
        <time>2026-05-09T13:46:48.956Z</time>
      </trkpt>
      <trkpt lat="51.884578" lon="6.079334">
        <ele>57.100286</ele>
        <time>2026-05-09T13:46:50.957Z</time>
      </trkpt>
      <trkpt lat="51.884553" lon="6.079161">
        <ele>57.078363</ele>
        <time>2026-05-09T13:46:52.955Z</time>
      </trkpt>
      <trkpt lat="51.884522" lon="6.078987">
        <ele>57.056018</ele>
        <time>2026-05-09T13:46:54.959Z</time>
      </trkpt>
      <trkpt lat="51.884498" lon="6.078806">
        <ele>57.033176</ele>
        <time>2026-05-09T13:46:56.958Z</time>
      </trkpt>
      <trkpt lat="51.884476" lon="6.078628">
        <ele>57.010778</ele>
        <time>2026-05-09T13:46:58.965Z</time>
      </trkpt>
      <trkpt lat="51.884450" lon="6.078457">
        <ele>56.989049</ele>
        <time>2026-05-09T13:47:00.957Z</time>
      </trkpt>
      <trkpt lat="51.884426" lon="6.078284">
        <ele>56.967171</ele>
        <time>2026-05-09T13:47:02.955Z</time>
      </trkpt>
      <trkpt lat="51.884402" lon="6.078108">
        <ele>56.944932</ele>
        <time>2026-05-09T13:47:04.967Z</time>
      </trkpt>
      <trkpt lat="51.884377" lon="6.077932">
        <ele>56.922648</ele>
        <time>2026-05-09T13:47:06.961Z</time>
      </trkpt>
      <trkpt lat="51.884353" lon="6.077758">
        <ele>56.919094</ele>
        <time>2026-05-09T13:47:08.958Z</time>
      </trkpt>
      <trkpt lat="51.884325" lon="6.077578">
        <ele>56.917765</ele>
        <time>2026-05-09T13:47:10.965Z</time>
      </trkpt>
      <trkpt lat="51.884300" lon="6.077397">
        <ele>56.916436</ele>
        <time>2026-05-09T13:47:12.965Z</time>
      </trkpt>
      <trkpt lat="51.884270" lon="6.077209">
        <ele>56.915045</ele>
        <time>2026-05-09T13:47:14.963Z</time>
      </trkpt>
      <trkpt lat="51.884239" lon="6.077021">
        <ele>56.913651</ele>
        <time>2026-05-09T13:47:16.959Z</time>
      </trkpt>
      <trkpt lat="51.884208" lon="6.076841">
        <ele>56.912313</ele>
        <time>2026-05-09T13:47:18.962Z</time>
      </trkpt>
      <trkpt lat="51.884178" lon="6.076665">
        <ele>56.911005</ele>
        <time>2026-05-09T13:47:20.965Z</time>
      </trkpt>
      <trkpt lat="51.884152" lon="6.076487">
        <ele>56.909694</ele>
        <time>2026-05-09T13:47:22.963Z</time>
      </trkpt>
      <trkpt lat="51.884127" lon="6.076304">
        <ele>56.908352</ele>
        <time>2026-05-09T13:47:24.966Z</time>
      </trkpt>
      <trkpt lat="51.884110" lon="6.076119">
        <ele>56.907012</ele>
        <time>2026-05-09T13:47:26.966Z</time>
      </trkpt>
      <trkpt lat="51.884098" lon="6.075935">
        <ele>56.905686</ele>
        <time>2026-05-09T13:47:28.965Z</time>
      </trkpt>
      <trkpt lat="51.884074" lon="6.075749">
        <ele>56.904325</ele>
        <time>2026-05-09T13:47:30.958Z</time>
      </trkpt>
      <trkpt lat="51.884042" lon="6.075561">
        <ele>56.902928</ele>
        <time>2026-05-09T13:47:32.955Z</time>
      </trkpt>
      <trkpt lat="51.884008" lon="6.075369">
        <ele>56.901497</ele>
        <time>2026-05-09T13:47:34.955Z</time>
      </trkpt>
      <trkpt lat="51.883976" lon="6.075175">
        <ele>56.900059</ele>
        <time>2026-05-09T13:47:36.973Z</time>
      </trkpt>
      <trkpt lat="51.883945" lon="6.074990">
        <ele>56.877935</ele>
        <time>2026-05-09T13:47:38.971Z</time>
      </trkpt>
      <trkpt lat="51.883917" lon="6.074813">
        <ele>56.836199</ele>
        <time>2026-05-09T13:47:40.955Z</time>
      </trkpt>
      <trkpt lat="51.883886" lon="6.074643">
        <ele>56.795710</ele>
        <time>2026-05-09T13:47:42.952Z</time>
      </trkpt>
      <trkpt lat="51.883851" lon="6.074469">
        <ele>56.753908</ele>
        <time>2026-05-09T13:47:44.951Z</time>
      </trkpt>
      <trkpt lat="51.883814" lon="6.074298">
        <ele>56.712519</ele>
        <time>2026-05-09T13:47:46.955Z</time>
      </trkpt>
      <trkpt lat="51.883779" lon="6.074135">
        <ele>56.673099</ele>
        <time>2026-05-09T13:47:48.961Z</time>
      </trkpt>
      <trkpt lat="51.883745" lon="6.073966">
        <ele>56.632498</ele>
        <time>2026-05-09T13:47:50.959Z</time>
      </trkpt>
      <trkpt lat="51.883715" lon="6.073796">
        <ele>56.592111</ele>
        <time>2026-05-09T13:47:52.959Z</time>
      </trkpt>
      <trkpt lat="51.883685" lon="6.073617">
        <ele>56.549745</ele>
        <time>2026-05-09T13:47:54.959Z</time>
      </trkpt>
      <trkpt lat="51.883655" lon="6.073446">
        <ele>56.509138</ele>
        <time>2026-05-09T13:47:56.953Z</time>
      </trkpt>
      <trkpt lat="51.883628" lon="6.073271">
        <ele>56.467936</ele>
        <time>2026-05-09T13:47:58.967Z</time>
      </trkpt>
      <trkpt lat="51.883601" lon="6.073092">
        <ele>56.425846</ele>
        <time>2026-05-09T13:48:00.953Z</time>
      </trkpt>
      <trkpt lat="51.883572" lon="6.072909">
        <ele>56.382690</ele>
        <time>2026-05-09T13:48:02.953Z</time>
      </trkpt>
      <trkpt lat="51.883542" lon="6.072728">
        <ele>56.339882</ele>
        <time>2026-05-09T13:48:04.960Z</time>
      </trkpt>
      <trkpt lat="51.883516" lon="6.072549">
        <ele>56.297879</ele>
        <time>2026-05-09T13:48:06.958Z</time>
      </trkpt>
      <trkpt lat="51.883504" lon="6.072373">
        <ele>56.257433</ele>
        <time>2026-05-09T13:48:08.959Z</time>
      </trkpt>
      <trkpt lat="51.883544" lon="6.072194">
        <ele>56.224771</ele>
        <time>2026-05-09T13:48:10.959Z</time>
      </trkpt>
      <trkpt lat="51.883620" lon="6.072051">
        <ele>56.205199</ele>
        <time>2026-05-09T13:48:12.956Z</time>
      </trkpt>
      <trkpt lat="51.883694" lon="6.071900">
        <ele>56.185202</ele>
        <time>2026-05-09T13:48:14.963Z</time>
      </trkpt>
      <trkpt lat="51.883768" lon="6.071755">
        <ele>56.165689</ele>
        <time>2026-05-09T13:48:16.961Z</time>
      </trkpt>
      <trkpt lat="51.883842" lon="6.071611">
        <ele>56.146255</ele>
        <time>2026-05-09T13:48:18.954Z</time>
      </trkpt>
      <trkpt lat="51.883901" lon="6.071466">
        <ele>56.128242</ele>
        <time>2026-05-09T13:48:20.965Z</time>
      </trkpt>
      <trkpt lat="51.883952" lon="6.071323">
        <ele>56.111113</ele>
        <time>2026-05-09T13:48:22.956Z</time>
      </trkpt>
      <trkpt lat="51.883953" lon="6.071170">
        <ele>56.095244</ele>
        <time>2026-05-09T13:48:24.963Z</time>
      </trkpt>
      <trkpt lat="51.884002" lon="6.071037">
        <ele>56.079179</ele>
        <time>2026-05-09T13:48:26.957Z</time>
      </trkpt>
      <trkpt lat="51.884089" lon="6.070948">
        <ele>56.061890</ele>
        <time>2026-05-09T13:48:28.957Z</time>
      </trkpt>
      <trkpt lat="51.884171" lon="6.070845">
        <ele>56.044455</ele>
        <time>2026-05-09T13:48:30.961Z</time>
      </trkpt>
      <trkpt lat="51.884242" lon="6.070715">
        <ele>56.026452</ele>
        <time>2026-05-09T13:48:32.960Z</time>
      </trkpt>
      <trkpt lat="51.884298" lon="6.070572">
        <ele>56.008888</ele>
        <time>2026-05-09T13:48:34.957Z</time>
      </trkpt>
      <trkpt lat="51.884351" lon="6.070419">
        <ele>55.990691</ele>
        <time>2026-05-09T13:48:36.969Z</time>
      </trkpt>
      <trkpt lat="51.884411" lon="6.070270">
        <ele>55.972239</ele>
        <time>2026-05-09T13:48:38.959Z</time>
      </trkpt>
      <trkpt lat="51.884469" lon="6.070111">
        <ele>55.953084</ele>
        <time>2026-05-09T13:48:40.956Z</time>
      </trkpt>
      <trkpt lat="51.884531" lon="6.069968">
        <ele>55.934960</ele>
        <time>2026-05-09T13:48:42.959Z</time>
      </trkpt>
      <trkpt lat="51.884591" lon="6.069817">
        <ele>55.925595</ele>
        <time>2026-05-09T13:48:44.953Z</time>
      </trkpt>
      <trkpt lat="51.884652" lon="6.069666">
        <ele>55.918271</ele>
        <time>2026-05-09T13:48:46.960Z</time>
      </trkpt>
      <trkpt lat="51.884704" lon="6.069519">
        <ele>55.911395</ele>
        <time>2026-05-09T13:48:48.958Z</time>
      </trkpt>
      <trkpt lat="51.884755" lon="6.069364">
        <ele>55.904266</ele>
        <time>2026-05-09T13:48:50.954Z</time>
      </trkpt>
      <trkpt lat="51.884821" lon="6.069227">
        <ele>55.897214</ele>
        <time>2026-05-09T13:48:52.964Z</time>
      </trkpt>
      <trkpt lat="51.884880" lon="6.069079">
        <ele>55.890063</ele>
        <time>2026-05-09T13:48:54.960Z</time>
      </trkpt>
      <trkpt lat="51.884930" lon="6.068931">
        <ele>55.883216</ele>
        <time>2026-05-09T13:48:56.963Z</time>
      </trkpt>
      <trkpt lat="51.884976" lon="6.068791">
        <ele>55.876780</ele>
        <time>2026-05-09T13:48:58.964Z</time>
      </trkpt>
      <trkpt lat="51.885026" lon="6.068650">
        <ele>55.870180</ele>
        <time>2026-05-09T13:49:00.963Z</time>
      </trkpt>
      <trkpt lat="51.885072" lon="6.068507">
        <ele>55.863636</ele>
        <time>2026-05-09T13:49:02.964Z</time>
      </trkpt>
      <trkpt lat="51.885118" lon="6.068370">
        <ele>55.857307</ele>
        <time>2026-05-09T13:49:04.963Z</time>
      </trkpt>
      <trkpt lat="51.885163" lon="6.068214">
        <ele>55.850318</ele>
        <time>2026-05-09T13:49:06.954Z</time>
      </trkpt>
      <trkpt lat="51.885205" lon="6.068062">
        <ele>55.843560</ele>
        <time>2026-05-09T13:49:08.963Z</time>
      </trkpt>
      <trkpt lat="51.885247" lon="6.067909">
        <ele>55.836764</ele>
        <time>2026-05-09T13:49:10.964Z</time>
      </trkpt>
      <trkpt lat="51.885286" lon="6.067763">
        <ele>55.830308</ele>
        <time>2026-05-09T13:49:12.962Z</time>
      </trkpt>
      <trkpt lat="51.885323" lon="6.067613">
        <ele>55.823753</ele>
        <time>2026-05-09T13:49:14.963Z</time>
      </trkpt>
      <trkpt lat="51.885368" lon="6.067464">
        <ele>55.817021</ele>
        <time>2026-05-09T13:49:16.958Z</time>
      </trkpt>
      <trkpt lat="51.885404" lon="6.067308">
        <ele>55.806671</ele>
        <time>2026-05-09T13:49:18.963Z</time>
      </trkpt>
      <trkpt lat="51.885447" lon="6.067162">
        <ele>55.792318</ele>
        <time>2026-05-09T13:49:20.962Z</time>
      </trkpt>
      <trkpt lat="51.885486" lon="6.067004">
        <ele>55.777220</ele>
        <time>2026-05-09T13:49:22.961Z</time>
      </trkpt>
      <trkpt lat="51.885524" lon="6.066854">
        <ele>55.762834</ele>
        <time>2026-05-09T13:49:24.963Z</time>
      </trkpt>
      <trkpt lat="51.885563" lon="6.066697">
        <ele>55.747819</ele>
        <time>2026-05-09T13:49:26.963Z</time>
      </trkpt>
      <trkpt lat="51.885603" lon="6.066538">
        <ele>55.732585</ele>
        <time>2026-05-09T13:49:28.966Z</time>
      </trkpt>
      <trkpt lat="51.885637" lon="6.066374">
        <ele>55.717235</ele>
        <time>2026-05-09T13:49:30.962Z</time>
      </trkpt>
      <trkpt lat="51.885670" lon="6.066217">
        <ele>55.702519</ele>
        <time>2026-05-09T13:49:32.961Z</time>
      </trkpt>
      <trkpt lat="51.885710" lon="6.066054">
        <ele>55.686956</ele>
        <time>2026-05-09T13:49:34.960Z</time>
      </trkpt>
      <trkpt lat="51.885738" lon="6.065887">
        <ele>55.671602</ele>
        <time>2026-05-09T13:49:36.954Z</time>
      </trkpt>
      <trkpt lat="51.885762" lon="6.065729">
        <ele>55.657165</ele>
        <time>2026-05-09T13:49:38.958Z</time>
      </trkpt>
      <trkpt lat="51.885789" lon="6.065578">
        <ele>55.643217</ele>
        <time>2026-05-09T13:49:40.959Z</time>
      </trkpt>
      <trkpt lat="51.885813" lon="6.065422">
        <ele>55.628953</ele>
        <time>2026-05-09T13:49:42.958Z</time>
      </trkpt>
      <trkpt lat="51.885836" lon="6.065261">
        <ele>55.614290</ele>
        <time>2026-05-09T13:49:44.966Z</time>
      </trkpt>
      <trkpt lat="51.885866" lon="6.065107">
        <ele>55.599962</ele>
        <time>2026-05-09T13:49:46.957Z</time>
      </trkpt>
      <trkpt lat="51.885894" lon="6.064949">
        <ele>55.585378</ele>
        <time>2026-05-09T13:49:48.955Z</time>
      </trkpt>
      <trkpt lat="51.885921" lon="6.064800">
        <ele>55.571600</ele>
        <time>2026-05-09T13:49:50.964Z</time>
      </trkpt>
      <trkpt lat="51.885944" lon="6.064645">
        <ele>55.557455</ele>
        <time>2026-05-09T13:49:52.955Z</time>
      </trkpt>
      <trkpt lat="51.885967" lon="6.064492">
        <ele>55.549013</ele>
        <time>2026-05-09T13:49:54.958Z</time>
      </trkpt>
      <trkpt lat="51.885999" lon="6.064344">
        <ele>55.541934</ele>
        <time>2026-05-09T13:49:56.956Z</time>
      </trkpt>
      <trkpt lat="51.886035" lon="6.064197">
        <ele>55.534795</ele>
        <time>2026-05-09T13:49:58.956Z</time>
      </trkpt>
      <trkpt lat="51.886071" lon="6.064046">
        <ele>55.527488</ele>
        <time>2026-05-09T13:50:00.955Z</time>
      </trkpt>
      <trkpt lat="51.886112" lon="6.063899">
        <ele>55.520206</ele>
        <time>2026-05-09T13:50:02.954Z</time>
      </trkpt>
      <trkpt lat="51.886150" lon="6.063757">
        <ele>55.513220</ele>
        <time>2026-05-09T13:50:04.962Z</time>
      </trkpt>
      <trkpt lat="51.886192" lon="6.063607">
        <ele>55.505784</ele>
        <time>2026-05-09T13:50:06.956Z</time>
      </trkpt>
      <trkpt lat="51.886234" lon="6.063457">
        <ele>55.498349</ele>
        <time>2026-05-09T13:50:08.954Z</time>
      </trkpt>
      <trkpt lat="51.886274" lon="6.063318">
        <ele>55.491426</ele>
        <time>2026-05-09T13:50:10.961Z</time>
      </trkpt>
      <trkpt lat="51.886336" lon="6.063124">
        <ele>55.481565</ele>
        <time>2026-05-09T13:50:13.956Z</time>
      </trkpt>
      <trkpt lat="51.886381" lon="6.062984">
        <ele>55.474439</ele>
        <time>2026-05-09T13:50:15.955Z</time>
      </trkpt>
      <trkpt lat="51.886429" lon="6.062852">
        <ele>55.467523</ele>
        <time>2026-05-09T13:50:17.955Z</time>
      </trkpt>
      <trkpt lat="51.886478" lon="6.062728">
        <ele>55.460877</ele>
        <time>2026-05-09T13:50:19.962Z</time>
      </trkpt>
      <trkpt lat="51.886543" lon="6.062542">
        <ele>55.451229</ele>
        <time>2026-05-09T13:50:22.956Z</time>
      </trkpt>
      <trkpt lat="51.886591" lon="6.062412">
        <ele>55.444391</ele>
        <time>2026-05-09T13:50:24.966Z</time>
      </trkpt>
      <trkpt lat="51.886642" lon="6.062277">
        <ele>55.437246</ele>
        <time>2026-05-09T13:50:26.958Z</time>
      </trkpt>
      <trkpt lat="51.886696" lon="6.062139">
        <ele>55.429870</ele>
        <time>2026-05-09T13:50:28.959Z</time>
      </trkpt>
      <trkpt lat="51.886745" lon="6.061999">
        <ele>55.424162</ele>
        <time>2026-05-09T13:50:30.952Z</time>
      </trkpt>
      <trkpt lat="51.886792" lon="6.061853">
        <ele>55.436317</ele>
        <time>2026-05-09T13:50:32.954Z</time>
      </trkpt>
      <trkpt lat="51.886832" lon="6.061700">
        <ele>55.448583</ele>
        <time>2026-05-09T13:50:34.958Z</time>
      </trkpt>
      <trkpt lat="51.886863" lon="6.061531">
        <ele>55.461597</ele>
        <time>2026-05-09T13:50:36.957Z</time>
      </trkpt>
      <trkpt lat="51.886894" lon="6.061363">
        <ele>55.474541</ele>
        <time>2026-05-09T13:50:38.955Z</time>
      </trkpt>
      <trkpt lat="51.886916" lon="6.061195">
        <ele>55.487218</ele>
        <time>2026-05-09T13:50:40.958Z</time>
      </trkpt>
      <trkpt lat="51.886940" lon="6.061022">
        <ele>55.500307</ele>
        <time>2026-05-09T13:50:42.956Z</time>
      </trkpt>
      <trkpt lat="51.886966" lon="6.060847">
        <ele>55.513594</ele>
        <time>2026-05-09T13:50:44.957Z</time>
      </trkpt>
      <trkpt lat="51.886987" lon="6.060678">
        <ele>55.526319</ele>
        <time>2026-05-09T13:50:46.956Z</time>
      </trkpt>
      <trkpt lat="51.887009" lon="6.060509">
        <ele>55.539069</ele>
        <time>2026-05-09T13:50:48.958Z</time>
      </trkpt>
      <trkpt lat="51.887030" lon="6.060350">
        <ele>55.551072</ele>
        <time>2026-05-09T13:50:50.954Z</time>
      </trkpt>
      <trkpt lat="51.887051" lon="6.060195">
        <ele>55.562786</ele>
        <time>2026-05-09T13:50:52.963Z</time>
      </trkpt>
      <trkpt lat="51.887074" lon="6.060037">
        <ele>55.574769</ele>
        <time>2026-05-09T13:50:54.955Z</time>
      </trkpt>
      <trkpt lat="51.887094" lon="6.059880">
        <ele>55.586602</ele>
        <time>2026-05-09T13:50:56.956Z</time>
      </trkpt>
      <trkpt lat="51.887115" lon="6.059720">
        <ele>55.598677</ele>
        <time>2026-05-09T13:50:58.956Z</time>
      </trkpt>
      <trkpt lat="51.887142" lon="6.059562">
        <ele>55.610779</ele>
        <time>2026-05-09T13:51:00.953Z</time>
      </trkpt>
      <trkpt lat="51.887171" lon="6.059408">
        <ele>55.622664</ele>
        <time>2026-05-09T13:51:02.953Z</time>
      </trkpt>
      <trkpt lat="51.887204" lon="6.059254">
        <ele>55.634698</ele>
        <time>2026-05-09T13:51:04.955Z</time>
      </trkpt>
      <trkpt lat="51.887242" lon="6.059091">
        <ele>55.630204</ele>
        <time>2026-05-09T13:51:06.957Z</time>
      </trkpt>
      <trkpt lat="51.887280" lon="6.058924">
        <ele>55.618693</ele>
        <time>2026-05-09T13:51:08.960Z</time>
      </trkpt>
      <trkpt lat="51.887324" lon="6.058763">
        <ele>55.607306</ele>
        <time>2026-05-09T13:51:10.960Z</time>
      </trkpt>
      <trkpt lat="51.887364" lon="6.058598">
        <ele>55.595841</ele>
        <time>2026-05-09T13:51:12.961Z</time>
      </trkpt>
      <trkpt lat="51.887403" lon="6.058431">
        <ele>55.584294</ele>
        <time>2026-05-09T13:51:14.964Z</time>
      </trkpt>
      <trkpt lat="51.887444" lon="6.058261">
        <ele>55.572490</ele>
        <time>2026-05-09T13:51:16.960Z</time>
      </trkpt>
      <trkpt lat="51.887487" lon="6.058104">
        <ele>55.561381</ele>
        <time>2026-05-09T13:51:18.956Z</time>
      </trkpt>
      <trkpt lat="51.887530" lon="6.057940">
        <ele>55.549858</ele>
        <time>2026-05-09T13:51:20.955Z</time>
      </trkpt>
      <trkpt lat="51.887572" lon="6.057773">
        <ele>55.538195</ele>
        <time>2026-05-09T13:51:22.961Z</time>
      </trkpt>
      <trkpt lat="51.887613" lon="6.057606">
        <ele>55.526572</ele>
        <time>2026-05-09T13:51:24.960Z</time>
      </trkpt>
      <trkpt lat="51.887656" lon="6.057433">
        <ele>55.514510</ele>
        <time>2026-05-09T13:51:26.960Z</time>
      </trkpt>
      <trkpt lat="51.887698" lon="6.057260">
        <ele>55.502488</ele>
        <time>2026-05-09T13:51:28.966Z</time>
      </trkpt>
      <trkpt lat="51.887743" lon="6.057087">
        <ele>55.490346</ele>
        <time>2026-05-09T13:51:30.950Z</time>
      </trkpt>
      <trkpt lat="51.887790" lon="6.056909">
        <ele>55.477826</ele>
        <time>2026-05-09T13:51:32.958Z</time>
      </trkpt>
      <trkpt lat="51.887837" lon="6.056730">
        <ele>55.465245</ele>
        <time>2026-05-09T13:51:34.959Z</time>
      </trkpt>
      <trkpt lat="51.887885" lon="6.056551">
        <ele>55.452624</ele>
        <time>2026-05-09T13:51:36.954Z</time>
      </trkpt>
      <trkpt lat="51.887938" lon="6.056372">
        <ele>55.440952</ele>
        <time>2026-05-09T13:51:38.955Z</time>
      </trkpt>
      <trkpt lat="51.887985" lon="6.056203">
        <ele>55.430356</ele>
        <time>2026-05-09T13:51:40.955Z</time>
      </trkpt>
      <trkpt lat="51.888028" lon="6.056040">
        <ele>55.420222</ele>
        <time>2026-05-09T13:51:42.958Z</time>
      </trkpt>
      <trkpt lat="51.888068" lon="6.055880">
        <ele>55.410354</ele>
        <time>2026-05-09T13:51:44.956Z</time>
      </trkpt>
      <trkpt lat="51.888115" lon="6.055727">
        <ele>55.400585</ele>
        <time>2026-05-09T13:51:46.956Z</time>
      </trkpt>
      <trkpt lat="51.888159" lon="6.055572">
        <ele>55.390832</ele>
        <time>2026-05-09T13:51:48.954Z</time>
      </trkpt>
      <trkpt lat="51.888207" lon="6.055408">
        <ele>55.380456</ele>
        <time>2026-05-09T13:51:50.955Z</time>
      </trkpt>
      <trkpt lat="51.888257" lon="6.055239">
        <ele>55.369743</ele>
        <time>2026-05-09T13:51:52.964Z</time>
      </trkpt>
      <trkpt lat="51.888307" lon="6.055076">
        <ele>55.359338</ele>
        <time>2026-05-09T13:51:54.956Z</time>
      </trkpt>
      <trkpt lat="51.888356" lon="6.054915">
        <ele>55.349076</ele>
        <time>2026-05-09T13:51:56.954Z</time>
      </trkpt>
      <trkpt lat="51.888408" lon="6.054760">
        <ele>55.338992</ele>
        <time>2026-05-09T13:51:58.957Z</time>
      </trkpt>
      <trkpt lat="51.888461" lon="6.054597">
        <ele>55.328460</ele>
        <time>2026-05-09T13:52:00.954Z</time>
      </trkpt>
      <trkpt lat="51.888517" lon="6.054435">
        <ele>55.317846</ele>
        <time>2026-05-09T13:52:02.955Z</time>
      </trkpt>
      <trkpt lat="51.888581" lon="6.054287">
        <ele>55.307516</ele>
        <time>2026-05-09T13:52:04.970Z</time>
      </trkpt>
      <trkpt lat="51.888657" lon="6.054147">
        <ele>55.296858</ele>
        <time>2026-05-09T13:52:06.955Z</time>
      </trkpt>
      <trkpt lat="51.888739" lon="6.054024">
        <ele>55.286508</ele>
        <time>2026-05-09T13:52:08.956Z</time>
      </trkpt>
      <trkpt lat="51.888823" lon="6.053916">
        <ele>55.271171</ele>
        <time>2026-05-09T13:52:10.955Z</time>
      </trkpt>
      <trkpt lat="51.888910" lon="6.053805">
        <ele>55.252614</ele>
        <time>2026-05-09T13:52:12.954Z</time>
      </trkpt>
      <trkpt lat="51.888989" lon="6.053678">
        <ele>55.233965</ele>
        <time>2026-05-09T13:52:14.954Z</time>
      </trkpt>
      <trkpt lat="51.889070" lon="6.053552">
        <ele>55.215148</ele>
        <time>2026-05-09T13:52:16.956Z</time>
      </trkpt>
      <trkpt lat="51.889146" lon="6.053426">
        <ele>55.196927</ele>
        <time>2026-05-09T13:52:18.954Z</time>
      </trkpt>
      <trkpt lat="51.889218" lon="6.053292">
        <ele>55.178552</ele>
        <time>2026-05-09T13:52:20.963Z</time>
      </trkpt>
      <trkpt lat="51.889288" lon="6.053149">
        <ele>55.159675</ele>
        <time>2026-05-09T13:52:22.968Z</time>
      </trkpt>
      <trkpt lat="51.889359" lon="6.053014">
        <ele>55.141330</ele>
        <time>2026-05-09T13:52:24.958Z</time>
      </trkpt>
      <trkpt lat="51.889424" lon="6.052877">
        <ele>55.123458</ele>
        <time>2026-05-09T13:52:26.952Z</time>
      </trkpt>
      <trkpt lat="51.889486" lon="6.052735">
        <ele>55.105468</ele>
        <time>2026-05-09T13:52:28.953Z</time>
      </trkpt>
      <trkpt lat="51.889544" lon="6.052584">
        <ele>55.087074</ele>
        <time>2026-05-09T13:52:30.954Z</time>
      </trkpt>
      <trkpt lat="51.889601" lon="6.052426">
        <ele>55.068146</ele>
        <time>2026-05-09T13:52:32.952Z</time>
      </trkpt>
      <trkpt lat="51.889657" lon="6.052279">
        <ele>55.050279</ele>
        <time>2026-05-09T13:52:34.957Z</time>
      </trkpt>
      <trkpt lat="51.889705" lon="6.052128">
        <ele>55.032712</ele>
        <time>2026-05-09T13:52:36.956Z</time>
      </trkpt>
      <trkpt lat="51.889752" lon="6.051973">
        <ele>55.014851</ele>
        <time>2026-05-09T13:52:38.955Z</time>
      </trkpt>
      <trkpt lat="51.889797" lon="6.051825">
        <ele>54.997788</ele>
        <time>2026-05-09T13:52:40.956Z</time>
      </trkpt>
      <trkpt lat="51.889839" lon="6.051681">
        <ele>54.983089</ele>
        <time>2026-05-09T13:52:42.957Z</time>
      </trkpt>
      <trkpt lat="51.889878" lon="6.051533">
        <ele>55.022286</ele>
        <time>2026-05-09T13:52:44.960Z</time>
      </trkpt>
      <trkpt lat="51.889906" lon="6.051380">
        <ele>55.061156</ele>
        <time>2026-05-09T13:52:46.958Z</time>
      </trkpt>
      <trkpt lat="51.889937" lon="6.051228">
        <ele>55.100149</ele>
        <time>2026-05-09T13:52:48.961Z</time>
      </trkpt>
      <trkpt lat="51.889966" lon="6.051075">
        <ele>55.139133</ele>
        <time>2026-05-09T13:52:50.958Z</time>
      </trkpt>
      <trkpt lat="51.889993" lon="6.050918">
        <ele>55.178831</ele>
        <time>2026-05-09T13:52:52.950Z</time>
      </trkpt>
      <trkpt lat="51.890022" lon="6.050760">
        <ele>55.218981</ele>
        <time>2026-05-09T13:52:54.957Z</time>
      </trkpt>
      <trkpt lat="51.890052" lon="6.050589">
        <ele>55.262282</ele>
        <time>2026-05-09T13:52:56.961Z</time>
      </trkpt>
      <trkpt lat="51.890077" lon="6.050418">
        <ele>55.305086</ele>
        <time>2026-05-09T13:52:58.958Z</time>
      </trkpt>
      <trkpt lat="51.890103" lon="6.050245">
        <ele>55.348455</ele>
        <time>2026-05-09T13:53:00.961Z</time>
      </trkpt>
      <trkpt lat="51.890115" lon="6.050071">
        <ele>55.391100</ele>
        <time>2026-05-09T13:53:02.963Z</time>
      </trkpt>
      <trkpt lat="51.890137" lon="6.049897">
        <ele>55.434362</ele>
        <time>2026-05-09T13:53:04.970Z</time>
      </trkpt>
      <trkpt lat="51.890180" lon="6.049734">
        <ele>55.477539</ele>
        <time>2026-05-09T13:53:06.960Z</time>
      </trkpt>
      <trkpt lat="51.890197" lon="6.049565">
        <ele>55.519246</ele>
        <time>2026-05-09T13:53:08.961Z</time>
      </trkpt>
      <trkpt lat="51.890203" lon="6.049393">
        <ele>55.561207</ele>
        <time>2026-05-09T13:53:10.953Z</time>
      </trkpt>
      <trkpt lat="51.890190" lon="6.049219">
        <ele>55.603898</ele>
        <time>2026-05-09T13:53:12.953Z</time>
      </trkpt>
      <trkpt lat="51.890182" lon="6.049042">
        <ele>55.647126</ele>
        <time>2026-05-09T13:53:14.955Z</time>
      </trkpt>
      <trkpt lat="51.890196" lon="6.048869">
        <ele>55.689624</ele>
        <time>2026-05-09T13:53:16.953Z</time>
      </trkpt>
      <trkpt lat="51.890203" lon="6.048695">
        <ele>55.673731</ele>
        <time>2026-05-09T13:53:18.953Z</time>
      </trkpt>
      <trkpt lat="51.890201" lon="6.048522">
        <ele>55.654993</ele>
        <time>2026-05-09T13:53:20.960Z</time>
      </trkpt>
      <trkpt lat="51.890193" lon="6.048348">
        <ele>55.636098</ele>
        <time>2026-05-09T13:53:22.959Z</time>
      </trkpt>
      <trkpt lat="51.890188" lon="6.048166">
        <ele>55.616369</ele>
        <time>2026-05-09T13:53:24.959Z</time>
      </trkpt>
      <trkpt lat="51.890185" lon="6.047982">
        <ele>55.596437</ele>
        <time>2026-05-09T13:53:26.954Z</time>
      </trkpt>
      <trkpt lat="51.890186" lon="6.047808">
        <ele>55.577593</ele>
        <time>2026-05-09T13:53:28.957Z</time>
      </trkpt>
      <trkpt lat="51.890176" lon="6.047652">
        <ele>55.560609</ele>
        <time>2026-05-09T13:53:30.957Z</time>
      </trkpt>
      <trkpt lat="51.890197" lon="6.047481">
        <ele>55.541728</ele>
        <time>2026-05-09T13:53:33.959Z</time>
      </trkpt>
      <trkpt lat="51.890297" lon="6.047453">
        <ele>55.523921</ele>
        <time>2026-05-09T13:53:37.965Z</time>
      </trkpt>
      <trkpt lat="51.890327" lon="6.047605">
        <ele>55.506640</ele>
        <time>2026-05-09T13:53:42.961Z</time>
      </trkpt>
      <trkpt lat="51.890306" lon="6.047457">
        <ele>55.490195</ele>
        <time>2026-05-09T13:54:38.967Z</time>
      </trkpt>
      <trkpt lat="51.890212" lon="6.047465">
        <ele>55.473678</ele>
        <time>2026-05-09T13:54:44.951Z</time>
      </trkpt>
      <trkpt lat="51.890138" lon="6.047365">
        <ele>55.456771</ele>
        <time>2026-05-09T13:54:50.962Z</time>
      </trkpt>
      <trkpt lat="51.890134" lon="6.047207">
        <ele>55.439646</ele>
        <time>2026-05-09T13:54:55.961Z</time>
      </trkpt>
      <trkpt lat="51.890133" lon="6.047013">
        <ele>55.418637</ele>
        <time>2026-05-09T13:55:00.952Z</time>
      </trkpt>
      <trkpt lat="51.890128" lon="6.046841">
        <ele>55.399990</ele>
        <time>2026-05-09T13:55:03.961Z</time>
      </trkpt>
      <trkpt lat="51.890121" lon="6.046659">
        <ele>55.380243</ele>
        <time>2026-05-09T13:55:06.954Z</time>
      </trkpt>
      <trkpt lat="51.890112" lon="6.046483">
        <ele>55.352497</ele>
        <time>2026-05-09T13:55:09.953Z</time>
      </trkpt>
      <trkpt lat="51.890100" lon="6.046289">
        <ele>55.319229</ele>
        <time>2026-05-09T13:55:12.957Z</time>
      </trkpt>
      <trkpt lat="51.890090" lon="6.046093">
        <ele>55.285671</ele>
        <time>2026-05-09T13:55:15.959Z</time>
      </trkpt>
      <trkpt lat="51.890073" lon="6.045921">
        <ele>55.255949</ele>
        <time>2026-05-09T13:55:18.960Z</time>
      </trkpt>
      <trkpt lat="51.890060" lon="6.045763">
        <ele>55.228751</ele>
        <time>2026-05-09T13:55:21.958Z</time>
      </trkpt>
      <trkpt lat="51.890034" lon="6.045575">
        <ele>55.195877</ele>
        <time>2026-05-09T13:55:25.951Z</time>
      </trkpt>
      <trkpt lat="51.890001" lon="6.045418">
        <ele>55.167577</ele>
        <time>2026-05-09T13:55:28.958Z</time>
      </trkpt>
      <trkpt lat="51.889983" lon="6.045231">
        <ele>55.135284</ele>
        <time>2026-05-09T13:55:31.958Z</time>
      </trkpt>
      <trkpt lat="51.889952" lon="6.045050">
        <ele>55.103232</ele>
        <time>2026-05-09T13:55:34.955Z</time>
      </trkpt>
      <trkpt lat="51.889927" lon="6.044875">
        <ele>55.072583</ele>
        <time>2026-05-09T13:55:37.956Z</time>
      </trkpt>
      <trkpt lat="51.889886" lon="6.044727">
        <ele>55.044902</ele>
        <time>2026-05-09T13:55:40.955Z</time>
      </trkpt>
      <trkpt lat="51.889861" lon="6.044551">
        <ele>55.014086</ele>
        <time>2026-05-09T13:55:43.951Z</time>
      </trkpt>
      <trkpt lat="51.889914" lon="6.044371">
        <ele>54.980056</ele>
        <time>2026-05-09T13:55:46.964Z</time>
      </trkpt>
      <trkpt lat="51.889954" lon="6.044183">
        <ele>54.946125</ele>
        <time>2026-05-09T13:55:49.962Z</time>
      </trkpt>
      <trkpt lat="51.889997" lon="6.043988">
        <ele>54.910792</ele>
        <time>2026-05-09T13:55:52.962Z</time>
      </trkpt>
      <trkpt lat="51.890006" lon="6.043774">
        <ele>54.881129</ele>
        <time>2026-05-09T13:55:55.963Z</time>
      </trkpt>
      <trkpt lat="51.890001" lon="6.043628">
        <ele>54.893543</ele>
        <time>2026-05-09T13:55:57.962Z</time>
      </trkpt>
      <trkpt lat="51.889990" lon="6.043428">
        <ele>54.910590</ele>
        <time>2026-05-09T13:56:00.969Z</time>
      </trkpt>
      <trkpt lat="51.889983" lon="6.043243">
        <ele>54.926326</ele>
        <time>2026-05-09T13:56:03.961Z</time>
      </trkpt>
      <trkpt lat="51.889983" lon="6.043057">
        <ele>54.942118</ele>
        <time>2026-05-09T13:56:06.964Z</time>
      </trkpt>
      <trkpt lat="51.889971" lon="6.042877">
        <ele>54.957488</ele>
        <time>2026-05-09T13:56:19.964Z</time>
      </trkpt>
      <trkpt lat="51.889890" lon="6.042775">
        <ele>54.971600</ele>
        <time>2026-05-09T13:56:22.963Z</time>
      </trkpt>
      <trkpt lat="51.889768" lon="6.042704">
        <ele>54.989433</ele>
        <time>2026-05-09T13:56:25.953Z</time>
      </trkpt>
      <trkpt lat="51.889677" lon="6.042658">
        <ele>55.002546</ele>
        <time>2026-05-09T13:56:27.958Z</time>
      </trkpt>
      <trkpt lat="51.889592" lon="6.042606">
        <ele>55.015044</ele>
        <time>2026-05-09T13:56:29.954Z</time>
      </trkpt>
      <trkpt lat="51.889471" lon="6.042536">
        <ele>55.032718</ele>
        <time>2026-05-09T13:56:32.971Z</time>
      </trkpt>
      <trkpt lat="51.889384" lon="6.042484">
        <ele>55.045475</ele>
        <time>2026-05-09T13:56:34.964Z</time>
      </trkpt>
      <trkpt lat="51.889300" lon="6.042434">
        <ele>55.057785</ele>
        <time>2026-05-09T13:56:36.966Z</time>
      </trkpt>
      <trkpt lat="51.889180" lon="6.042357">
        <ele>55.075540</ele>
        <time>2026-05-09T13:56:39.949Z</time>
      </trkpt>
      <trkpt lat="51.889063" lon="6.042253">
        <ele>55.093898</ele>
        <time>2026-05-09T13:56:42.963Z</time>
      </trkpt>
      <trkpt lat="51.888993" lon="6.042147">
        <ele>55.107078</ele>
        <time>2026-05-09T13:56:44.962Z</time>
      </trkpt>
      <trkpt lat="51.888925" lon="6.042037">
        <ele>55.120296</ele>
        <time>2026-05-09T13:56:46.965Z</time>
      </trkpt>
      <trkpt lat="51.888859" lon="6.041923">
        <ele>55.143732</ele>
        <time>2026-05-09T13:56:48.954Z</time>
      </trkpt>
      <trkpt lat="51.888797" lon="6.041803">
        <ele>55.175478</ele>
        <time>2026-05-09T13:56:50.963Z</time>
      </trkpt>
      <trkpt lat="51.888744" lon="6.041680">
        <ele>55.205908</ele>
        <time>2026-05-09T13:56:52.965Z</time>
      </trkpt>
      <trkpt lat="51.888673" lon="6.041501">
        <ele>55.249071</ele>
        <time>2026-05-09T13:56:55.965Z</time>
      </trkpt>
      <trkpt lat="51.888631" lon="6.041369">
        <ele>55.279197</ele>
        <time>2026-05-09T13:56:57.963Z</time>
      </trkpt>
      <trkpt lat="51.888589" lon="6.041235">
        <ele>55.309683</ele>
        <time>2026-05-09T13:56:59.951Z</time>
      </trkpt>
      <trkpt lat="51.888540" lon="6.041110">
        <ele>55.339722</ele>
        <time>2026-05-09T13:57:01.953Z</time>
      </trkpt>
      <trkpt lat="51.888482" lon="6.040930">
        <ele>55.380913</ele>
        <time>2026-05-09T13:57:04.961Z</time>
      </trkpt>
      <trkpt lat="51.888439" lon="6.040742">
        <ele>55.421584</ele>
        <time>2026-05-09T13:57:07.955Z</time>
      </trkpt>
      <trkpt lat="51.888400" lon="6.040605">
        <ele>55.452189</ele>
        <time>2026-05-09T13:57:10.960Z</time>
      </trkpt>
      <trkpt lat="51.888338" lon="6.040493">
        <ele>55.482708</ele>
        <time>2026-05-09T13:57:15.966Z</time>
      </trkpt>
      <trkpt lat="51.888304" lon="6.040333">
        <ele>55.517035</ele>
        <time>2026-05-09T13:57:20.957Z</time>
      </trkpt>
      <trkpt lat="51.888277" lon="6.040159">
        <ele>55.553430</ele>
        <time>2026-05-09T13:57:25.957Z</time>
      </trkpt>
      <trkpt lat="51.888309" lon="6.039990">
        <ele>55.589290</ele>
        <time>2026-05-09T13:57:29.956Z</time>
      </trkpt>
      <trkpt lat="51.888338" lon="6.039833">
        <ele>55.622534</ele>
        <time>2026-05-09T13:57:32.957Z</time>
      </trkpt>
      <trkpt lat="51.888365" lon="6.039667">
        <ele>55.657358</ele>
        <time>2026-05-09T13:57:35.953Z</time>
      </trkpt>
      <trkpt lat="51.888386" lon="6.039488">
        <ele>55.694319</ele>
        <time>2026-05-09T13:57:38.972Z</time>
      </trkpt>
      <trkpt lat="51.888425" lon="6.039340">
        <ele>55.717549</ele>
        <time>2026-05-09T13:57:41.953Z</time>
      </trkpt>
      <trkpt lat="51.888450" lon="6.039190">
        <ele>55.717995</ele>
        <time>2026-05-09T13:57:44.955Z</time>
      </trkpt>
      <trkpt lat="51.888468" lon="6.039043">
        <ele>55.718426</ele>
        <time>2026-05-09T13:57:47.972Z</time>
      </trkpt>
      <trkpt lat="51.888493" lon="6.038884">
        <ele>55.718897</ele>
        <time>2026-05-09T13:57:50.955Z</time>
      </trkpt>
      <trkpt lat="51.888525" lon="6.038741">
        <ele>55.719334</ele>
        <time>2026-05-09T13:57:53.959Z</time>
      </trkpt>
      <trkpt lat="51.888583" lon="6.038622">
        <ele>55.719769</ele>
        <time>2026-05-09T13:57:57.961Z</time>
      </trkpt>
      <trkpt lat="51.888671" lon="6.038517">
        <ele>55.720278</ele>
        <time>2026-05-09T13:58:01.955Z</time>
      </trkpt>
      <trkpt lat="51.888775" lon="6.038440">
        <ele>55.720810</ele>
        <time>2026-05-09T13:58:05.954Z</time>
      </trkpt>
      <trkpt lat="51.888876" lon="6.038345">
        <ele>55.721354</ele>
        <time>2026-05-09T13:58:09.952Z</time>
      </trkpt>
      <trkpt lat="51.888955" lon="6.038265">
        <ele>55.721787</ele>
        <time>2026-05-09T13:58:12.958Z</time>
      </trkpt>
      <trkpt lat="51.889031" lon="6.038165">
        <ele>55.722243</ele>
        <time>2026-05-09T13:58:15.957Z</time>
      </trkpt>
      <trkpt lat="51.889103" lon="6.038029">
        <ele>55.722757</ele>
        <time>2026-05-09T13:58:18.953Z</time>
      </trkpt>
      <trkpt lat="51.889176" lon="6.037891">
        <ele>55.723280</ele>
        <time>2026-05-09T13:58:21.957Z</time>
      </trkpt>
      <trkpt lat="51.889261" lon="6.037807">
        <ele>55.723743</ele>
        <time>2026-05-09T13:58:24.955Z</time>
      </trkpt>
      <trkpt lat="51.889353" lon="6.037755">
        <ele>55.724196</ele>
        <time>2026-05-09T13:58:27.953Z</time>
      </trkpt>
      <trkpt lat="51.889438" lon="6.037654">
        <ele>55.724687</ele>
        <time>2026-05-09T13:58:30.954Z</time>
      </trkpt>
      <trkpt lat="51.889527" lon="6.037543">
        <ele>55.725210</ele>
        <time>2026-05-09T13:58:33.958Z</time>
      </trkpt>
      <trkpt lat="51.889615" lon="6.037421">
        <ele>55.725749</ele>
        <time>2026-05-09T13:58:36.953Z</time>
      </trkpt>
      <trkpt lat="51.889696" lon="6.037286">
        <ele>55.688521</ele>
        <time>2026-05-09T13:58:39.953Z</time>
      </trkpt>
      <trkpt lat="51.889772" lon="6.037146">
        <ele>55.649007</ele>
        <time>2026-05-09T13:58:42.956Z</time>
      </trkpt>
      <trkpt lat="51.889834" lon="6.037025">
        <ele>55.615679</ele>
        <time>2026-05-09T13:58:45.954Z</time>
      </trkpt>
      <trkpt lat="51.889924" lon="6.036981">
        <ele>55.583399</ele>
        <time>2026-05-09T13:58:50.956Z</time>
      </trkpt>
      <trkpt lat="51.889936" lon="6.037139">
        <ele>55.549662</ele>
        <time>2026-05-09T13:58:56.959Z</time>
      </trkpt>
      <trkpt lat="51.889992" lon="6.037295">
        <ele>55.511416</ele>
        <time>2026-05-09T13:59:58.958Z</time>
      </trkpt>
      <trkpt lat="51.889940" lon="6.037081">
        <ele>55.462676</ele>
        <time>2026-05-09T14:01:26.953Z</time>
      </trkpt>
      <trkpt lat="51.889999" lon="6.036956">
        <ele>55.429327</ele>
        <time>2026-05-09T14:01:38.961Z</time>
      </trkpt>
      <trkpt lat="51.890092" lon="6.036910">
        <ele>55.395938</ele>
        <time>2026-05-09T14:01:43.950Z</time>
      </trkpt>
      <trkpt lat="51.890188" lon="6.036883">
        <ele>55.362480</ele>
        <time>2026-05-09T14:01:46.950Z</time>
      </trkpt>
      <trkpt lat="51.890280" lon="6.036855">
        <ele>55.330337</ele>
        <time>2026-05-09T14:01:49.963Z</time>
      </trkpt>
      <trkpt lat="51.890381" lon="6.036828">
        <ele>55.295187</ele>
        <time>2026-05-09T14:01:52.960Z</time>
      </trkpt>
      <trkpt lat="51.890494" lon="6.036801">
        <ele>55.255966</ele>
        <time>2026-05-09T14:01:55.956Z</time>
      </trkpt>
      <trkpt lat="51.890597" lon="6.036775">
        <ele>55.220171</ele>
        <time>2026-05-09T14:01:58.958Z</time>
      </trkpt>
      <trkpt lat="51.890710" lon="6.036756">
        <ele>55.181161</ele>
        <time>2026-05-09T14:02:01.962Z</time>
      </trkpt>
      <trkpt lat="51.890824" lon="6.036727">
        <ele>55.141536</ele>
        <time>2026-05-09T14:02:04.961Z</time>
      </trkpt>
      <trkpt lat="51.890940" lon="6.036677">
        <ele>55.105996</ele>
        <time>2026-05-09T14:02:07.962Z</time>
      </trkpt>
      <trkpt lat="51.891025" lon="6.036624">
        <ele>55.097336</ele>
        <time>2026-05-09T14:02:09.963Z</time>
      </trkpt>
      <trkpt lat="51.891119" lon="6.036591">
        <ele>55.088192</ele>
        <time>2026-05-09T14:02:11.962Z</time>
      </trkpt>
      <trkpt lat="51.891219" lon="6.036565">
        <ele>55.078563</ele>
        <time>2026-05-09T14:02:13.962Z</time>
      </trkpt>
      <trkpt lat="51.891325" lon="6.036559">
        <ele>55.068478</ele>
        <time>2026-05-09T14:02:15.963Z</time>
      </trkpt>
      <trkpt lat="51.891437" lon="6.036561">
        <ele>55.057829</ele>
        <time>2026-05-09T14:02:17.954Z</time>
      </trkpt>
      <trkpt lat="51.891545" lon="6.036545">
        <ele>55.047518</ele>
        <time>2026-05-09T14:02:19.960Z</time>
      </trkpt>
      <trkpt lat="51.891642" lon="6.036536">
        <ele>55.038280</ele>
        <time>2026-05-09T14:02:21.962Z</time>
      </trkpt>
      <trkpt lat="51.891739" lon="6.036520">
        <ele>55.029010</ele>
        <time>2026-05-09T14:02:23.962Z</time>
      </trkpt>
      <trkpt lat="51.891841" lon="6.036508">
        <ele>55.019287</ele>
        <time>2026-05-09T14:02:25.962Z</time>
      </trkpt>
      <trkpt lat="51.891945" lon="6.036494">
        <ele>55.009365</ele>
        <time>2026-05-09T14:02:27.964Z</time>
      </trkpt>
      <trkpt lat="51.892047" lon="6.036488">
        <ele>54.999661</ele>
        <time>2026-05-09T14:02:29.967Z</time>
      </trkpt>
      <trkpt lat="51.892144" lon="6.036481">
        <ele>54.990429</ele>
        <time>2026-05-09T14:02:31.963Z</time>
      </trkpt>
      <trkpt lat="51.892235" lon="6.036467">
        <ele>54.981738</ele>
        <time>2026-05-09T14:02:33.955Z</time>
      </trkpt>
      <trkpt lat="51.892361" lon="6.036457">
        <ele>54.969744</ele>
        <time>2026-05-09T14:02:36.955Z</time>
      </trkpt>
      <trkpt lat="51.892441" lon="6.036385">
        <ele>54.961044</ele>
        <time>2026-05-09T14:02:42.953Z</time>
      </trkpt>
      <trkpt lat="51.892447" lon="6.036232">
        <ele>54.952048</ele>
        <time>2026-05-09T14:02:46.959Z</time>
      </trkpt>
      <trkpt lat="51.892437" lon="6.036054">
        <ele>54.941561</ele>
        <time>2026-05-09T14:02:49.959Z</time>
      </trkpt>
      <trkpt lat="51.892434" lon="6.035844">
        <ele>54.984040</ele>
        <time>2026-05-09T14:02:52.952Z</time>
      </trkpt>
      <trkpt lat="51.892431" lon="6.035691">
        <ele>55.037175</ele>
        <time>2026-05-09T14:02:54.953Z</time>
      </trkpt>
      <trkpt lat="51.892426" lon="6.035477">
        <ele>55.111509</ele>
        <time>2026-05-09T14:02:57.956Z</time>
      </trkpt>
      <trkpt lat="51.892421" lon="6.035329">
        <ele>55.162958</ele>
        <time>2026-05-09T14:02:59.957Z</time>
      </trkpt>
      <trkpt lat="51.892421" lon="6.035180">
        <ele>55.214677</ele>
        <time>2026-05-09T14:03:01.956Z</time>
      </trkpt>
      <trkpt lat="51.892419" lon="6.034963">
        <ele>55.290008</ele>
        <time>2026-05-09T14:03:04.952Z</time>
      </trkpt>
      <trkpt lat="51.892419" lon="6.034815">
        <ele>55.341380</ele>
        <time>2026-05-09T14:03:06.957Z</time>
      </trkpt>
      <trkpt lat="51.892409" lon="6.034663">
        <ele>55.394439</ele>
        <time>2026-05-09T14:03:08.957Z</time>
      </trkpt>
      <trkpt lat="51.892401" lon="6.034448">
        <ele>55.469203</ele>
        <time>2026-05-09T14:03:11.956Z</time>
      </trkpt>
      <trkpt lat="51.892392" lon="6.034303">
        <ele>55.519787</ele>
        <time>2026-05-09T14:03:13.955Z</time>
      </trkpt>
      <trkpt lat="51.892378" lon="6.034089">
        <ele>55.594485</ele>
        <time>2026-05-09T14:03:16.955Z</time>
      </trkpt>
      <trkpt lat="51.892357" lon="6.033872">
        <ele>55.670728</ele>
        <time>2026-05-09T14:03:19.956Z</time>
      </trkpt>
      <trkpt lat="51.892330" lon="6.033657">
        <ele>55.746885</ele>
        <time>2026-05-09T14:03:22.956Z</time>
      </trkpt>
      <trkpt lat="51.892312" lon="6.033512">
        <ele>55.798224</ele>
        <time>2026-05-09T14:03:24.956Z</time>
      </trkpt>
      <trkpt lat="51.892295" lon="6.033367">
        <ele>55.849455</ele>
        <time>2026-05-09T14:03:26.960Z</time>
      </trkpt>
      <trkpt lat="51.892264" lon="6.033156">
        <ele>55.924742</ele>
        <time>2026-05-09T14:03:29.963Z</time>
      </trkpt>
      <trkpt lat="51.892239" lon="6.033015">
        <ele>56.042459</ele>
        <time>2026-05-09T14:03:31.958Z</time>
      </trkpt>
      <trkpt lat="51.892201" lon="6.032817">
        <ele>56.293385</ele>
        <time>2026-05-09T14:03:34.953Z</time>
      </trkpt>
      <trkpt lat="51.892163" lon="6.032619">
        <ele>56.544312</ele>
        <time>2026-05-09T14:03:37.958Z</time>
      </trkpt>
      <trkpt lat="51.892130" lon="6.032421">
        <ele>56.792505</ele>
        <time>2026-05-09T14:03:40.958Z</time>
      </trkpt>
      <trkpt lat="51.892085" lon="6.032240">
        <ele>57.028647</ele>
        <time>2026-05-09T14:03:43.957Z</time>
      </trkpt>
      <trkpt lat="51.892054" lon="6.032052">
        <ele>57.264135</ele>
        <time>2026-05-09T14:03:46.955Z</time>
      </trkpt>
      <trkpt lat="51.892017" lon="6.031861">
        <ele>57.506392</ele>
        <time>2026-05-09T14:03:49.955Z</time>
      </trkpt>
      <trkpt lat="51.891975" lon="6.031676">
        <ele>57.744937</ele>
        <time>2026-05-09T14:03:52.956Z</time>
      </trkpt>
      <trkpt lat="51.891939" lon="6.031492">
        <ele>57.978527</ele>
        <time>2026-05-09T14:03:55.951Z</time>
      </trkpt>
      <trkpt lat="51.891899" lon="6.031315">
        <ele>58.206632</ele>
        <time>2026-05-09T14:03:58.957Z</time>
      </trkpt>
      <trkpt lat="51.891860" lon="6.031126">
        <ele>58.447797</ele>
        <time>2026-05-09T14:04:01.955Z</time>
      </trkpt>
      <trkpt lat="51.891817" lon="6.030925">
        <ele>58.705237</ele>
        <time>2026-05-09T14:04:04.955Z</time>
      </trkpt>
      <trkpt lat="51.891770" lon="6.030725">
        <ele>58.964221</ele>
        <time>2026-05-09T14:04:07.957Z</time>
      </trkpt>
      <trkpt lat="51.891738" lon="6.030577">
        <ele>59.153997</ele>
        <time>2026-05-09T14:04:09.955Z</time>
      </trkpt>
      <trkpt lat="51.891705" lon="6.030434">
        <ele>59.338752</ele>
        <time>2026-05-09T14:04:11.955Z</time>
      </trkpt>
      <trkpt lat="51.891673" lon="6.030288">
        <ele>59.469940</ele>
        <time>2026-05-09T14:04:13.955Z</time>
      </trkpt>
      <trkpt lat="51.891643" lon="6.030137">
        <ele>59.447981</ele>
        <time>2026-05-09T14:04:15.955Z</time>
      </trkpt>
      <trkpt lat="51.891607" lon="6.029985">
        <ele>59.425444</ele>
        <time>2026-05-09T14:04:17.955Z</time>
      </trkpt>
      <trkpt lat="51.891571" lon="6.029829">
        <ele>59.402389</ele>
        <time>2026-05-09T14:04:19.953Z</time>
      </trkpt>
      <trkpt lat="51.891532" lon="6.029667">
        <ele>59.378318</ele>
        <time>2026-05-09T14:04:21.955Z</time>
      </trkpt>
      <trkpt lat="51.891500" lon="6.029502">
        <ele>59.354377</ele>
        <time>2026-05-09T14:04:23.958Z</time>
      </trkpt>
      <trkpt lat="51.891461" lon="6.029341">
        <ele>59.330435</ele>
        <time>2026-05-09T14:04:25.955Z</time>
      </trkpt>
      <trkpt lat="51.891426" lon="6.029178">
        <ele>59.306544</ele>
        <time>2026-05-09T14:04:27.959Z</time>
      </trkpt>
      <trkpt lat="51.891389" lon="6.029015">
        <ele>59.282503</ele>
        <time>2026-05-09T14:04:29.957Z</time>
      </trkpt>
      <trkpt lat="51.891345" lon="6.028853">
        <ele>59.258002</ele>
        <time>2026-05-09T14:04:31.957Z</time>
      </trkpt>
      <trkpt lat="51.891297" lon="6.028687">
        <ele>59.232626</ele>
        <time>2026-05-09T14:04:33.958Z</time>
      </trkpt>
      <trkpt lat="51.891256" lon="6.028512">
        <ele>59.206715</ele>
        <time>2026-05-09T14:04:35.958Z</time>
      </trkpt>
      <trkpt lat="51.891220" lon="6.028335">
        <ele>59.180917</ele>
        <time>2026-05-09T14:04:37.951Z</time>
      </trkpt>
      <trkpt lat="51.891197" lon="6.028152">
        <ele>59.155065</ele>
        <time>2026-05-09T14:04:39.956Z</time>
      </trkpt>
      <trkpt lat="51.891159" lon="6.027982">
        <ele>59.130036</ele>
        <time>2026-05-09T14:04:41.957Z</time>
      </trkpt>
      <trkpt lat="51.891119" lon="6.027822">
        <ele>59.106139</ele>
        <time>2026-05-09T14:04:43.956Z</time>
      </trkpt>
      <trkpt lat="51.891085" lon="6.027652">
        <ele>59.081402</ele>
        <time>2026-05-09T14:04:45.956Z</time>
      </trkpt>
      <trkpt lat="51.891048" lon="6.027482">
        <ele>59.038394</ele>
        <time>2026-05-09T14:04:47.956Z</time>
      </trkpt>
      <trkpt lat="51.891019" lon="6.027309">
        <ele>58.985288</ele>
        <time>2026-05-09T14:04:49.952Z</time>
      </trkpt>
      <trkpt lat="51.891003" lon="6.027122">
        <ele>58.929361</ele>
        <time>2026-05-09T14:04:51.952Z</time>
      </trkpt>
      <trkpt lat="51.891012" lon="6.026940">
        <ele>58.875273</ele>
        <time>2026-05-09T14:04:53.955Z</time>
      </trkpt>
      <trkpt lat="51.891055" lon="6.026784">
        <ele>58.824660</ele>
        <time>2026-05-09T14:04:55.955Z</time>
      </trkpt>
      <trkpt lat="51.891120" lon="6.026664">
        <ele>58.777362</ele>
        <time>2026-05-09T14:04:57.955Z</time>
      </trkpt>
      <trkpt lat="51.891227" lon="6.026559">
        <ele>58.717317</ele>
        <time>2026-05-09T14:05:00.953Z</time>
      </trkpt>
      <trkpt lat="51.891356" lon="6.026539">
        <ele>58.655114</ele>
        <time>2026-05-09T14:05:03.952Z</time>
      </trkpt>
      <trkpt lat="51.891449" lon="6.026526">
        <ele>58.610308</ele>
        <time>2026-05-09T14:05:05.954Z</time>
      </trkpt>
      <trkpt lat="51.891546" lon="6.026512">
        <ele>58.563563</ele>
        <time>2026-05-09T14:05:07.955Z</time>
      </trkpt>
      <trkpt lat="51.891646" lon="6.026506">
        <ele>58.515530</ele>
        <time>2026-05-09T14:05:09.955Z</time>
      </trkpt>
      <trkpt lat="51.891747" lon="6.026500">
        <ele>58.467017</ele>
        <time>2026-05-09T14:05:11.952Z</time>
      </trkpt>
      <trkpt lat="51.891841" lon="6.026495">
        <ele>58.421873</ele>
        <time>2026-05-09T14:05:13.953Z</time>
      </trkpt>
      <trkpt lat="51.891971" lon="6.026477">
        <ele>58.359245</ele>
        <time>2026-05-09T14:05:16.956Z</time>
      </trkpt>
      <trkpt lat="51.892103" lon="6.026458">
        <ele>58.295635</ele>
        <time>2026-05-09T14:05:19.952Z</time>
      </trkpt>
      <trkpt lat="51.892234" lon="6.026446">
        <ele>58.232655</ele>
        <time>2026-05-09T14:05:22.960Z</time>
      </trkpt>
      <trkpt lat="51.892354" lon="6.026437">
        <ele>57.974317</ele>
        <time>2026-05-09T14:05:25.951Z</time>
      </trkpt>
      <trkpt lat="51.892460" lon="6.026422">
        <ele>57.621263</ele>
        <time>2026-05-09T14:05:28.957Z</time>
      </trkpt>
      <trkpt lat="51.892567" lon="6.026413">
        <ele>57.265752</ele>
        <time>2026-05-09T14:05:31.960Z</time>
      </trkpt>
      <trkpt lat="51.892678" lon="6.026395">
        <ele>56.895606</ele>
        <time>2026-05-09T14:05:34.959Z</time>
      </trkpt>
      <trkpt lat="51.892772" lon="6.026301">
        <ele>56.529095</ele>
        <time>2026-05-09T14:05:37.962Z</time>
      </trkpt>
      <trkpt lat="51.892886" lon="6.026247">
        <ele>56.135005</ele>
        <time>2026-05-09T14:05:40.953Z</time>
      </trkpt>
      <trkpt lat="51.893014" lon="6.026182">
        <ele>55.689924</ele>
        <time>2026-05-09T14:05:43.951Z</time>
      </trkpt>
      <trkpt lat="51.893109" lon="6.026110">
        <ele>55.341933</ele>
        <time>2026-05-09T14:05:45.957Z</time>
      </trkpt>
      <trkpt lat="51.893200" lon="6.025995">
        <ele>54.959020</ele>
        <time>2026-05-09T14:05:47.955Z</time>
      </trkpt>
      <trkpt lat="51.893286" lon="6.025871">
        <ele>54.577054</ele>
        <time>2026-05-09T14:05:49.957Z</time>
      </trkpt>
      <trkpt lat="51.893350" lon="6.025726">
        <ele>54.212017</ele>
        <time>2026-05-09T14:05:51.955Z</time>
      </trkpt>
      <trkpt lat="51.893394" lon="6.025589">
        <ele>53.895770</ele>
        <time>2026-05-09T14:05:53.957Z</time>
      </trkpt>
      <trkpt lat="51.893428" lon="6.025412">
        <ele>53.516181</ele>
        <time>2026-05-09T14:05:56.954Z</time>
      </trkpt>
      <trkpt lat="51.893437" lon="6.025057">
        <ele>52.788647</ele>
        <time>2026-05-09T14:11:15.971Z</time>
      </trkpt>
      <trkpt lat="51.893419" lon="6.024884">
        <ele>52.429401</ele>
        <time>2026-05-09T14:11:19.954Z</time>
      </trkpt>
      <trkpt lat="51.893429" lon="6.024729">
        <ele>52.308026</ele>
        <time>2026-05-09T14:11:24.953Z</time>
      </trkpt>
      <trkpt lat="51.893459" lon="6.024591">
        <ele>52.461948</ele>
        <time>2026-05-09T14:11:29.954Z</time>
      </trkpt>
      <trkpt lat="51.893420" lon="6.024451">
        <ele>52.623539</ele>
        <time>2026-05-09T14:12:26.957Z</time>
      </trkpt>
      <trkpt lat="51.893392" lon="6.024311">
        <ele>52.778362</ele>
        <time>2026-05-09T14:12:44.958Z</time>
      </trkpt>
      <trkpt lat="51.893380" lon="6.024161">
        <ele>52.937484</ele>
        <time>2026-05-09T14:12:57.958Z</time>
      </trkpt>
      <trkpt lat="51.893362" lon="6.024014">
        <ele>53.095145</ele>
        <time>2026-05-09T14:13:09.956Z</time>
      </trkpt>
      <trkpt lat="51.893344" lon="6.023865">
        <ele>53.254870</ele>
        <time>2026-05-09T14:13:20.959Z</time>
      </trkpt>
      <trkpt lat="51.893323" lon="6.023712">
        <ele>53.419761</ele>
        <time>2026-05-09T14:13:30.955Z</time>
      </trkpt>
      <trkpt lat="51.893277" lon="6.023580">
        <ele>53.579237</ele>
        <time>2026-05-09T14:13:40.960Z</time>
      </trkpt>
      <trkpt lat="51.893224" lon="6.023461">
        <ele>53.733625</ele>
        <time>2026-05-09T14:13:52.957Z</time>
      </trkpt>
      <trkpt lat="51.893174" lon="6.023291">
        <ele>53.931740</ele>
        <time>2026-05-09T14:14:04.952Z</time>
      </trkpt>
      <trkpt lat="51.893137" lon="6.023127">
        <ele>54.115438</ele>
        <time>2026-05-09T14:14:09.954Z</time>
      </trkpt>
      <trkpt lat="51.893088" lon="6.022987">
        <ele>54.284759</ele>
        <time>2026-05-09T14:14:13.962Z</time>
      </trkpt>
      <trkpt lat="51.893032" lon="6.022846">
        <ele>54.461157</ele>
        <time>2026-05-09T14:14:16.963Z</time>
      </trkpt>
      <trkpt lat="51.892965" lon="6.022705">
        <ele>54.648369</ele>
        <time>2026-05-09T14:14:19.957Z</time>
      </trkpt>
      <trkpt lat="51.892884" lon="6.022589">
        <ele>54.832647</ele>
        <time>2026-05-09T14:14:22.952Z</time>
      </trkpt>
      <trkpt lat="51.892789" lon="6.022497">
        <ele>55.021311</ele>
        <time>2026-05-09T14:14:25.954Z</time>
      </trkpt>
      <trkpt lat="51.892696" lon="6.022411">
        <ele>55.203847</ele>
        <time>2026-05-09T14:14:28.954Z</time>
      </trkpt>
      <trkpt lat="51.892596" lon="6.022348">
        <ele>55.414099</ele>
        <time>2026-05-09T14:14:31.960Z</time>
      </trkpt>
      <trkpt lat="51.892492" lon="6.022313">
        <ele>55.657311</ele>
        <time>2026-05-09T14:14:34.952Z</time>
      </trkpt>
      <trkpt lat="51.892385" lon="6.022309">
        <ele>55.902376</ele>
        <time>2026-05-09T14:14:37.954Z</time>
      </trkpt>
      <trkpt lat="51.892280" lon="6.022310">
        <ele>56.142801</ele>
        <time>2026-05-09T14:14:40.956Z</time>
      </trkpt>
      <trkpt lat="51.892174" lon="6.022332">
        <ele>56.387494</ele>
        <time>2026-05-09T14:14:43.955Z</time>
      </trkpt>
      <trkpt lat="51.892068" lon="6.022368">
        <ele>56.635478</ele>
        <time>2026-05-09T14:14:46.956Z</time>
      </trkpt>
      <trkpt lat="51.891967" lon="6.022398">
        <ele>56.870592</ele>
        <time>2026-05-09T14:14:49.956Z</time>
      </trkpt>
      <trkpt lat="51.891865" lon="6.022414">
        <ele>57.105235</ele>
        <time>2026-05-09T14:14:52.952Z</time>
      </trkpt>
      <trkpt lat="51.891758" lon="6.022417">
        <ele>57.350272</ele>
        <time>2026-05-09T14:14:55.956Z</time>
      </trkpt>
      <trkpt lat="51.891645" lon="6.022433">
        <ele>57.609996</ele>
        <time>2026-05-09T14:14:58.950Z</time>
      </trkpt>
      <trkpt lat="51.891526" lon="6.022473">
        <ele>57.888273</ele>
        <time>2026-05-09T14:15:01.955Z</time>
      </trkpt>
      <trkpt lat="51.891395" lon="6.022530">
        <ele>58.198853</ele>
        <time>2026-05-09T14:15:04.952Z</time>
      </trkpt>
      <trkpt lat="51.891307" lon="6.022565">
        <ele>58.406329</ele>
        <time>2026-05-09T14:15:06.951Z</time>
      </trkpt>
      <trkpt lat="51.891217" lon="6.022601">
        <ele>58.618590</ele>
        <time>2026-05-09T14:15:08.955Z</time>
      </trkpt>
      <trkpt lat="51.891087" lon="6.022648">
        <ele>58.923573</ele>
        <time>2026-05-09T14:15:11.950Z</time>
      </trkpt>
      <trkpt lat="51.890999" lon="6.022680">
        <ele>59.130080</ele>
        <time>2026-05-09T14:15:13.961Z</time>
      </trkpt>
      <trkpt lat="51.890910" lon="6.022710">
        <ele>59.338227</ele>
        <time>2026-05-09T14:15:15.954Z</time>
      </trkpt>
      <trkpt lat="51.890819" lon="6.022735">
        <ele>59.369181</ele>
        <time>2026-05-09T14:15:17.955Z</time>
      </trkpt>
      <trkpt lat="51.890689" lon="6.022769">
        <ele>59.232546</ele>
        <time>2026-05-09T14:15:20.954Z</time>
      </trkpt>
      <trkpt lat="51.890568" lon="6.022779">
        <ele>59.106833</ele>
        <time>2026-05-09T14:15:23.956Z</time>
      </trkpt>
      <trkpt lat="51.890450" lon="6.022720">
        <ele>58.978699</ele>
        <time>2026-05-09T14:15:26.955Z</time>
      </trkpt>
      <trkpt lat="51.890380" lon="6.022547">
        <ele>58.846227</ele>
        <time>2026-05-09T14:15:29.953Z</time>
      </trkpt>
      <trkpt lat="51.890307" lon="6.022368">
        <ele>58.708834</ele>
        <time>2026-05-09T14:15:32.960Z</time>
      </trkpt>
      <trkpt lat="51.890256" lon="6.022244">
        <ele>58.613410</ele>
        <time>2026-05-09T14:15:34.949Z</time>
      </trkpt>
      <trkpt lat="51.890206" lon="6.022120">
        <ele>58.518557</ele>
        <time>2026-05-09T14:15:36.952Z</time>
      </trkpt>
      <trkpt lat="51.890159" lon="6.021991">
        <ele>58.422627</ele>
        <time>2026-05-09T14:15:38.953Z</time>
      </trkpt>
      <trkpt lat="51.890109" lon="6.021861">
        <ele>58.324535</ele>
        <time>2026-05-09T14:15:40.952Z</time>
      </trkpt>
      <trkpt lat="51.890058" lon="6.021723">
        <ele>58.221531</ele>
        <time>2026-05-09T14:15:42.958Z</time>
      </trkpt>
      <trkpt lat="51.890003" lon="6.021589">
        <ele>58.118475</ele>
        <time>2026-05-09T14:15:44.953Z</time>
      </trkpt>
      <trkpt lat="51.889959" lon="6.021442">
        <ele>58.013852</ele>
        <time>2026-05-09T14:15:46.953Z</time>
      </trkpt>
      <trkpt lat="51.889920" lon="6.021290">
        <ele>57.908438</ele>
        <time>2026-05-09T14:15:48.953Z</time>
      </trkpt>
      <trkpt lat="51.889900" lon="6.021133">
        <ele>57.805778</ele>
        <time>2026-05-09T14:15:50.953Z</time>
      </trkpt>
      <trkpt lat="51.889887" lon="6.020972">
        <ele>57.701798</ele>
        <time>2026-05-09T14:15:52.950Z</time>
      </trkpt>
      <trkpt lat="51.889881" lon="6.020793">
        <ele>57.587000</ele>
        <time>2026-05-09T14:15:54.956Z</time>
      </trkpt>
      <trkpt lat="51.889881" lon="6.020610">
        <ele>57.410686</ele>
        <time>2026-05-09T14:15:56.956Z</time>
      </trkpt>
      <trkpt lat="51.889884" lon="6.020412">
        <ele>57.199917</ele>
        <time>2026-05-09T14:15:58.954Z</time>
      </trkpt>
      <trkpt lat="51.889890" lon="6.020208">
        <ele>56.982579</ele>
        <time>2026-05-09T14:16:00.964Z</time>
      </trkpt>
      <trkpt lat="51.889899" lon="6.020000">
        <ele>56.760688</ele>
        <time>2026-05-09T14:16:02.951Z</time>
      </trkpt>
      <trkpt lat="51.889900" lon="6.019793">
        <ele>56.540398</ele>
        <time>2026-05-09T14:16:04.954Z</time>
      </trkpt>
      <trkpt lat="51.889902" lon="6.019579">
        <ele>56.312639</ele>
        <time>2026-05-09T14:16:06.953Z</time>
      </trkpt>
      <trkpt lat="51.889908" lon="6.019366">
        <ele>56.085735</ele>
        <time>2026-05-09T14:16:08.956Z</time>
      </trkpt>
      <trkpt lat="51.889914" lon="6.019148">
        <ele>55.853515</ele>
        <time>2026-05-09T14:16:10.953Z</time>
      </trkpt>
      <trkpt lat="51.889921" lon="6.018931">
        <ele>55.622275</ele>
        <time>2026-05-09T14:16:12.952Z</time>
      </trkpt>
      <trkpt lat="51.889930" lon="6.018720">
        <ele>55.397199</ele>
        <time>2026-05-09T14:16:14.956Z</time>
      </trkpt>
      <trkpt lat="51.889936" lon="6.018524">
        <ele>55.188365</ele>
        <time>2026-05-09T14:16:16.954Z</time>
      </trkpt>
      <trkpt lat="51.889940" lon="6.018322">
        <ele>54.973292</ele>
        <time>2026-05-09T14:16:18.961Z</time>
      </trkpt>
      <trkpt lat="51.889947" lon="6.018128">
        <ele>54.766491</ele>
        <time>2026-05-09T14:16:20.952Z</time>
      </trkpt>
      <trkpt lat="51.889952" lon="6.017919">
        <ele>54.543912</ele>
        <time>2026-05-09T14:16:22.961Z</time>
      </trkpt>
      <trkpt lat="51.889963" lon="6.017727">
        <ele>54.493089</ele>
        <time>2026-05-09T14:16:24.956Z</time>
      </trkpt>
      <trkpt lat="51.889968" lon="6.017542">
        <ele>54.551446</ele>
        <time>2026-05-09T14:16:26.953Z</time>
      </trkpt>
      <trkpt lat="51.889969" lon="6.017355">
        <ele>54.610381</ele>
        <time>2026-05-09T14:16:28.955Z</time>
      </trkpt>
      <trkpt lat="51.889971" lon="6.017160">
        <ele>54.671842</ele>
        <time>2026-05-09T14:16:30.954Z</time>
      </trkpt>
      <trkpt lat="51.889975" lon="6.016966">
        <ele>54.733015</ele>
        <time>2026-05-09T14:16:32.953Z</time>
      </trkpt>
      <trkpt lat="51.889980" lon="6.016775">
        <ele>54.793262</ele>
        <time>2026-05-09T14:16:34.957Z</time>
      </trkpt>
      <trkpt lat="51.889983" lon="6.016587">
        <ele>54.852529</ele>
        <time>2026-05-09T14:16:36.951Z</time>
      </trkpt>
      <trkpt lat="51.889987" lon="6.016403">
        <ele>54.910551</ele>
        <time>2026-05-09T14:16:38.955Z</time>
      </trkpt>
      <trkpt lat="51.889994" lon="6.016216">
        <ele>54.969592</ele>
        <time>2026-05-09T14:16:40.952Z</time>
      </trkpt>
      <trkpt lat="51.890002" lon="6.016028">
        <ele>55.028980</ele>
        <time>2026-05-09T14:16:42.953Z</time>
      </trkpt>
      <trkpt lat="51.890008" lon="6.015839">
        <ele>55.088621</ele>
        <time>2026-05-09T14:16:44.957Z</time>
      </trkpt>
      <trkpt lat="51.890018" lon="6.015659">
        <ele>55.145576</ele>
        <time>2026-05-09T14:16:46.952Z</time>
      </trkpt>
      <trkpt lat="51.890027" lon="6.015493">
        <ele>55.198092</ele>
        <time>2026-05-09T14:16:48.958Z</time>
      </trkpt>
      <trkpt lat="51.890036" lon="6.015322">
        <ele>55.252177</ele>
        <time>2026-05-09T14:16:50.951Z</time>
      </trkpt>
      <trkpt lat="51.890046" lon="6.015142">
        <ele>55.309132</ele>
        <time>2026-05-09T14:16:52.957Z</time>
      </trkpt>
      <trkpt lat="51.890056" lon="6.014962">
        <ele>55.366088</ele>
        <time>2026-05-09T14:16:54.956Z</time>
      </trkpt>
      <trkpt lat="51.890068" lon="6.014781">
        <ele>55.369529</ele>
        <time>2026-05-09T14:16:56.950Z</time>
      </trkpt>
      <trkpt lat="51.890081" lon="6.014612">
        <ele>55.361885</ele>
        <time>2026-05-09T14:16:58.950Z</time>
      </trkpt>
      <trkpt lat="51.890093" lon="6.014452">
        <ele>55.354651</ele>
        <time>2026-05-09T14:17:00.957Z</time>
      </trkpt>
      <trkpt lat="51.890099" lon="6.014302">
        <ele>55.347905</ele>
        <time>2026-05-09T14:17:02.948Z</time>
      </trkpt>
      <trkpt lat="51.890106" lon="6.014145">
        <ele>55.340840</ele>
        <time>2026-05-09T14:17:04.955Z</time>
      </trkpt>
      <trkpt lat="51.890121" lon="6.013981">
        <ele>55.333399</ele>
        <time>2026-05-09T14:17:06.955Z</time>
      </trkpt>
      <trkpt lat="51.890135" lon="6.013808">
        <ele>55.325569</ele>
        <time>2026-05-09T14:17:08.962Z</time>
      </trkpt>
      <trkpt lat="51.890148" lon="6.013635">
        <ele>55.317747</ele>
        <time>2026-05-09T14:17:10.954Z</time>
      </trkpt>
      <trkpt lat="51.890163" lon="6.013456">
        <ele>55.309639</ele>
        <time>2026-05-09T14:17:12.954Z</time>
      </trkpt>
      <trkpt lat="51.890175" lon="6.013269">
        <ele>55.301201</ele>
        <time>2026-05-09T14:17:14.961Z</time>
      </trkpt>
      <trkpt lat="51.890188" lon="6.013080">
        <ele>55.292666</ele>
        <time>2026-05-09T14:17:16.953Z</time>
      </trkpt>
      <trkpt lat="51.890201" lon="6.012904">
        <ele>55.284711</ele>
        <time>2026-05-09T14:17:18.952Z</time>
      </trkpt>
      <trkpt lat="51.890217" lon="6.012723">
        <ele>55.276504</ele>
        <time>2026-05-09T14:17:20.953Z</time>
      </trkpt>
      <trkpt lat="51.890228" lon="6.012542">
        <ele>55.268342</ele>
        <time>2026-05-09T14:17:22.953Z</time>
      </trkpt>
      <trkpt lat="51.890236" lon="6.012358">
        <ele>55.260063</ele>
        <time>2026-05-09T14:17:24.961Z</time>
      </trkpt>
      <trkpt lat="51.890237" lon="6.012168">
        <ele>55.251535</ele>
        <time>2026-05-09T14:17:26.948Z</time>
      </trkpt>
      <trkpt lat="51.890250" lon="6.011988">
        <ele>55.236831</ele>
        <time>2026-05-09T14:17:28.951Z</time>
      </trkpt>
      <trkpt lat="51.890263" lon="6.011815">
        <ele>55.203954</ele>
        <time>2026-05-09T14:17:30.963Z</time>
      </trkpt>
      <trkpt lat="51.890299" lon="6.011644">
        <ele>55.169871</ele>
        <time>2026-05-09T14:17:32.962Z</time>
      </trkpt>
      <trkpt lat="51.890329" lon="6.011457">
        <ele>55.133422</ele>
        <time>2026-05-09T14:17:34.962Z</time>
      </trkpt>
      <trkpt lat="51.890340" lon="6.011262">
        <ele>55.096483</ele>
        <time>2026-05-09T14:17:36.962Z</time>
      </trkpt>
      <trkpt lat="51.890353" lon="6.011079">
        <ele>55.061733</ele>
        <time>2026-05-09T14:17:38.952Z</time>
      </trkpt>
      <trkpt lat="51.890368" lon="6.010890">
        <ele>55.025785</ele>
        <time>2026-05-09T14:17:40.961Z</time>
      </trkpt>
      <trkpt lat="51.890380" lon="6.010709">
        <ele>54.991444</ele>
        <time>2026-05-09T14:17:42.950Z</time>
      </trkpt>
      <trkpt lat="51.890388" lon="6.010527">
        <ele>54.957024</ele>
        <time>2026-05-09T14:17:44.959Z</time>
      </trkpt>
      <trkpt lat="51.890393" lon="6.010343">
        <ele>54.922279</ele>
        <time>2026-05-09T14:17:46.957Z</time>
      </trkpt>
      <trkpt lat="51.890397" lon="6.010158">
        <ele>54.887359</ele>
        <time>2026-05-09T14:17:48.950Z</time>
      </trkpt>
      <trkpt lat="51.890396" lon="6.009966">
        <ele>54.851138</ele>
        <time>2026-05-09T14:17:50.964Z</time>
      </trkpt>
      <trkpt lat="51.890389" lon="6.009778">
        <ele>54.815608</ele>
        <time>2026-05-09T14:17:52.963Z</time>
      </trkpt>
      <trkpt lat="51.890377" lon="6.009599">
        <ele>54.781642</ele>
        <time>2026-05-09T14:17:54.957Z</time>
      </trkpt>
      <trkpt lat="51.890364" lon="6.009408">
        <ele>54.745392</ele>
        <time>2026-05-09T14:17:56.960Z</time>
      </trkpt>
      <trkpt lat="51.890349" lon="6.009226">
        <ele>54.710754</ele>
        <time>2026-05-09T14:17:58.954Z</time>
      </trkpt>
      <trkpt lat="51.890340" lon="6.009041">
        <ele>54.685850</ele>
        <time>2026-05-09T14:18:00.957Z</time>
      </trkpt>
      <trkpt lat="51.890327" lon="6.008855">
        <ele>54.668441</ele>
        <time>2026-05-09T14:18:02.955Z</time>
      </trkpt>
      <trkpt lat="51.890319" lon="6.008674">
        <ele>54.651564</ele>
        <time>2026-05-09T14:18:04.956Z</time>
      </trkpt>
      <trkpt lat="51.890309" lon="6.008514">
        <ele>54.636608</ele>
        <time>2026-05-09T14:18:06.961Z</time>
      </trkpt>
      <trkpt lat="51.890302" lon="6.008352">
        <ele>54.621504</ele>
        <time>2026-05-09T14:18:08.955Z</time>
      </trkpt>
      <trkpt lat="51.890292" lon="6.008183">
        <ele>54.605714</ele>
        <time>2026-05-09T14:18:10.960Z</time>
      </trkpt>
      <trkpt lat="51.890274" lon="6.008001">
        <ele>54.588572</ele>
        <time>2026-05-09T14:18:12.956Z</time>
      </trkpt>
      <trkpt lat="51.890249" lon="6.007826">
        <ele>54.571866</ele>
        <time>2026-05-09T14:18:14.960Z</time>
      </trkpt>
      <trkpt lat="51.890231" lon="6.007646">
        <ele>54.554907</ele>
        <time>2026-05-09T14:18:16.958Z</time>
      </trkpt>
      <trkpt lat="51.890216" lon="6.007475">
        <ele>54.538843</ele>
        <time>2026-05-09T14:18:18.959Z</time>
      </trkpt>
      <trkpt lat="51.890207" lon="6.007302">
        <ele>54.522696</ele>
        <time>2026-05-09T14:18:20.953Z</time>
      </trkpt>
      <trkpt lat="51.890196" lon="6.007123">
        <ele>54.505966</ele>
        <time>2026-05-09T14:18:22.955Z</time>
      </trkpt>
      <trkpt lat="51.890186" lon="6.006942">
        <ele>54.489065</ele>
        <time>2026-05-09T14:18:24.958Z</time>
      </trkpt>
      <trkpt lat="51.890177" lon="6.006752">
        <ele>54.471343</ele>
        <time>2026-05-09T14:18:26.953Z</time>
      </trkpt>
      <trkpt lat="51.890168" lon="6.006570">
        <ele>54.454362</ele>
        <time>2026-05-09T14:18:28.957Z</time>
      </trkpt>
      <trkpt lat="51.890158" lon="6.006396">
        <ele>54.438109</ele>
        <time>2026-05-09T14:18:30.958Z</time>
      </trkpt>
      <trkpt lat="51.890149" lon="6.006225">
        <ele>54.429726</ele>
        <time>2026-05-09T14:18:32.958Z</time>
      </trkpt>
      <trkpt lat="51.890140" lon="6.006045">
        <ele>54.464193</ele>
        <time>2026-05-09T14:18:34.959Z</time>
      </trkpt>
      <trkpt lat="51.890131" lon="6.005868">
        <ele>54.498090</ele>
        <time>2026-05-09T14:18:36.959Z</time>
      </trkpt>
      <trkpt lat="51.890126" lon="6.005693">
        <ele>54.531526</ele>
        <time>2026-05-09T14:18:38.951Z</time>
      </trkpt>
      <trkpt lat="51.890127" lon="6.005528">
        <ele>54.563019</ele>
        <time>2026-05-09T14:18:40.959Z</time>
      </trkpt>
      <trkpt lat="51.890131" lon="6.005358">
        <ele>54.595489</ele>
        <time>2026-05-09T14:18:42.956Z</time>
      </trkpt>
      <trkpt lat="51.890132" lon="6.005189">
        <ele>54.627746</ele>
        <time>2026-05-09T14:18:44.955Z</time>
      </trkpt>
      <trkpt lat="51.890132" lon="6.005009">
        <ele>54.662100</ele>
        <time>2026-05-09T14:18:46.964Z</time>
      </trkpt>
      <trkpt lat="51.890134" lon="6.004827">
        <ele>54.696842</ele>
        <time>2026-05-09T14:18:48.946Z</time>
      </trkpt>
      <trkpt lat="51.890135" lon="6.004657">
        <ele>54.729290</ele>
        <time>2026-05-09T14:18:50.956Z</time>
      </trkpt>
      <trkpt lat="51.890134" lon="6.004500">
        <ele>54.759256</ele>
        <time>2026-05-09T14:18:52.955Z</time>
      </trkpt>
      <trkpt lat="51.890133" lon="6.004341">
        <ele>54.789604</ele>
        <time>2026-05-09T14:18:54.947Z</time>
      </trkpt>
      <trkpt lat="51.890130" lon="6.004182">
        <ele>54.819965</ele>
        <time>2026-05-09T14:18:56.955Z</time>
      </trkpt>
      <trkpt lat="51.890130" lon="6.004022">
        <ele>54.850503</ele>
        <time>2026-05-09T14:18:58.948Z</time>
      </trkpt>
      <trkpt lat="51.890131" lon="6.003851">
        <ele>54.883141</ele>
        <time>2026-05-09T14:19:00.953Z</time>
      </trkpt>
      <trkpt lat="51.890134" lon="6.003673">
        <ele>54.917127</ele>
        <time>2026-05-09T14:19:02.952Z</time>
      </trkpt>
      <trkpt lat="51.890136" lon="6.003508">
        <ele>54.948625</ele>
        <time>2026-05-09T14:19:04.955Z</time>
      </trkpt>
      <trkpt lat="51.890137" lon="6.003333">
        <ele>54.980597</ele>
        <time>2026-05-09T14:19:06.958Z</time>
      </trkpt>
      <trkpt lat="51.890136" lon="6.003158">
        <ele>54.973128</ele>
        <time>2026-05-09T14:19:08.956Z</time>
      </trkpt>
      <trkpt lat="51.890135" lon="6.002991">
        <ele>54.966000</ele>
        <time>2026-05-09T14:19:10.956Z</time>
      </trkpt>
      <trkpt lat="51.890136" lon="6.002819">
        <ele>54.958659</ele>
        <time>2026-05-09T14:19:12.956Z</time>
      </trkpt>
      <trkpt lat="51.890137" lon="6.002642">
        <ele>54.951105</ele>
        <time>2026-05-09T14:19:14.951Z</time>
      </trkpt>
      <trkpt lat="51.890136" lon="6.002480">
        <ele>54.944190</ele>
        <time>2026-05-09T14:19:16.954Z</time>
      </trkpt>
      <trkpt lat="51.890133" lon="6.002327">
        <ele>54.937657</ele>
        <time>2026-05-09T14:19:18.957Z</time>
      </trkpt>
      <trkpt lat="51.890132" lon="6.002110">
        <ele>54.928396</ele>
        <time>2026-05-09T14:19:21.956Z</time>
      </trkpt>
      <trkpt lat="51.890131" lon="6.001963">
        <ele>54.922122</ele>
        <time>2026-05-09T14:19:23.957Z</time>
      </trkpt>
      <trkpt lat="51.890121" lon="6.001759">
        <ele>54.913388</ele>
        <time>2026-05-09T14:19:26.951Z</time>
      </trkpt>
      <trkpt lat="51.890109" lon="6.001587">
        <ele>54.906000</ele>
        <time>2026-05-09T14:19:29.950Z</time>
      </trkpt>
      <trkpt lat="51.890075" lon="6.001417">
        <ele>54.898374</ele>
        <time>2026-05-09T14:19:32.947Z</time>
      </trkpt>
      <trkpt lat="51.890047" lon="6.001206">
        <ele>54.889163</ele>
        <time>2026-05-09T14:19:35.952Z</time>
      </trkpt>
      <trkpt lat="51.890018" lon="6.001056">
        <ele>54.882454</ele>
        <time>2026-05-09T14:19:37.957Z</time>
      </trkpt>
      <trkpt lat="51.889983" lon="6.000905">
        <ele>54.875570</ele>
        <time>2026-05-09T14:19:39.955Z</time>
      </trkpt>
      <trkpt lat="51.889948" lon="6.000750">
        <ele>54.868526</ele>
        <time>2026-05-09T14:19:41.963Z</time>
      </trkpt>
      <trkpt lat="51.889903" lon="6.000594">
        <ele>54.861177</ele>
        <time>2026-05-09T14:19:43.950Z</time>
      </trkpt>
      <trkpt lat="51.889854" lon="6.000446">
        <ele>54.836703</ele>
        <time>2026-05-09T14:19:45.954Z</time>
      </trkpt>
      <trkpt lat="51.889803" lon="6.000309">
        <ele>54.782027</ele>
        <time>2026-05-09T14:19:47.961Z</time>
      </trkpt>
      <trkpt lat="51.889749" lon="6.000172">
        <ele>54.726476</ele>
        <time>2026-05-09T14:19:49.952Z</time>
      </trkpt>
      <trkpt lat="51.889695" lon="6.000048">
        <ele>54.674613</ele>
        <time>2026-05-09T14:19:51.954Z</time>
      </trkpt>
      <trkpt lat="51.889636" lon="5.999931">
        <ele>54.622981</ele>
        <time>2026-05-09T14:19:53.955Z</time>
      </trkpt>
      <trkpt lat="51.889572" lon="5.999811">
        <ele>54.568782</ele>
        <time>2026-05-09T14:19:55.956Z</time>
      </trkpt>
      <trkpt lat="51.889530" lon="5.999672">
        <ele>54.515892</ele>
        <time>2026-05-09T14:19:57.960Z</time>
      </trkpt>
      <trkpt lat="51.889561" lon="5.999521">
        <ele>54.461510</ele>
        <time>2026-05-09T14:19:59.958Z</time>
      </trkpt>
      <trkpt lat="51.889623" lon="5.999375">
        <ele>54.400946</ele>
        <time>2026-05-09T14:20:01.954Z</time>
      </trkpt>
      <trkpt lat="51.889682" lon="5.999217">
        <ele>54.337837</ele>
        <time>2026-05-09T14:20:03.958Z</time>
      </trkpt>
      <trkpt lat="51.889740" lon="5.999055">
        <ele>54.273835</ele>
        <time>2026-05-09T14:20:05.956Z</time>
      </trkpt>
      <trkpt lat="51.889793" lon="5.998891">
        <ele>54.210571</ele>
        <time>2026-05-09T14:20:07.958Z</time>
      </trkpt>
      <trkpt lat="51.889848" lon="5.998729">
        <ele>54.147386</ele>
        <time>2026-05-09T14:20:09.961Z</time>
      </trkpt>
      <trkpt lat="51.889906" lon="5.998566">
        <ele>54.083088</ele>
        <time>2026-05-09T14:20:11.951Z</time>
      </trkpt>
      <trkpt lat="51.889963" lon="5.998404">
        <ele>54.019362</ele>
        <time>2026-05-09T14:20:13.959Z</time>
      </trkpt>
      <trkpt lat="51.890023" lon="5.998241">
        <ele>53.954504</ele>
        <time>2026-05-09T14:20:15.955Z</time>
      </trkpt>
      <trkpt lat="51.890081" lon="5.998084">
        <ele>53.891974</ele>
        <time>2026-05-09T14:20:17.951Z</time>
      </trkpt>
      <trkpt lat="51.890140" lon="5.997927">
        <ele>53.825056</ele>
        <time>2026-05-09T14:20:19.951Z</time>
      </trkpt>
      <trkpt lat="51.890193" lon="5.997765">
        <ele>53.754210</ele>
        <time>2026-05-09T14:20:21.958Z</time>
      </trkpt>
      <trkpt lat="51.890249" lon="5.997607">
        <ele>53.683810</ele>
        <time>2026-05-09T14:20:23.952Z</time>
      </trkpt>
      <trkpt lat="51.890285" lon="5.997440">
        <ele>53.615460</ele>
        <time>2026-05-09T14:20:25.949Z</time>
      </trkpt>
      <trkpt lat="51.890259" lon="5.997270">
        <ele>53.547786</ele>
        <time>2026-05-09T14:20:27.955Z</time>
      </trkpt>
      <trkpt lat="51.890199" lon="5.997123">
        <ele>53.479689</ele>
        <time>2026-05-09T14:20:29.963Z</time>
      </trkpt>
      <trkpt lat="51.890131" lon="5.996987">
        <ele>53.412059</ele>
        <time>2026-05-09T14:20:31.954Z</time>
      </trkpt>
      <trkpt lat="51.890064" lon="5.996853">
        <ele>53.345424</ele>
        <time>2026-05-09T14:20:33.953Z</time>
      </trkpt>
      <trkpt lat="51.890008" lon="5.996704">
        <ele>53.278016</ele>
        <time>2026-05-09T14:20:35.958Z</time>
      </trkpt>
      <trkpt lat="51.890001" lon="5.996530">
        <ele>53.210641</ele>
        <time>2026-05-09T14:20:37.958Z</time>
      </trkpt>
      <trkpt lat="51.890046" lon="5.996367">
        <ele>53.141645</ele>
        <time>2026-05-09T14:20:39.954Z</time>
      </trkpt>
      <trkpt lat="51.890105" lon="5.996215">
        <ele>53.072264</ele>
        <time>2026-05-09T14:20:41.952Z</time>
      </trkpt>
      <trkpt lat="51.890168" lon="5.996062">
        <ele>53.001196</ele>
        <time>2026-05-09T14:20:43.952Z</time>
      </trkpt>
      <trkpt lat="51.890226" lon="5.995909">
        <ele>52.931817</ele>
        <time>2026-05-09T14:20:45.947Z</time>
      </trkpt>
      <trkpt lat="51.890287" lon="5.995764">
        <ele>52.864013</ele>
        <time>2026-05-09T14:20:47.951Z</time>
      </trkpt>
      <trkpt lat="51.890342" lon="5.995620">
        <ele>52.798580</ele>
        <time>2026-05-09T14:20:49.953Z</time>
      </trkpt>
      <trkpt lat="51.890397" lon="5.995478">
        <ele>52.734421</ele>
        <time>2026-05-09T14:20:51.953Z</time>
      </trkpt>
      <trkpt lat="51.890463" lon="5.995334">
        <ele>52.728662</ele>
        <time>2026-05-09T14:20:53.956Z</time>
      </trkpt>
      <trkpt lat="51.890526" lon="5.995201">
        <ele>52.723280</ele>
        <time>2026-05-09T14:20:55.954Z</time>
      </trkpt>
      <trkpt lat="51.890581" lon="5.995067">
        <ele>52.718113</ele>
        <time>2026-05-09T14:20:57.950Z</time>
      </trkpt>
      <trkpt lat="51.890636" lon="5.994927">
        <ele>52.712786</ele>
        <time>2026-05-09T14:20:59.966Z</time>
      </trkpt>
      <trkpt lat="51.890650" lon="5.994762">
        <ele>52.707439</ele>
        <time>2026-05-09T14:21:01.951Z</time>
      </trkpt>
      <trkpt lat="51.890669" lon="5.994586">
        <ele>52.701703</ele>
        <time>2026-05-09T14:21:03.952Z</time>
      </trkpt>
      <trkpt lat="51.890693" lon="5.994405">
        <ele>52.695759</ele>
        <time>2026-05-09T14:21:05.951Z</time>
      </trkpt>
      <trkpt lat="51.890712" lon="5.994229">
        <ele>52.690023</ele>
        <time>2026-05-09T14:21:07.951Z</time>
      </trkpt>
      <trkpt lat="51.890733" lon="5.994052">
        <ele>52.684237</ele>
        <time>2026-05-09T14:21:09.950Z</time>
      </trkpt>
      <trkpt lat="51.890756" lon="5.993876">
        <ele>52.678461</ele>
        <time>2026-05-09T14:21:11.949Z</time>
      </trkpt>
      <trkpt lat="51.890776" lon="5.993701">
        <ele>52.672748</ele>
        <time>2026-05-09T14:21:13.956Z</time>
      </trkpt>
      <trkpt lat="51.890790" lon="5.993524">
        <ele>52.667019</ele>
        <time>2026-05-09T14:21:15.950Z</time>
      </trkpt>
      <trkpt lat="51.890805" lon="5.993347">
        <ele>52.661283</ele>
        <time>2026-05-09T14:21:17.951Z</time>
      </trkpt>
      <trkpt lat="51.890827" lon="5.993174">
        <ele>52.655612</ele>
        <time>2026-05-09T14:21:19.965Z</time>
      </trkpt>
      <trkpt lat="51.890844" lon="5.993006">
        <ele>52.650147</ele>
        <time>2026-05-09T14:21:21.955Z</time>
      </trkpt>
      <trkpt lat="51.890854" lon="5.992838">
        <ele>52.644729</ele>
        <time>2026-05-09T14:21:23.956Z</time>
      </trkpt>
      <trkpt lat="51.890857" lon="5.992670">
        <ele>52.651704</ele>
        <time>2026-05-09T14:21:25.954Z</time>
      </trkpt>
      <trkpt lat="51.890831" lon="5.992503">
        <ele>52.689421</ele>
        <time>2026-05-09T14:21:27.955Z</time>
      </trkpt>
      <trkpt lat="51.890837" lon="5.992320">
        <ele>52.729554</ele>
        <time>2026-05-09T14:21:29.955Z</time>
      </trkpt>
      <trkpt lat="51.890830" lon="5.992136">
        <ele>52.769925</ele>
        <time>2026-05-09T14:21:31.952Z</time>
      </trkpt>
      <trkpt lat="51.890812" lon="5.991955">
        <ele>52.810074</ele>
        <time>2026-05-09T14:21:33.954Z</time>
      </trkpt>
      <trkpt lat="51.890789" lon="5.991785">
        <ele>52.848187</ele>
        <time>2026-05-09T14:21:35.962Z</time>
      </trkpt>
      <trkpt lat="51.890769" lon="5.991611">
        <ele>52.886947</ele>
        <time>2026-05-09T14:21:37.955Z</time>
      </trkpt>
      <trkpt lat="51.890750" lon="5.991431">
        <ele>52.926938</ele>
        <time>2026-05-09T14:21:39.961Z</time>
      </trkpt>
      <trkpt lat="51.890751" lon="5.991243">
        <ele>52.968111</ele>
        <time>2026-05-09T14:21:41.960Z</time>
      </trkpt>
      <trkpt lat="51.890766" lon="5.991060">
        <ele>53.008539</ele>
        <time>2026-05-09T14:21:43.954Z</time>
      </trkpt>
      <trkpt lat="51.890791" lon="5.990885">
        <ele>53.047876</ele>
        <time>2026-05-09T14:21:45.959Z</time>
      </trkpt>
      <trkpt lat="51.890813" lon="5.990711">
        <ele>53.086772</ele>
        <time>2026-05-09T14:21:47.959Z</time>
      </trkpt>
      <trkpt lat="51.890842" lon="5.990543">
        <ele>53.124975</ele>
        <time>2026-05-09T14:21:49.957Z</time>
      </trkpt>
      <trkpt lat="51.890869" lon="5.990370">
        <ele>53.164053</ele>
        <time>2026-05-09T14:21:51.957Z</time>
      </trkpt>
      <trkpt lat="51.890893" lon="5.990196">
        <ele>53.203098</ele>
        <time>2026-05-09T14:21:53.956Z</time>
      </trkpt>
      <trkpt lat="51.890920" lon="5.990027">
        <ele>53.241328</ele>
        <time>2026-05-09T14:21:55.950Z</time>
      </trkpt>
      <trkpt lat="51.890939" lon="5.989862">
        <ele>53.278086</ele>
        <time>2026-05-09T14:21:57.958Z</time>
      </trkpt>
      <trkpt lat="51.890959" lon="5.989686">
        <ele>53.292518</ele>
        <time>2026-05-09T14:21:59.954Z</time>
      </trkpt>
      <trkpt lat="51.890980" lon="5.989511">
        <ele>53.306210</ele>
        <time>2026-05-09T14:22:01.959Z</time>
      </trkpt>
      <trkpt lat="51.891000" lon="5.989331">
        <ele>53.320257</ele>
        <time>2026-05-09T14:22:03.959Z</time>
      </trkpt>
      <trkpt lat="51.891012" lon="5.989151">
        <ele>53.334162</ele>
        <time>2026-05-09T14:22:05.963Z</time>
      </trkpt>
      <trkpt lat="51.891016" lon="5.988970">
        <ele>53.348072</ele>
        <time>2026-05-09T14:22:07.965Z</time>
      </trkpt>
      <trkpt lat="51.891023" lon="5.988782">
        <ele>53.362537</ele>
        <time>2026-05-09T14:22:09.951Z</time>
      </trkpt>
      <trkpt lat="51.891032" lon="5.988597">
        <ele>53.376790</ele>
        <time>2026-05-09T14:22:11.958Z</time>
      </trkpt>
      <trkpt lat="51.891036" lon="5.988410">
        <ele>53.391160</ele>
        <time>2026-05-09T14:22:13.955Z</time>
      </trkpt>
      <trkpt lat="51.891034" lon="5.988235">
        <ele>53.404603</ele>
        <time>2026-05-09T14:22:15.955Z</time>
      </trkpt>
      <trkpt lat="51.891019" lon="5.988072">
        <ele>53.417260</ele>
        <time>2026-05-09T14:22:17.956Z</time>
      </trkpt>
      <trkpt lat="51.891000" lon="5.987919">
        <ele>53.429247</ele>
        <time>2026-05-09T14:22:19.955Z</time>
      </trkpt>
      <trkpt lat="51.890991" lon="5.987753">
        <ele>53.442045</ele>
        <time>2026-05-09T14:22:21.947Z</time>
      </trkpt>
      <trkpt lat="51.890994" lon="5.987578">
        <ele>53.455491</ele>
        <time>2026-05-09T14:22:23.956Z</time>
      </trkpt>
      <trkpt lat="51.891000" lon="5.987387">
        <ele>53.470179</ele>
        <time>2026-05-09T14:22:25.954Z</time>
      </trkpt>
      <trkpt lat="51.891004" lon="5.987201">
        <ele>53.484473</ele>
        <time>2026-05-09T14:22:27.954Z</time>
      </trkpt>
      <trkpt lat="51.891012" lon="5.987021">
        <ele>53.498333</ele>
        <time>2026-05-09T14:22:29.961Z</time>
      </trkpt>
      <trkpt lat="51.891020" lon="5.986830">
        <ele>53.460650</ele>
        <time>2026-05-09T14:22:31.953Z</time>
      </trkpt>
      <trkpt lat="51.891027" lon="5.986642">
        <ele>53.399778</ele>
        <time>2026-05-09T14:22:33.961Z</time>
      </trkpt>
      <trkpt lat="51.891037" lon="5.986457">
        <ele>53.339757</ele>
        <time>2026-05-09T14:22:35.955Z</time>
      </trkpt>
      <trkpt lat="51.891039" lon="5.986279">
        <ele>53.282218</ele>
        <time>2026-05-09T14:22:37.962Z</time>
      </trkpt>
      <trkpt lat="51.891046" lon="5.986092">
        <ele>53.221669</ele>
        <time>2026-05-09T14:22:39.949Z</time>
      </trkpt>
      <trkpt lat="51.891056" lon="5.985904">
        <ele>53.160683</ele>
        <time>2026-05-09T14:22:41.955Z</time>
      </trkpt>
      <trkpt lat="51.891066" lon="5.985719">
        <ele>53.100662</ele>
        <time>2026-05-09T14:22:43.961Z</time>
      </trkpt>
      <trkpt lat="51.891090" lon="5.985538">
        <ele>53.040828</ele>
        <time>2026-05-09T14:22:45.953Z</time>
      </trkpt>
      <trkpt lat="51.891110" lon="5.985363">
        <ele>52.983307</ele>
        <time>2026-05-09T14:22:47.960Z</time>
      </trkpt>
      <trkpt lat="51.891137" lon="5.985181">
        <ele>52.922810</ele>
        <time>2026-05-09T14:22:49.954Z</time>
      </trkpt>
      <trkpt lat="51.891164" lon="5.985001">
        <ele>52.862940</ele>
        <time>2026-05-09T14:22:51.958Z</time>
      </trkpt>
      <trkpt lat="51.891193" lon="5.984817">
        <ele>52.801564</ele>
        <time>2026-05-09T14:22:53.955Z</time>
      </trkpt>
      <trkpt lat="51.891227" lon="5.984631">
        <ele>52.738868</ele>
        <time>2026-05-09T14:22:55.958Z</time>
      </trkpt>
      <trkpt lat="51.891263" lon="5.984446">
        <ele>52.676174</ele>
        <time>2026-05-09T14:22:57.952Z</time>
      </trkpt>
      <trkpt lat="51.891305" lon="5.984259">
        <ele>52.611859</ele>
        <time>2026-05-09T14:22:59.952Z</time>
      </trkpt>
      <trkpt lat="51.891344" lon="5.984084">
        <ele>52.562376</ele>
        <time>2026-05-09T14:23:01.953Z</time>
      </trkpt>
      <trkpt lat="51.891389" lon="5.983908">
        <ele>52.571122</ele>
        <time>2026-05-09T14:23:03.952Z</time>
      </trkpt>
      <trkpt lat="51.891430" lon="5.983726">
        <ele>52.580017</ele>
        <time>2026-05-09T14:23:05.957Z</time>
      </trkpt>
      <trkpt lat="51.891457" lon="5.983539">
        <ele>52.588834</ele>
        <time>2026-05-09T14:23:07.953Z</time>
      </trkpt>
      <trkpt lat="51.891487" lon="5.983350">
        <ele>52.597794</ele>
        <time>2026-05-09T14:23:09.957Z</time>
      </trkpt>
      <trkpt lat="51.891512" lon="5.983156">
        <ele>52.606892</ele>
        <time>2026-05-09T14:23:11.951Z</time>
      </trkpt>
      <trkpt lat="51.891535" lon="5.982975">
        <ele>52.615376</ele>
        <time>2026-05-09T14:23:13.952Z</time>
      </trkpt>
      <trkpt lat="51.891558" lon="5.982801">
        <ele>52.623546</ele>
        <time>2026-05-09T14:23:15.956Z</time>
      </trkpt>
      <trkpt lat="51.891580" lon="5.982631">
        <ele>52.631520</ele>
        <time>2026-05-09T14:23:17.957Z</time>
      </trkpt>
      <trkpt lat="51.891602" lon="5.982451">
        <ele>52.639945</ele>
        <time>2026-05-09T14:23:19.951Z</time>
      </trkpt>
      <trkpt lat="51.891626" lon="5.982274">
        <ele>52.648265</ele>
        <time>2026-05-09T14:23:21.955Z</time>
      </trkpt>
      <trkpt lat="51.891642" lon="5.982095">
        <ele>52.656568</ele>
        <time>2026-05-09T14:23:23.955Z</time>
      </trkpt>
      <trkpt lat="51.891663" lon="5.981919">
        <ele>52.664798</ele>
        <time>2026-05-09T14:23:25.954Z</time>
      </trkpt>
      <trkpt lat="51.891688" lon="5.981743">
        <ele>52.673089</ele>
        <time>2026-05-09T14:23:27.951Z</time>
      </trkpt>
      <trkpt lat="51.891714" lon="5.981567">
        <ele>52.681398</ele>
        <time>2026-05-09T14:23:29.956Z</time>
      </trkpt>
      <trkpt lat="51.891731" lon="5.981400">
        <ele>52.689168</ele>
        <time>2026-05-09T14:23:31.955Z</time>
      </trkpt>
      <trkpt lat="51.891748" lon="5.981238">
        <ele>52.694212</ele>
        <time>2026-05-09T14:23:33.950Z</time>
      </trkpt>
      <trkpt lat="51.891774" lon="5.981084">
        <ele>52.691685</ele>
        <time>2026-05-09T14:23:35.961Z</time>
      </trkpt>
      <trkpt lat="51.891798" lon="5.980920">
        <ele>52.689019</ele>
        <time>2026-05-09T14:23:37.954Z</time>
      </trkpt>
      <trkpt lat="51.891820" lon="5.980750">
        <ele>52.686270</ele>
        <time>2026-05-09T14:23:39.957Z</time>
      </trkpt>
      <trkpt lat="51.891836" lon="5.980580">
        <ele>52.683549</ele>
        <time>2026-05-09T14:23:41.960Z</time>
      </trkpt>
      <trkpt lat="51.891861" lon="5.980410">
        <ele>52.680784</ele>
        <time>2026-05-09T14:23:43.952Z</time>
      </trkpt>
      <trkpt lat="51.891882" lon="5.980243">
        <ele>52.678087</ele>
        <time>2026-05-09T14:23:45.955Z</time>
      </trkpt>
      <trkpt lat="51.891902" lon="5.980085">
        <ele>52.675535</ele>
        <time>2026-05-09T14:23:47.956Z</time>
      </trkpt>
      <trkpt lat="51.891919" lon="5.979933">
        <ele>52.673091</ele>
        <time>2026-05-09T14:23:49.960Z</time>
      </trkpt>
      <trkpt lat="51.891941" lon="5.979751">
        <ele>52.670156</ele>
        <time>2026-05-09T14:23:52.956Z</time>
      </trkpt>
      <trkpt lat="51.891951" lon="5.979580">
        <ele>52.667438</ele>
        <time>2026-05-09T14:23:57.958Z</time>
      </trkpt>
      <trkpt lat="51.891864" lon="5.979505">
        <ele>52.664911</ele>
        <time>2026-05-09T14:24:00.954Z</time>
      </trkpt>
      <trkpt lat="51.891736" lon="5.979478">
        <ele>52.661602</ele>
        <time>2026-05-09T14:24:03.954Z</time>
      </trkpt>
      <trkpt lat="51.891639" lon="5.979469">
        <ele>52.659111</ele>
        <time>2026-05-09T14:24:05.964Z</time>
      </trkpt>
      <trkpt lat="51.891538" lon="5.979439">
        <ele>52.656478</ele>
        <time>2026-05-09T14:24:07.953Z</time>
      </trkpt>
      <trkpt lat="51.891432" lon="5.979416">
        <ele>52.653736</ele>
        <time>2026-05-09T14:24:09.952Z</time>
      </trkpt>
      <trkpt lat="51.891322" lon="5.979397">
        <ele>52.650900</ele>
        <time>2026-05-09T14:24:11.958Z</time>
      </trkpt>
      <trkpt lat="51.891211" lon="5.979375">
        <ele>52.652170</ele>
        <time>2026-05-09T14:24:13.953Z</time>
      </trkpt>
      <trkpt lat="51.891102" lon="5.979353">
        <ele>52.665902</ele>
        <time>2026-05-09T14:24:15.955Z</time>
      </trkpt>
      <trkpt lat="51.890992" lon="5.979331">
        <ele>52.679758</ele>
        <time>2026-05-09T14:24:17.958Z</time>
      </trkpt>
      <trkpt lat="51.890883" lon="5.979306">
        <ele>52.693520</ele>
        <time>2026-05-09T14:24:19.947Z</time>
      </trkpt>
      <trkpt lat="51.890774" lon="5.979282">
        <ele>52.707271</ele>
        <time>2026-05-09T14:24:21.959Z</time>
      </trkpt>
      <trkpt lat="51.890672" lon="5.979258">
        <ele>52.720156</ele>
        <time>2026-05-09T14:24:23.961Z</time>
      </trkpt>
      <trkpt lat="51.890569" lon="5.979238">
        <ele>52.733124</ele>
        <time>2026-05-09T14:24:25.950Z</time>
      </trkpt>
      <trkpt lat="51.890469" lon="5.979213">
        <ele>52.745773</ele>
        <time>2026-05-09T14:24:27.955Z</time>
      </trkpt>
      <trkpt lat="51.890366" lon="5.979188">
        <ele>52.758793</ele>
        <time>2026-05-09T14:24:29.955Z</time>
      </trkpt>
      <trkpt lat="51.890259" lon="5.979160">
        <ele>52.772343</ele>
        <time>2026-05-09T14:24:31.956Z</time>
      </trkpt>
      <trkpt lat="51.890152" lon="5.979131">
        <ele>52.785905</ele>
        <time>2026-05-09T14:24:33.955Z</time>
      </trkpt>
      <trkpt lat="51.890040" lon="5.979101">
        <ele>52.800096</ele>
        <time>2026-05-09T14:24:35.951Z</time>
      </trkpt>
      <trkpt lat="51.889924" lon="5.979075">
        <ele>52.814736</ele>
        <time>2026-05-09T14:24:37.957Z</time>
      </trkpt>
      <trkpt lat="51.889814" lon="5.979043">
        <ele>52.828707</ele>
        <time>2026-05-09T14:24:39.955Z</time>
      </trkpt>
      <trkpt lat="51.889699" lon="5.979006">
        <ele>52.843364</ele>
        <time>2026-05-09T14:24:41.956Z</time>
      </trkpt>
      <trkpt lat="51.889589" lon="5.978970">
        <ele>52.857393</ele>
        <time>2026-05-09T14:24:43.956Z</time>
      </trkpt>
      <trkpt lat="51.889477" lon="5.978932">
        <ele>52.871698</ele>
        <time>2026-05-09T14:24:45.958Z</time>
      </trkpt>
      <trkpt lat="51.889364" lon="5.978889">
        <ele>52.883324</ele>
        <time>2026-05-09T14:24:47.954Z</time>
      </trkpt>
      <trkpt lat="51.889255" lon="5.978847">
        <ele>52.894129</ele>
        <time>2026-05-09T14:24:49.955Z</time>
      </trkpt>
      <trkpt lat="51.889150" lon="5.978812">
        <ele>52.904467</ele>
        <time>2026-05-09T14:24:51.956Z</time>
      </trkpt>
      <trkpt lat="51.889037" lon="5.978779">
        <ele>52.915540</ele>
        <time>2026-05-09T14:24:53.954Z</time>
      </trkpt>
      <trkpt lat="51.888919" lon="5.978753">
        <ele>52.927025</ele>
        <time>2026-05-09T14:24:55.952Z</time>
      </trkpt>
      <trkpt lat="51.888808" lon="5.978725">
        <ele>52.937858</ele>
        <time>2026-05-09T14:24:57.954Z</time>
      </trkpt>
      <trkpt lat="51.888693" lon="5.978710">
        <ele>52.948985</ele>
        <time>2026-05-09T14:24:59.959Z</time>
      </trkpt>
      <trkpt lat="51.888578" lon="5.978694">
        <ele>52.960116</ele>
        <time>2026-05-09T14:25:01.951Z</time>
      </trkpt>
      <trkpt lat="51.888467" lon="5.978675">
        <ele>52.970881</ele>
        <time>2026-05-09T14:25:03.951Z</time>
      </trkpt>
      <trkpt lat="51.888361" lon="5.978665">
        <ele>52.981120</ele>
        <time>2026-05-09T14:25:05.952Z</time>
      </trkpt>
      <trkpt lat="51.888250" lon="5.978662">
        <ele>52.991827</ele>
        <time>2026-05-09T14:25:07.950Z</time>
      </trkpt>
      <trkpt lat="51.888141" lon="5.978655">
        <ele>53.002347</ele>
        <time>2026-05-09T14:25:09.961Z</time>
      </trkpt>
      <trkpt lat="51.888031" lon="5.978659">
        <ele>53.012958</ele>
        <time>2026-05-09T14:25:11.956Z</time>
      </trkpt>
      <trkpt lat="51.887916" lon="5.978641">
        <ele>53.024100</ele>
        <time>2026-05-09T14:25:13.952Z</time>
      </trkpt>
      <trkpt lat="51.887800" lon="5.978609">
        <ele>53.035448</ele>
        <time>2026-05-09T14:25:15.960Z</time>
      </trkpt>
      <trkpt lat="51.887681" lon="5.978563">
        <ele>53.046562</ele>
        <time>2026-05-09T14:25:17.947Z</time>
      </trkpt>
      <trkpt lat="51.887567" lon="5.978523">
        <ele>53.019057</ele>
        <time>2026-05-09T14:25:19.948Z</time>
      </trkpt>
      <trkpt lat="51.887451" lon="5.978480">
        <ele>52.990996</ele>
        <time>2026-05-09T14:25:21.963Z</time>
      </trkpt>
      <trkpt lat="51.887337" lon="5.978423">
        <ele>52.962863</ele>
        <time>2026-05-09T14:25:23.964Z</time>
      </trkpt>
      <trkpt lat="51.887220" lon="5.978373">
        <ele>52.934331</ele>
        <time>2026-05-09T14:25:25.956Z</time>
      </trkpt>
      <trkpt lat="51.887110" lon="5.978326">
        <ele>52.907505</ele>
        <time>2026-05-09T14:25:27.962Z</time>
      </trkpt>
      <trkpt lat="51.886994" lon="5.978283">
        <ele>52.879445</ele>
        <time>2026-05-09T14:25:29.953Z</time>
      </trkpt>
      <trkpt lat="51.886877" lon="5.978239">
        <ele>52.851122</ele>
        <time>2026-05-09T14:25:31.954Z</time>
      </trkpt>
      <trkpt lat="51.886763" lon="5.978195">
        <ele>52.823488</ele>
        <time>2026-05-09T14:25:33.951Z</time>
      </trkpt>
      <trkpt lat="51.886649" lon="5.978150">
        <ele>52.795820</ele>
        <time>2026-05-09T14:25:35.956Z</time>
      </trkpt>
      <trkpt lat="51.886537" lon="5.978103">
        <ele>52.768538</ele>
        <time>2026-05-09T14:25:37.955Z</time>
      </trkpt>
      <trkpt lat="51.886426" lon="5.978052">
        <ele>52.741331</ele>
        <time>2026-05-09T14:25:39.964Z</time>
      </trkpt>
      <trkpt lat="51.886314" lon="5.977995">
        <ele>52.713649</ele>
        <time>2026-05-09T14:25:41.962Z</time>
      </trkpt>
      <trkpt lat="51.886201" lon="5.977948">
        <ele>52.686139</ele>
        <time>2026-05-09T14:25:43.954Z</time>
      </trkpt>
      <trkpt lat="51.886090" lon="5.977895">
        <ele>52.658851</ele>
        <time>2026-05-09T14:25:45.960Z</time>
      </trkpt>
      <trkpt lat="51.885981" lon="5.977843">
        <ele>52.632057</ele>
        <time>2026-05-09T14:25:47.964Z</time>
      </trkpt>
      <trkpt lat="51.885876" lon="5.977794">
        <ele>52.621439</ele>
        <time>2026-05-09T14:25:49.955Z</time>
      </trkpt>
      <trkpt lat="51.885778" lon="5.977738">
        <ele>52.619261</ele>
        <time>2026-05-09T14:25:51.962Z</time>
      </trkpt>
      <trkpt lat="51.885678" lon="5.977674">
        <ele>52.617007</ele>
        <time>2026-05-09T14:25:53.954Z</time>
      </trkpt>
      <trkpt lat="51.885580" lon="5.977605">
        <ele>52.614767</ele>
        <time>2026-05-09T14:25:55.958Z</time>
      </trkpt>
      <trkpt lat="51.885478" lon="5.977526">
        <ele>52.612398</ele>
        <time>2026-05-09T14:25:57.958Z</time>
      </trkpt>
      <trkpt lat="51.885377" lon="5.977433">
        <ele>52.609962</ele>
        <time>2026-05-09T14:25:59.949Z</time>
      </trkpt>
      <trkpt lat="51.885280" lon="5.977334">
        <ele>52.607559</ele>
        <time>2026-05-09T14:26:01.957Z</time>
      </trkpt>
      <trkpt lat="51.885185" lon="5.977243">
        <ele>52.605246</ele>
        <time>2026-05-09T14:26:03.959Z</time>
      </trkpt>
      <trkpt lat="51.885095" lon="5.977139">
        <ele>52.602929</ele>
        <time>2026-05-09T14:26:05.958Z</time>
      </trkpt>
      <trkpt lat="51.885002" lon="5.977036">
        <ele>52.600568</ele>
        <time>2026-05-09T14:26:07.957Z</time>
      </trkpt>
      <trkpt lat="51.884909" lon="5.976926">
        <ele>52.598154</ele>
        <time>2026-05-09T14:26:09.956Z</time>
      </trkpt>
      <trkpt lat="51.884816" lon="5.976814">
        <ele>52.595725</ele>
        <time>2026-05-09T14:26:11.956Z</time>
      </trkpt>
      <trkpt lat="51.884718" lon="5.976710">
        <ele>52.593270</ele>
        <time>2026-05-09T14:26:13.955Z</time>
      </trkpt>
      <trkpt lat="51.884624" lon="5.976603">
        <ele>52.590862</ele>
        <time>2026-05-09T14:26:15.956Z</time>
      </trkpt>
      <trkpt lat="51.884529" lon="5.976498">
        <ele>52.588451</ele>
        <time>2026-05-09T14:26:17.950Z</time>
      </trkpt>
      <trkpt lat="51.884431" lon="5.976393">
        <ele>52.585988</ele>
        <time>2026-05-09T14:26:19.952Z</time>
      </trkpt>
      <trkpt lat="51.884331" lon="5.976286">
        <ele>52.594424</ele>
        <time>2026-05-09T14:26:21.956Z</time>
      </trkpt>
      <trkpt lat="51.884238" lon="5.976178">
        <ele>52.607121</ele>
        <time>2026-05-09T14:26:23.957Z</time>
      </trkpt>
      <trkpt lat="51.884134" lon="5.976087">
        <ele>52.620236</ele>
        <time>2026-05-09T14:26:25.955Z</time>
      </trkpt>
      <trkpt lat="51.884025" lon="5.976018">
        <ele>52.633221</ele>
        <time>2026-05-09T14:26:27.956Z</time>
      </trkpt>
      <trkpt lat="51.883911" lon="5.975999">
        <ele>52.645938</ele>
        <time>2026-05-09T14:26:29.953Z</time>
      </trkpt>
      <trkpt lat="51.883796" lon="5.976024">
        <ele>52.658812</ele>
        <time>2026-05-09T14:26:31.957Z</time>
      </trkpt>
      <trkpt lat="51.883692" lon="5.976088">
        <ele>52.671157</ele>
        <time>2026-05-09T14:26:33.953Z</time>
      </trkpt>
      <trkpt lat="51.883594" lon="5.976171">
        <ele>52.683427</ele>
        <time>2026-05-09T14:26:35.954Z</time>
      </trkpt>
      <trkpt lat="51.883498" lon="5.976258">
        <ele>52.695633</ele>
        <time>2026-05-09T14:26:37.958Z</time>
      </trkpt>
      <trkpt lat="51.883399" lon="5.976339">
        <ele>52.707939</ele>
        <time>2026-05-09T14:26:39.954Z</time>
      </trkpt>
      <trkpt lat="51.883298" lon="5.976428">
        <ele>52.720697</ele>
        <time>2026-05-09T14:26:41.956Z</time>
      </trkpt>
      <trkpt lat="51.883196" lon="5.976504">
        <ele>52.733154</ele>
        <time>2026-05-09T14:26:43.959Z</time>
      </trkpt>
      <trkpt lat="51.883094" lon="5.976552">
        <ele>52.744940</ele>
        <time>2026-05-09T14:26:45.959Z</time>
      </trkpt>
      <trkpt lat="51.882982" lon="5.976541">
        <ele>52.757391</ele>
        <time>2026-05-09T14:26:47.954Z</time>
      </trkpt>
      <trkpt lat="51.882875" lon="5.976473">
        <ele>52.770144</ele>
        <time>2026-05-09T14:26:49.957Z</time>
      </trkpt>
      <trkpt lat="51.882770" lon="5.976388">
        <ele>52.783169</ele>
        <time>2026-05-09T14:26:51.956Z</time>
      </trkpt>
      <trkpt lat="51.882675" lon="5.976304">
        <ele>52.799650</ele>
        <time>2026-05-09T14:26:53.949Z</time>
      </trkpt>
      <trkpt lat="51.882582" lon="5.976205">
        <ele>52.817316</ele>
        <time>2026-05-09T14:26:55.953Z</time>
      </trkpt>
      <trkpt lat="51.882493" lon="5.976090">
        <ele>52.835389</ele>
        <time>2026-05-09T14:26:57.953Z</time>
      </trkpt>
      <trkpt lat="51.882412" lon="5.975955">
        <ele>52.853838</ele>
        <time>2026-05-09T14:26:59.959Z</time>
      </trkpt>
      <trkpt lat="51.882344" lon="5.975797">
        <ele>52.872712</ele>
        <time>2026-05-09T14:27:01.957Z</time>
      </trkpt>
      <trkpt lat="51.882296" lon="5.975627">
        <ele>52.891031</ele>
        <time>2026-05-09T14:27:03.958Z</time>
      </trkpt>
      <trkpt lat="51.882273" lon="5.975454">
        <ele>52.908373</ele>
        <time>2026-05-09T14:27:05.956Z</time>
      </trkpt>
      <trkpt lat="51.882273" lon="5.975278">
        <ele>52.925620</ele>
        <time>2026-05-09T14:27:07.956Z</time>
      </trkpt>
      <trkpt lat="51.882283" lon="5.975098">
        <ele>52.943330</ele>
        <time>2026-05-09T14:27:09.955Z</time>
      </trkpt>
      <trkpt lat="51.882296" lon="5.974918">
        <ele>52.961089</ele>
        <time>2026-05-09T14:27:11.956Z</time>
      </trkpt>
      <trkpt lat="51.882317" lon="5.974741">
        <ele>52.978751</ele>
        <time>2026-05-09T14:27:13.959Z</time>
      </trkpt>
      <trkpt lat="51.882331" lon="5.974556">
        <ele>52.997016</ele>
        <time>2026-05-09T14:27:15.955Z</time>
      </trkpt>
      <trkpt lat="51.882353" lon="5.974370">
        <ele>53.015574</ele>
        <time>2026-05-09T14:27:17.962Z</time>
      </trkpt>
      <trkpt lat="51.882372" lon="5.974192">
        <ele>53.033276</ele>
        <time>2026-05-09T14:27:19.954Z</time>
      </trkpt>
      <trkpt lat="51.882393" lon="5.974008">
        <ele>53.051612</ele>
        <time>2026-05-09T14:27:21.954Z</time>
      </trkpt>
      <trkpt lat="51.882415" lon="5.973825">
        <ele>53.069882</ele>
        <time>2026-05-09T14:27:23.956Z</time>
      </trkpt>
      <trkpt lat="51.882435" lon="5.973654">
        <ele>53.046600</ele>
        <time>2026-05-09T14:27:25.958Z</time>
      </trkpt>
      <trkpt lat="51.882454" lon="5.973478">
        <ele>53.021582</ele>
        <time>2026-05-09T14:27:27.960Z</time>
      </trkpt>
      <trkpt lat="51.882462" lon="5.973299">
        <ele>52.996453</ele>
        <time>2026-05-09T14:27:29.962Z</time>
      </trkpt>
      <trkpt lat="51.882463" lon="5.973128">
        <ele>52.972508</ele>
        <time>2026-05-09T14:27:31.957Z</time>
      </trkpt>
      <trkpt lat="51.882453" lon="5.972966">
        <ele>52.949712</ele>
        <time>2026-05-09T14:27:33.960Z</time>
      </trkpt>
      <trkpt lat="51.882423" lon="5.972814">
        <ele>52.927367</ele>
        <time>2026-05-09T14:27:35.956Z</time>
      </trkpt>
      <trkpt lat="51.882391" lon="5.972659">
        <ele>52.904482</ele>
        <time>2026-05-09T14:27:37.955Z</time>
      </trkpt>
      <trkpt lat="51.882358" lon="5.972499">
        <ele>52.880861</ele>
        <time>2026-05-09T14:27:39.960Z</time>
      </trkpt>
      <trkpt lat="51.882322" lon="5.972336">
        <ele>52.856621</ele>
        <time>2026-05-09T14:27:41.952Z</time>
      </trkpt>
      <trkpt lat="51.882284" lon="5.972169">
        <ele>52.831699</ele>
        <time>2026-05-09T14:27:43.955Z</time>
      </trkpt>
      <trkpt lat="51.882251" lon="5.972006">
        <ele>52.807680</ele>
        <time>2026-05-09T14:27:45.957Z</time>
      </trkpt>
      <trkpt lat="51.882198" lon="5.971867">
        <ele>52.784803</ele>
        <time>2026-05-09T14:27:47.954Z</time>
      </trkpt>
      <trkpt lat="51.882115" lon="5.971764">
        <ele>52.761086</ele>
        <time>2026-05-09T14:27:49.955Z</time>
      </trkpt>
      <trkpt lat="51.882006" lon="5.971706">
        <ele>52.735062</ele>
        <time>2026-05-09T14:27:51.956Z</time>
      </trkpt>
      <trkpt lat="51.881891" lon="5.971662">
        <ele>52.708258</ele>
        <time>2026-05-09T14:27:53.967Z</time>
      </trkpt>
      <trkpt lat="51.881776" lon="5.971613">
        <ele>52.681284</ele>
        <time>2026-05-09T14:27:55.948Z</time>
      </trkpt>
      <trkpt lat="51.881662" lon="5.971569">
        <ele>52.652745</ele>
        <time>2026-05-09T14:27:57.964Z</time>
      </trkpt>
      <trkpt lat="51.881548" lon="5.971525">
        <ele>52.619348</ele>
        <time>2026-05-09T14:27:59.964Z</time>
      </trkpt>
      <trkpt lat="51.881441" lon="5.971475">
        <ele>52.587612</ele>
        <time>2026-05-09T14:28:01.956Z</time>
      </trkpt>
      <trkpt lat="51.881342" lon="5.971439">
        <ele>52.558697</ele>
        <time>2026-05-09T14:28:03.957Z</time>
      </trkpt>
      <trkpt lat="51.881246" lon="5.971402">
        <ele>52.530576</ele>
        <time>2026-05-09T14:28:05.955Z</time>
      </trkpt>
      <trkpt lat="51.881146" lon="5.971367">
        <ele>52.501420</ele>
        <time>2026-05-09T14:28:07.958Z</time>
      </trkpt>
      <trkpt lat="51.881049" lon="5.971321">
        <ele>52.472617</ele>
        <time>2026-05-09T14:28:09.955Z</time>
      </trkpt>
      <trkpt lat="51.880950" lon="5.971279">
        <ele>52.443453</ele>
        <time>2026-05-09T14:28:11.951Z</time>
      </trkpt>
      <trkpt lat="51.880854" lon="5.971240">
        <ele>52.415248</ele>
        <time>2026-05-09T14:28:13.957Z</time>
      </trkpt>
      <trkpt lat="51.880763" lon="5.971207">
        <ele>52.388673</ele>
        <time>2026-05-09T14:28:15.956Z</time>
      </trkpt>
      <trkpt lat="51.880673" lon="5.971180">
        <ele>52.362589</ele>
        <time>2026-05-09T14:28:17.956Z</time>
      </trkpt>
      <trkpt lat="51.880546" lon="5.971126">
        <ele>52.325170</ele>
        <time>2026-05-09T14:28:20.954Z</time>
      </trkpt>
      <trkpt lat="51.880422" lon="5.971069">
        <ele>52.288438</ele>
        <time>2026-05-09T14:28:23.955Z</time>
      </trkpt>
      <trkpt lat="51.880298" lon="5.971038">
        <ele>52.252682</ele>
        <time>2026-05-09T14:28:26.954Z</time>
      </trkpt>
      <trkpt lat="51.880184" lon="5.970986">
        <ele>52.218931</ele>
        <time>2026-05-09T14:28:29.954Z</time>
      </trkpt>
      <trkpt lat="51.880128" lon="5.970821">
        <ele>52.185806</ele>
        <time>2026-05-09T14:28:32.969Z</time>
      </trkpt>
      <trkpt lat="51.880065" lon="5.970638">
        <ele>52.149772</ele>
        <time>2026-05-09T14:28:35.952Z</time>
      </trkpt>
      <trkpt lat="51.879974" lon="5.970630">
        <ele>52.150273</ele>
        <time>2026-05-09T14:28:37.960Z</time>
      </trkpt>
      <trkpt lat="51.879898" lon="5.970728">
        <ele>52.150807</ele>
        <time>2026-05-09T14:28:39.953Z</time>
      </trkpt>
      <trkpt lat="51.879819" lon="5.970842">
        <ele>52.151389</ele>
        <time>2026-05-09T14:28:41.954Z</time>
      </trkpt>
      <trkpt lat="51.879723" lon="5.970855">
        <ele>52.151919</ele>
        <time>2026-05-09T14:28:43.954Z</time>
      </trkpt>
      <trkpt lat="51.879632" lon="5.970830">
        <ele>52.152426</ele>
        <time>2026-05-09T14:28:45.952Z</time>
      </trkpt>
      <trkpt lat="51.879538" lon="5.970811">
        <ele>52.152947</ele>
        <time>2026-05-09T14:28:47.951Z</time>
      </trkpt>
      <trkpt lat="51.879443" lon="5.970800">
        <ele>52.153471</ele>
        <time>2026-05-09T14:28:49.953Z</time>
      </trkpt>
      <trkpt lat="51.879351" lon="5.970789">
        <ele>52.153978</ele>
        <time>2026-05-09T14:28:51.965Z</time>
      </trkpt>
      <trkpt lat="51.879222" lon="5.970760">
        <ele>52.154694</ele>
        <time>2026-05-09T14:28:54.955Z</time>
      </trkpt>
      <trkpt lat="51.879131" lon="5.970748">
        <ele>52.155197</ele>
        <time>2026-05-09T14:28:56.950Z</time>
      </trkpt>
      <trkpt lat="51.879001" lon="5.970740">
        <ele>52.155912</ele>
        <time>2026-05-09T14:28:59.958Z</time>
      </trkpt>
      <trkpt lat="51.878878" lon="5.970734">
        <ele>52.156589</ele>
        <time>2026-05-09T14:29:02.958Z</time>
      </trkpt>
      <trkpt lat="51.878764" lon="5.970729">
        <ele>52.157216</ele>
        <time>2026-05-09T14:29:05.957Z</time>
      </trkpt>
      <trkpt lat="51.878656" lon="5.970743">
        <ele>52.157811</ele>
        <time>2026-05-09T14:29:08.954Z</time>
      </trkpt>
      <trkpt lat="51.878558" lon="5.970765">
        <ele>52.158355</ele>
        <time>2026-05-09T14:29:11.955Z</time>
      </trkpt>
      <trkpt lat="51.878458" lon="5.970784">
        <ele>52.158909</ele>
        <time>2026-05-09T14:29:17.956Z</time>
      </trkpt>
      <trkpt lat="51.878359" lon="5.970811">
        <ele>52.159461</ele>
        <time>2026-05-09T14:29:22.959Z</time>
      </trkpt>
      <trkpt lat="51.878250" lon="5.970847">
        <ele>52.306966</ele>
        <time>2026-05-09T14:29:26.949Z</time>
      </trkpt>
      <trkpt lat="51.878153" lon="5.970865">
        <ele>52.492648</ele>
        <time>2026-05-09T14:29:29.957Z</time>
      </trkpt>
      <trkpt lat="51.878063" lon="5.970895">
        <ele>52.667398</ele>
        <time>2026-05-09T14:29:32.953Z</time>
      </trkpt>
      <trkpt lat="51.877959" lon="5.970940">
        <ele>52.872122</ele>
        <time>2026-05-09T14:29:36.961Z</time>
      </trkpt>
      <trkpt lat="51.877865" lon="5.970970">
        <ele>53.054329</ele>
        <time>2026-05-09T14:29:40.956Z</time>
      </trkpt>
      <trkpt lat="51.877767" lon="5.970988">
        <ele>53.241901</ele>
        <time>2026-05-09T14:29:44.953Z</time>
      </trkpt>
      <trkpt lat="51.877678" lon="5.971005">
        <ele>53.412336</ele>
        <time>2026-05-09T14:29:48.952Z</time>
      </trkpt>
      <trkpt lat="51.877615" lon="5.971114">
        <ele>53.587643</ele>
        <time>2026-05-09T14:29:52.953Z</time>
      </trkpt>
      <trkpt lat="51.877565" lon="5.971255">
        <ele>53.778555</ele>
        <time>2026-05-09T14:29:57.950Z</time>
      </trkpt>
      <trkpt lat="51.877472" lon="5.971108">
        <ele>54.025677</ele>
        <time>2026-05-09T14:55:45.954Z</time>
      </trkpt>
      <trkpt lat="51.877480" lon="5.970857">
        <ele>54.320763</ele>
        <time>2026-05-09T14:56:28.956Z</time>
      </trkpt>
      <trkpt lat="51.877505" lon="5.970716">
        <ele>54.493000</ele>
        <time>2026-05-09T14:56:33.948Z</time>
      </trkpt>
      <trkpt lat="51.877509" lon="5.970553">
        <ele>54.684526</ele>
        <time>2026-05-09T14:56:39.951Z</time>
      </trkpt>
      <trkpt lat="51.877512" lon="5.970397">
        <ele>54.867770</ele>
        <time>2026-05-09T14:56:43.963Z</time>
      </trkpt>
      <trkpt lat="51.877530" lon="5.970227">
        <ele>55.070278</ele>
        <time>2026-05-09T14:56:47.957Z</time>
      </trkpt>
      <trkpt lat="51.877573" lon="5.970076">
        <ele>55.265515</ele>
        <time>2026-05-09T14:56:52.952Z</time>
      </trkpt>
      <trkpt lat="51.877669" lon="5.970086">
        <ele>55.448467</ele>
        <time>2026-05-09T14:56:58.956Z</time>
      </trkpt>
      <trkpt lat="51.877777" lon="5.970111">
        <ele>55.545290</ele>
        <time>2026-05-09T14:57:03.955Z</time>
      </trkpt>
      <trkpt lat="51.877874" lon="5.970140">
        <ele>55.458350</ele>
        <time>2026-05-09T14:57:07.956Z</time>
      </trkpt>
      <trkpt lat="51.877965" lon="5.970123">
        <ele>55.377611</ele>
        <time>2026-05-09T14:57:15.955Z</time>
      </trkpt>
      <trkpt lat="51.878019" lon="5.969993">
        <ele>55.292353</ele>
        <time>2026-05-09T14:57:24.952Z</time>
      </trkpt>
      <trkpt lat="51.877970" lon="5.970123">
        <ele>55.209474</ele>
        <time>2026-05-09T14:57:41.959Z</time>
      </trkpt>
      <trkpt lat="51.877824" lon="5.970132">
        <ele>55.080696</ele>
        <time>2026-05-09T14:58:00.951Z</time>
      </trkpt>
      <trkpt lat="51.877711" lon="5.970097">
        <ele>54.979293</ele>
        <time>2026-05-09T14:58:04.954Z</time>
      </trkpt>
      <trkpt lat="51.877608" lon="5.970063">
        <ele>54.886642</ele>
        <time>2026-05-09T14:58:08.962Z</time>
      </trkpt>
      <trkpt lat="51.877550" lon="5.969930">
        <ele>54.798038</ele>
        <time>2026-05-09T14:58:12.953Z</time>
      </trkpt>
      <trkpt lat="51.877560" lon="5.969774">
        <ele>54.712698</ele>
        <time>2026-05-09T14:58:15.950Z</time>
      </trkpt>
      <trkpt lat="51.877581" lon="5.969630">
        <ele>54.632186</ele>
        <time>2026-05-09T14:58:18.952Z</time>
      </trkpt>
      <trkpt lat="51.877590" lon="5.969481">
        <ele>54.550724</ele>
        <time>2026-05-09T14:58:21.964Z</time>
      </trkpt>
      <trkpt lat="51.877600" lon="5.969300">
        <ele>54.451843</ele>
        <time>2026-05-09T14:58:25.953Z</time>
      </trkpt>
      <trkpt lat="51.877630" lon="5.969118">
        <ele>54.349342</ele>
        <time>2026-05-09T14:58:29.961Z</time>
      </trkpt>
      <trkpt lat="51.877680" lon="5.968950">
        <ele>54.247860</ele>
        <time>2026-05-09T14:58:33.954Z</time>
      </trkpt>
      <trkpt lat="51.877783" lon="5.968957">
        <ele>54.156996</ele>
        <time>2026-05-09T14:58:36.959Z</time>
      </trkpt>
      <trkpt lat="51.877874" lon="5.969011">
        <ele>54.071575</ele>
        <time>2026-05-09T14:58:39.958Z</time>
      </trkpt>
      <trkpt lat="51.877960" lon="5.969069">
        <ele>53.995233</ele>
        <time>2026-05-09T14:58:42.955Z</time>
      </trkpt>
      <trkpt lat="51.878066" lon="5.969111">
        <ele>53.999219</ele>
        <time>2026-05-09T14:58:45.958Z</time>
      </trkpt>
      <trkpt lat="51.878168" lon="5.969158">
        <ele>54.003092</ele>
        <time>2026-05-09T14:58:48.955Z</time>
      </trkpt>
      <trkpt lat="51.878270" lon="5.969192">
        <ele>54.006896</ele>
        <time>2026-05-09T14:58:51.952Z</time>
      </trkpt>
      <trkpt lat="51.878368" lon="5.969199">
        <ele>54.010479</ele>
        <time>2026-05-09T14:58:54.958Z</time>
      </trkpt>
      <trkpt lat="51.878474" lon="5.969214">
        <ele>54.014366</ele>
        <time>2026-05-09T14:58:57.950Z</time>
      </trkpt>
      <trkpt lat="51.878581" lon="5.969219">
        <ele>54.018276</ele>
        <time>2026-05-09T14:59:00.958Z</time>
      </trkpt>
      <trkpt lat="51.878688" lon="5.969230">
        <ele>54.022193</ele>
        <time>2026-05-09T14:59:03.952Z</time>
      </trkpt>
      <trkpt lat="51.878789" lon="5.969240">
        <ele>54.025889</ele>
        <time>2026-05-09T14:59:06.950Z</time>
      </trkpt>
      <trkpt lat="51.878879" lon="5.969185">
        <ele>54.029402</ele>
        <time>2026-05-09T14:59:10.949Z</time>
      </trkpt>
      <trkpt lat="51.878913" lon="5.969041">
        <ele>54.032879</ele>
        <time>2026-05-09T14:59:14.966Z</time>
      </trkpt>
      <trkpt lat="51.878894" lon="5.968886">
        <ele>54.036442</ele>
        <time>2026-05-09T14:59:21.951Z</time>
      </trkpt>
      <trkpt lat="51.879035" lon="5.968880">
        <ele>54.041594</ele>
        <time>2026-05-09T15:00:07.948Z</time>
      </trkpt>
      <trkpt lat="51.879152" lon="5.968841">
        <ele>54.045958</ele>
        <time>2026-05-09T15:00:11.954Z</time>
      </trkpt>
      <trkpt lat="51.879244" lon="5.968802">
        <ele>54.049431</ele>
        <time>2026-05-09T15:00:14.951Z</time>
      </trkpt>
      <trkpt lat="51.879356" lon="5.968764">
        <ele>54.053611</ele>
        <time>2026-05-09T15:00:18.954Z</time>
      </trkpt>
      <trkpt lat="51.879456" lon="5.968738">
        <ele>54.057311</ele>
        <time>2026-05-09T15:00:22.956Z</time>
      </trkpt>
      <trkpt lat="51.879546" lon="5.968737">
        <ele>54.060598</ele>
        <time>2026-05-09T15:00:26.954Z</time>
      </trkpt>
      <trkpt lat="51.879624" lon="5.968648">
        <ele>54.050208</ele>
        <time>2026-05-09T15:00:37.951Z</time>
      </trkpt>
      <trkpt lat="51.879697" lon="5.968561">
        <ele>54.039928</ele>
        <time>2026-05-09T15:00:42.956Z</time>
      </trkpt>
      <trkpt lat="51.879633" lon="5.968433">
        <ele>54.028394</ele>
        <time>2026-05-09T15:00:45.956Z</time>
      </trkpt>
      <trkpt lat="51.879594" lon="5.968261">
        <ele>54.015564</ele>
        <time>2026-05-09T15:00:48.956Z</time>
      </trkpt>
      <trkpt lat="51.879557" lon="5.968074">
        <ele>54.001813</ele>
        <time>2026-05-09T15:00:51.961Z</time>
      </trkpt>
      <trkpt lat="51.879523" lon="5.967877">
        <ele>53.987490</ele>
        <time>2026-05-09T15:00:54.948Z</time>
      </trkpt>
      <trkpt lat="51.879487" lon="5.967686">
        <ele>53.973507</ele>
        <time>2026-05-09T15:00:57.953Z</time>
      </trkpt>
      <trkpt lat="51.879446" lon="5.967484">
        <ele>53.958617</ele>
        <time>2026-05-09T15:01:00.961Z</time>
      </trkpt>
      <trkpt lat="51.879443" lon="5.967337">
        <ele>53.948318</ele>
        <time>2026-05-09T15:01:02.953Z</time>
      </trkpt>
      <trkpt lat="51.879419" lon="5.967132">
        <ele>53.933708</ele>
        <time>2026-05-09T15:01:05.952Z</time>
      </trkpt>
      <trkpt lat="51.879352" lon="5.966955">
        <ele>53.919170</ele>
        <time>2026-05-09T15:01:08.951Z</time>
      </trkpt>
      <trkpt lat="51.879316" lon="5.966812">
        <ele>53.908356</ele>
        <time>2026-05-09T15:01:10.958Z</time>
      </trkpt>
      <trkpt lat="51.879290" lon="5.966670">
        <ele>53.897985</ele>
        <time>2026-05-09T15:01:12.951Z</time>
      </trkpt>
      <trkpt lat="51.879261" lon="5.966522">
        <ele>53.887112</ele>
        <time>2026-05-09T15:01:14.952Z</time>
      </trkpt>
      <trkpt lat="51.879229" lon="5.966371">
        <ele>53.875933</ele>
        <time>2026-05-09T15:01:16.951Z</time>
      </trkpt>
      <trkpt lat="51.879196" lon="5.966226">
        <ele>53.865112</ele>
        <time>2026-05-09T15:01:18.946Z</time>
      </trkpt>
      <trkpt lat="51.879170" lon="5.966069">
        <ele>53.845203</ele>
        <time>2026-05-09T15:01:20.949Z</time>
      </trkpt>
      <trkpt lat="51.879138" lon="5.965911">
        <ele>53.799968</ele>
        <time>2026-05-09T15:01:22.951Z</time>
      </trkpt>
      <trkpt lat="51.879103" lon="5.965760">
        <ele>53.756091</ele>
        <time>2026-05-09T15:01:24.951Z</time>
      </trkpt>
      <trkpt lat="51.879070" lon="5.965602">
        <ele>53.710716</ele>
        <time>2026-05-09T15:01:26.950Z</time>
      </trkpt>
      <trkpt lat="51.879039" lon="5.965449">
        <ele>53.666911</ele>
        <time>2026-05-09T15:01:28.951Z</time>
      </trkpt>
      <trkpt lat="51.879010" lon="5.965291">
        <ele>53.622070</ele>
        <time>2026-05-09T15:01:30.952Z</time>
      </trkpt>
      <trkpt lat="51.878977" lon="5.965142">
        <ele>53.579008</ele>
        <time>2026-05-09T15:01:32.950Z</time>
      </trkpt>
      <trkpt lat="51.878947" lon="5.964992">
        <ele>53.536115</ele>
        <time>2026-05-09T15:01:34.956Z</time>
      </trkpt>
      <trkpt lat="51.878919" lon="5.964848">
        <ele>53.495045</ele>
        <time>2026-05-09T15:01:36.956Z</time>
      </trkpt>
      <trkpt lat="51.878905" lon="5.964701">
        <ele>53.454583</ele>
        <time>2026-05-09T15:01:38.955Z</time>
      </trkpt>
      <trkpt lat="51.878890" lon="5.964491">
        <ele>53.397075</ele>
        <time>2026-05-09T15:01:41.953Z</time>
      </trkpt>
      <trkpt lat="51.878933" lon="5.964312">
        <ele>53.344825</ele>
        <time>2026-05-09T15:01:44.955Z</time>
      </trkpt>
      <trkpt lat="51.878879" lon="5.964158">
        <ele>53.296645</ele>
        <time>2026-05-09T15:01:47.947Z</time>
      </trkpt>
      <trkpt lat="51.878793" lon="5.964056">
        <ele>53.249676</ele>
        <time>2026-05-09T15:01:50.949Z</time>
      </trkpt>
      <trkpt lat="51.878738" lon="5.963881">
        <ele>53.196256</ele>
        <time>2026-05-09T15:01:53.960Z</time>
      </trkpt>
      <trkpt lat="51.878687" lon="5.963703">
        <ele>53.142872</ele>
        <time>2026-05-09T15:01:56.952Z</time>
      </trkpt>
      <trkpt lat="51.878661" lon="5.963510">
        <ele>53.089134</ele>
        <time>2026-05-09T15:01:59.953Z</time>
      </trkpt>
      <trkpt lat="51.878642" lon="5.963359">
        <ele>53.050309</ele>
        <time>2026-05-09T15:02:01.953Z</time>
      </trkpt>
      <trkpt lat="51.878621" lon="5.963199">
        <ele>53.013975</ele>
        <time>2026-05-09T15:02:03.959Z</time>
      </trkpt>
      <trkpt lat="51.878599" lon="5.963028">
        <ele>52.975176</ele>
        <time>2026-05-09T15:02:05.959Z</time>
      </trkpt>
      <trkpt lat="51.878580" lon="5.962853">
        <ele>52.935707</ele>
        <time>2026-05-09T15:02:07.951Z</time>
      </trkpt>
      <trkpt lat="51.878564" lon="5.962684">
        <ele>52.897729</ele>
        <time>2026-05-09T15:02:09.951Z</time>
      </trkpt>
      <trkpt lat="51.878550" lon="5.962516">
        <ele>52.860074</ele>
        <time>2026-05-09T15:02:11.958Z</time>
      </trkpt>
      <trkpt lat="51.878537" lon="5.962347">
        <ele>52.822245</ele>
        <time>2026-05-09T15:02:13.952Z</time>
      </trkpt>
      <trkpt lat="51.878527" lon="5.962176">
        <ele>52.784092</ele>
        <time>2026-05-09T15:02:15.952Z</time>
      </trkpt>
      <trkpt lat="51.878518" lon="5.962016">
        <ele>52.748405</ele>
        <time>2026-05-09T15:02:17.949Z</time>
      </trkpt>
      <trkpt lat="51.878515" lon="5.961838">
        <ele>52.708852</ele>
        <time>2026-05-09T15:02:19.953Z</time>
      </trkpt>
      <trkpt lat="51.878514" lon="5.961657">
        <ele>52.668646</ele>
        <time>2026-05-09T15:02:21.956Z</time>
      </trkpt>
      <trkpt lat="51.878513" lon="5.961475">
        <ele>52.628217</ele>
        <time>2026-05-09T15:02:23.952Z</time>
      </trkpt>
      <trkpt lat="51.878512" lon="5.961293">
        <ele>52.587789</ele>
        <time>2026-05-09T15:02:25.957Z</time>
      </trkpt>
      <trkpt lat="51.878508" lon="5.961111">
        <ele>52.547337</ele>
        <time>2026-05-09T15:02:27.949Z</time>
      </trkpt>
      <trkpt lat="51.878519" lon="5.960923">
        <ele>52.505391</ele>
        <time>2026-05-09T15:02:29.948Z</time>
      </trkpt>
      <trkpt lat="51.878523" lon="5.960733">
        <ele>52.463162</ele>
        <time>2026-05-09T15:02:31.964Z</time>
      </trkpt>
      <trkpt lat="51.878526" lon="5.960547">
        <ele>52.421833</ele>
        <time>2026-05-09T15:02:33.956Z</time>
      </trkpt>
      <trkpt lat="51.878535" lon="5.960362">
        <ele>52.456207</ele>
        <time>2026-05-09T15:02:35.949Z</time>
      </trkpt>
      <trkpt lat="51.878546" lon="5.960178">
        <ele>52.500656</ele>
        <time>2026-05-09T15:02:37.951Z</time>
      </trkpt>
      <trkpt lat="51.878548" lon="5.959992">
        <ele>52.545385</ele>
        <time>2026-05-09T15:02:39.957Z</time>
      </trkpt>
      <trkpt lat="51.878551" lon="5.959807">
        <ele>52.589883</ele>
        <time>2026-05-09T15:02:41.954Z</time>
      </trkpt>
      <trkpt lat="51.878552" lon="5.959619">
        <ele>52.635089</ele>
        <time>2026-05-09T15:02:43.955Z</time>
      </trkpt>
      <trkpt lat="51.878561" lon="5.959433">
        <ele>52.679949</ele>
        <time>2026-05-09T15:02:45.951Z</time>
      </trkpt>
      <trkpt lat="51.878563" lon="5.959250">
        <ele>52.723957</ele>
        <time>2026-05-09T15:02:47.950Z</time>
      </trkpt>
      <trkpt lat="51.878567" lon="5.959067">
        <ele>52.767986</ele>
        <time>2026-05-09T15:02:49.950Z</time>
      </trkpt>
      <trkpt lat="51.878573" lon="5.958884">
        <ele>52.812050</ele>
        <time>2026-05-09T15:02:51.945Z</time>
      </trkpt>
      <trkpt lat="51.878580" lon="5.958698">
        <ele>52.856856</ele>
        <time>2026-05-09T15:02:53.953Z</time>
      </trkpt>
      <trkpt lat="51.878587" lon="5.958512">
        <ele>52.901662</ele>
        <time>2026-05-09T15:02:55.953Z</time>
      </trkpt>
      <trkpt lat="51.878600" lon="5.958335">
        <ele>52.944521</ele>
        <time>2026-05-09T15:02:57.964Z</time>
      </trkpt>
      <trkpt lat="51.878614" lon="5.958165">
        <ele>52.985759</ele>
        <time>2026-05-09T15:02:59.955Z</time>
      </trkpt>
      <trkpt lat="51.878620" lon="5.958004">
        <ele>53.024541</ele>
        <time>2026-05-09T15:03:01.952Z</time>
      </trkpt>
      <trkpt lat="51.878650" lon="5.957855">
        <ele>53.062224</ele>
        <time>2026-05-09T15:03:03.960Z</time>
      </trkpt>
      <trkpt lat="51.878698" lon="5.957719">
        <ele>53.099892</ele>
        <time>2026-05-09T15:03:05.952Z</time>
      </trkpt>
      <trkpt lat="51.878700" lon="5.957565">
        <ele>53.130903</ele>
        <time>2026-05-09T15:03:07.955Z</time>
      </trkpt>
      <trkpt lat="51.878670" lon="5.957402">
        <ele>53.159136</ele>
        <time>2026-05-09T15:03:09.953Z</time>
      </trkpt>
      <trkpt lat="51.878666" lon="5.957230">
        <ele>53.187705</ele>
        <time>2026-05-09T15:03:11.952Z</time>
      </trkpt>
      <trkpt lat="51.878686" lon="5.957056">
        <ele>53.217083</ele>
        <time>2026-05-09T15:03:13.958Z</time>
      </trkpt>
      <trkpt lat="51.878712" lon="5.956887">
        <ele>53.245992</ele>
        <time>2026-05-09T15:03:15.950Z</time>
      </trkpt>
      <trkpt lat="51.878724" lon="5.956718">
        <ele>53.274229</ele>
        <time>2026-05-09T15:03:17.945Z</time>
      </trkpt>
      <trkpt lat="51.878721" lon="5.956547">
        <ele>53.302624</ele>
        <time>2026-05-09T15:03:19.957Z</time>
      </trkpt>
      <trkpt lat="51.878711" lon="5.956367">
        <ele>53.332622</ele>
        <time>2026-05-09T15:03:21.950Z</time>
      </trkpt>
      <trkpt lat="51.878703" lon="5.956179">
        <ele>53.363901</ele>
        <time>2026-05-09T15:03:23.945Z</time>
      </trkpt>
      <trkpt lat="51.878707" lon="5.955988">
        <ele>53.395622</ele>
        <time>2026-05-09T15:03:25.951Z</time>
      </trkpt>
      <trkpt lat="51.878719" lon="5.955800">
        <ele>53.426994</ele>
        <time>2026-05-09T15:03:27.947Z</time>
      </trkpt>
      <trkpt lat="51.878725" lon="5.955612">
        <ele>53.458240</ele>
        <time>2026-05-09T15:03:29.947Z</time>
      </trkpt>
      <trkpt lat="51.878732" lon="5.955431">
        <ele>53.488343</ele>
        <time>2026-05-09T15:03:31.947Z</time>
      </trkpt>
      <trkpt lat="51.878740" lon="5.955250">
        <ele>53.518463</ele>
        <time>2026-05-09T15:03:33.947Z</time>
      </trkpt>
      <trkpt lat="51.878750" lon="5.955069">
        <ele>53.548626</ele>
        <time>2026-05-09T15:03:35.955Z</time>
      </trkpt>
      <trkpt lat="51.878760" lon="5.954900">
        <ele>53.576806</ele>
        <time>2026-05-09T15:03:37.946Z</time>
      </trkpt>
      <trkpt lat="51.878767" lon="5.954722">
        <ele>53.601518</ele>
        <time>2026-05-09T15:03:39.949Z</time>
      </trkpt>
      <trkpt lat="51.878772" lon="5.954541">
        <ele>53.603969</ele>
        <time>2026-05-09T15:03:41.962Z</time>
      </trkpt>
      <trkpt lat="51.878782" lon="5.954349">
        <ele>53.606575</ele>
        <time>2026-05-09T15:03:43.948Z</time>
      </trkpt>
      <trkpt lat="51.878792" lon="5.954163">
        <ele>53.609101</ele>
        <time>2026-05-09T15:03:45.950Z</time>
      </trkpt>
      <trkpt lat="51.878799" lon="5.953971">
        <ele>53.611703</ele>
        <time>2026-05-09T15:03:47.954Z</time>
      </trkpt>
      <trkpt lat="51.878808" lon="5.953782">
        <ele>53.614268</ele>
        <time>2026-05-09T15:03:49.951Z</time>
      </trkpt>
      <trkpt lat="51.878819" lon="5.953600">
        <ele>53.616742</ele>
        <time>2026-05-09T15:03:51.952Z</time>
      </trkpt>
      <trkpt lat="51.878826" lon="5.953417">
        <ele>53.619222</ele>
        <time>2026-05-09T15:03:53.953Z</time>
      </trkpt>
      <trkpt lat="51.878834" lon="5.953230">
        <ele>53.621758</ele>
        <time>2026-05-09T15:03:55.945Z</time>
      </trkpt>
      <trkpt lat="51.878844" lon="5.953049">
        <ele>53.624216</ele>
        <time>2026-05-09T15:03:57.947Z</time>
      </trkpt>
      <trkpt lat="51.878852" lon="5.952868">
        <ele>53.626671</ele>
        <time>2026-05-09T15:03:59.947Z</time>
      </trkpt>
      <trkpt lat="51.878858" lon="5.952680">
        <ele>53.629218</ele>
        <time>2026-05-09T15:04:01.951Z</time>
      </trkpt>
      <trkpt lat="51.878868" lon="5.952487">
        <ele>53.631838</ele>
        <time>2026-05-09T15:04:03.952Z</time>
      </trkpt>
      <trkpt lat="51.878877" lon="5.952291">
        <ele>53.634497</ele>
        <time>2026-05-09T15:04:05.950Z</time>
      </trkpt>
      <trkpt lat="51.878884" lon="5.952103">
        <ele>53.637045</ele>
        <time>2026-05-09T15:04:07.951Z</time>
      </trkpt>
      <trkpt lat="51.878898" lon="5.951918">
        <ele>53.639566</ele>
        <time>2026-05-09T15:04:09.946Z</time>
      </trkpt>
      <trkpt lat="51.878901" lon="5.951725">
        <ele>53.642177</ele>
        <time>2026-05-09T15:04:11.958Z</time>
      </trkpt>
      <trkpt lat="51.878908" lon="5.951528">
        <ele>53.644843</ele>
        <time>2026-05-09T15:04:13.950Z</time>
      </trkpt>
      <trkpt lat="51.878914" lon="5.951339">
        <ele>53.647401</ele>
        <time>2026-05-09T15:04:15.948Z</time>
      </trkpt>
      <trkpt lat="51.878925" lon="5.951147">
        <ele>53.650007</ele>
        <time>2026-05-09T15:04:17.949Z</time>
      </trkpt>
      <trkpt lat="51.878931" lon="5.950956">
        <ele>53.652592</ele>
        <time>2026-05-09T15:04:19.952Z</time>
      </trkpt>
      <trkpt lat="51.878940" lon="5.950765">
        <ele>53.655181</ele>
        <time>2026-05-09T15:04:21.950Z</time>
      </trkpt>
      <trkpt lat="51.878949" lon="5.950571">
        <ele>53.657810</ele>
        <time>2026-05-09T15:04:23.949Z</time>
      </trkpt>
      <trkpt lat="51.878960" lon="5.950387">
        <ele>53.660308</ele>
        <time>2026-05-09T15:04:25.950Z</time>
      </trkpt>
      <trkpt lat="51.878964" lon="5.950209">
        <ele>53.662715</ele>
        <time>2026-05-09T15:04:27.947Z</time>
      </trkpt>
      <trkpt lat="51.878972" lon="5.950025">
        <ele>53.665208</ele>
        <time>2026-05-09T15:04:29.948Z</time>
      </trkpt>
      <trkpt lat="51.878981" lon="5.949841">
        <ele>53.667703</ele>
        <time>2026-05-09T15:04:31.949Z</time>
      </trkpt>
      <trkpt lat="51.878987" lon="5.949661">
        <ele>53.670139</ele>
        <time>2026-05-09T15:04:33.949Z</time>
      </trkpt>
      <trkpt lat="51.878997" lon="5.949481">
        <ele>53.672581</ele>
        <time>2026-05-09T15:04:35.956Z</time>
      </trkpt>
      <trkpt lat="51.879003" lon="5.949305">
        <ele>53.674964</ele>
        <time>2026-05-09T15:04:37.948Z</time>
      </trkpt>
      <trkpt lat="51.879013" lon="5.949127">
        <ele>53.677379</ele>
        <time>2026-05-09T15:04:39.948Z</time>
      </trkpt>
      <trkpt lat="51.879019" lon="5.948945">
        <ele>53.679842</ele>
        <time>2026-05-09T15:04:41.954Z</time>
      </trkpt>
      <trkpt lat="51.879026" lon="5.948759">
        <ele>53.671031</ele>
        <time>2026-05-09T15:04:43.954Z</time>
      </trkpt>
      <trkpt lat="51.879028" lon="5.948565">
        <ele>53.661695</ele>
        <time>2026-05-09T15:04:45.954Z</time>
      </trkpt>
      <trkpt lat="51.879036" lon="5.948382">
        <ele>53.652868</ele>
        <time>2026-05-09T15:04:47.945Z</time>
      </trkpt>
      <trkpt lat="51.879038" lon="5.948198">
        <ele>53.644013</ele>
        <time>2026-05-09T15:04:49.951Z</time>
      </trkpt>
      <trkpt lat="51.879048" lon="5.948016">
        <ele>53.635221</ele>
        <time>2026-05-09T15:04:51.952Z</time>
      </trkpt>
      <trkpt lat="51.879049" lon="5.947833">
        <ele>53.626415</ele>
        <time>2026-05-09T15:04:53.951Z</time>
      </trkpt>
      <trkpt lat="51.879053" lon="5.947643">
        <ele>53.617268</ele>
        <time>2026-05-09T15:04:55.947Z</time>
      </trkpt>
      <trkpt lat="51.879057" lon="5.947452">
        <ele>53.608072</ele>
        <time>2026-05-09T15:04:57.951Z</time>
      </trkpt>
      <trkpt lat="51.879071" lon="5.947265">
        <ele>53.599008</ele>
        <time>2026-05-09T15:04:59.958Z</time>
      </trkpt>
      <trkpt lat="51.879087" lon="5.947081">
        <ele>53.590068</ele>
        <time>2026-05-09T15:05:01.951Z</time>
      </trkpt>
      <trkpt lat="51.879105" lon="5.946898">
        <ele>53.581151</ele>
        <time>2026-05-09T15:05:03.950Z</time>
      </trkpt>
      <trkpt lat="51.879105" lon="5.946726">
        <ele>53.572875</ele>
        <time>2026-05-09T15:05:05.951Z</time>
      </trkpt>
      <trkpt lat="51.879107" lon="5.946553">
        <ele>53.564549</ele>
        <time>2026-05-09T15:05:07.948Z</time>
      </trkpt>
      <trkpt lat="51.879113" lon="5.946374">
        <ele>53.555924</ele>
        <time>2026-05-09T15:05:09.948Z</time>
      </trkpt>
      <trkpt lat="51.879109" lon="5.946193">
        <ele>53.547209</ele>
        <time>2026-05-09T15:05:11.949Z</time>
      </trkpt>
      <trkpt lat="51.879098" lon="5.946010">
        <ele>53.543170</ele>
        <time>2026-05-09T15:05:13.949Z</time>
      </trkpt>
      <trkpt lat="51.879091" lon="5.945828">
        <ele>53.566347</ele>
        <time>2026-05-09T15:05:15.950Z</time>
      </trkpt>
      <trkpt lat="51.879092" lon="5.945642">
        <ele>53.589989</ele>
        <time>2026-05-09T15:05:17.956Z</time>
      </trkpt>
      <trkpt lat="51.879096" lon="5.945451">
        <ele>53.614279</ele>
        <time>2026-05-09T15:05:19.956Z</time>
      </trkpt>
      <trkpt lat="51.879097" lon="5.945263">
        <ele>53.638175</ele>
        <time>2026-05-09T15:05:21.955Z</time>
      </trkpt>
      <trkpt lat="51.879107" lon="5.945086">
        <ele>53.660766</ele>
        <time>2026-05-09T15:05:23.948Z</time>
      </trkpt>
      <trkpt lat="51.879108" lon="5.944896">
        <ele>53.684916</ele>
        <time>2026-05-09T15:05:25.957Z</time>
      </trkpt>
      <trkpt lat="51.879113" lon="5.944714">
        <ele>53.708071</ele>
        <time>2026-05-09T15:05:27.949Z</time>
      </trkpt>
      <trkpt lat="51.879118" lon="5.944542">
        <ele>53.729956</ele>
        <time>2026-05-09T15:05:29.947Z</time>
      </trkpt>
      <trkpt lat="51.879118" lon="5.944364">
        <ele>53.752580</ele>
        <time>2026-05-09T15:05:31.949Z</time>
      </trkpt>
      <trkpt lat="51.879126" lon="5.944182">
        <ele>53.775771</ele>
        <time>2026-05-09T15:05:33.955Z</time>
      </trkpt>
      <trkpt lat="51.879130" lon="5.943993">
        <ele>53.799807</ele>
        <time>2026-05-09T15:05:35.947Z</time>
      </trkpt>
      <trkpt lat="51.879137" lon="5.943802">
        <ele>53.824126</ele>
        <time>2026-05-09T15:05:37.955Z</time>
      </trkpt>
      <trkpt lat="51.879151" lon="5.943616">
        <ele>53.847941</ele>
        <time>2026-05-09T15:05:39.947Z</time>
      </trkpt>
      <trkpt lat="51.879165" lon="5.943433">
        <ele>53.871379</ele>
        <time>2026-05-09T15:05:41.952Z</time>
      </trkpt>
      <trkpt lat="51.879178" lon="5.943252">
        <ele>53.894539</ele>
        <time>2026-05-09T15:05:43.947Z</time>
      </trkpt>
      <trkpt lat="51.879189" lon="5.943070">
        <ele>53.908920</ele>
        <time>2026-05-09T15:05:45.952Z</time>
      </trkpt>
      <trkpt lat="51.879199" lon="5.942888">
        <ele>53.905685</ele>
        <time>2026-05-09T15:05:47.960Z</time>
      </trkpt>
      <trkpt lat="51.879217" lon="5.942710">
        <ele>53.902491</ele>
        <time>2026-05-09T15:05:49.950Z</time>
      </trkpt>
      <trkpt lat="51.879233" lon="5.942525">
        <ele>53.899184</ele>
        <time>2026-05-09T15:05:51.950Z</time>
      </trkpt>
      <trkpt lat="51.879249" lon="5.942340">
        <ele>53.895876</ele>
        <time>2026-05-09T15:05:53.950Z</time>
      </trkpt>
      <trkpt lat="51.879264" lon="5.942159">
        <ele>53.892642</ele>
        <time>2026-05-09T15:05:55.949Z</time>
      </trkpt>
      <trkpt lat="51.879278" lon="5.941982">
        <ele>53.889483</ele>
        <time>2026-05-09T15:05:57.951Z</time>
      </trkpt>
      <trkpt lat="51.879290" lon="5.941799">
        <ele>53.886224</ele>
        <time>2026-05-09T15:05:59.952Z</time>
      </trkpt>
      <trkpt lat="51.879305" lon="5.941613">
        <ele>53.882903</ele>
        <time>2026-05-09T15:06:01.947Z</time>
      </trkpt>
      <trkpt lat="51.879318" lon="5.941428">
        <ele>53.879606</ele>
        <time>2026-05-09T15:06:03.951Z</time>
      </trkpt>
      <trkpt lat="51.879334" lon="5.941234">
        <ele>53.876140</ele>
        <time>2026-05-09T15:06:05.951Z</time>
      </trkpt>
      <trkpt lat="51.879346" lon="5.941039">
        <ele>53.872670</ele>
        <time>2026-05-09T15:06:07.952Z</time>
      </trkpt>
      <trkpt lat="51.879359" lon="5.940856">
        <ele>53.869409</ele>
        <time>2026-05-09T15:06:09.955Z</time>
      </trkpt>
      <trkpt lat="51.879369" lon="5.940669">
        <ele>53.866085</ele>
        <time>2026-05-09T15:06:11.948Z</time>
      </trkpt>
      <trkpt lat="51.879384" lon="5.940494">
        <ele>53.862957</ele>
        <time>2026-05-09T15:06:13.955Z</time>
      </trkpt>
      <trkpt lat="51.879399" lon="5.940318">
        <ele>53.859811</ele>
        <time>2026-05-09T15:06:15.950Z</time>
      </trkpt>
      <trkpt lat="51.879435" lon="5.940146">
        <ele>53.859718</ele>
        <time>2026-05-09T15:06:17.957Z</time>
      </trkpt>
      <trkpt lat="51.879486" lon="5.939980">
        <ele>53.862074</ele>
        <time>2026-05-09T15:06:19.951Z</time>
      </trkpt>
      <trkpt lat="51.879524" lon="5.939809">
        <ele>53.864383</ele>
        <time>2026-05-09T15:06:21.958Z</time>
      </trkpt>
      <trkpt lat="51.879545" lon="5.939630">
        <ele>53.866698</ele>
        <time>2026-05-09T15:06:23.948Z</time>
      </trkpt>
      <trkpt lat="51.879570" lon="5.939462">
        <ele>53.868893</ele>
        <time>2026-05-09T15:06:25.950Z</time>
      </trkpt>
      <trkpt lat="51.879596" lon="5.939302">
        <ele>53.870995</ele>
        <time>2026-05-09T15:06:27.951Z</time>
      </trkpt>
      <trkpt lat="51.879551" lon="5.939165">
        <ele>53.872967</ele>
        <time>2026-05-09T15:06:31.953Z</time>
      </trkpt>
      <trkpt lat="51.879475" lon="5.939086">
        <ele>53.874826</ele>
        <time>2026-05-09T15:06:41.947Z</time>
      </trkpt>
      <trkpt lat="51.879450" lon="5.938933">
        <ele>53.876836</ele>
        <time>2026-05-09T15:06:45.944Z</time>
      </trkpt>
      <trkpt lat="51.879428" lon="5.938768">
        <ele>53.878981</ele>
        <time>2026-05-09T15:06:50.952Z</time>
      </trkpt>
      <trkpt lat="51.879453" lon="5.938609">
        <ele>53.881065</ele>
        <time>2026-05-09T15:06:53.948Z</time>
      </trkpt>
      <trkpt lat="51.879478" lon="5.938411">
        <ele>53.883633</ele>
        <time>2026-05-09T15:06:56.950Z</time>
      </trkpt>
      <trkpt lat="51.879500" lon="5.938260">
        <ele>53.885604</ele>
        <time>2026-05-09T15:06:58.949Z</time>
      </trkpt>
      <trkpt lat="51.879522" lon="5.938110">
        <ele>53.887563</ele>
        <time>2026-05-09T15:07:00.951Z</time>
      </trkpt>
      <trkpt lat="51.879546" lon="5.937951">
        <ele>53.889643</ele>
        <time>2026-05-09T15:07:02.951Z</time>
      </trkpt>
      <trkpt lat="51.879568" lon="5.937798">
        <ele>53.891638</ele>
        <time>2026-05-09T15:07:04.951Z</time>
      </trkpt>
      <trkpt lat="51.879589" lon="5.937653">
        <ele>53.893531</ele>
        <time>2026-05-09T15:07:06.953Z</time>
      </trkpt>
      <trkpt lat="51.879614" lon="5.937513">
        <ele>53.895382</ele>
        <time>2026-05-09T15:07:08.950Z</time>
      </trkpt>
      <trkpt lat="51.879651" lon="5.937367">
        <ele>53.960515</ele>
        <time>2026-05-09T15:07:10.956Z</time>
      </trkpt>
      <trkpt lat="51.879696" lon="5.937232">
        <ele>54.025351</ele>
        <time>2026-05-09T15:07:12.950Z</time>
      </trkpt>
      <trkpt lat="51.879748" lon="5.937112">
        <ele>54.087308</ele>
        <time>2026-05-09T15:07:14.942Z</time>
      </trkpt>
      <trkpt lat="51.879825" lon="5.936937">
        <ele>54.178124</ele>
        <time>2026-05-09T15:07:17.949Z</time>
      </trkpt>
      <trkpt lat="51.879886" lon="5.936826">
        <ele>54.240926</ele>
        <time>2026-05-09T15:07:19.956Z</time>
      </trkpt>
      <trkpt lat="51.879952" lon="5.936709">
        <ele>54.307903</ele>
        <time>2026-05-09T15:07:21.950Z</time>
      </trkpt>
      <trkpt lat="51.880018" lon="5.936594">
        <ele>54.374258</ele>
        <time>2026-05-09T15:07:23.954Z</time>
      </trkpt>
      <trkpt lat="51.880080" lon="5.936481">
        <ele>54.438146</ele>
        <time>2026-05-09T15:07:25.962Z</time>
      </trkpt>
      <trkpt lat="51.880137" lon="5.936366">
        <ele>54.500470</ele>
        <time>2026-05-09T15:07:27.955Z</time>
      </trkpt>
      <trkpt lat="51.880196" lon="5.936185">
        <ele>54.586967</ele>
        <time>2026-05-09T15:07:30.946Z</time>
      </trkpt>
      <trkpt lat="51.880233" lon="5.936048">
        <ele>54.650159</ele>
        <time>2026-05-09T15:07:32.949Z</time>
      </trkpt>
      <trkpt lat="51.880282" lon="5.935849">
        <ele>54.740697</ele>
        <time>2026-05-09T15:07:35.952Z</time>
      </trkpt>
      <trkpt lat="51.880318" lon="5.935703">
        <ele>54.807134</ele>
        <time>2026-05-09T15:07:37.954Z</time>
      </trkpt>
      <trkpt lat="51.880352" lon="5.935560">
        <ele>54.871891</ele>
        <time>2026-05-09T15:07:39.953Z</time>
      </trkpt>
      <trkpt lat="51.880385" lon="5.935415">
        <ele>54.937197</ele>
        <time>2026-05-09T15:07:41.962Z</time>
      </trkpt>
      <trkpt lat="51.880417" lon="5.935272">
        <ele>55.001474</ele>
        <time>2026-05-09T15:07:43.947Z</time>
      </trkpt>
      <trkpt lat="51.880450" lon="5.935124">
        <ele>55.067971</ele>
        <time>2026-05-09T15:07:45.952Z</time>
      </trkpt>
      <trkpt lat="51.880480" lon="5.934977">
        <ele>55.149947</ele>
        <time>2026-05-09T15:07:47.953Z</time>
      </trkpt>
      <trkpt lat="51.880513" lon="5.934835">
        <ele>55.372786</ele>
        <time>2026-05-09T15:07:49.951Z</time>
      </trkpt>
      <trkpt lat="51.880577" lon="5.934680">
        <ele>55.646658</ele>
        <time>2026-05-09T15:07:52.951Z</time>
      </trkpt>
      <trkpt lat="51.880661" lon="5.934571">
        <ele>55.902717</ele>
        <time>2026-05-09T15:07:56.944Z</time>
      </trkpt>
      <trkpt lat="51.880628" lon="5.934426">
        <ele>56.129683</ele>
        <time>2026-05-09T15:08:00.950Z</time>
      </trkpt>
      <trkpt lat="51.880580" lon="5.934272">
        <ele>56.383052</ele>
        <time>2026-05-09T15:08:05.957Z</time>
      </trkpt>
      <trkpt lat="51.880510" lon="5.934170">
        <ele>56.607054</ele>
        <time>2026-05-09T15:08:09.949Z</time>
      </trkpt>
      <trkpt lat="51.880429" lon="5.934075">
        <ele>56.844970</ele>
        <time>2026-05-09T15:08:13.952Z</time>
      </trkpt>
      <trkpt lat="51.880343" lon="5.933996">
        <ele>57.080184</ele>
        <time>2026-05-09T15:08:17.950Z</time>
      </trkpt>
      <trkpt lat="51.880245" lon="5.933948">
        <ele>57.323765</ele>
        <time>2026-05-09T15:08:21.951Z</time>
      </trkpt>
      <trkpt lat="51.880135" lon="5.934012">
        <ele>57.601840</ele>
        <time>2026-05-09T15:08:25.948Z</time>
      </trkpt>
      <trkpt lat="51.880057" lon="5.934124">
        <ele>57.849822</ele>
        <time>2026-05-09T15:08:28.951Z</time>
      </trkpt>
      <trkpt lat="51.879982" lon="5.934239">
        <ele>58.095517</ele>
        <time>2026-05-09T15:08:31.954Z</time>
      </trkpt>
      <trkpt lat="51.879894" lon="5.934373">
        <ele>58.382858</ele>
        <time>2026-05-09T15:08:34.952Z</time>
      </trkpt>
      <trkpt lat="51.879803" lon="5.934514">
        <ele>58.682453</ele>
        <time>2026-05-09T15:08:37.947Z</time>
      </trkpt>
      <trkpt lat="51.879716" lon="5.934638">
        <ele>58.958152</ele>
        <time>2026-05-09T15:08:40.951Z</time>
      </trkpt>
      <trkpt lat="51.879616" lon="5.934748">
        <ele>59.245735</ele>
        <time>2026-05-09T15:08:43.946Z</time>
      </trkpt>
      <trkpt lat="51.879504" lon="5.934782">
        <ele>59.358972</ele>
        <time>2026-05-09T15:08:46.950Z</time>
      </trkpt>
      <trkpt lat="51.879386" lon="5.934707">
        <ele>59.231183</ele>
        <time>2026-05-09T15:08:49.951Z</time>
      </trkpt>
      <trkpt lat="51.879326" lon="5.934565">
        <ele>59.124092</ele>
        <time>2026-05-09T15:08:51.951Z</time>
      </trkpt>
      <trkpt lat="51.879267" lon="5.934402">
        <ele>59.006498</ele>
        <time>2026-05-09T15:08:53.951Z</time>
      </trkpt>
      <trkpt lat="51.879214" lon="5.934237">
        <ele>58.890742</ele>
        <time>2026-05-09T15:08:55.949Z</time>
      </trkpt>
      <trkpt lat="51.879162" lon="5.934084">
        <ele>58.782046</ele>
        <time>2026-05-09T15:08:57.956Z</time>
      </trkpt>
      <trkpt lat="51.879114" lon="5.933937">
        <ele>58.678552</ele>
        <time>2026-05-09T15:08:59.956Z</time>
      </trkpt>
      <trkpt lat="51.879058" lon="5.933792">
        <ele>58.572107</ele>
        <time>2026-05-09T15:09:01.949Z</time>
      </trkpt>
      <trkpt lat="51.879000" lon="5.933648">
        <ele>58.465101</ele>
        <time>2026-05-09T15:09:03.946Z</time>
      </trkpt>
      <trkpt lat="51.878938" lon="5.933510">
        <ele>58.358880</ele>
        <time>2026-05-09T15:09:05.949Z</time>
      </trkpt>
      <trkpt lat="51.878882" lon="5.933375">
        <ele>58.257657</ele>
        <time>2026-05-09T15:09:07.950Z</time>
      </trkpt>
      <trkpt lat="51.878822" lon="5.933251">
        <ele>58.159605</ele>
        <time>2026-05-09T15:09:09.955Z</time>
      </trkpt>
      <trkpt lat="51.878766" lon="5.933114">
        <ele>58.057346</ele>
        <time>2026-05-09T15:09:11.955Z</time>
      </trkpt>
      <trkpt lat="51.878711" lon="5.932977">
        <ele>57.955640</ele>
        <time>2026-05-09T15:09:13.948Z</time>
      </trkpt>
      <trkpt lat="51.878657" lon="5.932837">
        <ele>57.852902</ele>
        <time>2026-05-09T15:09:15.947Z</time>
      </trkpt>
      <trkpt lat="51.878598" lon="5.932711">
        <ele>57.754480</ele>
        <time>2026-05-09T15:09:17.948Z</time>
      </trkpt>
      <trkpt lat="51.878538" lon="5.932595">
        <ele>57.660296</ele>
        <time>2026-05-09T15:09:19.950Z</time>
      </trkpt>
      <trkpt lat="51.878480" lon="5.932482">
        <ele>57.601469</ele>
        <time>2026-05-09T15:09:21.953Z</time>
      </trkpt>
      <trkpt lat="51.878422" lon="5.932367">
        <ele>57.635536</ele>
        <time>2026-05-09T15:09:23.952Z</time>
      </trkpt>
      <trkpt lat="51.878366" lon="5.932244">
        <ele>57.670598</ele>
        <time>2026-05-09T15:09:25.952Z</time>
      </trkpt>
      <trkpt lat="51.878317" lon="5.932121">
        <ele>57.704181</ele>
        <time>2026-05-09T15:09:27.954Z</time>
      </trkpt>
      <trkpt lat="51.878257" lon="5.931939">
        <ele>57.751515</ele>
        <time>2026-05-09T15:09:30.951Z</time>
      </trkpt>
      <trkpt lat="51.878217" lon="5.931763">
        <ele>57.794541</ele>
        <time>2026-05-09T15:09:33.950Z</time>
      </trkpt>
      <trkpt lat="51.878189" lon="5.931611">
        <ele>57.830931</ele>
        <time>2026-05-09T15:09:36.946Z</time>
      </trkpt>
      <trkpt lat="51.878228" lon="5.931478">
        <ele>57.864710</ele>
        <time>2026-05-09T15:09:45.950Z</time>
      </trkpt>
      <trkpt lat="51.878140" lon="5.931418">
        <ele>57.900192</ele>
        <time>2026-05-09T15:11:50.949Z</time>
      </trkpt>
      <trkpt lat="51.878132" lon="5.931257">
        <ele>57.937247</ele>
        <time>2026-05-09T15:11:53.950Z</time>
      </trkpt>
      <trkpt lat="51.878138" lon="5.931063">
        <ele>57.981809</ele>
        <time>2026-05-09T15:11:56.953Z</time>
      </trkpt>
      <trkpt lat="51.878141" lon="5.930869">
        <ele>58.026329</ele>
        <time>2026-05-09T15:11:59.955Z</time>
      </trkpt>
      <trkpt lat="51.878143" lon="5.930690">
        <ele>58.067401</ele>
        <time>2026-05-09T15:12:02.953Z</time>
      </trkpt>
      <trkpt lat="51.878149" lon="5.930493">
        <ele>58.112650</ele>
        <time>2026-05-09T15:12:05.949Z</time>
      </trkpt>
      <trkpt lat="51.878156" lon="5.930290">
        <ele>58.159294</ele>
        <time>2026-05-09T15:12:08.947Z</time>
      </trkpt>
      <trkpt lat="51.878153" lon="5.930074">
        <ele>58.208860</ele>
        <time>2026-05-09T15:12:11.947Z</time>
      </trkpt>
      <trkpt lat="51.878163" lon="5.929925">
        <ele>58.243244</ele>
        <time>2026-05-09T15:12:13.950Z</time>
      </trkpt>
      <trkpt lat="51.878177" lon="5.929775">
        <ele>58.200729</ele>
        <time>2026-05-09T15:12:15.958Z</time>
      </trkpt>
      <trkpt lat="51.878200" lon="5.929623">
        <ele>58.072929</ele>
        <time>2026-05-09T15:12:17.951Z</time>
      </trkpt>
      <trkpt lat="51.878232" lon="5.929483">
        <ele>57.951019</ele>
        <time>2026-05-09T15:12:19.948Z</time>
      </trkpt>
      <trkpt lat="51.878282" lon="5.929282">
        <ele>57.774055</ele>
        <time>2026-05-09T15:12:22.949Z</time>
      </trkpt>
      <trkpt lat="51.878345" lon="5.929172">
        <ele>57.651524</ele>
        <time>2026-05-09T15:12:24.949Z</time>
      </trkpt>
      <trkpt lat="51.878410" lon="5.929071">
        <ele>57.532379</ele>
        <time>2026-05-09T15:12:26.950Z</time>
      </trkpt>
      <trkpt lat="51.878474" lon="5.928960">
        <ele>57.408348</ele>
        <time>2026-05-09T15:12:28.951Z</time>
      </trkpt>
      <trkpt lat="51.878568" lon="5.928802">
        <ele>57.229160</ele>
        <time>2026-05-09T15:12:31.950Z</time>
      </trkpt>
      <trkpt lat="51.878643" lon="5.928713">
        <ele>57.106177</ele>
        <time>2026-05-09T15:12:33.948Z</time>
      </trkpt>
      <trkpt lat="51.878744" lon="5.928588">
        <ele>56.938043</ele>
        <time>2026-05-09T15:12:36.952Z</time>
      </trkpt>
      <trkpt lat="51.878846" lon="5.928452">
        <ele>56.763289</ele>
        <time>2026-05-09T15:12:39.955Z</time>
      </trkpt>
      <trkpt lat="51.878913" lon="5.928344">
        <ele>56.638257</ele>
        <time>2026-05-09T15:12:41.952Z</time>
      </trkpt>
      <trkpt lat="51.878969" lon="5.928196">
        <ele>56.496505</ele>
        <time>2026-05-09T15:12:43.956Z</time>
      </trkpt>
      <trkpt lat="51.878968" lon="5.928019">
        <ele>56.351960</ele>
        <time>2026-05-09T15:12:45.954Z</time>
      </trkpt>
      <trkpt lat="51.878918" lon="5.927859">
        <ele>56.205517</ele>
        <time>2026-05-09T15:12:47.955Z</time>
      </trkpt>
      <trkpt lat="51.878849" lon="5.927712">
        <ele>56.054718</ele>
        <time>2026-05-09T15:12:49.949Z</time>
      </trkpt>
      <trkpt lat="51.878779" lon="5.927573">
        <ele>55.908232</ele>
        <time>2026-05-09T15:12:51.954Z</time>
      </trkpt>
      <trkpt lat="51.878706" lon="5.927442">
        <ele>55.928602</ele>
        <time>2026-05-09T15:12:53.952Z</time>
      </trkpt>
      <trkpt lat="51.878641" lon="5.927309">
        <ele>55.983633</ele>
        <time>2026-05-09T15:12:55.953Z</time>
      </trkpt>
      <trkpt lat="51.878576" lon="5.927173">
        <ele>56.039430</ele>
        <time>2026-05-09T15:12:57.953Z</time>
      </trkpt>
      <trkpt lat="51.878515" lon="5.927035">
        <ele>56.094492</ele>
        <time>2026-05-09T15:12:59.953Z</time>
      </trkpt>
      <trkpt lat="51.878451" lon="5.926898">
        <ele>56.150227</ele>
        <time>2026-05-09T15:13:01.959Z</time>
      </trkpt>
      <trkpt lat="51.878391" lon="5.926761">
        <ele>56.204720</ele>
        <time>2026-05-09T15:13:03.952Z</time>
      </trkpt>
      <trkpt lat="51.878330" lon="5.926616">
        <ele>56.261644</ele>
        <time>2026-05-09T15:13:05.952Z</time>
      </trkpt>
      <trkpt lat="51.878264" lon="5.926477">
        <ele>56.318533</ele>
        <time>2026-05-09T15:13:07.950Z</time>
      </trkpt>
      <trkpt lat="51.878195" lon="5.926334">
        <ele>56.377414</ele>
        <time>2026-05-09T15:13:09.951Z</time>
      </trkpt>
      <trkpt lat="51.878128" lon="5.926189">
        <ele>56.436171</ele>
        <time>2026-05-09T15:13:11.948Z</time>
      </trkpt>
      <trkpt lat="51.878060" lon="5.926043">
        <ele>56.495503</ele>
        <time>2026-05-09T15:13:13.953Z</time>
      </trkpt>
      <trkpt lat="51.877993" lon="5.925906">
        <ele>56.552204</ele>
        <time>2026-05-09T15:13:15.950Z</time>
      </trkpt>
      <trkpt lat="51.877928" lon="5.925771">
        <ele>56.607746</ele>
        <time>2026-05-09T15:13:17.952Z</time>
      </trkpt>
      <trkpt lat="51.877866" lon="5.925642">
        <ele>56.660783</ele>
        <time>2026-05-09T15:13:19.948Z</time>
      </trkpt>
      <trkpt lat="51.877804" lon="5.925512">
        <ele>56.714076</ele>
        <time>2026-05-09T15:13:21.951Z</time>
      </trkpt>
      <trkpt lat="51.877741" lon="5.925379">
        <ele>56.768462</ele>
        <time>2026-05-09T15:13:23.956Z</time>
      </trkpt>
      <trkpt lat="51.877686" lon="5.925237">
        <ele>56.822845</ele>
        <time>2026-05-09T15:13:25.955Z</time>
      </trkpt>
      <trkpt lat="51.877626" lon="5.925103">
        <ele>56.822692</ele>
        <time>2026-05-09T15:13:27.956Z</time>
      </trkpt>
      <trkpt lat="51.877571" lon="5.924963">
        <ele>56.817970</ele>
        <time>2026-05-09T15:13:29.949Z</time>
      </trkpt>
      <trkpt lat="51.877517" lon="5.924840">
        <ele>56.813676</ele>
        <time>2026-05-09T15:13:31.948Z</time>
      </trkpt>
      <trkpt lat="51.877438" lon="5.924664">
        <ele>56.807484</ele>
        <time>2026-05-09T15:13:34.954Z</time>
      </trkpt>
      <trkpt lat="51.877394" lon="5.924536">
        <ele>56.803315</ele>
        <time>2026-05-09T15:13:36.948Z</time>
      </trkpt>
      <trkpt lat="51.877359" lon="5.924397">
        <ele>56.799043</ele>
        <time>2026-05-09T15:13:39.950Z</time>
      </trkpt>
      <trkpt lat="51.877272" lon="5.924163">
        <ele>56.791271</ele>
        <time>2026-05-09T15:14:18.951Z</time>
      </trkpt>
      <trkpt lat="51.877226" lon="5.924019">
        <ele>56.786657</ele>
        <time>2026-05-09T15:14:21.945Z</time>
      </trkpt>
      <trkpt lat="51.877187" lon="5.923870">
        <ele>56.782052</ele>
        <time>2026-05-09T15:14:24.948Z</time>
      </trkpt>
      <trkpt lat="51.877159" lon="5.923702">
        <ele>56.777101</ele>
        <time>2026-05-09T15:14:27.952Z</time>
      </trkpt>
      <trkpt lat="51.877131" lon="5.923522">
        <ele>56.771819</ele>
        <time>2026-05-09T15:14:30.951Z</time>
      </trkpt>
      <trkpt lat="51.877125" lon="5.923358">
        <ele>56.767144</ele>
        <time>2026-05-09T15:14:33.950Z</time>
      </trkpt>
      <trkpt lat="51.877135" lon="5.923213">
        <ele>56.762992</ele>
        <time>2026-05-09T15:14:37.950Z</time>
      </trkpt>
      <trkpt lat="51.877103" lon="5.923031">
        <ele>56.757608</ele>
        <time>2026-05-09T15:14:41.950Z</time>
      </trkpt>
      <trkpt lat="51.877048" lon="5.922912">
        <ele>56.753378</ele>
        <time>2026-05-09T15:14:44.949Z</time>
      </trkpt>
      <trkpt lat="51.877009" lon="5.922714">
        <ele>56.747464</ele>
        <time>2026-05-09T15:14:48.948Z</time>
      </trkpt>
      <trkpt lat="51.876994" lon="5.922513">
        <ele>56.718316</ele>
        <time>2026-05-09T15:14:51.947Z</time>
      </trkpt>
      <trkpt lat="51.876997" lon="5.922365">
        <ele>56.673539</ele>
        <time>2026-05-09T15:14:53.948Z</time>
      </trkpt>
      <trkpt lat="51.877005" lon="5.922213">
        <ele>56.627410</ele>
        <time>2026-05-09T15:14:55.952Z</time>
      </trkpt>
      <trkpt lat="51.877018" lon="5.922004">
        <ele>56.563892</ele>
        <time>2026-05-09T15:14:58.951Z</time>
      </trkpt>
      <trkpt lat="51.877033" lon="5.921858">
        <ele>56.519137</ele>
        <time>2026-05-09T15:15:00.953Z</time>
      </trkpt>
      <trkpt lat="51.877050" lon="5.921705">
        <ele>56.472129</ele>
        <time>2026-05-09T15:15:02.952Z</time>
      </trkpt>
      <trkpt lat="51.877074" lon="5.921554">
        <ele>56.424980</ele>
        <time>2026-05-09T15:15:04.960Z</time>
      </trkpt>
      <trkpt lat="51.877092" lon="5.921405">
        <ele>56.379071</ele>
        <time>2026-05-09T15:15:06.951Z</time>
      </trkpt>
      <trkpt lat="51.877114" lon="5.921263">
        <ele>56.334801</ele>
        <time>2026-05-09T15:15:08.947Z</time>
      </trkpt>
      <trkpt lat="51.877136" lon="5.921063">
        <ele>56.273372</ele>
        <time>2026-05-09T15:15:11.952Z</time>
      </trkpt>
      <trkpt lat="51.877163" lon="5.920860">
        <ele>56.210580</ele>
        <time>2026-05-09T15:15:14.949Z</time>
      </trkpt>
      <trkpt lat="51.877187" lon="5.920648">
        <ele>56.145407</ele>
        <time>2026-05-09T15:15:17.949Z</time>
      </trkpt>
      <trkpt lat="51.877213" lon="5.920439">
        <ele>56.080938</ele>
        <time>2026-05-09T15:15:20.952Z</time>
      </trkpt>
      <trkpt lat="51.877237" lon="5.920233">
        <ele>56.017548</ele>
        <time>2026-05-09T15:15:23.950Z</time>
      </trkpt>
      <trkpt lat="51.877278" lon="5.920048">
        <ele>55.958112</ele>
        <time>2026-05-09T15:15:26.951Z</time>
      </trkpt>
      <trkpt lat="51.877320" lon="5.919851">
        <ele>55.895091</ele>
        <time>2026-05-09T15:15:29.950Z</time>
      </trkpt>
      <trkpt lat="51.877344" lon="5.919640">
        <ele>55.872590</ele>
        <time>2026-05-09T15:15:32.948Z</time>
      </trkpt>
      <trkpt lat="51.877459" lon="5.919543">
        <ele>55.890805</ele>
        <time>2026-05-09T15:15:35.950Z</time>
      </trkpt>
      <trkpt lat="51.877549" lon="5.919462">
        <ele>55.905269</ele>
        <time>2026-05-09T15:15:37.957Z</time>
      </trkpt>
      <trkpt lat="51.877625" lon="5.919342">
        <ele>55.920179</ele>
        <time>2026-05-09T15:15:39.949Z</time>
      </trkpt>
      <trkpt lat="51.877669" lon="5.919197">
        <ele>55.934191</ele>
        <time>2026-05-09T15:15:41.954Z</time>
      </trkpt>
      <trkpt lat="51.877693" lon="5.919034">
        <ele>55.948724</ele>
        <time>2026-05-09T15:15:43.955Z</time>
      </trkpt>
      <trkpt lat="51.877711" lon="5.918861">
        <ele>55.963939</ele>
        <time>2026-05-09T15:15:45.960Z</time>
      </trkpt>
      <trkpt lat="51.877742" lon="5.918691">
        <ele>55.979312</ele>
        <time>2026-05-09T15:15:47.948Z</time>
      </trkpt>
      <trkpt lat="51.877777" lon="5.918522">
        <ele>55.994772</ele>
        <time>2026-05-09T15:15:49.955Z</time>
      </trkpt>
      <trkpt lat="51.877810" lon="5.918348">
        <ele>56.010558</ele>
        <time>2026-05-09T15:15:51.955Z</time>
      </trkpt>
      <trkpt lat="51.877849" lon="5.918168">
        <ele>56.027102</ele>
        <time>2026-05-09T15:15:53.951Z</time>
      </trkpt>
      <trkpt lat="51.877897" lon="5.918010">
        <ele>56.042374</ele>
        <time>2026-05-09T15:15:55.950Z</time>
      </trkpt>
      <trkpt lat="51.877948" lon="5.917855">
        <ele>56.057607</ele>
        <time>2026-05-09T15:15:57.951Z</time>
      </trkpt>
      <trkpt lat="51.877999" lon="5.917702">
        <ele>56.072687</ele>
        <time>2026-05-09T15:15:59.947Z</time>
      </trkpt>
      <trkpt lat="51.878055" lon="5.917552">
        <ele>56.087889</ele>
        <time>2026-05-09T15:16:01.948Z</time>
      </trkpt>
      <trkpt lat="51.878112" lon="5.917404">
        <ele>56.103018</ele>
        <time>2026-05-09T15:16:03.947Z</time>
      </trkpt>
      <trkpt lat="51.878169" lon="5.917258">
        <ele>56.116077</ele>
        <time>2026-05-09T15:16:05.950Z</time>
      </trkpt>
      <trkpt lat="51.878223" lon="5.917111">
        <ele>56.117801</ele>
        <time>2026-05-09T15:16:07.958Z</time>
      </trkpt>
      <trkpt lat="51.878270" lon="5.916969">
        <ele>56.119424</ele>
        <time>2026-05-09T15:16:09.946Z</time>
      </trkpt>
      <trkpt lat="51.878323" lon="5.916827">
        <ele>56.121096</ele>
        <time>2026-05-09T15:16:11.950Z</time>
      </trkpt>
      <trkpt lat="51.878380" lon="5.916676">
        <ele>56.122880</ele>
        <time>2026-05-09T15:16:13.953Z</time>
      </trkpt>
      <trkpt lat="51.878444" lon="5.916525">
        <ele>56.124725</ele>
        <time>2026-05-09T15:16:15.948Z</time>
      </trkpt>
      <trkpt lat="51.878520" lon="5.916392">
        <ele>56.126551</ele>
        <time>2026-05-09T15:16:17.947Z</time>
      </trkpt>
      <trkpt lat="51.878595" lon="5.916272">
        <ele>56.128272</ele>
        <time>2026-05-09T15:16:19.947Z</time>
      </trkpt>
      <trkpt lat="51.878658" lon="5.916130">
        <ele>56.130034</ele>
        <time>2026-05-09T15:16:21.948Z</time>
      </trkpt>
      <trkpt lat="51.878730" lon="5.915989">
        <ele>56.131878</ele>
        <time>2026-05-09T15:16:23.950Z</time>
      </trkpt>
      <trkpt lat="51.878797" lon="5.915835">
        <ele>56.133776</ele>
        <time>2026-05-09T15:16:25.947Z</time>
      </trkpt>
      <trkpt lat="51.878836" lon="5.915668">
        <ele>56.135575</ele>
        <time>2026-05-09T15:16:27.950Z</time>
      </trkpt>
      <trkpt lat="51.878837" lon="5.915491">
        <ele>56.137359</ele>
        <time>2026-05-09T15:16:29.953Z</time>
      </trkpt>
      <trkpt lat="51.878842" lon="5.915305">
        <ele>56.139235</ele>
        <time>2026-05-09T15:16:31.948Z</time>
      </trkpt>
      <trkpt lat="51.878848" lon="5.915121">
        <ele>56.141092</ele>
        <time>2026-05-09T15:16:33.951Z</time>
      </trkpt>
      <trkpt lat="51.878864" lon="5.914943">
        <ele>56.142904</ele>
        <time>2026-05-09T15:16:35.953Z</time>
      </trkpt>
      <trkpt lat="51.878884" lon="5.914767">
        <ele>56.144707</ele>
        <time>2026-05-09T15:16:37.945Z</time>
      </trkpt>
      <trkpt lat="51.878905" lon="5.914590">
        <ele>56.143617</ele>
        <time>2026-05-09T15:16:39.950Z</time>
      </trkpt>
      <trkpt lat="51.878908" lon="5.914405">
        <ele>56.141440</ele>
        <time>2026-05-09T15:16:41.949Z</time>
      </trkpt>
      <trkpt lat="51.878902" lon="5.914226">
        <ele>56.139330</ele>
        <time>2026-05-09T15:16:43.951Z</time>
      </trkpt>
      <trkpt lat="51.878896" lon="5.914040">
        <ele>56.137139</ele>
        <time>2026-05-09T15:16:45.948Z</time>
      </trkpt>
      <trkpt lat="51.878889" lon="5.913856">
        <ele>56.134970</ele>
        <time>2026-05-09T15:16:47.951Z</time>
      </trkpt>
      <trkpt lat="51.878882" lon="5.913684">
        <ele>56.132942</ele>
        <time>2026-05-09T15:16:49.947Z</time>
      </trkpt>
      <trkpt lat="51.878872" lon="5.913518">
        <ele>56.130980</ele>
        <time>2026-05-09T15:16:51.946Z</time>
      </trkpt>
      <trkpt lat="51.878843" lon="5.913346">
        <ele>56.128882</ele>
        <time>2026-05-09T15:16:53.947Z</time>
      </trkpt>
      <trkpt lat="51.878808" lon="5.913170">
        <ele>56.126707</ele>
        <time>2026-05-09T15:16:55.946Z</time>
      </trkpt>
      <trkpt lat="51.878773" lon="5.912989">
        <ele>56.124475</ele>
        <time>2026-05-09T15:16:57.949Z</time>
      </trkpt>
      <trkpt lat="51.878732" lon="5.912802">
        <ele>56.122140</ele>
        <time>2026-05-09T15:16:59.946Z</time>
      </trkpt>
      <trkpt lat="51.878700" lon="5.912621">
        <ele>56.119925</ele>
        <time>2026-05-09T15:17:01.957Z</time>
      </trkpt>
      <trkpt lat="51.878666" lon="5.912449">
        <ele>56.117800</ele>
        <time>2026-05-09T15:17:03.948Z</time>
      </trkpt>
      <trkpt lat="51.878636" lon="5.912274">
        <ele>56.115664</ele>
        <time>2026-05-09T15:17:05.949Z</time>
      </trkpt>
      <trkpt lat="51.878613" lon="5.912091">
        <ele>56.113466</ele>
        <time>2026-05-09T15:17:07.949Z</time>
      </trkpt>
      <trkpt lat="51.878601" lon="5.911904">
        <ele>56.111254</ele>
        <time>2026-05-09T15:17:09.948Z</time>
      </trkpt>
      <trkpt lat="51.878593" lon="5.911727">
        <ele>56.085508</ele>
        <time>2026-05-09T15:17:11.948Z</time>
      </trkpt>
      <trkpt lat="51.878589" lon="5.911558">
        <ele>56.056415</ele>
        <time>2026-05-09T15:17:13.947Z</time>
      </trkpt>
      <trkpt lat="51.878579" lon="5.911386">
        <ele>56.026696</ele>
        <time>2026-05-09T15:17:15.944Z</time>
      </trkpt>
      <trkpt lat="51.878569" lon="5.911205">
        <ele>55.995436</ele>
        <time>2026-05-09T15:17:17.957Z</time>
      </trkpt>
      <trkpt lat="51.878557" lon="5.911021">
        <ele>55.963608</ele>
        <time>2026-05-09T15:17:19.946Z</time>
      </trkpt>
      <trkpt lat="51.878524" lon="5.910837">
        <ele>55.930647</ele>
        <time>2026-05-09T15:17:21.952Z</time>
      </trkpt>
      <trkpt lat="51.878478" lon="5.910669">
        <ele>55.899032</ele>
        <time>2026-05-09T15:17:23.945Z</time>
      </trkpt>
      <trkpt lat="51.878426" lon="5.910500">
        <ele>55.866549</ele>
        <time>2026-05-09T15:17:25.948Z</time>
      </trkpt>
      <trkpt lat="51.878374" lon="5.910333">
        <ele>55.834374</ele>
        <time>2026-05-09T15:17:27.947Z</time>
      </trkpt>
      <trkpt lat="51.878316" lon="5.910166">
        <ele>55.801412</ele>
        <time>2026-05-09T15:17:29.945Z</time>
      </trkpt>
      <trkpt lat="51.878252" lon="5.910011">
        <ele>55.769334</ele>
        <time>2026-05-09T15:17:31.947Z</time>
      </trkpt>
      <trkpt lat="51.878181" lon="5.909857">
        <ele>55.736270</ele>
        <time>2026-05-09T15:17:33.948Z</time>
      </trkpt>
      <trkpt lat="51.878103" lon="5.909715">
        <ele>55.703573</ele>
        <time>2026-05-09T15:17:35.946Z</time>
      </trkpt>
      <trkpt lat="51.878030" lon="5.909563">
        <ele>55.670444</ele>
        <time>2026-05-09T15:17:37.955Z</time>
      </trkpt>
      <trkpt lat="51.877973" lon="5.909404">
        <ele>55.638815</ele>
        <time>2026-05-09T15:17:39.954Z</time>
      </trkpt>
      <trkpt lat="51.877924" lon="5.909240">
        <ele>55.609011</ele>
        <time>2026-05-09T15:17:41.944Z</time>
      </trkpt>
      <trkpt lat="51.877887" lon="5.909064">
        <ele>55.599098</ele>
        <time>2026-05-09T15:17:43.947Z</time>
      </trkpt>
      <trkpt lat="51.877847" lon="5.908883">
        <ele>55.588848</ele>
        <time>2026-05-09T15:17:45.954Z</time>
      </trkpt>
      <trkpt lat="51.877802" lon="5.908703">
        <ele>55.578493</ele>
        <time>2026-05-09T15:17:47.949Z</time>
      </trkpt>
      <trkpt lat="51.877757" lon="5.908533">
        <ele>55.568631</ele>
        <time>2026-05-09T15:17:49.946Z</time>
      </trkpt>
      <trkpt lat="51.877712" lon="5.908360">
        <ele>55.558621</ele>
        <time>2026-05-09T15:17:51.954Z</time>
      </trkpt>
      <trkpt lat="51.877665" lon="5.908182">
        <ele>55.548299</ele>
        <time>2026-05-09T15:17:53.952Z</time>
      </trkpt>
      <trkpt lat="51.877620" lon="5.908003">
        <ele>55.537994</ele>
        <time>2026-05-09T15:17:55.948Z</time>
      </trkpt>
      <trkpt lat="51.877569" lon="5.907831">
        <ele>55.527820</ele>
        <time>2026-05-09T15:17:57.943Z</time>
      </trkpt>
      <trkpt lat="51.877530" lon="5.907659">
        <ele>55.518050</ele>
        <time>2026-05-09T15:17:59.944Z</time>
      </trkpt>
      <trkpt lat="51.877487" lon="5.907491">
        <ele>55.508353</ele>
        <time>2026-05-09T15:18:01.951Z</time>
      </trkpt>
      <trkpt lat="51.877447" lon="5.907333">
        <ele>55.499248</ele>
        <time>2026-05-09T15:18:03.942Z</time>
      </trkpt>
      <trkpt lat="51.877407" lon="5.907185">
        <ele>55.490634</ele>
        <time>2026-05-09T15:18:05.952Z</time>
      </trkpt>
      <trkpt lat="51.877351" lon="5.907041">
        <ele>55.481559</ele>
        <time>2026-05-09T15:18:07.951Z</time>
      </trkpt>
      <trkpt lat="51.877288" lon="5.906897">
        <ele>55.472149</ele>
        <time>2026-05-09T15:18:09.965Z</time>
      </trkpt>
      <trkpt lat="51.877228" lon="5.906740">
        <ele>55.462304</ele>
        <time>2026-05-09T15:18:11.950Z</time>
      </trkpt>
      <trkpt lat="51.877177" lon="5.906565">
        <ele>55.444112</ele>
        <time>2026-05-09T15:18:13.949Z</time>
      </trkpt>
      <trkpt lat="51.877123" lon="5.906395">
        <ele>55.400078</ele>
        <time>2026-05-09T15:18:15.944Z</time>
      </trkpt>
      <trkpt lat="51.877077" lon="5.906223">
        <ele>55.356905</ele>
        <time>2026-05-09T15:18:17.948Z</time>
      </trkpt>
      <trkpt lat="51.877027" lon="5.906057">
        <ele>55.314363</ele>
        <time>2026-05-09T15:18:19.947Z</time>
      </trkpt>
      <trkpt lat="51.876979" lon="5.905889">
        <ele>55.271726</ele>
        <time>2026-05-09T15:18:21.949Z</time>
      </trkpt>
      <trkpt lat="51.876932" lon="5.905717">
        <ele>55.228403</ele>
        <time>2026-05-09T15:18:23.947Z</time>
      </trkpt>
      <trkpt lat="51.876880" lon="5.905548">
        <ele>55.184911</ele>
        <time>2026-05-09T15:18:25.946Z</time>
      </trkpt>
      <trkpt lat="51.876814" lon="5.905391">
        <ele>55.141162</ele>
        <time>2026-05-09T15:18:27.947Z</time>
      </trkpt>
      <trkpt lat="51.876757" lon="5.905225">
        <ele>55.097412</ele>
        <time>2026-05-09T15:18:29.949Z</time>
      </trkpt>
      <trkpt lat="51.876711" lon="5.905047">
        <ele>55.052967</ele>
        <time>2026-05-09T15:18:31.951Z</time>
      </trkpt>
      <trkpt lat="51.876664" lon="5.904877">
        <ele>55.010065</ele>
        <time>2026-05-09T15:18:33.951Z</time>
      </trkpt>
      <trkpt lat="51.876623" lon="5.904708">
        <ele>54.968242</ele>
        <time>2026-05-09T15:18:35.950Z</time>
      </trkpt>
      <trkpt lat="51.876583" lon="5.904550">
        <ele>54.928909</ele>
        <time>2026-05-09T15:18:37.950Z</time>
      </trkpt>
      <trkpt lat="51.876544" lon="5.904389">
        <ele>54.889074</ele>
        <time>2026-05-09T15:18:39.951Z</time>
      </trkpt>
      <trkpt lat="51.876506" lon="5.904230">
        <ele>54.849804</ele>
        <time>2026-05-09T15:18:41.951Z</time>
      </trkpt>
      <trkpt lat="51.876468" lon="5.904073">
        <ele>54.810963</ele>
        <time>2026-05-09T15:18:43.946Z</time>
      </trkpt>
      <trkpt lat="51.876429" lon="5.903916">
        <ele>54.785714</ele>
        <time>2026-05-09T15:18:45.948Z</time>
      </trkpt>
      <trkpt lat="51.876390" lon="5.903757">
        <ele>54.794074</ele>
        <time>2026-05-09T15:18:47.946Z</time>
      </trkpt>
      <trkpt lat="51.876353" lon="5.903613">
        <ele>54.801695</ele>
        <time>2026-05-09T15:18:49.950Z</time>
      </trkpt>
      <trkpt lat="51.876262" lon="5.903546">
        <ele>54.809606</ele>
        <time>2026-05-09T15:18:51.952Z</time>
      </trkpt>
      <trkpt lat="51.876165" lon="5.903596">
        <ele>54.817662</ele>
        <time>2026-05-09T15:18:53.949Z</time>
      </trkpt>
      <trkpt lat="51.876070" lon="5.903669">
        <ele>54.825984</ele>
        <time>2026-05-09T15:18:55.951Z</time>
      </trkpt>
      <trkpt lat="51.875976" lon="5.903729">
        <ele>54.833981</ele>
        <time>2026-05-09T15:18:57.949Z</time>
      </trkpt>
      <trkpt lat="51.875880" lon="5.903791">
        <ele>54.842160</ele>
        <time>2026-05-09T15:18:59.950Z</time>
      </trkpt>
      <trkpt lat="51.875779" lon="5.903858">
        <ele>54.850798</ele>
        <time>2026-05-09T15:19:01.948Z</time>
      </trkpt>
      <trkpt lat="51.875681" lon="5.903924">
        <ele>54.859198</ele>
        <time>2026-05-09T15:19:03.951Z</time>
      </trkpt>
      <trkpt lat="51.875578" lon="5.903991">
        <ele>54.867983</ele>
        <time>2026-05-09T15:19:05.950Z</time>
      </trkpt>
      <trkpt lat="51.875477" lon="5.904049">
        <ele>54.876464</ele>
        <time>2026-05-09T15:19:07.954Z</time>
      </trkpt>
      <trkpt lat="51.875370" lon="5.904079">
        <ele>54.885058</ele>
        <time>2026-05-09T15:19:09.948Z</time>
      </trkpt>
      <trkpt lat="51.875260" lon="5.904075">
        <ele>54.893766</ele>
        <time>2026-05-09T15:19:11.947Z</time>
      </trkpt>
      <trkpt lat="51.875159" lon="5.904075">
        <ele>54.901760</ele>
        <time>2026-05-09T15:19:13.946Z</time>
      </trkpt>
      <trkpt lat="51.875061" lon="5.904075">
        <ele>54.909516</ele>
        <time>2026-05-09T15:19:15.955Z</time>
      </trkpt>
      <trkpt lat="51.874964" lon="5.904058">
        <ele>54.917238</ele>
        <time>2026-05-09T15:19:17.946Z</time>
      </trkpt>
      <trkpt lat="51.874844" lon="5.903981">
        <ele>54.929931</ele>
        <time>2026-05-09T15:19:20.953Z</time>
      </trkpt>
      <trkpt lat="51.874767" lon="5.903829">
        <ele>54.952843</ele>
        <time>2026-05-09T15:19:23.944Z</time>
      </trkpt>
      <trkpt lat="51.874801" lon="5.903616">
        <ele>54.978480</ele>
        <time>2026-05-09T15:19:26.946Z</time>
      </trkpt>
      <trkpt lat="51.874805" lon="5.903459">
        <ele>54.996791</ele>
        <time>2026-05-09T15:19:28.951Z</time>
      </trkpt>
      <trkpt lat="51.874812" lon="5.903301">
        <ele>55.015250</ele>
        <time>2026-05-09T15:19:30.950Z</time>
      </trkpt>
      <trkpt lat="51.874827" lon="5.903140">
        <ele>55.034224</ele>
        <time>2026-05-09T15:19:32.951Z</time>
      </trkpt>
      <trkpt lat="51.874854" lon="5.902976">
        <ele>55.054003</ele>
        <time>2026-05-09T15:19:34.951Z</time>
      </trkpt>
      <trkpt lat="51.874875" lon="5.902799">
        <ele>55.075006</ele>
        <time>2026-05-09T15:19:36.951Z</time>
      </trkpt>
      <trkpt lat="51.874885" lon="5.902612">
        <ele>55.096879</ele>
        <time>2026-05-09T15:19:38.947Z</time>
      </trkpt>
      <trkpt lat="51.874892" lon="5.902420">
        <ele>55.119291</ele>
        <time>2026-05-09T15:19:40.949Z</time>
      </trkpt>
      <trkpt lat="51.874897" lon="5.902226">
        <ele>55.141918</ele>
        <time>2026-05-09T15:19:42.949Z</time>
      </trkpt>
      <trkpt lat="51.874899" lon="5.902028">
        <ele>55.164994</ele>
        <time>2026-05-09T15:19:44.950Z</time>
      </trkpt>
      <trkpt lat="51.874894" lon="5.901825">
        <ele>55.188668</ele>
        <time>2026-05-09T15:19:46.957Z</time>
      </trkpt>
      <trkpt lat="51.874889" lon="5.901627">
        <ele>55.211761</ele>
        <time>2026-05-09T15:19:48.948Z</time>
      </trkpt>
      <trkpt lat="51.874876" lon="5.901440">
        <ele>55.233689</ele>
        <time>2026-05-09T15:19:50.950Z</time>
      </trkpt>
      <trkpt lat="51.874863" lon="5.901255">
        <ele>55.255387</ele>
        <time>2026-05-09T15:19:52.948Z</time>
      </trkpt>
      <trkpt lat="51.874845" lon="5.901065">
        <ele>55.261914</ele>
        <time>2026-05-09T15:19:54.947Z</time>
      </trkpt>
      <trkpt lat="51.874826" lon="5.900875">
        <ele>55.256156</ele>
        <time>2026-05-09T15:19:56.949Z</time>
      </trkpt>
      <trkpt lat="51.874803" lon="5.900683">
        <ele>55.250306</ele>
        <time>2026-05-09T15:19:58.947Z</time>
      </trkpt>
      <trkpt lat="51.874784" lon="5.900491">
        <ele>55.244490</ele>
        <time>2026-05-09T15:20:00.947Z</time>
      </trkpt>
      <trkpt lat="51.874762" lon="5.900313">
        <ele>55.239060</ele>
        <time>2026-05-09T15:20:02.948Z</time>
      </trkpt>
      <trkpt lat="51.874740" lon="5.900137">
        <ele>55.233688</ele>
        <time>2026-05-09T15:20:04.950Z</time>
      </trkpt>
      <trkpt lat="51.874720" lon="5.899958">
        <ele>55.228247</ele>
        <time>2026-05-09T15:20:06.947Z</time>
      </trkpt>
      <trkpt lat="51.874697" lon="5.899776">
        <ele>55.222690</ele>
        <time>2026-05-09T15:20:08.950Z</time>
      </trkpt>
      <trkpt lat="51.874670" lon="5.899594">
        <ele>55.217091</ele>
        <time>2026-05-09T15:20:10.958Z</time>
      </trkpt>
      <trkpt lat="51.874643" lon="5.899415">
        <ele>55.211579</ele>
        <time>2026-05-09T15:20:12.946Z</time>
      </trkpt>
      <trkpt lat="51.874619" lon="5.899226">
        <ele>55.205808</ele>
        <time>2026-05-09T15:20:14.944Z</time>
      </trkpt>
      <trkpt lat="51.874597" lon="5.899035">
        <ele>55.199996</ele>
        <time>2026-05-09T15:20:16.953Z</time>
      </trkpt>
      <trkpt lat="51.874576" lon="5.898845">
        <ele>55.194222</ele>
        <time>2026-05-09T15:20:18.952Z</time>
      </trkpt>
      <trkpt lat="51.874554" lon="5.898655">
        <ele>55.188440</ele>
        <time>2026-05-09T15:20:20.947Z</time>
      </trkpt>
      <trkpt lat="51.874525" lon="5.898473">
        <ele>55.182817</ele>
        <time>2026-05-09T15:20:22.946Z</time>
      </trkpt>
      <trkpt lat="51.874501" lon="5.898289">
        <ele>55.179309</ele>
        <time>2026-05-09T15:20:24.947Z</time>
      </trkpt>
      <trkpt lat="51.874479" lon="5.898099">
        <ele>55.188460</ele>
        <time>2026-05-09T15:20:26.950Z</time>
      </trkpt>
      <trkpt lat="51.874452" lon="5.897911">
        <ele>55.197598</ele>
        <time>2026-05-09T15:20:28.951Z</time>
      </trkpt>
      <trkpt lat="51.874429" lon="5.897718">
        <ele>55.206903</ele>
        <time>2026-05-09T15:20:30.952Z</time>
      </trkpt>
      <trkpt lat="51.874405" lon="5.897535">
        <ele>55.215759</ele>
        <time>2026-05-09T15:20:32.952Z</time>
      </trkpt>
      <trkpt lat="51.874380" lon="5.897360">
        <ele>55.224262</ele>
        <time>2026-05-09T15:20:34.953Z</time>
      </trkpt>
      <trkpt lat="51.874358" lon="5.897178">
        <ele>55.233041</ele>
        <time>2026-05-09T15:20:36.945Z</time>
      </trkpt>
      <trkpt lat="51.874335" lon="5.896987">
        <ele>55.242253</ele>
        <time>2026-05-09T15:20:38.951Z</time>
      </trkpt>
      <trkpt lat="51.874310" lon="5.896794">
        <ele>55.251589</ele>
        <time>2026-05-09T15:20:40.950Z</time>
      </trkpt>
      <trkpt lat="51.874289" lon="5.896599">
        <ele>55.260959</ele>
        <time>2026-05-09T15:20:42.949Z</time>
      </trkpt>
      <trkpt lat="51.874263" lon="5.896408">
        <ele>55.270218</ele>
        <time>2026-05-09T15:20:44.948Z</time>
      </trkpt>
      <trkpt lat="51.874241" lon="5.896216">
        <ele>55.279462</ele>
        <time>2026-05-09T15:20:46.950Z</time>
      </trkpt>
      <trkpt lat="51.874220" lon="5.896026">
        <ele>55.288600</ele>
        <time>2026-05-09T15:20:48.956Z</time>
      </trkpt>
      <trkpt lat="51.874192" lon="5.895836">
        <ele>55.297847</ele>
        <time>2026-05-09T15:20:50.955Z</time>
      </trkpt>
      <trkpt lat="51.874167" lon="5.895641">
        <ele>55.307275</ele>
        <time>2026-05-09T15:20:52.949Z</time>
      </trkpt>
      <trkpt lat="51.874140" lon="5.895443">
        <ele>55.318128</ele>
        <time>2026-05-09T15:20:54.950Z</time>
      </trkpt>
      <trkpt lat="51.874112" lon="5.895249">
        <ele>55.340014</ele>
        <time>2026-05-09T15:20:56.951Z</time>
      </trkpt>
      <trkpt lat="51.874088" lon="5.895057">
        <ele>55.361534</ele>
        <time>2026-05-09T15:20:58.951Z</time>
      </trkpt>
      <trkpt lat="51.874059" lon="5.894863">
        <ele>55.383462</ele>
        <time>2026-05-09T15:21:00.954Z</time>
      </trkpt>
      <trkpt lat="51.874031" lon="5.894666">
        <ele>55.405669</ele>
        <time>2026-05-09T15:21:02.953Z</time>
      </trkpt>
      <trkpt lat="51.874003" lon="5.894467">
        <ele>55.428091</ele>
        <time>2026-05-09T15:21:04.955Z</time>
      </trkpt>
      <trkpt lat="51.873970" lon="5.894272">
        <ele>55.450303</ele>
        <time>2026-05-09T15:21:06.950Z</time>
      </trkpt>
      <trkpt lat="51.873941" lon="5.894063">
        <ele>55.473835</ele>
        <time>2026-05-09T15:21:08.950Z</time>
      </trkpt>
      <trkpt lat="51.873914" lon="5.893845">
        <ele>55.498261</ele>
        <time>2026-05-09T15:21:10.954Z</time>
      </trkpt>
      <trkpt lat="51.873884" lon="5.893630">
        <ele>55.522476</ele>
        <time>2026-05-09T15:21:12.949Z</time>
      </trkpt>
      <trkpt lat="51.873867" lon="5.893424">
        <ele>55.545307</ele>
        <time>2026-05-09T15:21:14.947Z</time>
      </trkpt>
      <trkpt lat="51.873846" lon="5.893217">
        <ele>55.568352</ele>
        <time>2026-05-09T15:21:16.949Z</time>
      </trkpt>
      <trkpt lat="51.873824" lon="5.893011">
        <ele>55.591319</ele>
        <time>2026-05-09T15:21:18.951Z</time>
      </trkpt>
      <trkpt lat="51.873794" lon="5.892811">
        <ele>55.613929</ele>
        <time>2026-05-09T15:21:20.953Z</time>
      </trkpt>
      <trkpt lat="51.873769" lon="5.892613">
        <ele>55.636069</ele>
        <time>2026-05-09T15:21:22.947Z</time>
      </trkpt>
      <trkpt lat="51.873745" lon="5.892415">
        <ele>55.650019</ele>
        <time>2026-05-09T15:21:24.952Z</time>
      </trkpt>
      <trkpt lat="51.873717" lon="5.892227">
        <ele>55.663390</ele>
        <time>2026-05-09T15:21:26.951Z</time>
      </trkpt>
      <trkpt lat="51.873689" lon="5.892043">
        <ele>55.676492</ele>
        <time>2026-05-09T15:21:28.950Z</time>
      </trkpt>
      <trkpt lat="51.873665" lon="5.891868">
        <ele>55.688886</ele>
        <time>2026-05-09T15:21:30.945Z</time>
      </trkpt>
      <trkpt lat="51.873639" lon="5.891695">
        <ele>55.701196</ele>
        <time>2026-05-09T15:21:32.950Z</time>
      </trkpt>
      <trkpt lat="51.873619" lon="5.891517">
        <ele>55.713705</ele>
        <time>2026-05-09T15:21:34.949Z</time>
      </trkpt>
      <trkpt lat="51.873596" lon="5.891340">
        <ele>55.726210</ele>
        <time>2026-05-09T15:21:36.957Z</time>
      </trkpt>
      <trkpt lat="51.873565" lon="5.891166">
        <ele>55.738731</ele>
        <time>2026-05-09T15:21:38.948Z</time>
      </trkpt>
      <trkpt lat="51.873515" lon="5.891003">
        <ele>55.751315</ele>
        <time>2026-05-09T15:21:40.956Z</time>
      </trkpt>
      <trkpt lat="51.873459" lon="5.890844">
        <ele>55.763971</ele>
        <time>2026-05-09T15:21:42.944Z</time>
      </trkpt>
      <trkpt lat="51.873388" lon="5.890693">
        <ele>55.777093</ele>
        <time>2026-05-09T15:21:44.947Z</time>
      </trkpt>
      <trkpt lat="51.873308" lon="5.890555">
        <ele>55.790181</ele>
        <time>2026-05-09T15:21:46.947Z</time>
      </trkpt>
      <trkpt lat="51.873224" lon="5.890422">
        <ele>55.803335</ele>
        <time>2026-05-09T15:21:48.949Z</time>
      </trkpt>
      <trkpt lat="51.873142" lon="5.890301">
        <ele>55.815757</ele>
        <time>2026-05-09T15:21:50.947Z</time>
      </trkpt>
      <trkpt lat="51.873059" lon="5.890171">
        <ele>55.828687</ele>
        <time>2026-05-09T15:21:52.945Z</time>
      </trkpt>
      <trkpt lat="51.872974" lon="5.890038">
        <ele>55.819232</ele>
        <time>2026-05-09T15:21:54.948Z</time>
      </trkpt>
      <trkpt lat="51.872888" lon="5.889903">
        <ele>55.765637</ele>
        <time>2026-05-09T15:21:56.947Z</time>
      </trkpt>
      <trkpt lat="51.872801" lon="5.889765">
        <ele>55.711143</ele>
        <time>2026-05-09T15:21:58.947Z</time>
      </trkpt>
      <trkpt lat="51.872709" lon="5.889630">
        <ele>55.655589</ele>
        <time>2026-05-09T15:22:00.946Z</time>
      </trkpt>
      <trkpt lat="51.872622" lon="5.889496">
        <ele>55.601862</ele>
        <time>2026-05-09T15:22:02.946Z</time>
      </trkpt>
      <trkpt lat="51.872534" lon="5.889362">
        <ele>55.547811</ele>
        <time>2026-05-09T15:22:04.956Z</time>
      </trkpt>
      <trkpt lat="51.872444" lon="5.889225">
        <ele>55.492539</ele>
        <time>2026-05-09T15:22:06.945Z</time>
      </trkpt>
      <trkpt lat="51.872356" lon="5.889087">
        <ele>55.437724</ele>
        <time>2026-05-09T15:22:08.945Z</time>
      </trkpt>
      <trkpt lat="51.872269" lon="5.888953">
        <ele>55.383997</ele>
        <time>2026-05-09T15:22:10.953Z</time>
      </trkpt>
      <trkpt lat="51.872188" lon="5.888817">
        <ele>55.331787</ele>
        <time>2026-05-09T15:22:12.952Z</time>
      </trkpt>
      <trkpt lat="51.872106" lon="5.888685">
        <ele>55.280050</ele>
        <time>2026-05-09T15:22:14.946Z</time>
      </trkpt>
      <trkpt lat="51.872021" lon="5.888552">
        <ele>55.227160</ele>
        <time>2026-05-09T15:22:16.952Z</time>
      </trkpt>
      <trkpt lat="51.871935" lon="5.888415">
        <ele>55.173178</ele>
        <time>2026-05-09T15:22:18.949Z</time>
      </trkpt>
      <trkpt lat="51.871846" lon="5.888283">
        <ele>55.119174</ele>
        <time>2026-05-09T15:22:20.947Z</time>
      </trkpt>
      <trkpt lat="51.871758" lon="5.888152">
        <ele>55.065686</ele>
        <time>2026-05-09T15:22:22.951Z</time>
      </trkpt>
      <trkpt lat="51.871674" lon="5.888021">
        <ele>55.035456</ele>
        <time>2026-05-09T15:22:24.950Z</time>
      </trkpt>
      <trkpt lat="51.871592" lon="5.887888">
        <ele>55.043621</ele>
        <time>2026-05-09T15:22:26.950Z</time>
      </trkpt>
      <trkpt lat="51.871503" lon="5.887756">
        <ele>55.052112</ele>
        <time>2026-05-09T15:22:28.950Z</time>
      </trkpt>
      <trkpt lat="51.871417" lon="5.887618">
        <ele>55.060629</ele>
        <time>2026-05-09T15:22:30.950Z</time>
      </trkpt>
      <trkpt lat="51.871330" lon="5.887483">
        <ele>55.069106</ele>
        <time>2026-05-09T15:22:32.948Z</time>
      </trkpt>
      <trkpt lat="51.871238" lon="5.887349">
        <ele>55.077811</ele>
        <time>2026-05-09T15:22:34.949Z</time>
      </trkpt>
      <trkpt lat="51.871154" lon="5.887218">
        <ele>55.086016</ele>
        <time>2026-05-09T15:22:36.950Z</time>
      </trkpt>
      <trkpt lat="51.871068" lon="5.887086">
        <ele>55.094352</ele>
        <time>2026-05-09T15:22:38.945Z</time>
      </trkpt>
      <trkpt lat="51.870986" lon="5.886947">
        <ele>55.102703</ele>
        <time>2026-05-09T15:22:40.948Z</time>
      </trkpt>
      <trkpt lat="51.870897" lon="5.886809">
        <ele>55.111372</ele>
        <time>2026-05-09T15:22:42.947Z</time>
      </trkpt>
      <trkpt lat="51.870813" lon="5.886681">
        <ele>55.119487</ele>
        <time>2026-05-09T15:22:44.953Z</time>
      </trkpt>
      <trkpt lat="51.870728" lon="5.886550">
        <ele>55.127742</ele>
        <time>2026-05-09T15:22:46.955Z</time>
      </trkpt>
      <trkpt lat="51.870642" lon="5.886416">
        <ele>55.136138</ele>
        <time>2026-05-09T15:22:48.949Z</time>
      </trkpt>
      <trkpt lat="51.870553" lon="5.886283">
        <ele>55.144658</ele>
        <time>2026-05-09T15:22:50.949Z</time>
      </trkpt>
      <trkpt lat="51.870472" lon="5.886149">
        <ele>55.152805</ele>
        <time>2026-05-09T15:22:52.946Z</time>
      </trkpt>
      <trkpt lat="51.870386" lon="5.886020">
        <ele>55.201988</ele>
        <time>2026-05-09T15:22:54.946Z</time>
      </trkpt>
      <trkpt lat="51.870300" lon="5.885891">
        <ele>55.376453</ele>
        <time>2026-05-09T15:22:56.953Z</time>
      </trkpt>
      <trkpt lat="51.870216" lon="5.885756">
        <ele>55.552585</ele>
        <time>2026-05-09T15:22:58.952Z</time>
      </trkpt>
      <trkpt lat="51.870122" lon="5.885621">
        <ele>55.739577</ele>
        <time>2026-05-09T15:23:00.954Z</time>
      </trkpt>
      <trkpt lat="51.870030" lon="5.885482">
        <ele>55.926840</ele>
        <time>2026-05-09T15:23:02.945Z</time>
      </trkpt>
      <trkpt lat="51.869942" lon="5.885342">
        <ele>56.110438</ele>
        <time>2026-05-09T15:23:04.953Z</time>
      </trkpt>
      <trkpt lat="51.869853" lon="5.885201">
        <ele>56.295742</ele>
        <time>2026-05-09T15:23:06.946Z</time>
      </trkpt>
      <trkpt lat="51.869766" lon="5.885065">
        <ele>56.475710</ele>
        <time>2026-05-09T15:23:08.948Z</time>
      </trkpt>
      <trkpt lat="51.869685" lon="5.884921">
        <ele>56.654727</ele>
        <time>2026-05-09T15:23:10.948Z</time>
      </trkpt>
      <trkpt lat="51.869602" lon="5.884779">
        <ele>56.834423</ele>
        <time>2026-05-09T15:23:12.946Z</time>
      </trkpt>
      <trkpt lat="51.869515" lon="5.884638">
        <ele>57.017612</ele>
        <time>2026-05-09T15:23:14.947Z</time>
      </trkpt>
      <trkpt lat="51.869434" lon="5.884514">
        <ele>57.183505</ele>
        <time>2026-05-09T15:23:16.945Z</time>
      </trkpt>
      <trkpt lat="51.869371" lon="5.884406">
        <ele>57.320046</ele>
        <time>2026-05-09T15:23:18.946Z</time>
      </trkpt>
      <trkpt lat="51.869295" lon="5.884255">
        <ele>57.499078</ele>
        <time>2026-05-09T15:23:21.951Z</time>
      </trkpt>
      <trkpt lat="51.869227" lon="5.884142">
        <ele>57.644088</ele>
        <time>2026-05-09T15:23:24.946Z</time>
      </trkpt>
      <trkpt lat="51.869138" lon="5.884094">
        <ele>57.783705</ele>
        <time>2026-05-09T15:23:27.949Z</time>
      </trkpt>
      <trkpt lat="51.869022" lon="5.884124">
        <ele>57.878830</ele>
        <time>2026-05-09T15:23:30.949Z</time>
      </trkpt>
      <trkpt lat="51.868892" lon="5.884160">
        <ele>57.947356</ele>
        <time>2026-05-09T15:23:33.948Z</time>
      </trkpt>
      <trkpt lat="51.868800" lon="5.884184">
        <ele>57.995774</ele>
        <time>2026-05-09T15:23:35.946Z</time>
      </trkpt>
      <trkpt lat="51.868706" lon="5.884211">
        <ele>58.045377</ele>
        <time>2026-05-09T15:23:37.948Z</time>
      </trkpt>
      <trkpt lat="51.868613" lon="5.884240">
        <ele>58.094585</ele>
        <time>2026-05-09T15:23:39.947Z</time>
      </trkpt>
      <trkpt lat="51.868487" lon="5.884275">
        <ele>58.161009</ele>
        <time>2026-05-09T15:23:42.950Z</time>
      </trkpt>
      <trkpt lat="51.868370" lon="5.884320">
        <ele>58.223491</ele>
        <time>2026-05-09T15:23:45.949Z</time>
      </trkpt>
      <trkpt lat="51.868266" lon="5.884329">
        <ele>58.277604</ele>
        <time>2026-05-09T15:23:48.958Z</time>
      </trkpt>
      <trkpt lat="51.868173" lon="5.884388">
        <ele>58.329501</ele>
        <time>2026-05-09T15:23:51.949Z</time>
      </trkpt>
      <trkpt lat="51.868055" lon="5.884436">
        <ele>58.392716</ele>
        <time>2026-05-09T15:23:54.950Z</time>
      </trkpt>
      <trkpt lat="51.867925" lon="5.884476">
        <ele>58.461470</ele>
        <time>2026-05-09T15:23:57.954Z</time>
      </trkpt>
      <trkpt lat="51.867835" lon="5.884498">
        <ele>58.508762</ele>
        <time>2026-05-09T15:23:59.951Z</time>
      </trkpt>
      <trkpt lat="51.867743" lon="5.884522">
        <ele>58.557180</ele>
        <time>2026-05-09T15:24:01.954Z</time>
      </trkpt>
      <trkpt lat="51.867654" lon="5.884549">
        <ele>58.604227</ele>
        <time>2026-05-09T15:24:03.951Z</time>
      </trkpt>
      <trkpt lat="51.867565" lon="5.884575">
        <ele>58.651216</ele>
        <time>2026-05-09T15:24:05.951Z</time>
      </trkpt>
      <trkpt lat="51.867473" lon="5.884596">
        <ele>58.699490</ele>
        <time>2026-05-09T15:24:07.954Z</time>
      </trkpt>
      <trkpt lat="51.867345" lon="5.884589">
        <ele>58.766034</ele>
        <time>2026-05-09T15:24:10.948Z</time>
      </trkpt>
      <trkpt lat="51.867226" lon="5.884551">
        <ele>58.803578</ele>
        <time>2026-05-09T15:24:13.953Z</time>
      </trkpt>
      <trkpt lat="51.867120" lon="5.884493">
        <ele>58.836365</ele>
        <time>2026-05-09T15:24:16.950Z</time>
      </trkpt>
      <trkpt lat="51.867014" lon="5.884378">
        <ele>58.873754</ele>
        <time>2026-05-09T15:24:19.945Z</time>
      </trkpt>
      <trkpt lat="51.866918" lon="5.884232">
        <ele>58.912347</ele>
        <time>2026-05-09T15:24:22.953Z</time>
      </trkpt>
      <trkpt lat="51.866832" lon="5.884064">
        <ele>58.951834</ele>
        <time>2026-05-09T15:24:25.948Z</time>
      </trkpt>
      <trkpt lat="51.866767" lon="5.883949">
        <ele>58.980045</ele>
        <time>2026-05-09T15:24:27.944Z</time>
      </trkpt>
      <trkpt lat="51.866700" lon="5.883834">
        <ele>59.008655</ele>
        <time>2026-05-09T15:24:29.950Z</time>
      </trkpt>
      <trkpt lat="51.866603" lon="5.883677">
        <ele>59.048843</ele>
        <time>2026-05-09T15:24:32.965Z</time>
      </trkpt>
      <trkpt lat="51.866532" lon="5.883577">
        <ele>59.076418</ele>
        <time>2026-05-09T15:24:34.946Z</time>
      </trkpt>
      <trkpt lat="51.866465" lon="5.883466">
        <ele>59.104506</ele>
        <time>2026-05-09T15:24:36.948Z</time>
      </trkpt>
      <trkpt lat="51.866406" lon="5.883342">
        <ele>59.132832</ele>
        <time>2026-05-09T15:24:38.948Z</time>
      </trkpt>
      <trkpt lat="51.866348" lon="5.883219">
        <ele>59.160837</ele>
        <time>2026-05-09T15:24:40.947Z</time>
      </trkpt>
      <trkpt lat="51.866294" lon="5.883098">
        <ele>59.187852</ele>
        <time>2026-05-09T15:24:42.954Z</time>
      </trkpt>
      <trkpt lat="51.866234" lon="5.882975">
        <ele>59.216217</ele>
        <time>2026-05-09T15:24:44.946Z</time>
      </trkpt>
      <trkpt lat="51.866174" lon="5.882852">
        <ele>59.244581</ele>
        <time>2026-05-09T15:24:46.945Z</time>
      </trkpt>
      <trkpt lat="51.866114" lon="5.882725">
        <ele>59.273517</ele>
        <time>2026-05-09T15:24:48.953Z</time>
      </trkpt>
      <trkpt lat="51.866050" lon="5.882597">
        <ele>59.294693</ele>
        <time>2026-05-09T15:24:50.946Z</time>
      </trkpt>
      <trkpt lat="51.865985" lon="5.882473">
        <ele>59.278931</ele>
        <time>2026-05-09T15:24:52.943Z</time>
      </trkpt>
      <trkpt lat="51.865919" lon="5.882348">
        <ele>59.262993</ele>
        <time>2026-05-09T15:24:54.952Z</time>
      </trkpt>
      <trkpt lat="51.865844" lon="5.882232">
        <ele>59.246718</ele>
        <time>2026-05-09T15:24:56.950Z</time>
      </trkpt>
      <trkpt lat="51.865774" lon="5.882125">
        <ele>59.231612</ele>
        <time>2026-05-09T15:24:58.952Z</time>
      </trkpt>
      <trkpt lat="51.865702" lon="5.882015">
        <ele>59.216079</ele>
        <time>2026-05-09T15:25:00.946Z</time>
      </trkpt>
      <trkpt lat="51.865627" lon="5.881913">
        <ele>59.200709</ele>
        <time>2026-05-09T15:25:02.947Z</time>
      </trkpt>
      <trkpt lat="51.865545" lon="5.881814">
        <ele>59.184658</ele>
        <time>2026-05-09T15:25:04.946Z</time>
      </trkpt>
      <trkpt lat="51.865465" lon="5.881719">
        <ele>59.169090</ele>
        <time>2026-05-09T15:25:06.951Z</time>
      </trkpt>
      <trkpt lat="51.865383" lon="5.881615">
        <ele>59.152745</ele>
        <time>2026-05-09T15:25:08.948Z</time>
      </trkpt>
      <trkpt lat="51.865302" lon="5.881506">
        <ele>59.136217</ele>
        <time>2026-05-09T15:25:10.950Z</time>
      </trkpt>
      <trkpt lat="51.865216" lon="5.881414">
        <ele>59.120043</ele>
        <time>2026-05-09T15:25:12.950Z</time>
      </trkpt>
      <trkpt lat="51.865138" lon="5.881302">
        <ele>59.103683</ele>
        <time>2026-05-09T15:25:14.951Z</time>
      </trkpt>
      <trkpt lat="51.865071" lon="5.881166">
        <ele>59.086824</ele>
        <time>2026-05-09T15:25:16.950Z</time>
      </trkpt>
      <trkpt lat="51.865013" lon="5.881014">
        <ele>59.069508</ele>
        <time>2026-05-09T15:25:18.946Z</time>
      </trkpt>
      <trkpt lat="51.864973" lon="5.880850">
        <ele>59.052421</ele>
        <time>2026-05-09T15:25:20.945Z</time>
      </trkpt>
      <trkpt lat="51.864960" lon="5.880684">
        <ele>59.036205</ele>
        <time>2026-05-09T15:25:22.947Z</time>
      </trkpt>
      <trkpt lat="51.864953" lon="5.880519">
        <ele>59.020178</ele>
        <time>2026-05-09T15:25:24.952Z</time>
      </trkpt>
      <trkpt lat="51.864941" lon="5.880346">
        <ele>59.014687</ele>
        <time>2026-05-09T15:25:26.949Z</time>
      </trkpt>
      <trkpt lat="51.864909" lon="5.880173">
        <ele>59.013601</ele>
        <time>2026-05-09T15:25:28.948Z</time>
      </trkpt>
      <trkpt lat="51.864855" lon="5.880015">
        <ele>59.012516</ele>
        <time>2026-05-09T15:25:30.954Z</time>
      </trkpt>
      <trkpt lat="51.864787" lon="5.879886">
        <ele>59.011496</ele>
        <time>2026-05-09T15:25:32.947Z</time>
      </trkpt>
      <trkpt lat="51.864698" lon="5.879784">
        <ele>59.010434</ele>
        <time>2026-05-09T15:25:34.947Z</time>
      </trkpt>
      <trkpt lat="51.864605" lon="5.879717">
        <ele>59.009443</ele>
        <time>2026-05-09T15:25:36.948Z</time>
      </trkpt>
      <trkpt lat="51.864513" lon="5.879676">
        <ele>59.008514</ele>
        <time>2026-05-09T15:25:38.947Z</time>
      </trkpt>
      <trkpt lat="51.864418" lon="5.879641">
        <ele>59.007565</ele>
        <time>2026-05-09T15:25:40.953Z</time>
      </trkpt>
      <trkpt lat="51.864316" lon="5.879615">
        <ele>59.006560</ele>
        <time>2026-05-09T15:25:42.952Z</time>
      </trkpt>
      <trkpt lat="51.864215" lon="5.879598">
        <ele>59.005571</ele>
        <time>2026-05-09T15:25:44.952Z</time>
      </trkpt>
      <trkpt lat="51.864107" lon="5.879589">
        <ele>59.004518</ele>
        <time>2026-05-09T15:25:46.954Z</time>
      </trkpt>
      <trkpt lat="51.864002" lon="5.879537">
        <ele>59.003449</ele>
        <time>2026-05-09T15:25:48.949Z</time>
      </trkpt>
      <trkpt lat="51.863902" lon="5.879457">
        <ele>59.002363</ele>
        <time>2026-05-09T15:25:50.951Z</time>
      </trkpt>
      <trkpt lat="51.863815" lon="5.879355">
        <ele>59.001317</ele>
        <time>2026-05-09T15:25:52.951Z</time>
      </trkpt>
      <trkpt lat="51.863730" lon="5.879239">
        <ele>59.000235</ele>
        <time>2026-05-09T15:25:54.946Z</time>
      </trkpt>
      <trkpt lat="51.863641" lon="5.879124">
        <ele>58.999126</ele>
        <time>2026-05-09T15:25:56.945Z</time>
      </trkpt>
      <trkpt lat="51.863555" lon="5.879007">
        <ele>58.998033</ele>
        <time>2026-05-09T15:25:58.949Z</time>
      </trkpt>
      <trkpt lat="51.863473" lon="5.878889">
        <ele>58.942456</ele>
        <time>2026-05-09T15:26:00.950Z</time>
      </trkpt>
      <trkpt lat="51.863399" lon="5.878783">
        <ele>58.887009</ele>
        <time>2026-05-09T15:26:02.951Z</time>
      </trkpt>
      <trkpt lat="51.863324" lon="5.878672">
        <ele>58.829986</ele>
        <time>2026-05-09T15:26:04.945Z</time>
      </trkpt>
      <trkpt lat="51.863250" lon="5.878555">
        <ele>58.771943</ele>
        <time>2026-05-09T15:26:06.952Z</time>
      </trkpt>
      <trkpt lat="51.863173" lon="5.878441">
        <ele>58.713390</ele>
        <time>2026-05-09T15:26:08.949Z</time>
      </trkpt>
      <trkpt lat="51.863111" lon="5.878299">
        <ele>58.653117</ele>
        <time>2026-05-09T15:26:10.948Z</time>
      </trkpt>
      <trkpt lat="51.863064" lon="5.878134">
        <ele>58.590141</ele>
        <time>2026-05-09T15:26:12.948Z</time>
      </trkpt>
      <trkpt lat="51.863026" lon="5.877963">
        <ele>58.527156</ele>
        <time>2026-05-09T15:26:14.950Z</time>
      </trkpt>
      <trkpt lat="51.862993" lon="5.877790">
        <ele>58.464403</ele>
        <time>2026-05-09T15:26:16.949Z</time>
      </trkpt>
      <trkpt lat="51.862963" lon="5.877625">
        <ele>58.404790</ele>
        <time>2026-05-09T15:26:18.947Z</time>
      </trkpt>
      <trkpt lat="51.862922" lon="5.877472">
        <ele>58.346986</ele>
        <time>2026-05-09T15:26:20.947Z</time>
      </trkpt>
      <trkpt lat="51.862880" lon="5.877331">
        <ele>58.292731</ele>
        <time>2026-05-09T15:26:23.944Z</time>
      </trkpt>
      <trkpt lat="51.862823" lon="5.877201">
        <ele>58.237474</ele>
        <time>2026-05-09T15:26:27.946Z</time>
      </trkpt>
      <trkpt lat="51.862749" lon="5.877051">
        <ele>58.170935</ele>
        <time>2026-05-09T15:26:30.949Z</time>
      </trkpt>
      <trkpt lat="51.862639" lon="5.876930">
        <ele>58.096304</ele>
        <time>2026-05-09T15:26:33.947Z</time>
      </trkpt>
      <trkpt lat="51.862552" lon="5.876877">
        <ele>58.044137</ele>
        <time>2026-05-09T15:26:35.949Z</time>
      </trkpt>
      <trkpt lat="51.862459" lon="5.876835">
        <ele>57.989951</ele>
        <time>2026-05-09T15:26:37.958Z</time>
      </trkpt>
      <trkpt lat="51.862353" lon="5.876795">
        <ele>57.711379</ele>
        <time>2026-05-09T15:26:39.953Z</time>
      </trkpt>
      <trkpt lat="51.862234" lon="5.876737">
        <ele>57.387218</ele>
        <time>2026-05-09T15:26:41.954Z</time>
      </trkpt>
      <trkpt lat="51.862101" lon="5.876671">
        <ele>57.024369</ele>
        <time>2026-05-09T15:26:43.952Z</time>
      </trkpt>
      <trkpt lat="51.861954" lon="5.876600">
        <ele>56.624234</ele>
        <time>2026-05-09T15:26:45.952Z</time>
      </trkpt>
      <trkpt lat="51.861798" lon="5.876510">
        <ele>56.192261</ele>
        <time>2026-05-09T15:26:47.952Z</time>
      </trkpt>
      <trkpt lat="51.861633" lon="5.876427">
        <ele>55.741578</ele>
        <time>2026-05-09T15:26:49.947Z</time>
      </trkpt>
      <trkpt lat="51.861483" lon="5.876347">
        <ele>55.329634</ele>
        <time>2026-05-09T15:26:51.948Z</time>
      </trkpt>
      <trkpt lat="51.861335" lon="5.876273">
        <ele>54.925599</ele>
        <time>2026-05-09T15:26:53.950Z</time>
      </trkpt>
      <trkpt lat="51.861182" lon="5.876213">
        <ele>54.514969</ele>
        <time>2026-05-09T15:26:55.951Z</time>
      </trkpt>
      <trkpt lat="51.861028" lon="5.876165">
        <ele>54.105894</ele>
        <time>2026-05-09T15:26:57.947Z</time>
      </trkpt>
      <trkpt lat="51.860876" lon="5.876121">
        <ele>53.703124</ele>
        <time>2026-05-09T15:26:59.950Z</time>
      </trkpt>
      <trkpt lat="51.860732" lon="5.876093">
        <ele>53.324809</ele>
        <time>2026-05-09T15:27:01.950Z</time>
      </trkpt>
      <trkpt lat="51.860606" lon="5.876060">
        <ele>53.282037</ele>
        <time>2026-05-09T15:27:03.947Z</time>
      </trkpt>
      <trkpt lat="51.860493" lon="5.876034">
        <ele>53.267601</ele>
        <time>2026-05-09T15:27:05.951Z</time>
      </trkpt>
      <trkpt lat="51.860381" lon="5.876016">
        <ele>53.253366</ele>
        <time>2026-05-09T15:27:07.951Z</time>
      </trkpt>
      <trkpt lat="51.860266" lon="5.875968">
        <ele>53.238345</ele>
        <time>2026-05-09T15:27:09.949Z</time>
      </trkpt>
      <trkpt lat="51.860153" lon="5.875889">
        <ele>53.222777</ele>
        <time>2026-05-09T15:27:11.951Z</time>
      </trkpt>
      <trkpt lat="51.860034" lon="5.875808">
        <ele>53.206450</ele>
        <time>2026-05-09T15:27:13.953Z</time>
      </trkpt>
      <trkpt lat="51.859926" lon="5.875717">
        <ele>53.191051</ele>
        <time>2026-05-09T15:27:15.949Z</time>
      </trkpt>
      <trkpt lat="51.859824" lon="5.875619">
        <ele>53.176050</ele>
        <time>2026-05-09T15:27:17.953Z</time>
      </trkpt>
      <trkpt lat="51.859723" lon="5.875510">
        <ele>53.160698</ele>
        <time>2026-05-09T15:27:19.949Z</time>
      </trkpt>
      <trkpt lat="51.859617" lon="5.875393">
        <ele>53.144472</ele>
        <time>2026-05-09T15:27:21.947Z</time>
      </trkpt>
      <trkpt lat="51.859508" lon="5.875286">
        <ele>53.128350</ele>
        <time>2026-05-09T15:27:23.947Z</time>
      </trkpt>
      <trkpt lat="51.859392" lon="5.875188">
        <ele>53.111801</ele>
        <time>2026-05-09T15:27:25.955Z</time>
      </trkpt>
      <trkpt lat="51.859277" lon="5.875117">
        <ele>53.096235</ele>
        <time>2026-05-09T15:27:27.949Z</time>
      </trkpt>
      <trkpt lat="51.859162" lon="5.875054">
        <ele>53.080879</ele>
        <time>2026-05-09T15:27:29.946Z</time>
      </trkpt>
      <trkpt lat="51.859051" lon="5.874990">
        <ele>53.073416</ele>
        <time>2026-05-09T15:27:31.955Z</time>
      </trkpt>
      <trkpt lat="51.858944" lon="5.874931">
        <ele>53.090843</ele>
        <time>2026-05-09T15:27:33.945Z</time>
      </trkpt>
      <trkpt lat="51.858842" lon="5.874871">
        <ele>53.107573</ele>
        <time>2026-05-09T15:27:35.955Z</time>
      </trkpt>
      <trkpt lat="51.858737" lon="5.874821">
        <ele>53.124446</ele>
        <time>2026-05-09T15:27:37.955Z</time>
      </trkpt>
      <trkpt lat="51.858632" lon="5.874765">
        <ele>53.141489</ele>
        <time>2026-05-09T15:27:39.955Z</time>
      </trkpt>
      <trkpt lat="51.858526" lon="5.874703">
        <ele>53.158864</ele>
        <time>2026-05-09T15:27:41.946Z</time>
      </trkpt>
      <trkpt lat="51.858422" lon="5.874645">
        <ele>53.175822</ele>
        <time>2026-05-09T15:27:43.951Z</time>
      </trkpt>
      <trkpt lat="51.858320" lon="5.874586">
        <ele>53.192520</ele>
        <time>2026-05-09T15:27:45.952Z</time>
      </trkpt>
      <trkpt lat="51.858216" lon="5.874536">
        <ele>53.209245</ele>
        <time>2026-05-09T15:27:47.946Z</time>
      </trkpt>
      <trkpt lat="51.858116" lon="5.874485">
        <ele>53.225409</ele>
        <time>2026-05-09T15:27:49.954Z</time>
      </trkpt>
      <trkpt lat="51.858013" lon="5.874433">
        <ele>53.242042</ele>
        <time>2026-05-09T15:27:51.951Z</time>
      </trkpt>
      <trkpt lat="51.857911" lon="5.874373">
        <ele>53.258772</ele>
        <time>2026-05-09T15:27:53.955Z</time>
      </trkpt>
      <trkpt lat="51.857810" lon="5.874319">
        <ele>53.275170</ele>
        <time>2026-05-09T15:27:55.945Z</time>
      </trkpt>
      <trkpt lat="51.857705" lon="5.874264">
        <ele>53.292184</ele>
        <time>2026-05-09T15:27:57.950Z</time>
      </trkpt>
      <trkpt lat="51.857604" lon="5.874211">
        <ele>53.308552</ele>
        <time>2026-05-09T15:27:59.957Z</time>
      </trkpt>
      <trkpt lat="51.857503" lon="5.874164">
        <ele>53.324753</ele>
        <time>2026-05-09T15:28:01.947Z</time>
      </trkpt>
      <trkpt lat="51.857400" lon="5.874123">
        <ele>53.341105</ele>
        <time>2026-05-09T15:28:03.950Z</time>
      </trkpt>
      <trkpt lat="51.857292" lon="5.874082">
        <ele>53.472686</ele>
        <time>2026-05-09T15:28:05.949Z</time>
      </trkpt>
      <trkpt lat="51.857182" lon="5.874046">
        <ele>53.660927</ele>
        <time>2026-05-09T15:28:07.951Z</time>
      </trkpt>
      <trkpt lat="51.857073" lon="5.874017">
        <ele>53.846211</ele>
        <time>2026-05-09T15:28:09.950Z</time>
      </trkpt>
      <trkpt lat="51.856966" lon="5.873986">
        <ele>54.028539</ele>
        <time>2026-05-09T15:28:11.957Z</time>
      </trkpt>
      <trkpt lat="51.856863" lon="5.873950">
        <ele>54.205287</ele>
        <time>2026-05-09T15:28:13.951Z</time>
      </trkpt>
      <trkpt lat="51.856758" lon="5.873903">
        <ele>54.388016</ele>
        <time>2026-05-09T15:28:15.954Z</time>
      </trkpt>
      <trkpt lat="51.856652" lon="5.873856">
        <ele>54.572363</ele>
        <time>2026-05-09T15:28:17.954Z</time>
      </trkpt>
      <trkpt lat="51.856549" lon="5.873806">
        <ele>54.752729</ele>
        <time>2026-05-09T15:28:19.946Z</time>
      </trkpt>
      <trkpt lat="51.856449" lon="5.873756">
        <ele>54.928281</ele>
        <time>2026-05-09T15:28:21.949Z</time>
      </trkpt>
      <trkpt lat="51.856356" lon="5.873707">
        <ele>55.092328</ele>
        <time>2026-05-09T15:28:23.945Z</time>
      </trkpt>
      <trkpt lat="51.856269" lon="5.873668">
        <ele>55.243748</ele>
        <time>2026-05-09T15:28:25.945Z</time>
      </trkpt>
      <trkpt lat="51.856147" lon="5.873603">
        <ele>55.459181</ele>
        <time>2026-05-09T15:28:28.950Z</time>
      </trkpt>
      <trkpt lat="51.856029" lon="5.873546">
        <ele>55.665731</ele>
        <time>2026-05-09T15:28:31.947Z</time>
      </trkpt>
      <trkpt lat="51.855917" lon="5.873481">
        <ele>55.865299</ele>
        <time>2026-05-09T15:28:34.953Z</time>
      </trkpt>
      <trkpt lat="51.855804" lon="5.873421">
        <ele>56.064773</ele>
        <time>2026-05-09T15:28:37.959Z</time>
      </trkpt>
      <trkpt lat="51.855693" lon="5.873361">
        <ele>56.261063</ele>
        <time>2026-05-09T15:28:40.946Z</time>
      </trkpt>
      <trkpt lat="51.855586" lon="5.873305">
        <ele>56.445112</ele>
        <time>2026-05-09T15:28:43.954Z</time>
      </trkpt>
      <trkpt lat="51.855489" lon="5.873239">
        <ele>56.612227</ele>
        <time>2026-05-09T15:28:46.951Z</time>
      </trkpt>
      <trkpt lat="51.855395" lon="5.873175">
        <ele>56.774189</ele>
        <time>2026-05-09T15:28:49.950Z</time>
      </trkpt>
      <trkpt lat="51.855304" lon="5.873100">
        <ele>56.936372</ele>
        <time>2026-05-09T15:28:52.949Z</time>
      </trkpt>
      <trkpt lat="51.855208" lon="5.873015">
        <ele>57.110158</ele>
        <time>2026-05-09T15:28:55.945Z</time>
      </trkpt>
      <trkpt lat="51.855114" lon="5.872922">
        <ele>57.285125</ele>
        <time>2026-05-09T15:28:58.952Z</time>
      </trkpt>
      <trkpt lat="51.855019" lon="5.872824">
        <ele>57.464037</ele>
        <time>2026-05-09T15:29:01.953Z</time>
      </trkpt>
      <trkpt lat="51.854926" lon="5.872718">
        <ele>57.644678</ele>
        <time>2026-05-09T15:29:04.949Z</time>
      </trkpt>
      <trkpt lat="51.854845" lon="5.872603">
        <ele>57.815788</ele>
        <time>2026-05-09T15:29:07.947Z</time>
      </trkpt>
      <trkpt lat="51.854781" lon="5.872484">
        <ele>57.970581</ele>
        <time>2026-05-09T15:29:10.948Z</time>
      </trkpt>
      <trkpt lat="51.854697" lon="5.872348">
        <ele>58.159261</ele>
        <time>2026-05-09T15:29:14.947Z</time>
      </trkpt>
      <trkpt lat="51.854621" lon="5.872241">
        <ele>58.319227</ele>
        <time>2026-05-09T15:29:19.952Z</time>
      </trkpt>
      <trkpt lat="51.854586" lon="5.871986">
        <ele>58.575488</ele>
        <time>2026-05-09T15:30:12.955Z</time>
      </trkpt>
      <trkpt lat="51.854535" lon="5.871818">
        <ele>58.759128</ele>
        <time>2026-05-09T15:30:16.948Z</time>
      </trkpt>
      <trkpt lat="51.854486" lon="5.871666">
        <ele>58.927331</ele>
        <time>2026-05-09T15:30:19.948Z</time>
      </trkpt>
      <trkpt lat="51.854440" lon="5.871525">
        <ele>59.083764</ele>
        <time>2026-05-09T15:30:22.951Z</time>
      </trkpt>
      <trkpt lat="51.854391" lon="5.871375">
        <ele>59.284090</ele>
        <time>2026-05-09T15:30:25.949Z</time>
      </trkpt>
      <trkpt lat="51.854350" lon="5.871221">
        <ele>59.634961</ele>
        <time>2026-05-09T15:30:28.949Z</time>
      </trkpt>
      <trkpt lat="51.854308" lon="5.871071">
        <ele>59.979547</ele>
        <time>2026-05-09T15:30:31.951Z</time>
      </trkpt>
      <trkpt lat="51.854264" lon="5.870918">
        <ele>60.332666</ele>
        <time>2026-05-09T15:30:34.957Z</time>
      </trkpt>
      <trkpt lat="51.854222" lon="5.870754">
        <ele>60.704128</ele>
        <time>2026-05-09T15:30:37.952Z</time>
      </trkpt>
      <trkpt lat="51.854178" lon="5.870593">
        <ele>61.072489</ele>
        <time>2026-05-09T15:30:40.945Z</time>
      </trkpt>
      <trkpt lat="51.854136" lon="5.870442">
        <ele>61.418983</ele>
        <time>2026-05-09T15:30:43.951Z</time>
      </trkpt>
      <trkpt lat="51.854109" lon="5.870283">
        <ele>61.764003</ele>
        <time>2026-05-09T15:30:46.948Z</time>
      </trkpt>
      <trkpt lat="51.854077" lon="5.870127">
        <ele>62.107931</ele>
        <time>2026-05-09T15:30:49.950Z</time>
      </trkpt>
      <trkpt lat="51.854052" lon="5.869975">
        <ele>62.437044</ele>
        <time>2026-05-09T15:30:52.948Z</time>
      </trkpt>
      <trkpt lat="51.854024" lon="5.869831">
        <ele>62.752913</ele>
        <time>2026-05-09T15:30:55.948Z</time>
      </trkpt>
      <trkpt lat="51.853986" lon="5.869698">
        <ele>63.059520</ele>
        <time>2026-05-09T15:30:58.945Z</time>
      </trkpt>
      <trkpt lat="51.854016" lon="5.869481">
        <ele>63.524785</ele>
        <time>2026-05-09T15:31:43.955Z</time>
      </trkpt>
      <trkpt lat="51.854126" lon="5.869465">
        <ele>63.898903</ele>
        <time>2026-05-09T15:31:48.954Z</time>
      </trkpt>
      <trkpt lat="51.854216" lon="5.869434">
        <ele>64.210596</ele>
        <time>2026-05-09T15:31:53.951Z</time>
      </trkpt>
      <trkpt lat="51.854315" lon="5.869391">
        <ele>64.557811</ele>
        <time>2026-05-09T15:31:59.946Z</time>
      </trkpt>
      <trkpt lat="51.854409" lon="5.869348">
        <ele>64.888696</ele>
        <time>2026-05-09T15:32:05.953Z</time>
      </trkpt>
      <trkpt lat="51.854502" lon="5.869296">
        <ele>65.221986</ele>
        <time>2026-05-09T15:32:10.946Z</time>
      </trkpt>
      <trkpt lat="51.854587" lon="5.869240">
        <ele>65.490927</ele>
        <time>2026-05-09T15:32:15.951Z</time>
      </trkpt>
      <trkpt lat="51.854683" lon="5.869178">
        <ele>65.774246</ele>
        <time>2026-05-09T15:32:21.947Z</time>
      </trkpt>
      <trkpt lat="51.854765" lon="5.869116">
        <ele>66.022327</ele>
        <time>2026-05-09T15:32:27.949Z</time>
      </trkpt>
      <trkpt lat="51.854726" lon="5.869294">
        <ele>66.342101</ele>
        <time>2026-05-09T15:33:23.946Z</time>
      </trkpt>
      <trkpt lat="51.854639" lon="5.869342">
        <ele>66.594051</ele>
        <time>2026-05-09T15:33:26.950Z</time>
      </trkpt>
      <trkpt lat="51.854546" lon="5.869394">
        <ele>66.863757</ele>
        <time>2026-05-09T15:33:29.950Z</time>
      </trkpt>
      <trkpt lat="51.854437" lon="5.869463">
        <ele>67.184573</ele>
        <time>2026-05-09T15:33:33.953Z</time>
      </trkpt>
      <trkpt lat="51.854348" lon="5.869517">
        <ele>67.445108</ele>
        <time>2026-05-09T15:33:36.949Z</time>
      </trkpt>
      <trkpt lat="51.854247" lon="5.869580">
        <ele>67.741805</ele>
        <time>2026-05-09T15:33:39.948Z</time>
      </trkpt>
      <trkpt lat="51.854140" lon="5.869657">
        <ele>68.062782</ele>
        <time>2026-05-09T15:33:42.945Z</time>
      </trkpt>
      <trkpt lat="51.854031" lon="5.869715">
        <ele>68.377295</ele>
        <time>2026-05-09T15:33:45.955Z</time>
      </trkpt>
      <trkpt lat="51.853934" lon="5.869739">
        <ele>68.646277</ele>
        <time>2026-05-09T15:33:48.947Z</time>
      </trkpt>
      <trkpt lat="51.853826" lon="5.869841">
        <ele>68.989016</ele>
        <time>2026-05-09T15:34:53.952Z</time>
      </trkpt>
      <trkpt lat="51.853729" lon="5.869883">
        <ele>69.264257</ele>
        <time>2026-05-09T15:34:57.944Z</time>
      </trkpt>
      <trkpt lat="51.853618" lon="5.869944">
        <ele>69.585580</ele>
        <time>2026-05-09T15:35:01.947Z</time>
      </trkpt>
      <trkpt lat="51.853527" lon="5.869991">
        <ele>69.847414</ele>
        <time>2026-05-09T15:35:04.950Z</time>
      </trkpt>
      <trkpt lat="51.853431" lon="5.870039">
        <ele>70.122832</ele>
        <time>2026-05-09T15:35:07.951Z</time>
      </trkpt>
      <trkpt lat="51.853331" lon="5.870093">
        <ele>70.294459</ele>
        <time>2026-05-09T15:35:10.949Z</time>
      </trkpt>
      <trkpt lat="51.853228" lon="5.870148">
        <ele>70.384426</ele>
        <time>2026-05-09T15:35:13.945Z</time>
      </trkpt>
      <trkpt lat="51.853127" lon="5.870205">
        <ele>70.473151</ele>
        <time>2026-05-09T15:35:16.948Z</time>
      </trkpt>
      <trkpt lat="51.853025" lon="5.870253">
        <ele>70.561263</ele>
        <time>2026-05-09T15:35:19.948Z</time>
      </trkpt>
      <trkpt lat="51.852924" lon="5.870306">
        <ele>70.649335</ele>
        <time>2026-05-09T15:35:22.948Z</time>
      </trkpt>
      <trkpt lat="51.852822" lon="5.870359">
        <ele>70.738196</ele>
        <time>2026-05-09T15:35:25.950Z</time>
      </trkpt>
      <trkpt lat="51.852716" lon="5.870415">
        <ele>70.830687</ele>
        <time>2026-05-09T15:35:28.949Z</time>
      </trkpt>
      <trkpt lat="51.852613" lon="5.870472">
        <ele>70.920980</ele>
        <time>2026-05-09T15:35:31.948Z</time>
      </trkpt>
      <trkpt lat="51.852502" lon="5.870529">
        <ele>71.017577</ele>
        <time>2026-05-09T15:35:34.948Z</time>
      </trkpt>
      <trkpt lat="51.852392" lon="5.870577">
        <ele>71.112079</ele>
        <time>2026-05-09T15:35:37.946Z</time>
      </trkpt>
      <trkpt lat="51.852278" lon="5.870629">
        <ele>71.210325</ele>
        <time>2026-05-09T15:35:40.953Z</time>
      </trkpt>
      <trkpt lat="51.852169" lon="5.870692">
        <ele>71.306332</ele>
        <time>2026-05-09T15:35:43.947Z</time>
      </trkpt>
      <trkpt lat="51.852060" lon="5.870746">
        <ele>71.400887</ele>
        <time>2026-05-09T15:35:46.946Z</time>
      </trkpt>
      <trkpt lat="51.851944" lon="5.870806">
        <ele>71.501902</ele>
        <time>2026-05-09T15:35:49.949Z</time>
      </trkpt>
      <trkpt lat="51.851812" lon="5.870867">
        <ele>71.615771</ele>
        <time>2026-05-09T15:35:52.947Z</time>
      </trkpt>
      <trkpt lat="51.851726" lon="5.870914">
        <ele>71.691064</ele>
        <time>2026-05-09T15:35:54.946Z</time>
      </trkpt>
      <trkpt lat="51.851605" lon="5.870979">
        <ele>71.728898</ele>
        <time>2026-05-09T15:35:57.946Z</time>
      </trkpt>
      <trkpt lat="51.851519" lon="5.871021">
        <ele>71.720824</ele>
        <time>2026-05-09T15:35:59.950Z</time>
      </trkpt>
      <trkpt lat="51.851430" lon="5.871067">
        <ele>71.712427</ele>
        <time>2026-05-09T15:36:01.949Z</time>
      </trkpt>
      <trkpt lat="51.851339" lon="5.871109">
        <ele>71.703922</ele>
        <time>2026-05-09T15:36:03.949Z</time>
      </trkpt>
      <trkpt lat="51.851249" lon="5.871160">
        <ele>71.695351</ele>
        <time>2026-05-09T15:36:05.949Z</time>
      </trkpt>
      <trkpt lat="51.851158" lon="5.871215">
        <ele>71.686621</ele>
        <time>2026-05-09T15:36:07.950Z</time>
      </trkpt>
      <trkpt lat="51.851069" lon="5.871255">
        <ele>71.678319</ele>
        <time>2026-05-09T15:36:09.948Z</time>
      </trkpt>
      <trkpt lat="51.850946" lon="5.871320">
        <ele>71.666689</ele>
        <time>2026-05-09T15:36:12.945Z</time>
      </trkpt>
      <trkpt lat="51.850823" lon="5.871387">
        <ele>71.655025</ele>
        <time>2026-05-09T15:36:15.945Z</time>
      </trkpt>
      <trkpt lat="51.850737" lon="5.871436">
        <ele>71.646830</ele>
        <time>2026-05-09T15:36:17.949Z</time>
      </trkpt>
      <trkpt lat="51.850651" lon="5.871483">
        <ele>71.638672</ele>
        <time>2026-05-09T15:36:19.946Z</time>
      </trkpt>
      <trkpt lat="51.850563" lon="5.871524">
        <ele>71.630442</ele>
        <time>2026-05-09T15:36:21.947Z</time>
      </trkpt>
      <trkpt lat="51.850475" lon="5.871574">
        <ele>71.622059</ele>
        <time>2026-05-09T15:36:23.949Z</time>
      </trkpt>
      <trkpt lat="51.850381" lon="5.871623">
        <ele>71.613183</ele>
        <time>2026-05-09T15:36:25.944Z</time>
      </trkpt>
      <trkpt lat="51.850294" lon="5.871677">
        <ele>71.604809</ele>
        <time>2026-05-09T15:36:27.946Z</time>
      </trkpt>
      <trkpt lat="51.850171" lon="5.871757">
        <ele>71.592894</ele>
        <time>2026-05-09T15:36:30.947Z</time>
      </trkpt>
      <trkpt lat="51.850049" lon="5.871818">
        <ele>71.581418</ele>
        <time>2026-05-09T15:36:33.949Z</time>
      </trkpt>
      <trkpt lat="51.849924" lon="5.871886">
        <ele>71.570396</ele>
        <time>2026-05-09T15:36:36.947Z</time>
      </trkpt>
      <trkpt lat="51.849798" lon="5.871953">
        <ele>71.560773</ele>
        <time>2026-05-09T15:36:39.948Z</time>
      </trkpt>
      <trkpt lat="51.849710" lon="5.871994">
        <ele>71.554129</ele>
        <time>2026-05-09T15:36:41.953Z</time>
      </trkpt>
      <trkpt lat="51.849622" lon="5.872040">
        <ele>71.547419</ele>
        <time>2026-05-09T15:36:43.949Z</time>
      </trkpt>
      <trkpt lat="51.849530" lon="5.872084">
        <ele>71.540459</ele>
        <time>2026-05-09T15:36:45.950Z</time>
      </trkpt>
      <trkpt lat="51.849443" lon="5.872130">
        <ele>71.533818</ele>
        <time>2026-05-09T15:36:47.947Z</time>
      </trkpt>
      <trkpt lat="51.849318" lon="5.872192">
        <ele>71.524332</ele>
        <time>2026-05-09T15:36:50.949Z</time>
      </trkpt>
      <trkpt lat="51.849232" lon="5.872238">
        <ele>71.517761</ele>
        <time>2026-05-09T15:36:52.953Z</time>
      </trkpt>
      <trkpt lat="51.849111" lon="5.872306">
        <ele>71.508467</ele>
        <time>2026-05-09T15:36:55.947Z</time>
      </trkpt>
      <trkpt lat="51.849024" lon="5.872350">
        <ele>71.501854</ele>
        <time>2026-05-09T15:36:57.946Z</time>
      </trkpt>
      <trkpt lat="51.848933" lon="5.872399">
        <ele>71.494896</ele>
        <time>2026-05-09T15:36:59.955Z</time>
      </trkpt>
      <trkpt lat="51.848846" lon="5.872446">
        <ele>71.488241</ele>
        <time>2026-05-09T15:37:01.947Z</time>
      </trkpt>
      <trkpt lat="51.848757" lon="5.872493">
        <ele>71.481448</ele>
        <time>2026-05-09T15:37:03.951Z</time>
      </trkpt>
      <trkpt lat="51.848631" lon="5.872557">
        <ele>71.471867</ele>
        <time>2026-05-09T15:37:06.945Z</time>
      </trkpt>
      <trkpt lat="51.848508" lon="5.872617">
        <ele>71.462546</ele>
        <time>2026-05-09T15:37:09.947Z</time>
      </trkpt>
      <trkpt lat="51.848389" lon="5.872676">
        <ele>71.453516</ele>
        <time>2026-05-09T15:37:12.943Z</time>
      </trkpt>
      <trkpt lat="51.848264" lon="5.872746">
        <ele>71.443919</ele>
        <time>2026-05-09T15:37:15.950Z</time>
      </trkpt>
      <trkpt lat="51.848138" lon="5.872796">
        <ele>71.733654</ele>
        <time>2026-05-09T15:37:18.948Z</time>
      </trkpt>
      <trkpt lat="51.848013" lon="5.872841">
        <ele>72.037911</ele>
        <time>2026-05-09T15:37:21.949Z</time>
      </trkpt>
      <trkpt lat="51.847886" lon="5.872897">
        <ele>72.350659</ele>
        <time>2026-05-09T15:37:24.943Z</time>
      </trkpt>
      <trkpt lat="51.847757" lon="5.872958">
        <ele>72.669974</ele>
        <time>2026-05-09T15:37:27.947Z</time>
      </trkpt>
      <trkpt lat="51.847670" lon="5.873002">
        <ele>72.886540</ele>
        <time>2026-05-09T15:37:29.948Z</time>
      </trkpt>
      <trkpt lat="51.847583" lon="5.873051">
        <ele>73.105408</ele>
        <time>2026-05-09T15:37:31.949Z</time>
      </trkpt>
      <trkpt lat="51.847497" lon="5.873097">
        <ele>73.320611</ele>
        <time>2026-05-09T15:37:33.948Z</time>
      </trkpt>
      <trkpt lat="51.847367" lon="5.873154">
        <ele>73.640623</ele>
        <time>2026-05-09T15:37:36.946Z</time>
      </trkpt>
      <trkpt lat="51.847238" lon="5.873201">
        <ele>73.954796</ele>
        <time>2026-05-09T15:37:39.946Z</time>
      </trkpt>
      <trkpt lat="51.847151" lon="5.873239">
        <ele>74.168902</ele>
        <time>2026-05-09T15:37:41.953Z</time>
      </trkpt>
      <trkpt lat="51.847022" lon="5.873282">
        <ele>74.481838</ele>
        <time>2026-05-09T15:37:44.946Z</time>
      </trkpt>
      <trkpt lat="51.846900" lon="5.873322">
        <ele>74.777597</ele>
        <time>2026-05-09T15:37:47.947Z</time>
      </trkpt>
      <trkpt lat="51.846773" lon="5.873349">
        <ele>75.081942</ele>
        <time>2026-05-09T15:37:50.953Z</time>
      </trkpt>
      <trkpt lat="51.846640" lon="5.873372">
        <ele>75.399750</ele>
        <time>2026-05-09T15:37:53.948Z</time>
      </trkpt>
      <trkpt lat="51.846516" lon="5.873383">
        <ele>75.694817</ele>
        <time>2026-05-09T15:37:56.945Z</time>
      </trkpt>
      <trkpt lat="51.846396" lon="5.873383">
        <ele>75.939098</ele>
        <time>2026-05-09T15:37:59.948Z</time>
      </trkpt>
      <trkpt lat="51.846279" lon="5.873359">
        <ele>76.175797</ele>
        <time>2026-05-09T15:38:02.946Z</time>
      </trkpt>
      <trkpt lat="51.846165" lon="5.873311">
        <ele>76.412210</ele>
        <time>2026-05-09T15:38:05.955Z</time>
      </trkpt>
      <trkpt lat="51.846051" lon="5.873255">
        <ele>76.651312</ele>
        <time>2026-05-09T15:38:08.955Z</time>
      </trkpt>
      <trkpt lat="51.845942" lon="5.873198">
        <ele>76.881209</ele>
        <time>2026-05-09T15:38:11.948Z</time>
      </trkpt>
      <trkpt lat="51.845849" lon="5.873108">
        <ele>77.098675</ele>
        <time>2026-05-09T15:38:14.943Z</time>
      </trkpt>
      <trkpt lat="51.845796" lon="5.872990">
        <ele>77.279563</ele>
        <time>2026-05-09T15:38:17.951Z</time>
      </trkpt>
      <trkpt lat="51.845744" lon="5.872868">
        <ele>77.463339</ele>
        <time>2026-05-09T15:38:23.949Z</time>
      </trkpt>
      <trkpt lat="51.845695" lon="5.872718">
        <ele>77.673723</ele>
        <time>2026-05-09T15:39:29.955Z</time>
      </trkpt>
      <trkpt lat="51.845652" lon="5.872549">
        <ele>77.900342</ele>
        <time>2026-05-09T15:39:33.947Z</time>
      </trkpt>
      <trkpt lat="51.845660" lon="5.872377">
        <ele>78.114207</ele>
        <time>2026-05-09T15:39:37.947Z</time>
      </trkpt>
      <trkpt lat="51.845697" lon="5.872220">
        <ele>78.322554</ele>
        <time>2026-05-09T15:39:41.944Z</time>
      </trkpt>
      <trkpt lat="51.845739" lon="5.872050">
        <ele>78.549566</ele>
        <time>2026-05-09T15:39:45.943Z</time>
      </trkpt>
      <trkpt lat="51.845786" lon="5.871909">
        <ele>78.748216</ele>
        <time>2026-05-09T15:39:48.951Z</time>
      </trkpt>
      <trkpt lat="51.845836" lon="5.871783">
        <ele>78.933896</ele>
        <time>2026-05-09T15:39:51.950Z</time>
      </trkpt>
      <trkpt lat="51.845904" lon="5.871639">
        <ele>79.158626</ele>
        <time>2026-05-09T15:39:55.946Z</time>
      </trkpt>
      <trkpt lat="51.845953" lon="5.871474">
        <ele>79.322561</ele>
        <time>2026-05-09T15:39:59.950Z</time>
      </trkpt>
      <trkpt lat="51.846008" lon="5.871315">
        <ele>79.306018</ele>
        <time>2026-05-09T15:40:03.966Z</time>
      </trkpt>
      <trkpt lat="51.846070" lon="5.871173">
        <ele>79.290233</ele>
        <time>2026-05-09T15:40:07.945Z</time>
      </trkpt>
      <trkpt lat="51.846116" lon="5.870997">
        <ele>79.272885</ele>
        <time>2026-05-09T15:40:11.955Z</time>
      </trkpt>
      <trkpt lat="51.846119" lon="5.870829">
        <ele>79.257628</ele>
        <time>2026-05-09T15:40:15.955Z</time>
      </trkpt>
      <trkpt lat="51.846144" lon="5.870684">
        <ele>79.243962</ele>
        <time>2026-05-09T15:40:21.943Z</time>
      </trkpt>
      <trkpt lat="51.846181" lon="5.870538">
        <ele>79.229636</ele>
        <time>2026-05-09T15:40:29.955Z</time>
      </trkpt>
      <trkpt lat="51.846205" lon="5.870375">
        <ele>79.214424</ele>
        <time>2026-05-09T15:40:37.943Z</time>
      </trkpt>
      <trkpt lat="51.846243" lon="5.870242">
        <ele>79.201122</ele>
        <time>2026-05-09T15:40:43.944Z</time>
      </trkpt>
      <trkpt lat="51.846291" lon="5.870111">
        <ele>79.187295</ele>
        <time>2026-05-09T15:40:48.947Z</time>
      </trkpt>
      <trkpt lat="51.846322" lon="5.869960">
        <ele>79.172851</ele>
        <time>2026-05-09T15:40:54.938Z</time>
      </trkpt>
      <trkpt lat="51.846367" lon="5.869813">
        <ele>79.157958</ele>
        <time>2026-05-09T15:41:02.946Z</time>
      </trkpt>
      <trkpt lat="51.846390" lon="5.869657">
        <ele>79.143398</ele>
        <time>2026-05-09T15:41:10.953Z</time>
      </trkpt>
      <trkpt lat="51.846418" lon="5.869513">
        <ele>79.129694</ele>
        <time>2026-05-09T15:41:16.953Z</time>
      </trkpt>
      <trkpt lat="51.846442" lon="5.869349">
        <ele>79.114394</ele>
        <time>2026-05-09T15:41:23.948Z</time>
      </trkpt>
      <trkpt lat="51.846423" lon="5.869202">
        <ele>79.100761</ele>
        <time>2026-05-09T15:41:30.946Z</time>
      </trkpt>
      <trkpt lat="51.846420" lon="5.869045">
        <ele>79.086502</ele>
        <time>2026-05-09T15:41:37.946Z</time>
      </trkpt>
      <trkpt lat="51.846448" lon="5.868881">
        <ele>79.071056</ele>
        <time>2026-05-09T15:41:43.950Z</time>
      </trkpt>
      <trkpt lat="51.846506" lon="5.868744">
        <ele>79.024393</ele>
        <time>2026-05-09T15:41:48.945Z</time>
      </trkpt>
      <trkpt lat="51.846544" lon="5.868600">
        <ele>78.941949</ele>
        <time>2026-05-09T15:41:53.942Z</time>
      </trkpt>
      <trkpt lat="51.846552" lon="5.868454">
        <ele>78.864778</ele>
        <time>2026-05-09T15:41:58.948Z</time>
      </trkpt>
      <trkpt lat="51.846538" lon="5.868300">
        <ele>78.782823</ele>
        <time>2026-05-09T15:42:06.942Z</time>
      </trkpt>
      <trkpt lat="51.846545" lon="5.868133">
        <ele>78.694695</ele>
        <time>2026-05-09T15:42:15.945Z</time>
      </trkpt>
      <trkpt lat="51.846565" lon="5.867987">
        <ele>78.615958</ele>
        <time>2026-05-09T15:42:20.947Z</time>
      </trkpt>
      <trkpt lat="51.846587" lon="5.867832">
        <ele>78.532224</ele>
        <time>2026-05-09T15:42:25.945Z</time>
      </trkpt>
      <trkpt lat="51.846603" lon="5.867661">
        <ele>78.441165</ele>
        <time>2026-05-09T15:42:30.946Z</time>
      </trkpt>
      <trkpt lat="51.846608" lon="5.867504">
        <ele>78.358395</ele>
        <time>2026-05-09T15:42:35.949Z</time>
      </trkpt>
      <trkpt lat="51.846620" lon="5.867343">
        <ele>78.273013</ele>
        <time>2026-05-09T15:42:40.942Z</time>
      </trkpt>
      <trkpt lat="51.846661" lon="5.867183">
        <ele>78.181813</ele>
        <time>2026-05-09T15:42:45.949Z</time>
      </trkpt>
      <trkpt lat="51.846701" lon="5.867031">
        <ele>78.094826</ele>
        <time>2026-05-09T15:42:50.950Z</time>
      </trkpt>
      <trkpt lat="51.846747" lon="5.866873">
        <ele>78.002864</ele>
        <time>2026-05-09T15:42:56.950Z</time>
      </trkpt>
      <trkpt lat="51.846809" lon="5.866754">
        <ele>77.920903</ele>
        <time>2026-05-09T15:43:01.944Z</time>
      </trkpt>
      <trkpt lat="51.846874" lon="5.866645">
        <ele>77.841139</ele>
        <time>2026-05-09T15:43:06.949Z</time>
      </trkpt>
      <trkpt lat="51.846930" lon="5.866525">
        <ele>77.761959</ele>
        <time>2026-05-09T15:43:11.948Z</time>
      </trkpt>
      <trkpt lat="51.846978" lon="5.866378">
        <ele>77.674417</ele>
        <time>2026-05-09T15:43:16.950Z</time>
      </trkpt>
      <trkpt lat="51.846982" lon="5.866206">
        <ele>77.583796</ele>
        <time>2026-05-09T15:43:21.945Z</time>
      </trkpt>
      <trkpt lat="51.847028" lon="5.866067">
        <ele>77.485200</ele>
        <time>2026-05-09T15:43:26.946Z</time>
      </trkpt>
      <trkpt lat="51.847066" lon="5.865930">
        <ele>77.363480</ele>
        <time>2026-05-09T15:43:31.944Z</time>
      </trkpt>
      <trkpt lat="51.847110" lon="5.865780">
        <ele>77.228892</ele>
        <time>2026-05-09T15:43:38.950Z</time>
      </trkpt>
      <trkpt lat="51.847152" lon="5.865641">
        <ele>77.103475</ele>
        <time>2026-05-09T15:43:44.942Z</time>
      </trkpt>
      <trkpt lat="51.847211" lon="5.865526">
        <ele>76.982313</ele>
        <time>2026-05-09T15:43:51.948Z</time>
      </trkpt>
      <trkpt lat="51.847201" lon="5.865364">
        <ele>76.850355</ele>
        <time>2026-05-09T15:43:57.950Z</time>
      </trkpt>
      <trkpt lat="51.847206" lon="5.865199">
        <ele>76.716459</ele>
        <time>2026-05-09T15:44:05.946Z</time>
      </trkpt>
      <trkpt lat="51.847233" lon="5.865057">
        <ele>76.596037</ele>
        <time>2026-05-09T15:44:15.945Z</time>
      </trkpt>
      <trkpt lat="51.847260" lon="5.864910">
        <ele>76.471737</ele>
        <time>2026-05-09T15:44:26.942Z</time>
      </trkpt>
      <trkpt lat="51.847318" lon="5.864782">
        <ele>76.343074</ele>
        <time>2026-05-09T15:44:37.945Z</time>
      </trkpt>
      <trkpt lat="51.847344" lon="5.864642">
        <ele>76.224585</ele>
        <time>2026-05-09T15:44:46.945Z</time>
      </trkpt>
      <trkpt lat="51.847370" lon="5.864495">
        <ele>76.100652</ele>
        <time>2026-05-09T15:44:55.949Z</time>
      </trkpt>
      <trkpt lat="51.847388" lon="5.864348">
        <ele>75.979189</ele>
        <time>2026-05-09T15:45:05.947Z</time>
      </trkpt>
      <trkpt lat="51.847398" lon="5.864199">
        <ele>75.857712</ele>
        <time>2026-05-09T15:45:14.945Z</time>
      </trkpt>
      <trkpt lat="51.847481" lon="5.863948">
        <ele>75.626960</ele>
        <time>2026-05-09T15:46:11.953Z</time>
      </trkpt>
      <trkpt lat="51.847514" lon="5.863799">
        <ele>75.498667</ele>
        <time>2026-05-09T15:46:31.947Z</time>
      </trkpt>
      <trkpt lat="51.847576" lon="5.863648">
        <ele>75.351712</ele>
        <time>2026-05-09T15:47:09.943Z</time>
      </trkpt>
      <trkpt lat="51.847673" lon="5.863446">
        <ele>75.127045</ele>
        <time>2026-05-09T15:48:06.948Z</time>
      </trkpt>
      <trkpt lat="51.847731" lon="5.863328">
        <ele>74.921695</ele>
        <time>2026-05-09T15:48:13.945Z</time>
      </trkpt>
      <trkpt lat="51.847742" lon="5.863178">
        <ele>74.715994</ele>
        <time>2026-05-09T15:48:19.947Z</time>
      </trkpt>
      <trkpt lat="51.847837" lon="5.863247">
        <ele>74.486461</ele>
        <time>2026-05-09T15:48:24.950Z</time>
      </trkpt>
      <trkpt lat="51.847928" lon="5.863306">
        <ele>74.270368</ele>
        <time>2026-05-09T15:48:29.953Z</time>
      </trkpt>
      <trkpt lat="51.848008" lon="5.863389">
        <ele>74.060904</ele>
        <time>2026-05-09T15:48:35.949Z</time>
      </trkpt>
      <trkpt lat="51.848094" lon="5.863325">
        <ele>73.852251</ele>
        <time>2026-05-09T15:48:40.945Z</time>
      </trkpt>
      <trkpt lat="51.848151" lon="5.863177">
        <ele>73.614749</ele>
        <time>2026-05-09T15:48:46.949Z</time>
      </trkpt>
      <trkpt lat="51.848201" lon="5.863018">
        <ele>73.371788</ele>
        <time>2026-05-09T15:48:51.947Z</time>
      </trkpt>
      <trkpt lat="51.848242" lon="5.862868">
        <ele>73.148421</ele>
        <time>2026-05-09T15:48:56.945Z</time>
      </trkpt>
      <trkpt lat="51.848274" lon="5.862702">
        <ele>72.911617</ele>
        <time>2026-05-09T15:49:01.947Z</time>
      </trkpt>
      <trkpt lat="51.848248" lon="5.862519">
        <ele>72.655908</ele>
        <time>2026-05-09T15:49:06.953Z</time>
      </trkpt>
      <trkpt lat="51.848229" lon="5.862372">
        <ele>72.451393</ele>
        <time>2026-05-09T15:49:09.945Z</time>
      </trkpt>
      <trkpt lat="51.848204" lon="5.862200">
        <ele>72.210773</ele>
        <time>2026-05-09T15:49:13.944Z</time>
      </trkpt>
      <trkpt lat="51.848166" lon="5.862066">
        <ele>72.009988</ele>
        <time>2026-05-09T15:49:17.948Z</time>
      </trkpt>
      <trkpt lat="51.847996" lon="5.862006">
        <ele>71.626435</ele>
        <time>2026-05-09T15:50:07.949Z</time>
      </trkpt>
      <trkpt lat="51.847894" lon="5.861962">
        <ele>71.393738</ele>
        <time>2026-05-09T15:50:12.951Z</time>
      </trkpt>
      <trkpt lat="51.847813" lon="5.862026">
        <ele>71.202806</ele>
        <time>2026-05-09T15:50:16.957Z</time>
      </trkpt>
      <trkpt lat="51.847766" lon="5.862155">
        <ele>71.160602</ele>
        <time>2026-05-09T15:50:21.959Z</time>
      </trkpt>
      <trkpt lat="51.847734" lon="5.862300">
        <ele>71.117213</ele>
        <time>2026-05-09T15:50:27.951Z</time>
      </trkpt>
      <trkpt lat="51.847723" lon="5.862460">
        <ele>71.071846</ele>
        <time>2026-05-09T15:50:33.949Z</time>
      </trkpt>
      <trkpt lat="51.847705" lon="5.862622">
        <ele>71.025463</ele>
        <time>2026-05-09T15:50:39.942Z</time>
      </trkpt>
      <trkpt lat="51.847683" lon="5.862771">
        <ele>70.982292</ele>
        <time>2026-05-09T15:50:46.948Z</time>
      </trkpt>
      <trkpt lat="51.847698" lon="5.862925">
        <ele>70.938359</ele>
        <time>2026-05-09T15:50:52.944Z</time>
      </trkpt>
      <trkpt lat="51.847715" lon="5.863094">
        <ele>70.890108</ele>
        <time>2026-05-09T15:50:58.953Z</time>
      </trkpt>
      <trkpt lat="51.847735" lon="5.863253">
        <ele>70.844382</ele>
        <time>2026-05-09T15:51:04.941Z</time>
      </trkpt>
      <trkpt lat="51.847712" lon="5.863415">
        <ele>70.797541</ele>
        <time>2026-05-09T15:51:11.950Z</time>
      </trkpt>
      <trkpt lat="51.847621" lon="5.863471">
        <ele>70.753131</ele>
        <time>2026-05-09T15:51:17.946Z</time>
      </trkpt>
      <trkpt lat="51.847536" lon="5.863411">
        <ele>70.710831</ele>
        <time>2026-05-09T15:51:22.950Z</time>
      </trkpt>
      <trkpt lat="51.847446" lon="5.863347">
        <ele>70.665990</ele>
        <time>2026-05-09T15:51:27.947Z</time>
      </trkpt>
      <trkpt lat="51.847349" lon="5.863395">
        <ele>70.619720</ele>
        <time>2026-05-09T15:51:33.947Z</time>
      </trkpt>
      <trkpt lat="51.847250" lon="5.863342">
        <ele>70.572154</ele>
        <time>2026-05-09T15:51:38.947Z</time>
      </trkpt>
      <trkpt lat="51.847168" lon="5.863240">
        <ele>70.524980</ele>
        <time>2026-05-09T15:51:42.946Z</time>
      </trkpt>
      <trkpt lat="51.847080" lon="5.863182">
        <ele>70.481638</ele>
        <time>2026-05-09T15:51:45.946Z</time>
      </trkpt>
      <trkpt lat="51.846997" lon="5.863080">
        <ele>70.434101</ele>
        <time>2026-05-09T15:51:48.940Z</time>
      </trkpt>
      <trkpt lat="51.846922" lon="5.862987">
        <ele>70.391004</ele>
        <time>2026-05-09T15:51:51.945Z</time>
      </trkpt>
      <trkpt lat="51.846827" lon="5.862999">
        <ele>70.424574</ele>
        <time>2026-05-09T15:51:57.945Z</time>
      </trkpt>
      <trkpt lat="51.846755" lon="5.863107">
        <ele>70.473499</ele>
        <time>2026-05-09T15:52:01.941Z</time>
      </trkpt>
      <trkpt lat="51.846687" lon="5.863247">
        <ele>70.528334</ele>
        <time>2026-05-09T15:52:05.946Z</time>
      </trkpt>
      <trkpt lat="51.846637" lon="5.863377">
        <ele>70.575486</ele>
        <time>2026-05-09T15:52:09.949Z</time>
      </trkpt>
      <trkpt lat="51.846573" lon="5.863506">
        <ele>70.626429</ele>
        <time>2026-05-09T15:52:13.945Z</time>
      </trkpt>
      <trkpt lat="51.846489" lon="5.863559">
        <ele>70.671365</ele>
        <time>2026-05-09T15:52:18.944Z</time>
      </trkpt>
      <trkpt lat="51.846398" lon="5.863541">
        <ele>70.717058</ele>
        <time>2026-05-09T15:52:22.945Z</time>
      </trkpt>
      <trkpt lat="51.846269" lon="5.863632">
        <ele>70.787195</ele>
        <time>2026-05-09T15:52:30.945Z</time>
      </trkpt>
      <trkpt lat="51.846184" lon="5.863734">
        <ele>70.839932</ele>
        <time>2026-05-09T15:52:32.943Z</time>
      </trkpt>
      <trkpt lat="51.846106" lon="5.863833">
        <ele>70.889335</ele>
        <time>2026-05-09T15:52:35.954Z</time>
      </trkpt>
      <trkpt lat="51.846005" lon="5.863801">
        <ele>70.940630</ele>
        <time>2026-05-09T15:52:39.948Z</time>
      </trkpt>
      <trkpt lat="51.845907" lon="5.863716">
        <ele>70.996045</ele>
        <time>2026-05-09T15:52:43.945Z</time>
      </trkpt>
      <trkpt lat="51.845814" lon="5.863753">
        <ele>71.043778</ele>
        <time>2026-05-09T15:52:55.951Z</time>
      </trkpt>
      <trkpt lat="51.845762" lon="5.863887">
        <ele>71.092503</ele>
        <time>2026-05-09T15:53:04.945Z</time>
      </trkpt>
      <trkpt lat="51.845687" lon="5.863968">
        <ele>71.137441</ele>
        <time>2026-05-09T15:53:15.941Z</time>
      </trkpt>
      <trkpt lat="51.845632" lon="5.864102">
        <ele>71.186978</ele>
        <time>2026-05-09T15:53:23.942Z</time>
      </trkpt>
      <trkpt lat="51.845603" lon="5.864260">
        <ele>71.237731</ele>
        <time>2026-05-09T15:53:31.947Z</time>
      </trkpt>
      <trkpt lat="51.845566" lon="5.864415">
        <ele>71.300839</ele>
        <time>2026-05-09T15:53:38.947Z</time>
      </trkpt>
      <trkpt lat="51.845523" lon="5.864555">
        <ele>71.420248</ele>
        <time>2026-05-09T15:53:44.944Z</time>
      </trkpt>
      <trkpt lat="51.845429" lon="5.864570">
        <ele>71.537020</ele>
        <time>2026-05-09T15:53:51.938Z</time>
      </trkpt>
      <trkpt lat="51.845347" lon="5.864486">
        <ele>71.656988</ele>
        <time>2026-05-09T15:53:56.946Z</time>
      </trkpt>
      <trkpt lat="51.845247" lon="5.864451">
        <ele>71.783471</ele>
        <time>2026-05-09T15:54:03.951Z</time>
      </trkpt>
      <trkpt lat="51.845166" lon="5.864376">
        <ele>71.898833</ele>
        <time>2026-05-09T15:54:08.948Z</time>
      </trkpt>
      <trkpt lat="51.845078" lon="5.864304">
        <ele>72.020732</ele>
        <time>2026-05-09T15:54:14.945Z</time>
      </trkpt>
      <trkpt lat="51.845049" lon="5.864145">
        <ele>72.147350</ele>
        <time>2026-05-09T15:54:22.948Z</time>
      </trkpt>
      <trkpt lat="51.845104" lon="5.863989">
        <ele>72.284531</ele>
        <time>2026-05-09T15:54:28.947Z</time>
      </trkpt>
      <trkpt lat="51.845169" lon="5.863853">
        <ele>72.415855</ele>
        <time>2026-05-09T15:54:33.949Z</time>
      </trkpt>
      <trkpt lat="51.845238" lon="5.863717">
        <ele>72.550263</ele>
        <time>2026-05-09T15:54:38.947Z</time>
      </trkpt>
      <trkpt lat="51.845288" lon="5.863595">
        <ele>72.662078</ele>
        <time>2026-05-09T15:54:45.953Z</time>
      </trkpt>
      <trkpt lat="51.845241" lon="5.863422">
        <ele>72.806418</ele>
        <time>2026-05-09T15:55:54.953Z</time>
      </trkpt>
      <trkpt lat="51.845166" lon="5.863329">
        <ele>72.923217</ele>
        <time>2026-05-09T15:56:01.945Z</time>
      </trkpt>
      <trkpt lat="51.845083" lon="5.863231">
        <ele>73.050224</ele>
        <time>2026-05-09T15:56:07.946Z</time>
      </trkpt>
      <trkpt lat="51.844997" lon="5.863133">
        <ele>73.180246</ele>
        <time>2026-05-09T15:56:13.952Z</time>
      </trkpt>
      <trkpt lat="51.844921" lon="5.863051">
        <ele>73.293161</ele>
        <time>2026-05-09T15:56:18.946Z</time>
      </trkpt>
      <trkpt lat="51.844839" lon="5.862944">
        <ele>73.423372</ele>
        <time>2026-05-09T15:56:24.942Z</time>
      </trkpt>
      <trkpt lat="51.844760" lon="5.862866">
        <ele>73.510711</ele>
        <time>2026-05-09T15:56:29.946Z</time>
      </trkpt>
      <trkpt lat="51.844672" lon="5.862778">
        <ele>73.534839</ele>
        <time>2026-05-09T15:56:34.952Z</time>
      </trkpt>
      <trkpt lat="51.844599" lon="5.862667">
        <ele>73.558202</ele>
        <time>2026-05-09T15:56:39.948Z</time>
      </trkpt>
      <trkpt lat="51.844528" lon="5.862572">
        <ele>73.579690</ele>
        <time>2026-05-09T15:56:44.947Z</time>
      </trkpt>
      <trkpt lat="51.844455" lon="5.862486">
        <ele>73.600750</ele>
        <time>2026-05-09T15:56:52.944Z</time>
      </trkpt>
      <trkpt lat="51.844382" lon="5.862385">
        <ele>73.623151</ele>
        <time>2026-05-09T15:56:59.947Z</time>
      </trkpt>
      <trkpt lat="51.844303" lon="5.862296">
        <ele>73.645603</ele>
        <time>2026-05-09T15:57:05.943Z</time>
      </trkpt>
      <trkpt lat="51.844229" lon="5.862197">
        <ele>73.667997</ele>
        <time>2026-05-09T15:57:11.945Z</time>
      </trkpt>
      <trkpt lat="51.844159" lon="5.862102">
        <ele>73.689305</ele>
        <time>2026-05-09T15:57:17.948Z</time>
      </trkpt>
      <trkpt lat="51.844073" lon="5.861993">
        <ele>73.714784</ele>
        <time>2026-05-09T15:57:23.947Z</time>
      </trkpt>
      <trkpt lat="51.843989" lon="5.861901">
        <ele>73.738442</ele>
        <time>2026-05-09T15:57:28.950Z</time>
      </trkpt>
      <trkpt lat="51.843906" lon="5.861800">
        <ele>73.762664</ele>
        <time>2026-05-09T15:57:34.958Z</time>
      </trkpt>
      <trkpt lat="51.843834" lon="5.861709">
        <ele>73.783972</ele>
        <time>2026-05-09T15:57:40.950Z</time>
      </trkpt>
      <trkpt lat="51.843766" lon="5.861614">
        <ele>73.804925</ele>
        <time>2026-05-09T15:57:46.943Z</time>
      </trkpt>
      <trkpt lat="51.843694" lon="5.861514">
        <ele>73.827055</ele>
        <time>2026-05-09T15:57:53.956Z</time>
      </trkpt>
      <trkpt lat="51.843614" lon="5.861419">
        <ele>73.850200</ele>
        <time>2026-05-09T15:58:00.946Z</time>
      </trkpt>
      <trkpt lat="51.843540" lon="5.861299">
        <ele>73.874633</ele>
        <time>2026-05-09T15:58:06.946Z</time>
      </trkpt>
      <trkpt lat="51.843471" lon="5.861190">
        <ele>73.897123</ele>
        <time>2026-05-09T15:58:12.946Z</time>
      </trkpt>
      <trkpt lat="51.843397" lon="5.861058">
        <ele>73.922810</ele>
        <time>2026-05-09T15:58:17.950Z</time>
      </trkpt>
      <trkpt lat="51.843333" lon="5.860932">
        <ele>73.927349</ele>
        <time>2026-05-09T15:58:22.955Z</time>
      </trkpt>
      <trkpt lat="51.843305" lon="5.860758">
        <ele>73.931266</ele>
        <time>2026-05-09T15:58:27.945Z</time>
      </trkpt>
      <trkpt lat="51.843241" lon="5.860607">
        <ele>73.935254</ele>
        <time>2026-05-09T15:58:32.947Z</time>
      </trkpt>
      <trkpt lat="51.843166" lon="5.860487">
        <ele>73.938972</ele>
        <time>2026-05-09T15:58:36.957Z</time>
      </trkpt>
      <trkpt lat="51.843072" lon="5.860366">
        <ele>73.943207</ele>
        <time>2026-05-09T15:58:40.960Z</time>
      </trkpt>
      <trkpt lat="51.843002" lon="5.860265">
        <ele>73.946513</ele>
        <time>2026-05-09T15:58:43.950Z</time>
      </trkpt>
      <trkpt lat="51.842915" lon="5.860138">
        <ele>73.950643</ele>
        <time>2026-05-09T15:58:47.947Z</time>
      </trkpt>
      <trkpt lat="51.842830" lon="5.860022">
        <ele>73.954563</ele>
        <time>2026-05-09T15:58:51.948Z</time>
      </trkpt>
      <trkpt lat="51.842754" lon="5.859918">
        <ele>73.958072</ele>
        <time>2026-05-09T15:58:55.949Z</time>
      </trkpt>
      <trkpt lat="51.842759" lon="5.859735">
        <ele>73.962061</ele>
        <time>2026-05-09T15:59:00.944Z</time>
      </trkpt>
      <trkpt lat="51.842790" lon="5.859574">
        <ele>73.965735</ele>
        <time>2026-05-09T15:59:04.946Z</time>
      </trkpt>
      <trkpt lat="51.842802" lon="5.859401">
        <ele>73.969527</ele>
        <time>2026-05-09T15:59:08.946Z</time>
      </trkpt>
      <trkpt lat="51.842796" lon="5.859233">
        <ele>73.973192</ele>
        <time>2026-05-09T15:59:12.945Z</time>
      </trkpt>
      <trkpt lat="51.842770" lon="5.859060">
        <ele>73.977070</ele>
        <time>2026-05-09T15:59:16.947Z</time>
      </trkpt>
      <trkpt lat="51.842737" lon="5.858918">
        <ele>73.980375</ele>
        <time>2026-05-09T15:59:20.947Z</time>
      </trkpt>
      <trkpt lat="51.842615" lon="5.858630">
        <ele>73.974611</ele>
        <time>2026-05-09T16:00:04.948Z</time>
      </trkpt>
      <trkpt lat="51.842528" lon="5.858538">
        <ele>73.896157</ele>
        <time>2026-05-09T16:00:08.948Z</time>
      </trkpt>
      <trkpt lat="51.842452" lon="5.858458">
        <ele>73.827716</ele>
        <time>2026-05-09T16:00:12.948Z</time>
      </trkpt>
      <trkpt lat="51.842366" lon="5.858391">
        <ele>73.755663</ele>
        <time>2026-05-09T16:00:16.947Z</time>
      </trkpt>
      <trkpt lat="51.842295" lon="5.858257">
        <ele>73.673327</ele>
        <time>2026-05-09T16:00:21.954Z</time>
      </trkpt>
      <trkpt lat="51.842279" lon="5.858082">
        <ele>73.590815</ele>
        <time>2026-05-09T16:00:26.951Z</time>
      </trkpt>
      <trkpt lat="51.842289" lon="5.857925">
        <ele>73.517199</ele>
        <time>2026-05-09T16:00:30.951Z</time>
      </trkpt>
      <trkpt lat="51.842291" lon="5.857774">
        <ele>73.446753</ele>
        <time>2026-05-09T16:00:34.946Z</time>
      </trkpt>
      <trkpt lat="51.842297" lon="5.857600">
        <ele>73.365470</ele>
        <time>2026-05-09T16:00:38.945Z</time>
      </trkpt>
      <trkpt lat="51.842315" lon="5.857412">
        <ele>73.276737</ele>
        <time>2026-05-09T16:00:42.950Z</time>
      </trkpt>
      <trkpt lat="51.842348" lon="5.857240">
        <ele>73.192734</ele>
        <time>2026-05-09T16:00:46.942Z</time>
      </trkpt>
      <trkpt lat="51.842375" lon="5.857069">
        <ele>73.110413</ele>
        <time>2026-05-09T16:00:50.938Z</time>
      </trkpt>
      <trkpt lat="51.842382" lon="5.856894">
        <ele>73.028619</ele>
        <time>2026-05-09T16:00:54.949Z</time>
      </trkpt>
      <trkpt lat="51.842390" lon="5.856714">
        <ele>72.944447</ele>
        <time>2026-05-09T16:00:58.945Z</time>
      </trkpt>
      <trkpt lat="51.842412" lon="5.856529">
        <ele>72.856576</ele>
        <time>2026-05-09T16:01:02.948Z</time>
      </trkpt>
      <trkpt lat="51.842432" lon="5.856341">
        <ele>72.767599</ele>
        <time>2026-05-09T16:01:06.945Z</time>
      </trkpt>
      <trkpt lat="51.842462" lon="5.856171">
        <ele>72.685137</ele>
        <time>2026-05-09T16:01:10.945Z</time>
      </trkpt>
      <trkpt lat="51.842492" lon="5.856026">
        <ele>72.614222</ele>
        <time>2026-05-09T16:01:14.946Z</time>
      </trkpt>
      <trkpt lat="51.842487" lon="5.855851">
        <ele>72.534628</ele>
        <time>2026-05-09T16:01:19.944Z</time>
      </trkpt>
      <trkpt lat="51.842495" lon="5.855673">
        <ele>72.453542</ele>
        <time>2026-05-09T16:01:23.946Z</time>
      </trkpt>
      <trkpt lat="51.842513" lon="5.855480">
        <ele>72.364862</ele>
        <time>2026-05-09T16:01:27.944Z</time>
      </trkpt>
      <trkpt lat="51.842524" lon="5.855326">
        <ele>72.294428</ele>
        <time>2026-05-09T16:01:30.947Z</time>
      </trkpt>
      <trkpt lat="51.842544" lon="5.855175">
        <ele>72.224264</ele>
        <time>2026-05-09T16:01:33.944Z</time>
      </trkpt>
      <trkpt lat="51.842565" lon="5.855031">
        <ele>72.157041</ele>
        <time>2026-05-09T16:01:36.957Z</time>
      </trkpt>
      <trkpt lat="51.842582" lon="5.854885">
        <ele>72.089540</ele>
        <time>2026-05-09T16:01:39.943Z</time>
      </trkpt>
      <trkpt lat="51.842601" lon="5.854742">
        <ele>72.023085</ele>
        <time>2026-05-09T16:01:42.959Z</time>
      </trkpt>
      <trkpt lat="51.842609" lon="5.854553">
        <ele>71.937014</ele>
        <time>2026-05-09T16:01:46.953Z</time>
      </trkpt>
      <trkpt lat="51.842617" lon="5.854367">
        <ele>71.852303</ele>
        <time>2026-05-09T16:01:50.957Z</time>
      </trkpt>
      <trkpt lat="51.842629" lon="5.854196">
        <ele>71.774112</ele>
        <time>2026-05-09T16:01:54.953Z</time>
      </trkpt>
      <trkpt lat="51.842648" lon="5.854037">
        <ele>71.700534</ele>
        <time>2026-05-09T16:01:58.938Z</time>
      </trkpt>
      <trkpt lat="51.842684" lon="5.853887">
        <ele>71.627422</ele>
        <time>2026-05-09T16:02:03.948Z</time>
      </trkpt>
      <trkpt lat="51.842717" lon="5.853750">
        <ele>71.560614</ele>
        <time>2026-05-09T16:02:11.947Z</time>
      </trkpt>
      <trkpt lat="51.842751" lon="5.853609">
        <ele>71.491847</ele>
        <time>2026-05-09T16:02:19.946Z</time>
      </trkpt>
      <trkpt lat="51.842834" lon="5.853542">
        <ele>71.423641</ele>
        <time>2026-05-09T16:02:37.949Z</time>
      </trkpt>
      <trkpt lat="51.842925" lon="5.853496">
        <ele>71.353533</ele>
        <time>2026-05-09T16:02:57.949Z</time>
      </trkpt>
      <trkpt lat="51.843003" lon="5.853412">
        <ele>71.291080</ele>
        <time>2026-05-09T16:03:10.946Z</time>
      </trkpt>
      <trkpt lat="51.843095" lon="5.853406">
        <ele>71.243019</ele>
        <time>2026-05-09T16:03:29.949Z</time>
      </trkpt>
      <trkpt lat="51.843192" lon="5.853413">
        <ele>71.192336</ele>
        <time>2026-05-09T16:03:45.947Z</time>
      </trkpt>
      <trkpt lat="51.843217" lon="5.853268">
        <ele>71.143789</ele>
        <time>2026-05-09T16:04:53.955Z</time>
      </trkpt>
      <trkpt lat="51.843129" lon="5.853220">
        <ele>71.095316</ele>
        <time>2026-05-09T16:05:05.950Z</time>
      </trkpt>
      <trkpt lat="51.843044" lon="5.853161">
        <ele>71.047040</ele>
        <time>2026-05-09T16:05:16.952Z</time>
      </trkpt>
      <trkpt lat="51.842994" lon="5.853288">
        <ele>70.998474</ele>
        <time>2026-05-09T16:05:38.948Z</time>
      </trkpt>
      <trkpt lat="51.843065" lon="5.853390">
        <ele>70.948921</ele>
        <time>2026-05-09T16:05:48.948Z</time>
      </trkpt>
      <trkpt lat="51.843142" lon="5.853472">
        <ele>70.900809</ele>
        <time>2026-05-09T16:05:59.949Z</time>
      </trkpt>
      <trkpt lat="51.843271" lon="5.853589">
        <ele>70.823623</ele>
        <time>2026-05-09T16:07:14.945Z</time>
      </trkpt>
      <trkpt lat="51.843354" lon="5.853535">
        <ele>70.776929</ele>
        <time>2026-05-09T16:07:21.951Z</time>
      </trkpt>
      <trkpt lat="51.843443" lon="5.853475">
        <ele>70.726604</ele>
        <time>2026-05-09T16:07:28.944Z</time>
      </trkpt>
      <trkpt lat="51.843536" lon="5.853482">
        <ele>70.678007</ele>
        <time>2026-05-09T16:07:35.944Z</time>
      </trkpt>
      <trkpt lat="51.843622" lon="5.853533">
        <ele>70.630199</ele>
        <time>2026-05-09T16:07:42.942Z</time>
      </trkpt>
      <trkpt lat="51.843620" lon="5.853680">
        <ele>70.582782</ele>
        <time>2026-05-09T16:07:48.942Z</time>
      </trkpt>
      <trkpt lat="51.843587" lon="5.853822">
        <ele>70.533856</ele>
        <time>2026-05-09T16:07:53.946Z</time>
      </trkpt>
      <trkpt lat="51.843529" lon="5.853978">
        <ele>70.475141</ele>
        <time>2026-05-09T16:07:59.943Z</time>
      </trkpt>
      <trkpt lat="51.843458" lon="5.854107">
        <ele>70.419426</ele>
        <time>2026-05-09T16:08:04.945Z</time>
      </trkpt>
      <trkpt lat="51.843505" lon="5.854232">
        <ele>70.372236</ele>
        <time>2026-05-09T16:08:14.943Z</time>
      </trkpt>
      <trkpt lat="51.843597" lon="5.854260">
        <ele>70.201161</ele>
        <time>2026-05-09T16:08:17.944Z</time>
      </trkpt>
      <trkpt lat="51.843694" lon="5.854293">
        <ele>70.007670</ele>
        <time>2026-05-09T16:08:20.954Z</time>
      </trkpt>
      <trkpt lat="51.843798" lon="5.854323">
        <ele>69.801452</ele>
        <time>2026-05-09T16:08:23.944Z</time>
      </trkpt>
      <trkpt lat="51.843896" lon="5.854351">
        <ele>69.607188</ele>
        <time>2026-05-09T16:08:26.947Z</time>
      </trkpt>
      <trkpt lat="51.843987" lon="5.854369">
        <ele>69.428225</ele>
        <time>2026-05-09T16:08:29.953Z</time>
      </trkpt>
      <trkpt lat="51.844087" lon="5.854393">
        <ele>69.230880</ele>
        <time>2026-05-09T16:08:33.937Z</time>
      </trkpt>
      <trkpt lat="51.844195" lon="5.854390">
        <ele>69.020022</ele>
        <time>2026-05-09T16:08:37.948Z</time>
      </trkpt>
      <trkpt lat="51.844295" lon="5.854412">
        <ele>68.823017</ele>
        <time>2026-05-09T16:08:40.943Z</time>
      </trkpt>
      <trkpt lat="51.844385" lon="5.854444">
        <ele>68.643139</ele>
        <time>2026-05-09T16:08:43.943Z</time>
      </trkpt>
      <trkpt lat="51.844476" lon="5.854488">
        <ele>68.457741</ele>
        <time>2026-05-09T16:08:46.947Z</time>
      </trkpt>
      <trkpt lat="51.844584" lon="5.854546">
        <ele>68.235612</ele>
        <time>2026-05-09T16:08:49.946Z</time>
      </trkpt>
      <trkpt lat="51.844704" lon="5.854622">
        <ele>67.984067</ele>
        <time>2026-05-09T16:08:52.942Z</time>
      </trkpt>
      <trkpt lat="51.844794" lon="5.854687">
        <ele>67.791682</ele>
        <time>2026-05-09T16:08:54.947Z</time>
      </trkpt>
      <trkpt lat="51.844881" lon="5.854753">
        <ele>67.604122</ele>
        <time>2026-05-09T16:08:56.946Z</time>
      </trkpt>
      <trkpt lat="51.844969" lon="5.854816">
        <ele>67.416285</ele>
        <time>2026-05-09T16:08:58.945Z</time>
      </trkpt>
      <trkpt lat="51.845053" lon="5.854882">
        <ele>67.234011</ele>
        <time>2026-05-09T16:09:00.945Z</time>
      </trkpt>
      <trkpt lat="51.845134" lon="5.854966">
        <ele>67.046223</ele>
        <time>2026-05-09T16:09:02.946Z</time>
      </trkpt>
      <trkpt lat="51.845198" lon="5.855094">
        <ele>66.857003</ele>
        <time>2026-05-09T16:09:04.952Z</time>
      </trkpt>
      <trkpt lat="51.845271" lon="5.855212">
        <ele>66.860639</ele>
        <time>2026-05-09T16:09:06.954Z</time>
      </trkpt>
      <trkpt lat="51.845361" lon="5.855296">
        <ele>66.864300</ele>
        <time>2026-05-09T16:09:08.951Z</time>
      </trkpt>
      <trkpt lat="51.845452" lon="5.855378">
        <ele>66.867971</ele>
        <time>2026-05-09T16:09:10.947Z</time>
      </trkpt>
      <trkpt lat="51.845539" lon="5.855461">
        <ele>66.871530</ele>
        <time>2026-05-09T16:09:12.944Z</time>
      </trkpt>
      <trkpt lat="51.845630" lon="5.855534">
        <ele>66.875109</ele>
        <time>2026-05-09T16:09:14.951Z</time>
      </trkpt>
      <trkpt lat="51.845713" lon="5.855612">
        <ele>66.878491</ele>
        <time>2026-05-09T16:09:16.951Z</time>
      </trkpt>
      <trkpt lat="51.845794" lon="5.855682">
        <ele>66.881727</ele>
        <time>2026-05-09T16:09:18.952Z</time>
      </trkpt>
      <trkpt lat="51.845879" lon="5.855745">
        <ele>66.885021</ele>
        <time>2026-05-09T16:09:20.942Z</time>
      </trkpt>
      <trkpt lat="51.845988" lon="5.855841">
        <ele>66.889395</ele>
        <time>2026-05-09T16:09:23.944Z</time>
      </trkpt>
      <trkpt lat="51.846085" lon="5.855934">
        <ele>66.893368</ele>
        <time>2026-05-09T16:09:26.941Z</time>
      </trkpt>
      <trkpt lat="51.846155" lon="5.856044">
        <ele>66.896806</ele>
        <time>2026-05-09T16:09:29.948Z</time>
      </trkpt>
      <trkpt lat="51.846176" lon="5.856193">
        <ele>66.900133</ele>
        <time>2026-05-09T16:09:33.955Z</time>
      </trkpt>
      <trkpt lat="51.846188" lon="5.856356">
        <ele>66.903707</ele>
        <time>2026-05-09T16:09:39.947Z</time>
      </trkpt>
      <trkpt lat="51.846197" lon="5.856503">
        <ele>66.906923</ele>
        <time>2026-05-09T16:09:45.954Z</time>
      </trkpt>
      <trkpt lat="51.846177" lon="5.856650">
        <ele>66.910200</ele>
        <time>2026-05-09T16:09:51.950Z</time>
      </trkpt>
      <trkpt lat="51.846088" lon="5.856708">
        <ele>66.913581</ele>
        <time>2026-05-09T16:09:56.949Z</time>
      </trkpt>
      <trkpt lat="51.845988" lon="5.856723">
        <ele>66.917120</ele>
        <time>2026-05-09T16:10:01.943Z</time>
      </trkpt>
      <trkpt lat="51.845890" lon="5.856747">
        <ele>66.894296</ele>
        <time>2026-05-09T16:10:07.943Z</time>
      </trkpt>
      <trkpt lat="51.845786" lon="5.856805">
        <ele>66.636221</ele>
        <time>2026-05-09T16:10:13.941Z</time>
      </trkpt>
      <trkpt lat="51.845683" lon="5.856830">
        <ele>66.391867</ele>
        <time>2026-05-09T16:10:18.949Z</time>
      </trkpt>
      <trkpt lat="51.845580" lon="5.856872">
        <ele>66.142664</ele>
        <time>2026-05-09T16:10:23.949Z</time>
      </trkpt>
      <trkpt lat="51.845519" lon="5.856992">
        <ele>65.917423</ele>
        <time>2026-05-09T16:10:28.947Z</time>
      </trkpt>
      <trkpt lat="51.845586" lon="5.857096">
        <ele>65.699635</ele>
        <time>2026-05-09T16:10:32.940Z</time>
      </trkpt>
      <trkpt lat="51.845692" lon="5.857158">
        <ele>65.435206</ele>
        <time>2026-05-09T16:10:37.951Z</time>
      </trkpt>
      <trkpt lat="51.845809" lon="5.857199">
        <ele>65.154348</ele>
        <time>2026-05-09T16:10:41.944Z</time>
      </trkpt>
      <trkpt lat="51.845898" lon="5.857233">
        <ele>64.939804</ele>
        <time>2026-05-09T16:10:44.945Z</time>
      </trkpt>
      <trkpt lat="51.845985" lon="5.857322">
        <ele>64.698344</ele>
        <time>2026-05-09T16:10:47.944Z</time>
      </trkpt>
      <trkpt lat="51.846037" lon="5.857453">
        <ele>64.472657</ele>
        <time>2026-05-09T16:10:50.942Z</time>
      </trkpt>
      <trkpt lat="51.846071" lon="5.857612">
        <ele>64.228788</ele>
        <time>2026-05-09T16:10:55.944Z</time>
      </trkpt>
      <trkpt lat="51.846065" lon="5.857761">
        <ele>64.012370</ele>
        <time>2026-05-09T16:11:03.949Z</time>
      </trkpt>
      <trkpt lat="51.846094" lon="5.857960">
        <ele>63.716024</ele>
        <time>2026-05-09T16:11:44.946Z</time>
      </trkpt>
      <trkpt lat="51.846177" lon="5.858053">
        <ele>63.479193</ele>
        <time>2026-05-09T16:11:49.940Z</time>
      </trkpt>
      <trkpt lat="51.846274" lon="5.858082">
        <ele>63.247767</ele>
        <time>2026-05-09T16:11:53.944Z</time>
      </trkpt>
      <trkpt lat="51.846372" lon="5.858053">
        <ele>63.014034</ele>
        <time>2026-05-09T16:11:57.940Z</time>
      </trkpt>
      <trkpt lat="51.846461" lon="5.858005">
        <ele>62.793942</ele>
        <time>2026-05-09T16:12:01.942Z</time>
      </trkpt>
      <trkpt lat="51.846551" lon="5.858021">
        <ele>62.585867</ele>
        <time>2026-05-09T16:12:05.941Z</time>
      </trkpt>
      <trkpt lat="51.846646" lon="5.858018">
        <ele>62.371096</ele>
        <time>2026-05-09T16:12:11.945Z</time>
      </trkpt>
      <trkpt lat="51.846747" lon="5.857984">
        <ele>62.137921</ele>
        <time>2026-05-09T16:12:15.944Z</time>
      </trkpt>
      <trkpt lat="51.846863" lon="5.857959">
        <ele>61.873411</ele>
        <time>2026-05-09T16:12:19.943Z</time>
      </trkpt>
      <trkpt lat="51.846959" lon="5.857897">
        <ele>61.639789</ele>
        <time>2026-05-09T16:12:23.940Z</time>
      </trkpt>
      <trkpt lat="51.847035" lon="5.857776">
        <ele>61.398841</ele>
        <time>2026-05-09T16:12:27.942Z</time>
      </trkpt>
      <trkpt lat="51.847031" lon="5.857629">
        <ele>61.193380</ele>
        <time>2026-05-09T16:12:30.941Z</time>
      </trkpt>
      <trkpt lat="51.846995" lon="5.857494">
        <ele>60.988062</ele>
        <time>2026-05-09T16:12:36.944Z</time>
      </trkpt>
      <trkpt lat="51.847021" lon="5.857350">
        <ele>60.778577</ele>
        <time>2026-05-09T16:12:41.946Z</time>
      </trkpt>
      <trkpt lat="51.847100" lon="5.857274">
        <ele>60.570859</ele>
        <time>2026-05-09T16:12:47.944Z</time>
      </trkpt>
      <trkpt lat="51.847188" lon="5.857178">
        <ele>60.330998</ele>
        <time>2026-05-09T16:12:55.948Z</time>
      </trkpt>
      <trkpt lat="51.847274" lon="5.857108">
        <ele>60.113421</ele>
        <time>2026-05-09T16:13:00.943Z</time>
      </trkpt>
      <trkpt lat="51.847371" lon="5.857053">
        <ele>59.881110</ele>
        <time>2026-05-09T16:13:04.946Z</time>
      </trkpt>
      <trkpt lat="51.847481" lon="5.857029">
        <ele>59.630227</ele>
        <time>2026-05-09T16:13:09.943Z</time>
      </trkpt>
      <trkpt lat="51.847576" lon="5.857032">
        <ele>59.415457</ele>
        <time>2026-05-09T16:13:13.942Z</time>
      </trkpt>
      <trkpt lat="51.847675" lon="5.857045">
        <ele>59.190951</ele>
        <time>2026-05-09T16:13:17.942Z</time>
      </trkpt>
      <trkpt lat="51.847761" lon="5.857094">
        <ele>58.984875</ele>
        <time>2026-05-09T16:13:21.943Z</time>
      </trkpt>
      <trkpt lat="51.847845" lon="5.857009">
        <ele>58.760965</ele>
        <time>2026-05-09T16:13:27.941Z</time>
      </trkpt>
      <trkpt lat="51.847872" lon="5.856870">
        <ele>58.751640</ele>
        <time>2026-05-09T16:13:39.940Z</time>
      </trkpt>
      <trkpt lat="51.847920" lon="5.856734">
        <ele>59.081906</ele>
        <time>2026-05-09T16:32:30.966Z</time>
      </trkpt>
      <trkpt lat="51.847930" lon="5.856589">
        <ele>59.389545</ele>
        <time>2026-05-09T16:32:40.953Z</time>
      </trkpt>
      <trkpt lat="51.848013" lon="5.856644">
        <ele>59.695664</ele>
        <time>2026-05-09T16:32:53.951Z</time>
      </trkpt>
      <trkpt lat="51.848105" lon="5.856664">
        <ele>60.012503</ele>
        <time>2026-05-09T16:33:02.955Z</time>
      </trkpt>
      <trkpt lat="51.848249" lon="5.856717">
        <ele>60.516558</ele>
        <time>2026-05-09T16:34:49.948Z</time>
      </trkpt>
      <trkpt lat="51.848324" lon="5.856618">
        <ele>60.846873</ele>
        <time>2026-05-09T16:34:54.949Z</time>
      </trkpt>
      <trkpt lat="51.848355" lon="5.856475">
        <ele>61.166420</ele>
        <time>2026-05-09T16:34:59.949Z</time>
      </trkpt>
      <trkpt lat="51.848416" lon="5.856314">
        <ele>61.564657</ele>
        <time>2026-05-09T16:35:04.946Z</time>
      </trkpt>
      <trkpt lat="51.848456" lon="5.856182">
        <ele>61.874666</ele>
        <time>2026-05-09T16:35:07.943Z</time>
      </trkpt>
      <trkpt lat="51.848478" lon="5.856029">
        <ele>62.205895</ele>
        <time>2026-05-09T16:35:10.942Z</time>
      </trkpt>
      <trkpt lat="51.848507" lon="5.855883">
        <ele>62.529262</ele>
        <time>2026-05-09T16:35:13.943Z</time>
      </trkpt>
      <trkpt lat="51.848535" lon="5.855736">
        <ele>62.853614</ele>
        <time>2026-05-09T16:35:16.941Z</time>
      </trkpt>
      <trkpt lat="51.848563" lon="5.855559">
        <ele>63.238865</ele>
        <time>2026-05-09T16:35:20.944Z</time>
      </trkpt>
      <trkpt lat="51.848588" lon="5.855388">
        <ele>63.609382</ele>
        <time>2026-05-09T16:35:24.946Z</time>
      </trkpt>
      <trkpt lat="51.848565" lon="5.855224">
        <ele>63.963978</ele>
        <time>2026-05-09T16:35:29.949Z</time>
      </trkpt>
      <trkpt lat="51.848481" lon="5.855132">
        <ele>64.310150</ele>
        <time>2026-05-09T16:35:34.944Z</time>
      </trkpt>
      <trkpt lat="51.848381" lon="5.855122">
        <ele>64.652127</ele>
        <time>2026-05-09T16:35:38.945Z</time>
      </trkpt>
      <trkpt lat="51.848311" lon="5.855029">
        <ele>64.839234</ele>
        <time>2026-05-09T16:35:59.949Z</time>
      </trkpt>
      <trkpt lat="51.848225" lon="5.854983">
        <ele>64.946843</ele>
        <time>2026-05-09T16:36:25.945Z</time>
      </trkpt>
      <trkpt lat="51.848141" lon="5.854895">
        <ele>65.065718</ele>
        <time>2026-05-09T16:36:40.947Z</time>
      </trkpt>
      <trkpt lat="51.848074" lon="5.854788">
        <ele>65.177538</ele>
        <time>2026-05-09T16:36:46.945Z</time>
      </trkpt>
      <trkpt lat="51.847988" lon="5.854736">
        <ele>65.286608</ele>
        <time>2026-05-09T16:36:49.944Z</time>
      </trkpt>
      <trkpt lat="51.847883" lon="5.854685">
        <ele>65.416852</ele>
        <time>2026-05-09T16:36:52.947Z</time>
      </trkpt>
      <trkpt lat="51.847764" lon="5.854632">
        <ele>65.563488</ele>
        <time>2026-05-09T16:36:55.950Z</time>
      </trkpt>
      <trkpt lat="51.847643" lon="5.854592">
        <ele>65.710214</ele>
        <time>2026-05-09T16:36:58.947Z</time>
      </trkpt>
      <trkpt lat="51.847521" lon="5.854543">
        <ele>65.859555</ele>
        <time>2026-05-09T16:37:01.947Z</time>
      </trkpt>
      <trkpt lat="51.847395" lon="5.854491">
        <ele>66.014043</ele>
        <time>2026-05-09T16:37:04.946Z</time>
      </trkpt>
      <trkpt lat="51.847302" lon="5.854466">
        <ele>66.126048</ele>
        <time>2026-05-09T16:37:06.945Z</time>
      </trkpt>
      <trkpt lat="51.847204" lon="5.854432">
        <ele>66.245125</ele>
        <time>2026-05-09T16:37:08.945Z</time>
      </trkpt>
      <trkpt lat="51.847114" lon="5.854399">
        <ele>66.354761</ele>
        <time>2026-05-09T16:37:10.946Z</time>
      </trkpt>
      <trkpt lat="51.847024" lon="5.854371">
        <ele>66.463646</ele>
        <time>2026-05-09T16:37:12.945Z</time>
      </trkpt>
      <trkpt lat="51.846891" lon="5.854334">
        <ele>66.623978</ele>
        <time>2026-05-09T16:37:15.953Z</time>
      </trkpt>
      <trkpt lat="51.846795" lon="5.854314">
        <ele>66.738975</ele>
        <time>2026-05-09T16:37:17.951Z</time>
      </trkpt>
      <trkpt lat="51.846705" lon="5.854282">
        <ele>66.848452</ele>
        <time>2026-05-09T16:37:19.946Z</time>
      </trkpt>
      <trkpt lat="51.846569" lon="5.854252">
        <ele>66.994897</ele>
        <time>2026-05-09T16:37:22.947Z</time>
      </trkpt>
      <trkpt lat="51.846476" lon="5.854221">
        <ele>67.089038</ele>
        <time>2026-05-09T16:37:24.945Z</time>
      </trkpt>
      <trkpt lat="51.846385" lon="5.854187">
        <ele>67.181634</ele>
        <time>2026-05-09T16:37:26.943Z</time>
      </trkpt>
      <trkpt lat="51.846294" lon="5.854172">
        <ele>67.272324</ele>
        <time>2026-05-09T16:37:28.951Z</time>
      </trkpt>
      <trkpt lat="51.846203" lon="5.854159">
        <ele>67.362898</ele>
        <time>2026-05-09T16:37:30.949Z</time>
      </trkpt>
      <trkpt lat="51.846111" lon="5.854175">
        <ele>67.454638</ele>
        <time>2026-05-09T16:37:32.953Z</time>
      </trkpt>
      <trkpt lat="51.846017" lon="5.854219">
        <ele>67.551655</ele>
        <time>2026-05-09T16:37:34.946Z</time>
      </trkpt>
      <trkpt lat="51.845927" lon="5.854263">
        <ele>67.644868</ele>
        <time>2026-05-09T16:37:36.945Z</time>
      </trkpt>
      <trkpt lat="51.845840" lon="5.854307">
        <ele>67.735238</ele>
        <time>2026-05-09T16:37:38.949Z</time>
      </trkpt>
      <trkpt lat="51.845749" lon="5.854361">
        <ele>67.831333</ele>
        <time>2026-05-09T16:37:40.948Z</time>
      </trkpt>
      <trkpt lat="51.845665" lon="5.854430">
        <ele>67.924726</ele>
        <time>2026-05-09T16:37:42.953Z</time>
      </trkpt>
      <trkpt lat="51.845576" lon="5.854493">
        <ele>68.021035</ele>
        <time>2026-05-09T16:37:44.945Z</time>
      </trkpt>
      <trkpt lat="51.845468" lon="5.854552">
        <ele>68.134047</ele>
        <time>2026-05-09T16:37:46.949Z</time>
      </trkpt>
      <trkpt lat="51.845389" lon="5.854634">
        <ele>68.227094</ele>
        <time>2026-05-09T16:37:48.945Z</time>
      </trkpt>
      <trkpt lat="51.845302" lon="5.854674">
        <ele>68.316763</ele>
        <time>2026-05-09T16:37:51.947Z</time>
      </trkpt>
      <trkpt lat="51.845186" lon="5.854750">
        <ele>68.440838</ele>
        <time>2026-05-09T16:37:54.947Z</time>
      </trkpt>
      <trkpt lat="51.845078" lon="5.854839">
        <ele>68.560994</ele>
        <time>2026-05-09T16:37:57.945Z</time>
      </trkpt>
      <trkpt lat="51.844964" lon="5.854828">
        <ele>68.674222</ele>
        <time>2026-05-09T16:38:00.958Z</time>
      </trkpt>
      <trkpt lat="51.844862" lon="5.854732">
        <ele>68.752528</ele>
        <time>2026-05-09T16:38:03.945Z</time>
      </trkpt>
      <trkpt lat="51.844763" lon="5.854645">
        <ele>68.819621</ele>
        <time>2026-05-09T16:38:06.952Z</time>
      </trkpt>
      <trkpt lat="51.844694" lon="5.854526">
        <ele>68.879671</ele>
        <time>2026-05-09T16:38:09.944Z</time>
      </trkpt>
      <trkpt lat="51.844602" lon="5.854435">
        <ele>68.943885</ele>
        <time>2026-05-09T16:38:12.941Z</time>
      </trkpt>
      <trkpt lat="51.844470" lon="5.854424">
        <ele>69.022606</ele>
        <time>2026-05-09T16:38:15.948Z</time>
      </trkpt>
      <trkpt lat="51.844347" lon="5.854400">
        <ele>69.096393</ele>
        <time>2026-05-09T16:38:18.948Z</time>
      </trkpt>
      <trkpt lat="51.844230" lon="5.854376">
        <ele>69.166634</ele>
        <time>2026-05-09T16:38:21.946Z</time>
      </trkpt>
      <trkpt lat="51.844124" lon="5.854352">
        <ele>69.230380</ele>
        <time>2026-05-09T16:38:24.947Z</time>
      </trkpt>
      <trkpt lat="51.844026" lon="5.854332">
        <ele>69.289210</ele>
        <time>2026-05-09T16:38:27.947Z</time>
      </trkpt>
      <trkpt lat="51.843919" lon="5.854319">
        <ele>69.353116</ele>
        <time>2026-05-09T16:38:30.946Z</time>
      </trkpt>
      <trkpt lat="51.843802" lon="5.854279">
        <ele>69.424337</ele>
        <time>2026-05-09T16:38:33.947Z</time>
      </trkpt>
      <trkpt lat="51.843684" lon="5.854235">
        <ele>69.496457</ele>
        <time>2026-05-09T16:38:36.938Z</time>
      </trkpt>
      <trkpt lat="51.843574" lon="5.854201">
        <ele>69.563155</ele>
        <time>2026-05-09T16:38:39.946Z</time>
      </trkpt>
      <trkpt lat="51.843466" lon="5.854162">
        <ele>69.629059</ele>
        <time>2026-05-09T16:38:43.946Z</time>
      </trkpt>
      <trkpt lat="51.843348" lon="5.854120">
        <ele>69.701017</ele>
        <time>2026-05-09T16:38:47.946Z</time>
      </trkpt>
      <trkpt lat="51.843300" lon="5.853991">
        <ele>69.756428</ele>
        <time>2026-05-09T16:38:51.951Z</time>
      </trkpt>
      <trkpt lat="51.843331" lon="5.853852">
        <ele>69.765585</ele>
        <time>2026-05-09T16:38:57.942Z</time>
      </trkpt>
      <trkpt lat="51.843328" lon="5.853701">
        <ele>69.765585</ele>
        <time>2026-05-09T16:39:12.955Z</time>
      </trkpt>
      <trkpt lat="51.843290" lon="5.853565">
        <ele>69.765585</ele>
        <time>2026-05-09T16:39:20.943Z</time>
      </trkpt>
      <trkpt lat="51.843271" lon="5.853406">
        <ele>69.765585</ele>
        <time>2026-05-09T16:39:29.943Z</time>
      </trkpt>
      <trkpt lat="51.843300" lon="5.853250">
        <ele>69.765585</ele>
        <time>2026-05-09T16:39:42.940Z</time>
      </trkpt>
      <trkpt lat="51.843330" lon="5.853093">
        <ele>69.765585</ele>
        <time>2026-05-09T16:39:53.944Z</time>
      </trkpt>
      <trkpt lat="51.843353" lon="5.852947">
        <ele>69.765585</ele>
        <time>2026-05-09T16:40:01.947Z</time>
      </trkpt>
      <trkpt lat="51.843405" lon="5.852818">
        <ele>69.765585</ele>
        <time>2026-05-09T16:40:23.949Z</time>
      </trkpt>
      <trkpt lat="51.843493" lon="5.852783">
        <ele>69.765585</ele>
        <time>2026-05-09T16:40:40.961Z</time>
      </trkpt>
      <trkpt lat="51.843593" lon="5.852870">
        <ele>69.765585</ele>
        <time>2026-05-09T16:41:04.947Z</time>
      </trkpt>
      <trkpt lat="51.843680" lon="5.852916">
        <ele>69.765585</ele>
        <time>2026-05-09T16:41:13.950Z</time>
      </trkpt>
      <trkpt lat="51.843780" lon="5.852946">
        <ele>69.765585</ele>
        <time>2026-05-09T16:41:21.948Z</time>
      </trkpt>
      <trkpt lat="51.843857" lon="5.853035">
        <ele>69.765585</ele>
        <time>2026-05-09T16:41:32.948Z</time>
      </trkpt>
      <trkpt lat="51.843949" lon="5.853050">
        <ele>69.765585</ele>
        <time>2026-05-09T16:41:42.948Z</time>
      </trkpt>
      <trkpt lat="51.844030" lon="5.853121">
        <ele>69.765585</ele>
        <time>2026-05-09T16:41:53.953Z</time>
      </trkpt>
      <trkpt lat="51.844118" lon="5.853179">
        <ele>69.765585</ele>
        <time>2026-05-09T16:42:02.949Z</time>
      </trkpt>
      <trkpt lat="51.844208" lon="5.853222">
        <ele>69.765585</ele>
        <time>2026-05-09T16:42:10.948Z</time>
      </trkpt>
      <trkpt lat="51.844291" lon="5.853293">
        <ele>69.765585</ele>
        <time>2026-05-09T16:42:18.948Z</time>
      </trkpt>
      <trkpt lat="51.844380" lon="5.853207">
        <ele>69.765585</ele>
        <time>2026-05-09T16:43:50.954Z</time>
      </trkpt>
      <trkpt lat="51.844318" lon="5.853099">
        <ele>69.765585</ele>
        <time>2026-05-09T16:49:14.953Z</time>
      </trkpt>
    </trkseg>
  </trk>
</gpx>